<?xml version="1.0" encoding="UTF-8" standalone="no" ?>
<gpx xmlns="http://www.topografix.com/GPX/1/1" xmlns:xsi="http://www.w3.org/2001/XMLSchema-instance" xsi:schemaLocation="http://www.topografix.com/GPX/1/1 http://www.topografix.com/GPX/1/1/gpx.xsd" version="1.1" creator="VisuGPX - https://www.visugpx.com">
  <metadata>
    <name>Retour Lons en carroyant</name>
  </metadata>
  <trk>
    <name><![CDATA[Retour Lons en carroyant]]></name>
    <trkseg>
      <trkpt lat="46.66917" lon="5.55143">
        <ele>272.8</ele>
        <time>2022-03-07T08:18:55Z</time>
      </trkpt>
      <trkpt lat="46.66917" lon="5.55143">
        <ele>272.8</ele>
        <time>2022-03-07T08:18:56Z</time>
      </trkpt>
      <trkpt lat="46.66917" lon="5.55143">
        <ele>272.8</ele>
        <time>2022-03-07T08:18:57Z</time>
      </trkpt>
      <trkpt lat="46.66917" lon="5.55143">
        <ele>273</ele>
        <time>2022-03-07T08:18:58Z</time>
      </trkpt>
      <trkpt lat="46.66917" lon="5.55143">
        <ele>266</ele>
        <time>2022-03-07T08:18:59Z</time>
      </trkpt>
      <trkpt lat="46.66917" lon="5.55143">
        <ele>266</ele>
        <time>2022-03-07T08:19:00Z</time>
      </trkpt>
      <trkpt lat="46.66914" lon="5.55145">
        <ele>266</ele>
        <time>2022-03-07T08:19:01Z</time>
      </trkpt>
      <trkpt lat="46.66912" lon="5.55145">
        <ele>266</ele>
        <time>2022-03-07T08:19:02Z</time>
      </trkpt>
      <trkpt lat="46.6691" lon="5.55144">
        <ele>266.4</ele>
        <time>2022-03-07T08:19:03Z</time>
      </trkpt>
      <trkpt lat="46.66908" lon="5.55142">
        <ele>266.4</ele>
        <time>2022-03-07T08:19:04Z</time>
      </trkpt>
      <trkpt lat="46.66907" lon="5.55139">
        <ele>266.4</ele>
        <time>2022-03-07T08:19:05Z</time>
      </trkpt>
      <trkpt lat="46.66905" lon="5.55136">
        <ele>266.6</ele>
        <time>2022-03-07T08:19:06Z</time>
      </trkpt>
      <trkpt lat="46.66905" lon="5.55132">
        <ele>266.6</ele>
        <time>2022-03-07T08:19:07Z</time>
      </trkpt>
      <trkpt lat="46.66904" lon="5.55128">
        <ele>266.6</ele>
        <time>2022-03-07T08:19:08Z</time>
      </trkpt>
      <trkpt lat="46.66904" lon="5.55124">
        <ele>266.6</ele>
        <time>2022-03-07T08:19:09Z</time>
      </trkpt>
      <trkpt lat="46.66903" lon="5.5512">
        <ele>266.6</ele>
        <time>2022-03-07T08:19:10Z</time>
      </trkpt>
      <trkpt lat="46.66902" lon="5.55116">
        <ele>266.6</ele>
        <time>2022-03-07T08:19:11Z</time>
      </trkpt>
      <trkpt lat="46.66902" lon="5.55111">
        <ele>266.8</ele>
        <time>2022-03-07T08:19:12Z</time>
      </trkpt>
      <trkpt lat="46.66902" lon="5.55106">
        <ele>266.8</ele>
        <time>2022-03-07T08:19:13Z</time>
      </trkpt>
      <trkpt lat="46.66901" lon="5.55101">
        <ele>266.8</ele>
        <time>2022-03-07T08:19:14Z</time>
      </trkpt>
      <trkpt lat="46.66901" lon="5.55096">
        <ele>266.8</ele>
        <time>2022-03-07T08:19:15Z</time>
      </trkpt>
      <trkpt lat="46.669" lon="5.55091">
        <ele>266.8</ele>
        <time>2022-03-07T08:19:16Z</time>
      </trkpt>
      <trkpt lat="46.669" lon="5.55085">
        <ele>266.8</ele>
        <time>2022-03-07T08:19:17Z</time>
      </trkpt>
      <trkpt lat="46.669" lon="5.5508">
        <ele>266.8</ele>
        <time>2022-03-07T08:19:18Z</time>
      </trkpt>
      <trkpt lat="46.669" lon="5.55075">
        <ele>266.8</ele>
        <time>2022-03-07T08:19:19Z</time>
      </trkpt>
      <trkpt lat="46.66899" lon="5.55069">
        <ele>266.8</ele>
        <time>2022-03-07T08:19:20Z</time>
      </trkpt>
      <trkpt lat="46.66899" lon="5.55063">
        <ele>267</ele>
        <time>2022-03-07T08:19:21Z</time>
      </trkpt>
      <trkpt lat="46.669" lon="5.55057">
        <ele>267</ele>
        <time>2022-03-07T08:19:22Z</time>
      </trkpt>
      <trkpt lat="46.669" lon="5.55051">
        <ele>267</ele>
        <time>2022-03-07T08:19:23Z</time>
      </trkpt>
      <trkpt lat="46.669" lon="5.55044">
        <ele>267</ele>
        <time>2022-03-07T08:19:24Z</time>
      </trkpt>
      <trkpt lat="46.66901" lon="5.55038">
        <ele>267</ele>
        <time>2022-03-07T08:19:25Z</time>
      </trkpt>
      <trkpt lat="46.66901" lon="5.55032">
        <ele>267</ele>
        <time>2022-03-07T08:19:26Z</time>
      </trkpt>
      <trkpt lat="46.66902" lon="5.55026">
        <ele>267</ele>
        <time>2022-03-07T08:19:27Z</time>
      </trkpt>
      <trkpt lat="46.66902" lon="5.55019">
        <ele>267</ele>
        <time>2022-03-07T08:19:28Z</time>
      </trkpt>
      <trkpt lat="46.66903" lon="5.55013">
        <ele>267</ele>
        <time>2022-03-07T08:19:29Z</time>
      </trkpt>
      <trkpt lat="46.66904" lon="5.55006">
        <ele>267.2</ele>
        <time>2022-03-07T08:19:30Z</time>
      </trkpt>
      <trkpt lat="46.66905" lon="5.55">
        <ele>267.2</ele>
        <time>2022-03-07T08:19:31Z</time>
      </trkpt>
      <trkpt lat="46.66905" lon="5.54994">
        <ele>267.2</ele>
        <time>2022-03-07T08:19:32Z</time>
      </trkpt>
      <trkpt lat="46.66906" lon="5.54987">
        <ele>267.2</ele>
        <time>2022-03-07T08:19:33Z</time>
      </trkpt>
      <trkpt lat="46.66907" lon="5.54981">
        <ele>267.2</ele>
        <time>2022-03-07T08:19:34Z</time>
      </trkpt>
      <trkpt lat="46.66908" lon="5.54974">
        <ele>267.2</ele>
        <time>2022-03-07T08:19:35Z</time>
      </trkpt>
      <trkpt lat="46.66908" lon="5.54968">
        <ele>267.2</ele>
        <time>2022-03-07T08:19:36Z</time>
      </trkpt>
      <trkpt lat="46.66909" lon="5.54962">
        <ele>267.2</ele>
        <time>2022-03-07T08:19:37Z</time>
      </trkpt>
      <trkpt lat="46.6691" lon="5.54956">
        <ele>267.2</ele>
        <time>2022-03-07T08:19:38Z</time>
      </trkpt>
      <trkpt lat="46.6691" lon="5.54949">
        <ele>267.2</ele>
        <time>2022-03-07T08:19:39Z</time>
      </trkpt>
      <trkpt lat="46.66911" lon="5.54943">
        <ele>267.2</ele>
        <time>2022-03-07T08:19:40Z</time>
      </trkpt>
      <trkpt lat="46.66911" lon="5.54937">
        <ele>267</ele>
        <time>2022-03-07T08:19:41Z</time>
      </trkpt>
      <trkpt lat="46.66912" lon="5.54931">
        <ele>267</ele>
        <time>2022-03-07T08:19:42Z</time>
      </trkpt>
      <trkpt lat="46.66913" lon="5.54924">
        <ele>267</ele>
        <time>2022-03-07T08:19:43Z</time>
      </trkpt>
      <trkpt lat="46.66913" lon="5.54918">
        <ele>267</ele>
        <time>2022-03-07T08:19:44Z</time>
      </trkpt>
      <trkpt lat="46.66914" lon="5.54912">
        <ele>267</ele>
        <time>2022-03-07T08:19:45Z</time>
      </trkpt>
      <trkpt lat="46.66914" lon="5.54906">
        <ele>267</ele>
        <time>2022-03-07T08:19:46Z</time>
      </trkpt>
      <trkpt lat="46.66915" lon="5.54899">
        <ele>267</ele>
        <time>2022-03-07T08:19:47Z</time>
      </trkpt>
      <trkpt lat="46.66915" lon="5.54892">
        <ele>266.8</ele>
        <time>2022-03-07T08:19:48Z</time>
      </trkpt>
      <trkpt lat="46.66916" lon="5.54886">
        <ele>266.8</ele>
        <time>2022-03-07T08:19:49Z</time>
      </trkpt>
      <trkpt lat="46.66917" lon="5.54879">
        <ele>266.8</ele>
        <time>2022-03-07T08:19:50Z</time>
      </trkpt>
      <trkpt lat="46.66918" lon="5.54872">
        <ele>266.4</ele>
        <time>2022-03-07T08:19:51Z</time>
      </trkpt>
      <trkpt lat="46.66919" lon="5.54865">
        <ele>266.4</ele>
        <time>2022-03-07T08:19:52Z</time>
      </trkpt>
      <trkpt lat="46.6692" lon="5.54858">
        <ele>266.4</ele>
        <time>2022-03-07T08:19:53Z</time>
      </trkpt>
      <trkpt lat="46.6692" lon="5.54852">
        <ele>266.4</ele>
        <time>2022-03-07T08:19:54Z</time>
      </trkpt>
      <trkpt lat="46.66921" lon="5.54845">
        <ele>266.2</ele>
        <time>2022-03-07T08:19:55Z</time>
      </trkpt>
      <trkpt lat="46.66922" lon="5.54839">
        <ele>266.2</ele>
        <time>2022-03-07T08:19:56Z</time>
      </trkpt>
      <trkpt lat="46.66922" lon="5.54832">
        <ele>266.2</ele>
        <time>2022-03-07T08:19:57Z</time>
      </trkpt>
      <trkpt lat="46.66924" lon="5.54822">
        <ele>266.2</ele>
        <time>2022-03-07T08:19:58Z</time>
      </trkpt>
      <trkpt lat="46.66924" lon="5.54819">
        <ele>266.2</ele>
        <time>2022-03-07T08:19:59Z</time>
      </trkpt>
      <trkpt lat="46.66925" lon="5.54812">
        <ele>266</ele>
        <time>2022-03-07T08:20:00Z</time>
      </trkpt>
      <trkpt lat="46.66925" lon="5.54806">
        <ele>266</ele>
        <time>2022-03-07T08:20:01Z</time>
      </trkpt>
      <trkpt lat="46.66926" lon="5.54799">
        <ele>265.8</ele>
        <time>2022-03-07T08:20:02Z</time>
      </trkpt>
      <trkpt lat="46.66927" lon="5.54793">
        <ele>265.8</ele>
        <time>2022-03-07T08:20:03Z</time>
      </trkpt>
      <trkpt lat="46.66927" lon="5.54786">
        <ele>265.6</ele>
        <time>2022-03-07T08:20:04Z</time>
      </trkpt>
      <trkpt lat="46.66928" lon="5.5478">
        <ele>265.6</ele>
        <time>2022-03-07T08:20:05Z</time>
      </trkpt>
      <trkpt lat="46.66929" lon="5.54774">
        <ele>265.6</ele>
        <time>2022-03-07T08:20:06Z</time>
      </trkpt>
      <trkpt lat="46.66931" lon="5.54767">
        <ele>265.2</ele>
        <time>2022-03-07T08:20:07Z</time>
      </trkpt>
      <trkpt lat="46.66931" lon="5.54761">
        <ele>265.2</ele>
        <time>2022-03-07T08:20:08Z</time>
      </trkpt>
      <trkpt lat="46.66933" lon="5.54755">
        <ele>265.2</ele>
        <time>2022-03-07T08:20:09Z</time>
      </trkpt>
      <trkpt lat="46.66935" lon="5.54748">
        <ele>265.2</ele>
        <time>2022-03-07T08:20:10Z</time>
      </trkpt>
      <trkpt lat="46.66937" lon="5.54741">
        <ele>265.2</ele>
        <time>2022-03-07T08:20:11Z</time>
      </trkpt>
      <trkpt lat="46.66939" lon="5.54735">
        <ele>265</ele>
        <time>2022-03-07T08:20:12Z</time>
      </trkpt>
      <trkpt lat="46.66942" lon="5.54728">
        <ele>265</ele>
        <time>2022-03-07T08:20:13Z</time>
      </trkpt>
      <trkpt lat="46.66946" lon="5.54722">
        <ele>264.8</ele>
        <time>2022-03-07T08:20:14Z</time>
      </trkpt>
      <trkpt lat="46.6695" lon="5.54716">
        <ele>264.8</ele>
        <time>2022-03-07T08:20:15Z</time>
      </trkpt>
      <trkpt lat="46.66953" lon="5.5471">
        <ele>264.4</ele>
        <time>2022-03-07T08:20:16Z</time>
      </trkpt>
      <trkpt lat="46.66958" lon="5.54703">
        <ele>264.4</ele>
        <time>2022-03-07T08:20:17Z</time>
      </trkpt>
      <trkpt lat="46.66962" lon="5.54697">
        <ele>264.2</ele>
        <time>2022-03-07T08:20:18Z</time>
      </trkpt>
      <trkpt lat="46.66966" lon="5.54691">
        <ele>263.8</ele>
        <time>2022-03-07T08:20:19Z</time>
      </trkpt>
      <trkpt lat="46.6697" lon="5.54685">
        <ele>263.6</ele>
        <time>2022-03-07T08:20:20Z</time>
      </trkpt>
      <trkpt lat="46.66974" lon="5.54678">
        <ele>263.4</ele>
        <time>2022-03-07T08:20:21Z</time>
      </trkpt>
      <trkpt lat="46.66978" lon="5.54672">
        <ele>263.4</ele>
        <time>2022-03-07T08:20:22Z</time>
      </trkpt>
      <trkpt lat="46.66983" lon="5.54666">
        <ele>263.2</ele>
        <time>2022-03-07T08:20:23Z</time>
      </trkpt>
      <trkpt lat="46.66987" lon="5.54659">
        <ele>262.8</ele>
        <time>2022-03-07T08:20:24Z</time>
      </trkpt>
      <trkpt lat="46.66991" lon="5.54652">
        <ele>262.6</ele>
        <time>2022-03-07T08:20:25Z</time>
      </trkpt>
      <trkpt lat="46.66995" lon="5.54645">
        <ele>262.4</ele>
        <time>2022-03-07T08:20:26Z</time>
      </trkpt>
      <trkpt lat="46.66999" lon="5.54638">
        <ele>262.4</ele>
        <time>2022-03-07T08:20:27Z</time>
      </trkpt>
      <trkpt lat="46.67004" lon="5.54632">
        <ele>262.2</ele>
        <time>2022-03-07T08:20:28Z</time>
      </trkpt>
      <trkpt lat="46.67008" lon="5.54625">
        <ele>261.8</ele>
        <time>2022-03-07T08:20:29Z</time>
      </trkpt>
      <trkpt lat="46.67013" lon="5.54619">
        <ele>261.6</ele>
        <time>2022-03-07T08:20:30Z</time>
      </trkpt>
      <trkpt lat="46.67017" lon="5.54612">
        <ele>261.2</ele>
        <time>2022-03-07T08:20:31Z</time>
      </trkpt>
      <trkpt lat="46.67022" lon="5.54606">
        <ele>261.2</ele>
        <time>2022-03-07T08:20:32Z</time>
      </trkpt>
      <trkpt lat="46.67027" lon="5.54599">
        <ele>260.8</ele>
        <time>2022-03-07T08:20:33Z</time>
      </trkpt>
      <trkpt lat="46.67031" lon="5.54592">
        <ele>260.6</ele>
        <time>2022-03-07T08:20:34Z</time>
      </trkpt>
      <trkpt lat="46.67036" lon="5.54586">
        <ele>260.4</ele>
        <time>2022-03-07T08:20:35Z</time>
      </trkpt>
      <trkpt lat="46.67041" lon="5.54579">
        <ele>260.2</ele>
        <time>2022-03-07T08:20:36Z</time>
      </trkpt>
      <trkpt lat="46.67046" lon="5.54572">
        <ele>260.2</ele>
        <time>2022-03-07T08:20:37Z</time>
      </trkpt>
      <trkpt lat="46.67051" lon="5.54565">
        <ele>259.8</ele>
        <time>2022-03-07T08:20:38Z</time>
      </trkpt>
      <trkpt lat="46.67056" lon="5.54559">
        <ele>259.6</ele>
        <time>2022-03-07T08:20:39Z</time>
      </trkpt>
      <trkpt lat="46.67061" lon="5.54552">
        <ele>259.2</ele>
        <time>2022-03-07T08:20:40Z</time>
      </trkpt>
      <trkpt lat="46.67066" lon="5.54545">
        <ele>259.2</ele>
        <time>2022-03-07T08:20:41Z</time>
      </trkpt>
      <trkpt lat="46.67071" lon="5.54538">
        <ele>259</ele>
        <time>2022-03-07T08:20:42Z</time>
      </trkpt>
      <trkpt lat="46.67075" lon="5.54531">
        <ele>258.6</ele>
        <time>2022-03-07T08:20:43Z</time>
      </trkpt>
      <trkpt lat="46.6708" lon="5.54523">
        <ele>258.2</ele>
        <time>2022-03-07T08:20:44Z</time>
      </trkpt>
      <trkpt lat="46.67085" lon="5.54516">
        <ele>257.8</ele>
        <time>2022-03-07T08:20:45Z</time>
      </trkpt>
      <trkpt lat="46.6709" lon="5.54509">
        <ele>257.6</ele>
        <time>2022-03-07T08:20:46Z</time>
      </trkpt>
      <trkpt lat="46.67096" lon="5.54501">
        <ele>257.2</ele>
        <time>2022-03-07T08:20:47Z</time>
      </trkpt>
      <trkpt lat="46.67101" lon="5.54494">
        <ele>257</ele>
        <time>2022-03-07T08:20:48Z</time>
      </trkpt>
      <trkpt lat="46.67106" lon="5.54487">
        <ele>256.8</ele>
        <time>2022-03-07T08:20:49Z</time>
      </trkpt>
      <trkpt lat="46.67111" lon="5.5448">
        <ele>256.8</ele>
        <time>2022-03-07T08:20:50Z</time>
      </trkpt>
      <trkpt lat="46.67116" lon="5.54472">
        <ele>256.4</ele>
        <time>2022-03-07T08:20:51Z</time>
      </trkpt>
      <trkpt lat="46.67121" lon="5.54465">
        <ele>256.2</ele>
        <time>2022-03-07T08:20:52Z</time>
      </trkpt>
      <trkpt lat="46.67126" lon="5.54458">
        <ele>256.2</ele>
        <time>2022-03-07T08:20:53Z</time>
      </trkpt>
      <trkpt lat="46.67131" lon="5.54451">
        <ele>255.8</ele>
        <time>2022-03-07T08:20:54Z</time>
      </trkpt>
      <trkpt lat="46.67136" lon="5.54444">
        <ele>255.6</ele>
        <time>2022-03-07T08:20:55Z</time>
      </trkpt>
      <trkpt lat="46.67141" lon="5.54437">
        <ele>255.6</ele>
        <time>2022-03-07T08:20:56Z</time>
      </trkpt>
      <trkpt lat="46.67146" lon="5.5443">
        <ele>255</ele>
        <time>2022-03-07T08:20:57Z</time>
      </trkpt>
      <trkpt lat="46.67151" lon="5.54423">
        <ele>255</ele>
        <time>2022-03-07T08:20:58Z</time>
      </trkpt>
      <trkpt lat="46.67156" lon="5.54416">
        <ele>254.6</ele>
        <time>2022-03-07T08:20:59Z</time>
      </trkpt>
      <trkpt lat="46.67161" lon="5.54408">
        <ele>254.6</ele>
        <time>2022-03-07T08:21:00Z</time>
      </trkpt>
      <trkpt lat="46.67166" lon="5.54401">
        <ele>254.4</ele>
        <time>2022-03-07T08:21:01Z</time>
      </trkpt>
      <trkpt lat="46.6717" lon="5.54394">
        <ele>254.4</ele>
        <time>2022-03-07T08:21:02Z</time>
      </trkpt>
      <trkpt lat="46.67176" lon="5.54387">
        <ele>254</ele>
        <time>2022-03-07T08:21:03Z</time>
      </trkpt>
      <trkpt lat="46.67181" lon="5.5438">
        <ele>254</ele>
        <time>2022-03-07T08:21:04Z</time>
      </trkpt>
      <trkpt lat="46.67186" lon="5.54373">
        <ele>253.8</ele>
        <time>2022-03-07T08:21:05Z</time>
      </trkpt>
      <trkpt lat="46.67192" lon="5.54366">
        <ele>253.8</ele>
        <time>2022-03-07T08:21:06Z</time>
      </trkpt>
      <trkpt lat="46.67197" lon="5.54358">
        <ele>253.6</ele>
        <time>2022-03-07T08:21:07Z</time>
      </trkpt>
      <trkpt lat="46.67203" lon="5.54351">
        <ele>253.6</ele>
        <time>2022-03-07T08:21:08Z</time>
      </trkpt>
      <trkpt lat="46.67208" lon="5.54343">
        <ele>253.6</ele>
        <time>2022-03-07T08:21:09Z</time>
      </trkpt>
      <trkpt lat="46.67213" lon="5.54336">
        <ele>253.2</ele>
        <time>2022-03-07T08:21:10Z</time>
      </trkpt>
      <trkpt lat="46.67218" lon="5.5433">
        <ele>253.2</ele>
        <time>2022-03-07T08:21:11Z</time>
      </trkpt>
      <trkpt lat="46.67222" lon="5.54324">
        <ele>253</ele>
        <time>2022-03-07T08:21:12Z</time>
      </trkpt>
      <trkpt lat="46.67226" lon="5.54319">
        <ele>253</ele>
        <time>2022-03-07T08:21:13Z</time>
      </trkpt>
      <trkpt lat="46.67229" lon="5.54315">
        <ele>252.6</ele>
        <time>2022-03-07T08:21:14Z</time>
      </trkpt>
      <trkpt lat="46.67231" lon="5.54313">
        <ele>252.6</ele>
        <time>2022-03-07T08:21:15Z</time>
      </trkpt>
      <trkpt lat="46.67233" lon="5.54311">
        <ele>252.4</ele>
        <time>2022-03-07T08:21:16Z</time>
      </trkpt>
      <trkpt lat="46.67235" lon="5.54309">
        <ele>252.4</ele>
        <time>2022-03-07T08:21:17Z</time>
      </trkpt>
      <trkpt lat="46.67236" lon="5.54307">
        <ele>252.4</ele>
        <time>2022-03-07T08:21:18Z</time>
      </trkpt>
      <trkpt lat="46.67238" lon="5.54306">
        <ele>252.2</ele>
        <time>2022-03-07T08:21:19Z</time>
      </trkpt>
      <trkpt lat="46.67238" lon="5.54306">
        <ele>252.2</ele>
        <time>2022-03-07T08:21:20Z</time>
      </trkpt>
      <trkpt lat="46.67238" lon="5.54305">
        <ele>252.2</ele>
        <time>2022-03-07T08:21:21Z</time>
      </trkpt>
      <trkpt lat="46.67238" lon="5.54305">
        <ele>252</ele>
        <time>2022-03-07T08:21:22Z</time>
      </trkpt>
      <trkpt lat="46.67238" lon="5.54305">
        <ele>252</ele>
        <time>2022-03-07T08:21:24Z</time>
      </trkpt>
      <trkpt lat="46.67238" lon="5.54305">
        <ele>252</ele>
        <time>2022-03-07T08:21:25Z</time>
      </trkpt>
      <trkpt lat="46.67238" lon="5.54305">
        <ele>252</ele>
        <time>2022-03-07T08:21:26Z</time>
      </trkpt>
      <trkpt lat="46.67238" lon="5.54305">
        <ele>252</ele>
        <time>2022-03-07T08:21:27Z</time>
      </trkpt>
      <trkpt lat="46.67238" lon="5.54305">
        <ele>252</ele>
        <time>2022-03-07T08:21:34Z</time>
      </trkpt>
      <trkpt lat="46.67238" lon="5.54305">
        <ele>252</ele>
        <time>2022-03-07T08:21:35Z</time>
      </trkpt>
      <trkpt lat="46.67238" lon="5.54305">
        <ele>252</ele>
        <time>2022-03-07T08:21:44Z</time>
      </trkpt>
      <trkpt lat="46.67238" lon="5.54305">
        <ele>252</ele>
        <time>2022-03-07T08:21:45Z</time>
      </trkpt>
      <trkpt lat="46.6724" lon="5.54304">
        <ele>252</ele>
        <time>2022-03-07T08:21:46Z</time>
      </trkpt>
      <trkpt lat="46.67243" lon="5.54302">
        <ele>252</ele>
        <time>2022-03-07T08:21:47Z</time>
      </trkpt>
      <trkpt lat="46.67246" lon="5.54299">
        <ele>252</ele>
        <time>2022-03-07T08:21:48Z</time>
      </trkpt>
      <trkpt lat="46.67249" lon="5.54296">
        <ele>252</ele>
        <time>2022-03-07T08:21:49Z</time>
      </trkpt>
      <trkpt lat="46.67253" lon="5.54291">
        <ele>252</ele>
        <time>2022-03-07T08:21:50Z</time>
      </trkpt>
      <trkpt lat="46.67258" lon="5.54287">
        <ele>252.2</ele>
        <time>2022-03-07T08:21:51Z</time>
      </trkpt>
      <trkpt lat="46.67262" lon="5.54282">
        <ele>252.2</ele>
        <time>2022-03-07T08:21:52Z</time>
      </trkpt>
      <trkpt lat="46.67266" lon="5.54275">
        <ele>252.2</ele>
        <time>2022-03-07T08:21:53Z</time>
      </trkpt>
      <trkpt lat="46.67269" lon="5.54267">
        <ele>252.4</ele>
        <time>2022-03-07T08:21:54Z</time>
      </trkpt>
      <trkpt lat="46.67271" lon="5.54259">
        <ele>252.4</ele>
        <time>2022-03-07T08:21:55Z</time>
      </trkpt>
      <trkpt lat="46.67273" lon="5.5425">
        <ele>252.4</ele>
        <time>2022-03-07T08:21:56Z</time>
      </trkpt>
      <trkpt lat="46.67274" lon="5.54242">
        <ele>252.6</ele>
        <time>2022-03-07T08:21:57Z</time>
      </trkpt>
      <trkpt lat="46.67275" lon="5.54237">
        <ele>252.6</ele>
        <time>2022-03-07T08:21:58Z</time>
      </trkpt>
      <trkpt lat="46.67276" lon="5.54233">
        <ele>252.8</ele>
        <time>2022-03-07T08:21:59Z</time>
      </trkpt>
      <trkpt lat="46.67277" lon="5.54225">
        <ele>252.8</ele>
        <time>2022-03-07T08:22:00Z</time>
      </trkpt>
      <trkpt lat="46.67278" lon="5.54217">
        <ele>252.8</ele>
        <time>2022-03-07T08:22:01Z</time>
      </trkpt>
      <trkpt lat="46.67279" lon="5.54209">
        <ele>252.8</ele>
        <time>2022-03-07T08:22:02Z</time>
      </trkpt>
      <trkpt lat="46.6728" lon="5.54202">
        <ele>252.8</ele>
        <time>2022-03-07T08:22:03Z</time>
      </trkpt>
      <trkpt lat="46.67281" lon="5.54194">
        <ele>252.8</ele>
        <time>2022-03-07T08:22:04Z</time>
      </trkpt>
      <trkpt lat="46.67282" lon="5.54186">
        <ele>252.8</ele>
        <time>2022-03-07T08:22:05Z</time>
      </trkpt>
      <trkpt lat="46.67284" lon="5.54179">
        <ele>253</ele>
        <time>2022-03-07T08:22:06Z</time>
      </trkpt>
      <trkpt lat="46.67285" lon="5.54171">
        <ele>253</ele>
        <time>2022-03-07T08:22:07Z</time>
      </trkpt>
      <trkpt lat="46.67286" lon="5.54164">
        <ele>253</ele>
        <time>2022-03-07T08:22:08Z</time>
      </trkpt>
      <trkpt lat="46.67287" lon="5.54156">
        <ele>253</ele>
        <time>2022-03-07T08:22:09Z</time>
      </trkpt>
      <trkpt lat="46.67289" lon="5.54148">
        <ele>253</ele>
        <time>2022-03-07T08:22:10Z</time>
      </trkpt>
      <trkpt lat="46.6729" lon="5.54141">
        <ele>253</ele>
        <time>2022-03-07T08:22:11Z</time>
      </trkpt>
      <trkpt lat="46.67291" lon="5.54133">
        <ele>253</ele>
        <time>2022-03-07T08:22:12Z</time>
      </trkpt>
      <trkpt lat="46.67292" lon="5.54126">
        <ele>253</ele>
        <time>2022-03-07T08:22:13Z</time>
      </trkpt>
      <trkpt lat="46.67294" lon="5.54118">
        <ele>253</ele>
        <time>2022-03-07T08:22:14Z</time>
      </trkpt>
      <trkpt lat="46.67295" lon="5.5411">
        <ele>253</ele>
        <time>2022-03-07T08:22:15Z</time>
      </trkpt>
      <trkpt lat="46.67296" lon="5.54102">
        <ele>253</ele>
        <time>2022-03-07T08:22:16Z</time>
      </trkpt>
      <trkpt lat="46.67297" lon="5.54095">
        <ele>253</ele>
        <time>2022-03-07T08:22:17Z</time>
      </trkpt>
      <trkpt lat="46.673" lon="5.54079">
        <ele>252.6</ele>
        <time>2022-03-07T08:22:18Z</time>
      </trkpt>
      <trkpt lat="46.67301" lon="5.54071">
        <ele>252.6</ele>
        <time>2022-03-07T08:22:19Z</time>
      </trkpt>
      <trkpt lat="46.67302" lon="5.54063">
        <ele>252.6</ele>
        <time>2022-03-07T08:22:20Z</time>
      </trkpt>
      <trkpt lat="46.67303" lon="5.54055">
        <ele>252.6</ele>
        <time>2022-03-07T08:22:21Z</time>
      </trkpt>
      <trkpt lat="46.67304" lon="5.54047">
        <ele>252.4</ele>
        <time>2022-03-07T08:22:22Z</time>
      </trkpt>
      <trkpt lat="46.67305" lon="5.54038">
        <ele>252.4</ele>
        <time>2022-03-07T08:22:23Z</time>
      </trkpt>
      <trkpt lat="46.67306" lon="5.5403">
        <ele>252.4</ele>
        <time>2022-03-07T08:22:24Z</time>
      </trkpt>
      <trkpt lat="46.67307" lon="5.54022">
        <ele>252.2</ele>
        <time>2022-03-07T08:22:25Z</time>
      </trkpt>
      <trkpt lat="46.67309" lon="5.54013">
        <ele>252</ele>
        <time>2022-03-07T08:22:26Z</time>
      </trkpt>
      <trkpt lat="46.6731" lon="5.54005">
        <ele>251.8</ele>
        <time>2022-03-07T08:22:27Z</time>
      </trkpt>
      <trkpt lat="46.67312" lon="5.53996">
        <ele>251.8</ele>
        <time>2022-03-07T08:22:28Z</time>
      </trkpt>
      <trkpt lat="46.67313" lon="5.53987">
        <ele>251.6</ele>
        <time>2022-03-07T08:22:29Z</time>
      </trkpt>
      <trkpt lat="46.67314" lon="5.53979">
        <ele>251.6</ele>
        <time>2022-03-07T08:22:30Z</time>
      </trkpt>
      <trkpt lat="46.67316" lon="5.5397">
        <ele>251.6</ele>
        <time>2022-03-07T08:22:31Z</time>
      </trkpt>
      <trkpt lat="46.67317" lon="5.53961">
        <ele>251.6</ele>
        <time>2022-03-07T08:22:32Z</time>
      </trkpt>
      <trkpt lat="46.67318" lon="5.53952">
        <ele>251.2</ele>
        <time>2022-03-07T08:22:33Z</time>
      </trkpt>
      <trkpt lat="46.6732" lon="5.53942">
        <ele>251.2</ele>
        <time>2022-03-07T08:22:34Z</time>
      </trkpt>
      <trkpt lat="46.67321" lon="5.53933">
        <ele>251</ele>
        <time>2022-03-07T08:22:35Z</time>
      </trkpt>
      <trkpt lat="46.67322" lon="5.53924">
        <ele>251</ele>
        <time>2022-03-07T08:22:36Z</time>
      </trkpt>
      <trkpt lat="46.67323" lon="5.53914">
        <ele>250.6</ele>
        <time>2022-03-07T08:22:37Z</time>
      </trkpt>
      <trkpt lat="46.67324" lon="5.53905">
        <ele>250.4</ele>
        <time>2022-03-07T08:22:38Z</time>
      </trkpt>
      <trkpt lat="46.67325" lon="5.53897">
        <ele>250.4</ele>
        <time>2022-03-07T08:22:39Z</time>
      </trkpt>
      <trkpt lat="46.67326" lon="5.53888">
        <ele>250.2</ele>
        <time>2022-03-07T08:22:40Z</time>
      </trkpt>
      <trkpt lat="46.67327" lon="5.53879">
        <ele>250</ele>
        <time>2022-03-07T08:22:41Z</time>
      </trkpt>
      <trkpt lat="46.67327" lon="5.5387">
        <ele>250</ele>
        <time>2022-03-07T08:22:42Z</time>
      </trkpt>
      <trkpt lat="46.67328" lon="5.53862">
        <ele>250</ele>
        <time>2022-03-07T08:22:43Z</time>
      </trkpt>
      <trkpt lat="46.67328" lon="5.53853">
        <ele>249.6</ele>
        <time>2022-03-07T08:22:44Z</time>
      </trkpt>
      <trkpt lat="46.67329" lon="5.53844">
        <ele>249.6</ele>
        <time>2022-03-07T08:22:45Z</time>
      </trkpt>
      <trkpt lat="46.67329" lon="5.53834">
        <ele>249.6</ele>
        <time>2022-03-07T08:22:46Z</time>
      </trkpt>
      <trkpt lat="46.67329" lon="5.53825">
        <ele>249.4</ele>
        <time>2022-03-07T08:22:47Z</time>
      </trkpt>
      <trkpt lat="46.67329" lon="5.53815">
        <ele>249.4</ele>
        <time>2022-03-07T08:22:48Z</time>
      </trkpt>
      <trkpt lat="46.67329" lon="5.53805">
        <ele>249.4</ele>
        <time>2022-03-07T08:22:49Z</time>
      </trkpt>
      <trkpt lat="46.67329" lon="5.53795">
        <ele>249.2</ele>
        <time>2022-03-07T08:22:50Z</time>
      </trkpt>
      <trkpt lat="46.67329" lon="5.53785">
        <ele>249.2</ele>
        <time>2022-03-07T08:22:51Z</time>
      </trkpt>
      <trkpt lat="46.67328" lon="5.53776">
        <ele>249.2</ele>
        <time>2022-03-07T08:22:52Z</time>
      </trkpt>
      <trkpt lat="46.67328" lon="5.53766">
        <ele>249.2</ele>
        <time>2022-03-07T08:22:53Z</time>
      </trkpt>
      <trkpt lat="46.67328" lon="5.53756">
        <ele>248.8</ele>
        <time>2022-03-07T08:22:54Z</time>
      </trkpt>
      <trkpt lat="46.67328" lon="5.53746">
        <ele>248.8</ele>
        <time>2022-03-07T08:22:55Z</time>
      </trkpt>
      <trkpt lat="46.67328" lon="5.53736">
        <ele>248.6</ele>
        <time>2022-03-07T08:22:56Z</time>
      </trkpt>
      <trkpt lat="46.67328" lon="5.53725">
        <ele>248.6</ele>
        <time>2022-03-07T08:22:57Z</time>
      </trkpt>
      <trkpt lat="46.67328" lon="5.53715">
        <ele>248.2</ele>
        <time>2022-03-07T08:22:58Z</time>
      </trkpt>
      <trkpt lat="46.67328" lon="5.53705">
        <ele>248.2</ele>
        <time>2022-03-07T08:22:59Z</time>
      </trkpt>
      <trkpt lat="46.67327" lon="5.53696">
        <ele>248</ele>
        <time>2022-03-07T08:23:00Z</time>
      </trkpt>
      <trkpt lat="46.67327" lon="5.53686">
        <ele>248</ele>
        <time>2022-03-07T08:23:01Z</time>
      </trkpt>
      <trkpt lat="46.67327" lon="5.53678">
        <ele>248</ele>
        <time>2022-03-07T08:23:02Z</time>
      </trkpt>
      <trkpt lat="46.67327" lon="5.53671">
        <ele>248</ele>
        <time>2022-03-07T08:23:03Z</time>
      </trkpt>
      <trkpt lat="46.67328" lon="5.53665">
        <ele>247.8</ele>
        <time>2022-03-07T08:23:04Z</time>
      </trkpt>
      <trkpt lat="46.67329" lon="5.53661">
        <ele>247.8</ele>
        <time>2022-03-07T08:23:05Z</time>
      </trkpt>
      <trkpt lat="46.67329" lon="5.53656">
        <ele>247.4</ele>
        <time>2022-03-07T08:23:06Z</time>
      </trkpt>
      <trkpt lat="46.6733" lon="5.53652">
        <ele>247.4</ele>
        <time>2022-03-07T08:23:07Z</time>
      </trkpt>
      <trkpt lat="46.6733" lon="5.53647">
        <ele>247</ele>
        <time>2022-03-07T08:23:08Z</time>
      </trkpt>
      <trkpt lat="46.67331" lon="5.53641">
        <ele>247</ele>
        <time>2022-03-07T08:23:09Z</time>
      </trkpt>
      <trkpt lat="46.67331" lon="5.53634">
        <ele>247</ele>
        <time>2022-03-07T08:23:10Z</time>
      </trkpt>
      <trkpt lat="46.67331" lon="5.53626">
        <ele>247</ele>
        <time>2022-03-07T08:23:11Z</time>
      </trkpt>
      <trkpt lat="46.67332" lon="5.53619">
        <ele>247</ele>
        <time>2022-03-07T08:23:12Z</time>
      </trkpt>
      <trkpt lat="46.67332" lon="5.53611">
        <ele>246.8</ele>
        <time>2022-03-07T08:23:13Z</time>
      </trkpt>
      <trkpt lat="46.67333" lon="5.53604">
        <ele>246.8</ele>
        <time>2022-03-07T08:23:14Z</time>
      </trkpt>
      <trkpt lat="46.67334" lon="5.53597">
        <ele>246.8</ele>
        <time>2022-03-07T08:23:15Z</time>
      </trkpt>
      <trkpt lat="46.67335" lon="5.5359">
        <ele>246.6</ele>
        <time>2022-03-07T08:23:16Z</time>
      </trkpt>
      <trkpt lat="46.67335" lon="5.53582">
        <ele>246.6</ele>
        <time>2022-03-07T08:23:17Z</time>
      </trkpt>
      <trkpt lat="46.67336" lon="5.53575">
        <ele>246.6</ele>
        <time>2022-03-07T08:23:18Z</time>
      </trkpt>
      <trkpt lat="46.67337" lon="5.53568">
        <ele>246.6</ele>
        <time>2022-03-07T08:23:19Z</time>
      </trkpt>
      <trkpt lat="46.67338" lon="5.53561">
        <ele>246.6</ele>
        <time>2022-03-07T08:23:20Z</time>
      </trkpt>
      <trkpt lat="46.67339" lon="5.53554">
        <ele>246.6</ele>
        <time>2022-03-07T08:23:21Z</time>
      </trkpt>
      <trkpt lat="46.6734" lon="5.53547">
        <ele>246.6</ele>
        <time>2022-03-07T08:23:22Z</time>
      </trkpt>
      <trkpt lat="46.67341" lon="5.5354">
        <ele>246.6</ele>
        <time>2022-03-07T08:23:23Z</time>
      </trkpt>
      <trkpt lat="46.67342" lon="5.53532">
        <ele>246.6</ele>
        <time>2022-03-07T08:23:24Z</time>
      </trkpt>
      <trkpt lat="46.67343" lon="5.53525">
        <ele>246.6</ele>
        <time>2022-03-07T08:23:25Z</time>
      </trkpt>
      <trkpt lat="46.67344" lon="5.53518">
        <ele>246.6</ele>
        <time>2022-03-07T08:23:26Z</time>
      </trkpt>
      <trkpt lat="46.67345" lon="5.5351">
        <ele>246.4</ele>
        <time>2022-03-07T08:23:27Z</time>
      </trkpt>
      <trkpt lat="46.67346" lon="5.53503">
        <ele>246.4</ele>
        <time>2022-03-07T08:23:28Z</time>
      </trkpt>
      <trkpt lat="46.67347" lon="5.53496">
        <ele>246.4</ele>
        <time>2022-03-07T08:23:29Z</time>
      </trkpt>
      <trkpt lat="46.67348" lon="5.53489">
        <ele>246.4</ele>
        <time>2022-03-07T08:23:30Z</time>
      </trkpt>
      <trkpt lat="46.67348" lon="5.53481">
        <ele>246.4</ele>
        <time>2022-03-07T08:23:31Z</time>
      </trkpt>
      <trkpt lat="46.67349" lon="5.53474">
        <ele>246.4</ele>
        <time>2022-03-07T08:23:32Z</time>
      </trkpt>
      <trkpt lat="46.6735" lon="5.53467">
        <ele>246.4</ele>
        <time>2022-03-07T08:23:33Z</time>
      </trkpt>
      <trkpt lat="46.6735" lon="5.5346">
        <ele>246.4</ele>
        <time>2022-03-07T08:23:34Z</time>
      </trkpt>
      <trkpt lat="46.6735" lon="5.53453">
        <ele>246.4</ele>
        <time>2022-03-07T08:23:35Z</time>
      </trkpt>
      <trkpt lat="46.67351" lon="5.53446">
        <ele>246.4</ele>
        <time>2022-03-07T08:23:36Z</time>
      </trkpt>
      <trkpt lat="46.67351" lon="5.53439">
        <ele>246.4</ele>
        <time>2022-03-07T08:23:37Z</time>
      </trkpt>
      <trkpt lat="46.67352" lon="5.53432">
        <ele>246.4</ele>
        <time>2022-03-07T08:23:38Z</time>
      </trkpt>
      <trkpt lat="46.67352" lon="5.53425">
        <ele>246.4</ele>
        <time>2022-03-07T08:23:39Z</time>
      </trkpt>
      <trkpt lat="46.67352" lon="5.53418">
        <ele>246.6</ele>
        <time>2022-03-07T08:23:40Z</time>
      </trkpt>
      <trkpt lat="46.67353" lon="5.53411">
        <ele>246.6</ele>
        <time>2022-03-07T08:23:41Z</time>
      </trkpt>
      <trkpt lat="46.67354" lon="5.53404">
        <ele>246.6</ele>
        <time>2022-03-07T08:23:42Z</time>
      </trkpt>
      <trkpt lat="46.67354" lon="5.53398">
        <ele>246.6</ele>
        <time>2022-03-07T08:23:43Z</time>
      </trkpt>
      <trkpt lat="46.67355" lon="5.53391">
        <ele>246.8</ele>
        <time>2022-03-07T08:23:44Z</time>
      </trkpt>
      <trkpt lat="46.67355" lon="5.53384">
        <ele>246.8</ele>
        <time>2022-03-07T08:23:45Z</time>
      </trkpt>
      <trkpt lat="46.67355" lon="5.53377">
        <ele>246.8</ele>
        <time>2022-03-07T08:23:46Z</time>
      </trkpt>
      <trkpt lat="46.67355" lon="5.5337">
        <ele>246.8</ele>
        <time>2022-03-07T08:23:47Z</time>
      </trkpt>
      <trkpt lat="46.67356" lon="5.53363">
        <ele>247</ele>
        <time>2022-03-07T08:23:48Z</time>
      </trkpt>
      <trkpt lat="46.67356" lon="5.53356">
        <ele>247</ele>
        <time>2022-03-07T08:23:49Z</time>
      </trkpt>
      <trkpt lat="46.67357" lon="5.53349">
        <ele>247</ele>
        <time>2022-03-07T08:23:50Z</time>
      </trkpt>
      <trkpt lat="46.67358" lon="5.53342">
        <ele>247</ele>
        <time>2022-03-07T08:23:51Z</time>
      </trkpt>
      <trkpt lat="46.67359" lon="5.53334">
        <ele>247.2</ele>
        <time>2022-03-07T08:23:52Z</time>
      </trkpt>
      <trkpt lat="46.67359" lon="5.53327">
        <ele>247.2</ele>
        <time>2022-03-07T08:23:53Z</time>
      </trkpt>
      <trkpt lat="46.6736" lon="5.5332">
        <ele>247.2</ele>
        <time>2022-03-07T08:23:54Z</time>
      </trkpt>
      <trkpt lat="46.67361" lon="5.53314">
        <ele>247.6</ele>
        <time>2022-03-07T08:23:55Z</time>
      </trkpt>
      <trkpt lat="46.67362" lon="5.53307">
        <ele>247.6</ele>
        <time>2022-03-07T08:23:56Z</time>
      </trkpt>
      <trkpt lat="46.67362" lon="5.533">
        <ele>247.8</ele>
        <time>2022-03-07T08:23:57Z</time>
      </trkpt>
      <trkpt lat="46.67363" lon="5.53293">
        <ele>247.8</ele>
        <time>2022-03-07T08:23:58Z</time>
      </trkpt>
      <trkpt lat="46.67364" lon="5.53286">
        <ele>247.8</ele>
        <time>2022-03-07T08:23:59Z</time>
      </trkpt>
      <trkpt lat="46.67365" lon="5.53279">
        <ele>247.8</ele>
        <time>2022-03-07T08:24:00Z</time>
      </trkpt>
      <trkpt lat="46.67366" lon="5.53273">
        <ele>248</ele>
        <time>2022-03-07T08:24:01Z</time>
      </trkpt>
      <trkpt lat="46.67366" lon="5.53266">
        <ele>248</ele>
        <time>2022-03-07T08:24:02Z</time>
      </trkpt>
      <trkpt lat="46.67367" lon="5.5326">
        <ele>248.4</ele>
        <time>2022-03-07T08:24:03Z</time>
      </trkpt>
      <trkpt lat="46.67368" lon="5.53253">
        <ele>248.4</ele>
        <time>2022-03-07T08:24:04Z</time>
      </trkpt>
      <trkpt lat="46.67369" lon="5.53246">
        <ele>248.6</ele>
        <time>2022-03-07T08:24:05Z</time>
      </trkpt>
      <trkpt lat="46.67369" lon="5.5324">
        <ele>248.6</ele>
        <time>2022-03-07T08:24:06Z</time>
      </trkpt>
      <trkpt lat="46.6737" lon="5.53234">
        <ele>249</ele>
        <time>2022-03-07T08:24:07Z</time>
      </trkpt>
      <trkpt lat="46.6737" lon="5.53227">
        <ele>249</ele>
        <time>2022-03-07T08:24:08Z</time>
      </trkpt>
      <trkpt lat="46.67371" lon="5.5322">
        <ele>249.2</ele>
        <time>2022-03-07T08:24:09Z</time>
      </trkpt>
      <trkpt lat="46.67372" lon="5.53214">
        <ele>249.2</ele>
        <time>2022-03-07T08:24:10Z</time>
      </trkpt>
      <trkpt lat="46.67373" lon="5.53207">
        <ele>249.4</ele>
        <time>2022-03-07T08:24:11Z</time>
      </trkpt>
      <trkpt lat="46.67373" lon="5.53201">
        <ele>249.4</ele>
        <time>2022-03-07T08:24:12Z</time>
      </trkpt>
      <trkpt lat="46.67374" lon="5.53194">
        <ele>249.8</ele>
        <time>2022-03-07T08:24:13Z</time>
      </trkpt>
      <trkpt lat="46.67374" lon="5.53187">
        <ele>249.8</ele>
        <time>2022-03-07T08:24:14Z</time>
      </trkpt>
      <trkpt lat="46.67375" lon="5.53181">
        <ele>250</ele>
        <time>2022-03-07T08:24:15Z</time>
      </trkpt>
      <trkpt lat="46.67375" lon="5.53174">
        <ele>250</ele>
        <time>2022-03-07T08:24:16Z</time>
      </trkpt>
      <trkpt lat="46.67376" lon="5.53167">
        <ele>250.2</ele>
        <time>2022-03-07T08:24:17Z</time>
      </trkpt>
      <trkpt lat="46.67376" lon="5.53161">
        <ele>250.2</ele>
        <time>2022-03-07T08:24:18Z</time>
      </trkpt>
      <trkpt lat="46.67377" lon="5.53155">
        <ele>250.6</ele>
        <time>2022-03-07T08:24:19Z</time>
      </trkpt>
      <trkpt lat="46.67377" lon="5.53148">
        <ele>250.6</ele>
        <time>2022-03-07T08:24:20Z</time>
      </trkpt>
      <trkpt lat="46.67377" lon="5.53142">
        <ele>250.8</ele>
        <time>2022-03-07T08:24:21Z</time>
      </trkpt>
      <trkpt lat="46.67377" lon="5.53136">
        <ele>250.8</ele>
        <time>2022-03-07T08:24:22Z</time>
      </trkpt>
      <trkpt lat="46.67377" lon="5.53129">
        <ele>251</ele>
        <time>2022-03-07T08:24:23Z</time>
      </trkpt>
      <trkpt lat="46.67377" lon="5.53123">
        <ele>251</ele>
        <time>2022-03-07T08:24:24Z</time>
      </trkpt>
      <trkpt lat="46.67377" lon="5.53116">
        <ele>251.4</ele>
        <time>2022-03-07T08:24:25Z</time>
      </trkpt>
      <trkpt lat="46.67377" lon="5.5311">
        <ele>251.4</ele>
        <time>2022-03-07T08:24:26Z</time>
      </trkpt>
      <trkpt lat="46.67376" lon="5.53103">
        <ele>251.8</ele>
        <time>2022-03-07T08:24:27Z</time>
      </trkpt>
      <trkpt lat="46.67375" lon="5.53096">
        <ele>251.8</ele>
        <time>2022-03-07T08:24:28Z</time>
      </trkpt>
      <trkpt lat="46.67374" lon="5.5309">
        <ele>252</ele>
        <time>2022-03-07T08:24:29Z</time>
      </trkpt>
      <trkpt lat="46.67374" lon="5.53084">
        <ele>252</ele>
        <time>2022-03-07T08:24:30Z</time>
      </trkpt>
      <trkpt lat="46.67373" lon="5.53077">
        <ele>252.4</ele>
        <time>2022-03-07T08:24:31Z</time>
      </trkpt>
      <trkpt lat="46.67372" lon="5.53071">
        <ele>252.4</ele>
        <time>2022-03-07T08:24:32Z</time>
      </trkpt>
      <trkpt lat="46.67371" lon="5.53065">
        <ele>252.6</ele>
        <time>2022-03-07T08:24:33Z</time>
      </trkpt>
      <trkpt lat="46.6737" lon="5.53059">
        <ele>252.8</ele>
        <time>2022-03-07T08:24:34Z</time>
      </trkpt>
      <trkpt lat="46.67368" lon="5.53054">
        <ele>252.8</ele>
        <time>2022-03-07T08:24:35Z</time>
      </trkpt>
      <trkpt lat="46.67367" lon="5.53048">
        <ele>253</ele>
        <time>2022-03-07T08:24:36Z</time>
      </trkpt>
      <trkpt lat="46.67365" lon="5.53042">
        <ele>253.4</ele>
        <time>2022-03-07T08:24:37Z</time>
      </trkpt>
      <trkpt lat="46.67364" lon="5.53037">
        <ele>253.4</ele>
        <time>2022-03-07T08:24:38Z</time>
      </trkpt>
      <trkpt lat="46.67363" lon="5.53032">
        <ele>253.4</ele>
        <time>2022-03-07T08:24:39Z</time>
      </trkpt>
      <trkpt lat="46.67363" lon="5.53032">
        <ele>253.6</ele>
        <time>2022-03-07T08:24:40Z</time>
      </trkpt>
      <trkpt lat="46.67362" lon="5.53026">
        <ele>253.6</ele>
        <time>2022-03-07T08:24:41Z</time>
      </trkpt>
      <trkpt lat="46.67361" lon="5.53021">
        <ele>254</ele>
        <time>2022-03-07T08:24:42Z</time>
      </trkpt>
      <trkpt lat="46.67359" lon="5.53015">
        <ele>254</ele>
        <time>2022-03-07T08:24:43Z</time>
      </trkpt>
      <trkpt lat="46.67357" lon="5.53009">
        <ele>254.2</ele>
        <time>2022-03-07T08:24:44Z</time>
      </trkpt>
      <trkpt lat="46.67355" lon="5.53003">
        <ele>254.2</ele>
        <time>2022-03-07T08:24:45Z</time>
      </trkpt>
      <trkpt lat="46.67353" lon="5.52997">
        <ele>254.2</ele>
        <time>2022-03-07T08:24:46Z</time>
      </trkpt>
      <trkpt lat="46.6735" lon="5.52992">
        <ele>254.2</ele>
        <time>2022-03-07T08:24:47Z</time>
      </trkpt>
      <trkpt lat="46.67348" lon="5.52986">
        <ele>254.2</ele>
        <time>2022-03-07T08:24:48Z</time>
      </trkpt>
      <trkpt lat="46.67345" lon="5.5298">
        <ele>254.6</ele>
        <time>2022-03-07T08:24:49Z</time>
      </trkpt>
      <trkpt lat="46.67343" lon="5.52975">
        <ele>254.6</ele>
        <time>2022-03-07T08:24:50Z</time>
      </trkpt>
      <trkpt lat="46.6734" lon="5.52969">
        <ele>254.6</ele>
        <time>2022-03-07T08:24:51Z</time>
      </trkpt>
      <trkpt lat="46.67337" lon="5.52964">
        <ele>255</ele>
        <time>2022-03-07T08:24:52Z</time>
      </trkpt>
      <trkpt lat="46.67335" lon="5.52959">
        <ele>255</ele>
        <time>2022-03-07T08:24:53Z</time>
      </trkpt>
      <trkpt lat="46.67332" lon="5.52954">
        <ele>255</ele>
        <time>2022-03-07T08:24:54Z</time>
      </trkpt>
      <trkpt lat="46.67329" lon="5.52948">
        <ele>255</ele>
        <time>2022-03-07T08:24:55Z</time>
      </trkpt>
      <trkpt lat="46.67326" lon="5.52944">
        <ele>255.2</ele>
        <time>2022-03-07T08:24:56Z</time>
      </trkpt>
      <trkpt lat="46.67323" lon="5.52939">
        <ele>255.2</ele>
        <time>2022-03-07T08:24:57Z</time>
      </trkpt>
      <trkpt lat="46.67319" lon="5.52935">
        <ele>255.4</ele>
        <time>2022-03-07T08:24:58Z</time>
      </trkpt>
      <trkpt lat="46.67316" lon="5.5293">
        <ele>255.4</ele>
        <time>2022-03-07T08:24:59Z</time>
      </trkpt>
      <trkpt lat="46.67312" lon="5.52926">
        <ele>255.4</ele>
        <time>2022-03-07T08:25:00Z</time>
      </trkpt>
      <trkpt lat="46.67309" lon="5.52922">
        <ele>255.4</ele>
        <time>2022-03-07T08:25:01Z</time>
      </trkpt>
      <trkpt lat="46.67305" lon="5.52919">
        <ele>255.4</ele>
        <time>2022-03-07T08:25:02Z</time>
      </trkpt>
      <trkpt lat="46.67302" lon="5.52916">
        <ele>255.4</ele>
        <time>2022-03-07T08:25:03Z</time>
      </trkpt>
      <trkpt lat="46.67298" lon="5.52912">
        <ele>255.4</ele>
        <time>2022-03-07T08:25:04Z</time>
      </trkpt>
      <trkpt lat="46.67294" lon="5.52908">
        <ele>255.6</ele>
        <time>2022-03-07T08:25:05Z</time>
      </trkpt>
      <trkpt lat="46.6729" lon="5.52905">
        <ele>255.8</ele>
        <time>2022-03-07T08:25:06Z</time>
      </trkpt>
      <trkpt lat="46.67286" lon="5.52901">
        <ele>255.8</ele>
        <time>2022-03-07T08:25:07Z</time>
      </trkpt>
      <trkpt lat="46.67281" lon="5.52898">
        <ele>255.8</ele>
        <time>2022-03-07T08:25:08Z</time>
      </trkpt>
      <trkpt lat="46.67277" lon="5.52895">
        <ele>255.8</ele>
        <time>2022-03-07T08:25:09Z</time>
      </trkpt>
      <trkpt lat="46.67272" lon="5.52892">
        <ele>255.8</ele>
        <time>2022-03-07T08:25:10Z</time>
      </trkpt>
      <trkpt lat="46.67268" lon="5.52888">
        <ele>255.8</ele>
        <time>2022-03-07T08:25:11Z</time>
      </trkpt>
      <trkpt lat="46.67264" lon="5.52885">
        <ele>255.8</ele>
        <time>2022-03-07T08:25:12Z</time>
      </trkpt>
      <trkpt lat="46.67259" lon="5.52881">
        <ele>255.8</ele>
        <time>2022-03-07T08:25:13Z</time>
      </trkpt>
      <trkpt lat="46.67255" lon="5.52878">
        <ele>255.8</ele>
        <time>2022-03-07T08:25:14Z</time>
      </trkpt>
      <trkpt lat="46.67251" lon="5.52874">
        <ele>255.8</ele>
        <time>2022-03-07T08:25:15Z</time>
      </trkpt>
      <trkpt lat="46.67246" lon="5.52871">
        <ele>255.8</ele>
        <time>2022-03-07T08:25:16Z</time>
      </trkpt>
      <trkpt lat="46.67241" lon="5.52867">
        <ele>255.8</ele>
        <time>2022-03-07T08:25:17Z</time>
      </trkpt>
      <trkpt lat="46.67236" lon="5.52864">
        <ele>255.8</ele>
        <time>2022-03-07T08:25:18Z</time>
      </trkpt>
      <trkpt lat="46.67232" lon="5.52861">
        <ele>255.8</ele>
        <time>2022-03-07T08:25:19Z</time>
      </trkpt>
      <trkpt lat="46.67227" lon="5.52858">
        <ele>255.8</ele>
        <time>2022-03-07T08:25:20Z</time>
      </trkpt>
      <trkpt lat="46.67222" lon="5.52855">
        <ele>256</ele>
        <time>2022-03-07T08:25:21Z</time>
      </trkpt>
      <trkpt lat="46.67217" lon="5.52852">
        <ele>256</ele>
        <time>2022-03-07T08:25:22Z</time>
      </trkpt>
      <trkpt lat="46.67212" lon="5.52849">
        <ele>256</ele>
        <time>2022-03-07T08:25:23Z</time>
      </trkpt>
      <trkpt lat="46.67208" lon="5.52846">
        <ele>256</ele>
        <time>2022-03-07T08:25:24Z</time>
      </trkpt>
      <trkpt lat="46.67203" lon="5.52843">
        <ele>256</ele>
        <time>2022-03-07T08:25:25Z</time>
      </trkpt>
      <trkpt lat="46.67199" lon="5.5284">
        <ele>256.4</ele>
        <time>2022-03-07T08:25:26Z</time>
      </trkpt>
      <trkpt lat="46.67194" lon="5.52837">
        <ele>256.4</ele>
        <time>2022-03-07T08:25:27Z</time>
      </trkpt>
      <trkpt lat="46.6719" lon="5.52834">
        <ele>256.4</ele>
        <time>2022-03-07T08:25:28Z</time>
      </trkpt>
      <trkpt lat="46.67185" lon="5.52831">
        <ele>256.4</ele>
        <time>2022-03-07T08:25:29Z</time>
      </trkpt>
      <trkpt lat="46.67181" lon="5.52828">
        <ele>256.4</ele>
        <time>2022-03-07T08:25:30Z</time>
      </trkpt>
      <trkpt lat="46.67176" lon="5.52825">
        <ele>256.4</ele>
        <time>2022-03-07T08:25:31Z</time>
      </trkpt>
      <trkpt lat="46.67172" lon="5.52822">
        <ele>256.6</ele>
        <time>2022-03-07T08:25:32Z</time>
      </trkpt>
      <trkpt lat="46.67167" lon="5.52819">
        <ele>256.6</ele>
        <time>2022-03-07T08:25:33Z</time>
      </trkpt>
      <trkpt lat="46.67163" lon="5.52816">
        <ele>256.6</ele>
        <time>2022-03-07T08:25:34Z</time>
      </trkpt>
      <trkpt lat="46.67158" lon="5.52813">
        <ele>256.8</ele>
        <time>2022-03-07T08:25:35Z</time>
      </trkpt>
      <trkpt lat="46.67153" lon="5.5281">
        <ele>256.8</ele>
        <time>2022-03-07T08:25:36Z</time>
      </trkpt>
      <trkpt lat="46.67149" lon="5.52807">
        <ele>257</ele>
        <time>2022-03-07T08:25:37Z</time>
      </trkpt>
      <trkpt lat="46.67144" lon="5.52804">
        <ele>257</ele>
        <time>2022-03-07T08:25:38Z</time>
      </trkpt>
      <trkpt lat="46.6714" lon="5.52802">
        <ele>257</ele>
        <time>2022-03-07T08:25:39Z</time>
      </trkpt>
      <trkpt lat="46.67135" lon="5.52799">
        <ele>257</ele>
        <time>2022-03-07T08:25:40Z</time>
      </trkpt>
      <trkpt lat="46.67131" lon="5.52796">
        <ele>257</ele>
        <time>2022-03-07T08:25:41Z</time>
      </trkpt>
      <trkpt lat="46.67126" lon="5.52792">
        <ele>257.2</ele>
        <time>2022-03-07T08:25:42Z</time>
      </trkpt>
      <trkpt lat="46.67118" lon="5.52786">
        <ele>257.2</ele>
        <time>2022-03-07T08:25:43Z</time>
      </trkpt>
      <trkpt lat="46.67113" lon="5.52782">
        <ele>257.2</ele>
        <time>2022-03-07T08:25:44Z</time>
      </trkpt>
      <trkpt lat="46.67109" lon="5.52779">
        <ele>257.6</ele>
        <time>2022-03-07T08:25:45Z</time>
      </trkpt>
      <trkpt lat="46.67105" lon="5.52775">
        <ele>257.6</ele>
        <time>2022-03-07T08:25:46Z</time>
      </trkpt>
      <trkpt lat="46.671" lon="5.52772">
        <ele>257.8</ele>
        <time>2022-03-07T08:25:47Z</time>
      </trkpt>
      <trkpt lat="46.67096" lon="5.52769">
        <ele>257.8</ele>
        <time>2022-03-07T08:25:48Z</time>
      </trkpt>
      <trkpt lat="46.67091" lon="5.52765">
        <ele>258</ele>
        <time>2022-03-07T08:25:49Z</time>
      </trkpt>
      <trkpt lat="46.67087" lon="5.52762">
        <ele>258</ele>
        <time>2022-03-07T08:25:50Z</time>
      </trkpt>
      <trkpt lat="46.67083" lon="5.52758">
        <ele>258</ele>
        <time>2022-03-07T08:25:51Z</time>
      </trkpt>
      <trkpt lat="46.67078" lon="5.52755">
        <ele>258</ele>
        <time>2022-03-07T08:25:52Z</time>
      </trkpt>
      <trkpt lat="46.67074" lon="5.52751">
        <ele>258</ele>
        <time>2022-03-07T08:25:53Z</time>
      </trkpt>
      <trkpt lat="46.6707" lon="5.52748">
        <ele>258.4</ele>
        <time>2022-03-07T08:25:54Z</time>
      </trkpt>
      <trkpt lat="46.67065" lon="5.52744">
        <ele>258.4</ele>
        <time>2022-03-07T08:25:55Z</time>
      </trkpt>
      <trkpt lat="46.67061" lon="5.52741">
        <ele>258.4</ele>
        <time>2022-03-07T08:25:56Z</time>
      </trkpt>
      <trkpt lat="46.67057" lon="5.52738">
        <ele>258.6</ele>
        <time>2022-03-07T08:25:57Z</time>
      </trkpt>
      <trkpt lat="46.67052" lon="5.52734">
        <ele>258.6</ele>
        <time>2022-03-07T08:25:58Z</time>
      </trkpt>
      <trkpt lat="46.67048" lon="5.52731">
        <ele>258.8</ele>
        <time>2022-03-07T08:25:59Z</time>
      </trkpt>
      <trkpt lat="46.67043" lon="5.52728">
        <ele>258.8</ele>
        <time>2022-03-07T08:26:00Z</time>
      </trkpt>
      <trkpt lat="46.67039" lon="5.52725">
        <ele>258.8</ele>
        <time>2022-03-07T08:26:01Z</time>
      </trkpt>
      <trkpt lat="46.67034" lon="5.52722">
        <ele>259</ele>
        <time>2022-03-07T08:26:02Z</time>
      </trkpt>
      <trkpt lat="46.6703" lon="5.52719">
        <ele>259</ele>
        <time>2022-03-07T08:26:03Z</time>
      </trkpt>
      <trkpt lat="46.67026" lon="5.52716">
        <ele>259</ele>
        <time>2022-03-07T08:26:04Z</time>
      </trkpt>
      <trkpt lat="46.67021" lon="5.52714">
        <ele>259</ele>
        <time>2022-03-07T08:26:05Z</time>
      </trkpt>
      <trkpt lat="46.67017" lon="5.52711">
        <ele>259</ele>
        <time>2022-03-07T08:26:06Z</time>
      </trkpt>
      <trkpt lat="46.67012" lon="5.52708">
        <ele>259</ele>
        <time>2022-03-07T08:26:07Z</time>
      </trkpt>
      <trkpt lat="46.67008" lon="5.52705">
        <ele>259</ele>
        <time>2022-03-07T08:26:08Z</time>
      </trkpt>
      <trkpt lat="46.67003" lon="5.52703">
        <ele>259</ele>
        <time>2022-03-07T08:26:09Z</time>
      </trkpt>
      <trkpt lat="46.66999" lon="5.527">
        <ele>259.4</ele>
        <time>2022-03-07T08:26:10Z</time>
      </trkpt>
      <trkpt lat="46.66994" lon="5.52698">
        <ele>259.4</ele>
        <time>2022-03-07T08:26:11Z</time>
      </trkpt>
      <trkpt lat="46.6699" lon="5.52695">
        <ele>259.6</ele>
        <time>2022-03-07T08:26:12Z</time>
      </trkpt>
      <trkpt lat="46.66985" lon="5.52693">
        <ele>259.6</ele>
        <time>2022-03-07T08:26:13Z</time>
      </trkpt>
      <trkpt lat="46.66981" lon="5.5269">
        <ele>259.6</ele>
        <time>2022-03-07T08:26:14Z</time>
      </trkpt>
      <trkpt lat="46.66976" lon="5.52688">
        <ele>259.6</ele>
        <time>2022-03-07T08:26:15Z</time>
      </trkpt>
      <trkpt lat="46.66971" lon="5.52686">
        <ele>259.6</ele>
        <time>2022-03-07T08:26:16Z</time>
      </trkpt>
      <trkpt lat="46.66967" lon="5.52684">
        <ele>259.6</ele>
        <time>2022-03-07T08:26:17Z</time>
      </trkpt>
      <trkpt lat="46.66962" lon="5.52682">
        <ele>259.8</ele>
        <time>2022-03-07T08:26:18Z</time>
      </trkpt>
      <trkpt lat="46.66957" lon="5.5268">
        <ele>259.8</ele>
        <time>2022-03-07T08:26:19Z</time>
      </trkpt>
      <trkpt lat="46.66952" lon="5.52678">
        <ele>259.8</ele>
        <time>2022-03-07T08:26:20Z</time>
      </trkpt>
      <trkpt lat="46.66947" lon="5.52676">
        <ele>259.8</ele>
        <time>2022-03-07T08:26:21Z</time>
      </trkpt>
      <trkpt lat="46.66943" lon="5.52674">
        <ele>259.8</ele>
        <time>2022-03-07T08:26:22Z</time>
      </trkpt>
      <trkpt lat="46.66938" lon="5.52673">
        <ele>259.8</ele>
        <time>2022-03-07T08:26:23Z</time>
      </trkpt>
      <trkpt lat="46.66933" lon="5.52671">
        <ele>259.8</ele>
        <time>2022-03-07T08:26:24Z</time>
      </trkpt>
      <trkpt lat="46.66928" lon="5.5267">
        <ele>260</ele>
        <time>2022-03-07T08:26:25Z</time>
      </trkpt>
      <trkpt lat="46.66923" lon="5.52668">
        <ele>260</ele>
        <time>2022-03-07T08:26:26Z</time>
      </trkpt>
      <trkpt lat="46.66918" lon="5.52667">
        <ele>260</ele>
        <time>2022-03-07T08:26:27Z</time>
      </trkpt>
      <trkpt lat="46.66913" lon="5.52665">
        <ele>260</ele>
        <time>2022-03-07T08:26:28Z</time>
      </trkpt>
      <trkpt lat="46.66908" lon="5.52664">
        <ele>260</ele>
        <time>2022-03-07T08:26:29Z</time>
      </trkpt>
      <trkpt lat="46.66903" lon="5.52662">
        <ele>260</ele>
        <time>2022-03-07T08:26:30Z</time>
      </trkpt>
      <trkpt lat="46.66899" lon="5.52661">
        <ele>260</ele>
        <time>2022-03-07T08:26:31Z</time>
      </trkpt>
      <trkpt lat="46.66894" lon="5.52659">
        <ele>260.4</ele>
        <time>2022-03-07T08:26:32Z</time>
      </trkpt>
      <trkpt lat="46.66889" lon="5.52658">
        <ele>260.4</ele>
        <time>2022-03-07T08:26:33Z</time>
      </trkpt>
      <trkpt lat="46.66884" lon="5.52656">
        <ele>260.4</ele>
        <time>2022-03-07T08:26:34Z</time>
      </trkpt>
      <trkpt lat="46.6688" lon="5.52655">
        <ele>260.4</ele>
        <time>2022-03-07T08:26:35Z</time>
      </trkpt>
      <trkpt lat="46.66875" lon="5.52653">
        <ele>260.4</ele>
        <time>2022-03-07T08:26:36Z</time>
      </trkpt>
      <trkpt lat="46.6687" lon="5.52651">
        <ele>260.4</ele>
        <time>2022-03-07T08:26:37Z</time>
      </trkpt>
      <trkpt lat="46.66865" lon="5.52649">
        <ele>260.4</ele>
        <time>2022-03-07T08:26:38Z</time>
      </trkpt>
      <trkpt lat="46.6686" lon="5.52647">
        <ele>260.4</ele>
        <time>2022-03-07T08:26:39Z</time>
      </trkpt>
      <trkpt lat="46.66855" lon="5.52645">
        <ele>260.4</ele>
        <time>2022-03-07T08:26:40Z</time>
      </trkpt>
      <trkpt lat="46.6685" lon="5.52643">
        <ele>260.4</ele>
        <time>2022-03-07T08:26:41Z</time>
      </trkpt>
      <trkpt lat="46.66845" lon="5.5264">
        <ele>260.4</ele>
        <time>2022-03-07T08:26:42Z</time>
      </trkpt>
      <trkpt lat="46.6684" lon="5.52638">
        <ele>260.4</ele>
        <time>2022-03-07T08:26:43Z</time>
      </trkpt>
      <trkpt lat="46.66835" lon="5.52635">
        <ele>260.4</ele>
        <time>2022-03-07T08:26:44Z</time>
      </trkpt>
      <trkpt lat="46.66831" lon="5.52633">
        <ele>260.4</ele>
        <time>2022-03-07T08:26:45Z</time>
      </trkpt>
      <trkpt lat="46.66826" lon="5.52631">
        <ele>260.4</ele>
        <time>2022-03-07T08:26:46Z</time>
      </trkpt>
      <trkpt lat="46.66821" lon="5.52628">
        <ele>260.6</ele>
        <time>2022-03-07T08:26:47Z</time>
      </trkpt>
      <trkpt lat="46.66816" lon="5.52626">
        <ele>260.6</ele>
        <time>2022-03-07T08:26:48Z</time>
      </trkpt>
      <trkpt lat="46.66811" lon="5.52623">
        <ele>260.6</ele>
        <time>2022-03-07T08:26:49Z</time>
      </trkpt>
      <trkpt lat="46.66806" lon="5.5262">
        <ele>260.6</ele>
        <time>2022-03-07T08:26:50Z</time>
      </trkpt>
      <trkpt lat="46.66801" lon="5.52618">
        <ele>260.6</ele>
        <time>2022-03-07T08:26:51Z</time>
      </trkpt>
      <trkpt lat="46.66796" lon="5.52615">
        <ele>260.6</ele>
        <time>2022-03-07T08:26:52Z</time>
      </trkpt>
      <trkpt lat="46.66791" lon="5.52612">
        <ele>260.6</ele>
        <time>2022-03-07T08:26:53Z</time>
      </trkpt>
      <trkpt lat="46.66786" lon="5.5261">
        <ele>260.8</ele>
        <time>2022-03-07T08:26:54Z</time>
      </trkpt>
      <trkpt lat="46.66782" lon="5.52607">
        <ele>260.8</ele>
        <time>2022-03-07T08:26:55Z</time>
      </trkpt>
      <trkpt lat="46.66777" lon="5.52604">
        <ele>260.8</ele>
        <time>2022-03-07T08:26:56Z</time>
      </trkpt>
      <trkpt lat="46.66772" lon="5.52601">
        <ele>260.8</ele>
        <time>2022-03-07T08:26:57Z</time>
      </trkpt>
      <trkpt lat="46.66767" lon="5.52598">
        <ele>260.8</ele>
        <time>2022-03-07T08:26:58Z</time>
      </trkpt>
      <trkpt lat="46.66762" lon="5.52595">
        <ele>261</ele>
        <time>2022-03-07T08:26:59Z</time>
      </trkpt>
      <trkpt lat="46.66757" lon="5.52592">
        <ele>261</ele>
        <time>2022-03-07T08:27:00Z</time>
      </trkpt>
      <trkpt lat="46.66753" lon="5.52589">
        <ele>261</ele>
        <time>2022-03-07T08:27:01Z</time>
      </trkpt>
      <trkpt lat="46.66748" lon="5.52586">
        <ele>261.2</ele>
        <time>2022-03-07T08:27:02Z</time>
      </trkpt>
      <trkpt lat="46.66743" lon="5.52583">
        <ele>261.2</ele>
        <time>2022-03-07T08:27:03Z</time>
      </trkpt>
      <trkpt lat="46.66739" lon="5.5258">
        <ele>261.2</ele>
        <time>2022-03-07T08:27:04Z</time>
      </trkpt>
      <trkpt lat="46.66734" lon="5.52577">
        <ele>261.6</ele>
        <time>2022-03-07T08:27:05Z</time>
      </trkpt>
      <trkpt lat="46.6673" lon="5.52574">
        <ele>261.6</ele>
        <time>2022-03-07T08:27:06Z</time>
      </trkpt>
      <trkpt lat="46.66726" lon="5.5257">
        <ele>261.6</ele>
        <time>2022-03-07T08:27:07Z</time>
      </trkpt>
      <trkpt lat="46.66722" lon="5.52566">
        <ele>261.6</ele>
        <time>2022-03-07T08:27:08Z</time>
      </trkpt>
      <trkpt lat="46.66718" lon="5.52563">
        <ele>261.6</ele>
        <time>2022-03-07T08:27:09Z</time>
      </trkpt>
      <trkpt lat="46.66714" lon="5.52558">
        <ele>261.6</ele>
        <time>2022-03-07T08:27:10Z</time>
      </trkpt>
      <trkpt lat="46.6671" lon="5.52554">
        <ele>261.6</ele>
        <time>2022-03-07T08:27:11Z</time>
      </trkpt>
      <trkpt lat="46.66706" lon="5.5255">
        <ele>261.6</ele>
        <time>2022-03-07T08:27:12Z</time>
      </trkpt>
      <trkpt lat="46.66702" lon="5.52545">
        <ele>261.6</ele>
        <time>2022-03-07T08:27:13Z</time>
      </trkpt>
      <trkpt lat="46.66699" lon="5.5254">
        <ele>261.6</ele>
        <time>2022-03-07T08:27:14Z</time>
      </trkpt>
      <trkpt lat="46.66696" lon="5.52535">
        <ele>261.6</ele>
        <time>2022-03-07T08:27:15Z</time>
      </trkpt>
      <trkpt lat="46.66694" lon="5.52529">
        <ele>261.8</ele>
        <time>2022-03-07T08:27:16Z</time>
      </trkpt>
      <trkpt lat="46.66692" lon="5.52522">
        <ele>261.8</ele>
        <time>2022-03-07T08:27:17Z</time>
      </trkpt>
      <trkpt lat="46.6669" lon="5.52516">
        <ele>261.8</ele>
        <time>2022-03-07T08:27:18Z</time>
      </trkpt>
      <trkpt lat="46.66687" lon="5.5251">
        <ele>261.8</ele>
        <time>2022-03-07T08:27:19Z</time>
      </trkpt>
      <trkpt lat="46.66683" lon="5.52505">
        <ele>261.8</ele>
        <time>2022-03-07T08:27:20Z</time>
      </trkpt>
      <trkpt lat="46.66679" lon="5.52501">
        <ele>261.8</ele>
        <time>2022-03-07T08:27:21Z</time>
      </trkpt>
      <trkpt lat="46.66674" lon="5.52498">
        <ele>261.8</ele>
        <time>2022-03-07T08:27:22Z</time>
      </trkpt>
      <trkpt lat="46.66669" lon="5.52497">
        <ele>261.8</ele>
        <time>2022-03-07T08:27:23Z</time>
      </trkpt>
      <trkpt lat="46.66664" lon="5.52498">
        <ele>261.8</ele>
        <time>2022-03-07T08:27:24Z</time>
      </trkpt>
      <trkpt lat="46.66659" lon="5.525">
        <ele>261.6</ele>
        <time>2022-03-07T08:27:25Z</time>
      </trkpt>
      <trkpt lat="46.66654" lon="5.52504">
        <ele>261.6</ele>
        <time>2022-03-07T08:27:26Z</time>
      </trkpt>
      <trkpt lat="46.6665" lon="5.52508">
        <ele>261.6</ele>
        <time>2022-03-07T08:27:27Z</time>
      </trkpt>
      <trkpt lat="46.66645" lon="5.52511">
        <ele>261.6</ele>
        <time>2022-03-07T08:27:28Z</time>
      </trkpt>
      <trkpt lat="46.6664" lon="5.52514">
        <ele>261.6</ele>
        <time>2022-03-07T08:27:29Z</time>
      </trkpt>
      <trkpt lat="46.66635" lon="5.52515">
        <ele>261.6</ele>
        <time>2022-03-07T08:27:30Z</time>
      </trkpt>
      <trkpt lat="46.6663" lon="5.52515">
        <ele>261.2</ele>
        <time>2022-03-07T08:27:31Z</time>
      </trkpt>
      <trkpt lat="46.66625" lon="5.52514">
        <ele>261.2</ele>
        <time>2022-03-07T08:27:32Z</time>
      </trkpt>
      <trkpt lat="46.6662" lon="5.52511">
        <ele>261.2</ele>
        <time>2022-03-07T08:27:33Z</time>
      </trkpt>
      <trkpt lat="46.66615" lon="5.52508">
        <ele>261</ele>
        <time>2022-03-07T08:27:34Z</time>
      </trkpt>
      <trkpt lat="46.66609" lon="5.52506">
        <ele>261</ele>
        <time>2022-03-07T08:27:35Z</time>
      </trkpt>
      <trkpt lat="46.66604" lon="5.52504">
        <ele>261</ele>
        <time>2022-03-07T08:27:36Z</time>
      </trkpt>
      <trkpt lat="46.66598" lon="5.52503">
        <ele>260.8</ele>
        <time>2022-03-07T08:27:37Z</time>
      </trkpt>
      <trkpt lat="46.66593" lon="5.52502">
        <ele>260.8</ele>
        <time>2022-03-07T08:27:38Z</time>
      </trkpt>
      <trkpt lat="46.66587" lon="5.525">
        <ele>260.8</ele>
        <time>2022-03-07T08:27:39Z</time>
      </trkpt>
      <trkpt lat="46.66582" lon="5.52499">
        <ele>260.8</ele>
        <time>2022-03-07T08:27:40Z</time>
      </trkpt>
      <trkpt lat="46.66576" lon="5.52497">
        <ele>260.6</ele>
        <time>2022-03-07T08:27:41Z</time>
      </trkpt>
      <trkpt lat="46.66571" lon="5.52495">
        <ele>260.6</ele>
        <time>2022-03-07T08:27:42Z</time>
      </trkpt>
      <trkpt lat="46.66566" lon="5.52493">
        <ele>260.6</ele>
        <time>2022-03-07T08:27:43Z</time>
      </trkpt>
      <trkpt lat="46.66561" lon="5.52491">
        <ele>260.4</ele>
        <time>2022-03-07T08:27:44Z</time>
      </trkpt>
      <trkpt lat="46.66555" lon="5.52488">
        <ele>260.4</ele>
        <time>2022-03-07T08:27:45Z</time>
      </trkpt>
      <trkpt lat="46.6655" lon="5.52486">
        <ele>260.4</ele>
        <time>2022-03-07T08:27:46Z</time>
      </trkpt>
      <trkpt lat="46.66545" lon="5.52483">
        <ele>260.4</ele>
        <time>2022-03-07T08:27:47Z</time>
      </trkpt>
      <trkpt lat="46.6654" lon="5.52481">
        <ele>260.4</ele>
        <time>2022-03-07T08:27:48Z</time>
      </trkpt>
      <trkpt lat="46.66536" lon="5.52478">
        <ele>260.4</ele>
        <time>2022-03-07T08:27:49Z</time>
      </trkpt>
      <trkpt lat="46.66531" lon="5.52475">
        <ele>260</ele>
        <time>2022-03-07T08:27:50Z</time>
      </trkpt>
      <trkpt lat="46.66526" lon="5.52473">
        <ele>260</ele>
        <time>2022-03-07T08:27:51Z</time>
      </trkpt>
      <trkpt lat="46.66521" lon="5.5247">
        <ele>260</ele>
        <time>2022-03-07T08:27:52Z</time>
      </trkpt>
      <trkpt lat="46.66516" lon="5.52467">
        <ele>260</ele>
        <time>2022-03-07T08:27:53Z</time>
      </trkpt>
      <trkpt lat="46.66511" lon="5.52464">
        <ele>260</ele>
        <time>2022-03-07T08:27:54Z</time>
      </trkpt>
      <trkpt lat="46.66506" lon="5.52461">
        <ele>259.8</ele>
        <time>2022-03-07T08:27:55Z</time>
      </trkpt>
      <trkpt lat="46.66501" lon="5.52458">
        <ele>259.8</ele>
        <time>2022-03-07T08:27:56Z</time>
      </trkpt>
      <trkpt lat="46.66496" lon="5.52455">
        <ele>259.8</ele>
        <time>2022-03-07T08:27:57Z</time>
      </trkpt>
      <trkpt lat="46.66492" lon="5.52451">
        <ele>259.8</ele>
        <time>2022-03-07T08:27:58Z</time>
      </trkpt>
      <trkpt lat="46.66487" lon="5.52447">
        <ele>259.8</ele>
        <time>2022-03-07T08:27:59Z</time>
      </trkpt>
      <trkpt lat="46.66482" lon="5.52444">
        <ele>259.8</ele>
        <time>2022-03-07T08:28:00Z</time>
      </trkpt>
      <trkpt lat="46.66477" lon="5.5244">
        <ele>259.8</ele>
        <time>2022-03-07T08:28:01Z</time>
      </trkpt>
      <trkpt lat="46.66473" lon="5.52436">
        <ele>259.8</ele>
        <time>2022-03-07T08:28:02Z</time>
      </trkpt>
      <trkpt lat="46.66468" lon="5.52432">
        <ele>259.6</ele>
        <time>2022-03-07T08:28:03Z</time>
      </trkpt>
      <trkpt lat="46.66464" lon="5.52428">
        <ele>259.6</ele>
        <time>2022-03-07T08:28:04Z</time>
      </trkpt>
      <trkpt lat="46.66459" lon="5.52424">
        <ele>259.6</ele>
        <time>2022-03-07T08:28:05Z</time>
      </trkpt>
      <trkpt lat="46.66455" lon="5.5242">
        <ele>259.6</ele>
        <time>2022-03-07T08:28:06Z</time>
      </trkpt>
      <trkpt lat="46.6645" lon="5.52415">
        <ele>259.6</ele>
        <time>2022-03-07T08:28:07Z</time>
      </trkpt>
      <trkpt lat="46.66446" lon="5.52411">
        <ele>259.6</ele>
        <time>2022-03-07T08:28:08Z</time>
      </trkpt>
      <trkpt lat="46.66442" lon="5.52406">
        <ele>259.2</ele>
        <time>2022-03-07T08:28:09Z</time>
      </trkpt>
      <trkpt lat="46.66438" lon="5.52401">
        <ele>259.2</ele>
        <time>2022-03-07T08:28:10Z</time>
      </trkpt>
      <trkpt lat="46.66434" lon="5.52396">
        <ele>258.8</ele>
        <time>2022-03-07T08:28:11Z</time>
      </trkpt>
      <trkpt lat="46.66429" lon="5.5239">
        <ele>258.8</ele>
        <time>2022-03-07T08:28:12Z</time>
      </trkpt>
      <trkpt lat="46.66425" lon="5.52385">
        <ele>258.8</ele>
        <time>2022-03-07T08:28:13Z</time>
      </trkpt>
      <trkpt lat="46.66421" lon="5.5238">
        <ele>258.8</ele>
        <time>2022-03-07T08:28:14Z</time>
      </trkpt>
      <trkpt lat="46.66416" lon="5.52376">
        <ele>258.6</ele>
        <time>2022-03-07T08:28:15Z</time>
      </trkpt>
      <trkpt lat="46.66412" lon="5.52371">
        <ele>258.6</ele>
        <time>2022-03-07T08:28:16Z</time>
      </trkpt>
      <trkpt lat="46.66408" lon="5.52366">
        <ele>258.4</ele>
        <time>2022-03-07T08:28:17Z</time>
      </trkpt>
      <trkpt lat="46.66404" lon="5.5236">
        <ele>258.4</ele>
        <time>2022-03-07T08:28:18Z</time>
      </trkpt>
      <trkpt lat="46.664" lon="5.52354">
        <ele>258.2</ele>
        <time>2022-03-07T08:28:19Z</time>
      </trkpt>
      <trkpt lat="46.66396" lon="5.52348">
        <ele>258.2</ele>
        <time>2022-03-07T08:28:20Z</time>
      </trkpt>
      <trkpt lat="46.66392" lon="5.52341">
        <ele>258</ele>
        <time>2022-03-07T08:28:21Z</time>
      </trkpt>
      <trkpt lat="46.66389" lon="5.52335">
        <ele>258</ele>
        <time>2022-03-07T08:28:22Z</time>
      </trkpt>
      <trkpt lat="46.66385" lon="5.52329">
        <ele>257.6</ele>
        <time>2022-03-07T08:28:23Z</time>
      </trkpt>
      <trkpt lat="46.66381" lon="5.52322">
        <ele>257.4</ele>
        <time>2022-03-07T08:28:24Z</time>
      </trkpt>
      <trkpt lat="46.66377" lon="5.52315">
        <ele>257.4</ele>
        <time>2022-03-07T08:28:25Z</time>
      </trkpt>
      <trkpt lat="46.66372" lon="5.52308">
        <ele>257.2</ele>
        <time>2022-03-07T08:28:26Z</time>
      </trkpt>
      <trkpt lat="46.66368" lon="5.52301">
        <ele>257.2</ele>
        <time>2022-03-07T08:28:27Z</time>
      </trkpt>
      <trkpt lat="46.66364" lon="5.52294">
        <ele>256.8</ele>
        <time>2022-03-07T08:28:28Z</time>
      </trkpt>
      <trkpt lat="46.6636" lon="5.52287">
        <ele>256.4</ele>
        <time>2022-03-07T08:28:29Z</time>
      </trkpt>
      <trkpt lat="46.66355" lon="5.5228">
        <ele>256.2</ele>
        <time>2022-03-07T08:28:30Z</time>
      </trkpt>
      <trkpt lat="46.66351" lon="5.52272">
        <ele>256</ele>
        <time>2022-03-07T08:28:31Z</time>
      </trkpt>
      <trkpt lat="46.66347" lon="5.52265">
        <ele>255.8</ele>
        <time>2022-03-07T08:28:32Z</time>
      </trkpt>
      <trkpt lat="46.66342" lon="5.52258">
        <ele>255.4</ele>
        <time>2022-03-07T08:28:33Z</time>
      </trkpt>
      <trkpt lat="46.66338" lon="5.52251">
        <ele>255.2</ele>
        <time>2022-03-07T08:28:34Z</time>
      </trkpt>
      <trkpt lat="46.66333" lon="5.52243">
        <ele>255</ele>
        <time>2022-03-07T08:28:35Z</time>
      </trkpt>
      <trkpt lat="46.66328" lon="5.52235">
        <ele>254.6</ele>
        <time>2022-03-07T08:28:36Z</time>
      </trkpt>
      <trkpt lat="46.66323" lon="5.52227">
        <ele>254.4</ele>
        <time>2022-03-07T08:28:37Z</time>
      </trkpt>
      <trkpt lat="46.66319" lon="5.52219">
        <ele>254.2</ele>
        <time>2022-03-07T08:28:38Z</time>
      </trkpt>
      <trkpt lat="46.66314" lon="5.52211">
        <ele>254</ele>
        <time>2022-03-07T08:28:39Z</time>
      </trkpt>
      <trkpt lat="46.66309" lon="5.52202">
        <ele>254</ele>
        <time>2022-03-07T08:28:40Z</time>
      </trkpt>
      <trkpt lat="46.66304" lon="5.52194">
        <ele>253.6</ele>
        <time>2022-03-07T08:28:41Z</time>
      </trkpt>
      <trkpt lat="46.66299" lon="5.52186">
        <ele>253.2</ele>
        <time>2022-03-07T08:28:42Z</time>
      </trkpt>
      <trkpt lat="46.66294" lon="5.52177">
        <ele>253</ele>
        <time>2022-03-07T08:28:43Z</time>
      </trkpt>
      <trkpt lat="46.66289" lon="5.52169">
        <ele>252.8</ele>
        <time>2022-03-07T08:28:44Z</time>
      </trkpt>
      <trkpt lat="46.66284" lon="5.5216">
        <ele>252.4</ele>
        <time>2022-03-07T08:28:45Z</time>
      </trkpt>
      <trkpt lat="46.66279" lon="5.52152">
        <ele>252.2</ele>
        <time>2022-03-07T08:28:46Z</time>
      </trkpt>
      <trkpt lat="46.66274" lon="5.52144">
        <ele>252.2</ele>
        <time>2022-03-07T08:28:47Z</time>
      </trkpt>
      <trkpt lat="46.66269" lon="5.52135">
        <ele>251.8</ele>
        <time>2022-03-07T08:28:48Z</time>
      </trkpt>
      <trkpt lat="46.66264" lon="5.52127">
        <ele>251.4</ele>
        <time>2022-03-07T08:28:49Z</time>
      </trkpt>
      <trkpt lat="46.66259" lon="5.52118">
        <ele>251.2</ele>
        <time>2022-03-07T08:28:50Z</time>
      </trkpt>
      <trkpt lat="46.66255" lon="5.5211">
        <ele>250.8</ele>
        <time>2022-03-07T08:28:51Z</time>
      </trkpt>
      <trkpt lat="46.6625" lon="5.52102">
        <ele>250.4</ele>
        <time>2022-03-07T08:28:52Z</time>
      </trkpt>
      <trkpt lat="46.66245" lon="5.52093">
        <ele>250.2</ele>
        <time>2022-03-07T08:28:53Z</time>
      </trkpt>
      <trkpt lat="46.66245" lon="5.52093">
        <ele>249.8</ele>
        <time>2022-03-07T08:28:54Z</time>
      </trkpt>
      <trkpt lat="46.6624" lon="5.52085">
        <ele>249.8</ele>
        <time>2022-03-07T08:28:55Z</time>
      </trkpt>
      <trkpt lat="46.66235" lon="5.52077">
        <ele>249.4</ele>
        <time>2022-03-07T08:28:56Z</time>
      </trkpt>
      <trkpt lat="46.6623" lon="5.52069">
        <ele>249.2</ele>
        <time>2022-03-07T08:28:57Z</time>
      </trkpt>
      <trkpt lat="46.66225" lon="5.52061">
        <ele>249</ele>
        <time>2022-03-07T08:28:58Z</time>
      </trkpt>
      <trkpt lat="46.66221" lon="5.52053">
        <ele>248.8</ele>
        <time>2022-03-07T08:28:59Z</time>
      </trkpt>
      <trkpt lat="46.66216" lon="5.52045">
        <ele>248.6</ele>
        <time>2022-03-07T08:29:00Z</time>
      </trkpt>
      <trkpt lat="46.66211" lon="5.52037">
        <ele>248.2</ele>
        <time>2022-03-07T08:29:01Z</time>
      </trkpt>
      <trkpt lat="46.66207" lon="5.52029">
        <ele>248.2</ele>
        <time>2022-03-07T08:29:02Z</time>
      </trkpt>
      <trkpt lat="46.66202" lon="5.52021">
        <ele>248.2</ele>
        <time>2022-03-07T08:29:03Z</time>
      </trkpt>
      <trkpt lat="46.66198" lon="5.52014">
        <ele>248.2</ele>
        <time>2022-03-07T08:29:04Z</time>
      </trkpt>
      <trkpt lat="46.66193" lon="5.52006">
        <ele>248.2</ele>
        <time>2022-03-07T08:29:05Z</time>
      </trkpt>
      <trkpt lat="46.66189" lon="5.51999">
        <ele>248</ele>
        <time>2022-03-07T08:29:06Z</time>
      </trkpt>
      <trkpt lat="46.66185" lon="5.51991">
        <ele>248</ele>
        <time>2022-03-07T08:29:07Z</time>
      </trkpt>
      <trkpt lat="46.66181" lon="5.51985">
        <ele>248</ele>
        <time>2022-03-07T08:29:08Z</time>
      </trkpt>
      <trkpt lat="46.66177" lon="5.51978">
        <ele>248</ele>
        <time>2022-03-07T08:29:09Z</time>
      </trkpt>
      <trkpt lat="46.66173" lon="5.51971">
        <ele>248</ele>
        <time>2022-03-07T08:29:10Z</time>
      </trkpt>
      <trkpt lat="46.66169" lon="5.51964">
        <ele>248</ele>
        <time>2022-03-07T08:29:11Z</time>
      </trkpt>
      <trkpt lat="46.66165" lon="5.51958">
        <ele>248</ele>
        <time>2022-03-07T08:29:12Z</time>
      </trkpt>
      <trkpt lat="46.66162" lon="5.51952">
        <ele>248.2</ele>
        <time>2022-03-07T08:29:13Z</time>
      </trkpt>
      <trkpt lat="46.66158" lon="5.51946">
        <ele>248.2</ele>
        <time>2022-03-07T08:29:14Z</time>
      </trkpt>
      <trkpt lat="46.66155" lon="5.5194">
        <ele>248.6</ele>
        <time>2022-03-07T08:29:15Z</time>
      </trkpt>
      <trkpt lat="46.66151" lon="5.51935">
        <ele>248.6</ele>
        <time>2022-03-07T08:29:16Z</time>
      </trkpt>
      <trkpt lat="46.66148" lon="5.5193">
        <ele>249</ele>
        <time>2022-03-07T08:29:17Z</time>
      </trkpt>
      <trkpt lat="46.66145" lon="5.51924">
        <ele>249</ele>
        <time>2022-03-07T08:29:18Z</time>
      </trkpt>
      <trkpt lat="46.66142" lon="5.51919">
        <ele>249.2</ele>
        <time>2022-03-07T08:29:19Z</time>
      </trkpt>
      <trkpt lat="46.66139" lon="5.51914">
        <ele>249.2</ele>
        <time>2022-03-07T08:29:20Z</time>
      </trkpt>
      <trkpt lat="46.66136" lon="5.51909">
        <ele>249.6</ele>
        <time>2022-03-07T08:29:21Z</time>
      </trkpt>
      <trkpt lat="46.66132" lon="5.51904">
        <ele>249.8</ele>
        <time>2022-03-07T08:29:22Z</time>
      </trkpt>
      <trkpt lat="46.66129" lon="5.51899">
        <ele>249.8</ele>
        <time>2022-03-07T08:29:23Z</time>
      </trkpt>
      <trkpt lat="46.66125" lon="5.51893">
        <ele>250.2</ele>
        <time>2022-03-07T08:29:24Z</time>
      </trkpt>
      <trkpt lat="46.66122" lon="5.51888">
        <ele>250.4</ele>
        <time>2022-03-07T08:29:25Z</time>
      </trkpt>
      <trkpt lat="46.66118" lon="5.51883">
        <ele>250.4</ele>
        <time>2022-03-07T08:29:26Z</time>
      </trkpt>
      <trkpt lat="46.66115" lon="5.51878">
        <ele>250.4</ele>
        <time>2022-03-07T08:29:27Z</time>
      </trkpt>
      <trkpt lat="46.66112" lon="5.51872">
        <ele>250.8</ele>
        <time>2022-03-07T08:29:28Z</time>
      </trkpt>
      <trkpt lat="46.66108" lon="5.51868">
        <ele>250.8</ele>
        <time>2022-03-07T08:29:29Z</time>
      </trkpt>
      <trkpt lat="46.66105" lon="5.51863">
        <ele>251.2</ele>
        <time>2022-03-07T08:29:30Z</time>
      </trkpt>
      <trkpt lat="46.66102" lon="5.51858">
        <ele>251.4</ele>
        <time>2022-03-07T08:29:31Z</time>
      </trkpt>
      <trkpt lat="46.66099" lon="5.51854">
        <ele>251.4</ele>
        <time>2022-03-07T08:29:32Z</time>
      </trkpt>
      <trkpt lat="46.66095" lon="5.5185">
        <ele>251.6</ele>
        <time>2022-03-07T08:29:33Z</time>
      </trkpt>
      <trkpt lat="46.66092" lon="5.51846">
        <ele>251.6</ele>
        <time>2022-03-07T08:29:34Z</time>
      </trkpt>
      <trkpt lat="46.66089" lon="5.51842">
        <ele>252</ele>
        <time>2022-03-07T08:29:35Z</time>
      </trkpt>
      <trkpt lat="46.66086" lon="5.51838">
        <ele>252</ele>
        <time>2022-03-07T08:29:36Z</time>
      </trkpt>
      <trkpt lat="46.66082" lon="5.51834">
        <ele>252</ele>
        <time>2022-03-07T08:29:37Z</time>
      </trkpt>
      <trkpt lat="46.66078" lon="5.5183">
        <ele>252.2</ele>
        <time>2022-03-07T08:29:38Z</time>
      </trkpt>
      <trkpt lat="46.66075" lon="5.51826">
        <ele>252.4</ele>
        <time>2022-03-07T08:29:39Z</time>
      </trkpt>
      <trkpt lat="46.66071" lon="5.51822">
        <ele>252.4</ele>
        <time>2022-03-07T08:29:40Z</time>
      </trkpt>
      <trkpt lat="46.66068" lon="5.51818">
        <ele>252.4</ele>
        <time>2022-03-07T08:29:41Z</time>
      </trkpt>
      <trkpt lat="46.66064" lon="5.51814">
        <ele>252.4</ele>
        <time>2022-03-07T08:29:42Z</time>
      </trkpt>
      <trkpt lat="46.6606" lon="5.5181">
        <ele>252.4</ele>
        <time>2022-03-07T08:29:43Z</time>
      </trkpt>
      <trkpt lat="46.66056" lon="5.51806">
        <ele>252.4</ele>
        <time>2022-03-07T08:29:44Z</time>
      </trkpt>
      <trkpt lat="46.66052" lon="5.51801">
        <ele>252.8</ele>
        <time>2022-03-07T08:29:45Z</time>
      </trkpt>
      <trkpt lat="46.66048" lon="5.51797">
        <ele>252.8</ele>
        <time>2022-03-07T08:29:46Z</time>
      </trkpt>
      <trkpt lat="46.66044" lon="5.51793">
        <ele>252.8</ele>
        <time>2022-03-07T08:29:47Z</time>
      </trkpt>
      <trkpt lat="46.66036" lon="5.51784">
        <ele>252.8</ele>
        <time>2022-03-07T08:29:48Z</time>
      </trkpt>
      <trkpt lat="46.66032" lon="5.51779">
        <ele>252.8</ele>
        <time>2022-03-07T08:29:49Z</time>
      </trkpt>
      <trkpt lat="46.66028" lon="5.51775">
        <ele>252.8</ele>
        <time>2022-03-07T08:29:50Z</time>
      </trkpt>
      <trkpt lat="46.66023" lon="5.5177">
        <ele>253</ele>
        <time>2022-03-07T08:29:51Z</time>
      </trkpt>
      <trkpt lat="46.66019" lon="5.51765">
        <ele>253</ele>
        <time>2022-03-07T08:29:52Z</time>
      </trkpt>
      <trkpt lat="46.66015" lon="5.5176">
        <ele>253</ele>
        <time>2022-03-07T08:29:53Z</time>
      </trkpt>
      <trkpt lat="46.66011" lon="5.51756">
        <ele>253</ele>
        <time>2022-03-07T08:29:54Z</time>
      </trkpt>
      <trkpt lat="46.66007" lon="5.51751">
        <ele>253</ele>
        <time>2022-03-07T08:29:55Z</time>
      </trkpt>
      <trkpt lat="46.66003" lon="5.51746">
        <ele>253</ele>
        <time>2022-03-07T08:29:56Z</time>
      </trkpt>
      <trkpt lat="46.65999" lon="5.51741">
        <ele>253</ele>
        <time>2022-03-07T08:29:57Z</time>
      </trkpt>
      <trkpt lat="46.65995" lon="5.51736">
        <ele>253</ele>
        <time>2022-03-07T08:29:58Z</time>
      </trkpt>
      <trkpt lat="46.65991" lon="5.51732">
        <ele>253</ele>
        <time>2022-03-07T08:29:59Z</time>
      </trkpt>
      <trkpt lat="46.65987" lon="5.51728">
        <ele>253</ele>
        <time>2022-03-07T08:30:00Z</time>
      </trkpt>
      <trkpt lat="46.65983" lon="5.51723">
        <ele>253</ele>
        <time>2022-03-07T08:30:01Z</time>
      </trkpt>
      <trkpt lat="46.6598" lon="5.51719">
        <ele>253.2</ele>
        <time>2022-03-07T08:30:02Z</time>
      </trkpt>
      <trkpt lat="46.65976" lon="5.51715">
        <ele>253.2</ele>
        <time>2022-03-07T08:30:03Z</time>
      </trkpt>
      <trkpt lat="46.65972" lon="5.51711">
        <ele>253.2</ele>
        <time>2022-03-07T08:30:04Z</time>
      </trkpt>
      <trkpt lat="46.65968" lon="5.51707">
        <ele>253.2</ele>
        <time>2022-03-07T08:30:05Z</time>
      </trkpt>
      <trkpt lat="46.65964" lon="5.51703">
        <ele>253.2</ele>
        <time>2022-03-07T08:30:06Z</time>
      </trkpt>
      <trkpt lat="46.6596" lon="5.51698">
        <ele>253.2</ele>
        <time>2022-03-07T08:30:07Z</time>
      </trkpt>
      <trkpt lat="46.65956" lon="5.51694">
        <ele>253.4</ele>
        <time>2022-03-07T08:30:08Z</time>
      </trkpt>
      <trkpt lat="46.65953" lon="5.5169">
        <ele>253.4</ele>
        <time>2022-03-07T08:30:09Z</time>
      </trkpt>
      <trkpt lat="46.65949" lon="5.51686">
        <ele>253.4</ele>
        <time>2022-03-07T08:30:10Z</time>
      </trkpt>
      <trkpt lat="46.65945" lon="5.51682">
        <ele>253.4</ele>
        <time>2022-03-07T08:30:11Z</time>
      </trkpt>
      <trkpt lat="46.65941" lon="5.51678">
        <ele>253.4</ele>
        <time>2022-03-07T08:30:12Z</time>
      </trkpt>
      <trkpt lat="46.65938" lon="5.51674">
        <ele>253.6</ele>
        <time>2022-03-07T08:30:13Z</time>
      </trkpt>
      <trkpt lat="46.65934" lon="5.5167">
        <ele>253.6</ele>
        <time>2022-03-07T08:30:14Z</time>
      </trkpt>
      <trkpt lat="46.65931" lon="5.51666">
        <ele>253.6</ele>
        <time>2022-03-07T08:30:15Z</time>
      </trkpt>
      <trkpt lat="46.65928" lon="5.51661">
        <ele>253.6</ele>
        <time>2022-03-07T08:30:16Z</time>
      </trkpt>
      <trkpt lat="46.65924" lon="5.51656">
        <ele>253.6</ele>
        <time>2022-03-07T08:30:17Z</time>
      </trkpt>
      <trkpt lat="46.65921" lon="5.51652">
        <ele>253.6</ele>
        <time>2022-03-07T08:30:18Z</time>
      </trkpt>
      <trkpt lat="46.65917" lon="5.51648">
        <ele>253.6</ele>
        <time>2022-03-07T08:30:19Z</time>
      </trkpt>
      <trkpt lat="46.65914" lon="5.51643">
        <ele>253.8</ele>
        <time>2022-03-07T08:30:20Z</time>
      </trkpt>
      <trkpt lat="46.6591" lon="5.51639">
        <ele>253.8</ele>
        <time>2022-03-07T08:30:21Z</time>
      </trkpt>
      <trkpt lat="46.65906" lon="5.51635">
        <ele>253.8</ele>
        <time>2022-03-07T08:30:22Z</time>
      </trkpt>
      <trkpt lat="46.65902" lon="5.51632">
        <ele>253.8</ele>
        <time>2022-03-07T08:30:23Z</time>
      </trkpt>
      <trkpt lat="46.65898" lon="5.51629">
        <ele>253.8</ele>
        <time>2022-03-07T08:30:24Z</time>
      </trkpt>
      <trkpt lat="46.65893" lon="5.51626">
        <ele>253.8</ele>
        <time>2022-03-07T08:30:25Z</time>
      </trkpt>
      <trkpt lat="46.65889" lon="5.51622">
        <ele>253.8</ele>
        <time>2022-03-07T08:30:26Z</time>
      </trkpt>
      <trkpt lat="46.65885" lon="5.51618">
        <ele>253.8</ele>
        <time>2022-03-07T08:30:27Z</time>
      </trkpt>
      <trkpt lat="46.65881" lon="5.51614">
        <ele>253.8</ele>
        <time>2022-03-07T08:30:28Z</time>
      </trkpt>
      <trkpt lat="46.65877" lon="5.5161">
        <ele>253.8</ele>
        <time>2022-03-07T08:30:29Z</time>
      </trkpt>
      <trkpt lat="46.65873" lon="5.51605">
        <ele>253.8</ele>
        <time>2022-03-07T08:30:30Z</time>
      </trkpt>
      <trkpt lat="46.65869" lon="5.51601">
        <ele>253.8</ele>
        <time>2022-03-07T08:30:31Z</time>
      </trkpt>
      <trkpt lat="46.65865" lon="5.51597">
        <ele>253.8</ele>
        <time>2022-03-07T08:30:32Z</time>
      </trkpt>
      <trkpt lat="46.65861" lon="5.51593">
        <ele>253.8</ele>
        <time>2022-03-07T08:30:33Z</time>
      </trkpt>
      <trkpt lat="46.65857" lon="5.51589">
        <ele>253.8</ele>
        <time>2022-03-07T08:30:34Z</time>
      </trkpt>
      <trkpt lat="46.65854" lon="5.51585">
        <ele>253.8</ele>
        <time>2022-03-07T08:30:35Z</time>
      </trkpt>
      <trkpt lat="46.6585" lon="5.5158">
        <ele>253.8</ele>
        <time>2022-03-07T08:30:36Z</time>
      </trkpt>
      <trkpt lat="46.65846" lon="5.51576">
        <ele>253.8</ele>
        <time>2022-03-07T08:30:37Z</time>
      </trkpt>
      <trkpt lat="46.65843" lon="5.51571">
        <ele>253.8</ele>
        <time>2022-03-07T08:30:38Z</time>
      </trkpt>
      <trkpt lat="46.6584" lon="5.51566">
        <ele>253.8</ele>
        <time>2022-03-07T08:30:39Z</time>
      </trkpt>
      <trkpt lat="46.65837" lon="5.51561">
        <ele>253.8</ele>
        <time>2022-03-07T08:30:40Z</time>
      </trkpt>
      <trkpt lat="46.65833" lon="5.51557">
        <ele>253.8</ele>
        <time>2022-03-07T08:30:41Z</time>
      </trkpt>
      <trkpt lat="46.6583" lon="5.51553">
        <ele>253.8</ele>
        <time>2022-03-07T08:30:42Z</time>
      </trkpt>
      <trkpt lat="46.65826" lon="5.51549">
        <ele>253.8</ele>
        <time>2022-03-07T08:30:43Z</time>
      </trkpt>
      <trkpt lat="46.65823" lon="5.51545">
        <ele>253.8</ele>
        <time>2022-03-07T08:30:44Z</time>
      </trkpt>
      <trkpt lat="46.65819" lon="5.5154">
        <ele>253.8</ele>
        <time>2022-03-07T08:30:45Z</time>
      </trkpt>
      <trkpt lat="46.65816" lon="5.51537">
        <ele>253.8</ele>
        <time>2022-03-07T08:30:46Z</time>
      </trkpt>
      <trkpt lat="46.65813" lon="5.51534">
        <ele>253.8</ele>
        <time>2022-03-07T08:30:47Z</time>
      </trkpt>
      <trkpt lat="46.6581" lon="5.5153">
        <ele>253.8</ele>
        <time>2022-03-07T08:30:48Z</time>
      </trkpt>
      <trkpt lat="46.65808" lon="5.51525">
        <ele>253.8</ele>
        <time>2022-03-07T08:30:49Z</time>
      </trkpt>
      <trkpt lat="46.65806" lon="5.51519">
        <ele>253.8</ele>
        <time>2022-03-07T08:30:50Z</time>
      </trkpt>
      <trkpt lat="46.65804" lon="5.51513">
        <ele>253.8</ele>
        <time>2022-03-07T08:30:51Z</time>
      </trkpt>
      <trkpt lat="46.65801" lon="5.51507">
        <ele>253.8</ele>
        <time>2022-03-07T08:30:52Z</time>
      </trkpt>
      <trkpt lat="46.65798" lon="5.51502">
        <ele>253.8</ele>
        <time>2022-03-07T08:30:53Z</time>
      </trkpt>
      <trkpt lat="46.65794" lon="5.51497">
        <ele>253.8</ele>
        <time>2022-03-07T08:30:54Z</time>
      </trkpt>
      <trkpt lat="46.6579" lon="5.51493">
        <ele>253.8</ele>
        <time>2022-03-07T08:30:55Z</time>
      </trkpt>
      <trkpt lat="46.65786" lon="5.51489">
        <ele>253.8</ele>
        <time>2022-03-07T08:30:56Z</time>
      </trkpt>
      <trkpt lat="46.65782" lon="5.51486">
        <ele>253.8</ele>
        <time>2022-03-07T08:30:57Z</time>
      </trkpt>
      <trkpt lat="46.65778" lon="5.51484">
        <ele>253.8</ele>
        <time>2022-03-07T08:30:58Z</time>
      </trkpt>
      <trkpt lat="46.65773" lon="5.51483">
        <ele>253.8</ele>
        <time>2022-03-07T08:30:59Z</time>
      </trkpt>
      <trkpt lat="46.65768" lon="5.51482">
        <ele>254</ele>
        <time>2022-03-07T08:31:00Z</time>
      </trkpt>
      <trkpt lat="46.65764" lon="5.51481">
        <ele>254</ele>
        <time>2022-03-07T08:31:01Z</time>
      </trkpt>
      <trkpt lat="46.65759" lon="5.51478">
        <ele>254</ele>
        <time>2022-03-07T08:31:02Z</time>
      </trkpt>
      <trkpt lat="46.65755" lon="5.51475">
        <ele>254</ele>
        <time>2022-03-07T08:31:03Z</time>
      </trkpt>
      <trkpt lat="46.65751" lon="5.51471">
        <ele>254</ele>
        <time>2022-03-07T08:31:04Z</time>
      </trkpt>
      <trkpt lat="46.65746" lon="5.51467">
        <ele>254</ele>
        <time>2022-03-07T08:31:05Z</time>
      </trkpt>
      <trkpt lat="46.65742" lon="5.51462">
        <ele>254</ele>
        <time>2022-03-07T08:31:06Z</time>
      </trkpt>
      <trkpt lat="46.65738" lon="5.51458">
        <ele>254</ele>
        <time>2022-03-07T08:31:07Z</time>
      </trkpt>
      <trkpt lat="46.65734" lon="5.51453">
        <ele>254</ele>
        <time>2022-03-07T08:31:08Z</time>
      </trkpt>
      <trkpt lat="46.6573" lon="5.51448">
        <ele>253.8</ele>
        <time>2022-03-07T08:31:09Z</time>
      </trkpt>
      <trkpt lat="46.65725" lon="5.51444">
        <ele>253.8</ele>
        <time>2022-03-07T08:31:10Z</time>
      </trkpt>
      <trkpt lat="46.65721" lon="5.51439">
        <ele>253.8</ele>
        <time>2022-03-07T08:31:11Z</time>
      </trkpt>
      <trkpt lat="46.65717" lon="5.51434">
        <ele>253.8</ele>
        <time>2022-03-07T08:31:12Z</time>
      </trkpt>
      <trkpt lat="46.65712" lon="5.51429">
        <ele>253.8</ele>
        <time>2022-03-07T08:31:13Z</time>
      </trkpt>
      <trkpt lat="46.65708" lon="5.51424">
        <ele>253.6</ele>
        <time>2022-03-07T08:31:14Z</time>
      </trkpt>
      <trkpt lat="46.65703" lon="5.51419">
        <ele>253.6</ele>
        <time>2022-03-07T08:31:15Z</time>
      </trkpt>
      <trkpt lat="46.65699" lon="5.51414">
        <ele>253.6</ele>
        <time>2022-03-07T08:31:16Z</time>
      </trkpt>
      <trkpt lat="46.65694" lon="5.5141">
        <ele>253.6</ele>
        <time>2022-03-07T08:31:17Z</time>
      </trkpt>
      <trkpt lat="46.6569" lon="5.51405">
        <ele>253.6</ele>
        <time>2022-03-07T08:31:18Z</time>
      </trkpt>
      <trkpt lat="46.65686" lon="5.514">
        <ele>253.4</ele>
        <time>2022-03-07T08:31:19Z</time>
      </trkpt>
      <trkpt lat="46.65682" lon="5.51395">
        <ele>253.4</ele>
        <time>2022-03-07T08:31:20Z</time>
      </trkpt>
      <trkpt lat="46.65677" lon="5.51391">
        <ele>253.4</ele>
        <time>2022-03-07T08:31:21Z</time>
      </trkpt>
      <trkpt lat="46.65673" lon="5.51386">
        <ele>253</ele>
        <time>2022-03-07T08:31:22Z</time>
      </trkpt>
      <trkpt lat="46.65669" lon="5.51382">
        <ele>253</ele>
        <time>2022-03-07T08:31:23Z</time>
      </trkpt>
      <trkpt lat="46.65665" lon="5.51377">
        <ele>253</ele>
        <time>2022-03-07T08:31:24Z</time>
      </trkpt>
      <trkpt lat="46.65661" lon="5.51372">
        <ele>253</ele>
        <time>2022-03-07T08:31:25Z</time>
      </trkpt>
      <trkpt lat="46.65657" lon="5.51368">
        <ele>253</ele>
        <time>2022-03-07T08:31:26Z</time>
      </trkpt>
      <trkpt lat="46.65653" lon="5.51363">
        <ele>253</ele>
        <time>2022-03-07T08:31:27Z</time>
      </trkpt>
      <trkpt lat="46.65648" lon="5.51359">
        <ele>253</ele>
        <time>2022-03-07T08:31:28Z</time>
      </trkpt>
      <trkpt lat="46.65644" lon="5.51354">
        <ele>253</ele>
        <time>2022-03-07T08:31:29Z</time>
      </trkpt>
      <trkpt lat="46.6564" lon="5.5135">
        <ele>253</ele>
        <time>2022-03-07T08:31:30Z</time>
      </trkpt>
      <trkpt lat="46.65636" lon="5.51345">
        <ele>252.8</ele>
        <time>2022-03-07T08:31:31Z</time>
      </trkpt>
      <trkpt lat="46.65632" lon="5.51341">
        <ele>252.8</ele>
        <time>2022-03-07T08:31:32Z</time>
      </trkpt>
      <trkpt lat="46.65628" lon="5.51336">
        <ele>252.8</ele>
        <time>2022-03-07T08:31:33Z</time>
      </trkpt>
      <trkpt lat="46.65624" lon="5.51332">
        <ele>252.8</ele>
        <time>2022-03-07T08:31:34Z</time>
      </trkpt>
      <trkpt lat="46.6562" lon="5.51327">
        <ele>252.8</ele>
        <time>2022-03-07T08:31:35Z</time>
      </trkpt>
      <trkpt lat="46.65616" lon="5.51323">
        <ele>252.8</ele>
        <time>2022-03-07T08:31:36Z</time>
      </trkpt>
      <trkpt lat="46.65612" lon="5.51318">
        <ele>252.8</ele>
        <time>2022-03-07T08:31:37Z</time>
      </trkpt>
      <trkpt lat="46.65608" lon="5.51314">
        <ele>252.8</ele>
        <time>2022-03-07T08:31:38Z</time>
      </trkpt>
      <trkpt lat="46.65604" lon="5.51309">
        <ele>252.8</ele>
        <time>2022-03-07T08:31:39Z</time>
      </trkpt>
      <trkpt lat="46.65599" lon="5.51305">
        <ele>252.8</ele>
        <time>2022-03-07T08:31:40Z</time>
      </trkpt>
      <trkpt lat="46.65595" lon="5.51301">
        <ele>253</ele>
        <time>2022-03-07T08:31:41Z</time>
      </trkpt>
      <trkpt lat="46.65591" lon="5.51296">
        <ele>253</ele>
        <time>2022-03-07T08:31:42Z</time>
      </trkpt>
      <trkpt lat="46.65587" lon="5.51292">
        <ele>253</ele>
        <time>2022-03-07T08:31:43Z</time>
      </trkpt>
      <trkpt lat="46.65583" lon="5.51287">
        <ele>253</ele>
        <time>2022-03-07T08:31:44Z</time>
      </trkpt>
      <trkpt lat="46.65579" lon="5.51283">
        <ele>252.8</ele>
        <time>2022-03-07T08:31:45Z</time>
      </trkpt>
      <trkpt lat="46.65575" lon="5.51279">
        <ele>252.8</ele>
        <time>2022-03-07T08:31:46Z</time>
      </trkpt>
      <trkpt lat="46.65571" lon="5.51274">
        <ele>252.8</ele>
        <time>2022-03-07T08:31:47Z</time>
      </trkpt>
      <trkpt lat="46.65568" lon="5.5127">
        <ele>252.8</ele>
        <time>2022-03-07T08:31:48Z</time>
      </trkpt>
      <trkpt lat="46.65564" lon="5.51266">
        <ele>252.8</ele>
        <time>2022-03-07T08:31:49Z</time>
      </trkpt>
      <trkpt lat="46.6556" lon="5.51262">
        <ele>253.2</ele>
        <time>2022-03-07T08:31:50Z</time>
      </trkpt>
      <trkpt lat="46.65556" lon="5.51257">
        <ele>253.2</ele>
        <time>2022-03-07T08:31:51Z</time>
      </trkpt>
      <trkpt lat="46.65552" lon="5.51253">
        <ele>253.2</ele>
        <time>2022-03-07T08:31:52Z</time>
      </trkpt>
      <trkpt lat="46.65548" lon="5.51249">
        <ele>253.2</ele>
        <time>2022-03-07T08:31:53Z</time>
      </trkpt>
      <trkpt lat="46.65544" lon="5.51244">
        <ele>253.2</ele>
        <time>2022-03-07T08:31:54Z</time>
      </trkpt>
      <trkpt lat="46.6554" lon="5.5124">
        <ele>253.2</ele>
        <time>2022-03-07T08:31:55Z</time>
      </trkpt>
      <trkpt lat="46.65536" lon="5.51235">
        <ele>252.8</ele>
        <time>2022-03-07T08:31:56Z</time>
      </trkpt>
      <trkpt lat="46.65532" lon="5.51231">
        <ele>252.8</ele>
        <time>2022-03-07T08:31:57Z</time>
      </trkpt>
      <trkpt lat="46.65527" lon="5.51226">
        <ele>252.6</ele>
        <time>2022-03-07T08:31:58Z</time>
      </trkpt>
      <trkpt lat="46.65523" lon="5.51222">
        <ele>252.6</ele>
        <time>2022-03-07T08:31:59Z</time>
      </trkpt>
      <trkpt lat="46.65518" lon="5.51217">
        <ele>252.6</ele>
        <time>2022-03-07T08:32:00Z</time>
      </trkpt>
      <trkpt lat="46.65514" lon="5.51212">
        <ele>252.6</ele>
        <time>2022-03-07T08:32:01Z</time>
      </trkpt>
      <trkpt lat="46.65509" lon="5.51207">
        <ele>252.2</ele>
        <time>2022-03-07T08:32:02Z</time>
      </trkpt>
      <trkpt lat="46.65504" lon="5.51202">
        <ele>252.2</ele>
        <time>2022-03-07T08:32:03Z</time>
      </trkpt>
      <trkpt lat="46.65499" lon="5.51197">
        <ele>251.8</ele>
        <time>2022-03-07T08:32:04Z</time>
      </trkpt>
      <trkpt lat="46.65495" lon="5.51192">
        <ele>251.8</ele>
        <time>2022-03-07T08:32:05Z</time>
      </trkpt>
      <trkpt lat="46.6549" lon="5.51186">
        <ele>251.6</ele>
        <time>2022-03-07T08:32:06Z</time>
      </trkpt>
      <trkpt lat="46.65485" lon="5.51181">
        <ele>251.6</ele>
        <time>2022-03-07T08:32:07Z</time>
      </trkpt>
      <trkpt lat="46.6548" lon="5.51176">
        <ele>251.6</ele>
        <time>2022-03-07T08:32:08Z</time>
      </trkpt>
      <trkpt lat="46.65475" lon="5.5117">
        <ele>251.4</ele>
        <time>2022-03-07T08:32:09Z</time>
      </trkpt>
      <trkpt lat="46.6547" lon="5.51165">
        <ele>251.4</ele>
        <time>2022-03-07T08:32:10Z</time>
      </trkpt>
      <trkpt lat="46.65466" lon="5.5116">
        <ele>251.4</ele>
        <time>2022-03-07T08:32:11Z</time>
      </trkpt>
      <trkpt lat="46.65461" lon="5.51154">
        <ele>251</ele>
        <time>2022-03-07T08:32:12Z</time>
      </trkpt>
      <trkpt lat="46.65457" lon="5.51149">
        <ele>251</ele>
        <time>2022-03-07T08:32:13Z</time>
      </trkpt>
      <trkpt lat="46.65452" lon="5.51145">
        <ele>251</ele>
        <time>2022-03-07T08:32:14Z</time>
      </trkpt>
      <trkpt lat="46.65448" lon="5.5114">
        <ele>251</ele>
        <time>2022-03-07T08:32:15Z</time>
      </trkpt>
      <trkpt lat="46.65443" lon="5.51135">
        <ele>251</ele>
        <time>2022-03-07T08:32:16Z</time>
      </trkpt>
      <trkpt lat="46.65439" lon="5.5113">
        <ele>251</ele>
        <time>2022-03-07T08:32:17Z</time>
      </trkpt>
      <trkpt lat="46.65435" lon="5.51126">
        <ele>251</ele>
        <time>2022-03-07T08:32:18Z</time>
      </trkpt>
      <trkpt lat="46.65431" lon="5.51121">
        <ele>251</ele>
        <time>2022-03-07T08:32:19Z</time>
      </trkpt>
      <trkpt lat="46.65427" lon="5.51117">
        <ele>251</ele>
        <time>2022-03-07T08:32:20Z</time>
      </trkpt>
      <trkpt lat="46.65423" lon="5.51113">
        <ele>251</ele>
        <time>2022-03-07T08:32:21Z</time>
      </trkpt>
      <trkpt lat="46.65419" lon="5.51108">
        <ele>251</ele>
        <time>2022-03-07T08:32:22Z</time>
      </trkpt>
      <trkpt lat="46.65415" lon="5.51104">
        <ele>251</ele>
        <time>2022-03-07T08:32:23Z</time>
      </trkpt>
      <trkpt lat="46.65411" lon="5.511">
        <ele>251</ele>
        <time>2022-03-07T08:32:24Z</time>
      </trkpt>
      <trkpt lat="46.65407" lon="5.51096">
        <ele>251</ele>
        <time>2022-03-07T08:32:25Z</time>
      </trkpt>
      <trkpt lat="46.65403" lon="5.51092">
        <ele>251.4</ele>
        <time>2022-03-07T08:32:26Z</time>
      </trkpt>
      <trkpt lat="46.65399" lon="5.51088">
        <ele>251.4</ele>
        <time>2022-03-07T08:32:27Z</time>
      </trkpt>
      <trkpt lat="46.65396" lon="5.51084">
        <ele>251.6</ele>
        <time>2022-03-07T08:32:28Z</time>
      </trkpt>
      <trkpt lat="46.65392" lon="5.5108">
        <ele>251.6</ele>
        <time>2022-03-07T08:32:29Z</time>
      </trkpt>
      <trkpt lat="46.65389" lon="5.51076">
        <ele>251.8</ele>
        <time>2022-03-07T08:32:30Z</time>
      </trkpt>
      <trkpt lat="46.65385" lon="5.51073">
        <ele>252.2</ele>
        <time>2022-03-07T08:32:31Z</time>
      </trkpt>
      <trkpt lat="46.65385" lon="5.51073">
        <ele>252.2</ele>
        <time>2022-03-07T08:32:32Z</time>
      </trkpt>
      <trkpt lat="46.65382" lon="5.51069">
        <ele>252.2</ele>
        <time>2022-03-07T08:32:33Z</time>
      </trkpt>
      <trkpt lat="46.65378" lon="5.51066">
        <ele>252.4</ele>
        <time>2022-03-07T08:32:34Z</time>
      </trkpt>
      <trkpt lat="46.65374" lon="5.51062">
        <ele>252.6</ele>
        <time>2022-03-07T08:32:35Z</time>
      </trkpt>
      <trkpt lat="46.65371" lon="5.51058">
        <ele>252.6</ele>
        <time>2022-03-07T08:32:36Z</time>
      </trkpt>
      <trkpt lat="46.65367" lon="5.51054">
        <ele>253</ele>
        <time>2022-03-07T08:32:37Z</time>
      </trkpt>
      <trkpt lat="46.65363" lon="5.5105">
        <ele>253.4</ele>
        <time>2022-03-07T08:32:38Z</time>
      </trkpt>
      <trkpt lat="46.65359" lon="5.51046">
        <ele>253.6</ele>
        <time>2022-03-07T08:32:39Z</time>
      </trkpt>
      <trkpt lat="46.65356" lon="5.51042">
        <ele>253.8</ele>
        <time>2022-03-07T08:32:40Z</time>
      </trkpt>
      <trkpt lat="46.65352" lon="5.51038">
        <ele>253.8</ele>
        <time>2022-03-07T08:32:41Z</time>
      </trkpt>
      <trkpt lat="46.65349" lon="5.51034">
        <ele>254.2</ele>
        <time>2022-03-07T08:32:42Z</time>
      </trkpt>
      <trkpt lat="46.65345" lon="5.5103">
        <ele>254.6</ele>
        <time>2022-03-07T08:32:43Z</time>
      </trkpt>
      <trkpt lat="46.65342" lon="5.51027">
        <ele>254.8</ele>
        <time>2022-03-07T08:32:44Z</time>
      </trkpt>
      <trkpt lat="46.65338" lon="5.51023">
        <ele>254.8</ele>
        <time>2022-03-07T08:32:45Z</time>
      </trkpt>
      <trkpt lat="46.65335" lon="5.51019">
        <ele>255.2</ele>
        <time>2022-03-07T08:32:46Z</time>
      </trkpt>
      <trkpt lat="46.65332" lon="5.51016">
        <ele>255.2</ele>
        <time>2022-03-07T08:32:47Z</time>
      </trkpt>
      <trkpt lat="46.65329" lon="5.51012">
        <ele>255.4</ele>
        <time>2022-03-07T08:32:48Z</time>
      </trkpt>
      <trkpt lat="46.65326" lon="5.51009">
        <ele>255.6</ele>
        <time>2022-03-07T08:32:49Z</time>
      </trkpt>
      <trkpt lat="46.65322" lon="5.51005">
        <ele>255.6</ele>
        <time>2022-03-07T08:32:50Z</time>
      </trkpt>
      <trkpt lat="46.65319" lon="5.51001">
        <ele>256</ele>
        <time>2022-03-07T08:32:51Z</time>
      </trkpt>
      <trkpt lat="46.65316" lon="5.50998">
        <ele>256.2</ele>
        <time>2022-03-07T08:32:52Z</time>
      </trkpt>
      <trkpt lat="46.65313" lon="5.50994">
        <ele>256.2</ele>
        <time>2022-03-07T08:32:53Z</time>
      </trkpt>
      <trkpt lat="46.6531" lon="5.50991">
        <ele>256.2</ele>
        <time>2022-03-07T08:32:54Z</time>
      </trkpt>
      <trkpt lat="46.65307" lon="5.50987">
        <ele>256.4</ele>
        <time>2022-03-07T08:32:55Z</time>
      </trkpt>
      <trkpt lat="46.65304" lon="5.50983">
        <ele>256.4</ele>
        <time>2022-03-07T08:32:56Z</time>
      </trkpt>
      <trkpt lat="46.65301" lon="5.50979">
        <ele>256.8</ele>
        <time>2022-03-07T08:32:57Z</time>
      </trkpt>
      <trkpt lat="46.65299" lon="5.50975">
        <ele>256.8</ele>
        <time>2022-03-07T08:32:58Z</time>
      </trkpt>
      <trkpt lat="46.65296" lon="5.50972">
        <ele>257</ele>
        <time>2022-03-07T08:32:59Z</time>
      </trkpt>
      <trkpt lat="46.65294" lon="5.50968">
        <ele>257</ele>
        <time>2022-03-07T08:33:00Z</time>
      </trkpt>
      <trkpt lat="46.65291" lon="5.50963">
        <ele>257.2</ele>
        <time>2022-03-07T08:33:01Z</time>
      </trkpt>
      <trkpt lat="46.65289" lon="5.50958">
        <ele>257.2</ele>
        <time>2022-03-07T08:33:02Z</time>
      </trkpt>
      <trkpt lat="46.65288" lon="5.50952">
        <ele>257.2</ele>
        <time>2022-03-07T08:33:03Z</time>
      </trkpt>
      <trkpt lat="46.65288" lon="5.50946">
        <ele>257.2</ele>
        <time>2022-03-07T08:33:04Z</time>
      </trkpt>
      <trkpt lat="46.65287" lon="5.50939">
        <ele>257.2</ele>
        <time>2022-03-07T08:33:05Z</time>
      </trkpt>
      <trkpt lat="46.65286" lon="5.50932">
        <ele>257.2</ele>
        <time>2022-03-07T08:33:06Z</time>
      </trkpt>
      <trkpt lat="46.65284" lon="5.50926">
        <ele>257.2</ele>
        <time>2022-03-07T08:33:07Z</time>
      </trkpt>
      <trkpt lat="46.6528" lon="5.5092">
        <ele>257.2</ele>
        <time>2022-03-07T08:33:08Z</time>
      </trkpt>
      <trkpt lat="46.65276" lon="5.50916">
        <ele>257</ele>
        <time>2022-03-07T08:33:09Z</time>
      </trkpt>
      <trkpt lat="46.65272" lon="5.50912">
        <ele>257</ele>
        <time>2022-03-07T08:33:10Z</time>
      </trkpt>
      <trkpt lat="46.65268" lon="5.5091">
        <ele>257</ele>
        <time>2022-03-07T08:33:11Z</time>
      </trkpt>
      <trkpt lat="46.65263" lon="5.50909">
        <ele>257</ele>
        <time>2022-03-07T08:33:12Z</time>
      </trkpt>
      <trkpt lat="46.65258" lon="5.5091">
        <ele>257</ele>
        <time>2022-03-07T08:33:13Z</time>
      </trkpt>
      <trkpt lat="46.65253" lon="5.50911">
        <ele>257.4</ele>
        <time>2022-03-07T08:33:14Z</time>
      </trkpt>
      <trkpt lat="46.65249" lon="5.50913">
        <ele>257.4</ele>
        <time>2022-03-07T08:33:15Z</time>
      </trkpt>
      <trkpt lat="46.65244" lon="5.50916">
        <ele>257.6</ele>
        <time>2022-03-07T08:33:16Z</time>
      </trkpt>
      <trkpt lat="46.65239" lon="5.50918">
        <ele>257.6</ele>
        <time>2022-03-07T08:33:17Z</time>
      </trkpt>
      <trkpt lat="46.65234" lon="5.50918">
        <ele>257.6</ele>
        <time>2022-03-07T08:33:18Z</time>
      </trkpt>
      <trkpt lat="46.65229" lon="5.50917">
        <ele>257.6</ele>
        <time>2022-03-07T08:33:19Z</time>
      </trkpt>
      <trkpt lat="46.65224" lon="5.50915">
        <ele>257.8</ele>
        <time>2022-03-07T08:33:20Z</time>
      </trkpt>
      <trkpt lat="46.65213" lon="5.5091">
        <ele>257.8</ele>
        <time>2022-03-07T08:33:21Z</time>
      </trkpt>
      <trkpt lat="46.65208" lon="5.50908">
        <ele>257.8</ele>
        <time>2022-03-07T08:33:22Z</time>
      </trkpt>
      <trkpt lat="46.65203" lon="5.50905">
        <ele>257.8</ele>
        <time>2022-03-07T08:33:23Z</time>
      </trkpt>
      <trkpt lat="46.65197" lon="5.50902">
        <ele>257.8</ele>
        <time>2022-03-07T08:33:24Z</time>
      </trkpt>
      <trkpt lat="46.65192" lon="5.50899">
        <ele>257.8</ele>
        <time>2022-03-07T08:33:25Z</time>
      </trkpt>
      <trkpt lat="46.65187" lon="5.50896">
        <ele>257.8</ele>
        <time>2022-03-07T08:33:26Z</time>
      </trkpt>
      <trkpt lat="46.65182" lon="5.50892">
        <ele>257.8</ele>
        <time>2022-03-07T08:33:27Z</time>
      </trkpt>
      <trkpt lat="46.65177" lon="5.50889">
        <ele>257.8</ele>
        <time>2022-03-07T08:33:28Z</time>
      </trkpt>
      <trkpt lat="46.65172" lon="5.50886">
        <ele>257.8</ele>
        <time>2022-03-07T08:33:29Z</time>
      </trkpt>
      <trkpt lat="46.65167" lon="5.50883">
        <ele>257.6</ele>
        <time>2022-03-07T08:33:30Z</time>
      </trkpt>
      <trkpt lat="46.65162" lon="5.5088">
        <ele>257.8</ele>
        <time>2022-03-07T08:33:31Z</time>
      </trkpt>
      <trkpt lat="46.65158" lon="5.50877">
        <ele>257.8</ele>
        <time>2022-03-07T08:33:32Z</time>
      </trkpt>
      <trkpt lat="46.65153" lon="5.50874">
        <ele>258</ele>
        <time>2022-03-07T08:33:33Z</time>
      </trkpt>
      <trkpt lat="46.65148" lon="5.50872">
        <ele>258</ele>
        <time>2022-03-07T08:33:34Z</time>
      </trkpt>
      <trkpt lat="46.65144" lon="5.50869">
        <ele>258</ele>
        <time>2022-03-07T08:33:35Z</time>
      </trkpt>
      <trkpt lat="46.65139" lon="5.50866">
        <ele>257.8</ele>
        <time>2022-03-07T08:33:36Z</time>
      </trkpt>
      <trkpt lat="46.65134" lon="5.50864">
        <ele>257.8</ele>
        <time>2022-03-07T08:33:37Z</time>
      </trkpt>
      <trkpt lat="46.6513" lon="5.50861">
        <ele>257.8</ele>
        <time>2022-03-07T08:33:38Z</time>
      </trkpt>
      <trkpt lat="46.65125" lon="5.50858">
        <ele>257.8</ele>
        <time>2022-03-07T08:33:39Z</time>
      </trkpt>
      <trkpt lat="46.65121" lon="5.50856">
        <ele>257.8</ele>
        <time>2022-03-07T08:33:40Z</time>
      </trkpt>
      <trkpt lat="46.65116" lon="5.50853">
        <ele>257.8</ele>
        <time>2022-03-07T08:33:41Z</time>
      </trkpt>
      <trkpt lat="46.65112" lon="5.5085">
        <ele>257.8</ele>
        <time>2022-03-07T08:33:42Z</time>
      </trkpt>
      <trkpt lat="46.65108" lon="5.50848">
        <ele>257.8</ele>
        <time>2022-03-07T08:33:43Z</time>
      </trkpt>
      <trkpt lat="46.65103" lon="5.50845">
        <ele>258</ele>
        <time>2022-03-07T08:33:44Z</time>
      </trkpt>
      <trkpt lat="46.65099" lon="5.50842">
        <ele>258.2</ele>
        <time>2022-03-07T08:33:45Z</time>
      </trkpt>
      <trkpt lat="46.65095" lon="5.5084">
        <ele>258.2</ele>
        <time>2022-03-07T08:33:46Z</time>
      </trkpt>
      <trkpt lat="46.65091" lon="5.50837">
        <ele>258.2</ele>
        <time>2022-03-07T08:33:47Z</time>
      </trkpt>
      <trkpt lat="46.65087" lon="5.50835">
        <ele>258.2</ele>
        <time>2022-03-07T08:33:48Z</time>
      </trkpt>
      <trkpt lat="46.65083" lon="5.50833">
        <ele>258.4</ele>
        <time>2022-03-07T08:33:49Z</time>
      </trkpt>
      <trkpt lat="46.65079" lon="5.5083">
        <ele>258.4</ele>
        <time>2022-03-07T08:33:50Z</time>
      </trkpt>
      <trkpt lat="46.65075" lon="5.50827">
        <ele>258.4</ele>
        <time>2022-03-07T08:33:51Z</time>
      </trkpt>
      <trkpt lat="46.65071" lon="5.50825">
        <ele>258.8</ele>
        <time>2022-03-07T08:33:52Z</time>
      </trkpt>
      <trkpt lat="46.65067" lon="5.50823">
        <ele>258.8</ele>
        <time>2022-03-07T08:33:53Z</time>
      </trkpt>
      <trkpt lat="46.65063" lon="5.5082">
        <ele>259</ele>
        <time>2022-03-07T08:33:54Z</time>
      </trkpt>
      <trkpt lat="46.65059" lon="5.50818">
        <ele>259</ele>
        <time>2022-03-07T08:33:55Z</time>
      </trkpt>
      <trkpt lat="46.65055" lon="5.50815">
        <ele>259.4</ele>
        <time>2022-03-07T08:33:56Z</time>
      </trkpt>
      <trkpt lat="46.65051" lon="5.50813">
        <ele>259.4</ele>
        <time>2022-03-07T08:33:57Z</time>
      </trkpt>
      <trkpt lat="46.65047" lon="5.5081">
        <ele>259.8</ele>
        <time>2022-03-07T08:33:58Z</time>
      </trkpt>
      <trkpt lat="46.65043" lon="5.50807">
        <ele>259.8</ele>
        <time>2022-03-07T08:33:59Z</time>
      </trkpt>
      <trkpt lat="46.65038" lon="5.50805">
        <ele>260</ele>
        <time>2022-03-07T08:34:00Z</time>
      </trkpt>
      <trkpt lat="46.65034" lon="5.50803">
        <ele>260</ele>
        <time>2022-03-07T08:34:01Z</time>
      </trkpt>
      <trkpt lat="46.65034" lon="5.50803">
        <ele>260</ele>
        <time>2022-03-07T08:34:02Z</time>
      </trkpt>
      <trkpt lat="46.6503" lon="5.508">
        <ele>260</ele>
        <time>2022-03-07T08:34:03Z</time>
      </trkpt>
      <trkpt lat="46.65027" lon="5.50798">
        <ele>260</ele>
        <time>2022-03-07T08:34:04Z</time>
      </trkpt>
      <trkpt lat="46.65023" lon="5.50795">
        <ele>260.2</ele>
        <time>2022-03-07T08:34:05Z</time>
      </trkpt>
      <trkpt lat="46.65019" lon="5.50793">
        <ele>260.2</ele>
        <time>2022-03-07T08:34:06Z</time>
      </trkpt>
      <trkpt lat="46.65015" lon="5.5079">
        <ele>260.2</ele>
        <time>2022-03-07T08:34:07Z</time>
      </trkpt>
      <trkpt lat="46.65011" lon="5.50788">
        <ele>260.6</ele>
        <time>2022-03-07T08:34:08Z</time>
      </trkpt>
      <trkpt lat="46.65007" lon="5.50785">
        <ele>260.6</ele>
        <time>2022-03-07T08:34:09Z</time>
      </trkpt>
      <trkpt lat="46.65003" lon="5.50783">
        <ele>260.8</ele>
        <time>2022-03-07T08:34:10Z</time>
      </trkpt>
      <trkpt lat="46.64999" lon="5.50781">
        <ele>260.8</ele>
        <time>2022-03-07T08:34:11Z</time>
      </trkpt>
      <trkpt lat="46.64995" lon="5.50778">
        <ele>260.8</ele>
        <time>2022-03-07T08:34:12Z</time>
      </trkpt>
      <trkpt lat="46.64991" lon="5.50775">
        <ele>261.2</ele>
        <time>2022-03-07T08:34:13Z</time>
      </trkpt>
      <trkpt lat="46.64988" lon="5.50773">
        <ele>261.2</ele>
        <time>2022-03-07T08:34:14Z</time>
      </trkpt>
      <trkpt lat="46.64984" lon="5.50771">
        <ele>261.4</ele>
        <time>2022-03-07T08:34:15Z</time>
      </trkpt>
      <trkpt lat="46.6498" lon="5.50768">
        <ele>261.4</ele>
        <time>2022-03-07T08:34:16Z</time>
      </trkpt>
      <trkpt lat="46.64976" lon="5.50766">
        <ele>261.6</ele>
        <time>2022-03-07T08:34:17Z</time>
      </trkpt>
      <trkpt lat="46.64972" lon="5.50763">
        <ele>261.6</ele>
        <time>2022-03-07T08:34:18Z</time>
      </trkpt>
      <trkpt lat="46.64968" lon="5.50761">
        <ele>261.6</ele>
        <time>2022-03-07T08:34:19Z</time>
      </trkpt>
      <trkpt lat="46.64965" lon="5.50759">
        <ele>261.8</ele>
        <time>2022-03-07T08:34:20Z</time>
      </trkpt>
      <trkpt lat="46.64961" lon="5.50756">
        <ele>261.8</ele>
        <time>2022-03-07T08:34:21Z</time>
      </trkpt>
      <trkpt lat="46.64957" lon="5.50754">
        <ele>262.2</ele>
        <time>2022-03-07T08:34:22Z</time>
      </trkpt>
      <trkpt lat="46.64953" lon="5.50752">
        <ele>262.2</ele>
        <time>2022-03-07T08:34:23Z</time>
      </trkpt>
      <trkpt lat="46.6495" lon="5.5075">
        <ele>262.6</ele>
        <time>2022-03-07T08:34:24Z</time>
      </trkpt>
      <trkpt lat="46.64946" lon="5.50748">
        <ele>262.8</ele>
        <time>2022-03-07T08:34:25Z</time>
      </trkpt>
      <trkpt lat="46.64943" lon="5.50745">
        <ele>262.8</ele>
        <time>2022-03-07T08:34:26Z</time>
      </trkpt>
      <trkpt lat="46.64939" lon="5.50742">
        <ele>263.4</ele>
        <time>2022-03-07T08:34:27Z</time>
      </trkpt>
      <trkpt lat="46.64935" lon="5.5074">
        <ele>263.4</ele>
        <time>2022-03-07T08:34:28Z</time>
      </trkpt>
      <trkpt lat="46.64931" lon="5.50738">
        <ele>263.4</ele>
        <time>2022-03-07T08:34:29Z</time>
      </trkpt>
      <trkpt lat="46.64927" lon="5.50735">
        <ele>263.4</ele>
        <time>2022-03-07T08:34:30Z</time>
      </trkpt>
      <trkpt lat="46.64923" lon="5.50733">
        <ele>263.4</ele>
        <time>2022-03-07T08:34:31Z</time>
      </trkpt>
      <trkpt lat="46.64919" lon="5.5073">
        <ele>263.4</ele>
        <time>2022-03-07T08:34:32Z</time>
      </trkpt>
      <trkpt lat="46.64915" lon="5.50728">
        <ele>263.4</ele>
        <time>2022-03-07T08:34:33Z</time>
      </trkpt>
      <trkpt lat="46.64912" lon="5.50725">
        <ele>263.6</ele>
        <time>2022-03-07T08:34:34Z</time>
      </trkpt>
      <trkpt lat="46.64908" lon="5.50722">
        <ele>263.6</ele>
        <time>2022-03-07T08:34:35Z</time>
      </trkpt>
      <trkpt lat="46.64904" lon="5.50719">
        <ele>263.8</ele>
        <time>2022-03-07T08:34:36Z</time>
      </trkpt>
      <trkpt lat="46.649" lon="5.50717">
        <ele>263.8</ele>
        <time>2022-03-07T08:34:37Z</time>
      </trkpt>
      <trkpt lat="46.64896" lon="5.50714">
        <ele>264</ele>
        <time>2022-03-07T08:34:38Z</time>
      </trkpt>
      <trkpt lat="46.64893" lon="5.50711">
        <ele>264</ele>
        <time>2022-03-07T08:34:39Z</time>
      </trkpt>
      <trkpt lat="46.64889" lon="5.50708">
        <ele>264</ele>
        <time>2022-03-07T08:34:40Z</time>
      </trkpt>
      <trkpt lat="46.64885" lon="5.50706">
        <ele>264.2</ele>
        <time>2022-03-07T08:34:41Z</time>
      </trkpt>
      <trkpt lat="46.64881" lon="5.50703">
        <ele>264.2</ele>
        <time>2022-03-07T08:34:42Z</time>
      </trkpt>
      <trkpt lat="46.64878" lon="5.507">
        <ele>264.2</ele>
        <time>2022-03-07T08:34:43Z</time>
      </trkpt>
      <trkpt lat="46.64874" lon="5.50698">
        <ele>264.6</ele>
        <time>2022-03-07T08:34:44Z</time>
      </trkpt>
      <trkpt lat="46.6487" lon="5.50695">
        <ele>264.6</ele>
        <time>2022-03-07T08:34:45Z</time>
      </trkpt>
      <trkpt lat="46.64866" lon="5.50692">
        <ele>264.6</ele>
        <time>2022-03-07T08:34:46Z</time>
      </trkpt>
      <trkpt lat="46.64862" lon="5.50689">
        <ele>264.8</ele>
        <time>2022-03-07T08:34:47Z</time>
      </trkpt>
      <trkpt lat="46.64858" lon="5.50686">
        <ele>264.8</ele>
        <time>2022-03-07T08:34:48Z</time>
      </trkpt>
      <trkpt lat="46.64854" lon="5.50683">
        <ele>264.8</ele>
        <time>2022-03-07T08:34:49Z</time>
      </trkpt>
      <trkpt lat="46.6485" lon="5.50679">
        <ele>264.8</ele>
        <time>2022-03-07T08:34:50Z</time>
      </trkpt>
      <trkpt lat="46.64846" lon="5.50676">
        <ele>264.8</ele>
        <time>2022-03-07T08:34:51Z</time>
      </trkpt>
      <trkpt lat="46.64842" lon="5.50673">
        <ele>264.8</ele>
        <time>2022-03-07T08:34:52Z</time>
      </trkpt>
      <trkpt lat="46.64838" lon="5.5067">
        <ele>264.8</ele>
        <time>2022-03-07T08:34:53Z</time>
      </trkpt>
      <trkpt lat="46.64833" lon="5.50666">
        <ele>264.8</ele>
        <time>2022-03-07T08:34:54Z</time>
      </trkpt>
      <trkpt lat="46.64829" lon="5.50663">
        <ele>264.8</ele>
        <time>2022-03-07T08:34:55Z</time>
      </trkpt>
      <trkpt lat="46.64824" lon="5.50659">
        <ele>264.8</ele>
        <time>2022-03-07T08:34:56Z</time>
      </trkpt>
      <trkpt lat="46.64819" lon="5.50656">
        <ele>264.8</ele>
        <time>2022-03-07T08:34:57Z</time>
      </trkpt>
      <trkpt lat="46.64815" lon="5.50652">
        <ele>264.8</ele>
        <time>2022-03-07T08:34:58Z</time>
      </trkpt>
      <trkpt lat="46.6481" lon="5.50648">
        <ele>264.8</ele>
        <time>2022-03-07T08:34:59Z</time>
      </trkpt>
      <trkpt lat="46.64805" lon="5.50644">
        <ele>264.8</ele>
        <time>2022-03-07T08:35:00Z</time>
      </trkpt>
      <trkpt lat="46.648" lon="5.5064">
        <ele>264.8</ele>
        <time>2022-03-07T08:35:01Z</time>
      </trkpt>
      <trkpt lat="46.64795" lon="5.50636">
        <ele>264.4</ele>
        <time>2022-03-07T08:35:02Z</time>
      </trkpt>
      <trkpt lat="46.64789" lon="5.50632">
        <ele>264.4</ele>
        <time>2022-03-07T08:35:03Z</time>
      </trkpt>
      <trkpt lat="46.64784" lon="5.50628">
        <ele>264.2</ele>
        <time>2022-03-07T08:35:04Z</time>
      </trkpt>
      <trkpt lat="46.64779" lon="5.50623">
        <ele>264.2</ele>
        <time>2022-03-07T08:35:05Z</time>
      </trkpt>
      <trkpt lat="46.64774" lon="5.50619">
        <ele>264</ele>
        <time>2022-03-07T08:35:06Z</time>
      </trkpt>
      <trkpt lat="46.64769" lon="5.50616">
        <ele>264</ele>
        <time>2022-03-07T08:35:07Z</time>
      </trkpt>
      <trkpt lat="46.64764" lon="5.50612">
        <ele>263.8</ele>
        <time>2022-03-07T08:35:08Z</time>
      </trkpt>
      <trkpt lat="46.64759" lon="5.50608">
        <ele>263.8</ele>
        <time>2022-03-07T08:35:09Z</time>
      </trkpt>
      <trkpt lat="46.64754" lon="5.50604">
        <ele>263.6</ele>
        <time>2022-03-07T08:35:10Z</time>
      </trkpt>
      <trkpt lat="46.64749" lon="5.506">
        <ele>263.6</ele>
        <time>2022-03-07T08:35:11Z</time>
      </trkpt>
      <trkpt lat="46.64745" lon="5.50597">
        <ele>263.6</ele>
        <time>2022-03-07T08:35:12Z</time>
      </trkpt>
      <trkpt lat="46.6474" lon="5.50593">
        <ele>263.6</ele>
        <time>2022-03-07T08:35:13Z</time>
      </trkpt>
      <trkpt lat="46.64735" lon="5.50589">
        <ele>263.6</ele>
        <time>2022-03-07T08:35:14Z</time>
      </trkpt>
      <trkpt lat="46.6473" lon="5.50585">
        <ele>263.6</ele>
        <time>2022-03-07T08:35:15Z</time>
      </trkpt>
      <trkpt lat="46.64725" lon="5.50582">
        <ele>263.6</ele>
        <time>2022-03-07T08:35:16Z</time>
      </trkpt>
      <trkpt lat="46.6472" lon="5.50578">
        <ele>263.6</ele>
        <time>2022-03-07T08:35:17Z</time>
      </trkpt>
      <trkpt lat="46.64716" lon="5.50574">
        <ele>263.2</ele>
        <time>2022-03-07T08:35:18Z</time>
      </trkpt>
      <trkpt lat="46.64711" lon="5.5057">
        <ele>263.2</ele>
        <time>2022-03-07T08:35:19Z</time>
      </trkpt>
      <trkpt lat="46.64706" lon="5.50567">
        <ele>263.2</ele>
        <time>2022-03-07T08:35:20Z</time>
      </trkpt>
      <trkpt lat="46.64701" lon="5.50563">
        <ele>263.2</ele>
        <time>2022-03-07T08:35:21Z</time>
      </trkpt>
      <trkpt lat="46.64696" lon="5.50559">
        <ele>263.2</ele>
        <time>2022-03-07T08:35:22Z</time>
      </trkpt>
      <trkpt lat="46.64691" lon="5.50555">
        <ele>263</ele>
        <time>2022-03-07T08:35:23Z</time>
      </trkpt>
      <trkpt lat="46.64686" lon="5.50551">
        <ele>263</ele>
        <time>2022-03-07T08:35:24Z</time>
      </trkpt>
      <trkpt lat="46.64681" lon="5.50547">
        <ele>263</ele>
        <time>2022-03-07T08:35:25Z</time>
      </trkpt>
      <trkpt lat="46.64676" lon="5.50543">
        <ele>262.8</ele>
        <time>2022-03-07T08:35:26Z</time>
      </trkpt>
      <trkpt lat="46.64671" lon="5.5054">
        <ele>262.8</ele>
        <time>2022-03-07T08:35:27Z</time>
      </trkpt>
      <trkpt lat="46.64666" lon="5.50536">
        <ele>262.8</ele>
        <time>2022-03-07T08:35:28Z</time>
      </trkpt>
      <trkpt lat="46.64661" lon="5.50532">
        <ele>262.4</ele>
        <time>2022-03-07T08:35:29Z</time>
      </trkpt>
      <trkpt lat="46.64656" lon="5.50528">
        <ele>262.4</ele>
        <time>2022-03-07T08:35:30Z</time>
      </trkpt>
      <trkpt lat="46.64651" lon="5.50524">
        <ele>262.2</ele>
        <time>2022-03-07T08:35:31Z</time>
      </trkpt>
      <trkpt lat="46.64646" lon="5.5052">
        <ele>262.2</ele>
        <time>2022-03-07T08:35:32Z</time>
      </trkpt>
      <trkpt lat="46.64641" lon="5.50516">
        <ele>262</ele>
        <time>2022-03-07T08:35:33Z</time>
      </trkpt>
      <trkpt lat="46.64636" lon="5.50512">
        <ele>262</ele>
        <time>2022-03-07T08:35:34Z</time>
      </trkpt>
      <trkpt lat="46.6463" lon="5.50508">
        <ele>261.8</ele>
        <time>2022-03-07T08:35:35Z</time>
      </trkpt>
      <trkpt lat="46.64625" lon="5.50504">
        <ele>261.8</ele>
        <time>2022-03-07T08:35:36Z</time>
      </trkpt>
      <trkpt lat="46.6462" lon="5.505">
        <ele>261.4</ele>
        <time>2022-03-07T08:35:37Z</time>
      </trkpt>
      <trkpt lat="46.64615" lon="5.50496">
        <ele>261.2</ele>
        <time>2022-03-07T08:35:38Z</time>
      </trkpt>
      <trkpt lat="46.64609" lon="5.50491">
        <ele>260.6</ele>
        <time>2022-03-07T08:35:39Z</time>
      </trkpt>
      <trkpt lat="46.64604" lon="5.50487">
        <ele>260.6</ele>
        <time>2022-03-07T08:35:40Z</time>
      </trkpt>
      <trkpt lat="46.64598" lon="5.50483">
        <ele>260.8</ele>
        <time>2022-03-07T08:35:41Z</time>
      </trkpt>
      <trkpt lat="46.64593" lon="5.50479">
        <ele>260.6</ele>
        <time>2022-03-07T08:35:42Z</time>
      </trkpt>
      <trkpt lat="46.64588" lon="5.50474">
        <ele>260.2</ele>
        <time>2022-03-07T08:35:43Z</time>
      </trkpt>
      <trkpt lat="46.64582" lon="5.5047">
        <ele>260.2</ele>
        <time>2022-03-07T08:35:44Z</time>
      </trkpt>
      <trkpt lat="46.64577" lon="5.50466">
        <ele>260</ele>
        <time>2022-03-07T08:35:45Z</time>
      </trkpt>
      <trkpt lat="46.64571" lon="5.50461">
        <ele>260</ele>
        <time>2022-03-07T08:35:46Z</time>
      </trkpt>
      <trkpt lat="46.64566" lon="5.50457">
        <ele>259.8</ele>
        <time>2022-03-07T08:35:47Z</time>
      </trkpt>
      <trkpt lat="46.6456" lon="5.50453">
        <ele>259.8</ele>
        <time>2022-03-07T08:35:48Z</time>
      </trkpt>
      <trkpt lat="46.64554" lon="5.50448">
        <ele>259.4</ele>
        <time>2022-03-07T08:35:49Z</time>
      </trkpt>
      <trkpt lat="46.64549" lon="5.50444">
        <ele>259.4</ele>
        <time>2022-03-07T08:35:50Z</time>
      </trkpt>
      <trkpt lat="46.64543" lon="5.50439">
        <ele>259.2</ele>
        <time>2022-03-07T08:35:51Z</time>
      </trkpt>
      <trkpt lat="46.64537" lon="5.50434">
        <ele>259.2</ele>
        <time>2022-03-07T08:35:52Z</time>
      </trkpt>
      <trkpt lat="46.64531" lon="5.5043">
        <ele>258.8</ele>
        <time>2022-03-07T08:35:53Z</time>
      </trkpt>
      <trkpt lat="46.64525" lon="5.50425">
        <ele>258.8</ele>
        <time>2022-03-07T08:35:54Z</time>
      </trkpt>
      <trkpt lat="46.64519" lon="5.50421">
        <ele>258.4</ele>
        <time>2022-03-07T08:35:55Z</time>
      </trkpt>
      <trkpt lat="46.64512" lon="5.50416">
        <ele>258.4</ele>
        <time>2022-03-07T08:35:56Z</time>
      </trkpt>
      <trkpt lat="46.64506" lon="5.50411">
        <ele>258</ele>
        <time>2022-03-07T08:35:57Z</time>
      </trkpt>
      <trkpt lat="46.645" lon="5.50406">
        <ele>257.8</ele>
        <time>2022-03-07T08:35:58Z</time>
      </trkpt>
      <trkpt lat="46.64494" lon="5.50401">
        <ele>257.6</ele>
        <time>2022-03-07T08:35:59Z</time>
      </trkpt>
      <trkpt lat="46.64488" lon="5.50396">
        <ele>257.6</ele>
        <time>2022-03-07T08:36:00Z</time>
      </trkpt>
      <trkpt lat="46.64481" lon="5.50392">
        <ele>257.2</ele>
        <time>2022-03-07T08:36:01Z</time>
      </trkpt>
      <trkpt lat="46.64475" lon="5.50387">
        <ele>257</ele>
        <time>2022-03-07T08:36:02Z</time>
      </trkpt>
      <trkpt lat="46.64469" lon="5.50382">
        <ele>256.6</ele>
        <time>2022-03-07T08:36:03Z</time>
      </trkpt>
      <trkpt lat="46.64464" lon="5.50377">
        <ele>256.6</ele>
        <time>2022-03-07T08:36:04Z</time>
      </trkpt>
      <trkpt lat="46.64459" lon="5.50372">
        <ele>256.4</ele>
        <time>2022-03-07T08:36:05Z</time>
      </trkpt>
      <trkpt lat="46.64454" lon="5.50366">
        <ele>256.4</ele>
        <time>2022-03-07T08:36:06Z</time>
      </trkpt>
      <trkpt lat="46.64449" lon="5.50359">
        <ele>256.4</ele>
        <time>2022-03-07T08:36:07Z</time>
      </trkpt>
      <trkpt lat="46.64446" lon="5.50351">
        <ele>256.2</ele>
        <time>2022-03-07T08:36:08Z</time>
      </trkpt>
      <trkpt lat="46.64444" lon="5.50342">
        <ele>256.2</ele>
        <time>2022-03-07T08:36:09Z</time>
      </trkpt>
      <trkpt lat="46.6444" lon="5.50334">
        <ele>256.2</ele>
        <time>2022-03-07T08:36:10Z</time>
      </trkpt>
      <trkpt lat="46.64436" lon="5.50328">
        <ele>256.2</ele>
        <time>2022-03-07T08:36:11Z</time>
      </trkpt>
      <trkpt lat="46.64431" lon="5.50324">
        <ele>256.2</ele>
        <time>2022-03-07T08:36:12Z</time>
      </trkpt>
      <trkpt lat="46.64426" lon="5.50322">
        <ele>256.2</ele>
        <time>2022-03-07T08:36:13Z</time>
      </trkpt>
      <trkpt lat="46.6442" lon="5.50323">
        <ele>256.2</ele>
        <time>2022-03-07T08:36:14Z</time>
      </trkpt>
      <trkpt lat="46.64415" lon="5.50326">
        <ele>256.2</ele>
        <time>2022-03-07T08:36:15Z</time>
      </trkpt>
      <trkpt lat="46.64411" lon="5.50331">
        <ele>255.8</ele>
        <time>2022-03-07T08:36:16Z</time>
      </trkpt>
      <trkpt lat="46.64408" lon="5.50338">
        <ele>255.8</ele>
        <time>2022-03-07T08:36:17Z</time>
      </trkpt>
      <trkpt lat="46.64405" lon="5.50345">
        <ele>255.8</ele>
        <time>2022-03-07T08:36:18Z</time>
      </trkpt>
      <trkpt lat="46.64404" lon="5.50354">
        <ele>255.6</ele>
        <time>2022-03-07T08:36:19Z</time>
      </trkpt>
      <trkpt lat="46.64402" lon="5.50363">
        <ele>255.6</ele>
        <time>2022-03-07T08:36:20Z</time>
      </trkpt>
      <trkpt lat="46.644" lon="5.50371">
        <ele>255.6</ele>
        <time>2022-03-07T08:36:21Z</time>
      </trkpt>
      <trkpt lat="46.64396" lon="5.50379">
        <ele>255.6</ele>
        <time>2022-03-07T08:36:22Z</time>
      </trkpt>
      <trkpt lat="46.64392" lon="5.50385">
        <ele>255.6</ele>
        <time>2022-03-07T08:36:23Z</time>
      </trkpt>
      <trkpt lat="46.64388" lon="5.5039">
        <ele>255.6</ele>
        <time>2022-03-07T08:36:24Z</time>
      </trkpt>
      <trkpt lat="46.64384" lon="5.50395">
        <ele>255.6</ele>
        <time>2022-03-07T08:36:25Z</time>
      </trkpt>
      <trkpt lat="46.6438" lon="5.504">
        <ele>255.8</ele>
        <time>2022-03-07T08:36:26Z</time>
      </trkpt>
      <trkpt lat="46.64375" lon="5.50403">
        <ele>256.2</ele>
        <time>2022-03-07T08:36:27Z</time>
      </trkpt>
      <trkpt lat="46.64371" lon="5.50406">
        <ele>256.4</ele>
        <time>2022-03-07T08:36:28Z</time>
      </trkpt>
      <trkpt lat="46.64367" lon="5.50409">
        <ele>256.6</ele>
        <time>2022-03-07T08:36:29Z</time>
      </trkpt>
      <trkpt lat="46.64364" lon="5.50411">
        <ele>256.6</ele>
        <time>2022-03-07T08:36:30Z</time>
      </trkpt>
      <trkpt lat="46.6436" lon="5.50413">
        <ele>257.2</ele>
        <time>2022-03-07T08:36:31Z</time>
      </trkpt>
      <trkpt lat="46.64356" lon="5.50415">
        <ele>257.4</ele>
        <time>2022-03-07T08:36:32Z</time>
      </trkpt>
      <trkpt lat="46.64353" lon="5.50417">
        <ele>257.6</ele>
        <time>2022-03-07T08:36:33Z</time>
      </trkpt>
      <trkpt lat="46.6435" lon="5.50418">
        <ele>257.8</ele>
        <time>2022-03-07T08:36:34Z</time>
      </trkpt>
      <trkpt lat="46.64347" lon="5.5042">
        <ele>257.8</ele>
        <time>2022-03-07T08:36:35Z</time>
      </trkpt>
      <trkpt lat="46.64344" lon="5.50421">
        <ele>258.2</ele>
        <time>2022-03-07T08:36:36Z</time>
      </trkpt>
      <trkpt lat="46.6434" lon="5.50423">
        <ele>258.2</ele>
        <time>2022-03-07T08:36:37Z</time>
      </trkpt>
      <trkpt lat="46.64337" lon="5.50424">
        <ele>258.4</ele>
        <time>2022-03-07T08:36:38Z</time>
      </trkpt>
      <trkpt lat="46.64334" lon="5.50425">
        <ele>258.6</ele>
        <time>2022-03-07T08:36:39Z</time>
      </trkpt>
      <trkpt lat="46.6433" lon="5.50426">
        <ele>258.6</ele>
        <time>2022-03-07T08:36:40Z</time>
      </trkpt>
      <trkpt lat="46.64327" lon="5.50427">
        <ele>259</ele>
        <time>2022-03-07T08:36:41Z</time>
      </trkpt>
      <trkpt lat="46.64323" lon="5.50428">
        <ele>259.4</ele>
        <time>2022-03-07T08:36:42Z</time>
      </trkpt>
      <trkpt lat="46.6432" lon="5.50429">
        <ele>259.4</ele>
        <time>2022-03-07T08:36:43Z</time>
      </trkpt>
      <trkpt lat="46.64316" lon="5.5043">
        <ele>259.8</ele>
        <time>2022-03-07T08:36:44Z</time>
      </trkpt>
      <trkpt lat="46.64312" lon="5.5043">
        <ele>260</ele>
        <time>2022-03-07T08:36:45Z</time>
      </trkpt>
      <trkpt lat="46.64309" lon="5.50431">
        <ele>260.2</ele>
        <time>2022-03-07T08:36:46Z</time>
      </trkpt>
      <trkpt lat="46.64305" lon="5.50431">
        <ele>260.6</ele>
        <time>2022-03-07T08:36:47Z</time>
      </trkpt>
      <trkpt lat="46.64302" lon="5.50431">
        <ele>260.8</ele>
        <time>2022-03-07T08:36:48Z</time>
      </trkpt>
      <trkpt lat="46.64298" lon="5.50431">
        <ele>261.2</ele>
        <time>2022-03-07T08:36:49Z</time>
      </trkpt>
      <trkpt lat="46.64294" lon="5.5043">
        <ele>261.2</ele>
        <time>2022-03-07T08:36:50Z</time>
      </trkpt>
      <trkpt lat="46.64291" lon="5.5043">
        <ele>261.6</ele>
        <time>2022-03-07T08:36:51Z</time>
      </trkpt>
      <trkpt lat="46.64287" lon="5.5043">
        <ele>261.8</ele>
        <time>2022-03-07T08:36:52Z</time>
      </trkpt>
      <trkpt lat="46.64284" lon="5.50429">
        <ele>262</ele>
        <time>2022-03-07T08:36:53Z</time>
      </trkpt>
      <trkpt lat="46.64281" lon="5.50428">
        <ele>262.4</ele>
        <time>2022-03-07T08:36:54Z</time>
      </trkpt>
      <trkpt lat="46.64278" lon="5.50427">
        <ele>262.6</ele>
        <time>2022-03-07T08:36:55Z</time>
      </trkpt>
      <trkpt lat="46.64275" lon="5.50426">
        <ele>262.6</ele>
        <time>2022-03-07T08:36:56Z</time>
      </trkpt>
      <trkpt lat="46.64272" lon="5.50424">
        <ele>263</ele>
        <time>2022-03-07T08:36:57Z</time>
      </trkpt>
      <trkpt lat="46.64268" lon="5.50424">
        <ele>263</ele>
        <time>2022-03-07T08:36:58Z</time>
      </trkpt>
      <trkpt lat="46.64265" lon="5.50423">
        <ele>263.4</ele>
        <time>2022-03-07T08:36:59Z</time>
      </trkpt>
      <trkpt lat="46.64262" lon="5.50422">
        <ele>263.6</ele>
        <time>2022-03-07T08:37:00Z</time>
      </trkpt>
      <trkpt lat="46.64258" lon="5.50422">
        <ele>263.8</ele>
        <time>2022-03-07T08:37:01Z</time>
      </trkpt>
      <trkpt lat="46.64255" lon="5.50421">
        <ele>264</ele>
        <time>2022-03-07T08:37:02Z</time>
      </trkpt>
      <trkpt lat="46.64252" lon="5.50421">
        <ele>264.4</ele>
        <time>2022-03-07T08:37:03Z</time>
      </trkpt>
      <trkpt lat="46.64249" lon="5.5042">
        <ele>264.6</ele>
        <time>2022-03-07T08:37:04Z</time>
      </trkpt>
      <trkpt lat="46.64246" lon="5.5042">
        <ele>264.8</ele>
        <time>2022-03-07T08:37:05Z</time>
      </trkpt>
      <trkpt lat="46.64244" lon="5.5042">
        <ele>264.8</ele>
        <time>2022-03-07T08:37:06Z</time>
      </trkpt>
      <trkpt lat="46.64241" lon="5.5042">
        <ele>265.2</ele>
        <time>2022-03-07T08:37:07Z</time>
      </trkpt>
      <trkpt lat="46.64238" lon="5.5042">
        <ele>265.2</ele>
        <time>2022-03-07T08:37:08Z</time>
      </trkpt>
      <trkpt lat="46.64235" lon="5.50421">
        <ele>265.6</ele>
        <time>2022-03-07T08:37:09Z</time>
      </trkpt>
      <trkpt lat="46.64232" lon="5.50422">
        <ele>265.8</ele>
        <time>2022-03-07T08:37:10Z</time>
      </trkpt>
      <trkpt lat="46.64229" lon="5.50423">
        <ele>265.8</ele>
        <time>2022-03-07T08:37:11Z</time>
      </trkpt>
      <trkpt lat="46.64226" lon="5.50425">
        <ele>266.4</ele>
        <time>2022-03-07T08:37:12Z</time>
      </trkpt>
      <trkpt lat="46.64223" lon="5.50427">
        <ele>266.6</ele>
        <time>2022-03-07T08:37:13Z</time>
      </trkpt>
      <trkpt lat="46.6422" lon="5.50429">
        <ele>266.8</ele>
        <time>2022-03-07T08:37:14Z</time>
      </trkpt>
      <trkpt lat="46.64218" lon="5.50431">
        <ele>267</ele>
        <time>2022-03-07T08:37:15Z</time>
      </trkpt>
      <trkpt lat="46.64215" lon="5.50433">
        <ele>267.2</ele>
        <time>2022-03-07T08:37:16Z</time>
      </trkpt>
      <trkpt lat="46.64213" lon="5.50435">
        <ele>267.2</ele>
        <time>2022-03-07T08:37:17Z</time>
      </trkpt>
      <trkpt lat="46.6421" lon="5.50437">
        <ele>267.6</ele>
        <time>2022-03-07T08:37:18Z</time>
      </trkpt>
      <trkpt lat="46.64207" lon="5.50439">
        <ele>267.6</ele>
        <time>2022-03-07T08:37:19Z</time>
      </trkpt>
      <trkpt lat="46.64205" lon="5.50441">
        <ele>268.2</ele>
        <time>2022-03-07T08:37:20Z</time>
      </trkpt>
      <trkpt lat="46.64202" lon="5.50444">
        <ele>268.2</ele>
        <time>2022-03-07T08:37:21Z</time>
      </trkpt>
      <trkpt lat="46.64199" lon="5.50446">
        <ele>268.2</ele>
        <time>2022-03-07T08:37:22Z</time>
      </trkpt>
      <trkpt lat="46.64197" lon="5.50449">
        <ele>268.6</ele>
        <time>2022-03-07T08:37:23Z</time>
      </trkpt>
      <trkpt lat="46.64194" lon="5.50451">
        <ele>268.6</ele>
        <time>2022-03-07T08:37:24Z</time>
      </trkpt>
      <trkpt lat="46.64191" lon="5.50453">
        <ele>268.8</ele>
        <time>2022-03-07T08:37:25Z</time>
      </trkpt>
      <trkpt lat="46.64189" lon="5.50456">
        <ele>268.8</ele>
        <time>2022-03-07T08:37:26Z</time>
      </trkpt>
      <trkpt lat="46.64186" lon="5.50458">
        <ele>269</ele>
        <time>2022-03-07T08:37:27Z</time>
      </trkpt>
      <trkpt lat="46.6418" lon="5.50462">
        <ele>269</ele>
        <time>2022-03-07T08:37:28Z</time>
      </trkpt>
      <trkpt lat="46.64177" lon="5.50465">
        <ele>269</ele>
        <time>2022-03-07T08:37:29Z</time>
      </trkpt>
      <trkpt lat="46.64173" lon="5.50467">
        <ele>269.2</ele>
        <time>2022-03-07T08:37:30Z</time>
      </trkpt>
      <trkpt lat="46.6417" lon="5.5047">
        <ele>269.2</ele>
        <time>2022-03-07T08:37:31Z</time>
      </trkpt>
      <trkpt lat="46.64167" lon="5.50473">
        <ele>269.2</ele>
        <time>2022-03-07T08:37:32Z</time>
      </trkpt>
      <trkpt lat="46.64163" lon="5.50475">
        <ele>269.4</ele>
        <time>2022-03-07T08:37:33Z</time>
      </trkpt>
      <trkpt lat="46.64159" lon="5.50478">
        <ele>269.4</ele>
        <time>2022-03-07T08:37:34Z</time>
      </trkpt>
      <trkpt lat="46.64156" lon="5.50481">
        <ele>269.4</ele>
        <time>2022-03-07T08:37:35Z</time>
      </trkpt>
      <trkpt lat="46.64152" lon="5.50484">
        <ele>269.4</ele>
        <time>2022-03-07T08:37:36Z</time>
      </trkpt>
      <trkpt lat="46.64148" lon="5.50487">
        <ele>269.4</ele>
        <time>2022-03-07T08:37:37Z</time>
      </trkpt>
      <trkpt lat="46.64143" lon="5.50491">
        <ele>269.2</ele>
        <time>2022-03-07T08:37:38Z</time>
      </trkpt>
      <trkpt lat="46.64139" lon="5.50494">
        <ele>269.2</ele>
        <time>2022-03-07T08:37:39Z</time>
      </trkpt>
      <trkpt lat="46.64135" lon="5.50498">
        <ele>269.2</ele>
        <time>2022-03-07T08:37:40Z</time>
      </trkpt>
      <trkpt lat="46.6413" lon="5.50501">
        <ele>269.2</ele>
        <time>2022-03-07T08:37:41Z</time>
      </trkpt>
      <trkpt lat="46.64125" lon="5.50505">
        <ele>269</ele>
        <time>2022-03-07T08:37:42Z</time>
      </trkpt>
      <trkpt lat="46.6412" lon="5.50509">
        <ele>269</ele>
        <time>2022-03-07T08:37:43Z</time>
      </trkpt>
      <trkpt lat="46.64116" lon="5.50513">
        <ele>268.6</ele>
        <time>2022-03-07T08:37:44Z</time>
      </trkpt>
      <trkpt lat="46.64111" lon="5.50516">
        <ele>268.6</ele>
        <time>2022-03-07T08:37:45Z</time>
      </trkpt>
      <trkpt lat="46.64105" lon="5.5052">
        <ele>268.4</ele>
        <time>2022-03-07T08:37:46Z</time>
      </trkpt>
      <trkpt lat="46.641" lon="5.50523">
        <ele>268.4</ele>
        <time>2022-03-07T08:37:47Z</time>
      </trkpt>
      <trkpt lat="46.64094" lon="5.50525">
        <ele>268.2</ele>
        <time>2022-03-07T08:37:48Z</time>
      </trkpt>
      <trkpt lat="46.64088" lon="5.50526">
        <ele>268.2</ele>
        <time>2022-03-07T08:37:49Z</time>
      </trkpt>
      <trkpt lat="46.64083" lon="5.50527">
        <ele>267.8</ele>
        <time>2022-03-07T08:37:50Z</time>
      </trkpt>
      <trkpt lat="46.64077" lon="5.50527">
        <ele>267.8</ele>
        <time>2022-03-07T08:37:51Z</time>
      </trkpt>
      <trkpt lat="46.64071" lon="5.50527">
        <ele>267.6</ele>
        <time>2022-03-07T08:37:52Z</time>
      </trkpt>
      <trkpt lat="46.64065" lon="5.50526">
        <ele>267.6</ele>
        <time>2022-03-07T08:37:53Z</time>
      </trkpt>
      <trkpt lat="46.64059" lon="5.50526">
        <ele>267.2</ele>
        <time>2022-03-07T08:37:54Z</time>
      </trkpt>
      <trkpt lat="46.64053" lon="5.50526">
        <ele>267.2</ele>
        <time>2022-03-07T08:37:55Z</time>
      </trkpt>
      <trkpt lat="46.64047" lon="5.50527">
        <ele>267</ele>
        <time>2022-03-07T08:37:56Z</time>
      </trkpt>
      <trkpt lat="46.64042" lon="5.50529">
        <ele>267</ele>
        <time>2022-03-07T08:37:57Z</time>
      </trkpt>
      <trkpt lat="46.64037" lon="5.50531">
        <ele>267</ele>
        <time>2022-03-07T08:37:58Z</time>
      </trkpt>
      <trkpt lat="46.64032" lon="5.50534">
        <ele>267</ele>
        <time>2022-03-07T08:37:59Z</time>
      </trkpt>
      <trkpt lat="46.64027" lon="5.50537">
        <ele>267</ele>
        <time>2022-03-07T08:38:00Z</time>
      </trkpt>
      <trkpt lat="46.64023" lon="5.5054">
        <ele>267</ele>
        <time>2022-03-07T08:38:01Z</time>
      </trkpt>
      <trkpt lat="46.64019" lon="5.50543">
        <ele>267</ele>
        <time>2022-03-07T08:38:02Z</time>
      </trkpt>
      <trkpt lat="46.64015" lon="5.50546">
        <ele>267</ele>
        <time>2022-03-07T08:38:03Z</time>
      </trkpt>
      <trkpt lat="46.64011" lon="5.50549">
        <ele>267</ele>
        <time>2022-03-07T08:38:04Z</time>
      </trkpt>
      <trkpt lat="46.64011" lon="5.50549">
        <ele>267</ele>
        <time>2022-03-07T08:38:05Z</time>
      </trkpt>
      <trkpt lat="46.64007" lon="5.50553">
        <ele>267</ele>
        <time>2022-03-07T08:38:06Z</time>
      </trkpt>
      <trkpt lat="46.64003" lon="5.50556">
        <ele>267.2</ele>
        <time>2022-03-07T08:38:07Z</time>
      </trkpt>
      <trkpt lat="46.63999" lon="5.50558">
        <ele>267.2</ele>
        <time>2022-03-07T08:38:08Z</time>
      </trkpt>
      <trkpt lat="46.63995" lon="5.5056">
        <ele>267.4</ele>
        <time>2022-03-07T08:38:09Z</time>
      </trkpt>
      <trkpt lat="46.63991" lon="5.50561">
        <ele>267.4</ele>
        <time>2022-03-07T08:38:10Z</time>
      </trkpt>
      <trkpt lat="46.63987" lon="5.50561">
        <ele>267.4</ele>
        <time>2022-03-07T08:38:11Z</time>
      </trkpt>
      <trkpt lat="46.63983" lon="5.50561">
        <ele>267.6</ele>
        <time>2022-03-07T08:38:12Z</time>
      </trkpt>
      <trkpt lat="46.63979" lon="5.5056">
        <ele>267.6</ele>
        <time>2022-03-07T08:38:13Z</time>
      </trkpt>
      <trkpt lat="46.63975" lon="5.50558">
        <ele>267.8</ele>
        <time>2022-03-07T08:38:14Z</time>
      </trkpt>
      <trkpt lat="46.63971" lon="5.50557">
        <ele>267.8</ele>
        <time>2022-03-07T08:38:15Z</time>
      </trkpt>
      <trkpt lat="46.63967" lon="5.50555">
        <ele>267.8</ele>
        <time>2022-03-07T08:38:16Z</time>
      </trkpt>
      <trkpt lat="46.63963" lon="5.50553">
        <ele>268.2</ele>
        <time>2022-03-07T08:38:17Z</time>
      </trkpt>
      <trkpt lat="46.63959" lon="5.50552">
        <ele>268.2</ele>
        <time>2022-03-07T08:38:18Z</time>
      </trkpt>
      <trkpt lat="46.63955" lon="5.5055">
        <ele>268.4</ele>
        <time>2022-03-07T08:38:19Z</time>
      </trkpt>
      <trkpt lat="46.63951" lon="5.50549">
        <ele>268.4</ele>
        <time>2022-03-07T08:38:20Z</time>
      </trkpt>
      <trkpt lat="46.63947" lon="5.50548">
        <ele>268.6</ele>
        <time>2022-03-07T08:38:21Z</time>
      </trkpt>
      <trkpt lat="46.63943" lon="5.50546">
        <ele>268.6</ele>
        <time>2022-03-07T08:38:22Z</time>
      </trkpt>
      <trkpt lat="46.63939" lon="5.50545">
        <ele>268.8</ele>
        <time>2022-03-07T08:38:23Z</time>
      </trkpt>
      <trkpt lat="46.63935" lon="5.50543">
        <ele>268.8</ele>
        <time>2022-03-07T08:38:24Z</time>
      </trkpt>
      <trkpt lat="46.63931" lon="5.50542">
        <ele>268.8</ele>
        <time>2022-03-07T08:38:25Z</time>
      </trkpt>
      <trkpt lat="46.63927" lon="5.5054">
        <ele>268.8</ele>
        <time>2022-03-07T08:38:26Z</time>
      </trkpt>
      <trkpt lat="46.63923" lon="5.50539">
        <ele>269.2</ele>
        <time>2022-03-07T08:38:27Z</time>
      </trkpt>
      <trkpt lat="46.63919" lon="5.50538">
        <ele>269.2</ele>
        <time>2022-03-07T08:38:28Z</time>
      </trkpt>
      <trkpt lat="46.63915" lon="5.50537">
        <ele>269.4</ele>
        <time>2022-03-07T08:38:29Z</time>
      </trkpt>
      <trkpt lat="46.63908" lon="5.50534">
        <ele>269.4</ele>
        <time>2022-03-07T08:38:30Z</time>
      </trkpt>
      <trkpt lat="46.63904" lon="5.50533">
        <ele>269.4</ele>
        <time>2022-03-07T08:38:31Z</time>
      </trkpt>
      <trkpt lat="46.639" lon="5.50532">
        <ele>269.4</ele>
        <time>2022-03-07T08:38:32Z</time>
      </trkpt>
      <trkpt lat="46.63896" lon="5.5053">
        <ele>269.6</ele>
        <time>2022-03-07T08:38:33Z</time>
      </trkpt>
      <trkpt lat="46.63892" lon="5.50529">
        <ele>269.6</ele>
        <time>2022-03-07T08:38:34Z</time>
      </trkpt>
      <trkpt lat="46.63888" lon="5.50527">
        <ele>269.6</ele>
        <time>2022-03-07T08:38:35Z</time>
      </trkpt>
      <trkpt lat="46.63884" lon="5.50526">
        <ele>269.8</ele>
        <time>2022-03-07T08:38:36Z</time>
      </trkpt>
      <trkpt lat="46.63879" lon="5.50525">
        <ele>269.8</ele>
        <time>2022-03-07T08:38:37Z</time>
      </trkpt>
      <trkpt lat="46.63875" lon="5.50523">
        <ele>269.8</ele>
        <time>2022-03-07T08:38:38Z</time>
      </trkpt>
      <trkpt lat="46.63872" lon="5.50522">
        <ele>270.2</ele>
        <time>2022-03-07T08:38:39Z</time>
      </trkpt>
      <trkpt lat="46.63868" lon="5.5052">
        <ele>270.2</ele>
        <time>2022-03-07T08:38:40Z</time>
      </trkpt>
      <trkpt lat="46.63865" lon="5.50519">
        <ele>270.2</ele>
        <time>2022-03-07T08:38:41Z</time>
      </trkpt>
      <trkpt lat="46.63861" lon="5.50518">
        <ele>270.4</ele>
        <time>2022-03-07T08:38:42Z</time>
      </trkpt>
      <trkpt lat="46.63857" lon="5.50517">
        <ele>270.4</ele>
        <time>2022-03-07T08:38:43Z</time>
      </trkpt>
      <trkpt lat="46.63854" lon="5.50515">
        <ele>270.4</ele>
        <time>2022-03-07T08:38:44Z</time>
      </trkpt>
      <trkpt lat="46.6385" lon="5.50514">
        <ele>270.6</ele>
        <time>2022-03-07T08:38:45Z</time>
      </trkpt>
      <trkpt lat="46.63846" lon="5.50512">
        <ele>271</ele>
        <time>2022-03-07T08:38:46Z</time>
      </trkpt>
      <trkpt lat="46.63842" lon="5.50511">
        <ele>271</ele>
        <time>2022-03-07T08:38:47Z</time>
      </trkpt>
      <trkpt lat="46.63839" lon="5.5051">
        <ele>271.2</ele>
        <time>2022-03-07T08:38:48Z</time>
      </trkpt>
      <trkpt lat="46.63835" lon="5.50509">
        <ele>271.2</ele>
        <time>2022-03-07T08:38:49Z</time>
      </trkpt>
      <trkpt lat="46.63831" lon="5.50507">
        <ele>271.6</ele>
        <time>2022-03-07T08:38:50Z</time>
      </trkpt>
      <trkpt lat="46.63827" lon="5.50505">
        <ele>271.6</ele>
        <time>2022-03-07T08:38:51Z</time>
      </trkpt>
      <trkpt lat="46.63823" lon="5.50504">
        <ele>271.6</ele>
        <time>2022-03-07T08:38:52Z</time>
      </trkpt>
      <trkpt lat="46.6382" lon="5.50503">
        <ele>271.8</ele>
        <time>2022-03-07T08:38:53Z</time>
      </trkpt>
      <trkpt lat="46.63816" lon="5.50501">
        <ele>271.8</ele>
        <time>2022-03-07T08:38:54Z</time>
      </trkpt>
      <trkpt lat="46.63813" lon="5.505">
        <ele>272.2</ele>
        <time>2022-03-07T08:38:55Z</time>
      </trkpt>
      <trkpt lat="46.63809" lon="5.50499">
        <ele>272.2</ele>
        <time>2022-03-07T08:38:56Z</time>
      </trkpt>
      <trkpt lat="46.63805" lon="5.50497">
        <ele>272.2</ele>
        <time>2022-03-07T08:38:57Z</time>
      </trkpt>
      <trkpt lat="46.63802" lon="5.50496">
        <ele>272.4</ele>
        <time>2022-03-07T08:38:58Z</time>
      </trkpt>
      <trkpt lat="46.63798" lon="5.50494">
        <ele>272.4</ele>
        <time>2022-03-07T08:38:59Z</time>
      </trkpt>
      <trkpt lat="46.63795" lon="5.50493">
        <ele>272.8</ele>
        <time>2022-03-07T08:39:00Z</time>
      </trkpt>
      <trkpt lat="46.63791" lon="5.50492">
        <ele>272.8</ele>
        <time>2022-03-07T08:39:01Z</time>
      </trkpt>
      <trkpt lat="46.63788" lon="5.50491">
        <ele>273</ele>
        <time>2022-03-07T08:39:02Z</time>
      </trkpt>
      <trkpt lat="46.63785" lon="5.5049">
        <ele>273</ele>
        <time>2022-03-07T08:39:03Z</time>
      </trkpt>
      <trkpt lat="46.63782" lon="5.50489">
        <ele>273.2</ele>
        <time>2022-03-07T08:39:04Z</time>
      </trkpt>
      <trkpt lat="46.63778" lon="5.50488">
        <ele>273.2</ele>
        <time>2022-03-07T08:39:05Z</time>
      </trkpt>
      <trkpt lat="46.63775" lon="5.50487">
        <ele>273.4</ele>
        <time>2022-03-07T08:39:06Z</time>
      </trkpt>
      <trkpt lat="46.63772" lon="5.50487">
        <ele>273.6</ele>
        <time>2022-03-07T08:39:07Z</time>
      </trkpt>
      <trkpt lat="46.63768" lon="5.50487">
        <ele>273.6</ele>
        <time>2022-03-07T08:39:08Z</time>
      </trkpt>
      <trkpt lat="46.63765" lon="5.50489">
        <ele>274</ele>
        <time>2022-03-07T08:39:09Z</time>
      </trkpt>
      <trkpt lat="46.63762" lon="5.50492">
        <ele>274</ele>
        <time>2022-03-07T08:39:10Z</time>
      </trkpt>
      <trkpt lat="46.6376" lon="5.50496">
        <ele>274.2</ele>
        <time>2022-03-07T08:39:11Z</time>
      </trkpt>
      <trkpt lat="46.63758" lon="5.505">
        <ele>274.2</ele>
        <time>2022-03-07T08:39:12Z</time>
      </trkpt>
      <trkpt lat="46.63756" lon="5.50504">
        <ele>274.4</ele>
        <time>2022-03-07T08:39:13Z</time>
      </trkpt>
      <trkpt lat="46.63754" lon="5.50508">
        <ele>274.4</ele>
        <time>2022-03-07T08:39:14Z</time>
      </trkpt>
      <trkpt lat="46.63753" lon="5.50512">
        <ele>274.8</ele>
        <time>2022-03-07T08:39:15Z</time>
      </trkpt>
      <trkpt lat="46.63752" lon="5.50517">
        <ele>274.8</ele>
        <time>2022-03-07T08:39:16Z</time>
      </trkpt>
      <trkpt lat="46.6375" lon="5.50522">
        <ele>275</ele>
        <time>2022-03-07T08:39:17Z</time>
      </trkpt>
      <trkpt lat="46.63749" lon="5.50526">
        <ele>275</ele>
        <time>2022-03-07T08:39:18Z</time>
      </trkpt>
      <trkpt lat="46.63748" lon="5.50531">
        <ele>275</ele>
        <time>2022-03-07T08:39:19Z</time>
      </trkpt>
      <trkpt lat="46.63746" lon="5.50535">
        <ele>275.2</ele>
        <time>2022-03-07T08:39:20Z</time>
      </trkpt>
      <trkpt lat="46.63745" lon="5.50539">
        <ele>275.4</ele>
        <time>2022-03-07T08:39:21Z</time>
      </trkpt>
      <trkpt lat="46.63743" lon="5.50544">
        <ele>275.4</ele>
        <time>2022-03-07T08:39:22Z</time>
      </trkpt>
      <trkpt lat="46.63741" lon="5.50548">
        <ele>275.8</ele>
        <time>2022-03-07T08:39:23Z</time>
      </trkpt>
      <trkpt lat="46.6374" lon="5.50552">
        <ele>275.8</ele>
        <time>2022-03-07T08:39:24Z</time>
      </trkpt>
      <trkpt lat="46.63738" lon="5.50556">
        <ele>276</ele>
        <time>2022-03-07T08:39:25Z</time>
      </trkpt>
      <trkpt lat="46.63736" lon="5.50561">
        <ele>276</ele>
        <time>2022-03-07T08:39:26Z</time>
      </trkpt>
      <trkpt lat="46.63734" lon="5.50565">
        <ele>276</ele>
        <time>2022-03-07T08:39:27Z</time>
      </trkpt>
      <trkpt lat="46.63733" lon="5.5057">
        <ele>276.2</ele>
        <time>2022-03-07T08:39:28Z</time>
      </trkpt>
      <trkpt lat="46.63732" lon="5.50575">
        <ele>276.2</ele>
        <time>2022-03-07T08:39:29Z</time>
      </trkpt>
      <trkpt lat="46.63731" lon="5.5058">
        <ele>276.2</ele>
        <time>2022-03-07T08:39:30Z</time>
      </trkpt>
      <trkpt lat="46.6373" lon="5.50585">
        <ele>276.2</ele>
        <time>2022-03-07T08:39:31Z</time>
      </trkpt>
      <trkpt lat="46.63729" lon="5.5059">
        <ele>276.2</ele>
        <time>2022-03-07T08:39:32Z</time>
      </trkpt>
      <trkpt lat="46.63728" lon="5.50595">
        <ele>276.4</ele>
        <time>2022-03-07T08:39:33Z</time>
      </trkpt>
      <trkpt lat="46.63728" lon="5.506">
        <ele>276.4</ele>
        <time>2022-03-07T08:39:34Z</time>
      </trkpt>
      <trkpt lat="46.63727" lon="5.50606">
        <ele>276.8</ele>
        <time>2022-03-07T08:39:35Z</time>
      </trkpt>
      <trkpt lat="46.63726" lon="5.50611">
        <ele>276.8</ele>
        <time>2022-03-07T08:39:36Z</time>
      </trkpt>
      <trkpt lat="46.63725" lon="5.50616">
        <ele>276.8</ele>
        <time>2022-03-07T08:39:37Z</time>
      </trkpt>
      <trkpt lat="46.63723" lon="5.50621">
        <ele>276.8</ele>
        <time>2022-03-07T08:39:38Z</time>
      </trkpt>
      <trkpt lat="46.63722" lon="5.50626">
        <ele>277</ele>
        <time>2022-03-07T08:39:39Z</time>
      </trkpt>
      <trkpt lat="46.6372" lon="5.50631">
        <ele>277</ele>
        <time>2022-03-07T08:39:40Z</time>
      </trkpt>
      <trkpt lat="46.63719" lon="5.50636">
        <ele>277</ele>
        <time>2022-03-07T08:39:41Z</time>
      </trkpt>
      <trkpt lat="46.63718" lon="5.50641">
        <ele>277.4</ele>
        <time>2022-03-07T08:39:42Z</time>
      </trkpt>
      <trkpt lat="46.63716" lon="5.50645">
        <ele>277.4</ele>
        <time>2022-03-07T08:39:43Z</time>
      </trkpt>
      <trkpt lat="46.63714" lon="5.50649">
        <ele>277.6</ele>
        <time>2022-03-07T08:39:44Z</time>
      </trkpt>
      <trkpt lat="46.63712" lon="5.50652">
        <ele>277.6</ele>
        <time>2022-03-07T08:39:45Z</time>
      </trkpt>
      <trkpt lat="46.63709" lon="5.50656">
        <ele>277.8</ele>
        <time>2022-03-07T08:39:46Z</time>
      </trkpt>
      <trkpt lat="46.63707" lon="5.50659">
        <ele>278.2</ele>
        <time>2022-03-07T08:39:47Z</time>
      </trkpt>
      <trkpt lat="46.63706" lon="5.50662">
        <ele>278.2</ele>
        <time>2022-03-07T08:39:48Z</time>
      </trkpt>
      <trkpt lat="46.63704" lon="5.50665">
        <ele>278.4</ele>
        <time>2022-03-07T08:39:49Z</time>
      </trkpt>
      <trkpt lat="46.63702" lon="5.50667">
        <ele>278.4</ele>
        <time>2022-03-07T08:39:50Z</time>
      </trkpt>
      <trkpt lat="46.63701" lon="5.50668">
        <ele>278.8</ele>
        <time>2022-03-07T08:39:51Z</time>
      </trkpt>
      <trkpt lat="46.63699" lon="5.50669">
        <ele>278.8</ele>
        <time>2022-03-07T08:39:52Z</time>
      </trkpt>
      <trkpt lat="46.63697" lon="5.50669">
        <ele>279</ele>
        <time>2022-03-07T08:39:53Z</time>
      </trkpt>
      <trkpt lat="46.63694" lon="5.50667">
        <ele>279</ele>
        <time>2022-03-07T08:39:54Z</time>
      </trkpt>
      <trkpt lat="46.63691" lon="5.50665">
        <ele>279</ele>
        <time>2022-03-07T08:39:55Z</time>
      </trkpt>
      <trkpt lat="46.63687" lon="5.50663">
        <ele>279</ele>
        <time>2022-03-07T08:39:56Z</time>
      </trkpt>
      <trkpt lat="46.63684" lon="5.5066">
        <ele>279</ele>
        <time>2022-03-07T08:39:57Z</time>
      </trkpt>
      <trkpt lat="46.6368" lon="5.50658">
        <ele>279</ele>
        <time>2022-03-07T08:39:58Z</time>
      </trkpt>
      <trkpt lat="46.63677" lon="5.50657">
        <ele>279</ele>
        <time>2022-03-07T08:39:59Z</time>
      </trkpt>
      <trkpt lat="46.63674" lon="5.50655">
        <ele>279</ele>
        <time>2022-03-07T08:40:00Z</time>
      </trkpt>
      <trkpt lat="46.6367" lon="5.50654">
        <ele>279</ele>
        <time>2022-03-07T08:40:01Z</time>
      </trkpt>
      <trkpt lat="46.63667" lon="5.50652">
        <ele>279.2</ele>
        <time>2022-03-07T08:40:02Z</time>
      </trkpt>
      <trkpt lat="46.63663" lon="5.50651">
        <ele>279.2</ele>
        <time>2022-03-07T08:40:03Z</time>
      </trkpt>
      <trkpt lat="46.63659" lon="5.50649">
        <ele>279.2</ele>
        <time>2022-03-07T08:40:04Z</time>
      </trkpt>
      <trkpt lat="46.63655" lon="5.50647">
        <ele>279.2</ele>
        <time>2022-03-07T08:40:05Z</time>
      </trkpt>
      <trkpt lat="46.63651" lon="5.50646">
        <ele>279.2</ele>
        <time>2022-03-07T08:40:06Z</time>
      </trkpt>
      <trkpt lat="46.63646" lon="5.50644">
        <ele>279.2</ele>
        <time>2022-03-07T08:40:07Z</time>
      </trkpt>
      <trkpt lat="46.63643" lon="5.50642">
        <ele>279.2</ele>
        <time>2022-03-07T08:40:08Z</time>
      </trkpt>
      <trkpt lat="46.63639" lon="5.5064">
        <ele>279.2</ele>
        <time>2022-03-07T08:40:09Z</time>
      </trkpt>
      <trkpt lat="46.63634" lon="5.50637">
        <ele>279.2</ele>
        <time>2022-03-07T08:40:10Z</time>
      </trkpt>
      <trkpt lat="46.6363" lon="5.50635">
        <ele>279.2</ele>
        <time>2022-03-07T08:40:11Z</time>
      </trkpt>
      <trkpt lat="46.63626" lon="5.50632">
        <ele>279</ele>
        <time>2022-03-07T08:40:12Z</time>
      </trkpt>
      <trkpt lat="46.63622" lon="5.5063">
        <ele>279</ele>
        <time>2022-03-07T08:40:13Z</time>
      </trkpt>
      <trkpt lat="46.63618" lon="5.50627">
        <ele>279</ele>
        <time>2022-03-07T08:40:14Z</time>
      </trkpt>
      <trkpt lat="46.63614" lon="5.50624">
        <ele>279</ele>
        <time>2022-03-07T08:40:15Z</time>
      </trkpt>
      <trkpt lat="46.6361" lon="5.50622">
        <ele>278.8</ele>
        <time>2022-03-07T08:40:16Z</time>
      </trkpt>
      <trkpt lat="46.63607" lon="5.50619">
        <ele>278.8</ele>
        <time>2022-03-07T08:40:17Z</time>
      </trkpt>
      <trkpt lat="46.63604" lon="5.50617">
        <ele>278.8</ele>
        <time>2022-03-07T08:40:18Z</time>
      </trkpt>
      <trkpt lat="46.63601" lon="5.50615">
        <ele>278.8</ele>
        <time>2022-03-07T08:40:19Z</time>
      </trkpt>
      <trkpt lat="46.63599" lon="5.50613">
        <ele>278.8</ele>
        <time>2022-03-07T08:40:20Z</time>
      </trkpt>
      <trkpt lat="46.63597" lon="5.50611">
        <ele>278.8</ele>
        <time>2022-03-07T08:40:21Z</time>
      </trkpt>
      <trkpt lat="46.63594" lon="5.50609">
        <ele>278.6</ele>
        <time>2022-03-07T08:40:22Z</time>
      </trkpt>
      <trkpt lat="46.6359" lon="5.50607">
        <ele>278.6</ele>
        <time>2022-03-07T08:40:23Z</time>
      </trkpt>
      <trkpt lat="46.63587" lon="5.50605">
        <ele>278.2</ele>
        <time>2022-03-07T08:40:24Z</time>
      </trkpt>
      <trkpt lat="46.63583" lon="5.50603">
        <ele>278.2</ele>
        <time>2022-03-07T08:40:25Z</time>
      </trkpt>
      <trkpt lat="46.6358" lon="5.50601">
        <ele>278.2</ele>
        <time>2022-03-07T08:40:26Z</time>
      </trkpt>
      <trkpt lat="46.63576" lon="5.50599">
        <ele>278</ele>
        <time>2022-03-07T08:40:27Z</time>
      </trkpt>
      <trkpt lat="46.63572" lon="5.50596">
        <ele>278</ele>
        <time>2022-03-07T08:40:28Z</time>
      </trkpt>
      <trkpt lat="46.63568" lon="5.50593">
        <ele>277.6</ele>
        <time>2022-03-07T08:40:29Z</time>
      </trkpt>
      <trkpt lat="46.63564" lon="5.5059">
        <ele>277.6</ele>
        <time>2022-03-07T08:40:30Z</time>
      </trkpt>
      <trkpt lat="46.63559" lon="5.50586">
        <ele>277.4</ele>
        <time>2022-03-07T08:40:31Z</time>
      </trkpt>
      <trkpt lat="46.63555" lon="5.50583">
        <ele>277.4</ele>
        <time>2022-03-07T08:40:32Z</time>
      </trkpt>
      <trkpt lat="46.63551" lon="5.5058">
        <ele>277.4</ele>
        <time>2022-03-07T08:40:33Z</time>
      </trkpt>
      <trkpt lat="46.63546" lon="5.50577">
        <ele>277.2</ele>
        <time>2022-03-07T08:40:34Z</time>
      </trkpt>
      <trkpt lat="46.63541" lon="5.50574">
        <ele>277.2</ele>
        <time>2022-03-07T08:40:35Z</time>
      </trkpt>
      <trkpt lat="46.63536" lon="5.5057">
        <ele>276.8</ele>
        <time>2022-03-07T08:40:36Z</time>
      </trkpt>
      <trkpt lat="46.63531" lon="5.50566">
        <ele>276.8</ele>
        <time>2022-03-07T08:40:37Z</time>
      </trkpt>
      <trkpt lat="46.63526" lon="5.50563">
        <ele>276.6</ele>
        <time>2022-03-07T08:40:38Z</time>
      </trkpt>
      <trkpt lat="46.63521" lon="5.50559">
        <ele>276.6</ele>
        <time>2022-03-07T08:40:39Z</time>
      </trkpt>
      <trkpt lat="46.63515" lon="5.50556">
        <ele>276.2</ele>
        <time>2022-03-07T08:40:40Z</time>
      </trkpt>
      <trkpt lat="46.6351" lon="5.50552">
        <ele>276.2</ele>
        <time>2022-03-07T08:40:41Z</time>
      </trkpt>
      <trkpt lat="46.63504" lon="5.50549">
        <ele>275.8</ele>
        <time>2022-03-07T08:40:42Z</time>
      </trkpt>
      <trkpt lat="46.63499" lon="5.50545">
        <ele>275.4</ele>
        <time>2022-03-07T08:40:43Z</time>
      </trkpt>
      <trkpt lat="46.63494" lon="5.50541">
        <ele>275.2</ele>
        <time>2022-03-07T08:40:44Z</time>
      </trkpt>
      <trkpt lat="46.63488" lon="5.50537">
        <ele>275.2</ele>
        <time>2022-03-07T08:40:45Z</time>
      </trkpt>
      <trkpt lat="46.63483" lon="5.50533">
        <ele>274.8</ele>
        <time>2022-03-07T08:40:46Z</time>
      </trkpt>
      <trkpt lat="46.63478" lon="5.5053">
        <ele>274.8</ele>
        <time>2022-03-07T08:40:47Z</time>
      </trkpt>
      <trkpt lat="46.63472" lon="5.50526">
        <ele>274.4</ele>
        <time>2022-03-07T08:40:48Z</time>
      </trkpt>
      <trkpt lat="46.63467" lon="5.50522">
        <ele>274.4</ele>
        <time>2022-03-07T08:40:49Z</time>
      </trkpt>
      <trkpt lat="46.63461" lon="5.50518">
        <ele>274</ele>
        <time>2022-03-07T08:40:50Z</time>
      </trkpt>
      <trkpt lat="46.63456" lon="5.50514">
        <ele>274</ele>
        <time>2022-03-07T08:40:51Z</time>
      </trkpt>
      <trkpt lat="46.6345" lon="5.5051">
        <ele>273.8</ele>
        <time>2022-03-07T08:40:52Z</time>
      </trkpt>
      <trkpt lat="46.63445" lon="5.50506">
        <ele>273.8</ele>
        <time>2022-03-07T08:40:53Z</time>
      </trkpt>
      <trkpt lat="46.63439" lon="5.50503">
        <ele>273.4</ele>
        <time>2022-03-07T08:40:54Z</time>
      </trkpt>
      <trkpt lat="46.63434" lon="5.50499">
        <ele>273.4</ele>
        <time>2022-03-07T08:40:55Z</time>
      </trkpt>
      <trkpt lat="46.63428" lon="5.50496">
        <ele>273.2</ele>
        <time>2022-03-07T08:40:56Z</time>
      </trkpt>
      <trkpt lat="46.63423" lon="5.50493">
        <ele>273.2</ele>
        <time>2022-03-07T08:40:57Z</time>
      </trkpt>
      <trkpt lat="46.63417" lon="5.50489">
        <ele>272.8</ele>
        <time>2022-03-07T08:40:58Z</time>
      </trkpt>
      <trkpt lat="46.63412" lon="5.50486">
        <ele>272.8</ele>
        <time>2022-03-07T08:40:59Z</time>
      </trkpt>
      <trkpt lat="46.63406" lon="5.50483">
        <ele>272.6</ele>
        <time>2022-03-07T08:41:00Z</time>
      </trkpt>
      <trkpt lat="46.63401" lon="5.5048">
        <ele>272.6</ele>
        <time>2022-03-07T08:41:01Z</time>
      </trkpt>
      <trkpt lat="46.63395" lon="5.50477">
        <ele>272.4</ele>
        <time>2022-03-07T08:41:02Z</time>
      </trkpt>
      <trkpt lat="46.6339" lon="5.50474">
        <ele>272</ele>
        <time>2022-03-07T08:41:03Z</time>
      </trkpt>
      <trkpt lat="46.63384" lon="5.50471">
        <ele>272</ele>
        <time>2022-03-07T08:41:04Z</time>
      </trkpt>
      <trkpt lat="46.63379" lon="5.50468">
        <ele>271.8</ele>
        <time>2022-03-07T08:41:05Z</time>
      </trkpt>
      <trkpt lat="46.63373" lon="5.50465">
        <ele>271.8</ele>
        <time>2022-03-07T08:41:06Z</time>
      </trkpt>
      <trkpt lat="46.63368" lon="5.50461">
        <ele>271.8</ele>
        <time>2022-03-07T08:41:07Z</time>
      </trkpt>
      <trkpt lat="46.63363" lon="5.50458">
        <ele>271.8</ele>
        <time>2022-03-07T08:41:08Z</time>
      </trkpt>
      <trkpt lat="46.63359" lon="5.50454">
        <ele>271.6</ele>
        <time>2022-03-07T08:41:09Z</time>
      </trkpt>
      <trkpt lat="46.63353" lon="5.50451">
        <ele>271.6</ele>
        <time>2022-03-07T08:41:10Z</time>
      </trkpt>
      <trkpt lat="46.63349" lon="5.50448">
        <ele>271.6</ele>
        <time>2022-03-07T08:41:11Z</time>
      </trkpt>
      <trkpt lat="46.63344" lon="5.50445">
        <ele>271.6</ele>
        <time>2022-03-07T08:41:12Z</time>
      </trkpt>
      <trkpt lat="46.63339" lon="5.50442">
        <ele>271.4</ele>
        <time>2022-03-07T08:41:13Z</time>
      </trkpt>
      <trkpt lat="46.63334" lon="5.50439">
        <ele>271.4</ele>
        <time>2022-03-07T08:41:14Z</time>
      </trkpt>
      <trkpt lat="46.6333" lon="5.50435">
        <ele>271.4</ele>
        <time>2022-03-07T08:41:15Z</time>
      </trkpt>
      <trkpt lat="46.63325" lon="5.50432">
        <ele>271.4</ele>
        <time>2022-03-07T08:41:16Z</time>
      </trkpt>
      <trkpt lat="46.63321" lon="5.50428">
        <ele>271.4</ele>
        <time>2022-03-07T08:41:17Z</time>
      </trkpt>
      <trkpt lat="46.63317" lon="5.50424">
        <ele>271.4</ele>
        <time>2022-03-07T08:41:18Z</time>
      </trkpt>
      <trkpt lat="46.63313" lon="5.50419">
        <ele>271.4</ele>
        <time>2022-03-07T08:41:19Z</time>
      </trkpt>
      <trkpt lat="46.63309" lon="5.50415">
        <ele>271.6</ele>
        <time>2022-03-07T08:41:20Z</time>
      </trkpt>
      <trkpt lat="46.63305" lon="5.50411">
        <ele>271.6</ele>
        <time>2022-03-07T08:41:21Z</time>
      </trkpt>
      <trkpt lat="46.63301" lon="5.50406">
        <ele>271.6</ele>
        <time>2022-03-07T08:41:22Z</time>
      </trkpt>
      <trkpt lat="46.63298" lon="5.50402">
        <ele>272</ele>
        <time>2022-03-07T08:41:23Z</time>
      </trkpt>
      <trkpt lat="46.63295" lon="5.50398">
        <ele>272</ele>
        <time>2022-03-07T08:41:24Z</time>
      </trkpt>
      <trkpt lat="46.63291" lon="5.50394">
        <ele>272</ele>
        <time>2022-03-07T08:41:25Z</time>
      </trkpt>
      <trkpt lat="46.63288" lon="5.5039">
        <ele>272.2</ele>
        <time>2022-03-07T08:41:26Z</time>
      </trkpt>
      <trkpt lat="46.63285" lon="5.50387">
        <ele>272.2</ele>
        <time>2022-03-07T08:41:27Z</time>
      </trkpt>
      <trkpt lat="46.63285" lon="5.50387">
        <ele>272.6</ele>
        <time>2022-03-07T08:41:28Z</time>
      </trkpt>
      <trkpt lat="46.63281" lon="5.50383">
        <ele>272.8</ele>
        <time>2022-03-07T08:41:29Z</time>
      </trkpt>
      <trkpt lat="46.63278" lon="5.5038">
        <ele>272.8</ele>
        <time>2022-03-07T08:41:30Z</time>
      </trkpt>
      <trkpt lat="46.63275" lon="5.50377">
        <ele>273.2</ele>
        <time>2022-03-07T08:41:31Z</time>
      </trkpt>
      <trkpt lat="46.63271" lon="5.50374">
        <ele>273.2</ele>
        <time>2022-03-07T08:41:32Z</time>
      </trkpt>
      <trkpt lat="46.63268" lon="5.50371">
        <ele>273.4</ele>
        <time>2022-03-07T08:41:33Z</time>
      </trkpt>
      <trkpt lat="46.63264" lon="5.50368">
        <ele>273.4</ele>
        <time>2022-03-07T08:41:34Z</time>
      </trkpt>
      <trkpt lat="46.63261" lon="5.50365">
        <ele>273.6</ele>
        <time>2022-03-07T08:41:35Z</time>
      </trkpt>
      <trkpt lat="46.63258" lon="5.50361">
        <ele>273.6</ele>
        <time>2022-03-07T08:41:36Z</time>
      </trkpt>
      <trkpt lat="46.63254" lon="5.50358">
        <ele>273.8</ele>
        <time>2022-03-07T08:41:37Z</time>
      </trkpt>
      <trkpt lat="46.63251" lon="5.50354">
        <ele>273.8</ele>
        <time>2022-03-07T08:41:38Z</time>
      </trkpt>
      <trkpt lat="46.63248" lon="5.50351">
        <ele>273.8</ele>
        <time>2022-03-07T08:41:39Z</time>
      </trkpt>
      <trkpt lat="46.63244" lon="5.50348">
        <ele>274.2</ele>
        <time>2022-03-07T08:41:40Z</time>
      </trkpt>
      <trkpt lat="46.63241" lon="5.50345">
        <ele>274.2</ele>
        <time>2022-03-07T08:41:41Z</time>
      </trkpt>
      <trkpt lat="46.63238" lon="5.50342">
        <ele>274.6</ele>
        <time>2022-03-07T08:41:42Z</time>
      </trkpt>
      <trkpt lat="46.63235" lon="5.50338">
        <ele>274.6</ele>
        <time>2022-03-07T08:41:43Z</time>
      </trkpt>
      <trkpt lat="46.63232" lon="5.50335">
        <ele>274.8</ele>
        <time>2022-03-07T08:41:44Z</time>
      </trkpt>
      <trkpt lat="46.63229" lon="5.50332">
        <ele>274.8</ele>
        <time>2022-03-07T08:41:45Z</time>
      </trkpt>
      <trkpt lat="46.63226" lon="5.50329">
        <ele>275</ele>
        <time>2022-03-07T08:41:46Z</time>
      </trkpt>
      <trkpt lat="46.63223" lon="5.50326">
        <ele>275</ele>
        <time>2022-03-07T08:41:47Z</time>
      </trkpt>
      <trkpt lat="46.6322" lon="5.50323">
        <ele>275</ele>
        <time>2022-03-07T08:41:48Z</time>
      </trkpt>
      <trkpt lat="46.63217" lon="5.5032">
        <ele>275.4</ele>
        <time>2022-03-07T08:41:49Z</time>
      </trkpt>
      <trkpt lat="46.63213" lon="5.50317">
        <ele>275.4</ele>
        <time>2022-03-07T08:41:50Z</time>
      </trkpt>
      <trkpt lat="46.6321" lon="5.50314">
        <ele>275.4</ele>
        <time>2022-03-07T08:41:51Z</time>
      </trkpt>
      <trkpt lat="46.63206" lon="5.50311">
        <ele>275.4</ele>
        <time>2022-03-07T08:41:52Z</time>
      </trkpt>
      <trkpt lat="46.63202" lon="5.50307">
        <ele>275.4</ele>
        <time>2022-03-07T08:41:53Z</time>
      </trkpt>
      <trkpt lat="46.63198" lon="5.50304">
        <ele>275.4</ele>
        <time>2022-03-07T08:41:54Z</time>
      </trkpt>
      <trkpt lat="46.63194" lon="5.50301">
        <ele>275.4</ele>
        <time>2022-03-07T08:41:55Z</time>
      </trkpt>
      <trkpt lat="46.63189" lon="5.50297">
        <ele>275.4</ele>
        <time>2022-03-07T08:41:56Z</time>
      </trkpt>
      <trkpt lat="46.63185" lon="5.50294">
        <ele>275.4</ele>
        <time>2022-03-07T08:41:57Z</time>
      </trkpt>
      <trkpt lat="46.6318" lon="5.50291">
        <ele>275.4</ele>
        <time>2022-03-07T08:41:58Z</time>
      </trkpt>
      <trkpt lat="46.63175" lon="5.50287">
        <ele>275.4</ele>
        <time>2022-03-07T08:41:59Z</time>
      </trkpt>
      <trkpt lat="46.63171" lon="5.50284">
        <ele>275</ele>
        <time>2022-03-07T08:42:00Z</time>
      </trkpt>
      <trkpt lat="46.63167" lon="5.50281">
        <ele>275</ele>
        <time>2022-03-07T08:42:01Z</time>
      </trkpt>
      <trkpt lat="46.63164" lon="5.50279">
        <ele>274.8</ele>
        <time>2022-03-07T08:42:02Z</time>
      </trkpt>
      <trkpt lat="46.63162" lon="5.50278">
        <ele>274.8</ele>
        <time>2022-03-07T08:42:03Z</time>
      </trkpt>
      <trkpt lat="46.63162" lon="5.50278">
        <ele>274.4</ele>
        <time>2022-03-07T08:42:04Z</time>
      </trkpt>
      <trkpt lat="46.63162" lon="5.50278">
        <ele>274.4</ele>
        <time>2022-03-07T08:42:05Z</time>
      </trkpt>
      <trkpt lat="46.63162" lon="5.50278">
        <ele>274.4</ele>
        <time>2022-03-07T08:42:06Z</time>
      </trkpt>
      <trkpt lat="46.63162" lon="5.50278">
        <ele>274.4</ele>
        <time>2022-03-07T08:42:08Z</time>
      </trkpt>
      <trkpt lat="46.63162" lon="5.50278">
        <ele>274.4</ele>
        <time>2022-03-07T08:42:09Z</time>
      </trkpt>
      <trkpt lat="46.63162" lon="5.50278">
        <ele>274.4</ele>
        <time>2022-03-07T08:42:10Z</time>
      </trkpt>
      <trkpt lat="46.63162" lon="5.50278">
        <ele>274.4</ele>
        <time>2022-03-07T08:42:11Z</time>
      </trkpt>
      <trkpt lat="46.63162" lon="5.50278">
        <ele>274.4</ele>
        <time>2022-03-07T08:42:13Z</time>
      </trkpt>
      <trkpt lat="46.63162" lon="5.50278">
        <ele>274.4</ele>
        <time>2022-03-07T08:42:14Z</time>
      </trkpt>
      <trkpt lat="46.63162" lon="5.50278">
        <ele>274.4</ele>
        <time>2022-03-07T08:42:55Z</time>
      </trkpt>
      <trkpt lat="46.63161" lon="5.50278">
        <ele>274.4</ele>
        <time>2022-03-07T08:42:56Z</time>
      </trkpt>
      <trkpt lat="46.63161" lon="5.50278">
        <ele>274.4</ele>
        <time>2022-03-07T08:42:57Z</time>
      </trkpt>
      <trkpt lat="46.63161" lon="5.50278">
        <ele>274.4</ele>
        <time>2022-03-07T08:43:05Z</time>
      </trkpt>
      <trkpt lat="46.63161" lon="5.50278">
        <ele>274.4</ele>
        <time>2022-03-07T08:43:06Z</time>
      </trkpt>
      <trkpt lat="46.63161" lon="5.50278">
        <ele>274.4</ele>
        <time>2022-03-07T08:43:12Z</time>
      </trkpt>
      <trkpt lat="46.63161" lon="5.50278">
        <ele>274.4</ele>
        <time>2022-03-07T08:43:13Z</time>
      </trkpt>
      <trkpt lat="46.63161" lon="5.50278">
        <ele>274.4</ele>
        <time>2022-03-07T08:43:14Z</time>
      </trkpt>
      <trkpt lat="46.63161" lon="5.50278">
        <ele>274.4</ele>
        <time>2022-03-07T08:43:15Z</time>
      </trkpt>
      <trkpt lat="46.63161" lon="5.50278">
        <ele>274.4</ele>
        <time>2022-03-07T08:43:16Z</time>
      </trkpt>
      <trkpt lat="46.63161" lon="5.50278">
        <ele>274.2</ele>
        <time>2022-03-07T08:43:17Z</time>
      </trkpt>
      <trkpt lat="46.63161" lon="5.50278">
        <ele>274.2</ele>
        <time>2022-03-07T08:43:18Z</time>
      </trkpt>
      <trkpt lat="46.63161" lon="5.50278">
        <ele>274.2</ele>
        <time>2022-03-07T08:43:19Z</time>
      </trkpt>
      <trkpt lat="46.63161" lon="5.50278">
        <ele>274</ele>
        <time>2022-03-07T08:46:46Z</time>
      </trkpt>
      <trkpt lat="46.63161" lon="5.50278">
        <ele>274</ele>
        <time>2022-03-07T08:46:47Z</time>
      </trkpt>
      <trkpt lat="46.63161" lon="5.50278">
        <ele>274</ele>
        <time>2022-03-07T08:46:49Z</time>
      </trkpt>
      <trkpt lat="46.63161" lon="5.50278">
        <ele>274</ele>
        <time>2022-03-07T08:46:50Z</time>
      </trkpt>
      <trkpt lat="46.63161" lon="5.50278">
        <ele>274.2</ele>
        <time>2022-03-07T08:50:13Z</time>
      </trkpt>
      <trkpt lat="46.63161" lon="5.50278">
        <ele>274.4</ele>
        <time>2022-03-07T08:50:14Z</time>
      </trkpt>
      <trkpt lat="46.63161" lon="5.50278">
        <ele>274.4</ele>
        <time>2022-03-07T08:50:24Z</time>
      </trkpt>
      <trkpt lat="46.63161" lon="5.50278">
        <ele>274.4</ele>
        <time>2022-03-07T08:50:25Z</time>
      </trkpt>
      <trkpt lat="46.6316" lon="5.50278">
        <ele>274.4</ele>
        <time>2022-03-07T08:50:38Z</time>
      </trkpt>
      <trkpt lat="46.6316" lon="5.50278">
        <ele>274.4</ele>
        <time>2022-03-07T08:50:39Z</time>
      </trkpt>
      <trkpt lat="46.6316" lon="5.50278">
        <ele>274.4</ele>
        <time>2022-03-07T08:50:44Z</time>
      </trkpt>
      <trkpt lat="46.6316" lon="5.50278">
        <ele>274.2</ele>
        <time>2022-03-07T08:50:45Z</time>
      </trkpt>
      <trkpt lat="46.6316" lon="5.50278">
        <ele>274.2</ele>
        <time>2022-03-07T08:50:50Z</time>
      </trkpt>
      <trkpt lat="46.6316" lon="5.50278">
        <ele>274.2</ele>
        <time>2022-03-07T08:50:51Z</time>
      </trkpt>
      <trkpt lat="46.6316" lon="5.50278">
        <ele>274.2</ele>
        <time>2022-03-07T08:50:52Z</time>
      </trkpt>
      <trkpt lat="46.6316" lon="5.50278">
        <ele>274.2</ele>
        <time>2022-03-07T08:50:53Z</time>
      </trkpt>
      <trkpt lat="46.6316" lon="5.50278">
        <ele>274.2</ele>
        <time>2022-03-07T08:51:37Z</time>
      </trkpt>
      <trkpt lat="46.6316" lon="5.50278">
        <ele>274.2</ele>
        <time>2022-03-07T08:51:38Z</time>
      </trkpt>
      <trkpt lat="46.6316" lon="5.50278">
        <ele>274.2</ele>
        <time>2022-03-07T08:51:48Z</time>
      </trkpt>
      <trkpt lat="46.6316" lon="5.50278">
        <ele>274.2</ele>
        <time>2022-03-07T08:51:49Z</time>
      </trkpt>
      <trkpt lat="46.6316" lon="5.50278">
        <ele>274.2</ele>
        <time>2022-03-07T08:51:54Z</time>
      </trkpt>
      <trkpt lat="46.6316" lon="5.50278">
        <ele>274.2</ele>
        <time>2022-03-07T08:51:55Z</time>
      </trkpt>
      <trkpt lat="46.6316" lon="5.50278">
        <ele>274.2</ele>
        <time>2022-03-07T08:51:56Z</time>
      </trkpt>
      <trkpt lat="46.6316" lon="5.50278">
        <ele>274.4</ele>
        <time>2022-03-07T08:52:11Z</time>
      </trkpt>
      <trkpt lat="46.6316" lon="5.50278">
        <ele>274.4</ele>
        <time>2022-03-07T08:52:12Z</time>
      </trkpt>
      <trkpt lat="46.6316" lon="5.50278">
        <ele>274.4</ele>
        <time>2022-03-07T08:52:14Z</time>
      </trkpt>
      <trkpt lat="46.6316" lon="5.50278">
        <ele>274.4</ele>
        <time>2022-03-07T08:52:15Z</time>
      </trkpt>
      <trkpt lat="46.6316" lon="5.50278">
        <ele>274.4</ele>
        <time>2022-03-07T08:52:16Z</time>
      </trkpt>
      <trkpt lat="46.6316" lon="5.50278">
        <ele>274.4</ele>
        <time>2022-03-07T08:52:17Z</time>
      </trkpt>
      <trkpt lat="46.63159" lon="5.50278">
        <ele>274.4</ele>
        <time>2022-03-07T08:52:18Z</time>
      </trkpt>
      <trkpt lat="46.63159" lon="5.50278">
        <ele>274.4</ele>
        <time>2022-03-07T08:52:19Z</time>
      </trkpt>
      <trkpt lat="46.63159" lon="5.50278">
        <ele>274.4</ele>
        <time>2022-03-07T08:52:20Z</time>
      </trkpt>
      <trkpt lat="46.63159" lon="5.50278">
        <ele>274.4</ele>
        <time>2022-03-07T08:52:21Z</time>
      </trkpt>
      <trkpt lat="46.63159" lon="5.50278">
        <ele>274.4</ele>
        <time>2022-03-07T08:52:22Z</time>
      </trkpt>
      <trkpt lat="46.63159" lon="5.50278">
        <ele>274.4</ele>
        <time>2022-03-07T08:52:23Z</time>
      </trkpt>
      <trkpt lat="46.63159" lon="5.50278">
        <ele>274.4</ele>
        <time>2022-03-07T08:52:24Z</time>
      </trkpt>
      <trkpt lat="46.63159" lon="5.50278">
        <ele>274.4</ele>
        <time>2022-03-07T08:52:25Z</time>
      </trkpt>
      <trkpt lat="46.63159" lon="5.50278">
        <ele>274.4</ele>
        <time>2022-03-07T08:52:26Z</time>
      </trkpt>
      <trkpt lat="46.63159" lon="5.50278">
        <ele>274.4</ele>
        <time>2022-03-07T08:52:29Z</time>
      </trkpt>
      <trkpt lat="46.63159" lon="5.50278">
        <ele>274.4</ele>
        <time>2022-03-07T08:52:30Z</time>
      </trkpt>
      <trkpt lat="46.63159" lon="5.50278">
        <ele>274.4</ele>
        <time>2022-03-07T08:52:31Z</time>
      </trkpt>
      <trkpt lat="46.63159" lon="5.50278">
        <ele>274.4</ele>
        <time>2022-03-07T08:52:32Z</time>
      </trkpt>
      <trkpt lat="46.63159" lon="5.50278">
        <ele>274.4</ele>
        <time>2022-03-07T08:52:33Z</time>
      </trkpt>
      <trkpt lat="46.63159" lon="5.50278">
        <ele>274.4</ele>
        <time>2022-03-07T08:52:34Z</time>
      </trkpt>
      <trkpt lat="46.63159" lon="5.50278">
        <ele>274.4</ele>
        <time>2022-03-07T08:52:35Z</time>
      </trkpt>
      <trkpt lat="46.63159" lon="5.50278">
        <ele>274.2</ele>
        <time>2022-03-07T08:52:36Z</time>
      </trkpt>
      <trkpt lat="46.63159" lon="5.50278">
        <ele>274.2</ele>
        <time>2022-03-07T08:52:37Z</time>
      </trkpt>
      <trkpt lat="46.63159" lon="5.50278">
        <ele>274.2</ele>
        <time>2022-03-07T08:52:38Z</time>
      </trkpt>
      <trkpt lat="46.63159" lon="5.50278">
        <ele>274.2</ele>
        <time>2022-03-07T08:52:39Z</time>
      </trkpt>
      <trkpt lat="46.63159" lon="5.50278">
        <ele>274.2</ele>
        <time>2022-03-07T08:52:40Z</time>
      </trkpt>
      <trkpt lat="46.63158" lon="5.50278">
        <ele>274.4</ele>
        <time>2022-03-07T08:52:46Z</time>
      </trkpt>
      <trkpt lat="46.63158" lon="5.50278">
        <ele>274.4</ele>
        <time>2022-03-07T08:52:47Z</time>
      </trkpt>
      <trkpt lat="46.63158" lon="5.50278">
        <ele>274.4</ele>
        <time>2022-03-07T08:52:49Z</time>
      </trkpt>
      <trkpt lat="46.63158" lon="5.50277">
        <ele>274.4</ele>
        <time>2022-03-07T08:52:50Z</time>
      </trkpt>
      <trkpt lat="46.63158" lon="5.50277">
        <ele>274.4</ele>
        <time>2022-03-07T08:52:51Z</time>
      </trkpt>
      <trkpt lat="46.63158" lon="5.50277">
        <ele>274.4</ele>
        <time>2022-03-07T08:52:52Z</time>
      </trkpt>
      <trkpt lat="46.63158" lon="5.50277">
        <ele>274.4</ele>
        <time>2022-03-07T08:52:53Z</time>
      </trkpt>
      <trkpt lat="46.63158" lon="5.50277">
        <ele>274.4</ele>
        <time>2022-03-07T08:52:54Z</time>
      </trkpt>
      <trkpt lat="46.63158" lon="5.50277">
        <ele>274.4</ele>
        <time>2022-03-07T08:53:03Z</time>
      </trkpt>
      <trkpt lat="46.63158" lon="5.50277">
        <ele>274.4</ele>
        <time>2022-03-07T08:53:04Z</time>
      </trkpt>
      <trkpt lat="46.63158" lon="5.50277">
        <ele>274.4</ele>
        <time>2022-03-07T08:54:11Z</time>
      </trkpt>
      <trkpt lat="46.63158" lon="5.50277">
        <ele>274.4</ele>
        <time>2022-03-07T08:54:12Z</time>
      </trkpt>
      <trkpt lat="46.63158" lon="5.50277">
        <ele>274.4</ele>
        <time>2022-03-07T08:54:13Z</time>
      </trkpt>
      <trkpt lat="46.63158" lon="5.50277">
        <ele>274.4</ele>
        <time>2022-03-07T08:54:14Z</time>
      </trkpt>
      <trkpt lat="46.63158" lon="5.50277">
        <ele>274.2</ele>
        <time>2022-03-07T08:54:41Z</time>
      </trkpt>
      <trkpt lat="46.63158" lon="5.50277">
        <ele>274.2</ele>
        <time>2022-03-07T08:54:42Z</time>
      </trkpt>
      <trkpt lat="46.63158" lon="5.50277">
        <ele>274.2</ele>
        <time>2022-03-07T08:54:45Z</time>
      </trkpt>
      <trkpt lat="46.63158" lon="5.50277">
        <ele>274.2</ele>
        <time>2022-03-07T08:54:46Z</time>
      </trkpt>
      <trkpt lat="46.63158" lon="5.50277">
        <ele>274.2</ele>
        <time>2022-03-07T08:55:02Z</time>
      </trkpt>
      <trkpt lat="46.63158" lon="5.50277">
        <ele>274.2</ele>
        <time>2022-03-07T08:55:03Z</time>
      </trkpt>
      <trkpt lat="46.63158" lon="5.50277">
        <ele>274.4</ele>
        <time>2022-03-07T08:55:20Z</time>
      </trkpt>
      <trkpt lat="46.63157" lon="5.50277">
        <ele>274.2</ele>
        <time>2022-03-07T08:55:21Z</time>
      </trkpt>
      <trkpt lat="46.63157" lon="5.50277">
        <ele>274.2</ele>
        <time>2022-03-07T08:55:26Z</time>
      </trkpt>
      <trkpt lat="46.63157" lon="5.50277">
        <ele>274.2</ele>
        <time>2022-03-07T08:55:27Z</time>
      </trkpt>
      <trkpt lat="46.63157" lon="5.50277">
        <ele>274.2</ele>
        <time>2022-03-07T08:55:29Z</time>
      </trkpt>
      <trkpt lat="46.63157" lon="5.50277">
        <ele>274.2</ele>
        <time>2022-03-07T08:55:30Z</time>
      </trkpt>
      <trkpt lat="46.63157" lon="5.50277">
        <ele>274.2</ele>
        <time>2022-03-07T08:55:32Z</time>
      </trkpt>
      <trkpt lat="46.63157" lon="5.50277">
        <ele>274.2</ele>
        <time>2022-03-07T08:55:33Z</time>
      </trkpt>
      <trkpt lat="46.63157" lon="5.50277">
        <ele>274.2</ele>
        <time>2022-03-07T08:55:38Z</time>
      </trkpt>
      <trkpt lat="46.63157" lon="5.50277">
        <ele>274.2</ele>
        <time>2022-03-07T08:55:39Z</time>
      </trkpt>
      <trkpt lat="46.63157" lon="5.50277">
        <ele>274.4</ele>
        <time>2022-03-07T08:55:54Z</time>
      </trkpt>
      <trkpt lat="46.63157" lon="5.50277">
        <ele>274.4</ele>
        <time>2022-03-07T08:55:55Z</time>
      </trkpt>
      <trkpt lat="46.63157" lon="5.50277">
        <ele>274.4</ele>
        <time>2022-03-07T08:55:56Z</time>
      </trkpt>
      <trkpt lat="46.63157" lon="5.50277">
        <ele>274.4</ele>
        <time>2022-03-07T08:55:57Z</time>
      </trkpt>
      <trkpt lat="46.63155" lon="5.50277">
        <ele>274.4</ele>
        <time>2022-03-07T08:55:58Z</time>
      </trkpt>
      <trkpt lat="46.63152" lon="5.50276">
        <ele>274.4</ele>
        <time>2022-03-07T08:55:59Z</time>
      </trkpt>
      <trkpt lat="46.6315" lon="5.50275">
        <ele>274.4</ele>
        <time>2022-03-07T08:56:00Z</time>
      </trkpt>
      <trkpt lat="46.63147" lon="5.50274">
        <ele>274.4</ele>
        <time>2022-03-07T08:56:01Z</time>
      </trkpt>
      <trkpt lat="46.63143" lon="5.50273">
        <ele>274.4</ele>
        <time>2022-03-07T08:56:02Z</time>
      </trkpt>
      <trkpt lat="46.6314" lon="5.50273">
        <ele>274.4</ele>
        <time>2022-03-07T08:56:03Z</time>
      </trkpt>
      <trkpt lat="46.63136" lon="5.50272">
        <ele>274.4</ele>
        <time>2022-03-07T08:56:04Z</time>
      </trkpt>
      <trkpt lat="46.63133" lon="5.50271">
        <ele>274.4</ele>
        <time>2022-03-07T08:56:05Z</time>
      </trkpt>
      <trkpt lat="46.63129" lon="5.50271">
        <ele>274.4</ele>
        <time>2022-03-07T08:56:06Z</time>
      </trkpt>
      <trkpt lat="46.63125" lon="5.5027">
        <ele>274.4</ele>
        <time>2022-03-07T08:56:07Z</time>
      </trkpt>
      <trkpt lat="46.63121" lon="5.50269">
        <ele>274.4</ele>
        <time>2022-03-07T08:56:08Z</time>
      </trkpt>
      <trkpt lat="46.63117" lon="5.50269">
        <ele>274.4</ele>
        <time>2022-03-07T08:56:09Z</time>
      </trkpt>
      <trkpt lat="46.63113" lon="5.50268">
        <ele>274.4</ele>
        <time>2022-03-07T08:56:10Z</time>
      </trkpt>
      <trkpt lat="46.63109" lon="5.50268">
        <ele>274.2</ele>
        <time>2022-03-07T08:56:11Z</time>
      </trkpt>
      <trkpt lat="46.63104" lon="5.50267">
        <ele>274.2</ele>
        <time>2022-03-07T08:56:12Z</time>
      </trkpt>
      <trkpt lat="46.63099" lon="5.50266">
        <ele>274.2</ele>
        <time>2022-03-07T08:56:13Z</time>
      </trkpt>
      <trkpt lat="46.63094" lon="5.50264">
        <ele>274</ele>
        <time>2022-03-07T08:56:14Z</time>
      </trkpt>
      <trkpt lat="46.63089" lon="5.50263">
        <ele>274</ele>
        <time>2022-03-07T08:56:15Z</time>
      </trkpt>
      <trkpt lat="46.63084" lon="5.50262">
        <ele>273.6</ele>
        <time>2022-03-07T08:56:16Z</time>
      </trkpt>
      <trkpt lat="46.63079" lon="5.50261">
        <ele>273.6</ele>
        <time>2022-03-07T08:56:17Z</time>
      </trkpt>
      <trkpt lat="46.63074" lon="5.50259">
        <ele>273.4</ele>
        <time>2022-03-07T08:56:18Z</time>
      </trkpt>
      <trkpt lat="46.63069" lon="5.50258">
        <ele>273.4</ele>
        <time>2022-03-07T08:56:19Z</time>
      </trkpt>
      <trkpt lat="46.63064" lon="5.50257">
        <ele>273.4</ele>
        <time>2022-03-07T08:56:20Z</time>
      </trkpt>
      <trkpt lat="46.63059" lon="5.50255">
        <ele>273.4</ele>
        <time>2022-03-07T08:56:21Z</time>
      </trkpt>
      <trkpt lat="46.63054" lon="5.50253">
        <ele>273.4</ele>
        <time>2022-03-07T08:56:22Z</time>
      </trkpt>
      <trkpt lat="46.6305" lon="5.50251">
        <ele>273.4</ele>
        <time>2022-03-07T08:56:23Z</time>
      </trkpt>
      <trkpt lat="46.63045" lon="5.5025">
        <ele>273.4</ele>
        <time>2022-03-07T08:56:24Z</time>
      </trkpt>
      <trkpt lat="46.63041" lon="5.50248">
        <ele>273.4</ele>
        <time>2022-03-07T08:56:25Z</time>
      </trkpt>
      <trkpt lat="46.63036" lon="5.50247">
        <ele>273.4</ele>
        <time>2022-03-07T08:56:26Z</time>
      </trkpt>
      <trkpt lat="46.63032" lon="5.50245">
        <ele>273.4</ele>
        <time>2022-03-07T08:56:27Z</time>
      </trkpt>
      <trkpt lat="46.63029" lon="5.50244">
        <ele>273.6</ele>
        <time>2022-03-07T08:56:28Z</time>
      </trkpt>
      <trkpt lat="46.63025" lon="5.50243">
        <ele>273.6</ele>
        <time>2022-03-07T08:56:29Z</time>
      </trkpt>
      <trkpt lat="46.63022" lon="5.50241">
        <ele>273.6</ele>
        <time>2022-03-07T08:56:30Z</time>
      </trkpt>
      <trkpt lat="46.63019" lon="5.5024">
        <ele>274</ele>
        <time>2022-03-07T08:56:31Z</time>
      </trkpt>
      <trkpt lat="46.63017" lon="5.50238">
        <ele>274.2</ele>
        <time>2022-03-07T08:56:32Z</time>
      </trkpt>
      <trkpt lat="46.63014" lon="5.50237">
        <ele>274.4</ele>
        <time>2022-03-07T08:56:33Z</time>
      </trkpt>
      <trkpt lat="46.63011" lon="5.50234">
        <ele>274.8</ele>
        <time>2022-03-07T08:56:34Z</time>
      </trkpt>
      <trkpt lat="46.63009" lon="5.50232">
        <ele>275</ele>
        <time>2022-03-07T08:56:35Z</time>
      </trkpt>
      <trkpt lat="46.63006" lon="5.50231">
        <ele>275.2</ele>
        <time>2022-03-07T08:56:36Z</time>
      </trkpt>
      <trkpt lat="46.63004" lon="5.50229">
        <ele>275.6</ele>
        <time>2022-03-07T08:56:37Z</time>
      </trkpt>
      <trkpt lat="46.63001" lon="5.50227">
        <ele>276</ele>
        <time>2022-03-07T08:56:38Z</time>
      </trkpt>
      <trkpt lat="46.62999" lon="5.50226">
        <ele>276.2</ele>
        <time>2022-03-07T08:56:39Z</time>
      </trkpt>
      <trkpt lat="46.62996" lon="5.50224">
        <ele>276.4</ele>
        <time>2022-03-07T08:56:40Z</time>
      </trkpt>
      <trkpt lat="46.62993" lon="5.50223">
        <ele>276.6</ele>
        <time>2022-03-07T08:56:41Z</time>
      </trkpt>
      <trkpt lat="46.62991" lon="5.50222">
        <ele>276.8</ele>
        <time>2022-03-07T08:56:42Z</time>
      </trkpt>
      <trkpt lat="46.62988" lon="5.5022">
        <ele>277.2</ele>
        <time>2022-03-07T08:56:43Z</time>
      </trkpt>
      <trkpt lat="46.62986" lon="5.50219">
        <ele>277.6</ele>
        <time>2022-03-07T08:56:44Z</time>
      </trkpt>
      <trkpt lat="46.62983" lon="5.50219">
        <ele>277.8</ele>
        <time>2022-03-07T08:56:45Z</time>
      </trkpt>
      <trkpt lat="46.62981" lon="5.50218">
        <ele>278</ele>
        <time>2022-03-07T08:56:46Z</time>
      </trkpt>
      <trkpt lat="46.62978" lon="5.50218">
        <ele>278.4</ele>
        <time>2022-03-07T08:56:47Z</time>
      </trkpt>
      <trkpt lat="46.62975" lon="5.50217">
        <ele>278.6</ele>
        <time>2022-03-07T08:56:48Z</time>
      </trkpt>
      <trkpt lat="46.62972" lon="5.50216">
        <ele>278.8</ele>
        <time>2022-03-07T08:56:49Z</time>
      </trkpt>
      <trkpt lat="46.6297" lon="5.50215">
        <ele>278.8</ele>
        <time>2022-03-07T08:56:50Z</time>
      </trkpt>
      <trkpt lat="46.62967" lon="5.50214">
        <ele>279.2</ele>
        <time>2022-03-07T08:56:51Z</time>
      </trkpt>
      <trkpt lat="46.62964" lon="5.50213">
        <ele>279.2</ele>
        <time>2022-03-07T08:56:52Z</time>
      </trkpt>
      <trkpt lat="46.62961" lon="5.50211">
        <ele>279.6</ele>
        <time>2022-03-07T08:56:53Z</time>
      </trkpt>
      <trkpt lat="46.62959" lon="5.5021">
        <ele>279.8</ele>
        <time>2022-03-07T08:56:54Z</time>
      </trkpt>
      <trkpt lat="46.62956" lon="5.50209">
        <ele>280</ele>
        <time>2022-03-07T08:56:55Z</time>
      </trkpt>
      <trkpt lat="46.62953" lon="5.50209">
        <ele>280</ele>
        <time>2022-03-07T08:56:56Z</time>
      </trkpt>
      <trkpt lat="46.6295" lon="5.50208">
        <ele>280.2</ele>
        <time>2022-03-07T08:56:57Z</time>
      </trkpt>
      <trkpt lat="46.62947" lon="5.50207">
        <ele>280.4</ele>
        <time>2022-03-07T08:56:58Z</time>
      </trkpt>
      <trkpt lat="46.62944" lon="5.50206">
        <ele>280.8</ele>
        <time>2022-03-07T08:56:59Z</time>
      </trkpt>
      <trkpt lat="46.62941" lon="5.50205">
        <ele>281</ele>
        <time>2022-03-07T08:57:00Z</time>
      </trkpt>
      <trkpt lat="46.62938" lon="5.50204">
        <ele>281</ele>
        <time>2022-03-07T08:57:01Z</time>
      </trkpt>
      <trkpt lat="46.62935" lon="5.50203">
        <ele>281.2</ele>
        <time>2022-03-07T08:57:02Z</time>
      </trkpt>
      <trkpt lat="46.62935" lon="5.50203">
        <ele>281.2</ele>
        <time>2022-03-07T08:57:03Z</time>
      </trkpt>
      <trkpt lat="46.62932" lon="5.50203">
        <ele>281.2</ele>
        <time>2022-03-07T08:57:04Z</time>
      </trkpt>
      <trkpt lat="46.62929" lon="5.50202">
        <ele>281.6</ele>
        <time>2022-03-07T08:57:05Z</time>
      </trkpt>
      <trkpt lat="46.62926" lon="5.50201">
        <ele>281.6</ele>
        <time>2022-03-07T08:57:06Z</time>
      </trkpt>
      <trkpt lat="46.62923" lon="5.502">
        <ele>282</ele>
        <time>2022-03-07T08:57:07Z</time>
      </trkpt>
      <trkpt lat="46.6292" lon="5.50199">
        <ele>282</ele>
        <time>2022-03-07T08:57:08Z</time>
      </trkpt>
      <trkpt lat="46.62917" lon="5.50198">
        <ele>282.2</ele>
        <time>2022-03-07T08:57:09Z</time>
      </trkpt>
      <trkpt lat="46.62914" lon="5.50198">
        <ele>282.2</ele>
        <time>2022-03-07T08:57:10Z</time>
      </trkpt>
      <trkpt lat="46.62911" lon="5.50197">
        <ele>282.6</ele>
        <time>2022-03-07T08:57:11Z</time>
      </trkpt>
      <trkpt lat="46.62908" lon="5.50196">
        <ele>282.8</ele>
        <time>2022-03-07T08:57:12Z</time>
      </trkpt>
      <trkpt lat="46.62905" lon="5.50195">
        <ele>282.8</ele>
        <time>2022-03-07T08:57:13Z</time>
      </trkpt>
      <trkpt lat="46.62902" lon="5.50194">
        <ele>283</ele>
        <time>2022-03-07T08:57:14Z</time>
      </trkpt>
      <trkpt lat="46.62899" lon="5.50193">
        <ele>283</ele>
        <time>2022-03-07T08:57:15Z</time>
      </trkpt>
      <trkpt lat="46.62896" lon="5.50193">
        <ele>283.4</ele>
        <time>2022-03-07T08:57:16Z</time>
      </trkpt>
      <trkpt lat="46.62893" lon="5.50192">
        <ele>283.4</ele>
        <time>2022-03-07T08:57:17Z</time>
      </trkpt>
      <trkpt lat="46.6289" lon="5.50191">
        <ele>283.8</ele>
        <time>2022-03-07T08:57:18Z</time>
      </trkpt>
      <trkpt lat="46.62888" lon="5.5019">
        <ele>283.8</ele>
        <time>2022-03-07T08:57:19Z</time>
      </trkpt>
      <trkpt lat="46.62885" lon="5.5019">
        <ele>284.2</ele>
        <time>2022-03-07T08:57:20Z</time>
      </trkpt>
      <trkpt lat="46.62882" lon="5.50189">
        <ele>284.2</ele>
        <time>2022-03-07T08:57:21Z</time>
      </trkpt>
      <trkpt lat="46.62879" lon="5.50188">
        <ele>284.4</ele>
        <time>2022-03-07T08:57:22Z</time>
      </trkpt>
      <trkpt lat="46.62876" lon="5.50187">
        <ele>284.8</ele>
        <time>2022-03-07T08:57:23Z</time>
      </trkpt>
      <trkpt lat="46.62874" lon="5.50186">
        <ele>285</ele>
        <time>2022-03-07T08:57:24Z</time>
      </trkpt>
      <trkpt lat="46.62871" lon="5.50186">
        <ele>285.2</ele>
        <time>2022-03-07T08:57:25Z</time>
      </trkpt>
      <trkpt lat="46.62868" lon="5.50185">
        <ele>285.2</ele>
        <time>2022-03-07T08:57:26Z</time>
      </trkpt>
      <trkpt lat="46.62865" lon="5.50184">
        <ele>285.6</ele>
        <time>2022-03-07T08:57:27Z</time>
      </trkpt>
      <trkpt lat="46.62862" lon="5.50182">
        <ele>285.6</ele>
        <time>2022-03-07T08:57:28Z</time>
      </trkpt>
      <trkpt lat="46.62859" lon="5.50181">
        <ele>286</ele>
        <time>2022-03-07T08:57:29Z</time>
      </trkpt>
      <trkpt lat="46.62857" lon="5.5018">
        <ele>286</ele>
        <time>2022-03-07T08:57:30Z</time>
      </trkpt>
      <trkpt lat="46.62854" lon="5.50179">
        <ele>286.2</ele>
        <time>2022-03-07T08:57:31Z</time>
      </trkpt>
      <trkpt lat="46.62851" lon="5.50179">
        <ele>286.6</ele>
        <time>2022-03-07T08:57:32Z</time>
      </trkpt>
      <trkpt lat="46.62849" lon="5.50179">
        <ele>286.8</ele>
        <time>2022-03-07T08:57:33Z</time>
      </trkpt>
      <trkpt lat="46.62846" lon="5.50178">
        <ele>287</ele>
        <time>2022-03-07T08:57:34Z</time>
      </trkpt>
      <trkpt lat="46.62843" lon="5.50177">
        <ele>287</ele>
        <time>2022-03-07T08:57:35Z</time>
      </trkpt>
      <trkpt lat="46.62841" lon="5.50177">
        <ele>287.2</ele>
        <time>2022-03-07T08:57:36Z</time>
      </trkpt>
      <trkpt lat="46.62838" lon="5.50176">
        <ele>287.2</ele>
        <time>2022-03-07T08:57:37Z</time>
      </trkpt>
      <trkpt lat="46.62835" lon="5.50175">
        <ele>287.6</ele>
        <time>2022-03-07T08:57:38Z</time>
      </trkpt>
      <trkpt lat="46.62833" lon="5.50174">
        <ele>287.6</ele>
        <time>2022-03-07T08:57:39Z</time>
      </trkpt>
      <trkpt lat="46.6283" lon="5.50173">
        <ele>287.8</ele>
        <time>2022-03-07T08:57:40Z</time>
      </trkpt>
      <trkpt lat="46.62827" lon="5.50172">
        <ele>287.8</ele>
        <time>2022-03-07T08:57:41Z</time>
      </trkpt>
      <trkpt lat="46.62824" lon="5.50171">
        <ele>288</ele>
        <time>2022-03-07T08:57:42Z</time>
      </trkpt>
      <trkpt lat="46.62821" lon="5.5017">
        <ele>288</ele>
        <time>2022-03-07T08:57:43Z</time>
      </trkpt>
      <trkpt lat="46.62818" lon="5.5017">
        <ele>288.4</ele>
        <time>2022-03-07T08:57:44Z</time>
      </trkpt>
      <trkpt lat="46.62815" lon="5.50168">
        <ele>288.4</ele>
        <time>2022-03-07T08:57:45Z</time>
      </trkpt>
      <trkpt lat="46.62812" lon="5.50167">
        <ele>288.6</ele>
        <time>2022-03-07T08:57:46Z</time>
      </trkpt>
      <trkpt lat="46.62808" lon="5.50166">
        <ele>288.6</ele>
        <time>2022-03-07T08:57:47Z</time>
      </trkpt>
      <trkpt lat="46.62805" lon="5.50164">
        <ele>288.6</ele>
        <time>2022-03-07T08:57:48Z</time>
      </trkpt>
      <trkpt lat="46.62802" lon="5.50163">
        <ele>288.6</ele>
        <time>2022-03-07T08:57:49Z</time>
      </trkpt>
      <trkpt lat="46.62798" lon="5.5016">
        <ele>288.6</ele>
        <time>2022-03-07T08:57:50Z</time>
      </trkpt>
      <trkpt lat="46.62795" lon="5.50157">
        <ele>288.6</ele>
        <time>2022-03-07T08:57:51Z</time>
      </trkpt>
      <trkpt lat="46.62792" lon="5.50154">
        <ele>288.8</ele>
        <time>2022-03-07T08:57:52Z</time>
      </trkpt>
      <trkpt lat="46.62789" lon="5.5015">
        <ele>288.8</ele>
        <time>2022-03-07T08:57:53Z</time>
      </trkpt>
      <trkpt lat="46.62787" lon="5.50146">
        <ele>288.8</ele>
        <time>2022-03-07T08:57:54Z</time>
      </trkpt>
      <trkpt lat="46.62785" lon="5.50141">
        <ele>289</ele>
        <time>2022-03-07T08:57:55Z</time>
      </trkpt>
      <trkpt lat="46.62784" lon="5.50137">
        <ele>289</ele>
        <time>2022-03-07T08:57:56Z</time>
      </trkpt>
      <trkpt lat="46.62783" lon="5.50132">
        <ele>289.4</ele>
        <time>2022-03-07T08:57:57Z</time>
      </trkpt>
      <trkpt lat="46.62783" lon="5.50128">
        <ele>289.4</ele>
        <time>2022-03-07T08:57:58Z</time>
      </trkpt>
      <trkpt lat="46.62782" lon="5.50123">
        <ele>289.6</ele>
        <time>2022-03-07T08:57:59Z</time>
      </trkpt>
      <trkpt lat="46.62781" lon="5.50119">
        <ele>289.6</ele>
        <time>2022-03-07T08:58:00Z</time>
      </trkpt>
      <trkpt lat="46.6278" lon="5.50115">
        <ele>289.6</ele>
        <time>2022-03-07T08:58:01Z</time>
      </trkpt>
      <trkpt lat="46.62779" lon="5.5011">
        <ele>290</ele>
        <time>2022-03-07T08:58:02Z</time>
      </trkpt>
      <trkpt lat="46.62777" lon="5.50105">
        <ele>290</ele>
        <time>2022-03-07T08:58:03Z</time>
      </trkpt>
      <trkpt lat="46.62775" lon="5.501">
        <ele>290</ele>
        <time>2022-03-07T08:58:04Z</time>
      </trkpt>
      <trkpt lat="46.62772" lon="5.50096">
        <ele>290</ele>
        <time>2022-03-07T08:58:05Z</time>
      </trkpt>
      <trkpt lat="46.62769" lon="5.50091">
        <ele>290</ele>
        <time>2022-03-07T08:58:06Z</time>
      </trkpt>
      <trkpt lat="46.62767" lon="5.50087">
        <ele>290</ele>
        <time>2022-03-07T08:58:07Z</time>
      </trkpt>
      <trkpt lat="46.62763" lon="5.50084">
        <ele>290.2</ele>
        <time>2022-03-07T08:58:08Z</time>
      </trkpt>
      <trkpt lat="46.6276" lon="5.5008">
        <ele>290.2</ele>
        <time>2022-03-07T08:58:09Z</time>
      </trkpt>
      <trkpt lat="46.62756" lon="5.50076">
        <ele>290.2</ele>
        <time>2022-03-07T08:58:10Z</time>
      </trkpt>
      <trkpt lat="46.62752" lon="5.50073">
        <ele>290.2</ele>
        <time>2022-03-07T08:58:11Z</time>
      </trkpt>
      <trkpt lat="46.62748" lon="5.5007">
        <ele>290.2</ele>
        <time>2022-03-07T08:58:12Z</time>
      </trkpt>
      <trkpt lat="46.62743" lon="5.50067">
        <ele>290.2</ele>
        <time>2022-03-07T08:58:13Z</time>
      </trkpt>
      <trkpt lat="46.62738" lon="5.50066">
        <ele>289.8</ele>
        <time>2022-03-07T08:58:14Z</time>
      </trkpt>
      <trkpt lat="46.62733" lon="5.50065">
        <ele>289.8</ele>
        <time>2022-03-07T08:58:15Z</time>
      </trkpt>
      <trkpt lat="46.62728" lon="5.50065">
        <ele>289.6</ele>
        <time>2022-03-07T08:58:16Z</time>
      </trkpt>
      <trkpt lat="46.62723" lon="5.50065">
        <ele>289.6</ele>
        <time>2022-03-07T08:58:17Z</time>
      </trkpt>
      <trkpt lat="46.62718" lon="5.50066">
        <ele>289.4</ele>
        <time>2022-03-07T08:58:18Z</time>
      </trkpt>
      <trkpt lat="46.62713" lon="5.50069">
        <ele>289.4</ele>
        <time>2022-03-07T08:58:19Z</time>
      </trkpt>
      <trkpt lat="46.62708" lon="5.50072">
        <ele>289.4</ele>
        <time>2022-03-07T08:58:20Z</time>
      </trkpt>
      <trkpt lat="46.62704" lon="5.50075">
        <ele>289.4</ele>
        <time>2022-03-07T08:58:21Z</time>
      </trkpt>
      <trkpt lat="46.627" lon="5.50078">
        <ele>289.4</ele>
        <time>2022-03-07T08:58:22Z</time>
      </trkpt>
      <trkpt lat="46.62696" lon="5.5008">
        <ele>289.4</ele>
        <time>2022-03-07T08:58:23Z</time>
      </trkpt>
      <trkpt lat="46.62693" lon="5.50083">
        <ele>289.6</ele>
        <time>2022-03-07T08:58:24Z</time>
      </trkpt>
      <trkpt lat="46.62689" lon="5.50086">
        <ele>289.8</ele>
        <time>2022-03-07T08:58:25Z</time>
      </trkpt>
      <trkpt lat="46.62686" lon="5.50088">
        <ele>289.8</ele>
        <time>2022-03-07T08:58:26Z</time>
      </trkpt>
      <trkpt lat="46.62682" lon="5.5009">
        <ele>290.2</ele>
        <time>2022-03-07T08:58:27Z</time>
      </trkpt>
      <trkpt lat="46.62679" lon="5.50092">
        <ele>290.6</ele>
        <time>2022-03-07T08:58:28Z</time>
      </trkpt>
      <trkpt lat="46.62675" lon="5.50094">
        <ele>290.8</ele>
        <time>2022-03-07T08:58:29Z</time>
      </trkpt>
      <trkpt lat="46.62672" lon="5.50097">
        <ele>291.2</ele>
        <time>2022-03-07T08:58:30Z</time>
      </trkpt>
      <trkpt lat="46.62669" lon="5.50098">
        <ele>291.4</ele>
        <time>2022-03-07T08:58:31Z</time>
      </trkpt>
      <trkpt lat="46.62665" lon="5.501">
        <ele>291.6</ele>
        <time>2022-03-07T08:58:32Z</time>
      </trkpt>
      <trkpt lat="46.62662" lon="5.50101">
        <ele>292</ele>
        <time>2022-03-07T08:58:33Z</time>
      </trkpt>
      <trkpt lat="46.62658" lon="5.50101">
        <ele>292.2</ele>
        <time>2022-03-07T08:58:34Z</time>
      </trkpt>
      <trkpt lat="46.62655" lon="5.50102">
        <ele>292.6</ele>
        <time>2022-03-07T08:58:35Z</time>
      </trkpt>
      <trkpt lat="46.62651" lon="5.50102">
        <ele>292.8</ele>
        <time>2022-03-07T08:58:36Z</time>
      </trkpt>
      <trkpt lat="46.62647" lon="5.50102">
        <ele>293</ele>
        <time>2022-03-07T08:58:37Z</time>
      </trkpt>
      <trkpt lat="46.62643" lon="5.50101">
        <ele>293.2</ele>
        <time>2022-03-07T08:58:38Z</time>
      </trkpt>
      <trkpt lat="46.62639" lon="5.50101">
        <ele>293.4</ele>
        <time>2022-03-07T08:58:39Z</time>
      </trkpt>
      <trkpt lat="46.62636" lon="5.50101">
        <ele>293.4</ele>
        <time>2022-03-07T08:58:40Z</time>
      </trkpt>
      <trkpt lat="46.62632" lon="5.50101">
        <ele>293.4</ele>
        <time>2022-03-07T08:58:41Z</time>
      </trkpt>
      <trkpt lat="46.62629" lon="5.50101">
        <ele>293.8</ele>
        <time>2022-03-07T08:58:42Z</time>
      </trkpt>
      <trkpt lat="46.62625" lon="5.50101">
        <ele>294</ele>
        <time>2022-03-07T08:58:43Z</time>
      </trkpt>
      <trkpt lat="46.62621" lon="5.501">
        <ele>294</ele>
        <time>2022-03-07T08:58:44Z</time>
      </trkpt>
      <trkpt lat="46.62618" lon="5.501">
        <ele>294.2</ele>
        <time>2022-03-07T08:58:45Z</time>
      </trkpt>
      <trkpt lat="46.62614" lon="5.50101">
        <ele>294.2</ele>
        <time>2022-03-07T08:58:46Z</time>
      </trkpt>
      <trkpt lat="46.62611" lon="5.50103">
        <ele>294.2</ele>
        <time>2022-03-07T08:58:47Z</time>
      </trkpt>
      <trkpt lat="46.62607" lon="5.50105">
        <ele>294.2</ele>
        <time>2022-03-07T08:58:48Z</time>
      </trkpt>
      <trkpt lat="46.62603" lon="5.50106">
        <ele>294.2</ele>
        <time>2022-03-07T08:58:49Z</time>
      </trkpt>
      <trkpt lat="46.62599" lon="5.50107">
        <ele>294.2</ele>
        <time>2022-03-07T08:58:50Z</time>
      </trkpt>
      <trkpt lat="46.62595" lon="5.50107">
        <ele>294.2</ele>
        <time>2022-03-07T08:58:51Z</time>
      </trkpt>
      <trkpt lat="46.62591" lon="5.50107">
        <ele>294.2</ele>
        <time>2022-03-07T08:58:52Z</time>
      </trkpt>
      <trkpt lat="46.62587" lon="5.50105">
        <ele>294.2</ele>
        <time>2022-03-07T08:58:53Z</time>
      </trkpt>
      <trkpt lat="46.62583" lon="5.50102">
        <ele>294.2</ele>
        <time>2022-03-07T08:58:54Z</time>
      </trkpt>
      <trkpt lat="46.62579" lon="5.50098">
        <ele>294</ele>
        <time>2022-03-07T08:58:55Z</time>
      </trkpt>
      <trkpt lat="46.62576" lon="5.50094">
        <ele>294</ele>
        <time>2022-03-07T08:58:56Z</time>
      </trkpt>
      <trkpt lat="46.62573" lon="5.50088">
        <ele>293.8</ele>
        <time>2022-03-07T08:58:57Z</time>
      </trkpt>
      <trkpt lat="46.6257" lon="5.50081">
        <ele>293.4</ele>
        <time>2022-03-07T08:58:58Z</time>
      </trkpt>
      <trkpt lat="46.62568" lon="5.50074">
        <ele>293.2</ele>
        <time>2022-03-07T08:58:59Z</time>
      </trkpt>
      <trkpt lat="46.62566" lon="5.50066">
        <ele>292.8</ele>
        <time>2022-03-07T08:59:00Z</time>
      </trkpt>
      <trkpt lat="46.62565" lon="5.50057">
        <ele>292.6</ele>
        <time>2022-03-07T08:59:01Z</time>
      </trkpt>
      <trkpt lat="46.62564" lon="5.50048">
        <ele>292.2</ele>
        <time>2022-03-07T08:59:02Z</time>
      </trkpt>
      <trkpt lat="46.62563" lon="5.5004">
        <ele>292</ele>
        <time>2022-03-07T08:59:03Z</time>
      </trkpt>
      <trkpt lat="46.62562" lon="5.50031">
        <ele>291.8</ele>
        <time>2022-03-07T08:59:04Z</time>
      </trkpt>
      <trkpt lat="46.62559" lon="5.50023">
        <ele>291.6</ele>
        <time>2022-03-07T08:59:05Z</time>
      </trkpt>
      <trkpt lat="46.62556" lon="5.50016">
        <ele>291.6</ele>
        <time>2022-03-07T08:59:06Z</time>
      </trkpt>
      <trkpt lat="46.62551" lon="5.50011">
        <ele>291.2</ele>
        <time>2022-03-07T08:59:07Z</time>
      </trkpt>
      <trkpt lat="46.62546" lon="5.50008">
        <ele>291.2</ele>
        <time>2022-03-07T08:59:08Z</time>
      </trkpt>
      <trkpt lat="46.6254" lon="5.50007">
        <ele>290.8</ele>
        <time>2022-03-07T08:59:09Z</time>
      </trkpt>
      <trkpt lat="46.62535" lon="5.50007">
        <ele>290.6</ele>
        <time>2022-03-07T08:59:10Z</time>
      </trkpt>
      <trkpt lat="46.62529" lon="5.50008">
        <ele>290.2</ele>
        <time>2022-03-07T08:59:11Z</time>
      </trkpt>
      <trkpt lat="46.62523" lon="5.50009">
        <ele>289.8</ele>
        <time>2022-03-07T08:59:12Z</time>
      </trkpt>
      <trkpt lat="46.62518" lon="5.5001">
        <ele>289.4</ele>
        <time>2022-03-07T08:59:13Z</time>
      </trkpt>
      <trkpt lat="46.62513" lon="5.50011">
        <ele>289</ele>
        <time>2022-03-07T08:59:14Z</time>
      </trkpt>
      <trkpt lat="46.62508" lon="5.50012">
        <ele>288.6</ele>
        <time>2022-03-07T08:59:15Z</time>
      </trkpt>
      <trkpt lat="46.62502" lon="5.50013">
        <ele>288.2</ele>
        <time>2022-03-07T08:59:16Z</time>
      </trkpt>
      <trkpt lat="46.62497" lon="5.50016">
        <ele>287.6</ele>
        <time>2022-03-07T08:59:17Z</time>
      </trkpt>
      <trkpt lat="46.62492" lon="5.50018">
        <ele>287</ele>
        <time>2022-03-07T08:59:18Z</time>
      </trkpt>
      <trkpt lat="46.62486" lon="5.50022">
        <ele>286.6</ele>
        <time>2022-03-07T08:59:19Z</time>
      </trkpt>
      <trkpt lat="46.62482" lon="5.50025">
        <ele>286</ele>
        <time>2022-03-07T08:59:20Z</time>
      </trkpt>
      <trkpt lat="46.62477" lon="5.50028">
        <ele>285.6</ele>
        <time>2022-03-07T08:59:21Z</time>
      </trkpt>
      <trkpt lat="46.62472" lon="5.5003">
        <ele>285</ele>
        <time>2022-03-07T08:59:22Z</time>
      </trkpt>
      <trkpt lat="46.62468" lon="5.50033">
        <ele>284.6</ele>
        <time>2022-03-07T08:59:23Z</time>
      </trkpt>
      <trkpt lat="46.62464" lon="5.50034">
        <ele>284.2</ele>
        <time>2022-03-07T08:59:24Z</time>
      </trkpt>
      <trkpt lat="46.62459" lon="5.50033">
        <ele>283.8</ele>
        <time>2022-03-07T08:59:25Z</time>
      </trkpt>
      <trkpt lat="46.62455" lon="5.50031">
        <ele>283.4</ele>
        <time>2022-03-07T08:59:26Z</time>
      </trkpt>
      <trkpt lat="46.62451" lon="5.50027">
        <ele>282.8</ele>
        <time>2022-03-07T08:59:27Z</time>
      </trkpt>
      <trkpt lat="46.62446" lon="5.50022">
        <ele>282.4</ele>
        <time>2022-03-07T08:59:28Z</time>
      </trkpt>
      <trkpt lat="46.62442" lon="5.50017">
        <ele>281.8</ele>
        <time>2022-03-07T08:59:29Z</time>
      </trkpt>
      <trkpt lat="46.62438" lon="5.50013">
        <ele>281.4</ele>
        <time>2022-03-07T08:59:30Z</time>
      </trkpt>
      <trkpt lat="46.62434" lon="5.50009">
        <ele>280.8</ele>
        <time>2022-03-07T08:59:31Z</time>
      </trkpt>
      <trkpt lat="46.62432" lon="5.50005">
        <ele>280.2</ele>
        <time>2022-03-07T08:59:32Z</time>
      </trkpt>
      <trkpt lat="46.62433" lon="5.49999">
        <ele>279.6</ele>
        <time>2022-03-07T08:59:33Z</time>
      </trkpt>
      <trkpt lat="46.62434" lon="5.49992">
        <ele>279.2</ele>
        <time>2022-03-07T08:59:34Z</time>
      </trkpt>
      <trkpt lat="46.62437" lon="5.49986">
        <ele>278.8</ele>
        <time>2022-03-07T08:59:35Z</time>
      </trkpt>
      <trkpt lat="46.6244" lon="5.49979">
        <ele>278.4</ele>
        <time>2022-03-07T08:59:36Z</time>
      </trkpt>
      <trkpt lat="46.62445" lon="5.49973">
        <ele>278</ele>
        <time>2022-03-07T08:59:37Z</time>
      </trkpt>
      <trkpt lat="46.6245" lon="5.49967">
        <ele>277.6</ele>
        <time>2022-03-07T08:59:38Z</time>
      </trkpt>
      <trkpt lat="46.62454" lon="5.4996">
        <ele>277</ele>
        <time>2022-03-07T08:59:39Z</time>
      </trkpt>
      <trkpt lat="46.62459" lon="5.49952">
        <ele>276.6</ele>
        <time>2022-03-07T08:59:40Z</time>
      </trkpt>
      <trkpt lat="46.62463" lon="5.49945">
        <ele>276.4</ele>
        <time>2022-03-07T08:59:41Z</time>
      </trkpt>
      <trkpt lat="46.62466" lon="5.49937">
        <ele>276</ele>
        <time>2022-03-07T08:59:42Z</time>
      </trkpt>
      <trkpt lat="46.6247" lon="5.49928">
        <ele>275.4</ele>
        <time>2022-03-07T08:59:43Z</time>
      </trkpt>
      <trkpt lat="46.62473" lon="5.49921">
        <ele>275</ele>
        <time>2022-03-07T08:59:44Z</time>
      </trkpt>
      <trkpt lat="46.62476" lon="5.49915">
        <ele>274.6</ele>
        <time>2022-03-07T08:59:45Z</time>
      </trkpt>
      <trkpt lat="46.62478" lon="5.49909">
        <ele>274.4</ele>
        <time>2022-03-07T08:59:46Z</time>
      </trkpt>
      <trkpt lat="46.62479" lon="5.49904">
        <ele>274</ele>
        <time>2022-03-07T08:59:47Z</time>
      </trkpt>
      <trkpt lat="46.62477" lon="5.499">
        <ele>273.6</ele>
        <time>2022-03-07T08:59:48Z</time>
      </trkpt>
      <trkpt lat="46.62475" lon="5.49896">
        <ele>273.4</ele>
        <time>2022-03-07T08:59:49Z</time>
      </trkpt>
      <trkpt lat="46.62471" lon="5.49891">
        <ele>272.8</ele>
        <time>2022-03-07T08:59:50Z</time>
      </trkpt>
      <trkpt lat="46.62468" lon="5.49885">
        <ele>272.4</ele>
        <time>2022-03-07T08:59:51Z</time>
      </trkpt>
      <trkpt lat="46.62464" lon="5.4988">
        <ele>271.8</ele>
        <time>2022-03-07T08:59:52Z</time>
      </trkpt>
      <trkpt lat="46.62461" lon="5.49875">
        <ele>271</ele>
        <time>2022-03-07T08:59:53Z</time>
      </trkpt>
      <trkpt lat="46.62457" lon="5.49869">
        <ele>270.4</ele>
        <time>2022-03-07T08:59:54Z</time>
      </trkpt>
      <trkpt lat="46.62453" lon="5.49863">
        <ele>269.8</ele>
        <time>2022-03-07T08:59:55Z</time>
      </trkpt>
      <trkpt lat="46.6245" lon="5.49857">
        <ele>269</ele>
        <time>2022-03-07T08:59:56Z</time>
      </trkpt>
      <trkpt lat="46.6245" lon="5.49857">
        <ele>268.4</ele>
        <time>2022-03-07T08:59:57Z</time>
      </trkpt>
      <trkpt lat="46.62448" lon="5.49852">
        <ele>267.8</ele>
        <time>2022-03-07T08:59:58Z</time>
      </trkpt>
      <trkpt lat="46.62445" lon="5.49847">
        <ele>267.2</ele>
        <time>2022-03-07T08:59:59Z</time>
      </trkpt>
      <trkpt lat="46.62443" lon="5.49842">
        <ele>266.8</ele>
        <time>2022-03-07T09:00:00Z</time>
      </trkpt>
      <trkpt lat="46.62443" lon="5.49836">
        <ele>266.6</ele>
        <time>2022-03-07T09:00:01Z</time>
      </trkpt>
      <trkpt lat="46.62443" lon="5.4983">
        <ele>266.4</ele>
        <time>2022-03-07T09:00:02Z</time>
      </trkpt>
      <trkpt lat="46.62444" lon="5.49824">
        <ele>266.4</ele>
        <time>2022-03-07T09:00:03Z</time>
      </trkpt>
      <trkpt lat="46.62445" lon="5.49818">
        <ele>266</ele>
        <time>2022-03-07T09:00:04Z</time>
      </trkpt>
      <trkpt lat="46.62446" lon="5.49812">
        <ele>265.8</ele>
        <time>2022-03-07T09:00:05Z</time>
      </trkpt>
      <trkpt lat="46.62446" lon="5.49806">
        <ele>265.6</ele>
        <time>2022-03-07T09:00:06Z</time>
      </trkpt>
      <trkpt lat="46.62446" lon="5.498">
        <ele>265.4</ele>
        <time>2022-03-07T09:00:07Z</time>
      </trkpt>
      <trkpt lat="46.62446" lon="5.49793">
        <ele>265.2</ele>
        <time>2022-03-07T09:00:08Z</time>
      </trkpt>
      <trkpt lat="46.62444" lon="5.49788">
        <ele>265.2</ele>
        <time>2022-03-07T09:00:09Z</time>
      </trkpt>
      <trkpt lat="46.62443" lon="5.49782">
        <ele>265.2</ele>
        <time>2022-03-07T09:00:10Z</time>
      </trkpt>
      <trkpt lat="46.6244" lon="5.49778">
        <ele>265.2</ele>
        <time>2022-03-07T09:00:11Z</time>
      </trkpt>
      <trkpt lat="46.62437" lon="5.49774">
        <ele>264.8</ele>
        <time>2022-03-07T09:00:12Z</time>
      </trkpt>
      <trkpt lat="46.62433" lon="5.49772">
        <ele>264.8</ele>
        <time>2022-03-07T09:00:13Z</time>
      </trkpt>
      <trkpt lat="46.62429" lon="5.49769">
        <ele>264.8</ele>
        <time>2022-03-07T09:00:14Z</time>
      </trkpt>
      <trkpt lat="46.62425" lon="5.49767">
        <ele>264.6</ele>
        <time>2022-03-07T09:00:15Z</time>
      </trkpt>
      <trkpt lat="46.62421" lon="5.49765">
        <ele>264.6</ele>
        <time>2022-03-07T09:00:16Z</time>
      </trkpt>
      <trkpt lat="46.62417" lon="5.49762">
        <ele>264.2</ele>
        <time>2022-03-07T09:00:17Z</time>
      </trkpt>
      <trkpt lat="46.62412" lon="5.4976">
        <ele>264.2</ele>
        <time>2022-03-07T09:00:18Z</time>
      </trkpt>
      <trkpt lat="46.62408" lon="5.49758">
        <ele>264.2</ele>
        <time>2022-03-07T09:00:19Z</time>
      </trkpt>
      <trkpt lat="46.62403" lon="5.49755">
        <ele>264.2</ele>
        <time>2022-03-07T09:00:20Z</time>
      </trkpt>
      <trkpt lat="46.62398" lon="5.49752">
        <ele>264</ele>
        <time>2022-03-07T09:00:21Z</time>
      </trkpt>
      <trkpt lat="46.62394" lon="5.4975">
        <ele>264</ele>
        <time>2022-03-07T09:00:22Z</time>
      </trkpt>
      <trkpt lat="46.62385" lon="5.49745">
        <ele>264</ele>
        <time>2022-03-07T09:00:23Z</time>
      </trkpt>
      <trkpt lat="46.62381" lon="5.49743">
        <ele>264</ele>
        <time>2022-03-07T09:00:24Z</time>
      </trkpt>
      <trkpt lat="46.62377" lon="5.49742">
        <ele>264.2</ele>
        <time>2022-03-07T09:00:25Z</time>
      </trkpt>
      <trkpt lat="46.62373" lon="5.49741">
        <ele>264.2</ele>
        <time>2022-03-07T09:00:26Z</time>
      </trkpt>
      <trkpt lat="46.62369" lon="5.4974">
        <ele>264.4</ele>
        <time>2022-03-07T09:00:27Z</time>
      </trkpt>
      <trkpt lat="46.62365" lon="5.49738">
        <ele>264.8</ele>
        <time>2022-03-07T09:00:28Z</time>
      </trkpt>
      <trkpt lat="46.62362" lon="5.49736">
        <ele>265</ele>
        <time>2022-03-07T09:00:29Z</time>
      </trkpt>
      <trkpt lat="46.62358" lon="5.49735">
        <ele>265</ele>
        <time>2022-03-07T09:00:30Z</time>
      </trkpt>
      <trkpt lat="46.62355" lon="5.49733">
        <ele>265.2</ele>
        <time>2022-03-07T09:00:31Z</time>
      </trkpt>
      <trkpt lat="46.62351" lon="5.49732">
        <ele>265.2</ele>
        <time>2022-03-07T09:00:32Z</time>
      </trkpt>
      <trkpt lat="46.62348" lon="5.49731">
        <ele>265.8</ele>
        <time>2022-03-07T09:00:33Z</time>
      </trkpt>
      <trkpt lat="46.62344" lon="5.49729">
        <ele>265.8</ele>
        <time>2022-03-07T09:00:34Z</time>
      </trkpt>
      <trkpt lat="46.62341" lon="5.49727">
        <ele>266.2</ele>
        <time>2022-03-07T09:00:35Z</time>
      </trkpt>
      <trkpt lat="46.62338" lon="5.49725">
        <ele>266.2</ele>
        <time>2022-03-07T09:00:36Z</time>
      </trkpt>
      <trkpt lat="46.62335" lon="5.49724">
        <ele>266.4</ele>
        <time>2022-03-07T09:00:37Z</time>
      </trkpt>
      <trkpt lat="46.62331" lon="5.49722">
        <ele>266.4</ele>
        <time>2022-03-07T09:00:38Z</time>
      </trkpt>
      <trkpt lat="46.62328" lon="5.4972">
        <ele>266.8</ele>
        <time>2022-03-07T09:00:39Z</time>
      </trkpt>
      <trkpt lat="46.62325" lon="5.49717">
        <ele>266.8</ele>
        <time>2022-03-07T09:00:40Z</time>
      </trkpt>
      <trkpt lat="46.62323" lon="5.49715">
        <ele>267</ele>
        <time>2022-03-07T09:00:41Z</time>
      </trkpt>
      <trkpt lat="46.6232" lon="5.49712">
        <ele>267</ele>
        <time>2022-03-07T09:00:42Z</time>
      </trkpt>
      <trkpt lat="46.62319" lon="5.49708">
        <ele>267</ele>
        <time>2022-03-07T09:00:43Z</time>
      </trkpt>
      <trkpt lat="46.62319" lon="5.49704">
        <ele>267.4</ele>
        <time>2022-03-07T09:00:44Z</time>
      </trkpt>
      <trkpt lat="46.62318" lon="5.49699">
        <ele>267.4</ele>
        <time>2022-03-07T09:00:45Z</time>
      </trkpt>
      <trkpt lat="46.62318" lon="5.49694">
        <ele>267.4</ele>
        <time>2022-03-07T09:00:46Z</time>
      </trkpt>
      <trkpt lat="46.62318" lon="5.49689">
        <ele>267.4</ele>
        <time>2022-03-07T09:00:47Z</time>
      </trkpt>
      <trkpt lat="46.62318" lon="5.49684">
        <ele>267.4</ele>
        <time>2022-03-07T09:00:48Z</time>
      </trkpt>
      <trkpt lat="46.62317" lon="5.49679">
        <ele>267.4</ele>
        <time>2022-03-07T09:00:49Z</time>
      </trkpt>
      <trkpt lat="46.62316" lon="5.49674">
        <ele>267</ele>
        <time>2022-03-07T09:00:50Z</time>
      </trkpt>
      <trkpt lat="46.62315" lon="5.49668">
        <ele>267</ele>
        <time>2022-03-07T09:00:51Z</time>
      </trkpt>
      <trkpt lat="46.62312" lon="5.49664">
        <ele>267</ele>
        <time>2022-03-07T09:00:52Z</time>
      </trkpt>
      <trkpt lat="46.6231" lon="5.4966">
        <ele>267</ele>
        <time>2022-03-07T09:00:53Z</time>
      </trkpt>
      <trkpt lat="46.62307" lon="5.49656">
        <ele>267</ele>
        <time>2022-03-07T09:00:54Z</time>
      </trkpt>
      <trkpt lat="46.62304" lon="5.49652">
        <ele>266.8</ele>
        <time>2022-03-07T09:00:55Z</time>
      </trkpt>
      <trkpt lat="46.62301" lon="5.49648">
        <ele>266.8</ele>
        <time>2022-03-07T09:00:56Z</time>
      </trkpt>
      <trkpt lat="46.62298" lon="5.49644">
        <ele>266.8</ele>
        <time>2022-03-07T09:00:57Z</time>
      </trkpt>
      <trkpt lat="46.62295" lon="5.49639">
        <ele>266.8</ele>
        <time>2022-03-07T09:00:58Z</time>
      </trkpt>
      <trkpt lat="46.62292" lon="5.49634">
        <ele>266.6</ele>
        <time>2022-03-07T09:00:59Z</time>
      </trkpt>
      <trkpt lat="46.6229" lon="5.49627">
        <ele>266.6</ele>
        <time>2022-03-07T09:01:00Z</time>
      </trkpt>
      <trkpt lat="46.62289" lon="5.4962">
        <ele>266.2</ele>
        <time>2022-03-07T09:01:01Z</time>
      </trkpt>
      <trkpt lat="46.62288" lon="5.49612">
        <ele>266.2</ele>
        <time>2022-03-07T09:01:02Z</time>
      </trkpt>
      <trkpt lat="46.62288" lon="5.49604">
        <ele>265.8</ele>
        <time>2022-03-07T09:01:03Z</time>
      </trkpt>
      <trkpt lat="46.62289" lon="5.49595">
        <ele>265.6</ele>
        <time>2022-03-07T09:01:04Z</time>
      </trkpt>
      <trkpt lat="46.6229" lon="5.49587">
        <ele>265.6</ele>
        <time>2022-03-07T09:01:05Z</time>
      </trkpt>
      <trkpt lat="46.62291" lon="5.49578">
        <ele>265.4</ele>
        <time>2022-03-07T09:01:06Z</time>
      </trkpt>
      <trkpt lat="46.62293" lon="5.49569">
        <ele>265.4</ele>
        <time>2022-03-07T09:01:07Z</time>
      </trkpt>
      <trkpt lat="46.62294" lon="5.49561">
        <ele>265.2</ele>
        <time>2022-03-07T09:01:08Z</time>
      </trkpt>
      <trkpt lat="46.62294" lon="5.49552">
        <ele>265.2</ele>
        <time>2022-03-07T09:01:09Z</time>
      </trkpt>
      <trkpt lat="46.62295" lon="5.49544">
        <ele>265.2</ele>
        <time>2022-03-07T09:01:10Z</time>
      </trkpt>
      <trkpt lat="46.62296" lon="5.49536">
        <ele>264.8</ele>
        <time>2022-03-07T09:01:11Z</time>
      </trkpt>
      <trkpt lat="46.62296" lon="5.49528">
        <ele>264.8</ele>
        <time>2022-03-07T09:01:12Z</time>
      </trkpt>
      <trkpt lat="46.62297" lon="5.4952">
        <ele>264.8</ele>
        <time>2022-03-07T09:01:13Z</time>
      </trkpt>
      <trkpt lat="46.62297" lon="5.49513">
        <ele>264.8</ele>
        <time>2022-03-07T09:01:14Z</time>
      </trkpt>
      <trkpt lat="46.62297" lon="5.49505">
        <ele>264.8</ele>
        <time>2022-03-07T09:01:15Z</time>
      </trkpt>
      <trkpt lat="46.62298" lon="5.49498">
        <ele>264.8</ele>
        <time>2022-03-07T09:01:16Z</time>
      </trkpt>
      <trkpt lat="46.62298" lon="5.49492">
        <ele>264.8</ele>
        <time>2022-03-07T09:01:17Z</time>
      </trkpt>
      <trkpt lat="46.62298" lon="5.49485">
        <ele>265.2</ele>
        <time>2022-03-07T09:01:18Z</time>
      </trkpt>
      <trkpt lat="46.62298" lon="5.49478">
        <ele>265.2</ele>
        <time>2022-03-07T09:01:19Z</time>
      </trkpt>
      <trkpt lat="46.62298" lon="5.49472">
        <ele>265.2</ele>
        <time>2022-03-07T09:01:20Z</time>
      </trkpt>
      <trkpt lat="46.62298" lon="5.49465">
        <ele>265.2</ele>
        <time>2022-03-07T09:01:21Z</time>
      </trkpt>
      <trkpt lat="46.62297" lon="5.49458">
        <ele>265.2</ele>
        <time>2022-03-07T09:01:22Z</time>
      </trkpt>
      <trkpt lat="46.62297" lon="5.49452">
        <ele>265.2</ele>
        <time>2022-03-07T09:01:23Z</time>
      </trkpt>
      <trkpt lat="46.62297" lon="5.49444">
        <ele>265.2</ele>
        <time>2022-03-07T09:01:24Z</time>
      </trkpt>
      <trkpt lat="46.62297" lon="5.49437">
        <ele>265.2</ele>
        <time>2022-03-07T09:01:25Z</time>
      </trkpt>
      <trkpt lat="46.62297" lon="5.49429">
        <ele>265.2</ele>
        <time>2022-03-07T09:01:26Z</time>
      </trkpt>
      <trkpt lat="46.62297" lon="5.49421">
        <ele>265.2</ele>
        <time>2022-03-07T09:01:27Z</time>
      </trkpt>
      <trkpt lat="46.62298" lon="5.49413">
        <ele>264.8</ele>
        <time>2022-03-07T09:01:28Z</time>
      </trkpt>
      <trkpt lat="46.62299" lon="5.49405">
        <ele>264.8</ele>
        <time>2022-03-07T09:01:29Z</time>
      </trkpt>
      <trkpt lat="46.62301" lon="5.49396">
        <ele>264.4</ele>
        <time>2022-03-07T09:01:30Z</time>
      </trkpt>
      <trkpt lat="46.62302" lon="5.49387">
        <ele>264</ele>
        <time>2022-03-07T09:01:31Z</time>
      </trkpt>
      <trkpt lat="46.62304" lon="5.49378">
        <ele>263.8</ele>
        <time>2022-03-07T09:01:32Z</time>
      </trkpt>
      <trkpt lat="46.62306" lon="5.49369">
        <ele>263.4</ele>
        <time>2022-03-07T09:01:33Z</time>
      </trkpt>
      <trkpt lat="46.62308" lon="5.4936">
        <ele>263.2</ele>
        <time>2022-03-07T09:01:34Z</time>
      </trkpt>
      <trkpt lat="46.6231" lon="5.49351">
        <ele>263.2</ele>
        <time>2022-03-07T09:01:35Z</time>
      </trkpt>
      <trkpt lat="46.62312" lon="5.49342">
        <ele>263</ele>
        <time>2022-03-07T09:01:36Z</time>
      </trkpt>
      <trkpt lat="46.62314" lon="5.49333">
        <ele>263</ele>
        <time>2022-03-07T09:01:37Z</time>
      </trkpt>
      <trkpt lat="46.62316" lon="5.49324">
        <ele>263</ele>
        <time>2022-03-07T09:01:38Z</time>
      </trkpt>
      <trkpt lat="46.62318" lon="5.49316">
        <ele>262.6</ele>
        <time>2022-03-07T09:01:39Z</time>
      </trkpt>
      <trkpt lat="46.6232" lon="5.49308">
        <ele>262.6</ele>
        <time>2022-03-07T09:01:40Z</time>
      </trkpt>
      <trkpt lat="46.62322" lon="5.493">
        <ele>262.6</ele>
        <time>2022-03-07T09:01:41Z</time>
      </trkpt>
      <trkpt lat="46.62324" lon="5.49292">
        <ele>262.6</ele>
        <time>2022-03-07T09:01:42Z</time>
      </trkpt>
      <trkpt lat="46.62326" lon="5.49284">
        <ele>262.4</ele>
        <time>2022-03-07T09:01:43Z</time>
      </trkpt>
      <trkpt lat="46.62327" lon="5.49276">
        <ele>262.4</ele>
        <time>2022-03-07T09:01:44Z</time>
      </trkpt>
      <trkpt lat="46.62329" lon="5.49268">
        <ele>262.4</ele>
        <time>2022-03-07T09:01:45Z</time>
      </trkpt>
      <trkpt lat="46.62331" lon="5.49261">
        <ele>262.4</ele>
        <time>2022-03-07T09:01:46Z</time>
      </trkpt>
      <trkpt lat="46.62332" lon="5.49253">
        <ele>262.4</ele>
        <time>2022-03-07T09:01:47Z</time>
      </trkpt>
      <trkpt lat="46.62333" lon="5.49245">
        <ele>262.6</ele>
        <time>2022-03-07T09:01:48Z</time>
      </trkpt>
      <trkpt lat="46.62333" lon="5.49238">
        <ele>262.6</ele>
        <time>2022-03-07T09:01:49Z</time>
      </trkpt>
      <trkpt lat="46.62333" lon="5.4923">
        <ele>262.6</ele>
        <time>2022-03-07T09:01:50Z</time>
      </trkpt>
      <trkpt lat="46.62333" lon="5.49223">
        <ele>262.6</ele>
        <time>2022-03-07T09:01:51Z</time>
      </trkpt>
      <trkpt lat="46.62332" lon="5.49216">
        <ele>262.6</ele>
        <time>2022-03-07T09:01:52Z</time>
      </trkpt>
      <trkpt lat="46.62331" lon="5.49209">
        <ele>262.6</ele>
        <time>2022-03-07T09:01:53Z</time>
      </trkpt>
      <trkpt lat="46.62329" lon="5.49202">
        <ele>262.6</ele>
        <time>2022-03-07T09:01:54Z</time>
      </trkpt>
      <trkpt lat="46.62327" lon="5.49195">
        <ele>262.4</ele>
        <time>2022-03-07T09:01:55Z</time>
      </trkpt>
      <trkpt lat="46.62324" lon="5.49188">
        <ele>262.4</ele>
        <time>2022-03-07T09:01:56Z</time>
      </trkpt>
      <trkpt lat="46.62322" lon="5.49181">
        <ele>262.2</ele>
        <time>2022-03-07T09:01:57Z</time>
      </trkpt>
      <trkpt lat="46.6232" lon="5.49173">
        <ele>262.2</ele>
        <time>2022-03-07T09:01:58Z</time>
      </trkpt>
      <trkpt lat="46.62319" lon="5.49165">
        <ele>262</ele>
        <time>2022-03-07T09:01:59Z</time>
      </trkpt>
      <trkpt lat="46.62317" lon="5.49157">
        <ele>262</ele>
        <time>2022-03-07T09:02:00Z</time>
      </trkpt>
      <trkpt lat="46.62316" lon="5.49149">
        <ele>261.6</ele>
        <time>2022-03-07T09:02:01Z</time>
      </trkpt>
      <trkpt lat="46.62313" lon="5.49141">
        <ele>261.2</ele>
        <time>2022-03-07T09:02:02Z</time>
      </trkpt>
      <trkpt lat="46.62309" lon="5.49134">
        <ele>261.2</ele>
        <time>2022-03-07T09:02:03Z</time>
      </trkpt>
      <trkpt lat="46.62306" lon="5.49127">
        <ele>261</ele>
        <time>2022-03-07T09:02:04Z</time>
      </trkpt>
      <trkpt lat="46.62302" lon="5.49121">
        <ele>261</ele>
        <time>2022-03-07T09:02:05Z</time>
      </trkpt>
      <trkpt lat="46.62297" lon="5.49115">
        <ele>260.8</ele>
        <time>2022-03-07T09:02:06Z</time>
      </trkpt>
      <trkpt lat="46.62293" lon="5.49109">
        <ele>260.8</ele>
        <time>2022-03-07T09:02:07Z</time>
      </trkpt>
      <trkpt lat="46.62288" lon="5.49103">
        <ele>260.4</ele>
        <time>2022-03-07T09:02:08Z</time>
      </trkpt>
      <trkpt lat="46.62284" lon="5.49097">
        <ele>260.2</ele>
        <time>2022-03-07T09:02:09Z</time>
      </trkpt>
      <trkpt lat="46.6228" lon="5.4909">
        <ele>259.8</ele>
        <time>2022-03-07T09:02:10Z</time>
      </trkpt>
      <trkpt lat="46.62276" lon="5.49083">
        <ele>259.6</ele>
        <time>2022-03-07T09:02:11Z</time>
      </trkpt>
      <trkpt lat="46.62271" lon="5.49076">
        <ele>259</ele>
        <time>2022-03-07T09:02:12Z</time>
      </trkpt>
      <trkpt lat="46.62267" lon="5.49068">
        <ele>258.8</ele>
        <time>2022-03-07T09:02:13Z</time>
      </trkpt>
      <trkpt lat="46.62262" lon="5.4906">
        <ele>258.4</ele>
        <time>2022-03-07T09:02:14Z</time>
      </trkpt>
      <trkpt lat="46.62257" lon="5.49052">
        <ele>258</ele>
        <time>2022-03-07T09:02:15Z</time>
      </trkpt>
      <trkpt lat="46.62252" lon="5.49044">
        <ele>257.6</ele>
        <time>2022-03-07T09:02:16Z</time>
      </trkpt>
      <trkpt lat="46.62247" lon="5.49036">
        <ele>257.2</ele>
        <time>2022-03-07T09:02:17Z</time>
      </trkpt>
      <trkpt lat="46.62242" lon="5.49029">
        <ele>257.2</ele>
        <time>2022-03-07T09:02:18Z</time>
      </trkpt>
      <trkpt lat="46.62236" lon="5.49021">
        <ele>256.8</ele>
        <time>2022-03-07T09:02:19Z</time>
      </trkpt>
      <trkpt lat="46.6223" lon="5.49014">
        <ele>256.4</ele>
        <time>2022-03-07T09:02:20Z</time>
      </trkpt>
      <trkpt lat="46.62225" lon="5.49006">
        <ele>256</ele>
        <time>2022-03-07T09:02:21Z</time>
      </trkpt>
      <trkpt lat="46.62219" lon="5.48999">
        <ele>255.6</ele>
        <time>2022-03-07T09:02:22Z</time>
      </trkpt>
      <trkpt lat="46.62213" lon="5.48992">
        <ele>255.4</ele>
        <time>2022-03-07T09:02:23Z</time>
      </trkpt>
      <trkpt lat="46.62208" lon="5.48984">
        <ele>255</ele>
        <time>2022-03-07T09:02:24Z</time>
      </trkpt>
      <trkpt lat="46.62202" lon="5.48977">
        <ele>254.6</ele>
        <time>2022-03-07T09:02:25Z</time>
      </trkpt>
      <trkpt lat="46.62196" lon="5.48969">
        <ele>254.2</ele>
        <time>2022-03-07T09:02:26Z</time>
      </trkpt>
      <trkpt lat="46.62191" lon="5.48962">
        <ele>253.6</ele>
        <time>2022-03-07T09:02:27Z</time>
      </trkpt>
      <trkpt lat="46.62185" lon="5.48954">
        <ele>253</ele>
        <time>2022-03-07T09:02:28Z</time>
      </trkpt>
      <trkpt lat="46.62179" lon="5.48946">
        <ele>252.4</ele>
        <time>2022-03-07T09:02:29Z</time>
      </trkpt>
      <trkpt lat="46.62172" lon="5.48938">
        <ele>251.8</ele>
        <time>2022-03-07T09:02:30Z</time>
      </trkpt>
      <trkpt lat="46.62165" lon="5.48929">
        <ele>251.2</ele>
        <time>2022-03-07T09:02:31Z</time>
      </trkpt>
      <trkpt lat="46.62158" lon="5.48921">
        <ele>250.6</ele>
        <time>2022-03-07T09:02:32Z</time>
      </trkpt>
      <trkpt lat="46.6215" lon="5.48912">
        <ele>250</ele>
        <time>2022-03-07T09:02:33Z</time>
      </trkpt>
      <trkpt lat="46.62142" lon="5.48905">
        <ele>249.4</ele>
        <time>2022-03-07T09:02:34Z</time>
      </trkpt>
      <trkpt lat="46.62134" lon="5.48896">
        <ele>248.6</ele>
        <time>2022-03-07T09:02:35Z</time>
      </trkpt>
      <trkpt lat="46.62126" lon="5.48889">
        <ele>248</ele>
        <time>2022-03-07T09:02:36Z</time>
      </trkpt>
      <trkpt lat="46.62117" lon="5.48884">
        <ele>247.2</ele>
        <time>2022-03-07T09:02:37Z</time>
      </trkpt>
      <trkpt lat="46.62107" lon="5.48879">
        <ele>246.6</ele>
        <time>2022-03-07T09:02:38Z</time>
      </trkpt>
      <trkpt lat="46.62098" lon="5.48872">
        <ele>245.8</ele>
        <time>2022-03-07T09:02:39Z</time>
      </trkpt>
      <trkpt lat="46.6209" lon="5.48866">
        <ele>245.2</ele>
        <time>2022-03-07T09:02:40Z</time>
      </trkpt>
      <trkpt lat="46.62082" lon="5.4886">
        <ele>244.6</ele>
        <time>2022-03-07T09:02:41Z</time>
      </trkpt>
      <trkpt lat="46.62073" lon="5.48853">
        <ele>244</ele>
        <time>2022-03-07T09:02:42Z</time>
      </trkpt>
      <trkpt lat="46.62065" lon="5.48847">
        <ele>243.6</ele>
        <time>2022-03-07T09:02:43Z</time>
      </trkpt>
      <trkpt lat="46.62057" lon="5.4884">
        <ele>243</ele>
        <time>2022-03-07T09:02:44Z</time>
      </trkpt>
      <trkpt lat="46.6205" lon="5.48834">
        <ele>242.6</ele>
        <time>2022-03-07T09:02:45Z</time>
      </trkpt>
      <trkpt lat="46.62042" lon="5.48828">
        <ele>242</ele>
        <time>2022-03-07T09:02:46Z</time>
      </trkpt>
      <trkpt lat="46.62034" lon="5.48822">
        <ele>241.6</ele>
        <time>2022-03-07T09:02:47Z</time>
      </trkpt>
      <trkpt lat="46.62027" lon="5.48815">
        <ele>241.2</ele>
        <time>2022-03-07T09:02:48Z</time>
      </trkpt>
      <trkpt lat="46.62019" lon="5.48808">
        <ele>240.8</ele>
        <time>2022-03-07T09:02:49Z</time>
      </trkpt>
      <trkpt lat="46.62012" lon="5.488">
        <ele>240.4</ele>
        <time>2022-03-07T09:02:50Z</time>
      </trkpt>
      <trkpt lat="46.62005" lon="5.48793">
        <ele>240</ele>
        <time>2022-03-07T09:02:51Z</time>
      </trkpt>
      <trkpt lat="46.61999" lon="5.48785">
        <ele>239.6</ele>
        <time>2022-03-07T09:02:52Z</time>
      </trkpt>
      <trkpt lat="46.61993" lon="5.48778">
        <ele>239.2</ele>
        <time>2022-03-07T09:02:53Z</time>
      </trkpt>
      <trkpt lat="46.61986" lon="5.48771">
        <ele>239</ele>
        <time>2022-03-07T09:02:54Z</time>
      </trkpt>
      <trkpt lat="46.61981" lon="5.48764">
        <ele>238.8</ele>
        <time>2022-03-07T09:02:55Z</time>
      </trkpt>
      <trkpt lat="46.61976" lon="5.48757">
        <ele>238.8</ele>
        <time>2022-03-07T09:02:56Z</time>
      </trkpt>
      <trkpt lat="46.61971" lon="5.4875">
        <ele>238.8</ele>
        <time>2022-03-07T09:02:57Z</time>
      </trkpt>
      <trkpt lat="46.61966" lon="5.48744">
        <ele>238.8</ele>
        <time>2022-03-07T09:02:58Z</time>
      </trkpt>
      <trkpt lat="46.61961" lon="5.48738">
        <ele>238.8</ele>
        <time>2022-03-07T09:02:59Z</time>
      </trkpt>
      <trkpt lat="46.61956" lon="5.48732">
        <ele>238.8</ele>
        <time>2022-03-07T09:03:00Z</time>
      </trkpt>
      <trkpt lat="46.61953" lon="5.48726">
        <ele>238.8</ele>
        <time>2022-03-07T09:03:01Z</time>
      </trkpt>
      <trkpt lat="46.61949" lon="5.48719">
        <ele>238.8</ele>
        <time>2022-03-07T09:03:02Z</time>
      </trkpt>
      <trkpt lat="46.61945" lon="5.48714">
        <ele>239.2</ele>
        <time>2022-03-07T09:03:03Z</time>
      </trkpt>
      <trkpt lat="46.61941" lon="5.48708">
        <ele>239.2</ele>
        <time>2022-03-07T09:03:04Z</time>
      </trkpt>
      <trkpt lat="46.61938" lon="5.48702">
        <ele>239.4</ele>
        <time>2022-03-07T09:03:05Z</time>
      </trkpt>
      <trkpt lat="46.61935" lon="5.48697">
        <ele>239.4</ele>
        <time>2022-03-07T09:03:06Z</time>
      </trkpt>
      <trkpt lat="46.61932" lon="5.48692">
        <ele>239.6</ele>
        <time>2022-03-07T09:03:07Z</time>
      </trkpt>
      <trkpt lat="46.61929" lon="5.48687">
        <ele>239.6</ele>
        <time>2022-03-07T09:03:08Z</time>
      </trkpt>
      <trkpt lat="46.61926" lon="5.48682">
        <ele>240</ele>
        <time>2022-03-07T09:03:09Z</time>
      </trkpt>
      <trkpt lat="46.61923" lon="5.48677">
        <ele>240</ele>
        <time>2022-03-07T09:03:10Z</time>
      </trkpt>
      <trkpt lat="46.6192" lon="5.48672">
        <ele>240.2</ele>
        <time>2022-03-07T09:03:11Z</time>
      </trkpt>
      <trkpt lat="46.61917" lon="5.48667">
        <ele>240.2</ele>
        <time>2022-03-07T09:03:12Z</time>
      </trkpt>
      <trkpt lat="46.61914" lon="5.48663">
        <ele>240.4</ele>
        <time>2022-03-07T09:03:13Z</time>
      </trkpt>
      <trkpt lat="46.61912" lon="5.48658">
        <ele>240.4</ele>
        <time>2022-03-07T09:03:14Z</time>
      </trkpt>
      <trkpt lat="46.61909" lon="5.48654">
        <ele>240.8</ele>
        <time>2022-03-07T09:03:15Z</time>
      </trkpt>
      <trkpt lat="46.61907" lon="5.48649">
        <ele>240.8</ele>
        <time>2022-03-07T09:03:16Z</time>
      </trkpt>
      <trkpt lat="46.61904" lon="5.48645">
        <ele>241.2</ele>
        <time>2022-03-07T09:03:17Z</time>
      </trkpt>
      <trkpt lat="46.61902" lon="5.48641">
        <ele>241.2</ele>
        <time>2022-03-07T09:03:18Z</time>
      </trkpt>
      <trkpt lat="46.61899" lon="5.48637">
        <ele>241.4</ele>
        <time>2022-03-07T09:03:19Z</time>
      </trkpt>
      <trkpt lat="46.61896" lon="5.48633">
        <ele>241.4</ele>
        <time>2022-03-07T09:03:20Z</time>
      </trkpt>
      <trkpt lat="46.61894" lon="5.48629">
        <ele>241.8</ele>
        <time>2022-03-07T09:03:21Z</time>
      </trkpt>
      <trkpt lat="46.61891" lon="5.48625">
        <ele>242</ele>
        <time>2022-03-07T09:03:22Z</time>
      </trkpt>
      <trkpt lat="46.61889" lon="5.48621">
        <ele>242</ele>
        <time>2022-03-07T09:03:23Z</time>
      </trkpt>
      <trkpt lat="46.61886" lon="5.48618">
        <ele>242.4</ele>
        <time>2022-03-07T09:03:24Z</time>
      </trkpt>
      <trkpt lat="46.61884" lon="5.48614">
        <ele>242.4</ele>
        <time>2022-03-07T09:03:25Z</time>
      </trkpt>
      <trkpt lat="46.61881" lon="5.48611">
        <ele>242.6</ele>
        <time>2022-03-07T09:03:26Z</time>
      </trkpt>
      <trkpt lat="46.61879" lon="5.48607">
        <ele>243</ele>
        <time>2022-03-07T09:03:27Z</time>
      </trkpt>
      <trkpt lat="46.61876" lon="5.48604">
        <ele>243</ele>
        <time>2022-03-07T09:03:28Z</time>
      </trkpt>
      <trkpt lat="46.61874" lon="5.486">
        <ele>243.4</ele>
        <time>2022-03-07T09:03:29Z</time>
      </trkpt>
      <trkpt lat="46.61871" lon="5.48597">
        <ele>243.6</ele>
        <time>2022-03-07T09:03:30Z</time>
      </trkpt>
      <trkpt lat="46.61869" lon="5.48594">
        <ele>243.8</ele>
        <time>2022-03-07T09:03:31Z</time>
      </trkpt>
      <trkpt lat="46.61866" lon="5.4859">
        <ele>243.8</ele>
        <time>2022-03-07T09:03:32Z</time>
      </trkpt>
      <trkpt lat="46.61864" lon="5.48587">
        <ele>244.2</ele>
        <time>2022-03-07T09:03:33Z</time>
      </trkpt>
      <trkpt lat="46.61861" lon="5.48584">
        <ele>244.2</ele>
        <time>2022-03-07T09:03:34Z</time>
      </trkpt>
      <trkpt lat="46.61859" lon="5.48581">
        <ele>244.6</ele>
        <time>2022-03-07T09:03:35Z</time>
      </trkpt>
      <trkpt lat="46.61857" lon="5.48578">
        <ele>244.6</ele>
        <time>2022-03-07T09:03:36Z</time>
      </trkpt>
      <trkpt lat="46.61854" lon="5.48575">
        <ele>245</ele>
        <time>2022-03-07T09:03:37Z</time>
      </trkpt>
      <trkpt lat="46.61852" lon="5.48571">
        <ele>245</ele>
        <time>2022-03-07T09:03:38Z</time>
      </trkpt>
      <trkpt lat="46.6185" lon="5.48568">
        <ele>245.4</ele>
        <time>2022-03-07T09:03:39Z</time>
      </trkpt>
      <trkpt lat="46.61847" lon="5.48565">
        <ele>245.6</ele>
        <time>2022-03-07T09:03:40Z</time>
      </trkpt>
      <trkpt lat="46.61845" lon="5.48562">
        <ele>245.6</ele>
        <time>2022-03-07T09:03:41Z</time>
      </trkpt>
      <trkpt lat="46.61843" lon="5.48559">
        <ele>245.8</ele>
        <time>2022-03-07T09:03:42Z</time>
      </trkpt>
      <trkpt lat="46.6184" lon="5.48556">
        <ele>245.8</ele>
        <time>2022-03-07T09:03:43Z</time>
      </trkpt>
      <trkpt lat="46.61838" lon="5.48552">
        <ele>246.2</ele>
        <time>2022-03-07T09:03:44Z</time>
      </trkpt>
      <trkpt lat="46.61835" lon="5.48549">
        <ele>246.2</ele>
        <time>2022-03-07T09:03:45Z</time>
      </trkpt>
      <trkpt lat="46.61833" lon="5.48546">
        <ele>246.4</ele>
        <time>2022-03-07T09:03:46Z</time>
      </trkpt>
      <trkpt lat="46.6183" lon="5.48542">
        <ele>246.4</ele>
        <time>2022-03-07T09:03:47Z</time>
      </trkpt>
      <trkpt lat="46.61827" lon="5.48539">
        <ele>246.4</ele>
        <time>2022-03-07T09:03:48Z</time>
      </trkpt>
      <trkpt lat="46.61824" lon="5.48536">
        <ele>246.4</ele>
        <time>2022-03-07T09:03:49Z</time>
      </trkpt>
      <trkpt lat="46.61821" lon="5.48532">
        <ele>246.6</ele>
        <time>2022-03-07T09:03:50Z</time>
      </trkpt>
      <trkpt lat="46.61819" lon="5.48529">
        <ele>246.6</ele>
        <time>2022-03-07T09:03:51Z</time>
      </trkpt>
      <trkpt lat="46.61816" lon="5.48525">
        <ele>246.8</ele>
        <time>2022-03-07T09:03:52Z</time>
      </trkpt>
      <trkpt lat="46.61813" lon="5.48522">
        <ele>246.8</ele>
        <time>2022-03-07T09:03:53Z</time>
      </trkpt>
      <trkpt lat="46.6181" lon="5.48518">
        <ele>246.8</ele>
        <time>2022-03-07T09:03:54Z</time>
      </trkpt>
      <trkpt lat="46.61807" lon="5.48515">
        <ele>246.8</ele>
        <time>2022-03-07T09:03:55Z</time>
      </trkpt>
      <trkpt lat="46.61804" lon="5.48511">
        <ele>246.8</ele>
        <time>2022-03-07T09:03:56Z</time>
      </trkpt>
      <trkpt lat="46.61801" lon="5.48507">
        <ele>246.8</ele>
        <time>2022-03-07T09:03:57Z</time>
      </trkpt>
      <trkpt lat="46.61797" lon="5.48503">
        <ele>246.8</ele>
        <time>2022-03-07T09:03:58Z</time>
      </trkpt>
      <trkpt lat="46.61794" lon="5.48499">
        <ele>246.8</ele>
        <time>2022-03-07T09:03:59Z</time>
      </trkpt>
      <trkpt lat="46.6179" lon="5.48494">
        <ele>246.4</ele>
        <time>2022-03-07T09:04:00Z</time>
      </trkpt>
      <trkpt lat="46.61787" lon="5.48489">
        <ele>246.4</ele>
        <time>2022-03-07T09:04:01Z</time>
      </trkpt>
      <trkpt lat="46.61783" lon="5.48484">
        <ele>246.2</ele>
        <time>2022-03-07T09:04:02Z</time>
      </trkpt>
      <trkpt lat="46.61778" lon="5.48479">
        <ele>246.2</ele>
        <time>2022-03-07T09:04:03Z</time>
      </trkpt>
      <trkpt lat="46.61774" lon="5.48473">
        <ele>245.6</ele>
        <time>2022-03-07T09:04:04Z</time>
      </trkpt>
      <trkpt lat="46.61769" lon="5.48467">
        <ele>245.4</ele>
        <time>2022-03-07T09:04:05Z</time>
      </trkpt>
      <trkpt lat="46.61764" lon="5.48461">
        <ele>245</ele>
        <time>2022-03-07T09:04:06Z</time>
      </trkpt>
      <trkpt lat="46.6176" lon="5.48454">
        <ele>244.8</ele>
        <time>2022-03-07T09:04:07Z</time>
      </trkpt>
      <trkpt lat="46.61754" lon="5.48448">
        <ele>244.4</ele>
        <time>2022-03-07T09:04:08Z</time>
      </trkpt>
      <trkpt lat="46.61749" lon="5.48443">
        <ele>244.2</ele>
        <time>2022-03-07T09:04:09Z</time>
      </trkpt>
      <trkpt lat="46.61744" lon="5.48437">
        <ele>244</ele>
        <time>2022-03-07T09:04:10Z</time>
      </trkpt>
      <trkpt lat="46.61738" lon="5.48431">
        <ele>243.6</ele>
        <time>2022-03-07T09:04:11Z</time>
      </trkpt>
      <trkpt lat="46.61732" lon="5.48425">
        <ele>243.2</ele>
        <time>2022-03-07T09:04:12Z</time>
      </trkpt>
      <trkpt lat="46.61726" lon="5.4842">
        <ele>242.6</ele>
        <time>2022-03-07T09:04:13Z</time>
      </trkpt>
      <trkpt lat="46.6172" lon="5.48414">
        <ele>242.2</ele>
        <time>2022-03-07T09:04:14Z</time>
      </trkpt>
      <trkpt lat="46.61713" lon="5.48408">
        <ele>241.8</ele>
        <time>2022-03-07T09:04:15Z</time>
      </trkpt>
      <trkpt lat="46.61707" lon="5.48403">
        <ele>241.4</ele>
        <time>2022-03-07T09:04:16Z</time>
      </trkpt>
      <trkpt lat="46.61701" lon="5.48398">
        <ele>241</ele>
        <time>2022-03-07T09:04:17Z</time>
      </trkpt>
      <trkpt lat="46.61695" lon="5.48392">
        <ele>240.6</ele>
        <time>2022-03-07T09:04:18Z</time>
      </trkpt>
      <trkpt lat="46.61689" lon="5.48387">
        <ele>240.4</ele>
        <time>2022-03-07T09:04:19Z</time>
      </trkpt>
      <trkpt lat="46.61683" lon="5.48382">
        <ele>240.4</ele>
        <time>2022-03-07T09:04:20Z</time>
      </trkpt>
      <trkpt lat="46.61677" lon="5.48376">
        <ele>240</ele>
        <time>2022-03-07T09:04:21Z</time>
      </trkpt>
      <trkpt lat="46.61672" lon="5.48371">
        <ele>240</ele>
        <time>2022-03-07T09:04:22Z</time>
      </trkpt>
      <trkpt lat="46.61666" lon="5.48366">
        <ele>239.8</ele>
        <time>2022-03-07T09:04:23Z</time>
      </trkpt>
      <trkpt lat="46.61661" lon="5.48361">
        <ele>239.8</ele>
        <time>2022-03-07T09:04:24Z</time>
      </trkpt>
      <trkpt lat="46.61655" lon="5.48356">
        <ele>239.2</ele>
        <time>2022-03-07T09:04:25Z</time>
      </trkpt>
      <trkpt lat="46.6165" lon="5.48352">
        <ele>239.2</ele>
        <time>2022-03-07T09:04:26Z</time>
      </trkpt>
      <trkpt lat="46.61645" lon="5.48347">
        <ele>239</ele>
        <time>2022-03-07T09:04:27Z</time>
      </trkpt>
      <trkpt lat="46.61639" lon="5.48342">
        <ele>239</ele>
        <time>2022-03-07T09:04:28Z</time>
      </trkpt>
      <trkpt lat="46.61634" lon="5.48337">
        <ele>239</ele>
        <time>2022-03-07T09:04:29Z</time>
      </trkpt>
      <trkpt lat="46.61629" lon="5.48332">
        <ele>238.8</ele>
        <time>2022-03-07T09:04:30Z</time>
      </trkpt>
      <trkpt lat="46.61624" lon="5.48328">
        <ele>238.8</ele>
        <time>2022-03-07T09:04:31Z</time>
      </trkpt>
      <trkpt lat="46.61618" lon="5.48323">
        <ele>238.8</ele>
        <time>2022-03-07T09:04:32Z</time>
      </trkpt>
      <trkpt lat="46.61613" lon="5.48318">
        <ele>238.6</ele>
        <time>2022-03-07T09:04:33Z</time>
      </trkpt>
      <trkpt lat="46.61608" lon="5.48313">
        <ele>238.6</ele>
        <time>2022-03-07T09:04:34Z</time>
      </trkpt>
      <trkpt lat="46.61602" lon="5.48308">
        <ele>238.4</ele>
        <time>2022-03-07T09:04:35Z</time>
      </trkpt>
      <trkpt lat="46.61597" lon="5.48303">
        <ele>238.4</ele>
        <time>2022-03-07T09:04:36Z</time>
      </trkpt>
      <trkpt lat="46.61592" lon="5.48299">
        <ele>238.4</ele>
        <time>2022-03-07T09:04:37Z</time>
      </trkpt>
      <trkpt lat="46.61587" lon="5.48294">
        <ele>238</ele>
        <time>2022-03-07T09:04:38Z</time>
      </trkpt>
      <trkpt lat="46.61582" lon="5.48289">
        <ele>238</ele>
        <time>2022-03-07T09:04:39Z</time>
      </trkpt>
      <trkpt lat="46.61576" lon="5.48284">
        <ele>237.8</ele>
        <time>2022-03-07T09:04:40Z</time>
      </trkpt>
      <trkpt lat="46.61571" lon="5.48279">
        <ele>237.8</ele>
        <time>2022-03-07T09:04:41Z</time>
      </trkpt>
      <trkpt lat="46.61566" lon="5.48275">
        <ele>237.8</ele>
        <time>2022-03-07T09:04:42Z</time>
      </trkpt>
      <trkpt lat="46.61562" lon="5.4827">
        <ele>237.8</ele>
        <time>2022-03-07T09:04:43Z</time>
      </trkpt>
      <trkpt lat="46.61557" lon="5.48265">
        <ele>237.8</ele>
        <time>2022-03-07T09:04:44Z</time>
      </trkpt>
      <trkpt lat="46.61552" lon="5.4826">
        <ele>237.8</ele>
        <time>2022-03-07T09:04:45Z</time>
      </trkpt>
      <trkpt lat="46.61547" lon="5.48256">
        <ele>237.6</ele>
        <time>2022-03-07T09:04:46Z</time>
      </trkpt>
      <trkpt lat="46.61542" lon="5.48251">
        <ele>237.6</ele>
        <time>2022-03-07T09:04:47Z</time>
      </trkpt>
      <trkpt lat="46.61537" lon="5.48246">
        <ele>237.6</ele>
        <time>2022-03-07T09:04:48Z</time>
      </trkpt>
      <trkpt lat="46.61532" lon="5.48241">
        <ele>237.4</ele>
        <time>2022-03-07T09:04:49Z</time>
      </trkpt>
      <trkpt lat="46.61528" lon="5.48236">
        <ele>237.4</ele>
        <time>2022-03-07T09:04:50Z</time>
      </trkpt>
      <trkpt lat="46.61523" lon="5.48231">
        <ele>237.2</ele>
        <time>2022-03-07T09:04:51Z</time>
      </trkpt>
      <trkpt lat="46.61518" lon="5.48226">
        <ele>237.2</ele>
        <time>2022-03-07T09:04:52Z</time>
      </trkpt>
      <trkpt lat="46.61512" lon="5.48222">
        <ele>236.8</ele>
        <time>2022-03-07T09:04:53Z</time>
      </trkpt>
      <trkpt lat="46.61507" lon="5.48217">
        <ele>236.8</ele>
        <time>2022-03-07T09:04:54Z</time>
      </trkpt>
      <trkpt lat="46.61502" lon="5.48212">
        <ele>236.6</ele>
        <time>2022-03-07T09:04:55Z</time>
      </trkpt>
      <trkpt lat="46.61502" lon="5.48212">
        <ele>236.6</ele>
        <time>2022-03-07T09:04:56Z</time>
      </trkpt>
      <trkpt lat="46.61496" lon="5.48207">
        <ele>236.4</ele>
        <time>2022-03-07T09:04:57Z</time>
      </trkpt>
      <trkpt lat="46.6149" lon="5.48204">
        <ele>236.4</ele>
        <time>2022-03-07T09:04:58Z</time>
      </trkpt>
      <trkpt lat="46.61484" lon="5.482">
        <ele>236.2</ele>
        <time>2022-03-07T09:04:59Z</time>
      </trkpt>
      <trkpt lat="46.61478" lon="5.48198">
        <ele>236.2</ele>
        <time>2022-03-07T09:05:00Z</time>
      </trkpt>
      <trkpt lat="46.61472" lon="5.48196">
        <ele>236</ele>
        <time>2022-03-07T09:05:01Z</time>
      </trkpt>
      <trkpt lat="46.61466" lon="5.48196">
        <ele>236</ele>
        <time>2022-03-07T09:05:02Z</time>
      </trkpt>
      <trkpt lat="46.61459" lon="5.48196">
        <ele>235.8</ele>
        <time>2022-03-07T09:05:03Z</time>
      </trkpt>
      <trkpt lat="46.61453" lon="5.48196">
        <ele>235.8</ele>
        <time>2022-03-07T09:05:04Z</time>
      </trkpt>
      <trkpt lat="46.61448" lon="5.48196">
        <ele>235.8</ele>
        <time>2022-03-07T09:05:05Z</time>
      </trkpt>
      <trkpt lat="46.61442" lon="5.48196">
        <ele>235.8</ele>
        <time>2022-03-07T09:05:06Z</time>
      </trkpt>
      <trkpt lat="46.61436" lon="5.48196">
        <ele>235.8</ele>
        <time>2022-03-07T09:05:07Z</time>
      </trkpt>
      <trkpt lat="46.61431" lon="5.48196">
        <ele>235.8</ele>
        <time>2022-03-07T09:05:08Z</time>
      </trkpt>
      <trkpt lat="46.6142" lon="5.48195">
        <ele>235.8</ele>
        <time>2022-03-07T09:05:09Z</time>
      </trkpt>
      <trkpt lat="46.61415" lon="5.48194">
        <ele>235.8</ele>
        <time>2022-03-07T09:05:10Z</time>
      </trkpt>
      <trkpt lat="46.61409" lon="5.48193">
        <ele>235.8</ele>
        <time>2022-03-07T09:05:11Z</time>
      </trkpt>
      <trkpt lat="46.61404" lon="5.48192">
        <ele>235.8</ele>
        <time>2022-03-07T09:05:12Z</time>
      </trkpt>
      <trkpt lat="46.614" lon="5.48191">
        <ele>235.8</ele>
        <time>2022-03-07T09:05:13Z</time>
      </trkpt>
      <trkpt lat="46.61395" lon="5.48189">
        <ele>235.8</ele>
        <time>2022-03-07T09:05:14Z</time>
      </trkpt>
      <trkpt lat="46.6139" lon="5.48188">
        <ele>236</ele>
        <time>2022-03-07T09:05:15Z</time>
      </trkpt>
      <trkpt lat="46.61385" lon="5.48186">
        <ele>236</ele>
        <time>2022-03-07T09:05:16Z</time>
      </trkpt>
      <trkpt lat="46.6138" lon="5.48184">
        <ele>236</ele>
        <time>2022-03-07T09:05:17Z</time>
      </trkpt>
      <trkpt lat="46.61376" lon="5.48182">
        <ele>236.2</ele>
        <time>2022-03-07T09:05:18Z</time>
      </trkpt>
      <trkpt lat="46.61371" lon="5.4818">
        <ele>236.2</ele>
        <time>2022-03-07T09:05:19Z</time>
      </trkpt>
      <trkpt lat="46.61366" lon="5.48178">
        <ele>236.2</ele>
        <time>2022-03-07T09:05:20Z</time>
      </trkpt>
      <trkpt lat="46.61362" lon="5.48176">
        <ele>236.4</ele>
        <time>2022-03-07T09:05:21Z</time>
      </trkpt>
      <trkpt lat="46.61357" lon="5.48174">
        <ele>236.4</ele>
        <time>2022-03-07T09:05:22Z</time>
      </trkpt>
      <trkpt lat="46.61352" lon="5.48171">
        <ele>236.4</ele>
        <time>2022-03-07T09:05:23Z</time>
      </trkpt>
      <trkpt lat="46.61347" lon="5.48169">
        <ele>236.4</ele>
        <time>2022-03-07T09:05:24Z</time>
      </trkpt>
      <trkpt lat="46.61342" lon="5.48167">
        <ele>236.4</ele>
        <time>2022-03-07T09:05:25Z</time>
      </trkpt>
      <trkpt lat="46.61338" lon="5.48165">
        <ele>236.4</ele>
        <time>2022-03-07T09:05:26Z</time>
      </trkpt>
      <trkpt lat="46.61333" lon="5.48163">
        <ele>236.4</ele>
        <time>2022-03-07T09:05:27Z</time>
      </trkpt>
      <trkpt lat="46.61328" lon="5.48161">
        <ele>236.4</ele>
        <time>2022-03-07T09:05:28Z</time>
      </trkpt>
      <trkpt lat="46.61323" lon="5.48159">
        <ele>236.4</ele>
        <time>2022-03-07T09:05:29Z</time>
      </trkpt>
      <trkpt lat="46.61318" lon="5.48157">
        <ele>236.4</ele>
        <time>2022-03-07T09:05:30Z</time>
      </trkpt>
      <trkpt lat="46.61313" lon="5.48155">
        <ele>236.4</ele>
        <time>2022-03-07T09:05:31Z</time>
      </trkpt>
      <trkpt lat="46.61309" lon="5.48154">
        <ele>236.4</ele>
        <time>2022-03-07T09:05:32Z</time>
      </trkpt>
      <trkpt lat="46.61304" lon="5.48152">
        <ele>236.4</ele>
        <time>2022-03-07T09:05:33Z</time>
      </trkpt>
      <trkpt lat="46.61299" lon="5.48151">
        <ele>236.4</ele>
        <time>2022-03-07T09:05:34Z</time>
      </trkpt>
      <trkpt lat="46.61294" lon="5.4815">
        <ele>236.4</ele>
        <time>2022-03-07T09:05:35Z</time>
      </trkpt>
      <trkpt lat="46.61289" lon="5.48149">
        <ele>236.2</ele>
        <time>2022-03-07T09:05:36Z</time>
      </trkpt>
      <trkpt lat="46.61284" lon="5.48148">
        <ele>236.2</ele>
        <time>2022-03-07T09:05:37Z</time>
      </trkpt>
      <trkpt lat="46.61279" lon="5.48147">
        <ele>236.2</ele>
        <time>2022-03-07T09:05:38Z</time>
      </trkpt>
      <trkpt lat="46.61274" lon="5.48146">
        <ele>236.2</ele>
        <time>2022-03-07T09:05:39Z</time>
      </trkpt>
      <trkpt lat="46.61269" lon="5.48145">
        <ele>236.2</ele>
        <time>2022-03-07T09:05:40Z</time>
      </trkpt>
      <trkpt lat="46.61264" lon="5.48145">
        <ele>236.2</ele>
        <time>2022-03-07T09:05:41Z</time>
      </trkpt>
      <trkpt lat="46.61259" lon="5.48144">
        <ele>236.2</ele>
        <time>2022-03-07T09:05:42Z</time>
      </trkpt>
      <trkpt lat="46.61254" lon="5.48143">
        <ele>236.2</ele>
        <time>2022-03-07T09:05:43Z</time>
      </trkpt>
      <trkpt lat="46.61249" lon="5.48143">
        <ele>236.2</ele>
        <time>2022-03-07T09:05:44Z</time>
      </trkpt>
      <trkpt lat="46.61244" lon="5.48142">
        <ele>236.2</ele>
        <time>2022-03-07T09:05:45Z</time>
      </trkpt>
      <trkpt lat="46.61239" lon="5.48141">
        <ele>236.2</ele>
        <time>2022-03-07T09:05:46Z</time>
      </trkpt>
      <trkpt lat="46.61234" lon="5.48141">
        <ele>236.2</ele>
        <time>2022-03-07T09:05:47Z</time>
      </trkpt>
      <trkpt lat="46.61229" lon="5.4814">
        <ele>236.2</ele>
        <time>2022-03-07T09:05:48Z</time>
      </trkpt>
      <trkpt lat="46.61224" lon="5.48138">
        <ele>236.2</ele>
        <time>2022-03-07T09:05:49Z</time>
      </trkpt>
      <trkpt lat="46.61218" lon="5.48136">
        <ele>236.2</ele>
        <time>2022-03-07T09:05:50Z</time>
      </trkpt>
      <trkpt lat="46.61213" lon="5.48133">
        <ele>236</ele>
        <time>2022-03-07T09:05:51Z</time>
      </trkpt>
      <trkpt lat="46.61208" lon="5.4813">
        <ele>236</ele>
        <time>2022-03-07T09:05:52Z</time>
      </trkpt>
      <trkpt lat="46.61203" lon="5.48127">
        <ele>235.4</ele>
        <time>2022-03-07T09:05:53Z</time>
      </trkpt>
      <trkpt lat="46.61198" lon="5.48124">
        <ele>235.4</ele>
        <time>2022-03-07T09:05:54Z</time>
      </trkpt>
      <trkpt lat="46.61193" lon="5.4812">
        <ele>235.2</ele>
        <time>2022-03-07T09:05:55Z</time>
      </trkpt>
      <trkpt lat="46.61187" lon="5.48117">
        <ele>235.2</ele>
        <time>2022-03-07T09:05:56Z</time>
      </trkpt>
      <trkpt lat="46.61182" lon="5.48113">
        <ele>235</ele>
        <time>2022-03-07T09:05:57Z</time>
      </trkpt>
      <trkpt lat="46.61176" lon="5.48109">
        <ele>235</ele>
        <time>2022-03-07T09:05:58Z</time>
      </trkpt>
      <trkpt lat="46.61171" lon="5.48105">
        <ele>234.8</ele>
        <time>2022-03-07T09:05:59Z</time>
      </trkpt>
      <trkpt lat="46.61165" lon="5.48102">
        <ele>234.8</ele>
        <time>2022-03-07T09:06:00Z</time>
      </trkpt>
      <trkpt lat="46.61159" lon="5.48099">
        <ele>234.2</ele>
        <time>2022-03-07T09:06:01Z</time>
      </trkpt>
      <trkpt lat="46.61153" lon="5.48096">
        <ele>234</ele>
        <time>2022-03-07T09:06:02Z</time>
      </trkpt>
      <trkpt lat="46.61147" lon="5.48093">
        <ele>233.8</ele>
        <time>2022-03-07T09:06:03Z</time>
      </trkpt>
      <trkpt lat="46.6114" lon="5.48091">
        <ele>233.4</ele>
        <time>2022-03-07T09:06:04Z</time>
      </trkpt>
      <trkpt lat="46.61134" lon="5.48089">
        <ele>233.4</ele>
        <time>2022-03-07T09:06:05Z</time>
      </trkpt>
      <trkpt lat="46.61127" lon="5.48087">
        <ele>233</ele>
        <time>2022-03-07T09:06:06Z</time>
      </trkpt>
      <trkpt lat="46.61121" lon="5.48085">
        <ele>233</ele>
        <time>2022-03-07T09:06:07Z</time>
      </trkpt>
      <trkpt lat="46.61114" lon="5.48083">
        <ele>232.6</ele>
        <time>2022-03-07T09:06:08Z</time>
      </trkpt>
      <trkpt lat="46.61108" lon="5.48081">
        <ele>232.6</ele>
        <time>2022-03-07T09:06:09Z</time>
      </trkpt>
      <trkpt lat="46.61101" lon="5.48078">
        <ele>232.6</ele>
        <time>2022-03-07T09:06:10Z</time>
      </trkpt>
      <trkpt lat="46.61095" lon="5.48076">
        <ele>232.4</ele>
        <time>2022-03-07T09:06:11Z</time>
      </trkpt>
      <trkpt lat="46.61089" lon="5.48072">
        <ele>232.4</ele>
        <time>2022-03-07T09:06:12Z</time>
      </trkpt>
      <trkpt lat="46.61083" lon="5.48069">
        <ele>232.4</ele>
        <time>2022-03-07T09:06:13Z</time>
      </trkpt>
      <trkpt lat="46.61077" lon="5.48065">
        <ele>232.2</ele>
        <time>2022-03-07T09:06:14Z</time>
      </trkpt>
      <trkpt lat="46.61072" lon="5.48061">
        <ele>232.2</ele>
        <time>2022-03-07T09:06:15Z</time>
      </trkpt>
      <trkpt lat="46.61066" lon="5.48058">
        <ele>232.2</ele>
        <time>2022-03-07T09:06:16Z</time>
      </trkpt>
      <trkpt lat="46.61061" lon="5.48054">
        <ele>232.2</ele>
        <time>2022-03-07T09:06:17Z</time>
      </trkpt>
      <trkpt lat="46.61055" lon="5.4805">
        <ele>232.2</ele>
        <time>2022-03-07T09:06:18Z</time>
      </trkpt>
      <trkpt lat="46.6105" lon="5.48047">
        <ele>232</ele>
        <time>2022-03-07T09:06:19Z</time>
      </trkpt>
      <trkpt lat="46.61045" lon="5.48043">
        <ele>232</ele>
        <time>2022-03-07T09:06:20Z</time>
      </trkpt>
      <trkpt lat="46.61039" lon="5.4804">
        <ele>232</ele>
        <time>2022-03-07T09:06:21Z</time>
      </trkpt>
      <trkpt lat="46.61034" lon="5.48037">
        <ele>232</ele>
        <time>2022-03-07T09:06:22Z</time>
      </trkpt>
      <trkpt lat="46.61029" lon="5.48035">
        <ele>232</ele>
        <time>2022-03-07T09:06:23Z</time>
      </trkpt>
      <trkpt lat="46.61024" lon="5.48032">
        <ele>232</ele>
        <time>2022-03-07T09:06:24Z</time>
      </trkpt>
      <trkpt lat="46.61019" lon="5.4803">
        <ele>232</ele>
        <time>2022-03-07T09:06:25Z</time>
      </trkpt>
      <trkpt lat="46.61015" lon="5.48027">
        <ele>232</ele>
        <time>2022-03-07T09:06:26Z</time>
      </trkpt>
      <trkpt lat="46.6101" lon="5.48025">
        <ele>232</ele>
        <time>2022-03-07T09:06:27Z</time>
      </trkpt>
      <trkpt lat="46.61006" lon="5.48022">
        <ele>232</ele>
        <time>2022-03-07T09:06:28Z</time>
      </trkpt>
      <trkpt lat="46.61001" lon="5.48019">
        <ele>232</ele>
        <time>2022-03-07T09:06:29Z</time>
      </trkpt>
      <trkpt lat="46.60997" lon="5.48017">
        <ele>232.2</ele>
        <time>2022-03-07T09:06:30Z</time>
      </trkpt>
      <trkpt lat="46.60992" lon="5.48015">
        <ele>232.2</ele>
        <time>2022-03-07T09:06:31Z</time>
      </trkpt>
      <trkpt lat="46.60988" lon="5.48012">
        <ele>232.2</ele>
        <time>2022-03-07T09:06:32Z</time>
      </trkpt>
      <trkpt lat="46.60984" lon="5.4801">
        <ele>232.2</ele>
        <time>2022-03-07T09:06:33Z</time>
      </trkpt>
      <trkpt lat="46.6098" lon="5.48008">
        <ele>232.2</ele>
        <time>2022-03-07T09:06:34Z</time>
      </trkpt>
      <trkpt lat="46.60976" lon="5.48005">
        <ele>232.4</ele>
        <time>2022-03-07T09:06:35Z</time>
      </trkpt>
      <trkpt lat="46.60972" lon="5.48003">
        <ele>232.4</ele>
        <time>2022-03-07T09:06:36Z</time>
      </trkpt>
      <trkpt lat="46.60968" lon="5.48001">
        <ele>232.4</ele>
        <time>2022-03-07T09:06:37Z</time>
      </trkpt>
      <trkpt lat="46.60963" lon="5.47999">
        <ele>232.4</ele>
        <time>2022-03-07T09:06:38Z</time>
      </trkpt>
      <trkpt lat="46.60959" lon="5.47997">
        <ele>232.6</ele>
        <time>2022-03-07T09:06:39Z</time>
      </trkpt>
      <trkpt lat="46.60955" lon="5.47994">
        <ele>232.6</ele>
        <time>2022-03-07T09:06:40Z</time>
      </trkpt>
      <trkpt lat="46.60951" lon="5.47992">
        <ele>232.6</ele>
        <time>2022-03-07T09:06:41Z</time>
      </trkpt>
      <trkpt lat="46.60947" lon="5.47991">
        <ele>232.6</ele>
        <time>2022-03-07T09:06:42Z</time>
      </trkpt>
      <trkpt lat="46.60943" lon="5.47989">
        <ele>232.6</ele>
        <time>2022-03-07T09:06:43Z</time>
      </trkpt>
      <trkpt lat="46.60939" lon="5.47987">
        <ele>232.6</ele>
        <time>2022-03-07T09:06:44Z</time>
      </trkpt>
      <trkpt lat="46.60935" lon="5.47986">
        <ele>232.6</ele>
        <time>2022-03-07T09:06:45Z</time>
      </trkpt>
      <trkpt lat="46.60931" lon="5.47985">
        <ele>232.8</ele>
        <time>2022-03-07T09:06:46Z</time>
      </trkpt>
      <trkpt lat="46.60926" lon="5.47983">
        <ele>232.8</ele>
        <time>2022-03-07T09:06:47Z</time>
      </trkpt>
      <trkpt lat="46.60922" lon="5.47982">
        <ele>232.8</ele>
        <time>2022-03-07T09:06:48Z</time>
      </trkpt>
      <trkpt lat="46.60918" lon="5.47981">
        <ele>232.8</ele>
        <time>2022-03-07T09:06:49Z</time>
      </trkpt>
      <trkpt lat="46.60914" lon="5.4798">
        <ele>232.8</ele>
        <time>2022-03-07T09:06:50Z</time>
      </trkpt>
      <trkpt lat="46.6091" lon="5.47978">
        <ele>232.8</ele>
        <time>2022-03-07T09:06:51Z</time>
      </trkpt>
      <trkpt lat="46.60906" lon="5.47977">
        <ele>232.8</ele>
        <time>2022-03-07T09:06:52Z</time>
      </trkpt>
      <trkpt lat="46.60901" lon="5.47976">
        <ele>233</ele>
        <time>2022-03-07T09:06:53Z</time>
      </trkpt>
      <trkpt lat="46.60897" lon="5.47975">
        <ele>233</ele>
        <time>2022-03-07T09:06:54Z</time>
      </trkpt>
      <trkpt lat="46.60893" lon="5.47974">
        <ele>233</ele>
        <time>2022-03-07T09:06:55Z</time>
      </trkpt>
      <trkpt lat="46.60889" lon="5.47973">
        <ele>233</ele>
        <time>2022-03-07T09:06:56Z</time>
      </trkpt>
      <trkpt lat="46.60885" lon="5.47972">
        <ele>233.2</ele>
        <time>2022-03-07T09:06:57Z</time>
      </trkpt>
      <trkpt lat="46.60881" lon="5.47971">
        <ele>233.2</ele>
        <time>2022-03-07T09:06:58Z</time>
      </trkpt>
      <trkpt lat="46.60877" lon="5.4797">
        <ele>233.2</ele>
        <time>2022-03-07T09:06:59Z</time>
      </trkpt>
      <trkpt lat="46.60873" lon="5.4797">
        <ele>233.4</ele>
        <time>2022-03-07T09:07:00Z</time>
      </trkpt>
      <trkpt lat="46.60869" lon="5.47969">
        <ele>233.4</ele>
        <time>2022-03-07T09:07:01Z</time>
      </trkpt>
      <trkpt lat="46.60865" lon="5.47968">
        <ele>233.4</ele>
        <time>2022-03-07T09:07:02Z</time>
      </trkpt>
      <trkpt lat="46.60861" lon="5.47967">
        <ele>233.4</ele>
        <time>2022-03-07T09:07:03Z</time>
      </trkpt>
      <trkpt lat="46.60857" lon="5.47966">
        <ele>233.8</ele>
        <time>2022-03-07T09:07:04Z</time>
      </trkpt>
      <trkpt lat="46.60853" lon="5.47965">
        <ele>233.8</ele>
        <time>2022-03-07T09:07:05Z</time>
      </trkpt>
      <trkpt lat="46.60849" lon="5.47964">
        <ele>233.8</ele>
        <time>2022-03-07T09:07:06Z</time>
      </trkpt>
      <trkpt lat="46.60845" lon="5.47963">
        <ele>233.8</ele>
        <time>2022-03-07T09:07:07Z</time>
      </trkpt>
      <trkpt lat="46.6084" lon="5.47961">
        <ele>234</ele>
        <time>2022-03-07T09:07:08Z</time>
      </trkpt>
      <trkpt lat="46.60836" lon="5.47961">
        <ele>234</ele>
        <time>2022-03-07T09:07:09Z</time>
      </trkpt>
      <trkpt lat="46.60832" lon="5.4796">
        <ele>234</ele>
        <time>2022-03-07T09:07:10Z</time>
      </trkpt>
      <trkpt lat="46.60827" lon="5.47959">
        <ele>234</ele>
        <time>2022-03-07T09:07:11Z</time>
      </trkpt>
      <trkpt lat="46.60823" lon="5.47958">
        <ele>234</ele>
        <time>2022-03-07T09:07:12Z</time>
      </trkpt>
      <trkpt lat="46.60819" lon="5.47957">
        <ele>234</ele>
        <time>2022-03-07T09:07:13Z</time>
      </trkpt>
      <trkpt lat="46.60815" lon="5.47956">
        <ele>234</ele>
        <time>2022-03-07T09:07:14Z</time>
      </trkpt>
      <trkpt lat="46.60811" lon="5.47954">
        <ele>234</ele>
        <time>2022-03-07T09:07:15Z</time>
      </trkpt>
      <trkpt lat="46.60807" lon="5.47952">
        <ele>234</ele>
        <time>2022-03-07T09:07:16Z</time>
      </trkpt>
      <trkpt lat="46.60803" lon="5.4795">
        <ele>234</ele>
        <time>2022-03-07T09:07:17Z</time>
      </trkpt>
      <trkpt lat="46.60799" lon="5.47948">
        <ele>234.2</ele>
        <time>2022-03-07T09:07:18Z</time>
      </trkpt>
      <trkpt lat="46.60795" lon="5.47945">
        <ele>234.2</ele>
        <time>2022-03-07T09:07:19Z</time>
      </trkpt>
      <trkpt lat="46.60791" lon="5.47943">
        <ele>234.4</ele>
        <time>2022-03-07T09:07:20Z</time>
      </trkpt>
      <trkpt lat="46.60787" lon="5.47941">
        <ele>234.4</ele>
        <time>2022-03-07T09:07:21Z</time>
      </trkpt>
      <trkpt lat="46.60783" lon="5.47939">
        <ele>234.4</ele>
        <time>2022-03-07T09:07:22Z</time>
      </trkpt>
      <trkpt lat="46.60779" lon="5.47937">
        <ele>234.6</ele>
        <time>2022-03-07T09:07:23Z</time>
      </trkpt>
      <trkpt lat="46.60775" lon="5.47935">
        <ele>234.6</ele>
        <time>2022-03-07T09:07:24Z</time>
      </trkpt>
      <trkpt lat="46.60771" lon="5.47933">
        <ele>234.6</ele>
        <time>2022-03-07T09:07:25Z</time>
      </trkpt>
      <trkpt lat="46.60768" lon="5.47931">
        <ele>235</ele>
        <time>2022-03-07T09:07:26Z</time>
      </trkpt>
      <trkpt lat="46.60764" lon="5.47929">
        <ele>235</ele>
        <time>2022-03-07T09:07:27Z</time>
      </trkpt>
      <trkpt lat="46.60761" lon="5.47927">
        <ele>235.2</ele>
        <time>2022-03-07T09:07:28Z</time>
      </trkpt>
      <trkpt lat="46.60757" lon="5.47924">
        <ele>235.2</ele>
        <time>2022-03-07T09:07:29Z</time>
      </trkpt>
      <trkpt lat="46.60754" lon="5.47922">
        <ele>235.2</ele>
        <time>2022-03-07T09:07:30Z</time>
      </trkpt>
      <trkpt lat="46.6075" lon="5.47919">
        <ele>235.4</ele>
        <time>2022-03-07T09:07:31Z</time>
      </trkpt>
      <trkpt lat="46.60747" lon="5.47917">
        <ele>235.4</ele>
        <time>2022-03-07T09:07:32Z</time>
      </trkpt>
      <trkpt lat="46.60743" lon="5.47915">
        <ele>235.4</ele>
        <time>2022-03-07T09:07:33Z</time>
      </trkpt>
      <trkpt lat="46.60739" lon="5.47913">
        <ele>235.8</ele>
        <time>2022-03-07T09:07:34Z</time>
      </trkpt>
      <trkpt lat="46.60736" lon="5.4791">
        <ele>235.8</ele>
        <time>2022-03-07T09:07:35Z</time>
      </trkpt>
      <trkpt lat="46.60732" lon="5.47907">
        <ele>235.8</ele>
        <time>2022-03-07T09:07:36Z</time>
      </trkpt>
      <trkpt lat="46.60729" lon="5.47904">
        <ele>235.8</ele>
        <time>2022-03-07T09:07:37Z</time>
      </trkpt>
      <trkpt lat="46.60726" lon="5.47901">
        <ele>235.8</ele>
        <time>2022-03-07T09:07:38Z</time>
      </trkpt>
      <trkpt lat="46.60722" lon="5.47898">
        <ele>236</ele>
        <time>2022-03-07T09:07:39Z</time>
      </trkpt>
      <trkpt lat="46.60719" lon="5.47895">
        <ele>236</ele>
        <time>2022-03-07T09:07:40Z</time>
      </trkpt>
      <trkpt lat="46.60715" lon="5.47892">
        <ele>236.2</ele>
        <time>2022-03-07T09:07:41Z</time>
      </trkpt>
      <trkpt lat="46.60712" lon="5.4789">
        <ele>236.2</ele>
        <time>2022-03-07T09:07:42Z</time>
      </trkpt>
      <trkpt lat="46.60708" lon="5.47887">
        <ele>236.2</ele>
        <time>2022-03-07T09:07:43Z</time>
      </trkpt>
      <trkpt lat="46.60705" lon="5.47885">
        <ele>236.2</ele>
        <time>2022-03-07T09:07:44Z</time>
      </trkpt>
      <trkpt lat="46.60701" lon="5.47883">
        <ele>236.6</ele>
        <time>2022-03-07T09:07:45Z</time>
      </trkpt>
      <trkpt lat="46.60697" lon="5.47881">
        <ele>236.6</ele>
        <time>2022-03-07T09:07:46Z</time>
      </trkpt>
      <trkpt lat="46.60693" lon="5.47879">
        <ele>236.6</ele>
        <time>2022-03-07T09:07:47Z</time>
      </trkpt>
      <trkpt lat="46.6069" lon="5.47878">
        <ele>236.6</ele>
        <time>2022-03-07T09:07:48Z</time>
      </trkpt>
      <trkpt lat="46.60686" lon="5.47877">
        <ele>236.8</ele>
        <time>2022-03-07T09:07:49Z</time>
      </trkpt>
      <trkpt lat="46.60682" lon="5.47876">
        <ele>236.8</ele>
        <time>2022-03-07T09:07:50Z</time>
      </trkpt>
      <trkpt lat="46.60678" lon="5.47876">
        <ele>237</ele>
        <time>2022-03-07T09:07:51Z</time>
      </trkpt>
      <trkpt lat="46.60674" lon="5.47876">
        <ele>237</ele>
        <time>2022-03-07T09:07:52Z</time>
      </trkpt>
      <trkpt lat="46.6067" lon="5.47877">
        <ele>237.4</ele>
        <time>2022-03-07T09:07:53Z</time>
      </trkpt>
      <trkpt lat="46.60666" lon="5.47878">
        <ele>237.4</ele>
        <time>2022-03-07T09:07:54Z</time>
      </trkpt>
      <trkpt lat="46.60663" lon="5.47879">
        <ele>237.6</ele>
        <time>2022-03-07T09:07:55Z</time>
      </trkpt>
      <trkpt lat="46.6066" lon="5.4788">
        <ele>237.6</ele>
        <time>2022-03-07T09:07:56Z</time>
      </trkpt>
      <trkpt lat="46.60657" lon="5.4788">
        <ele>238</ele>
        <time>2022-03-07T09:07:57Z</time>
      </trkpt>
      <trkpt lat="46.60653" lon="5.47881">
        <ele>238</ele>
        <time>2022-03-07T09:07:58Z</time>
      </trkpt>
      <trkpt lat="46.6065" lon="5.47881">
        <ele>238.2</ele>
        <time>2022-03-07T09:07:59Z</time>
      </trkpt>
      <trkpt lat="46.60647" lon="5.47881">
        <ele>238.2</ele>
        <time>2022-03-07T09:08:00Z</time>
      </trkpt>
      <trkpt lat="46.60643" lon="5.47881">
        <ele>238.6</ele>
        <time>2022-03-07T09:08:01Z</time>
      </trkpt>
      <trkpt lat="46.6064" lon="5.47881">
        <ele>238.6</ele>
        <time>2022-03-07T09:08:02Z</time>
      </trkpt>
      <trkpt lat="46.60636" lon="5.4788">
        <ele>238.8</ele>
        <time>2022-03-07T09:08:03Z</time>
      </trkpt>
      <trkpt lat="46.60632" lon="5.4788">
        <ele>238.8</ele>
        <time>2022-03-07T09:08:04Z</time>
      </trkpt>
      <trkpt lat="46.60629" lon="5.47879">
        <ele>239</ele>
        <time>2022-03-07T09:08:05Z</time>
      </trkpt>
      <trkpt lat="46.60625" lon="5.47878">
        <ele>239</ele>
        <time>2022-03-07T09:08:06Z</time>
      </trkpt>
      <trkpt lat="46.60622" lon="5.47878">
        <ele>239.2</ele>
        <time>2022-03-07T09:08:07Z</time>
      </trkpt>
      <trkpt lat="46.60618" lon="5.47877">
        <ele>239.2</ele>
        <time>2022-03-07T09:08:08Z</time>
      </trkpt>
      <trkpt lat="46.60614" lon="5.47877">
        <ele>239.2</ele>
        <time>2022-03-07T09:08:09Z</time>
      </trkpt>
      <trkpt lat="46.6061" lon="5.47877">
        <ele>239.4</ele>
        <time>2022-03-07T09:08:10Z</time>
      </trkpt>
      <trkpt lat="46.60606" lon="5.47876">
        <ele>239.4</ele>
        <time>2022-03-07T09:08:11Z</time>
      </trkpt>
      <trkpt lat="46.60603" lon="5.47876">
        <ele>239.4</ele>
        <time>2022-03-07T09:08:12Z</time>
      </trkpt>
      <trkpt lat="46.60599" lon="5.47875">
        <ele>239.6</ele>
        <time>2022-03-07T09:08:13Z</time>
      </trkpt>
      <trkpt lat="46.60595" lon="5.47874">
        <ele>239.6</ele>
        <time>2022-03-07T09:08:14Z</time>
      </trkpt>
      <trkpt lat="46.60591" lon="5.47873">
        <ele>239.6</ele>
        <time>2022-03-07T09:08:15Z</time>
      </trkpt>
      <trkpt lat="46.60587" lon="5.47873">
        <ele>239.6</ele>
        <time>2022-03-07T09:08:16Z</time>
      </trkpt>
      <trkpt lat="46.60583" lon="5.47872">
        <ele>239.6</ele>
        <time>2022-03-07T09:08:17Z</time>
      </trkpt>
      <trkpt lat="46.60579" lon="5.47871">
        <ele>240</ele>
        <time>2022-03-07T09:08:18Z</time>
      </trkpt>
      <trkpt lat="46.60575" lon="5.47871">
        <ele>240</ele>
        <time>2022-03-07T09:08:19Z</time>
      </trkpt>
      <trkpt lat="46.60571" lon="5.4787">
        <ele>240</ele>
        <time>2022-03-07T09:08:20Z</time>
      </trkpt>
      <trkpt lat="46.60567" lon="5.47869">
        <ele>240</ele>
        <time>2022-03-07T09:08:21Z</time>
      </trkpt>
      <trkpt lat="46.60563" lon="5.47869">
        <ele>240</ele>
        <time>2022-03-07T09:08:22Z</time>
      </trkpt>
      <trkpt lat="46.60559" lon="5.47868">
        <ele>240</ele>
        <time>2022-03-07T09:08:23Z</time>
      </trkpt>
      <trkpt lat="46.60555" lon="5.47867">
        <ele>240</ele>
        <time>2022-03-07T09:08:24Z</time>
      </trkpt>
      <trkpt lat="46.60552" lon="5.47867">
        <ele>240.2</ele>
        <time>2022-03-07T09:08:25Z</time>
      </trkpt>
      <trkpt lat="46.60548" lon="5.47866">
        <ele>240.2</ele>
        <time>2022-03-07T09:08:26Z</time>
      </trkpt>
      <trkpt lat="46.60544" lon="5.47865">
        <ele>240.2</ele>
        <time>2022-03-07T09:08:27Z</time>
      </trkpt>
      <trkpt lat="46.6054" lon="5.47865">
        <ele>240.4</ele>
        <time>2022-03-07T09:08:28Z</time>
      </trkpt>
      <trkpt lat="46.60537" lon="5.47864">
        <ele>240.4</ele>
        <time>2022-03-07T09:08:29Z</time>
      </trkpt>
      <trkpt lat="46.60533" lon="5.47863">
        <ele>240.4</ele>
        <time>2022-03-07T09:08:30Z</time>
      </trkpt>
      <trkpt lat="46.60529" lon="5.47862">
        <ele>240.8</ele>
        <time>2022-03-07T09:08:31Z</time>
      </trkpt>
      <trkpt lat="46.60526" lon="5.47861">
        <ele>240.8</ele>
        <time>2022-03-07T09:08:32Z</time>
      </trkpt>
      <trkpt lat="46.60522" lon="5.4786">
        <ele>241</ele>
        <time>2022-03-07T09:08:33Z</time>
      </trkpt>
      <trkpt lat="46.60518" lon="5.4786">
        <ele>241</ele>
        <time>2022-03-07T09:08:34Z</time>
      </trkpt>
      <trkpt lat="46.60514" lon="5.47859">
        <ele>241.2</ele>
        <time>2022-03-07T09:08:35Z</time>
      </trkpt>
      <trkpt lat="46.60511" lon="5.47857">
        <ele>241.2</ele>
        <time>2022-03-07T09:08:36Z</time>
      </trkpt>
      <trkpt lat="46.60507" lon="5.47856">
        <ele>241.2</ele>
        <time>2022-03-07T09:08:37Z</time>
      </trkpt>
      <trkpt lat="46.60503" lon="5.47855">
        <ele>241.6</ele>
        <time>2022-03-07T09:08:38Z</time>
      </trkpt>
      <trkpt lat="46.60499" lon="5.47853">
        <ele>241.6</ele>
        <time>2022-03-07T09:08:39Z</time>
      </trkpt>
      <trkpt lat="46.60496" lon="5.47851">
        <ele>241.6</ele>
        <time>2022-03-07T09:08:40Z</time>
      </trkpt>
      <trkpt lat="46.60491" lon="5.47848">
        <ele>241.6</ele>
        <time>2022-03-07T09:08:41Z</time>
      </trkpt>
      <trkpt lat="46.60487" lon="5.47845">
        <ele>241.6</ele>
        <time>2022-03-07T09:08:42Z</time>
      </trkpt>
      <trkpt lat="46.60483" lon="5.47841">
        <ele>241.6</ele>
        <time>2022-03-07T09:08:43Z</time>
      </trkpt>
      <trkpt lat="46.60478" lon="5.47838">
        <ele>241.6</ele>
        <time>2022-03-07T09:08:44Z</time>
      </trkpt>
      <trkpt lat="46.60473" lon="5.47834">
        <ele>241.6</ele>
        <time>2022-03-07T09:08:45Z</time>
      </trkpt>
      <trkpt lat="46.60469" lon="5.47831">
        <ele>241.2</ele>
        <time>2022-03-07T09:08:46Z</time>
      </trkpt>
      <trkpt lat="46.60464" lon="5.47828">
        <ele>241.2</ele>
        <time>2022-03-07T09:08:47Z</time>
      </trkpt>
      <trkpt lat="46.60459" lon="5.47825">
        <ele>240.8</ele>
        <time>2022-03-07T09:08:48Z</time>
      </trkpt>
      <trkpt lat="46.60454" lon="5.47822">
        <ele>240.8</ele>
        <time>2022-03-07T09:08:49Z</time>
      </trkpt>
      <trkpt lat="46.60449" lon="5.47819">
        <ele>240.6</ele>
        <time>2022-03-07T09:08:50Z</time>
      </trkpt>
      <trkpt lat="46.60444" lon="5.47817">
        <ele>240.6</ele>
        <time>2022-03-07T09:08:51Z</time>
      </trkpt>
      <trkpt lat="46.60438" lon="5.47815">
        <ele>240.4</ele>
        <time>2022-03-07T09:08:52Z</time>
      </trkpt>
      <trkpt lat="46.60432" lon="5.47813">
        <ele>240.4</ele>
        <time>2022-03-07T09:08:53Z</time>
      </trkpt>
      <trkpt lat="46.60426" lon="5.47812">
        <ele>240</ele>
        <time>2022-03-07T09:08:54Z</time>
      </trkpt>
      <trkpt lat="46.6042" lon="5.47811">
        <ele>240</ele>
        <time>2022-03-07T09:08:55Z</time>
      </trkpt>
      <trkpt lat="46.60414" lon="5.4781">
        <ele>240</ele>
        <time>2022-03-07T09:08:56Z</time>
      </trkpt>
      <trkpt lat="46.60409" lon="5.4781">
        <ele>239.6</ele>
        <time>2022-03-07T09:08:57Z</time>
      </trkpt>
      <trkpt lat="46.60403" lon="5.47809">
        <ele>239.6</ele>
        <time>2022-03-07T09:08:58Z</time>
      </trkpt>
      <trkpt lat="46.60398" lon="5.47809">
        <ele>239.6</ele>
        <time>2022-03-07T09:08:59Z</time>
      </trkpt>
      <trkpt lat="46.60392" lon="5.47809">
        <ele>239.6</ele>
        <time>2022-03-07T09:09:00Z</time>
      </trkpt>
      <trkpt lat="46.60388" lon="5.47809">
        <ele>239.6</ele>
        <time>2022-03-07T09:09:01Z</time>
      </trkpt>
      <trkpt lat="46.60383" lon="5.47809">
        <ele>239.6</ele>
        <time>2022-03-07T09:09:02Z</time>
      </trkpt>
      <trkpt lat="46.60379" lon="5.4781">
        <ele>239.6</ele>
        <time>2022-03-07T09:09:03Z</time>
      </trkpt>
      <trkpt lat="46.60374" lon="5.47811">
        <ele>239.8</ele>
        <time>2022-03-07T09:09:04Z</time>
      </trkpt>
      <trkpt lat="46.6037" lon="5.47813">
        <ele>239.8</ele>
        <time>2022-03-07T09:09:05Z</time>
      </trkpt>
      <trkpt lat="46.60367" lon="5.47815">
        <ele>240</ele>
        <time>2022-03-07T09:09:06Z</time>
      </trkpt>
      <trkpt lat="46.60363" lon="5.47818">
        <ele>240</ele>
        <time>2022-03-07T09:09:07Z</time>
      </trkpt>
      <trkpt lat="46.6036" lon="5.4782">
        <ele>240.6</ele>
        <time>2022-03-07T09:09:08Z</time>
      </trkpt>
      <trkpt lat="46.60357" lon="5.47823">
        <ele>240.8</ele>
        <time>2022-03-07T09:09:09Z</time>
      </trkpt>
      <trkpt lat="46.60355" lon="5.47826">
        <ele>241</ele>
        <time>2022-03-07T09:09:10Z</time>
      </trkpt>
      <trkpt lat="46.60352" lon="5.47829">
        <ele>241.4</ele>
        <time>2022-03-07T09:09:11Z</time>
      </trkpt>
      <trkpt lat="46.6035" lon="5.47832">
        <ele>241.6</ele>
        <time>2022-03-07T09:09:12Z</time>
      </trkpt>
      <trkpt lat="46.60347" lon="5.47835">
        <ele>241.8</ele>
        <time>2022-03-07T09:09:13Z</time>
      </trkpt>
      <trkpt lat="46.60344" lon="5.47837">
        <ele>242</ele>
        <time>2022-03-07T09:09:14Z</time>
      </trkpt>
      <trkpt lat="46.60342" lon="5.47839">
        <ele>242.2</ele>
        <time>2022-03-07T09:09:15Z</time>
      </trkpt>
      <trkpt lat="46.60339" lon="5.47842">
        <ele>242.6</ele>
        <time>2022-03-07T09:09:16Z</time>
      </trkpt>
      <trkpt lat="46.60337" lon="5.47845">
        <ele>242.8</ele>
        <time>2022-03-07T09:09:17Z</time>
      </trkpt>
      <trkpt lat="46.60335" lon="5.47848">
        <ele>243.2</ele>
        <time>2022-03-07T09:09:18Z</time>
      </trkpt>
      <trkpt lat="46.60333" lon="5.47851">
        <ele>243.4</ele>
        <time>2022-03-07T09:09:19Z</time>
      </trkpt>
      <trkpt lat="46.60333" lon="5.47851">
        <ele>243.8</ele>
        <time>2022-03-07T09:09:20Z</time>
      </trkpt>
      <trkpt lat="46.60331" lon="5.47854">
        <ele>243.8</ele>
        <time>2022-03-07T09:09:21Z</time>
      </trkpt>
      <trkpt lat="46.60329" lon="5.47856">
        <ele>244</ele>
        <time>2022-03-07T09:09:22Z</time>
      </trkpt>
      <trkpt lat="46.60327" lon="5.47859">
        <ele>244</ele>
        <time>2022-03-07T09:09:23Z</time>
      </trkpt>
      <trkpt lat="46.60325" lon="5.47861">
        <ele>244.4</ele>
        <time>2022-03-07T09:09:24Z</time>
      </trkpt>
      <trkpt lat="46.60322" lon="5.47864">
        <ele>244.4</ele>
        <time>2022-03-07T09:09:25Z</time>
      </trkpt>
      <trkpt lat="46.6032" lon="5.47866">
        <ele>244.4</ele>
        <time>2022-03-07T09:09:26Z</time>
      </trkpt>
      <trkpt lat="46.60317" lon="5.47869">
        <ele>244.4</ele>
        <time>2022-03-07T09:09:27Z</time>
      </trkpt>
      <trkpt lat="46.60314" lon="5.47871">
        <ele>244.6</ele>
        <time>2022-03-07T09:09:28Z</time>
      </trkpt>
      <trkpt lat="46.6031" lon="5.47873">
        <ele>244.6</ele>
        <time>2022-03-07T09:09:29Z</time>
      </trkpt>
      <trkpt lat="46.60306" lon="5.47874">
        <ele>244.6</ele>
        <time>2022-03-07T09:09:30Z</time>
      </trkpt>
      <trkpt lat="46.60302" lon="5.47874">
        <ele>244.2</ele>
        <time>2022-03-07T09:09:31Z</time>
      </trkpt>
      <trkpt lat="46.60298" lon="5.47874">
        <ele>244.2</ele>
        <time>2022-03-07T09:09:32Z</time>
      </trkpt>
      <trkpt lat="46.60293" lon="5.47874">
        <ele>244.2</ele>
        <time>2022-03-07T09:09:33Z</time>
      </trkpt>
      <trkpt lat="46.60289" lon="5.47873">
        <ele>244.2</ele>
        <time>2022-03-07T09:09:34Z</time>
      </trkpt>
      <trkpt lat="46.60284" lon="5.47873">
        <ele>243.8</ele>
        <time>2022-03-07T09:09:35Z</time>
      </trkpt>
      <trkpt lat="46.60279" lon="5.47872">
        <ele>243.6</ele>
        <time>2022-03-07T09:09:36Z</time>
      </trkpt>
      <trkpt lat="46.60269" lon="5.4787">
        <ele>243.6</ele>
        <time>2022-03-07T09:09:37Z</time>
      </trkpt>
      <trkpt lat="46.60264" lon="5.4787">
        <ele>243.4</ele>
        <time>2022-03-07T09:09:38Z</time>
      </trkpt>
      <trkpt lat="46.60258" lon="5.4787">
        <ele>243.4</ele>
        <time>2022-03-07T09:09:39Z</time>
      </trkpt>
      <trkpt lat="46.60253" lon="5.47869">
        <ele>242.8</ele>
        <time>2022-03-07T09:09:40Z</time>
      </trkpt>
      <trkpt lat="46.60247" lon="5.47868">
        <ele>242.8</ele>
        <time>2022-03-07T09:09:41Z</time>
      </trkpt>
      <trkpt lat="46.60242" lon="5.47867">
        <ele>242.4</ele>
        <time>2022-03-07T09:09:42Z</time>
      </trkpt>
      <trkpt lat="46.60236" lon="5.47867">
        <ele>242.2</ele>
        <time>2022-03-07T09:09:43Z</time>
      </trkpt>
      <trkpt lat="46.6023" lon="5.47866">
        <ele>242</ele>
        <time>2022-03-07T09:09:44Z</time>
      </trkpt>
      <trkpt lat="46.60224" lon="5.47866">
        <ele>241.8</ele>
        <time>2022-03-07T09:09:45Z</time>
      </trkpt>
      <trkpt lat="46.60218" lon="5.47864">
        <ele>241.4</ele>
        <time>2022-03-07T09:09:46Z</time>
      </trkpt>
      <trkpt lat="46.60212" lon="5.47862">
        <ele>241.2</ele>
        <time>2022-03-07T09:09:47Z</time>
      </trkpt>
      <trkpt lat="46.60206" lon="5.4786">
        <ele>240.8</ele>
        <time>2022-03-07T09:09:48Z</time>
      </trkpt>
      <trkpt lat="46.602" lon="5.47858">
        <ele>240.8</ele>
        <time>2022-03-07T09:09:49Z</time>
      </trkpt>
      <trkpt lat="46.60193" lon="5.47855">
        <ele>240.4</ele>
        <time>2022-03-07T09:09:50Z</time>
      </trkpt>
      <trkpt lat="46.60186" lon="5.47853">
        <ele>240</ele>
        <time>2022-03-07T09:09:51Z</time>
      </trkpt>
      <trkpt lat="46.60179" lon="5.47851">
        <ele>239.6</ele>
        <time>2022-03-07T09:09:52Z</time>
      </trkpt>
      <trkpt lat="46.60171" lon="5.47849">
        <ele>239.2</ele>
        <time>2022-03-07T09:09:53Z</time>
      </trkpt>
      <trkpt lat="46.60164" lon="5.47848">
        <ele>238.8</ele>
        <time>2022-03-07T09:09:54Z</time>
      </trkpt>
      <trkpt lat="46.60157" lon="5.47846">
        <ele>238.4</ele>
        <time>2022-03-07T09:09:55Z</time>
      </trkpt>
      <trkpt lat="46.60143" lon="5.47844">
        <ele>237.4</ele>
        <time>2022-03-07T09:09:56Z</time>
      </trkpt>
      <trkpt lat="46.60137" lon="5.47843">
        <ele>237</ele>
        <time>2022-03-07T09:09:57Z</time>
      </trkpt>
      <trkpt lat="46.6013" lon="5.47842">
        <ele>236.6</ele>
        <time>2022-03-07T09:09:58Z</time>
      </trkpt>
      <trkpt lat="46.60124" lon="5.47842">
        <ele>236.2</ele>
        <time>2022-03-07T09:09:59Z</time>
      </trkpt>
      <trkpt lat="46.60118" lon="5.47842">
        <ele>235.8</ele>
        <time>2022-03-07T09:10:00Z</time>
      </trkpt>
      <trkpt lat="46.60112" lon="5.47842">
        <ele>235.2</ele>
        <time>2022-03-07T09:10:01Z</time>
      </trkpt>
      <trkpt lat="46.60106" lon="5.47844">
        <ele>234.6</ele>
        <time>2022-03-07T09:10:02Z</time>
      </trkpt>
      <trkpt lat="46.601" lon="5.47845">
        <ele>234.2</ele>
        <time>2022-03-07T09:10:03Z</time>
      </trkpt>
      <trkpt lat="46.60094" lon="5.47848">
        <ele>233.6</ele>
        <time>2022-03-07T09:10:04Z</time>
      </trkpt>
      <trkpt lat="46.60089" lon="5.4785">
        <ele>233.2</ele>
        <time>2022-03-07T09:10:05Z</time>
      </trkpt>
      <trkpt lat="46.60085" lon="5.47854">
        <ele>232.6</ele>
        <time>2022-03-07T09:10:06Z</time>
      </trkpt>
      <trkpt lat="46.60081" lon="5.47856">
        <ele>232.4</ele>
        <time>2022-03-07T09:10:07Z</time>
      </trkpt>
      <trkpt lat="46.60077" lon="5.47859">
        <ele>232</ele>
        <time>2022-03-07T09:10:08Z</time>
      </trkpt>
      <trkpt lat="46.60074" lon="5.4786">
        <ele>231.8</ele>
        <time>2022-03-07T09:10:09Z</time>
      </trkpt>
      <trkpt lat="46.60071" lon="5.47861">
        <ele>231.4</ele>
        <time>2022-03-07T09:10:10Z</time>
      </trkpt>
      <trkpt lat="46.60068" lon="5.47862">
        <ele>231.2</ele>
        <time>2022-03-07T09:10:11Z</time>
      </trkpt>
      <trkpt lat="46.60065" lon="5.47864">
        <ele>231</ele>
        <time>2022-03-07T09:10:12Z</time>
      </trkpt>
      <trkpt lat="46.60063" lon="5.47866">
        <ele>230.6</ele>
        <time>2022-03-07T09:10:13Z</time>
      </trkpt>
      <trkpt lat="46.6006" lon="5.47869">
        <ele>230.4</ele>
        <time>2022-03-07T09:10:14Z</time>
      </trkpt>
      <trkpt lat="46.60058" lon="5.47873">
        <ele>230.2</ele>
        <time>2022-03-07T09:10:15Z</time>
      </trkpt>
      <trkpt lat="46.60056" lon="5.47878">
        <ele>230.2</ele>
        <time>2022-03-07T09:10:16Z</time>
      </trkpt>
      <trkpt lat="46.60053" lon="5.47882">
        <ele>229.6</ele>
        <time>2022-03-07T09:10:17Z</time>
      </trkpt>
      <trkpt lat="46.6005" lon="5.47887">
        <ele>229.6</ele>
        <time>2022-03-07T09:10:18Z</time>
      </trkpt>
      <trkpt lat="46.60046" lon="5.47891">
        <ele>229.2</ele>
        <time>2022-03-07T09:10:19Z</time>
      </trkpt>
      <trkpt lat="46.60042" lon="5.47896">
        <ele>229</ele>
        <time>2022-03-07T09:10:20Z</time>
      </trkpt>
      <trkpt lat="46.60037" lon="5.47901">
        <ele>228.6</ele>
        <time>2022-03-07T09:10:21Z</time>
      </trkpt>
      <trkpt lat="46.60033" lon="5.47906">
        <ele>228.4</ele>
        <time>2022-03-07T09:10:22Z</time>
      </trkpt>
      <trkpt lat="46.60028" lon="5.47912">
        <ele>228</ele>
        <time>2022-03-07T09:10:23Z</time>
      </trkpt>
      <trkpt lat="46.60024" lon="5.47916">
        <ele>227.8</ele>
        <time>2022-03-07T09:10:24Z</time>
      </trkpt>
      <trkpt lat="46.60021" lon="5.4792">
        <ele>227.8</ele>
        <time>2022-03-07T09:10:25Z</time>
      </trkpt>
      <trkpt lat="46.60018" lon="5.47924">
        <ele>227.4</ele>
        <time>2022-03-07T09:10:26Z</time>
      </trkpt>
      <trkpt lat="46.60015" lon="5.47927">
        <ele>227.2</ele>
        <time>2022-03-07T09:10:27Z</time>
      </trkpt>
      <trkpt lat="46.60012" lon="5.47932">
        <ele>227.2</ele>
        <time>2022-03-07T09:10:28Z</time>
      </trkpt>
      <trkpt lat="46.6001" lon="5.47936">
        <ele>226.8</ele>
        <time>2022-03-07T09:10:29Z</time>
      </trkpt>
      <trkpt lat="46.60008" lon="5.47941">
        <ele>226.8</ele>
        <time>2022-03-07T09:10:30Z</time>
      </trkpt>
      <trkpt lat="46.60006" lon="5.47945">
        <ele>226.8</ele>
        <time>2022-03-07T09:10:31Z</time>
      </trkpt>
      <trkpt lat="46.60004" lon="5.47949">
        <ele>226.8</ele>
        <time>2022-03-07T09:10:32Z</time>
      </trkpt>
      <trkpt lat="46.60003" lon="5.47951">
        <ele>226.8</ele>
        <time>2022-03-07T09:10:33Z</time>
      </trkpt>
      <trkpt lat="46.6" lon="5.47952">
        <ele>226.8</ele>
        <time>2022-03-07T09:10:34Z</time>
      </trkpt>
      <trkpt lat="46.59997" lon="5.47953">
        <ele>226.8</ele>
        <time>2022-03-07T09:10:35Z</time>
      </trkpt>
      <trkpt lat="46.59993" lon="5.47953">
        <ele>226.8</ele>
        <time>2022-03-07T09:10:36Z</time>
      </trkpt>
      <trkpt lat="46.59989" lon="5.47952">
        <ele>226.8</ele>
        <time>2022-03-07T09:10:37Z</time>
      </trkpt>
      <trkpt lat="46.59985" lon="5.47951">
        <ele>226.6</ele>
        <time>2022-03-07T09:10:38Z</time>
      </trkpt>
      <trkpt lat="46.5998" lon="5.4795">
        <ele>226.2</ele>
        <time>2022-03-07T09:10:39Z</time>
      </trkpt>
      <trkpt lat="46.59975" lon="5.4795">
        <ele>226</ele>
        <time>2022-03-07T09:10:40Z</time>
      </trkpt>
      <trkpt lat="46.5997" lon="5.4795">
        <ele>225.6</ele>
        <time>2022-03-07T09:10:41Z</time>
      </trkpt>
      <trkpt lat="46.59965" lon="5.4795">
        <ele>225.2</ele>
        <time>2022-03-07T09:10:42Z</time>
      </trkpt>
      <trkpt lat="46.5996" lon="5.47951">
        <ele>224.6</ele>
        <time>2022-03-07T09:10:43Z</time>
      </trkpt>
      <trkpt lat="46.59955" lon="5.47952">
        <ele>224</ele>
        <time>2022-03-07T09:10:44Z</time>
      </trkpt>
      <trkpt lat="46.5995" lon="5.47953">
        <ele>223.6</ele>
        <time>2022-03-07T09:10:45Z</time>
      </trkpt>
      <trkpt lat="46.59945" lon="5.47954">
        <ele>223</ele>
        <time>2022-03-07T09:10:46Z</time>
      </trkpt>
      <trkpt lat="46.59941" lon="5.47956">
        <ele>222.4</ele>
        <time>2022-03-07T09:10:47Z</time>
      </trkpt>
      <trkpt lat="46.59938" lon="5.47958">
        <ele>221.8</ele>
        <time>2022-03-07T09:10:48Z</time>
      </trkpt>
      <trkpt lat="46.59935" lon="5.47962">
        <ele>221.4</ele>
        <time>2022-03-07T09:10:49Z</time>
      </trkpt>
      <trkpt lat="46.59934" lon="5.47967">
        <ele>221</ele>
        <time>2022-03-07T09:10:50Z</time>
      </trkpt>
      <trkpt lat="46.59934" lon="5.47973">
        <ele>220.6</ele>
        <time>2022-03-07T09:10:51Z</time>
      </trkpt>
      <trkpt lat="46.59934" lon="5.47979">
        <ele>220.4</ele>
        <time>2022-03-07T09:10:52Z</time>
      </trkpt>
      <trkpt lat="46.59935" lon="5.47985">
        <ele>220.4</ele>
        <time>2022-03-07T09:10:53Z</time>
      </trkpt>
      <trkpt lat="46.59935" lon="5.47992">
        <ele>220</ele>
        <time>2022-03-07T09:10:54Z</time>
      </trkpt>
      <trkpt lat="46.59935" lon="5.47998">
        <ele>220</ele>
        <time>2022-03-07T09:10:55Z</time>
      </trkpt>
      <trkpt lat="46.59934" lon="5.48005">
        <ele>219.6</ele>
        <time>2022-03-07T09:10:56Z</time>
      </trkpt>
      <trkpt lat="46.59933" lon="5.48012">
        <ele>219.6</ele>
        <time>2022-03-07T09:10:57Z</time>
      </trkpt>
      <trkpt lat="46.59933" lon="5.48018">
        <ele>219.6</ele>
        <time>2022-03-07T09:10:58Z</time>
      </trkpt>
      <trkpt lat="46.59932" lon="5.48025">
        <ele>219.6</ele>
        <time>2022-03-07T09:10:59Z</time>
      </trkpt>
      <trkpt lat="46.59932" lon="5.48031">
        <ele>219.4</ele>
        <time>2022-03-07T09:11:00Z</time>
      </trkpt>
      <trkpt lat="46.59931" lon="5.48036">
        <ele>219.4</ele>
        <time>2022-03-07T09:11:01Z</time>
      </trkpt>
      <trkpt lat="46.5993" lon="5.4804">
        <ele>219</ele>
        <time>2022-03-07T09:11:02Z</time>
      </trkpt>
      <trkpt lat="46.59929" lon="5.48044">
        <ele>219</ele>
        <time>2022-03-07T09:11:03Z</time>
      </trkpt>
      <trkpt lat="46.59927" lon="5.48046">
        <ele>218.8</ele>
        <time>2022-03-07T09:11:04Z</time>
      </trkpt>
      <trkpt lat="46.59924" lon="5.48048">
        <ele>218.8</ele>
        <time>2022-03-07T09:11:05Z</time>
      </trkpt>
      <trkpt lat="46.5992" lon="5.48048">
        <ele>218.4</ele>
        <time>2022-03-07T09:11:06Z</time>
      </trkpt>
      <trkpt lat="46.59916" lon="5.48048">
        <ele>218.4</ele>
        <time>2022-03-07T09:11:07Z</time>
      </trkpt>
      <trkpt lat="46.59911" lon="5.48048">
        <ele>218</ele>
        <time>2022-03-07T09:11:08Z</time>
      </trkpt>
      <trkpt lat="46.59906" lon="5.48048">
        <ele>218</ele>
        <time>2022-03-07T09:11:09Z</time>
      </trkpt>
      <trkpt lat="46.59901" lon="5.48049">
        <ele>217.6</ele>
        <time>2022-03-07T09:11:10Z</time>
      </trkpt>
      <trkpt lat="46.59895" lon="5.48049">
        <ele>217.6</ele>
        <time>2022-03-07T09:11:11Z</time>
      </trkpt>
      <trkpt lat="46.5989" lon="5.4805">
        <ele>217.4</ele>
        <time>2022-03-07T09:11:12Z</time>
      </trkpt>
      <trkpt lat="46.59885" lon="5.4805">
        <ele>217.4</ele>
        <time>2022-03-07T09:11:13Z</time>
      </trkpt>
      <trkpt lat="46.59879" lon="5.4805">
        <ele>217.2</ele>
        <time>2022-03-07T09:11:14Z</time>
      </trkpt>
      <trkpt lat="46.59874" lon="5.4805">
        <ele>217.2</ele>
        <time>2022-03-07T09:11:15Z</time>
      </trkpt>
      <trkpt lat="46.59869" lon="5.48051">
        <ele>217</ele>
        <time>2022-03-07T09:11:16Z</time>
      </trkpt>
      <trkpt lat="46.59864" lon="5.48052">
        <ele>217</ele>
        <time>2022-03-07T09:11:17Z</time>
      </trkpt>
      <trkpt lat="46.59859" lon="5.48052">
        <ele>217</ele>
        <time>2022-03-07T09:11:18Z</time>
      </trkpt>
      <trkpt lat="46.59854" lon="5.48053">
        <ele>217</ele>
        <time>2022-03-07T09:11:19Z</time>
      </trkpt>
      <trkpt lat="46.59849" lon="5.48054">
        <ele>217</ele>
        <time>2022-03-07T09:11:20Z</time>
      </trkpt>
      <trkpt lat="46.59844" lon="5.48054">
        <ele>217</ele>
        <time>2022-03-07T09:11:21Z</time>
      </trkpt>
      <trkpt lat="46.59839" lon="5.48055">
        <ele>217</ele>
        <time>2022-03-07T09:11:22Z</time>
      </trkpt>
      <trkpt lat="46.59834" lon="5.48056">
        <ele>217</ele>
        <time>2022-03-07T09:11:23Z</time>
      </trkpt>
      <trkpt lat="46.59829" lon="5.48057">
        <ele>217</ele>
        <time>2022-03-07T09:11:24Z</time>
      </trkpt>
      <trkpt lat="46.59823" lon="5.48057">
        <ele>217</ele>
        <time>2022-03-07T09:11:25Z</time>
      </trkpt>
      <trkpt lat="46.59818" lon="5.48057">
        <ele>217</ele>
        <time>2022-03-07T09:11:26Z</time>
      </trkpt>
      <trkpt lat="46.59813" lon="5.48057">
        <ele>217</ele>
        <time>2022-03-07T09:11:27Z</time>
      </trkpt>
      <trkpt lat="46.59808" lon="5.48056">
        <ele>217</ele>
        <time>2022-03-07T09:11:28Z</time>
      </trkpt>
      <trkpt lat="46.59803" lon="5.48054">
        <ele>217</ele>
        <time>2022-03-07T09:11:29Z</time>
      </trkpt>
      <trkpt lat="46.59798" lon="5.48051">
        <ele>217</ele>
        <time>2022-03-07T09:11:30Z</time>
      </trkpt>
      <trkpt lat="46.59794" lon="5.48047">
        <ele>216.8</ele>
        <time>2022-03-07T09:11:31Z</time>
      </trkpt>
      <trkpt lat="46.5979" lon="5.48043">
        <ele>216.8</ele>
        <time>2022-03-07T09:11:32Z</time>
      </trkpt>
      <trkpt lat="46.59786" lon="5.48038">
        <ele>216.8</ele>
        <time>2022-03-07T09:11:33Z</time>
      </trkpt>
      <trkpt lat="46.59782" lon="5.48035">
        <ele>216.8</ele>
        <time>2022-03-07T09:11:34Z</time>
      </trkpt>
      <trkpt lat="46.59778" lon="5.48031">
        <ele>216.8</ele>
        <time>2022-03-07T09:11:35Z</time>
      </trkpt>
      <trkpt lat="46.59774" lon="5.48029">
        <ele>216.8</ele>
        <time>2022-03-07T09:11:36Z</time>
      </trkpt>
      <trkpt lat="46.5977" lon="5.48026">
        <ele>216.8</ele>
        <time>2022-03-07T09:11:37Z</time>
      </trkpt>
      <trkpt lat="46.59766" lon="5.48024">
        <ele>216.8</ele>
        <time>2022-03-07T09:11:38Z</time>
      </trkpt>
      <trkpt lat="46.59763" lon="5.48023">
        <ele>216.6</ele>
        <time>2022-03-07T09:11:39Z</time>
      </trkpt>
      <trkpt lat="46.5976" lon="5.48021">
        <ele>216.6</ele>
        <time>2022-03-07T09:11:40Z</time>
      </trkpt>
      <trkpt lat="46.59757" lon="5.48019">
        <ele>216.6</ele>
        <time>2022-03-07T09:11:41Z</time>
      </trkpt>
      <trkpt lat="46.59754" lon="5.48016">
        <ele>216.8</ele>
        <time>2022-03-07T09:11:42Z</time>
      </trkpt>
      <trkpt lat="46.59751" lon="5.48013">
        <ele>216.8</ele>
        <time>2022-03-07T09:11:43Z</time>
      </trkpt>
      <trkpt lat="46.59749" lon="5.48009">
        <ele>216.8</ele>
        <time>2022-03-07T09:11:44Z</time>
      </trkpt>
      <trkpt lat="46.59747" lon="5.48004">
        <ele>216.8</ele>
        <time>2022-03-07T09:11:45Z</time>
      </trkpt>
      <trkpt lat="46.59745" lon="5.47999">
        <ele>216.8</ele>
        <time>2022-03-07T09:11:46Z</time>
      </trkpt>
      <trkpt lat="46.59743" lon="5.47993">
        <ele>216.8</ele>
        <time>2022-03-07T09:11:47Z</time>
      </trkpt>
      <trkpt lat="46.59741" lon="5.47986">
        <ele>216.8</ele>
        <time>2022-03-07T09:11:48Z</time>
      </trkpt>
      <trkpt lat="46.5974" lon="5.4798">
        <ele>216.6</ele>
        <time>2022-03-07T09:11:49Z</time>
      </trkpt>
      <trkpt lat="46.59739" lon="5.47973">
        <ele>216.6</ele>
        <time>2022-03-07T09:11:50Z</time>
      </trkpt>
      <trkpt lat="46.59738" lon="5.47966">
        <ele>216.2</ele>
        <time>2022-03-07T09:11:51Z</time>
      </trkpt>
      <trkpt lat="46.59736" lon="5.47958">
        <ele>216.2</ele>
        <time>2022-03-07T09:11:52Z</time>
      </trkpt>
      <trkpt lat="46.59735" lon="5.47951">
        <ele>216.2</ele>
        <time>2022-03-07T09:11:53Z</time>
      </trkpt>
      <trkpt lat="46.59733" lon="5.47944">
        <ele>216</ele>
        <time>2022-03-07T09:11:54Z</time>
      </trkpt>
      <trkpt lat="46.59731" lon="5.47937">
        <ele>216</ele>
        <time>2022-03-07T09:11:55Z</time>
      </trkpt>
      <trkpt lat="46.5973" lon="5.4793">
        <ele>216</ele>
        <time>2022-03-07T09:11:56Z</time>
      </trkpt>
      <trkpt lat="46.59728" lon="5.47923">
        <ele>216</ele>
        <time>2022-03-07T09:11:57Z</time>
      </trkpt>
      <trkpt lat="46.59727" lon="5.47917">
        <ele>216</ele>
        <time>2022-03-07T09:11:58Z</time>
      </trkpt>
      <trkpt lat="46.59726" lon="5.4791">
        <ele>216</ele>
        <time>2022-03-07T09:11:59Z</time>
      </trkpt>
      <trkpt lat="46.59724" lon="5.47904">
        <ele>216</ele>
        <time>2022-03-07T09:12:00Z</time>
      </trkpt>
      <trkpt lat="46.59723" lon="5.47897">
        <ele>216</ele>
        <time>2022-03-07T09:12:01Z</time>
      </trkpt>
      <trkpt lat="46.59722" lon="5.47891">
        <ele>216</ele>
        <time>2022-03-07T09:12:02Z</time>
      </trkpt>
      <trkpt lat="46.59721" lon="5.47884">
        <ele>215.8</ele>
        <time>2022-03-07T09:12:03Z</time>
      </trkpt>
      <trkpt lat="46.59719" lon="5.47878">
        <ele>215.8</ele>
        <time>2022-03-07T09:12:04Z</time>
      </trkpt>
      <trkpt lat="46.59718" lon="5.47872">
        <ele>215.8</ele>
        <time>2022-03-07T09:12:05Z</time>
      </trkpt>
      <trkpt lat="46.59716" lon="5.47865">
        <ele>215.8</ele>
        <time>2022-03-07T09:12:06Z</time>
      </trkpt>
      <trkpt lat="46.59715" lon="5.47859">
        <ele>215.8</ele>
        <time>2022-03-07T09:12:07Z</time>
      </trkpt>
      <trkpt lat="46.59714" lon="5.47852">
        <ele>215.8</ele>
        <time>2022-03-07T09:12:08Z</time>
      </trkpt>
      <trkpt lat="46.59713" lon="5.47846">
        <ele>215.8</ele>
        <time>2022-03-07T09:12:09Z</time>
      </trkpt>
      <trkpt lat="46.59712" lon="5.47839">
        <ele>215.8</ele>
        <time>2022-03-07T09:12:10Z</time>
      </trkpt>
      <trkpt lat="46.59711" lon="5.47833">
        <ele>216</ele>
        <time>2022-03-07T09:12:11Z</time>
      </trkpt>
      <trkpt lat="46.59711" lon="5.47827">
        <ele>216</ele>
        <time>2022-03-07T09:12:12Z</time>
      </trkpt>
      <trkpt lat="46.5971" lon="5.47821">
        <ele>216</ele>
        <time>2022-03-07T09:12:13Z</time>
      </trkpt>
      <trkpt lat="46.5971" lon="5.47815">
        <ele>216.4</ele>
        <time>2022-03-07T09:12:14Z</time>
      </trkpt>
      <trkpt lat="46.5971" lon="5.47809">
        <ele>216.4</ele>
        <time>2022-03-07T09:12:15Z</time>
      </trkpt>
      <trkpt lat="46.5971" lon="5.47803">
        <ele>216.6</ele>
        <time>2022-03-07T09:12:16Z</time>
      </trkpt>
      <trkpt lat="46.59709" lon="5.47797">
        <ele>216.6</ele>
        <time>2022-03-07T09:12:17Z</time>
      </trkpt>
      <trkpt lat="46.59708" lon="5.47791">
        <ele>216.6</ele>
        <time>2022-03-07T09:12:18Z</time>
      </trkpt>
      <trkpt lat="46.59708" lon="5.47786">
        <ele>216.8</ele>
        <time>2022-03-07T09:12:19Z</time>
      </trkpt>
      <trkpt lat="46.59707" lon="5.4778">
        <ele>216.8</ele>
        <time>2022-03-07T09:12:20Z</time>
      </trkpt>
      <trkpt lat="46.59706" lon="5.47774">
        <ele>216.8</ele>
        <time>2022-03-07T09:12:21Z</time>
      </trkpt>
      <trkpt lat="46.59704" lon="5.47768">
        <ele>216.8</ele>
        <time>2022-03-07T09:12:22Z</time>
      </trkpt>
      <trkpt lat="46.59703" lon="5.47762">
        <ele>216.8</ele>
        <time>2022-03-07T09:12:23Z</time>
      </trkpt>
      <trkpt lat="46.59701" lon="5.47756">
        <ele>216.8</ele>
        <time>2022-03-07T09:12:24Z</time>
      </trkpt>
      <trkpt lat="46.59699" lon="5.47751">
        <ele>216.4</ele>
        <time>2022-03-07T09:12:25Z</time>
      </trkpt>
      <trkpt lat="46.59696" lon="5.47745">
        <ele>216.4</ele>
        <time>2022-03-07T09:12:26Z</time>
      </trkpt>
      <trkpt lat="46.59693" lon="5.47739">
        <ele>216.4</ele>
        <time>2022-03-07T09:12:27Z</time>
      </trkpt>
      <trkpt lat="46.5969" lon="5.47734">
        <ele>216.4</ele>
        <time>2022-03-07T09:12:28Z</time>
      </trkpt>
      <trkpt lat="46.59686" lon="5.47728">
        <ele>216.4</ele>
        <time>2022-03-07T09:12:29Z</time>
      </trkpt>
      <trkpt lat="46.59683" lon="5.47723">
        <ele>216.4</ele>
        <time>2022-03-07T09:12:30Z</time>
      </trkpt>
      <trkpt lat="46.5968" lon="5.47718">
        <ele>216.2</ele>
        <time>2022-03-07T09:12:31Z</time>
      </trkpt>
      <trkpt lat="46.59677" lon="5.47713">
        <ele>216.2</ele>
        <time>2022-03-07T09:12:32Z</time>
      </trkpt>
      <trkpt lat="46.59674" lon="5.47707">
        <ele>216.2</ele>
        <time>2022-03-07T09:12:33Z</time>
      </trkpt>
      <trkpt lat="46.59671" lon="5.47702">
        <ele>216.2</ele>
        <time>2022-03-07T09:12:34Z</time>
      </trkpt>
      <trkpt lat="46.59668" lon="5.47697">
        <ele>216.2</ele>
        <time>2022-03-07T09:12:35Z</time>
      </trkpt>
      <trkpt lat="46.59665" lon="5.47692">
        <ele>216.2</ele>
        <time>2022-03-07T09:12:36Z</time>
      </trkpt>
      <trkpt lat="46.59663" lon="5.47686">
        <ele>216.2</ele>
        <time>2022-03-07T09:12:37Z</time>
      </trkpt>
      <trkpt lat="46.59661" lon="5.4768">
        <ele>216.2</ele>
        <time>2022-03-07T09:12:38Z</time>
      </trkpt>
      <trkpt lat="46.59661" lon="5.47674">
        <ele>216</ele>
        <time>2022-03-07T09:12:39Z</time>
      </trkpt>
      <trkpt lat="46.59661" lon="5.47667">
        <ele>216</ele>
        <time>2022-03-07T09:12:40Z</time>
      </trkpt>
      <trkpt lat="46.59662" lon="5.47661">
        <ele>216</ele>
        <time>2022-03-07T09:12:41Z</time>
      </trkpt>
      <trkpt lat="46.59662" lon="5.47655">
        <ele>216</ele>
        <time>2022-03-07T09:12:42Z</time>
      </trkpt>
      <trkpt lat="46.59663" lon="5.47648">
        <ele>216</ele>
        <time>2022-03-07T09:12:43Z</time>
      </trkpt>
      <trkpt lat="46.59664" lon="5.47642">
        <ele>216</ele>
        <time>2022-03-07T09:12:44Z</time>
      </trkpt>
      <trkpt lat="46.59665" lon="5.47636">
        <ele>216</ele>
        <time>2022-03-07T09:12:45Z</time>
      </trkpt>
      <trkpt lat="46.59665" lon="5.4763">
        <ele>216</ele>
        <time>2022-03-07T09:12:46Z</time>
      </trkpt>
      <trkpt lat="46.59664" lon="5.47624">
        <ele>216</ele>
        <time>2022-03-07T09:12:47Z</time>
      </trkpt>
      <trkpt lat="46.59664" lon="5.47618">
        <ele>216</ele>
        <time>2022-03-07T09:12:48Z</time>
      </trkpt>
      <trkpt lat="46.59663" lon="5.47613">
        <ele>216</ele>
        <time>2022-03-07T09:12:49Z</time>
      </trkpt>
      <trkpt lat="46.59661" lon="5.47608">
        <ele>216.2</ele>
        <time>2022-03-07T09:12:50Z</time>
      </trkpt>
      <trkpt lat="46.5966" lon="5.47603">
        <ele>216.2</ele>
        <time>2022-03-07T09:12:51Z</time>
      </trkpt>
      <trkpt lat="46.59659" lon="5.47599">
        <ele>216.4</ele>
        <time>2022-03-07T09:12:52Z</time>
      </trkpt>
      <trkpt lat="46.59657" lon="5.47595">
        <ele>216.6</ele>
        <time>2022-03-07T09:12:53Z</time>
      </trkpt>
      <trkpt lat="46.59655" lon="5.47591">
        <ele>216.6</ele>
        <time>2022-03-07T09:12:54Z</time>
      </trkpt>
      <trkpt lat="46.59653" lon="5.47587">
        <ele>217</ele>
        <time>2022-03-07T09:12:55Z</time>
      </trkpt>
      <trkpt lat="46.59651" lon="5.47584">
        <ele>217.2</ele>
        <time>2022-03-07T09:12:56Z</time>
      </trkpt>
      <trkpt lat="46.59649" lon="5.47581">
        <ele>217.4</ele>
        <time>2022-03-07T09:12:57Z</time>
      </trkpt>
      <trkpt lat="46.59647" lon="5.47578">
        <ele>217.6</ele>
        <time>2022-03-07T09:12:58Z</time>
      </trkpt>
      <trkpt lat="46.59645" lon="5.47575">
        <ele>217.8</ele>
        <time>2022-03-07T09:12:59Z</time>
      </trkpt>
      <trkpt lat="46.59643" lon="5.47572">
        <ele>218.2</ele>
        <time>2022-03-07T09:13:00Z</time>
      </trkpt>
      <trkpt lat="46.5964" lon="5.4757">
        <ele>218.4</ele>
        <time>2022-03-07T09:13:01Z</time>
      </trkpt>
      <trkpt lat="46.59638" lon="5.47567">
        <ele>218.6</ele>
        <time>2022-03-07T09:13:02Z</time>
      </trkpt>
      <trkpt lat="46.59636" lon="5.47564">
        <ele>219</ele>
        <time>2022-03-07T09:13:03Z</time>
      </trkpt>
      <trkpt lat="46.59634" lon="5.47562">
        <ele>219.4</ele>
        <time>2022-03-07T09:13:04Z</time>
      </trkpt>
      <trkpt lat="46.59632" lon="5.47559">
        <ele>219.6</ele>
        <time>2022-03-07T09:13:05Z</time>
      </trkpt>
      <trkpt lat="46.59629" lon="5.47557">
        <ele>220</ele>
        <time>2022-03-07T09:13:06Z</time>
      </trkpt>
      <trkpt lat="46.59627" lon="5.47555">
        <ele>220.4</ele>
        <time>2022-03-07T09:13:07Z</time>
      </trkpt>
      <trkpt lat="46.59626" lon="5.47552">
        <ele>220.6</ele>
        <time>2022-03-07T09:13:08Z</time>
      </trkpt>
      <trkpt lat="46.59624" lon="5.47548">
        <ele>220.6</ele>
        <time>2022-03-07T09:13:09Z</time>
      </trkpt>
      <trkpt lat="46.59623" lon="5.47544">
        <ele>220.8</ele>
        <time>2022-03-07T09:13:10Z</time>
      </trkpt>
      <trkpt lat="46.59622" lon="5.47539">
        <ele>220.8</ele>
        <time>2022-03-07T09:13:11Z</time>
      </trkpt>
      <trkpt lat="46.59621" lon="5.47535">
        <ele>221.2</ele>
        <time>2022-03-07T09:13:12Z</time>
      </trkpt>
      <trkpt lat="46.5962" lon="5.4753">
        <ele>221.2</ele>
        <time>2022-03-07T09:13:13Z</time>
      </trkpt>
      <trkpt lat="46.59619" lon="5.47526">
        <ele>221.6</ele>
        <time>2022-03-07T09:13:14Z</time>
      </trkpt>
      <trkpt lat="46.59619" lon="5.47521">
        <ele>221.6</ele>
        <time>2022-03-07T09:13:15Z</time>
      </trkpt>
      <trkpt lat="46.59619" lon="5.47517">
        <ele>221.8</ele>
        <time>2022-03-07T09:13:16Z</time>
      </trkpt>
      <trkpt lat="46.59619" lon="5.47513">
        <ele>221.8</ele>
        <time>2022-03-07T09:13:17Z</time>
      </trkpt>
      <trkpt lat="46.59619" lon="5.47508">
        <ele>222</ele>
        <time>2022-03-07T09:13:18Z</time>
      </trkpt>
      <trkpt lat="46.59619" lon="5.47503">
        <ele>222</ele>
        <time>2022-03-07T09:13:19Z</time>
      </trkpt>
      <trkpt lat="46.5962" lon="5.47499">
        <ele>222</ele>
        <time>2022-03-07T09:13:20Z</time>
      </trkpt>
      <trkpt lat="46.5962" lon="5.47494">
        <ele>222.4</ele>
        <time>2022-03-07T09:13:21Z</time>
      </trkpt>
      <trkpt lat="46.59621" lon="5.47489">
        <ele>222.4</ele>
        <time>2022-03-07T09:13:22Z</time>
      </trkpt>
      <trkpt lat="46.59621" lon="5.47484">
        <ele>222.6</ele>
        <time>2022-03-07T09:13:23Z</time>
      </trkpt>
      <trkpt lat="46.59622" lon="5.4748">
        <ele>222.8</ele>
        <time>2022-03-07T09:13:24Z</time>
      </trkpt>
      <trkpt lat="46.59622" lon="5.47476">
        <ele>222.8</ele>
        <time>2022-03-07T09:13:25Z</time>
      </trkpt>
      <trkpt lat="46.59622" lon="5.47472">
        <ele>222.8</ele>
        <time>2022-03-07T09:13:26Z</time>
      </trkpt>
      <trkpt lat="46.59622" lon="5.47468">
        <ele>223.2</ele>
        <time>2022-03-07T09:13:27Z</time>
      </trkpt>
      <trkpt lat="46.59623" lon="5.47465">
        <ele>223.6</ele>
        <time>2022-03-07T09:13:28Z</time>
      </trkpt>
      <trkpt lat="46.59623" lon="5.47462">
        <ele>223.8</ele>
        <time>2022-03-07T09:13:29Z</time>
      </trkpt>
      <trkpt lat="46.59623" lon="5.47459">
        <ele>224.2</ele>
        <time>2022-03-07T09:13:30Z</time>
      </trkpt>
      <trkpt lat="46.59623" lon="5.47456">
        <ele>224.4</ele>
        <time>2022-03-07T09:13:31Z</time>
      </trkpt>
      <trkpt lat="46.59622" lon="5.47453">
        <ele>224.6</ele>
        <time>2022-03-07T09:13:32Z</time>
      </trkpt>
      <trkpt lat="46.59622" lon="5.4745">
        <ele>225</ele>
        <time>2022-03-07T09:13:33Z</time>
      </trkpt>
      <trkpt lat="46.59621" lon="5.47446">
        <ele>225.2</ele>
        <time>2022-03-07T09:13:34Z</time>
      </trkpt>
      <trkpt lat="46.59621" lon="5.47443">
        <ele>225.4</ele>
        <time>2022-03-07T09:13:35Z</time>
      </trkpt>
      <trkpt lat="46.59621" lon="5.47439">
        <ele>225.8</ele>
        <time>2022-03-07T09:13:36Z</time>
      </trkpt>
      <trkpt lat="46.59621" lon="5.47436">
        <ele>225.8</ele>
        <time>2022-03-07T09:13:37Z</time>
      </trkpt>
      <trkpt lat="46.5962" lon="5.47433">
        <ele>226.2</ele>
        <time>2022-03-07T09:13:38Z</time>
      </trkpt>
      <trkpt lat="46.5962" lon="5.47429">
        <ele>226.2</ele>
        <time>2022-03-07T09:13:39Z</time>
      </trkpt>
      <trkpt lat="46.59619" lon="5.47426">
        <ele>226.6</ele>
        <time>2022-03-07T09:13:40Z</time>
      </trkpt>
      <trkpt lat="46.59619" lon="5.47423">
        <ele>226.8</ele>
        <time>2022-03-07T09:13:41Z</time>
      </trkpt>
      <trkpt lat="46.59618" lon="5.4742">
        <ele>227</ele>
        <time>2022-03-07T09:13:42Z</time>
      </trkpt>
      <trkpt lat="46.59617" lon="5.47416">
        <ele>227.4</ele>
        <time>2022-03-07T09:13:43Z</time>
      </trkpt>
      <trkpt lat="46.59616" lon="5.47413">
        <ele>227.6</ele>
        <time>2022-03-07T09:13:44Z</time>
      </trkpt>
      <trkpt lat="46.59616" lon="5.47413">
        <ele>227.8</ele>
        <time>2022-03-07T09:13:45Z</time>
      </trkpt>
      <trkpt lat="46.59616" lon="5.4741">
        <ele>228.2</ele>
        <time>2022-03-07T09:13:46Z</time>
      </trkpt>
      <trkpt lat="46.59615" lon="5.47407">
        <ele>228.4</ele>
        <time>2022-03-07T09:13:47Z</time>
      </trkpt>
      <trkpt lat="46.59614" lon="5.47404">
        <ele>228.8</ele>
        <time>2022-03-07T09:13:48Z</time>
      </trkpt>
      <trkpt lat="46.59613" lon="5.47401">
        <ele>229</ele>
        <time>2022-03-07T09:13:49Z</time>
      </trkpt>
      <trkpt lat="46.59612" lon="5.47398">
        <ele>229.4</ele>
        <time>2022-03-07T09:13:50Z</time>
      </trkpt>
      <trkpt lat="46.5961" lon="5.47395">
        <ele>229.6</ele>
        <time>2022-03-07T09:13:51Z</time>
      </trkpt>
      <trkpt lat="46.59608" lon="5.47393">
        <ele>230</ele>
        <time>2022-03-07T09:13:52Z</time>
      </trkpt>
      <trkpt lat="46.59606" lon="5.4739">
        <ele>230.2</ele>
        <time>2022-03-07T09:13:53Z</time>
      </trkpt>
      <trkpt lat="46.59605" lon="5.47387">
        <ele>230.2</ele>
        <time>2022-03-07T09:13:54Z</time>
      </trkpt>
      <trkpt lat="46.59604" lon="5.47384">
        <ele>230.6</ele>
        <time>2022-03-07T09:13:55Z</time>
      </trkpt>
      <trkpt lat="46.59602" lon="5.47381">
        <ele>230.8</ele>
        <time>2022-03-07T09:13:56Z</time>
      </trkpt>
      <trkpt lat="46.596" lon="5.47378">
        <ele>231</ele>
        <time>2022-03-07T09:13:57Z</time>
      </trkpt>
      <trkpt lat="46.59598" lon="5.47375">
        <ele>231</ele>
        <time>2022-03-07T09:13:58Z</time>
      </trkpt>
      <trkpt lat="46.59596" lon="5.47373">
        <ele>231.4</ele>
        <time>2022-03-07T09:13:59Z</time>
      </trkpt>
      <trkpt lat="46.59594" lon="5.4737">
        <ele>231.8</ele>
        <time>2022-03-07T09:14:00Z</time>
      </trkpt>
      <trkpt lat="46.59592" lon="5.47368">
        <ele>232</ele>
        <time>2022-03-07T09:14:01Z</time>
      </trkpt>
      <trkpt lat="46.59591" lon="5.47365">
        <ele>232.4</ele>
        <time>2022-03-07T09:14:02Z</time>
      </trkpt>
      <trkpt lat="46.59589" lon="5.47363">
        <ele>232.4</ele>
        <time>2022-03-07T09:14:03Z</time>
      </trkpt>
      <trkpt lat="46.59587" lon="5.47361">
        <ele>232.6</ele>
        <time>2022-03-07T09:14:04Z</time>
      </trkpt>
      <trkpt lat="46.59586" lon="5.47358">
        <ele>232.8</ele>
        <time>2022-03-07T09:14:05Z</time>
      </trkpt>
      <trkpt lat="46.59584" lon="5.47356">
        <ele>233.2</ele>
        <time>2022-03-07T09:14:06Z</time>
      </trkpt>
      <trkpt lat="46.59582" lon="5.47354">
        <ele>233.2</ele>
        <time>2022-03-07T09:14:07Z</time>
      </trkpt>
      <trkpt lat="46.5958" lon="5.47352">
        <ele>233.6</ele>
        <time>2022-03-07T09:14:08Z</time>
      </trkpt>
      <trkpt lat="46.59579" lon="5.47349">
        <ele>233.6</ele>
        <time>2022-03-07T09:14:09Z</time>
      </trkpt>
      <trkpt lat="46.59577" lon="5.47346">
        <ele>233.8</ele>
        <time>2022-03-07T09:14:10Z</time>
      </trkpt>
      <trkpt lat="46.59576" lon="5.47343">
        <ele>233.8</ele>
        <time>2022-03-07T09:14:11Z</time>
      </trkpt>
      <trkpt lat="46.59575" lon="5.47339">
        <ele>234.2</ele>
        <time>2022-03-07T09:14:12Z</time>
      </trkpt>
      <trkpt lat="46.59574" lon="5.47335">
        <ele>234.2</ele>
        <time>2022-03-07T09:14:13Z</time>
      </trkpt>
      <trkpt lat="46.59573" lon="5.47331">
        <ele>234.2</ele>
        <time>2022-03-07T09:14:14Z</time>
      </trkpt>
      <trkpt lat="46.59573" lon="5.47325">
        <ele>234.2</ele>
        <time>2022-03-07T09:14:15Z</time>
      </trkpt>
      <trkpt lat="46.59572" lon="5.4732">
        <ele>234.2</ele>
        <time>2022-03-07T09:14:16Z</time>
      </trkpt>
      <trkpt lat="46.59572" lon="5.47314">
        <ele>233.8</ele>
        <time>2022-03-07T09:14:17Z</time>
      </trkpt>
      <trkpt lat="46.59573" lon="5.47308">
        <ele>233.8</ele>
        <time>2022-03-07T09:14:18Z</time>
      </trkpt>
      <trkpt lat="46.59573" lon="5.47302">
        <ele>233.4</ele>
        <time>2022-03-07T09:14:19Z</time>
      </trkpt>
      <trkpt lat="46.59574" lon="5.47295">
        <ele>233.2</ele>
        <time>2022-03-07T09:14:20Z</time>
      </trkpt>
      <trkpt lat="46.59574" lon="5.47288">
        <ele>233</ele>
        <time>2022-03-07T09:14:21Z</time>
      </trkpt>
      <trkpt lat="46.59574" lon="5.47281">
        <ele>232.6</ele>
        <time>2022-03-07T09:14:22Z</time>
      </trkpt>
      <trkpt lat="46.59573" lon="5.47273">
        <ele>232.6</ele>
        <time>2022-03-07T09:14:23Z</time>
      </trkpt>
      <trkpt lat="46.59572" lon="5.47266">
        <ele>232.2</ele>
        <time>2022-03-07T09:14:24Z</time>
      </trkpt>
      <trkpt lat="46.5957" lon="5.47261">
        <ele>232.2</ele>
        <time>2022-03-07T09:14:25Z</time>
      </trkpt>
      <trkpt lat="46.59567" lon="5.47256">
        <ele>232.2</ele>
        <time>2022-03-07T09:14:26Z</time>
      </trkpt>
      <trkpt lat="46.59564" lon="5.47254">
        <ele>232.2</ele>
        <time>2022-03-07T09:14:27Z</time>
      </trkpt>
      <trkpt lat="46.5956" lon="5.47253">
        <ele>232.2</ele>
        <time>2022-03-07T09:14:28Z</time>
      </trkpt>
      <trkpt lat="46.59557" lon="5.47252">
        <ele>232.2</ele>
        <time>2022-03-07T09:14:29Z</time>
      </trkpt>
      <trkpt lat="46.59554" lon="5.47253">
        <ele>232.2</ele>
        <time>2022-03-07T09:14:30Z</time>
      </trkpt>
      <trkpt lat="46.5955" lon="5.47253">
        <ele>232.4</ele>
        <time>2022-03-07T09:14:31Z</time>
      </trkpt>
      <trkpt lat="46.59548" lon="5.47254">
        <ele>232.4</ele>
        <time>2022-03-07T09:14:32Z</time>
      </trkpt>
      <trkpt lat="46.59545" lon="5.47254">
        <ele>232.8</ele>
        <time>2022-03-07T09:14:33Z</time>
      </trkpt>
      <trkpt lat="46.59543" lon="5.47254">
        <ele>232.8</ele>
        <time>2022-03-07T09:14:34Z</time>
      </trkpt>
      <trkpt lat="46.59541" lon="5.47254">
        <ele>233.2</ele>
        <time>2022-03-07T09:14:35Z</time>
      </trkpt>
      <trkpt lat="46.59539" lon="5.47254">
        <ele>233.2</ele>
        <time>2022-03-07T09:14:36Z</time>
      </trkpt>
      <trkpt lat="46.59536" lon="5.47254">
        <ele>233.6</ele>
        <time>2022-03-07T09:14:37Z</time>
      </trkpt>
      <trkpt lat="46.59534" lon="5.47253">
        <ele>233.6</ele>
        <time>2022-03-07T09:14:38Z</time>
      </trkpt>
      <trkpt lat="46.59532" lon="5.47253">
        <ele>233.8</ele>
        <time>2022-03-07T09:14:39Z</time>
      </trkpt>
      <trkpt lat="46.5953" lon="5.47253">
        <ele>233.8</ele>
        <time>2022-03-07T09:14:40Z</time>
      </trkpt>
      <trkpt lat="46.59527" lon="5.47252">
        <ele>234</ele>
        <time>2022-03-07T09:14:41Z</time>
      </trkpt>
      <trkpt lat="46.59525" lon="5.47252">
        <ele>234</ele>
        <time>2022-03-07T09:14:42Z</time>
      </trkpt>
      <trkpt lat="46.59523" lon="5.47252">
        <ele>234.4</ele>
        <time>2022-03-07T09:14:43Z</time>
      </trkpt>
      <trkpt lat="46.59518" lon="5.47251">
        <ele>234.4</ele>
        <time>2022-03-07T09:14:44Z</time>
      </trkpt>
      <trkpt lat="46.59516" lon="5.47251">
        <ele>234.8</ele>
        <time>2022-03-07T09:14:45Z</time>
      </trkpt>
      <trkpt lat="46.59514" lon="5.4725">
        <ele>234.8</ele>
        <time>2022-03-07T09:14:46Z</time>
      </trkpt>
      <trkpt lat="46.59511" lon="5.47249">
        <ele>235.4</ele>
        <time>2022-03-07T09:14:47Z</time>
      </trkpt>
      <trkpt lat="46.59509" lon="5.47248">
        <ele>235.4</ele>
        <time>2022-03-07T09:14:48Z</time>
      </trkpt>
      <trkpt lat="46.59507" lon="5.47247">
        <ele>235.8</ele>
        <time>2022-03-07T09:14:49Z</time>
      </trkpt>
      <trkpt lat="46.59505" lon="5.47246">
        <ele>236</ele>
        <time>2022-03-07T09:14:50Z</time>
      </trkpt>
      <trkpt lat="46.59503" lon="5.47244">
        <ele>236.4</ele>
        <time>2022-03-07T09:14:52Z</time>
      </trkpt>
      <trkpt lat="46.59501" lon="5.47243">
        <ele>236.4</ele>
        <time>2022-03-07T09:14:53Z</time>
      </trkpt>
      <trkpt lat="46.59499" lon="5.47241">
        <ele>236.4</ele>
        <time>2022-03-07T09:14:54Z</time>
      </trkpt>
      <trkpt lat="46.59497" lon="5.4724">
        <ele>236.6</ele>
        <time>2022-03-07T09:14:55Z</time>
      </trkpt>
      <trkpt lat="46.59495" lon="5.47238">
        <ele>236.6</ele>
        <time>2022-03-07T09:14:56Z</time>
      </trkpt>
      <trkpt lat="46.59493" lon="5.47236">
        <ele>236.8</ele>
        <time>2022-03-07T09:14:57Z</time>
      </trkpt>
      <trkpt lat="46.59491" lon="5.47235">
        <ele>236.8</ele>
        <time>2022-03-07T09:14:58Z</time>
      </trkpt>
      <trkpt lat="46.59489" lon="5.47234">
        <ele>237.2</ele>
        <time>2022-03-07T09:14:59Z</time>
      </trkpt>
      <trkpt lat="46.59488" lon="5.47232">
        <ele>237.2</ele>
        <time>2022-03-07T09:15:00Z</time>
      </trkpt>
      <trkpt lat="46.59486" lon="5.4723">
        <ele>237.4</ele>
        <time>2022-03-07T09:15:01Z</time>
      </trkpt>
      <trkpt lat="46.59482" lon="5.47227">
        <ele>237.6</ele>
        <time>2022-03-07T09:15:02Z</time>
      </trkpt>
      <trkpt lat="46.5948" lon="5.47225">
        <ele>237.6</ele>
        <time>2022-03-07T09:15:03Z</time>
      </trkpt>
      <trkpt lat="46.59478" lon="5.47223">
        <ele>237.6</ele>
        <time>2022-03-07T09:15:04Z</time>
      </trkpt>
      <trkpt lat="46.59476" lon="5.47221">
        <ele>238</ele>
        <time>2022-03-07T09:15:05Z</time>
      </trkpt>
      <trkpt lat="46.59474" lon="5.47219">
        <ele>238</ele>
        <time>2022-03-07T09:15:06Z</time>
      </trkpt>
      <trkpt lat="46.59472" lon="5.47217">
        <ele>238.2</ele>
        <time>2022-03-07T09:15:07Z</time>
      </trkpt>
      <trkpt lat="46.5947" lon="5.47216">
        <ele>238.2</ele>
        <time>2022-03-07T09:15:08Z</time>
      </trkpt>
      <trkpt lat="46.59468" lon="5.47214">
        <ele>238.2</ele>
        <time>2022-03-07T09:15:09Z</time>
      </trkpt>
      <trkpt lat="46.59466" lon="5.47212">
        <ele>238.6</ele>
        <time>2022-03-07T09:15:10Z</time>
      </trkpt>
      <trkpt lat="46.59464" lon="5.4721">
        <ele>238.6</ele>
        <time>2022-03-07T09:15:11Z</time>
      </trkpt>
      <trkpt lat="46.59462" lon="5.47209">
        <ele>238.8</ele>
        <time>2022-03-07T09:15:12Z</time>
      </trkpt>
      <trkpt lat="46.5946" lon="5.47207">
        <ele>238.8</ele>
        <time>2022-03-07T09:15:13Z</time>
      </trkpt>
      <trkpt lat="46.59458" lon="5.47206">
        <ele>238.8</ele>
        <time>2022-03-07T09:15:14Z</time>
      </trkpt>
      <trkpt lat="46.59456" lon="5.47204">
        <ele>239</ele>
        <time>2022-03-07T09:15:15Z</time>
      </trkpt>
      <trkpt lat="46.59454" lon="5.47202">
        <ele>239</ele>
        <time>2022-03-07T09:15:16Z</time>
      </trkpt>
      <trkpt lat="46.59452" lon="5.47201">
        <ele>239.4</ele>
        <time>2022-03-07T09:15:17Z</time>
      </trkpt>
      <trkpt lat="46.5945" lon="5.47199">
        <ele>239.4</ele>
        <time>2022-03-07T09:15:18Z</time>
      </trkpt>
      <trkpt lat="46.59448" lon="5.47197">
        <ele>239.6</ele>
        <time>2022-03-07T09:15:19Z</time>
      </trkpt>
      <trkpt lat="46.59446" lon="5.47195">
        <ele>239.6</ele>
        <time>2022-03-07T09:15:20Z</time>
      </trkpt>
      <trkpt lat="46.59444" lon="5.47194">
        <ele>239.6</ele>
        <time>2022-03-07T09:15:21Z</time>
      </trkpt>
      <trkpt lat="46.59442" lon="5.47192">
        <ele>240</ele>
        <time>2022-03-07T09:15:22Z</time>
      </trkpt>
      <trkpt lat="46.5944" lon="5.4719">
        <ele>240.2</ele>
        <time>2022-03-07T09:15:23Z</time>
      </trkpt>
      <trkpt lat="46.59438" lon="5.47188">
        <ele>240.2</ele>
        <time>2022-03-07T09:15:24Z</time>
      </trkpt>
      <trkpt lat="46.59436" lon="5.47186">
        <ele>240.6</ele>
        <time>2022-03-07T09:15:25Z</time>
      </trkpt>
      <trkpt lat="46.59435" lon="5.47183">
        <ele>240.8</ele>
        <time>2022-03-07T09:15:26Z</time>
      </trkpt>
      <trkpt lat="46.59433" lon="5.4718">
        <ele>240.8</ele>
        <time>2022-03-07T09:15:27Z</time>
      </trkpt>
      <trkpt lat="46.59432" lon="5.47177">
        <ele>241</ele>
        <time>2022-03-07T09:15:28Z</time>
      </trkpt>
      <trkpt lat="46.59431" lon="5.47174">
        <ele>241</ele>
        <time>2022-03-07T09:15:29Z</time>
      </trkpt>
      <trkpt lat="46.59429" lon="5.4717">
        <ele>241.2</ele>
        <time>2022-03-07T09:15:30Z</time>
      </trkpt>
      <trkpt lat="46.59428" lon="5.47167">
        <ele>241.2</ele>
        <time>2022-03-07T09:15:31Z</time>
      </trkpt>
      <trkpt lat="46.59428" lon="5.47163">
        <ele>241.2</ele>
        <time>2022-03-07T09:15:32Z</time>
      </trkpt>
      <trkpt lat="46.59427" lon="5.4716">
        <ele>241.6</ele>
        <time>2022-03-07T09:15:33Z</time>
      </trkpt>
      <trkpt lat="46.59427" lon="5.47156">
        <ele>241.6</ele>
        <time>2022-03-07T09:15:34Z</time>
      </trkpt>
      <trkpt lat="46.59427" lon="5.47153">
        <ele>241.8</ele>
        <time>2022-03-07T09:15:35Z</time>
      </trkpt>
      <trkpt lat="46.59427" lon="5.47149">
        <ele>241.8</ele>
        <time>2022-03-07T09:15:36Z</time>
      </trkpt>
      <trkpt lat="46.59427" lon="5.47145">
        <ele>242.2</ele>
        <time>2022-03-07T09:15:37Z</time>
      </trkpt>
      <trkpt lat="46.59428" lon="5.47142">
        <ele>242.2</ele>
        <time>2022-03-07T09:15:38Z</time>
      </trkpt>
      <trkpt lat="46.59429" lon="5.47138">
        <ele>242.4</ele>
        <time>2022-03-07T09:15:39Z</time>
      </trkpt>
      <trkpt lat="46.5943" lon="5.47135">
        <ele>242.4</ele>
        <time>2022-03-07T09:15:40Z</time>
      </trkpt>
      <trkpt lat="46.59431" lon="5.47131">
        <ele>242.8</ele>
        <time>2022-03-07T09:15:41Z</time>
      </trkpt>
      <trkpt lat="46.59432" lon="5.47128">
        <ele>242.8</ele>
        <time>2022-03-07T09:15:42Z</time>
      </trkpt>
      <trkpt lat="46.59434" lon="5.47125">
        <ele>243</ele>
        <time>2022-03-07T09:15:43Z</time>
      </trkpt>
      <trkpt lat="46.59436" lon="5.47122">
        <ele>243</ele>
        <time>2022-03-07T09:15:44Z</time>
      </trkpt>
      <trkpt lat="46.59437" lon="5.47119">
        <ele>243.4</ele>
        <time>2022-03-07T09:15:45Z</time>
      </trkpt>
      <trkpt lat="46.59439" lon="5.47116">
        <ele>243.4</ele>
        <time>2022-03-07T09:15:46Z</time>
      </trkpt>
      <trkpt lat="46.59441" lon="5.47113">
        <ele>243.6</ele>
        <time>2022-03-07T09:15:47Z</time>
      </trkpt>
      <trkpt lat="46.59443" lon="5.47111">
        <ele>243.6</ele>
        <time>2022-03-07T09:15:48Z</time>
      </trkpt>
      <trkpt lat="46.59445" lon="5.47108">
        <ele>243.8</ele>
        <time>2022-03-07T09:15:49Z</time>
      </trkpt>
      <trkpt lat="46.59447" lon="5.47105">
        <ele>243.8</ele>
        <time>2022-03-07T09:15:50Z</time>
      </trkpt>
      <trkpt lat="46.59449" lon="5.47102">
        <ele>244.2</ele>
        <time>2022-03-07T09:15:51Z</time>
      </trkpt>
      <trkpt lat="46.5945" lon="5.47099">
        <ele>244.2</ele>
        <time>2022-03-07T09:15:52Z</time>
      </trkpt>
      <trkpt lat="46.59452" lon="5.47096">
        <ele>244.6</ele>
        <time>2022-03-07T09:15:53Z</time>
      </trkpt>
      <trkpt lat="46.59454" lon="5.47093">
        <ele>244.6</ele>
        <time>2022-03-07T09:15:54Z</time>
      </trkpt>
      <trkpt lat="46.59455" lon="5.4709">
        <ele>244.8</ele>
        <time>2022-03-07T09:15:55Z</time>
      </trkpt>
      <trkpt lat="46.59456" lon="5.47087">
        <ele>244.8</ele>
        <time>2022-03-07T09:15:56Z</time>
      </trkpt>
      <trkpt lat="46.59456" lon="5.47083">
        <ele>245</ele>
        <time>2022-03-07T09:15:57Z</time>
      </trkpt>
      <trkpt lat="46.59457" lon="5.4708">
        <ele>245</ele>
        <time>2022-03-07T09:15:58Z</time>
      </trkpt>
      <trkpt lat="46.59457" lon="5.47076">
        <ele>245.4</ele>
        <time>2022-03-07T09:15:59Z</time>
      </trkpt>
      <trkpt lat="46.59457" lon="5.47072">
        <ele>245.4</ele>
        <time>2022-03-07T09:16:00Z</time>
      </trkpt>
      <trkpt lat="46.59456" lon="5.47069">
        <ele>245.6</ele>
        <time>2022-03-07T09:16:01Z</time>
      </trkpt>
      <trkpt lat="46.59455" lon="5.47066">
        <ele>245.8</ele>
        <time>2022-03-07T09:16:02Z</time>
      </trkpt>
      <trkpt lat="46.59454" lon="5.47062">
        <ele>245.8</ele>
        <time>2022-03-07T09:16:03Z</time>
      </trkpt>
      <trkpt lat="46.59453" lon="5.47059">
        <ele>246</ele>
        <time>2022-03-07T09:16:04Z</time>
      </trkpt>
      <trkpt lat="46.59452" lon="5.47056">
        <ele>246</ele>
        <time>2022-03-07T09:16:05Z</time>
      </trkpt>
      <trkpt lat="46.59451" lon="5.47053">
        <ele>246.4</ele>
        <time>2022-03-07T09:16:06Z</time>
      </trkpt>
      <trkpt lat="46.59449" lon="5.4705">
        <ele>246.4</ele>
        <time>2022-03-07T09:16:07Z</time>
      </trkpt>
      <trkpt lat="46.59448" lon="5.47048">
        <ele>246.6</ele>
        <time>2022-03-07T09:16:08Z</time>
      </trkpt>
      <trkpt lat="46.59446" lon="5.47046">
        <ele>246.6</ele>
        <time>2022-03-07T09:16:09Z</time>
      </trkpt>
      <trkpt lat="46.59443" lon="5.47044">
        <ele>246.6</ele>
        <time>2022-03-07T09:16:10Z</time>
      </trkpt>
      <trkpt lat="46.59441" lon="5.47042">
        <ele>247</ele>
        <time>2022-03-07T09:16:11Z</time>
      </trkpt>
      <trkpt lat="46.59439" lon="5.4704">
        <ele>247</ele>
        <time>2022-03-07T09:16:12Z</time>
      </trkpt>
      <trkpt lat="46.59437" lon="5.47039">
        <ele>247</ele>
        <time>2022-03-07T09:16:13Z</time>
      </trkpt>
      <trkpt lat="46.59434" lon="5.47038">
        <ele>247.4</ele>
        <time>2022-03-07T09:16:14Z</time>
      </trkpt>
      <trkpt lat="46.59432" lon="5.47037">
        <ele>247.6</ele>
        <time>2022-03-07T09:16:15Z</time>
      </trkpt>
      <trkpt lat="46.5943" lon="5.47036">
        <ele>247.6</ele>
        <time>2022-03-07T09:16:16Z</time>
      </trkpt>
      <trkpt lat="46.59427" lon="5.47036">
        <ele>247.8</ele>
        <time>2022-03-07T09:16:17Z</time>
      </trkpt>
      <trkpt lat="46.59425" lon="5.47035">
        <ele>247.8</ele>
        <time>2022-03-07T09:16:18Z</time>
      </trkpt>
      <trkpt lat="46.59423" lon="5.47033">
        <ele>248.2</ele>
        <time>2022-03-07T09:16:19Z</time>
      </trkpt>
      <trkpt lat="46.59421" lon="5.47033">
        <ele>248.4</ele>
        <time>2022-03-07T09:16:20Z</time>
      </trkpt>
      <trkpt lat="46.59418" lon="5.47032">
        <ele>248.4</ele>
        <time>2022-03-07T09:16:21Z</time>
      </trkpt>
      <trkpt lat="46.59416" lon="5.4703">
        <ele>248.6</ele>
        <time>2022-03-07T09:16:22Z</time>
      </trkpt>
      <trkpt lat="46.59414" lon="5.47029">
        <ele>248.6</ele>
        <time>2022-03-07T09:16:23Z</time>
      </trkpt>
      <trkpt lat="46.59412" lon="5.47027">
        <ele>249</ele>
        <time>2022-03-07T09:16:24Z</time>
      </trkpt>
      <trkpt lat="46.5941" lon="5.47026">
        <ele>249</ele>
        <time>2022-03-07T09:16:25Z</time>
      </trkpt>
      <trkpt lat="46.59407" lon="5.47025">
        <ele>249.4</ele>
        <time>2022-03-07T09:16:26Z</time>
      </trkpt>
      <trkpt lat="46.59405" lon="5.47024">
        <ele>249.4</ele>
        <time>2022-03-07T09:16:27Z</time>
      </trkpt>
      <trkpt lat="46.59403" lon="5.47023">
        <ele>249.6</ele>
        <time>2022-03-07T09:16:28Z</time>
      </trkpt>
      <trkpt lat="46.594" lon="5.47022">
        <ele>249.6</ele>
        <time>2022-03-07T09:16:29Z</time>
      </trkpt>
      <trkpt lat="46.59398" lon="5.47021">
        <ele>250</ele>
        <time>2022-03-07T09:16:30Z</time>
      </trkpt>
      <trkpt lat="46.59396" lon="5.4702">
        <ele>250</ele>
        <time>2022-03-07T09:16:31Z</time>
      </trkpt>
      <trkpt lat="46.59394" lon="5.47019">
        <ele>250.2</ele>
        <time>2022-03-07T09:16:32Z</time>
      </trkpt>
      <trkpt lat="46.59391" lon="5.47017">
        <ele>250.2</ele>
        <time>2022-03-07T09:16:33Z</time>
      </trkpt>
      <trkpt lat="46.59389" lon="5.47017">
        <ele>250.4</ele>
        <time>2022-03-07T09:16:34Z</time>
      </trkpt>
      <trkpt lat="46.59387" lon="5.47016">
        <ele>250.4</ele>
        <time>2022-03-07T09:16:35Z</time>
      </trkpt>
      <trkpt lat="46.59384" lon="5.47016">
        <ele>250.8</ele>
        <time>2022-03-07T09:16:36Z</time>
      </trkpt>
      <trkpt lat="46.59382" lon="5.47015">
        <ele>250.8</ele>
        <time>2022-03-07T09:16:37Z</time>
      </trkpt>
      <trkpt lat="46.59379" lon="5.47014">
        <ele>251.2</ele>
        <time>2022-03-07T09:16:38Z</time>
      </trkpt>
      <trkpt lat="46.59377" lon="5.47012">
        <ele>251.2</ele>
        <time>2022-03-07T09:16:39Z</time>
      </trkpt>
      <trkpt lat="46.59375" lon="5.47011">
        <ele>251.4</ele>
        <time>2022-03-07T09:16:40Z</time>
      </trkpt>
      <trkpt lat="46.59373" lon="5.4701">
        <ele>251.6</ele>
        <time>2022-03-07T09:16:41Z</time>
      </trkpt>
      <trkpt lat="46.5937" lon="5.47009">
        <ele>251.6</ele>
        <time>2022-03-07T09:16:42Z</time>
      </trkpt>
      <trkpt lat="46.59368" lon="5.47008">
        <ele>251.6</ele>
        <time>2022-03-07T09:16:43Z</time>
      </trkpt>
      <trkpt lat="46.59366" lon="5.47006">
        <ele>251.8</ele>
        <time>2022-03-07T09:16:44Z</time>
      </trkpt>
      <trkpt lat="46.59363" lon="5.47005">
        <ele>251.8</ele>
        <time>2022-03-07T09:16:45Z</time>
      </trkpt>
      <trkpt lat="46.59361" lon="5.47002">
        <ele>252.2</ele>
        <time>2022-03-07T09:16:46Z</time>
      </trkpt>
      <trkpt lat="46.59359" lon="5.47">
        <ele>252.2</ele>
        <time>2022-03-07T09:16:47Z</time>
      </trkpt>
      <trkpt lat="46.59357" lon="5.46998">
        <ele>252.6</ele>
        <time>2022-03-07T09:16:48Z</time>
      </trkpt>
      <trkpt lat="46.59356" lon="5.46996">
        <ele>252.8</ele>
        <time>2022-03-07T09:16:49Z</time>
      </trkpt>
      <trkpt lat="46.59354" lon="5.46994">
        <ele>252.8</ele>
        <time>2022-03-07T09:16:50Z</time>
      </trkpt>
      <trkpt lat="46.59352" lon="5.46991">
        <ele>253</ele>
        <time>2022-03-07T09:16:51Z</time>
      </trkpt>
      <trkpt lat="46.59351" lon="5.46988">
        <ele>253</ele>
        <time>2022-03-07T09:16:52Z</time>
      </trkpt>
      <trkpt lat="46.59349" lon="5.46986">
        <ele>253.4</ele>
        <time>2022-03-07T09:16:53Z</time>
      </trkpt>
      <trkpt lat="46.59348" lon="5.46983">
        <ele>253.4</ele>
        <time>2022-03-07T09:16:54Z</time>
      </trkpt>
      <trkpt lat="46.59346" lon="5.4698">
        <ele>253.6</ele>
        <time>2022-03-07T09:16:55Z</time>
      </trkpt>
      <trkpt lat="46.59345" lon="5.46977">
        <ele>253.6</ele>
        <time>2022-03-07T09:16:56Z</time>
      </trkpt>
      <trkpt lat="46.59344" lon="5.46974">
        <ele>254</ele>
        <time>2022-03-07T09:16:57Z</time>
      </trkpt>
      <trkpt lat="46.59343" lon="5.46971">
        <ele>254</ele>
        <time>2022-03-07T09:16:58Z</time>
      </trkpt>
      <trkpt lat="46.59341" lon="5.46968">
        <ele>254.4</ele>
        <time>2022-03-07T09:16:59Z</time>
      </trkpt>
      <trkpt lat="46.59341" lon="5.46964">
        <ele>254.4</ele>
        <time>2022-03-07T09:17:00Z</time>
      </trkpt>
      <trkpt lat="46.5934" lon="5.46961">
        <ele>254.6</ele>
        <time>2022-03-07T09:17:01Z</time>
      </trkpt>
      <trkpt lat="46.59339" lon="5.46957">
        <ele>254.6</ele>
        <time>2022-03-07T09:17:02Z</time>
      </trkpt>
      <trkpt lat="46.59339" lon="5.46954">
        <ele>254.8</ele>
        <time>2022-03-07T09:17:03Z</time>
      </trkpt>
      <trkpt lat="46.59338" lon="5.4695">
        <ele>254.8</ele>
        <time>2022-03-07T09:17:04Z</time>
      </trkpt>
      <trkpt lat="46.59337" lon="5.46947">
        <ele>255.2</ele>
        <time>2022-03-07T09:17:05Z</time>
      </trkpt>
      <trkpt lat="46.59336" lon="5.46944">
        <ele>255.2</ele>
        <time>2022-03-07T09:17:06Z</time>
      </trkpt>
      <trkpt lat="46.59335" lon="5.4694">
        <ele>255.2</ele>
        <time>2022-03-07T09:17:07Z</time>
      </trkpt>
      <trkpt lat="46.59334" lon="5.46937">
        <ele>255.6</ele>
        <time>2022-03-07T09:17:08Z</time>
      </trkpt>
      <trkpt lat="46.59333" lon="5.46934">
        <ele>255.6</ele>
        <time>2022-03-07T09:17:09Z</time>
      </trkpt>
      <trkpt lat="46.59332" lon="5.46931">
        <ele>255.8</ele>
        <time>2022-03-07T09:17:10Z</time>
      </trkpt>
      <trkpt lat="46.5933" lon="5.46928">
        <ele>255.8</ele>
        <time>2022-03-07T09:17:11Z</time>
      </trkpt>
      <trkpt lat="46.59329" lon="5.46926">
        <ele>255.8</ele>
        <time>2022-03-07T09:17:12Z</time>
      </trkpt>
      <trkpt lat="46.59327" lon="5.46923">
        <ele>256.2</ele>
        <time>2022-03-07T09:17:13Z</time>
      </trkpt>
      <trkpt lat="46.59325" lon="5.46921">
        <ele>256.2</ele>
        <time>2022-03-07T09:17:14Z</time>
      </trkpt>
      <trkpt lat="46.59324" lon="5.46919">
        <ele>256.4</ele>
        <time>2022-03-07T09:17:15Z</time>
      </trkpt>
      <trkpt lat="46.59322" lon="5.46918">
        <ele>256.4</ele>
        <time>2022-03-07T09:17:16Z</time>
      </trkpt>
      <trkpt lat="46.5932" lon="5.46917">
        <ele>256.8</ele>
        <time>2022-03-07T09:17:17Z</time>
      </trkpt>
      <trkpt lat="46.59318" lon="5.46916">
        <ele>256.8</ele>
        <time>2022-03-07T09:17:18Z</time>
      </trkpt>
      <trkpt lat="46.59316" lon="5.46915">
        <ele>257.2</ele>
        <time>2022-03-07T09:17:19Z</time>
      </trkpt>
      <trkpt lat="46.59314" lon="5.46915">
        <ele>257.4</ele>
        <time>2022-03-07T09:17:20Z</time>
      </trkpt>
      <trkpt lat="46.59312" lon="5.46914">
        <ele>257.6</ele>
        <time>2022-03-07T09:17:21Z</time>
      </trkpt>
      <trkpt lat="46.59311" lon="5.46914">
        <ele>257.6</ele>
        <time>2022-03-07T09:17:22Z</time>
      </trkpt>
      <trkpt lat="46.5931" lon="5.46914">
        <ele>257.8</ele>
        <time>2022-03-07T09:17:23Z</time>
      </trkpt>
      <trkpt lat="46.5931" lon="5.46914">
        <ele>257.8</ele>
        <time>2022-03-07T09:17:24Z</time>
      </trkpt>
      <trkpt lat="46.5931" lon="5.46914">
        <ele>258</ele>
        <time>2022-03-07T09:17:25Z</time>
      </trkpt>
      <trkpt lat="46.5931" lon="5.46914">
        <ele>258</ele>
        <time>2022-03-07T09:17:26Z</time>
      </trkpt>
      <trkpt lat="46.5931" lon="5.46914">
        <ele>258</ele>
        <time>2022-03-07T09:17:28Z</time>
      </trkpt>
      <trkpt lat="46.5931" lon="5.46914">
        <ele>258</ele>
        <time>2022-03-07T09:17:29Z</time>
      </trkpt>
      <trkpt lat="46.5931" lon="5.46914">
        <ele>258</ele>
        <time>2022-03-07T09:17:30Z</time>
      </trkpt>
      <trkpt lat="46.5931" lon="5.46914">
        <ele>258</ele>
        <time>2022-03-07T09:17:31Z</time>
      </trkpt>
      <trkpt lat="46.5931" lon="5.46914">
        <ele>258</ele>
        <time>2022-03-07T09:17:33Z</time>
      </trkpt>
      <trkpt lat="46.5931" lon="5.46914">
        <ele>258</ele>
        <time>2022-03-07T09:17:34Z</time>
      </trkpt>
      <trkpt lat="46.5931" lon="5.46914">
        <ele>257.8</ele>
        <time>2022-03-07T09:18:46Z</time>
      </trkpt>
      <trkpt lat="46.5931" lon="5.46914">
        <ele>257.8</ele>
        <time>2022-03-07T09:18:47Z</time>
      </trkpt>
      <trkpt lat="46.5931" lon="5.46914">
        <ele>258</ele>
        <time>2022-03-07T09:18:48Z</time>
      </trkpt>
      <trkpt lat="46.5931" lon="5.46914">
        <ele>258</ele>
        <time>2022-03-07T09:18:50Z</time>
      </trkpt>
      <trkpt lat="46.59307" lon="5.46915">
        <ele>258</ele>
        <time>2022-03-07T09:18:51Z</time>
      </trkpt>
      <trkpt lat="46.59306" lon="5.46917">
        <ele>258</ele>
        <time>2022-03-07T09:18:52Z</time>
      </trkpt>
      <trkpt lat="46.59305" lon="5.4692">
        <ele>258</ele>
        <time>2022-03-07T09:18:53Z</time>
      </trkpt>
      <trkpt lat="46.59305" lon="5.46923">
        <ele>258</ele>
        <time>2022-03-07T09:18:54Z</time>
      </trkpt>
      <trkpt lat="46.59304" lon="5.46926">
        <ele>258</ele>
        <time>2022-03-07T09:18:55Z</time>
      </trkpt>
      <trkpt lat="46.59304" lon="5.46929">
        <ele>258.4</ele>
        <time>2022-03-07T09:18:56Z</time>
      </trkpt>
      <trkpt lat="46.59303" lon="5.46932">
        <ele>258.4</ele>
        <time>2022-03-07T09:18:57Z</time>
      </trkpt>
      <trkpt lat="46.59302" lon="5.46935">
        <ele>258.6</ele>
        <time>2022-03-07T09:18:58Z</time>
      </trkpt>
      <trkpt lat="46.59301" lon="5.46938">
        <ele>258.6</ele>
        <time>2022-03-07T09:18:59Z</time>
      </trkpt>
      <trkpt lat="46.593" lon="5.46942">
        <ele>258.8</ele>
        <time>2022-03-07T09:19:00Z</time>
      </trkpt>
      <trkpt lat="46.59299" lon="5.46945">
        <ele>258.8</ele>
        <time>2022-03-07T09:19:01Z</time>
      </trkpt>
      <trkpt lat="46.59298" lon="5.46948">
        <ele>258.8</ele>
        <time>2022-03-07T09:19:02Z</time>
      </trkpt>
      <trkpt lat="46.59297" lon="5.46951">
        <ele>259.2</ele>
        <time>2022-03-07T09:19:03Z</time>
      </trkpt>
      <trkpt lat="46.59296" lon="5.46955">
        <ele>259.2</ele>
        <time>2022-03-07T09:19:04Z</time>
      </trkpt>
      <trkpt lat="46.59294" lon="5.46957">
        <ele>259.4</ele>
        <time>2022-03-07T09:19:05Z</time>
      </trkpt>
      <trkpt lat="46.59292" lon="5.4696">
        <ele>259.4</ele>
        <time>2022-03-07T09:19:06Z</time>
      </trkpt>
      <trkpt lat="46.59291" lon="5.46963">
        <ele>259.6</ele>
        <time>2022-03-07T09:19:07Z</time>
      </trkpt>
      <trkpt lat="46.59289" lon="5.46966">
        <ele>259.6</ele>
        <time>2022-03-07T09:19:08Z</time>
      </trkpt>
      <trkpt lat="46.59289" lon="5.4697">
        <ele>259.8</ele>
        <time>2022-03-07T09:19:09Z</time>
      </trkpt>
      <trkpt lat="46.59288" lon="5.46973">
        <ele>259.8</ele>
        <time>2022-03-07T09:19:10Z</time>
      </trkpt>
      <trkpt lat="46.59287" lon="5.46976">
        <ele>260.2</ele>
        <time>2022-03-07T09:19:11Z</time>
      </trkpt>
      <trkpt lat="46.59286" lon="5.4698">
        <ele>260.2</ele>
        <time>2022-03-07T09:19:12Z</time>
      </trkpt>
      <trkpt lat="46.59285" lon="5.46983">
        <ele>260.4</ele>
        <time>2022-03-07T09:19:13Z</time>
      </trkpt>
      <trkpt lat="46.59285" lon="5.46986">
        <ele>260.4</ele>
        <time>2022-03-07T09:19:14Z</time>
      </trkpt>
      <trkpt lat="46.59284" lon="5.4699">
        <ele>260.4</ele>
        <time>2022-03-07T09:19:15Z</time>
      </trkpt>
      <trkpt lat="46.59284" lon="5.46993">
        <ele>260.8</ele>
        <time>2022-03-07T09:19:16Z</time>
      </trkpt>
      <trkpt lat="46.59283" lon="5.46997">
        <ele>260.8</ele>
        <time>2022-03-07T09:19:17Z</time>
      </trkpt>
      <trkpt lat="46.59283" lon="5.47">
        <ele>261</ele>
        <time>2022-03-07T09:19:18Z</time>
      </trkpt>
      <trkpt lat="46.59282" lon="5.47004">
        <ele>261</ele>
        <time>2022-03-07T09:19:19Z</time>
      </trkpt>
      <trkpt lat="46.59282" lon="5.47007">
        <ele>261.2</ele>
        <time>2022-03-07T09:19:20Z</time>
      </trkpt>
      <trkpt lat="46.59282" lon="5.47011">
        <ele>261.2</ele>
        <time>2022-03-07T09:19:21Z</time>
      </trkpt>
      <trkpt lat="46.59282" lon="5.47014">
        <ele>261.4</ele>
        <time>2022-03-07T09:19:22Z</time>
      </trkpt>
      <trkpt lat="46.59283" lon="5.47018">
        <ele>261.4</ele>
        <time>2022-03-07T09:19:23Z</time>
      </trkpt>
      <trkpt lat="46.59282" lon="5.47021">
        <ele>261.8</ele>
        <time>2022-03-07T09:19:24Z</time>
      </trkpt>
      <trkpt lat="46.59282" lon="5.47025">
        <ele>261.8</ele>
        <time>2022-03-07T09:19:25Z</time>
      </trkpt>
      <trkpt lat="46.59282" lon="5.47029">
        <ele>262</ele>
        <time>2022-03-07T09:19:26Z</time>
      </trkpt>
      <trkpt lat="46.59282" lon="5.47033">
        <ele>262</ele>
        <time>2022-03-07T09:19:27Z</time>
      </trkpt>
      <trkpt lat="46.59282" lon="5.47036">
        <ele>262.2</ele>
        <time>2022-03-07T09:19:28Z</time>
      </trkpt>
      <trkpt lat="46.59283" lon="5.4704">
        <ele>262.2</ele>
        <time>2022-03-07T09:19:29Z</time>
      </trkpt>
      <trkpt lat="46.59284" lon="5.47043">
        <ele>262.6</ele>
        <time>2022-03-07T09:19:30Z</time>
      </trkpt>
      <trkpt lat="46.59285" lon="5.47046">
        <ele>262.6</ele>
        <time>2022-03-07T09:19:31Z</time>
      </trkpt>
      <trkpt lat="46.59287" lon="5.47049">
        <ele>262.6</ele>
        <time>2022-03-07T09:19:32Z</time>
      </trkpt>
      <trkpt lat="46.59288" lon="5.47052">
        <ele>263</ele>
        <time>2022-03-07T09:19:33Z</time>
      </trkpt>
      <trkpt lat="46.5929" lon="5.47055">
        <ele>263</ele>
        <time>2022-03-07T09:19:34Z</time>
      </trkpt>
      <trkpt lat="46.59291" lon="5.47057">
        <ele>263.2</ele>
        <time>2022-03-07T09:19:35Z</time>
      </trkpt>
      <trkpt lat="46.59293" lon="5.47061">
        <ele>263.2</ele>
        <time>2022-03-07T09:19:36Z</time>
      </trkpt>
      <trkpt lat="46.59294" lon="5.47064">
        <ele>263.4</ele>
        <time>2022-03-07T09:19:37Z</time>
      </trkpt>
      <trkpt lat="46.59295" lon="5.47067">
        <ele>263.8</ele>
        <time>2022-03-07T09:19:38Z</time>
      </trkpt>
      <trkpt lat="46.59296" lon="5.47071">
        <ele>263.8</ele>
        <time>2022-03-07T09:19:39Z</time>
      </trkpt>
      <trkpt lat="46.59297" lon="5.47074">
        <ele>264</ele>
        <time>2022-03-07T09:19:40Z</time>
      </trkpt>
      <trkpt lat="46.59297" lon="5.47077">
        <ele>264</ele>
        <time>2022-03-07T09:19:41Z</time>
      </trkpt>
      <trkpt lat="46.59298" lon="5.47081">
        <ele>264.2</ele>
        <time>2022-03-07T09:19:42Z</time>
      </trkpt>
      <trkpt lat="46.59299" lon="5.47085">
        <ele>264.2</ele>
        <time>2022-03-07T09:19:43Z</time>
      </trkpt>
      <trkpt lat="46.59299" lon="5.47088">
        <ele>264.6</ele>
        <time>2022-03-07T09:19:44Z</time>
      </trkpt>
      <trkpt lat="46.59299" lon="5.47092">
        <ele>264.6</ele>
        <time>2022-03-07T09:19:45Z</time>
      </trkpt>
      <trkpt lat="46.59299" lon="5.47095">
        <ele>264.8</ele>
        <time>2022-03-07T09:19:46Z</time>
      </trkpt>
      <trkpt lat="46.59298" lon="5.47099">
        <ele>264.8</ele>
        <time>2022-03-07T09:19:47Z</time>
      </trkpt>
      <trkpt lat="46.59297" lon="5.47102">
        <ele>265.2</ele>
        <time>2022-03-07T09:19:48Z</time>
      </trkpt>
      <trkpt lat="46.59296" lon="5.47106">
        <ele>265.2</ele>
        <time>2022-03-07T09:19:49Z</time>
      </trkpt>
      <trkpt lat="46.59295" lon="5.47109">
        <ele>265.4</ele>
        <time>2022-03-07T09:19:50Z</time>
      </trkpt>
      <trkpt lat="46.59294" lon="5.47113">
        <ele>265.4</ele>
        <time>2022-03-07T09:19:51Z</time>
      </trkpt>
      <trkpt lat="46.59293" lon="5.47116">
        <ele>265.8</ele>
        <time>2022-03-07T09:19:52Z</time>
      </trkpt>
      <trkpt lat="46.59292" lon="5.47119">
        <ele>265.8</ele>
        <time>2022-03-07T09:19:53Z</time>
      </trkpt>
      <trkpt lat="46.5929" lon="5.47122">
        <ele>266</ele>
        <time>2022-03-07T09:19:54Z</time>
      </trkpt>
      <trkpt lat="46.59289" lon="5.47125">
        <ele>266</ele>
        <time>2022-03-07T09:19:55Z</time>
      </trkpt>
      <trkpt lat="46.59287" lon="5.47127">
        <ele>266.4</ele>
        <time>2022-03-07T09:19:56Z</time>
      </trkpt>
      <trkpt lat="46.59285" lon="5.47129">
        <ele>266.4</ele>
        <time>2022-03-07T09:19:57Z</time>
      </trkpt>
      <trkpt lat="46.59283" lon="5.47131">
        <ele>266.6</ele>
        <time>2022-03-07T09:19:58Z</time>
      </trkpt>
      <trkpt lat="46.59281" lon="5.47133">
        <ele>266.6</ele>
        <time>2022-03-07T09:19:59Z</time>
      </trkpt>
      <trkpt lat="46.59279" lon="5.47134">
        <ele>266.8</ele>
        <time>2022-03-07T09:20:00Z</time>
      </trkpt>
      <trkpt lat="46.59277" lon="5.47136">
        <ele>267.2</ele>
        <time>2022-03-07T09:20:01Z</time>
      </trkpt>
      <trkpt lat="46.59274" lon="5.47138">
        <ele>267.2</ele>
        <time>2022-03-07T09:20:02Z</time>
      </trkpt>
      <trkpt lat="46.59272" lon="5.47139">
        <ele>267.4</ele>
        <time>2022-03-07T09:20:03Z</time>
      </trkpt>
      <trkpt lat="46.5927" lon="5.4714">
        <ele>267.4</ele>
        <time>2022-03-07T09:20:04Z</time>
      </trkpt>
      <trkpt lat="46.59268" lon="5.47141">
        <ele>267.8</ele>
        <time>2022-03-07T09:20:05Z</time>
      </trkpt>
      <trkpt lat="46.59265" lon="5.47143">
        <ele>267.8</ele>
        <time>2022-03-07T09:20:06Z</time>
      </trkpt>
      <trkpt lat="46.59263" lon="5.47144">
        <ele>268</ele>
        <time>2022-03-07T09:20:07Z</time>
      </trkpt>
      <trkpt lat="46.59261" lon="5.47145">
        <ele>268</ele>
        <time>2022-03-07T09:20:08Z</time>
      </trkpt>
      <trkpt lat="46.59259" lon="5.47147">
        <ele>268.4</ele>
        <time>2022-03-07T09:20:09Z</time>
      </trkpt>
      <trkpt lat="46.59257" lon="5.47149">
        <ele>268.6</ele>
        <time>2022-03-07T09:20:10Z</time>
      </trkpt>
      <trkpt lat="46.59254" lon="5.4715">
        <ele>268.6</ele>
        <time>2022-03-07T09:20:11Z</time>
      </trkpt>
      <trkpt lat="46.59252" lon="5.47152">
        <ele>268.8</ele>
        <time>2022-03-07T09:20:12Z</time>
      </trkpt>
      <trkpt lat="46.5925" lon="5.47154">
        <ele>269</ele>
        <time>2022-03-07T09:20:13Z</time>
      </trkpt>
      <trkpt lat="46.59248" lon="5.47156">
        <ele>269</ele>
        <time>2022-03-07T09:20:14Z</time>
      </trkpt>
      <trkpt lat="46.59245" lon="5.47158">
        <ele>269.2</ele>
        <time>2022-03-07T09:20:15Z</time>
      </trkpt>
      <trkpt lat="46.59243" lon="5.4716">
        <ele>269.2</ele>
        <time>2022-03-07T09:20:16Z</time>
      </trkpt>
      <trkpt lat="46.59241" lon="5.47162">
        <ele>269.4</ele>
        <time>2022-03-07T09:20:17Z</time>
      </trkpt>
      <trkpt lat="46.59239" lon="5.47164">
        <ele>269.4</ele>
        <time>2022-03-07T09:20:18Z</time>
      </trkpt>
      <trkpt lat="46.59237" lon="5.47167">
        <ele>269.6</ele>
        <time>2022-03-07T09:20:19Z</time>
      </trkpt>
      <trkpt lat="46.59236" lon="5.47169">
        <ele>269.6</ele>
        <time>2022-03-07T09:20:20Z</time>
      </trkpt>
      <trkpt lat="46.59234" lon="5.47171">
        <ele>270</ele>
        <time>2022-03-07T09:20:21Z</time>
      </trkpt>
      <trkpt lat="46.59232" lon="5.47173">
        <ele>270.2</ele>
        <time>2022-03-07T09:20:22Z</time>
      </trkpt>
      <trkpt lat="46.5923" lon="5.47176">
        <ele>270.2</ele>
        <time>2022-03-07T09:20:23Z</time>
      </trkpt>
      <trkpt lat="46.59228" lon="5.47178">
        <ele>270.6</ele>
        <time>2022-03-07T09:20:24Z</time>
      </trkpt>
      <trkpt lat="46.59227" lon="5.47181">
        <ele>270.6</ele>
        <time>2022-03-07T09:20:25Z</time>
      </trkpt>
      <trkpt lat="46.59225" lon="5.47184">
        <ele>270.8</ele>
        <time>2022-03-07T09:20:26Z</time>
      </trkpt>
      <trkpt lat="46.59223" lon="5.47186">
        <ele>270.8</ele>
        <time>2022-03-07T09:20:27Z</time>
      </trkpt>
      <trkpt lat="46.59222" lon="5.47189">
        <ele>271</ele>
        <time>2022-03-07T09:20:28Z</time>
      </trkpt>
      <trkpt lat="46.5922" lon="5.47192">
        <ele>271</ele>
        <time>2022-03-07T09:20:29Z</time>
      </trkpt>
      <trkpt lat="46.59218" lon="5.47195">
        <ele>271.4</ele>
        <time>2022-03-07T09:20:30Z</time>
      </trkpt>
      <trkpt lat="46.59217" lon="5.47198">
        <ele>271.4</ele>
        <time>2022-03-07T09:20:31Z</time>
      </trkpt>
      <trkpt lat="46.59215" lon="5.47201">
        <ele>271.6</ele>
        <time>2022-03-07T09:20:32Z</time>
      </trkpt>
      <trkpt lat="46.59214" lon="5.47204">
        <ele>271.6</ele>
        <time>2022-03-07T09:20:33Z</time>
      </trkpt>
      <trkpt lat="46.59213" lon="5.47207">
        <ele>272</ele>
        <time>2022-03-07T09:20:34Z</time>
      </trkpt>
      <trkpt lat="46.59211" lon="5.4721">
        <ele>272</ele>
        <time>2022-03-07T09:20:35Z</time>
      </trkpt>
      <trkpt lat="46.5921" lon="5.47214">
        <ele>272</ele>
        <time>2022-03-07T09:20:36Z</time>
      </trkpt>
      <trkpt lat="46.59209" lon="5.47217">
        <ele>272.4</ele>
        <time>2022-03-07T09:20:37Z</time>
      </trkpt>
      <trkpt lat="46.59208" lon="5.47221">
        <ele>272.4</ele>
        <time>2022-03-07T09:20:38Z</time>
      </trkpt>
      <trkpt lat="46.59208" lon="5.47225">
        <ele>272.6</ele>
        <time>2022-03-07T09:20:39Z</time>
      </trkpt>
      <trkpt lat="46.59207" lon="5.47228">
        <ele>272.6</ele>
        <time>2022-03-07T09:20:40Z</time>
      </trkpt>
      <trkpt lat="46.59206" lon="5.47231">
        <ele>272.8</ele>
        <time>2022-03-07T09:20:41Z</time>
      </trkpt>
      <trkpt lat="46.59205" lon="5.47235">
        <ele>273.2</ele>
        <time>2022-03-07T09:20:42Z</time>
      </trkpt>
      <trkpt lat="46.59205" lon="5.47238">
        <ele>273.2</ele>
        <time>2022-03-07T09:20:43Z</time>
      </trkpt>
      <trkpt lat="46.59204" lon="5.47242">
        <ele>273.6</ele>
        <time>2022-03-07T09:20:44Z</time>
      </trkpt>
      <trkpt lat="46.59204" lon="5.47245">
        <ele>273.6</ele>
        <time>2022-03-07T09:20:45Z</time>
      </trkpt>
      <trkpt lat="46.59204" lon="5.47249">
        <ele>273.8</ele>
        <time>2022-03-07T09:20:46Z</time>
      </trkpt>
      <trkpt lat="46.59204" lon="5.47252">
        <ele>273.8</ele>
        <time>2022-03-07T09:20:47Z</time>
      </trkpt>
      <trkpt lat="46.59204" lon="5.47256">
        <ele>274.2</ele>
        <time>2022-03-07T09:20:48Z</time>
      </trkpt>
      <trkpt lat="46.59205" lon="5.47259">
        <ele>274.4</ele>
        <time>2022-03-07T09:20:49Z</time>
      </trkpt>
      <trkpt lat="46.59205" lon="5.47263">
        <ele>274.4</ele>
        <time>2022-03-07T09:20:50Z</time>
      </trkpt>
      <trkpt lat="46.59206" lon="5.47266">
        <ele>274.8</ele>
        <time>2022-03-07T09:20:51Z</time>
      </trkpt>
      <trkpt lat="46.59207" lon="5.4727">
        <ele>274.8</ele>
        <time>2022-03-07T09:20:52Z</time>
      </trkpt>
      <trkpt lat="46.59208" lon="5.47273">
        <ele>274.8</ele>
        <time>2022-03-07T09:20:53Z</time>
      </trkpt>
      <trkpt lat="46.59209" lon="5.47276">
        <ele>274.8</ele>
        <time>2022-03-07T09:20:54Z</time>
      </trkpt>
      <trkpt lat="46.5921" lon="5.4728">
        <ele>275</ele>
        <time>2022-03-07T09:20:55Z</time>
      </trkpt>
      <trkpt lat="46.59211" lon="5.47283">
        <ele>275.2</ele>
        <time>2022-03-07T09:20:56Z</time>
      </trkpt>
      <trkpt lat="46.59212" lon="5.47286">
        <ele>275.4</ele>
        <time>2022-03-07T09:20:57Z</time>
      </trkpt>
      <trkpt lat="46.59214" lon="5.47289">
        <ele>275.4</ele>
        <time>2022-03-07T09:20:58Z</time>
      </trkpt>
      <trkpt lat="46.59215" lon="5.47292">
        <ele>275.8</ele>
        <time>2022-03-07T09:20:59Z</time>
      </trkpt>
      <trkpt lat="46.59216" lon="5.47295">
        <ele>275.8</ele>
        <time>2022-03-07T09:21:00Z</time>
      </trkpt>
      <trkpt lat="46.59218" lon="5.47298">
        <ele>276.2</ele>
        <time>2022-03-07T09:21:01Z</time>
      </trkpt>
      <trkpt lat="46.59219" lon="5.47301">
        <ele>276.2</ele>
        <time>2022-03-07T09:21:02Z</time>
      </trkpt>
      <trkpt lat="46.5922" lon="5.47305">
        <ele>276.4</ele>
        <time>2022-03-07T09:21:03Z</time>
      </trkpt>
      <trkpt lat="46.59221" lon="5.47308">
        <ele>276.4</ele>
        <time>2022-03-07T09:21:04Z</time>
      </trkpt>
      <trkpt lat="46.59222" lon="5.47311">
        <ele>276.8</ele>
        <time>2022-03-07T09:21:05Z</time>
      </trkpt>
      <trkpt lat="46.59223" lon="5.47315">
        <ele>276.8</ele>
        <time>2022-03-07T09:21:06Z</time>
      </trkpt>
      <trkpt lat="46.59225" lon="5.47318">
        <ele>277</ele>
        <time>2022-03-07T09:21:07Z</time>
      </trkpt>
      <trkpt lat="46.59226" lon="5.47321">
        <ele>277</ele>
        <time>2022-03-07T09:21:08Z</time>
      </trkpt>
      <trkpt lat="46.59227" lon="5.47324">
        <ele>277.2</ele>
        <time>2022-03-07T09:21:09Z</time>
      </trkpt>
      <trkpt lat="46.59228" lon="5.47327">
        <ele>277.2</ele>
        <time>2022-03-07T09:21:10Z</time>
      </trkpt>
      <trkpt lat="46.59228" lon="5.4733">
        <ele>277.4</ele>
        <time>2022-03-07T09:21:11Z</time>
      </trkpt>
      <trkpt lat="46.59229" lon="5.47334">
        <ele>277.6</ele>
        <time>2022-03-07T09:21:12Z</time>
      </trkpt>
      <trkpt lat="46.59229" lon="5.47337">
        <ele>277.6</ele>
        <time>2022-03-07T09:21:13Z</time>
      </trkpt>
      <trkpt lat="46.59229" lon="5.4734">
        <ele>278</ele>
        <time>2022-03-07T09:21:14Z</time>
      </trkpt>
      <trkpt lat="46.59229" lon="5.47344">
        <ele>278</ele>
        <time>2022-03-07T09:21:15Z</time>
      </trkpt>
      <trkpt lat="46.59229" lon="5.47347">
        <ele>278.2</ele>
        <time>2022-03-07T09:21:16Z</time>
      </trkpt>
      <trkpt lat="46.59229" lon="5.4735">
        <ele>278.6</ele>
        <time>2022-03-07T09:21:17Z</time>
      </trkpt>
      <trkpt lat="46.59228" lon="5.47353">
        <ele>278.8</ele>
        <time>2022-03-07T09:21:18Z</time>
      </trkpt>
      <trkpt lat="46.59226" lon="5.47355">
        <ele>278.8</ele>
        <time>2022-03-07T09:21:19Z</time>
      </trkpt>
      <trkpt lat="46.59225" lon="5.47358">
        <ele>279.2</ele>
        <time>2022-03-07T09:21:20Z</time>
      </trkpt>
      <trkpt lat="46.59223" lon="5.47361">
        <ele>279.4</ele>
        <time>2022-03-07T09:21:21Z</time>
      </trkpt>
      <trkpt lat="46.59221" lon="5.47362">
        <ele>279.4</ele>
        <time>2022-03-07T09:21:22Z</time>
      </trkpt>
      <trkpt lat="46.59219" lon="5.47364">
        <ele>279.8</ele>
        <time>2022-03-07T09:21:23Z</time>
      </trkpt>
      <trkpt lat="46.59217" lon="5.47365">
        <ele>279.8</ele>
        <time>2022-03-07T09:21:24Z</time>
      </trkpt>
      <trkpt lat="46.59215" lon="5.47366">
        <ele>280.2</ele>
        <time>2022-03-07T09:21:25Z</time>
      </trkpt>
      <trkpt lat="46.59212" lon="5.47368">
        <ele>280.2</ele>
        <time>2022-03-07T09:21:26Z</time>
      </trkpt>
      <trkpt lat="46.5921" lon="5.4737">
        <ele>280.4</ele>
        <time>2022-03-07T09:21:27Z</time>
      </trkpt>
      <trkpt lat="46.59208" lon="5.47372">
        <ele>280.4</ele>
        <time>2022-03-07T09:21:28Z</time>
      </trkpt>
      <trkpt lat="46.59206" lon="5.47374">
        <ele>280.8</ele>
        <time>2022-03-07T09:21:29Z</time>
      </trkpt>
      <trkpt lat="46.59206" lon="5.47374">
        <ele>280.8</ele>
        <time>2022-03-07T09:21:30Z</time>
      </trkpt>
      <trkpt lat="46.59204" lon="5.47376">
        <ele>281</ele>
        <time>2022-03-07T09:21:31Z</time>
      </trkpt>
      <trkpt lat="46.59202" lon="5.47378">
        <ele>281</ele>
        <time>2022-03-07T09:21:32Z</time>
      </trkpt>
      <trkpt lat="46.592" lon="5.4738">
        <ele>281.4</ele>
        <time>2022-03-07T09:21:33Z</time>
      </trkpt>
      <trkpt lat="46.59198" lon="5.47382">
        <ele>281.4</ele>
        <time>2022-03-07T09:21:34Z</time>
      </trkpt>
      <trkpt lat="46.59196" lon="5.47384">
        <ele>281.8</ele>
        <time>2022-03-07T09:21:35Z</time>
      </trkpt>
      <trkpt lat="46.59194" lon="5.47387">
        <ele>281.8</ele>
        <time>2022-03-07T09:21:36Z</time>
      </trkpt>
      <trkpt lat="46.59192" lon="5.4739">
        <ele>282</ele>
        <time>2022-03-07T09:21:37Z</time>
      </trkpt>
      <trkpt lat="46.59191" lon="5.47392">
        <ele>282</ele>
        <time>2022-03-07T09:21:38Z</time>
      </trkpt>
      <trkpt lat="46.5919" lon="5.47395">
        <ele>282.4</ele>
        <time>2022-03-07T09:21:39Z</time>
      </trkpt>
      <trkpt lat="46.59188" lon="5.47397">
        <ele>282.6</ele>
        <time>2022-03-07T09:21:40Z</time>
      </trkpt>
      <trkpt lat="46.59187" lon="5.474">
        <ele>282.8</ele>
        <time>2022-03-07T09:21:41Z</time>
      </trkpt>
      <trkpt lat="46.59185" lon="5.47403">
        <ele>282.8</ele>
        <time>2022-03-07T09:21:42Z</time>
      </trkpt>
      <trkpt lat="46.59184" lon="5.47406">
        <ele>283.2</ele>
        <time>2022-03-07T09:21:43Z</time>
      </trkpt>
      <trkpt lat="46.59182" lon="5.47409">
        <ele>283.2</ele>
        <time>2022-03-07T09:21:44Z</time>
      </trkpt>
      <trkpt lat="46.59181" lon="5.47412">
        <ele>283.4</ele>
        <time>2022-03-07T09:21:45Z</time>
      </trkpt>
      <trkpt lat="46.5918" lon="5.47415">
        <ele>283.4</ele>
        <time>2022-03-07T09:21:46Z</time>
      </trkpt>
      <trkpt lat="46.59178" lon="5.47418">
        <ele>283.8</ele>
        <time>2022-03-07T09:21:47Z</time>
      </trkpt>
      <trkpt lat="46.59177" lon="5.4742">
        <ele>283.8</ele>
        <time>2022-03-07T09:21:48Z</time>
      </trkpt>
      <trkpt lat="46.59176" lon="5.47423">
        <ele>284</ele>
        <time>2022-03-07T09:21:49Z</time>
      </trkpt>
      <trkpt lat="46.59174" lon="5.47426">
        <ele>284</ele>
        <time>2022-03-07T09:21:50Z</time>
      </trkpt>
      <trkpt lat="46.59173" lon="5.47429">
        <ele>284.4</ele>
        <time>2022-03-07T09:21:51Z</time>
      </trkpt>
      <trkpt lat="46.59172" lon="5.47432">
        <ele>284.4</ele>
        <time>2022-03-07T09:21:52Z</time>
      </trkpt>
      <trkpt lat="46.5917" lon="5.47434">
        <ele>284.6</ele>
        <time>2022-03-07T09:21:53Z</time>
      </trkpt>
      <trkpt lat="46.59169" lon="5.47437">
        <ele>284.6</ele>
        <time>2022-03-07T09:21:54Z</time>
      </trkpt>
      <trkpt lat="46.59168" lon="5.4744">
        <ele>285</ele>
        <time>2022-03-07T09:21:55Z</time>
      </trkpt>
      <trkpt lat="46.59167" lon="5.47443">
        <ele>285.2</ele>
        <time>2022-03-07T09:21:56Z</time>
      </trkpt>
      <trkpt lat="46.59166" lon="5.47446">
        <ele>285.2</ele>
        <time>2022-03-07T09:21:57Z</time>
      </trkpt>
      <trkpt lat="46.59165" lon="5.47449">
        <ele>285.6</ele>
        <time>2022-03-07T09:21:58Z</time>
      </trkpt>
      <trkpt lat="46.59163" lon="5.47452">
        <ele>285.6</ele>
        <time>2022-03-07T09:21:59Z</time>
      </trkpt>
      <trkpt lat="46.59161" lon="5.47455">
        <ele>285.8</ele>
        <time>2022-03-07T09:22:00Z</time>
      </trkpt>
      <trkpt lat="46.5916" lon="5.47458">
        <ele>285.8</ele>
        <time>2022-03-07T09:22:01Z</time>
      </trkpt>
      <trkpt lat="46.59158" lon="5.4746">
        <ele>286.2</ele>
        <time>2022-03-07T09:22:02Z</time>
      </trkpt>
      <trkpt lat="46.59157" lon="5.47463">
        <ele>286.2</ele>
        <time>2022-03-07T09:22:03Z</time>
      </trkpt>
      <trkpt lat="46.59155" lon="5.47466">
        <ele>286.4</ele>
        <time>2022-03-07T09:22:04Z</time>
      </trkpt>
      <trkpt lat="46.59154" lon="5.47469">
        <ele>286.4</ele>
        <time>2022-03-07T09:22:05Z</time>
      </trkpt>
      <trkpt lat="46.59153" lon="5.47472">
        <ele>286.8</ele>
        <time>2022-03-07T09:22:06Z</time>
      </trkpt>
      <trkpt lat="46.59151" lon="5.47475">
        <ele>286.8</ele>
        <time>2022-03-07T09:22:07Z</time>
      </trkpt>
      <trkpt lat="46.5915" lon="5.47478">
        <ele>287</ele>
        <time>2022-03-07T09:22:08Z</time>
      </trkpt>
      <trkpt lat="46.59149" lon="5.47481">
        <ele>287</ele>
        <time>2022-03-07T09:22:09Z</time>
      </trkpt>
      <trkpt lat="46.59148" lon="5.47484">
        <ele>287.4</ele>
        <time>2022-03-07T09:22:10Z</time>
      </trkpt>
      <trkpt lat="46.59146" lon="5.47487">
        <ele>287.4</ele>
        <time>2022-03-07T09:22:11Z</time>
      </trkpt>
      <trkpt lat="46.59145" lon="5.47491">
        <ele>287.6</ele>
        <time>2022-03-07T09:22:12Z</time>
      </trkpt>
      <trkpt lat="46.59143" lon="5.47494">
        <ele>287.6</ele>
        <time>2022-03-07T09:22:13Z</time>
      </trkpt>
      <trkpt lat="46.59142" lon="5.47497">
        <ele>287.8</ele>
        <time>2022-03-07T09:22:14Z</time>
      </trkpt>
      <trkpt lat="46.5914" lon="5.475">
        <ele>287.8</ele>
        <time>2022-03-07T09:22:15Z</time>
      </trkpt>
      <trkpt lat="46.59139" lon="5.47503">
        <ele>288.2</ele>
        <time>2022-03-07T09:22:16Z</time>
      </trkpt>
      <trkpt lat="46.59137" lon="5.47506">
        <ele>288.2</ele>
        <time>2022-03-07T09:22:17Z</time>
      </trkpt>
      <trkpt lat="46.59136" lon="5.47509">
        <ele>288.6</ele>
        <time>2022-03-07T09:22:18Z</time>
      </trkpt>
      <trkpt lat="46.59134" lon="5.47512">
        <ele>288.6</ele>
        <time>2022-03-07T09:22:19Z</time>
      </trkpt>
      <trkpt lat="46.59132" lon="5.47515">
        <ele>288.8</ele>
        <time>2022-03-07T09:22:20Z</time>
      </trkpt>
      <trkpt lat="46.59131" lon="5.47518">
        <ele>288.8</ele>
        <time>2022-03-07T09:22:21Z</time>
      </trkpt>
      <trkpt lat="46.59129" lon="5.47522">
        <ele>289</ele>
        <time>2022-03-07T09:22:22Z</time>
      </trkpt>
      <trkpt lat="46.59128" lon="5.47525">
        <ele>289</ele>
        <time>2022-03-07T09:22:23Z</time>
      </trkpt>
      <trkpt lat="46.59127" lon="5.47528">
        <ele>289</ele>
        <time>2022-03-07T09:22:24Z</time>
      </trkpt>
      <trkpt lat="46.59125" lon="5.47532">
        <ele>289.2</ele>
        <time>2022-03-07T09:22:25Z</time>
      </trkpt>
      <trkpt lat="46.59124" lon="5.47535">
        <ele>289.2</ele>
        <time>2022-03-07T09:22:26Z</time>
      </trkpt>
      <trkpt lat="46.59122" lon="5.47538">
        <ele>289.4</ele>
        <time>2022-03-07T09:22:27Z</time>
      </trkpt>
      <trkpt lat="46.59121" lon="5.47541">
        <ele>289.4</ele>
        <time>2022-03-07T09:22:28Z</time>
      </trkpt>
      <trkpt lat="46.5912" lon="5.47544">
        <ele>289.6</ele>
        <time>2022-03-07T09:22:29Z</time>
      </trkpt>
      <trkpt lat="46.59118" lon="5.47547">
        <ele>289.6</ele>
        <time>2022-03-07T09:22:30Z</time>
      </trkpt>
      <trkpt lat="46.59117" lon="5.4755">
        <ele>289.6</ele>
        <time>2022-03-07T09:22:31Z</time>
      </trkpt>
      <trkpt lat="46.59114" lon="5.47556">
        <ele>290</ele>
        <time>2022-03-07T09:22:32Z</time>
      </trkpt>
      <trkpt lat="46.59112" lon="5.47559">
        <ele>290</ele>
        <time>2022-03-07T09:22:33Z</time>
      </trkpt>
      <trkpt lat="46.59111" lon="5.47562">
        <ele>290.2</ele>
        <time>2022-03-07T09:22:34Z</time>
      </trkpt>
      <trkpt lat="46.59109" lon="5.47565">
        <ele>290.2</ele>
        <time>2022-03-07T09:22:35Z</time>
      </trkpt>
      <trkpt lat="46.59107" lon="5.47567">
        <ele>290.4</ele>
        <time>2022-03-07T09:22:36Z</time>
      </trkpt>
      <trkpt lat="46.59106" lon="5.4757">
        <ele>290.4</ele>
        <time>2022-03-07T09:22:37Z</time>
      </trkpt>
      <trkpt lat="46.59104" lon="5.47573">
        <ele>290.6</ele>
        <time>2022-03-07T09:22:38Z</time>
      </trkpt>
      <trkpt lat="46.59103" lon="5.47576">
        <ele>290.6</ele>
        <time>2022-03-07T09:22:39Z</time>
      </trkpt>
      <trkpt lat="46.59101" lon="5.47579">
        <ele>291</ele>
        <time>2022-03-07T09:22:40Z</time>
      </trkpt>
      <trkpt lat="46.591" lon="5.47582">
        <ele>291</ele>
        <time>2022-03-07T09:22:41Z</time>
      </trkpt>
      <trkpt lat="46.59098" lon="5.47584">
        <ele>291</ele>
        <time>2022-03-07T09:22:42Z</time>
      </trkpt>
      <trkpt lat="46.59096" lon="5.47587">
        <ele>291.2</ele>
        <time>2022-03-07T09:22:43Z</time>
      </trkpt>
      <trkpt lat="46.59094" lon="5.47589">
        <ele>291.2</ele>
        <time>2022-03-07T09:22:44Z</time>
      </trkpt>
      <trkpt lat="46.59093" lon="5.47592">
        <ele>291.6</ele>
        <time>2022-03-07T09:22:45Z</time>
      </trkpt>
      <trkpt lat="46.59091" lon="5.47594">
        <ele>291.6</ele>
        <time>2022-03-07T09:22:46Z</time>
      </trkpt>
      <trkpt lat="46.5909" lon="5.47597">
        <ele>291.6</ele>
        <time>2022-03-07T09:22:47Z</time>
      </trkpt>
      <trkpt lat="46.59088" lon="5.47599">
        <ele>291.8</ele>
        <time>2022-03-07T09:22:48Z</time>
      </trkpt>
      <trkpt lat="46.59087" lon="5.47602">
        <ele>291.8</ele>
        <time>2022-03-07T09:22:49Z</time>
      </trkpt>
      <trkpt lat="46.59085" lon="5.47604">
        <ele>291.8</ele>
        <time>2022-03-07T09:22:50Z</time>
      </trkpt>
      <trkpt lat="46.59083" lon="5.47607">
        <ele>292</ele>
        <time>2022-03-07T09:22:51Z</time>
      </trkpt>
      <trkpt lat="46.59082" lon="5.47609">
        <ele>292</ele>
        <time>2022-03-07T09:22:52Z</time>
      </trkpt>
      <trkpt lat="46.5908" lon="5.47612">
        <ele>292</ele>
        <time>2022-03-07T09:22:53Z</time>
      </trkpt>
      <trkpt lat="46.59079" lon="5.47614">
        <ele>292.2</ele>
        <time>2022-03-07T09:22:54Z</time>
      </trkpt>
      <trkpt lat="46.59077" lon="5.47617">
        <ele>292.2</ele>
        <time>2022-03-07T09:22:55Z</time>
      </trkpt>
      <trkpt lat="46.59076" lon="5.47619">
        <ele>292.6</ele>
        <time>2022-03-07T09:22:56Z</time>
      </trkpt>
      <trkpt lat="46.59074" lon="5.47622">
        <ele>292.6</ele>
        <time>2022-03-07T09:22:57Z</time>
      </trkpt>
      <trkpt lat="46.59073" lon="5.47625">
        <ele>293</ele>
        <time>2022-03-07T09:22:58Z</time>
      </trkpt>
      <trkpt lat="46.59071" lon="5.47628">
        <ele>293</ele>
        <time>2022-03-07T09:22:59Z</time>
      </trkpt>
      <trkpt lat="46.5907" lon="5.4763">
        <ele>293.2</ele>
        <time>2022-03-07T09:23:00Z</time>
      </trkpt>
      <trkpt lat="46.59068" lon="5.47633">
        <ele>293.2</ele>
        <time>2022-03-07T09:23:01Z</time>
      </trkpt>
      <trkpt lat="46.59067" lon="5.47635">
        <ele>293.6</ele>
        <time>2022-03-07T09:23:02Z</time>
      </trkpt>
      <trkpt lat="46.59065" lon="5.47637">
        <ele>293.6</ele>
        <time>2022-03-07T09:23:03Z</time>
      </trkpt>
      <trkpt lat="46.59064" lon="5.47639">
        <ele>293.8</ele>
        <time>2022-03-07T09:23:04Z</time>
      </trkpt>
      <trkpt lat="46.59062" lon="5.47641">
        <ele>293.8</ele>
        <time>2022-03-07T09:23:05Z</time>
      </trkpt>
      <trkpt lat="46.5906" lon="5.47642">
        <ele>294.2</ele>
        <time>2022-03-07T09:23:06Z</time>
      </trkpt>
      <trkpt lat="46.59059" lon="5.47644">
        <ele>294.2</ele>
        <time>2022-03-07T09:23:07Z</time>
      </trkpt>
      <trkpt lat="46.59057" lon="5.47647">
        <ele>294.6</ele>
        <time>2022-03-07T09:23:08Z</time>
      </trkpt>
      <trkpt lat="46.59055" lon="5.47649">
        <ele>294.6</ele>
        <time>2022-03-07T09:23:09Z</time>
      </trkpt>
      <trkpt lat="46.59053" lon="5.47651">
        <ele>294.8</ele>
        <time>2022-03-07T09:23:10Z</time>
      </trkpt>
      <trkpt lat="46.59052" lon="5.47653">
        <ele>294.8</ele>
        <time>2022-03-07T09:23:11Z</time>
      </trkpt>
      <trkpt lat="46.5905" lon="5.47656">
        <ele>295.4</ele>
        <time>2022-03-07T09:23:12Z</time>
      </trkpt>
      <trkpt lat="46.59048" lon="5.47658">
        <ele>295.4</ele>
        <time>2022-03-07T09:23:13Z</time>
      </trkpt>
      <trkpt lat="46.59047" lon="5.4766">
        <ele>295.6</ele>
        <time>2022-03-07T09:23:14Z</time>
      </trkpt>
      <trkpt lat="46.59045" lon="5.47662">
        <ele>295.6</ele>
        <time>2022-03-07T09:23:15Z</time>
      </trkpt>
      <trkpt lat="46.59043" lon="5.47663">
        <ele>296</ele>
        <time>2022-03-07T09:23:16Z</time>
      </trkpt>
      <trkpt lat="46.59041" lon="5.47665">
        <ele>296</ele>
        <time>2022-03-07T09:23:17Z</time>
      </trkpt>
      <trkpt lat="46.59039" lon="5.47667">
        <ele>296.4</ele>
        <time>2022-03-07T09:23:18Z</time>
      </trkpt>
      <trkpt lat="46.59037" lon="5.47668">
        <ele>296.6</ele>
        <time>2022-03-07T09:23:19Z</time>
      </trkpt>
      <trkpt lat="46.59035" lon="5.4767">
        <ele>296.6</ele>
        <time>2022-03-07T09:23:20Z</time>
      </trkpt>
      <trkpt lat="46.59033" lon="5.47671">
        <ele>296.8</ele>
        <time>2022-03-07T09:23:21Z</time>
      </trkpt>
      <trkpt lat="46.59031" lon="5.47673">
        <ele>297</ele>
        <time>2022-03-07T09:23:22Z</time>
      </trkpt>
      <trkpt lat="46.59029" lon="5.47674">
        <ele>297</ele>
        <time>2022-03-07T09:23:23Z</time>
      </trkpt>
      <trkpt lat="46.59027" lon="5.47676">
        <ele>297.4</ele>
        <time>2022-03-07T09:23:24Z</time>
      </trkpt>
      <trkpt lat="46.59025" lon="5.47677">
        <ele>297.4</ele>
        <time>2022-03-07T09:23:25Z</time>
      </trkpt>
      <trkpt lat="46.59022" lon="5.47679">
        <ele>297.6</ele>
        <time>2022-03-07T09:23:26Z</time>
      </trkpt>
      <trkpt lat="46.5902" lon="5.4768">
        <ele>297.6</ele>
        <time>2022-03-07T09:23:27Z</time>
      </trkpt>
      <trkpt lat="46.59018" lon="5.47681">
        <ele>298</ele>
        <time>2022-03-07T09:23:28Z</time>
      </trkpt>
      <trkpt lat="46.59016" lon="5.47682">
        <ele>298.2</ele>
        <time>2022-03-07T09:23:29Z</time>
      </trkpt>
      <trkpt lat="46.59014" lon="5.47683">
        <ele>298.2</ele>
        <time>2022-03-07T09:23:30Z</time>
      </trkpt>
      <trkpt lat="46.59012" lon="5.47683">
        <ele>298.6</ele>
        <time>2022-03-07T09:23:31Z</time>
      </trkpt>
      <trkpt lat="46.5901" lon="5.47683">
        <ele>298.6</ele>
        <time>2022-03-07T09:23:32Z</time>
      </trkpt>
      <trkpt lat="46.59008" lon="5.47683">
        <ele>299</ele>
        <time>2022-03-07T09:23:33Z</time>
      </trkpt>
      <trkpt lat="46.59006" lon="5.47683">
        <ele>299.2</ele>
        <time>2022-03-07T09:23:34Z</time>
      </trkpt>
      <trkpt lat="46.59003" lon="5.47683">
        <ele>299.2</ele>
        <time>2022-03-07T09:23:35Z</time>
      </trkpt>
      <trkpt lat="46.59001" lon="5.47683">
        <ele>299.4</ele>
        <time>2022-03-07T09:23:36Z</time>
      </trkpt>
      <trkpt lat="46.58999" lon="5.47682">
        <ele>299.4</ele>
        <time>2022-03-07T09:23:37Z</time>
      </trkpt>
      <trkpt lat="46.58997" lon="5.47682">
        <ele>299.8</ele>
        <time>2022-03-07T09:23:38Z</time>
      </trkpt>
      <trkpt lat="46.58994" lon="5.47682">
        <ele>299.8</ele>
        <time>2022-03-07T09:23:39Z</time>
      </trkpt>
      <trkpt lat="46.58992" lon="5.47681">
        <ele>300.2</ele>
        <time>2022-03-07T09:23:40Z</time>
      </trkpt>
      <trkpt lat="46.5899" lon="5.4768">
        <ele>300.2</ele>
        <time>2022-03-07T09:23:41Z</time>
      </trkpt>
      <trkpt lat="46.58988" lon="5.4768">
        <ele>300.4</ele>
        <time>2022-03-07T09:23:42Z</time>
      </trkpt>
      <trkpt lat="46.58985" lon="5.47679">
        <ele>300.4</ele>
        <time>2022-03-07T09:23:43Z</time>
      </trkpt>
      <trkpt lat="46.58983" lon="5.47679">
        <ele>300.8</ele>
        <time>2022-03-07T09:23:44Z</time>
      </trkpt>
      <trkpt lat="46.58981" lon="5.47678">
        <ele>300.8</ele>
        <time>2022-03-07T09:23:45Z</time>
      </trkpt>
      <trkpt lat="46.58978" lon="5.47677">
        <ele>301.2</ele>
        <time>2022-03-07T09:23:46Z</time>
      </trkpt>
      <trkpt lat="46.58976" lon="5.47676">
        <ele>301.2</ele>
        <time>2022-03-07T09:23:47Z</time>
      </trkpt>
      <trkpt lat="46.58974" lon="5.47675">
        <ele>301.4</ele>
        <time>2022-03-07T09:23:48Z</time>
      </trkpt>
      <trkpt lat="46.58972" lon="5.47674">
        <ele>301.4</ele>
        <time>2022-03-07T09:23:49Z</time>
      </trkpt>
      <trkpt lat="46.58969" lon="5.47673">
        <ele>301.8</ele>
        <time>2022-03-07T09:23:50Z</time>
      </trkpt>
      <trkpt lat="46.58967" lon="5.47673">
        <ele>301.8</ele>
        <time>2022-03-07T09:23:51Z</time>
      </trkpt>
      <trkpt lat="46.58965" lon="5.47673">
        <ele>302</ele>
        <time>2022-03-07T09:23:52Z</time>
      </trkpt>
      <trkpt lat="46.58963" lon="5.47673">
        <ele>302.2</ele>
        <time>2022-03-07T09:23:53Z</time>
      </trkpt>
      <trkpt lat="46.5896" lon="5.47673">
        <ele>302.2</ele>
        <time>2022-03-07T09:23:54Z</time>
      </trkpt>
      <trkpt lat="46.58958" lon="5.47674">
        <ele>302.2</ele>
        <time>2022-03-07T09:23:55Z</time>
      </trkpt>
      <trkpt lat="46.58956" lon="5.47674">
        <ele>302.6</ele>
        <time>2022-03-07T09:23:56Z</time>
      </trkpt>
      <trkpt lat="46.58954" lon="5.47675">
        <ele>302.6</ele>
        <time>2022-03-07T09:23:57Z</time>
      </trkpt>
      <trkpt lat="46.58952" lon="5.47676">
        <ele>303</ele>
        <time>2022-03-07T09:23:58Z</time>
      </trkpt>
      <trkpt lat="46.5895" lon="5.47677">
        <ele>303</ele>
        <time>2022-03-07T09:23:59Z</time>
      </trkpt>
      <trkpt lat="46.58947" lon="5.47677">
        <ele>303.2</ele>
        <time>2022-03-07T09:24:00Z</time>
      </trkpt>
      <trkpt lat="46.58945" lon="5.47677">
        <ele>303.6</ele>
        <time>2022-03-07T09:24:01Z</time>
      </trkpt>
      <trkpt lat="46.58943" lon="5.47679">
        <ele>303.6</ele>
        <time>2022-03-07T09:24:02Z</time>
      </trkpt>
      <trkpt lat="46.58941" lon="5.47679">
        <ele>303.8</ele>
        <time>2022-03-07T09:24:03Z</time>
      </trkpt>
      <trkpt lat="46.58938" lon="5.4768">
        <ele>303.8</ele>
        <time>2022-03-07T09:24:04Z</time>
      </trkpt>
      <trkpt lat="46.58936" lon="5.47681">
        <ele>304.2</ele>
        <time>2022-03-07T09:24:05Z</time>
      </trkpt>
      <trkpt lat="46.58934" lon="5.47682">
        <ele>304.2</ele>
        <time>2022-03-07T09:24:06Z</time>
      </trkpt>
      <trkpt lat="46.58932" lon="5.47683">
        <ele>304.4</ele>
        <time>2022-03-07T09:24:07Z</time>
      </trkpt>
      <trkpt lat="46.58929" lon="5.47683">
        <ele>304.8</ele>
        <time>2022-03-07T09:24:08Z</time>
      </trkpt>
      <trkpt lat="46.58927" lon="5.47684">
        <ele>305</ele>
        <time>2022-03-07T09:24:09Z</time>
      </trkpt>
      <trkpt lat="46.58925" lon="5.47684">
        <ele>305</ele>
        <time>2022-03-07T09:24:10Z</time>
      </trkpt>
      <trkpt lat="46.58923" lon="5.47685">
        <ele>305.2</ele>
        <time>2022-03-07T09:24:11Z</time>
      </trkpt>
      <trkpt lat="46.58921" lon="5.47686">
        <ele>305.2</ele>
        <time>2022-03-07T09:24:12Z</time>
      </trkpt>
      <trkpt lat="46.58918" lon="5.47687">
        <ele>305.6</ele>
        <time>2022-03-07T09:24:13Z</time>
      </trkpt>
      <trkpt lat="46.58916" lon="5.47689">
        <ele>305.6</ele>
        <time>2022-03-07T09:24:14Z</time>
      </trkpt>
      <trkpt lat="46.58914" lon="5.4769">
        <ele>306</ele>
        <time>2022-03-07T09:24:15Z</time>
      </trkpt>
      <trkpt lat="46.58912" lon="5.47691">
        <ele>306.2</ele>
        <time>2022-03-07T09:24:16Z</time>
      </trkpt>
      <trkpt lat="46.5891" lon="5.47693">
        <ele>306.4</ele>
        <time>2022-03-07T09:24:17Z</time>
      </trkpt>
      <trkpt lat="46.58908" lon="5.47694">
        <ele>306.4</ele>
        <time>2022-03-07T09:24:18Z</time>
      </trkpt>
      <trkpt lat="46.58905" lon="5.47695">
        <ele>306.6</ele>
        <time>2022-03-07T09:24:19Z</time>
      </trkpt>
      <trkpt lat="46.58903" lon="5.47697">
        <ele>306.6</ele>
        <time>2022-03-07T09:24:20Z</time>
      </trkpt>
      <trkpt lat="46.58901" lon="5.47699">
        <ele>307</ele>
        <time>2022-03-07T09:24:21Z</time>
      </trkpt>
      <trkpt lat="46.58899" lon="5.47701">
        <ele>307</ele>
        <time>2022-03-07T09:24:22Z</time>
      </trkpt>
      <trkpt lat="46.58898" lon="5.47703">
        <ele>307.2</ele>
        <time>2022-03-07T09:24:23Z</time>
      </trkpt>
      <trkpt lat="46.58896" lon="5.47705">
        <ele>307.2</ele>
        <time>2022-03-07T09:24:24Z</time>
      </trkpt>
      <trkpt lat="46.58894" lon="5.47706">
        <ele>307.6</ele>
        <time>2022-03-07T09:24:25Z</time>
      </trkpt>
      <trkpt lat="46.58892" lon="5.47708">
        <ele>307.6</ele>
        <time>2022-03-07T09:24:26Z</time>
      </trkpt>
      <trkpt lat="46.5889" lon="5.4771">
        <ele>307.8</ele>
        <time>2022-03-07T09:24:27Z</time>
      </trkpt>
      <trkpt lat="46.58888" lon="5.47712">
        <ele>307.8</ele>
        <time>2022-03-07T09:24:28Z</time>
      </trkpt>
      <trkpt lat="46.58886" lon="5.47713">
        <ele>308.2</ele>
        <time>2022-03-07T09:24:29Z</time>
      </trkpt>
      <trkpt lat="46.58884" lon="5.47715">
        <ele>308.2</ele>
        <time>2022-03-07T09:24:30Z</time>
      </trkpt>
      <trkpt lat="46.58883" lon="5.47717">
        <ele>308.4</ele>
        <time>2022-03-07T09:24:31Z</time>
      </trkpt>
      <trkpt lat="46.58881" lon="5.47719">
        <ele>308.4</ele>
        <time>2022-03-07T09:24:32Z</time>
      </trkpt>
      <trkpt lat="46.58879" lon="5.47721">
        <ele>308.8</ele>
        <time>2022-03-07T09:24:33Z</time>
      </trkpt>
      <trkpt lat="46.58878" lon="5.47723">
        <ele>308.8</ele>
        <time>2022-03-07T09:24:34Z</time>
      </trkpt>
      <trkpt lat="46.58877" lon="5.47725">
        <ele>308.8</ele>
        <time>2022-03-07T09:24:35Z</time>
      </trkpt>
      <trkpt lat="46.58876" lon="5.47726">
        <ele>308.8</ele>
        <time>2022-03-07T09:24:36Z</time>
      </trkpt>
      <trkpt lat="46.58876" lon="5.47726">
        <ele>309</ele>
        <time>2022-03-07T09:24:37Z</time>
      </trkpt>
      <trkpt lat="46.58875" lon="5.47726">
        <ele>309</ele>
        <time>2022-03-07T09:24:38Z</time>
      </trkpt>
      <trkpt lat="46.58875" lon="5.47726">
        <ele>309</ele>
        <time>2022-03-07T09:24:39Z</time>
      </trkpt>
      <trkpt lat="46.58875" lon="5.47726">
        <ele>309</ele>
        <time>2022-03-07T09:24:45Z</time>
      </trkpt>
      <trkpt lat="46.58875" lon="5.47726">
        <ele>309</ele>
        <time>2022-03-07T09:24:46Z</time>
      </trkpt>
      <trkpt lat="46.58875" lon="5.47726">
        <ele>309</ele>
        <time>2022-03-07T09:24:47Z</time>
      </trkpt>
      <trkpt lat="46.58875" lon="5.47726">
        <ele>309</ele>
        <time>2022-03-07T09:24:48Z</time>
      </trkpt>
      <trkpt lat="46.58875" lon="5.47726">
        <ele>309</ele>
        <time>2022-03-07T09:24:49Z</time>
      </trkpt>
      <trkpt lat="46.58875" lon="5.47726">
        <ele>309</ele>
        <time>2022-03-07T09:24:50Z</time>
      </trkpt>
      <trkpt lat="46.58875" lon="5.47726">
        <ele>309</ele>
        <time>2022-03-07T09:26:05Z</time>
      </trkpt>
      <trkpt lat="46.58875" lon="5.47726">
        <ele>309</ele>
        <time>2022-03-07T09:26:06Z</time>
      </trkpt>
      <trkpt lat="46.58875" lon="5.47726">
        <ele>309</ele>
        <time>2022-03-07T09:26:07Z</time>
      </trkpt>
      <trkpt lat="46.58875" lon="5.47726">
        <ele>309</ele>
        <time>2022-03-07T09:26:08Z</time>
      </trkpt>
      <trkpt lat="46.58875" lon="5.4773">
        <ele>309</ele>
        <time>2022-03-07T09:26:09Z</time>
      </trkpt>
      <trkpt lat="46.58875" lon="5.47732">
        <ele>309</ele>
        <time>2022-03-07T09:26:10Z</time>
      </trkpt>
      <trkpt lat="46.58876" lon="5.47735">
        <ele>309</ele>
        <time>2022-03-07T09:26:11Z</time>
      </trkpt>
      <trkpt lat="46.58876" lon="5.47738">
        <ele>309</ele>
        <time>2022-03-07T09:26:12Z</time>
      </trkpt>
      <trkpt lat="46.58875" lon="5.47741">
        <ele>309</ele>
        <time>2022-03-07T09:26:13Z</time>
      </trkpt>
      <trkpt lat="46.58875" lon="5.47744">
        <ele>309</ele>
        <time>2022-03-07T09:26:14Z</time>
      </trkpt>
      <trkpt lat="46.58876" lon="5.47748">
        <ele>309</ele>
        <time>2022-03-07T09:26:15Z</time>
      </trkpt>
      <trkpt lat="46.58876" lon="5.47751">
        <ele>309</ele>
        <time>2022-03-07T09:26:16Z</time>
      </trkpt>
      <trkpt lat="46.58876" lon="5.47755">
        <ele>309</ele>
        <time>2022-03-07T09:26:17Z</time>
      </trkpt>
      <trkpt lat="46.58876" lon="5.47758">
        <ele>309.2</ele>
        <time>2022-03-07T09:26:18Z</time>
      </trkpt>
      <trkpt lat="46.58876" lon="5.47762">
        <ele>309.2</ele>
        <time>2022-03-07T09:26:19Z</time>
      </trkpt>
      <trkpt lat="46.58876" lon="5.47765">
        <ele>309.2</ele>
        <time>2022-03-07T09:26:20Z</time>
      </trkpt>
      <trkpt lat="46.58876" lon="5.47769">
        <ele>309.6</ele>
        <time>2022-03-07T09:26:21Z</time>
      </trkpt>
      <trkpt lat="46.58876" lon="5.47772">
        <ele>309.6</ele>
        <time>2022-03-07T09:26:22Z</time>
      </trkpt>
      <trkpt lat="46.58876" lon="5.47776">
        <ele>309.6</ele>
        <time>2022-03-07T09:26:23Z</time>
      </trkpt>
      <trkpt lat="46.58876" lon="5.4778">
        <ele>309.8</ele>
        <time>2022-03-07T09:26:24Z</time>
      </trkpt>
      <trkpt lat="46.58876" lon="5.47783">
        <ele>309.8</ele>
        <time>2022-03-07T09:26:25Z</time>
      </trkpt>
      <trkpt lat="46.58877" lon="5.47787">
        <ele>310.2</ele>
        <time>2022-03-07T09:26:26Z</time>
      </trkpt>
      <trkpt lat="46.58878" lon="5.47791">
        <ele>310.2</ele>
        <time>2022-03-07T09:26:27Z</time>
      </trkpt>
      <trkpt lat="46.58878" lon="5.47794">
        <ele>310.2</ele>
        <time>2022-03-07T09:26:28Z</time>
      </trkpt>
      <trkpt lat="46.58878" lon="5.47798">
        <ele>310.4</ele>
        <time>2022-03-07T09:26:29Z</time>
      </trkpt>
      <trkpt lat="46.58878" lon="5.47801">
        <ele>310.4</ele>
        <time>2022-03-07T09:26:30Z</time>
      </trkpt>
      <trkpt lat="46.58879" lon="5.47804">
        <ele>310.6</ele>
        <time>2022-03-07T09:26:31Z</time>
      </trkpt>
      <trkpt lat="46.5888" lon="5.47807">
        <ele>310.6</ele>
        <time>2022-03-07T09:26:32Z</time>
      </trkpt>
      <trkpt lat="46.58881" lon="5.47811">
        <ele>310.6</ele>
        <time>2022-03-07T09:26:33Z</time>
      </trkpt>
      <trkpt lat="46.58882" lon="5.47814">
        <ele>311</ele>
        <time>2022-03-07T09:26:34Z</time>
      </trkpt>
      <trkpt lat="46.58884" lon="5.47818">
        <ele>311</ele>
        <time>2022-03-07T09:26:35Z</time>
      </trkpt>
      <trkpt lat="46.58885" lon="5.47821">
        <ele>311.2</ele>
        <time>2022-03-07T09:26:36Z</time>
      </trkpt>
      <trkpt lat="46.58887" lon="5.47824">
        <ele>311.2</ele>
        <time>2022-03-07T09:26:37Z</time>
      </trkpt>
      <trkpt lat="46.58889" lon="5.47827">
        <ele>311.2</ele>
        <time>2022-03-07T09:26:38Z</time>
      </trkpt>
      <trkpt lat="46.58891" lon="5.47829">
        <ele>311.4</ele>
        <time>2022-03-07T09:26:39Z</time>
      </trkpt>
      <trkpt lat="46.58893" lon="5.47831">
        <ele>311.4</ele>
        <time>2022-03-07T09:26:40Z</time>
      </trkpt>
      <trkpt lat="46.58895" lon="5.47834">
        <ele>311.6</ele>
        <time>2022-03-07T09:26:41Z</time>
      </trkpt>
      <trkpt lat="46.58897" lon="5.47836">
        <ele>312</ele>
        <time>2022-03-07T09:26:42Z</time>
      </trkpt>
      <trkpt lat="46.58899" lon="5.47838">
        <ele>312</ele>
        <time>2022-03-07T09:26:43Z</time>
      </trkpt>
      <trkpt lat="46.58901" lon="5.4784">
        <ele>312.2</ele>
        <time>2022-03-07T09:26:44Z</time>
      </trkpt>
      <trkpt lat="46.58903" lon="5.47842">
        <ele>312.2</ele>
        <time>2022-03-07T09:26:45Z</time>
      </trkpt>
      <trkpt lat="46.58905" lon="5.47844">
        <ele>312.4</ele>
        <time>2022-03-07T09:26:46Z</time>
      </trkpt>
      <trkpt lat="46.58908" lon="5.47846">
        <ele>312.4</ele>
        <time>2022-03-07T09:26:47Z</time>
      </trkpt>
      <trkpt lat="46.5891" lon="5.47847">
        <ele>312.8</ele>
        <time>2022-03-07T09:26:48Z</time>
      </trkpt>
      <trkpt lat="46.58913" lon="5.47849">
        <ele>312.8</ele>
        <time>2022-03-07T09:26:49Z</time>
      </trkpt>
      <trkpt lat="46.58915" lon="5.47851">
        <ele>313.2</ele>
        <time>2022-03-07T09:26:50Z</time>
      </trkpt>
      <trkpt lat="46.58917" lon="5.47852">
        <ele>313.2</ele>
        <time>2022-03-07T09:26:51Z</time>
      </trkpt>
      <trkpt lat="46.58919" lon="5.47853">
        <ele>313.6</ele>
        <time>2022-03-07T09:26:52Z</time>
      </trkpt>
      <trkpt lat="46.58922" lon="5.47854">
        <ele>313.6</ele>
        <time>2022-03-07T09:26:53Z</time>
      </trkpt>
      <trkpt lat="46.58925" lon="5.47855">
        <ele>313.6</ele>
        <time>2022-03-07T09:26:54Z</time>
      </trkpt>
      <trkpt lat="46.58927" lon="5.47856">
        <ele>314</ele>
        <time>2022-03-07T09:26:55Z</time>
      </trkpt>
      <trkpt lat="46.5893" lon="5.47857">
        <ele>314</ele>
        <time>2022-03-07T09:26:56Z</time>
      </trkpt>
      <trkpt lat="46.58932" lon="5.47858">
        <ele>314.2</ele>
        <time>2022-03-07T09:26:57Z</time>
      </trkpt>
      <trkpt lat="46.58935" lon="5.4786">
        <ele>314.2</ele>
        <time>2022-03-07T09:26:58Z</time>
      </trkpt>
      <trkpt lat="46.58937" lon="5.47861">
        <ele>314.4</ele>
        <time>2022-03-07T09:26:59Z</time>
      </trkpt>
      <trkpt lat="46.5894" lon="5.47863">
        <ele>314.4</ele>
        <time>2022-03-07T09:27:00Z</time>
      </trkpt>
      <trkpt lat="46.58942" lon="5.47865">
        <ele>314.8</ele>
        <time>2022-03-07T09:27:01Z</time>
      </trkpt>
      <trkpt lat="46.58945" lon="5.47867">
        <ele>314.8</ele>
        <time>2022-03-07T09:27:02Z</time>
      </trkpt>
      <trkpt lat="46.58947" lon="5.47869">
        <ele>314.8</ele>
        <time>2022-03-07T09:27:03Z</time>
      </trkpt>
      <trkpt lat="46.58949" lon="5.4787">
        <ele>314.8</ele>
        <time>2022-03-07T09:27:04Z</time>
      </trkpt>
      <trkpt lat="46.58952" lon="5.47872">
        <ele>315</ele>
        <time>2022-03-07T09:27:05Z</time>
      </trkpt>
      <trkpt lat="46.58954" lon="5.47874">
        <ele>315</ele>
        <time>2022-03-07T09:27:06Z</time>
      </trkpt>
      <trkpt lat="46.58956" lon="5.47876">
        <ele>315.2</ele>
        <time>2022-03-07T09:27:07Z</time>
      </trkpt>
      <trkpt lat="46.58959" lon="5.47877">
        <ele>315.2</ele>
        <time>2022-03-07T09:27:08Z</time>
      </trkpt>
      <trkpt lat="46.58961" lon="5.47879">
        <ele>315.6</ele>
        <time>2022-03-07T09:27:09Z</time>
      </trkpt>
      <trkpt lat="46.58964" lon="5.47881">
        <ele>315.6</ele>
        <time>2022-03-07T09:27:10Z</time>
      </trkpt>
      <trkpt lat="46.58966" lon="5.47882">
        <ele>316</ele>
        <time>2022-03-07T09:27:11Z</time>
      </trkpt>
      <trkpt lat="46.58969" lon="5.47883">
        <ele>316</ele>
        <time>2022-03-07T09:27:12Z</time>
      </trkpt>
      <trkpt lat="46.58971" lon="5.47885">
        <ele>316.2</ele>
        <time>2022-03-07T09:27:13Z</time>
      </trkpt>
      <trkpt lat="46.58973" lon="5.47886">
        <ele>316.2</ele>
        <time>2022-03-07T09:27:14Z</time>
      </trkpt>
      <trkpt lat="46.58976" lon="5.47888">
        <ele>316.4</ele>
        <time>2022-03-07T09:27:15Z</time>
      </trkpt>
      <trkpt lat="46.58978" lon="5.47889">
        <ele>316.4</ele>
        <time>2022-03-07T09:27:16Z</time>
      </trkpt>
      <trkpt lat="46.5898" lon="5.47891">
        <ele>316.6</ele>
        <time>2022-03-07T09:27:17Z</time>
      </trkpt>
      <trkpt lat="46.58983" lon="5.47892">
        <ele>316.6</ele>
        <time>2022-03-07T09:27:18Z</time>
      </trkpt>
      <trkpt lat="46.58985" lon="5.47894">
        <ele>317</ele>
        <time>2022-03-07T09:27:19Z</time>
      </trkpt>
      <trkpt lat="46.58987" lon="5.47896">
        <ele>317</ele>
        <time>2022-03-07T09:27:20Z</time>
      </trkpt>
      <trkpt lat="46.5899" lon="5.47898">
        <ele>317.4</ele>
        <time>2022-03-07T09:27:21Z</time>
      </trkpt>
      <trkpt lat="46.58992" lon="5.479">
        <ele>317.4</ele>
        <time>2022-03-07T09:27:22Z</time>
      </trkpt>
      <trkpt lat="46.58995" lon="5.47901">
        <ele>317.6</ele>
        <time>2022-03-07T09:27:23Z</time>
      </trkpt>
      <trkpt lat="46.58997" lon="5.47903">
        <ele>317.6</ele>
        <time>2022-03-07T09:27:24Z</time>
      </trkpt>
      <trkpt lat="46.59" lon="5.47905">
        <ele>317.8</ele>
        <time>2022-03-07T09:27:25Z</time>
      </trkpt>
      <trkpt lat="46.59003" lon="5.47906">
        <ele>317.8</ele>
        <time>2022-03-07T09:27:26Z</time>
      </trkpt>
      <trkpt lat="46.59005" lon="5.47909">
        <ele>318.2</ele>
        <time>2022-03-07T09:27:27Z</time>
      </trkpt>
      <trkpt lat="46.59008" lon="5.47911">
        <ele>318.2</ele>
        <time>2022-03-07T09:27:28Z</time>
      </trkpt>
      <trkpt lat="46.5901" lon="5.47914">
        <ele>318.6</ele>
        <time>2022-03-07T09:27:29Z</time>
      </trkpt>
      <trkpt lat="46.59013" lon="5.47916">
        <ele>318.6</ele>
        <time>2022-03-07T09:27:30Z</time>
      </trkpt>
      <trkpt lat="46.59015" lon="5.47919">
        <ele>318.8</ele>
        <time>2022-03-07T09:27:31Z</time>
      </trkpt>
      <trkpt lat="46.59017" lon="5.47922">
        <ele>318.8</ele>
        <time>2022-03-07T09:27:32Z</time>
      </trkpt>
      <trkpt lat="46.59019" lon="5.47924">
        <ele>319</ele>
        <time>2022-03-07T09:27:33Z</time>
      </trkpt>
      <trkpt lat="46.59021" lon="5.47927">
        <ele>319</ele>
        <time>2022-03-07T09:27:34Z</time>
      </trkpt>
      <trkpt lat="46.59023" lon="5.4793">
        <ele>319.4</ele>
        <time>2022-03-07T09:27:35Z</time>
      </trkpt>
      <trkpt lat="46.59024" lon="5.47933">
        <ele>319.4</ele>
        <time>2022-03-07T09:27:36Z</time>
      </trkpt>
      <trkpt lat="46.59025" lon="5.47936">
        <ele>319.6</ele>
        <time>2022-03-07T09:27:37Z</time>
      </trkpt>
      <trkpt lat="46.59027" lon="5.47939">
        <ele>319.6</ele>
        <time>2022-03-07T09:27:38Z</time>
      </trkpt>
      <trkpt lat="46.59028" lon="5.47942">
        <ele>320</ele>
        <time>2022-03-07T09:27:39Z</time>
      </trkpt>
      <trkpt lat="46.59028" lon="5.47946">
        <ele>320</ele>
        <time>2022-03-07T09:27:40Z</time>
      </trkpt>
      <trkpt lat="46.59028" lon="5.47949">
        <ele>320.2</ele>
        <time>2022-03-07T09:27:41Z</time>
      </trkpt>
      <trkpt lat="46.59028" lon="5.47953">
        <ele>320.2</ele>
        <time>2022-03-07T09:27:42Z</time>
      </trkpt>
      <trkpt lat="46.59028" lon="5.47956">
        <ele>320.6</ele>
        <time>2022-03-07T09:27:43Z</time>
      </trkpt>
      <trkpt lat="46.59028" lon="5.4796">
        <ele>320.8</ele>
        <time>2022-03-07T09:27:44Z</time>
      </trkpt>
      <trkpt lat="46.59027" lon="5.47963">
        <ele>321</ele>
        <time>2022-03-07T09:27:45Z</time>
      </trkpt>
      <trkpt lat="46.59027" lon="5.47966">
        <ele>321</ele>
        <time>2022-03-07T09:27:46Z</time>
      </trkpt>
      <trkpt lat="46.59026" lon="5.47969">
        <ele>321.4</ele>
        <time>2022-03-07T09:27:47Z</time>
      </trkpt>
      <trkpt lat="46.59025" lon="5.47972">
        <ele>321.6</ele>
        <time>2022-03-07T09:27:48Z</time>
      </trkpt>
      <trkpt lat="46.59023" lon="5.47975">
        <ele>321.6</ele>
        <time>2022-03-07T09:27:49Z</time>
      </trkpt>
      <trkpt lat="46.59022" lon="5.47978">
        <ele>321.8</ele>
        <time>2022-03-07T09:27:50Z</time>
      </trkpt>
      <trkpt lat="46.59021" lon="5.47981">
        <ele>322.2</ele>
        <time>2022-03-07T09:27:51Z</time>
      </trkpt>
      <trkpt lat="46.59019" lon="5.47984">
        <ele>322.2</ele>
        <time>2022-03-07T09:27:52Z</time>
      </trkpt>
      <trkpt lat="46.59018" lon="5.47986">
        <ele>322.4</ele>
        <time>2022-03-07T09:27:53Z</time>
      </trkpt>
      <trkpt lat="46.59016" lon="5.47989">
        <ele>322.4</ele>
        <time>2022-03-07T09:27:54Z</time>
      </trkpt>
      <trkpt lat="46.59014" lon="5.47991">
        <ele>322.8</ele>
        <time>2022-03-07T09:27:55Z</time>
      </trkpt>
      <trkpt lat="46.59012" lon="5.47993">
        <ele>322.8</ele>
        <time>2022-03-07T09:27:56Z</time>
      </trkpt>
      <trkpt lat="46.59009" lon="5.47994">
        <ele>323.2</ele>
        <time>2022-03-07T09:27:57Z</time>
      </trkpt>
      <trkpt lat="46.59007" lon="5.47995">
        <ele>323.2</ele>
        <time>2022-03-07T09:27:58Z</time>
      </trkpt>
      <trkpt lat="46.59004" lon="5.47996">
        <ele>323.4</ele>
        <time>2022-03-07T09:27:59Z</time>
      </trkpt>
      <trkpt lat="46.59002" lon="5.47997">
        <ele>323.4</ele>
        <time>2022-03-07T09:28:00Z</time>
      </trkpt>
      <trkpt lat="46.58999" lon="5.47999">
        <ele>323.4</ele>
        <time>2022-03-07T09:28:01Z</time>
      </trkpt>
      <trkpt lat="46.58997" lon="5.48001">
        <ele>323.6</ele>
        <time>2022-03-07T09:28:02Z</time>
      </trkpt>
      <trkpt lat="46.58994" lon="5.48002">
        <ele>323.6</ele>
        <time>2022-03-07T09:28:03Z</time>
      </trkpt>
      <trkpt lat="46.58992" lon="5.48004">
        <ele>323.8</ele>
        <time>2022-03-07T09:28:04Z</time>
      </trkpt>
      <trkpt lat="46.58989" lon="5.48006">
        <ele>323.8</ele>
        <time>2022-03-07T09:28:05Z</time>
      </trkpt>
      <trkpt lat="46.58987" lon="5.48008">
        <ele>324</ele>
        <time>2022-03-07T09:28:06Z</time>
      </trkpt>
      <trkpt lat="46.58985" lon="5.48011">
        <ele>324</ele>
        <time>2022-03-07T09:28:07Z</time>
      </trkpt>
      <trkpt lat="46.58983" lon="5.48013">
        <ele>324.2</ele>
        <time>2022-03-07T09:28:08Z</time>
      </trkpt>
      <trkpt lat="46.58981" lon="5.48016">
        <ele>324.2</ele>
        <time>2022-03-07T09:28:09Z</time>
      </trkpt>
      <trkpt lat="46.58979" lon="5.48019">
        <ele>324.2</ele>
        <time>2022-03-07T09:28:10Z</time>
      </trkpt>
      <trkpt lat="46.58978" lon="5.48023">
        <ele>324.4</ele>
        <time>2022-03-07T09:28:11Z</time>
      </trkpt>
      <trkpt lat="46.58978" lon="5.48027">
        <ele>324.4</ele>
        <time>2022-03-07T09:28:12Z</time>
      </trkpt>
      <trkpt lat="46.58977" lon="5.48031">
        <ele>324.6</ele>
        <time>2022-03-07T09:28:13Z</time>
      </trkpt>
      <trkpt lat="46.58977" lon="5.48035">
        <ele>324.6</ele>
        <time>2022-03-07T09:28:14Z</time>
      </trkpt>
      <trkpt lat="46.58976" lon="5.4804">
        <ele>325</ele>
        <time>2022-03-07T09:28:15Z</time>
      </trkpt>
      <trkpt lat="46.58977" lon="5.48044">
        <ele>325</ele>
        <time>2022-03-07T09:28:16Z</time>
      </trkpt>
      <trkpt lat="46.58977" lon="5.48048">
        <ele>325.2</ele>
        <time>2022-03-07T09:28:17Z</time>
      </trkpt>
      <trkpt lat="46.58977" lon="5.48052">
        <ele>325.2</ele>
        <time>2022-03-07T09:28:18Z</time>
      </trkpt>
      <trkpt lat="46.58978" lon="5.48056">
        <ele>325.4</ele>
        <time>2022-03-07T09:28:19Z</time>
      </trkpt>
      <trkpt lat="46.58978" lon="5.4806">
        <ele>325.4</ele>
        <time>2022-03-07T09:28:20Z</time>
      </trkpt>
      <trkpt lat="46.58978" lon="5.48064">
        <ele>325.4</ele>
        <time>2022-03-07T09:28:21Z</time>
      </trkpt>
      <trkpt lat="46.58979" lon="5.48068">
        <ele>325.8</ele>
        <time>2022-03-07T09:28:22Z</time>
      </trkpt>
      <trkpt lat="46.58979" lon="5.48072">
        <ele>325.8</ele>
        <time>2022-03-07T09:28:23Z</time>
      </trkpt>
      <trkpt lat="46.5898" lon="5.48075">
        <ele>325.8</ele>
        <time>2022-03-07T09:28:24Z</time>
      </trkpt>
      <trkpt lat="46.58981" lon="5.48079">
        <ele>325.8</ele>
        <time>2022-03-07T09:28:25Z</time>
      </trkpt>
      <trkpt lat="46.58981" lon="5.48083">
        <ele>326</ele>
        <time>2022-03-07T09:28:26Z</time>
      </trkpt>
      <trkpt lat="46.58981" lon="5.48086">
        <ele>326</ele>
        <time>2022-03-07T09:28:27Z</time>
      </trkpt>
      <trkpt lat="46.58981" lon="5.4809">
        <ele>326.2</ele>
        <time>2022-03-07T09:28:28Z</time>
      </trkpt>
      <trkpt lat="46.58982" lon="5.48093">
        <ele>326.2</ele>
        <time>2022-03-07T09:28:29Z</time>
      </trkpt>
      <trkpt lat="46.58982" lon="5.48096">
        <ele>326.2</ele>
        <time>2022-03-07T09:28:30Z</time>
      </trkpt>
      <trkpt lat="46.58982" lon="5.48098">
        <ele>326.4</ele>
        <time>2022-03-07T09:28:31Z</time>
      </trkpt>
      <trkpt lat="46.58983" lon="5.48099">
        <ele>326.4</ele>
        <time>2022-03-07T09:28:32Z</time>
      </trkpt>
      <trkpt lat="46.58983" lon="5.48098">
        <ele>326.6</ele>
        <time>2022-03-07T09:28:33Z</time>
      </trkpt>
      <trkpt lat="46.58983" lon="5.48096">
        <ele>326.6</ele>
        <time>2022-03-07T09:28:34Z</time>
      </trkpt>
      <trkpt lat="46.58983" lon="5.48093">
        <ele>326.6</ele>
        <time>2022-03-07T09:28:35Z</time>
      </trkpt>
      <trkpt lat="46.58982" lon="5.48089">
        <ele>326.6</ele>
        <time>2022-03-07T09:28:36Z</time>
      </trkpt>
      <trkpt lat="46.58981" lon="5.48084">
        <ele>326.6</ele>
        <time>2022-03-07T09:28:37Z</time>
      </trkpt>
      <trkpt lat="46.5898" lon="5.48079">
        <ele>326.4</ele>
        <time>2022-03-07T09:28:38Z</time>
      </trkpt>
      <trkpt lat="46.5898" lon="5.48073">
        <ele>326.4</ele>
        <time>2022-03-07T09:28:39Z</time>
      </trkpt>
      <trkpt lat="46.58979" lon="5.48068">
        <ele>326.2</ele>
        <time>2022-03-07T09:28:40Z</time>
      </trkpt>
      <trkpt lat="46.58978" lon="5.48062">
        <ele>326.2</ele>
        <time>2022-03-07T09:28:41Z</time>
      </trkpt>
      <trkpt lat="46.58978" lon="5.48056">
        <ele>326.2</ele>
        <time>2022-03-07T09:28:42Z</time>
      </trkpt>
      <trkpt lat="46.58977" lon="5.4805">
        <ele>325.8</ele>
        <time>2022-03-07T09:28:43Z</time>
      </trkpt>
      <trkpt lat="46.58977" lon="5.48045">
        <ele>325.8</ele>
        <time>2022-03-07T09:28:44Z</time>
      </trkpt>
      <trkpt lat="46.58976" lon="5.48039">
        <ele>325.8</ele>
        <time>2022-03-07T09:28:45Z</time>
      </trkpt>
      <trkpt lat="46.58977" lon="5.48033">
        <ele>325.6</ele>
        <time>2022-03-07T09:28:46Z</time>
      </trkpt>
      <trkpt lat="46.58977" lon="5.48027">
        <ele>325.6</ele>
        <time>2022-03-07T09:28:47Z</time>
      </trkpt>
      <trkpt lat="46.58977" lon="5.48027">
        <ele>325.6</ele>
        <time>2022-03-07T09:28:48Z</time>
      </trkpt>
      <trkpt lat="46.58978" lon="5.48022">
        <ele>325.4</ele>
        <time>2022-03-07T09:28:49Z</time>
      </trkpt>
      <trkpt lat="46.5898" lon="5.48017">
        <ele>325.4</ele>
        <time>2022-03-07T09:28:50Z</time>
      </trkpt>
      <trkpt lat="46.58981" lon="5.48013">
        <ele>325</ele>
        <time>2022-03-07T09:28:51Z</time>
      </trkpt>
      <trkpt lat="46.58982" lon="5.4801">
        <ele>325</ele>
        <time>2022-03-07T09:28:52Z</time>
      </trkpt>
      <trkpt lat="46.58982" lon="5.4801">
        <ele>325</ele>
        <time>2022-03-07T09:28:53Z</time>
      </trkpt>
      <trkpt lat="46.58982" lon="5.4801">
        <ele>324.8</ele>
        <time>2022-03-07T09:28:54Z</time>
      </trkpt>
      <trkpt lat="46.58982" lon="5.4801">
        <ele>324.8</ele>
        <time>2022-03-07T09:28:55Z</time>
      </trkpt>
      <trkpt lat="46.58982" lon="5.4801">
        <ele>324.8</ele>
        <time>2022-03-07T09:28:56Z</time>
      </trkpt>
      <trkpt lat="46.58982" lon="5.4801">
        <ele>324.8</ele>
        <time>2022-03-07T09:28:58Z</time>
      </trkpt>
      <trkpt lat="46.58982" lon="5.4801">
        <ele>324.8</ele>
        <time>2022-03-07T09:28:59Z</time>
      </trkpt>
      <trkpt lat="46.58982" lon="5.4801">
        <ele>324.8</ele>
        <time>2022-03-07T09:29:00Z</time>
      </trkpt>
      <trkpt lat="46.58982" lon="5.4801">
        <ele>324.8</ele>
        <time>2022-03-07T09:29:05Z</time>
      </trkpt>
      <trkpt lat="46.58982" lon="5.4801">
        <ele>324.8</ele>
        <time>2022-03-07T09:29:06Z</time>
      </trkpt>
      <trkpt lat="46.58982" lon="5.4801">
        <ele>324.8</ele>
        <time>2022-03-07T09:29:07Z</time>
      </trkpt>
      <trkpt lat="46.58982" lon="5.4801">
        <ele>324.8</ele>
        <time>2022-03-07T09:29:08Z</time>
      </trkpt>
      <trkpt lat="46.58982" lon="5.48011">
        <ele>324.4</ele>
        <time>2022-03-07T09:29:46Z</time>
      </trkpt>
      <trkpt lat="46.58982" lon="5.48011">
        <ele>324.4</ele>
        <time>2022-03-07T09:29:47Z</time>
      </trkpt>
      <trkpt lat="46.58982" lon="5.48011">
        <ele>324.4</ele>
        <time>2022-03-07T09:29:51Z</time>
      </trkpt>
      <trkpt lat="46.58982" lon="5.48011">
        <ele>324.4</ele>
        <time>2022-03-07T09:29:52Z</time>
      </trkpt>
      <trkpt lat="46.58982" lon="5.48011">
        <ele>324.4</ele>
        <time>2022-03-07T09:29:53Z</time>
      </trkpt>
      <trkpt lat="46.58982" lon="5.48011">
        <ele>324.4</ele>
        <time>2022-03-07T09:29:54Z</time>
      </trkpt>
      <trkpt lat="46.58982" lon="5.48011">
        <ele>324.4</ele>
        <time>2022-03-07T09:29:55Z</time>
      </trkpt>
      <trkpt lat="46.58982" lon="5.48011">
        <ele>324</ele>
        <time>2022-03-07T09:30:45Z</time>
      </trkpt>
      <trkpt lat="46.58982" lon="5.48011">
        <ele>324</ele>
        <time>2022-03-07T09:30:46Z</time>
      </trkpt>
      <trkpt lat="46.58982" lon="5.48011">
        <ele>324</ele>
        <time>2022-03-07T09:30:47Z</time>
      </trkpt>
      <trkpt lat="46.58982" lon="5.48011">
        <ele>324</ele>
        <time>2022-03-07T09:30:48Z</time>
      </trkpt>
      <trkpt lat="46.58982" lon="5.48011">
        <ele>324</ele>
        <time>2022-03-07T09:30:49Z</time>
      </trkpt>
      <trkpt lat="46.58982" lon="5.48011">
        <ele>324</ele>
        <time>2022-03-07T09:30:50Z</time>
      </trkpt>
      <trkpt lat="46.58982" lon="5.48011">
        <ele>324</ele>
        <time>2022-03-07T09:30:51Z</time>
      </trkpt>
      <trkpt lat="46.58982" lon="5.48011">
        <ele>324</ele>
        <time>2022-03-07T09:30:52Z</time>
      </trkpt>
      <trkpt lat="46.58982" lon="5.48011">
        <ele>324</ele>
        <time>2022-03-07T09:31:02Z</time>
      </trkpt>
      <trkpt lat="46.58982" lon="5.48011">
        <ele>324</ele>
        <time>2022-03-07T09:31:03Z</time>
      </trkpt>
      <trkpt lat="46.58982" lon="5.48011">
        <ele>324</ele>
        <time>2022-03-07T09:31:04Z</time>
      </trkpt>
      <trkpt lat="46.58982" lon="5.48011">
        <ele>324.2</ele>
        <time>2022-03-07T09:31:05Z</time>
      </trkpt>
      <trkpt lat="46.58982" lon="5.48011">
        <ele>324.2</ele>
        <time>2022-03-07T09:31:06Z</time>
      </trkpt>
      <trkpt lat="46.58982" lon="5.48012">
        <ele>324.2</ele>
        <time>2022-03-07T09:31:07Z</time>
      </trkpt>
      <trkpt lat="46.58982" lon="5.48012">
        <ele>324</ele>
        <time>2022-03-07T09:31:17Z</time>
      </trkpt>
      <trkpt lat="46.58982" lon="5.48012">
        <ele>324</ele>
        <time>2022-03-07T09:31:18Z</time>
      </trkpt>
      <trkpt lat="46.58982" lon="5.48012">
        <ele>324.2</ele>
        <time>2022-03-07T09:32:03Z</time>
      </trkpt>
      <trkpt lat="46.58982" lon="5.48012">
        <ele>324.2</ele>
        <time>2022-03-07T09:32:04Z</time>
      </trkpt>
      <trkpt lat="46.58982" lon="5.48012">
        <ele>324.2</ele>
        <time>2022-03-07T09:32:05Z</time>
      </trkpt>
      <trkpt lat="46.58982" lon="5.48012">
        <ele>324.2</ele>
        <time>2022-03-07T09:32:06Z</time>
      </trkpt>
      <trkpt lat="46.58982" lon="5.48012">
        <ele>324.2</ele>
        <time>2022-03-07T09:32:09Z</time>
      </trkpt>
      <trkpt lat="46.58982" lon="5.48012">
        <ele>324.2</ele>
        <time>2022-03-07T09:32:10Z</time>
      </trkpt>
      <trkpt lat="46.58982" lon="5.48012">
        <ele>324.2</ele>
        <time>2022-03-07T09:32:11Z</time>
      </trkpt>
      <trkpt lat="46.58982" lon="5.48012">
        <ele>324.2</ele>
        <time>2022-03-07T09:32:12Z</time>
      </trkpt>
      <trkpt lat="46.58982" lon="5.48012">
        <ele>324.2</ele>
        <time>2022-03-07T09:32:13Z</time>
      </trkpt>
      <trkpt lat="46.58982" lon="5.48012">
        <ele>324.2</ele>
        <time>2022-03-07T09:32:14Z</time>
      </trkpt>
      <trkpt lat="46.58982" lon="5.48012">
        <ele>324.2</ele>
        <time>2022-03-07T09:32:15Z</time>
      </trkpt>
      <trkpt lat="46.58982" lon="5.48012">
        <ele>324.2</ele>
        <time>2022-03-07T09:32:16Z</time>
      </trkpt>
      <trkpt lat="46.58982" lon="5.48012">
        <ele>324.2</ele>
        <time>2022-03-07T09:32:18Z</time>
      </trkpt>
      <trkpt lat="46.58982" lon="5.48012">
        <ele>324.2</ele>
        <time>2022-03-07T09:32:19Z</time>
      </trkpt>
      <trkpt lat="46.58982" lon="5.48012">
        <ele>324.2</ele>
        <time>2022-03-07T09:32:41Z</time>
      </trkpt>
      <trkpt lat="46.58982" lon="5.48012">
        <ele>324.2</ele>
        <time>2022-03-07T09:32:42Z</time>
      </trkpt>
      <trkpt lat="46.58982" lon="5.48012">
        <ele>324.2</ele>
        <time>2022-03-07T09:32:43Z</time>
      </trkpt>
      <trkpt lat="46.58982" lon="5.48013">
        <ele>324.2</ele>
        <time>2022-03-07T09:33:36Z</time>
      </trkpt>
      <trkpt lat="46.58982" lon="5.48013">
        <ele>324</ele>
        <time>2022-03-07T09:33:37Z</time>
      </trkpt>
      <trkpt lat="46.58982" lon="5.48013">
        <ele>324</ele>
        <time>2022-03-07T09:33:48Z</time>
      </trkpt>
      <trkpt lat="46.58982" lon="5.48013">
        <ele>324</ele>
        <time>2022-03-07T09:33:49Z</time>
      </trkpt>
      <trkpt lat="46.58982" lon="5.48013">
        <ele>324</ele>
        <time>2022-03-07T09:33:53Z</time>
      </trkpt>
      <trkpt lat="46.58982" lon="5.48013">
        <ele>324</ele>
        <time>2022-03-07T09:33:54Z</time>
      </trkpt>
      <trkpt lat="46.58982" lon="5.48013">
        <ele>324</ele>
        <time>2022-03-07T09:33:55Z</time>
      </trkpt>
      <trkpt lat="46.58982" lon="5.48013">
        <ele>324</ele>
        <time>2022-03-07T09:33:56Z</time>
      </trkpt>
      <trkpt lat="46.58982" lon="5.48013">
        <ele>324</ele>
        <time>2022-03-07T09:33:57Z</time>
      </trkpt>
      <trkpt lat="46.58982" lon="5.48013">
        <ele>324</ele>
        <time>2022-03-07T09:33:58Z</time>
      </trkpt>
      <trkpt lat="46.58982" lon="5.48013">
        <ele>324</ele>
        <time>2022-03-07T09:34:00Z</time>
      </trkpt>
      <trkpt lat="46.58982" lon="5.48013">
        <ele>324</ele>
        <time>2022-03-07T09:34:01Z</time>
      </trkpt>
      <trkpt lat="46.58982" lon="5.48013">
        <ele>324</ele>
        <time>2022-03-07T09:34:03Z</time>
      </trkpt>
      <trkpt lat="46.58982" lon="5.48013">
        <ele>324</ele>
        <time>2022-03-07T09:34:04Z</time>
      </trkpt>
      <trkpt lat="46.58982" lon="5.48013">
        <ele>324</ele>
        <time>2022-03-07T09:34:05Z</time>
      </trkpt>
      <trkpt lat="46.58982" lon="5.48013">
        <ele>324</ele>
        <time>2022-03-07T09:34:06Z</time>
      </trkpt>
      <trkpt lat="46.58982" lon="5.48013">
        <ele>324</ele>
        <time>2022-03-07T09:34:07Z</time>
      </trkpt>
      <trkpt lat="46.58982" lon="5.48013">
        <ele>324</ele>
        <time>2022-03-07T09:34:08Z</time>
      </trkpt>
      <trkpt lat="46.58981" lon="5.48017">
        <ele>324</ele>
        <time>2022-03-07T09:34:09Z</time>
      </trkpt>
      <trkpt lat="46.58979" lon="5.48021">
        <ele>324.2</ele>
        <time>2022-03-07T09:34:10Z</time>
      </trkpt>
      <trkpt lat="46.58978" lon="5.48025">
        <ele>324.2</ele>
        <time>2022-03-07T09:34:11Z</time>
      </trkpt>
      <trkpt lat="46.58977" lon="5.48029">
        <ele>324.2</ele>
        <time>2022-03-07T09:34:12Z</time>
      </trkpt>
      <trkpt lat="46.58977" lon="5.48034">
        <ele>324.6</ele>
        <time>2022-03-07T09:34:13Z</time>
      </trkpt>
      <trkpt lat="46.58977" lon="5.48038">
        <ele>324.6</ele>
        <time>2022-03-07T09:34:14Z</time>
      </trkpt>
      <trkpt lat="46.58977" lon="5.48043">
        <ele>324.8</ele>
        <time>2022-03-07T09:34:15Z</time>
      </trkpt>
      <trkpt lat="46.58978" lon="5.48047">
        <ele>324.8</ele>
        <time>2022-03-07T09:34:16Z</time>
      </trkpt>
      <trkpt lat="46.58978" lon="5.48051">
        <ele>324.8</ele>
        <time>2022-03-07T09:34:17Z</time>
      </trkpt>
      <trkpt lat="46.58978" lon="5.48056">
        <ele>324.8</ele>
        <time>2022-03-07T09:34:18Z</time>
      </trkpt>
      <trkpt lat="46.58978" lon="5.48061">
        <ele>324.8</ele>
        <time>2022-03-07T09:34:19Z</time>
      </trkpt>
      <trkpt lat="46.58979" lon="5.48065">
        <ele>325</ele>
        <time>2022-03-07T09:34:20Z</time>
      </trkpt>
      <trkpt lat="46.58979" lon="5.4807">
        <ele>325</ele>
        <time>2022-03-07T09:34:21Z</time>
      </trkpt>
      <trkpt lat="46.5898" lon="5.48074">
        <ele>325</ele>
        <time>2022-03-07T09:34:22Z</time>
      </trkpt>
      <trkpt lat="46.58981" lon="5.48079">
        <ele>325</ele>
        <time>2022-03-07T09:34:23Z</time>
      </trkpt>
      <trkpt lat="46.58981" lon="5.48084">
        <ele>325.2</ele>
        <time>2022-03-07T09:34:24Z</time>
      </trkpt>
      <trkpt lat="46.58982" lon="5.48088">
        <ele>325.2</ele>
        <time>2022-03-07T09:34:25Z</time>
      </trkpt>
      <trkpt lat="46.58983" lon="5.48093">
        <ele>325.6</ele>
        <time>2022-03-07T09:34:26Z</time>
      </trkpt>
      <trkpt lat="46.58983" lon="5.48097">
        <ele>325.6</ele>
        <time>2022-03-07T09:34:27Z</time>
      </trkpt>
      <trkpt lat="46.58984" lon="5.48101">
        <ele>325.8</ele>
        <time>2022-03-07T09:34:28Z</time>
      </trkpt>
      <trkpt lat="46.58985" lon="5.48105">
        <ele>325.8</ele>
        <time>2022-03-07T09:34:29Z</time>
      </trkpt>
      <trkpt lat="46.58986" lon="5.48109">
        <ele>326.2</ele>
        <time>2022-03-07T09:34:30Z</time>
      </trkpt>
      <trkpt lat="46.58987" lon="5.48113">
        <ele>326.2</ele>
        <time>2022-03-07T09:34:31Z</time>
      </trkpt>
      <trkpt lat="46.58988" lon="5.48116">
        <ele>326.6</ele>
        <time>2022-03-07T09:34:32Z</time>
      </trkpt>
      <trkpt lat="46.5899" lon="5.4812">
        <ele>326.6</ele>
        <time>2022-03-07T09:34:33Z</time>
      </trkpt>
      <trkpt lat="46.58991" lon="5.48124">
        <ele>326.8</ele>
        <time>2022-03-07T09:34:34Z</time>
      </trkpt>
      <trkpt lat="46.58991" lon="5.48127">
        <ele>326.8</ele>
        <time>2022-03-07T09:34:35Z</time>
      </trkpt>
      <trkpt lat="46.58992" lon="5.48131">
        <ele>327.2</ele>
        <time>2022-03-07T09:34:36Z</time>
      </trkpt>
      <trkpt lat="46.58993" lon="5.48135">
        <ele>327.2</ele>
        <time>2022-03-07T09:34:37Z</time>
      </trkpt>
      <trkpt lat="46.58994" lon="5.48138">
        <ele>327.4</ele>
        <time>2022-03-07T09:34:38Z</time>
      </trkpt>
      <trkpt lat="46.58995" lon="5.48142">
        <ele>327.4</ele>
        <time>2022-03-07T09:34:39Z</time>
      </trkpt>
      <trkpt lat="46.58997" lon="5.48145">
        <ele>327.8</ele>
        <time>2022-03-07T09:34:40Z</time>
      </trkpt>
      <trkpt lat="46.58998" lon="5.48148">
        <ele>327.8</ele>
        <time>2022-03-07T09:34:41Z</time>
      </trkpt>
      <trkpt lat="46.58999" lon="5.48152">
        <ele>328</ele>
        <time>2022-03-07T09:34:42Z</time>
      </trkpt>
      <trkpt lat="46.59" lon="5.48155">
        <ele>328</ele>
        <time>2022-03-07T09:34:43Z</time>
      </trkpt>
      <trkpt lat="46.59001" lon="5.48158">
        <ele>328.4</ele>
        <time>2022-03-07T09:34:44Z</time>
      </trkpt>
      <trkpt lat="46.59003" lon="5.48161">
        <ele>328.4</ele>
        <time>2022-03-07T09:34:45Z</time>
      </trkpt>
      <trkpt lat="46.59004" lon="5.48165">
        <ele>328.6</ele>
        <time>2022-03-07T09:34:46Z</time>
      </trkpt>
      <trkpt lat="46.59005" lon="5.48168">
        <ele>328.6</ele>
        <time>2022-03-07T09:34:47Z</time>
      </trkpt>
      <trkpt lat="46.59006" lon="5.48171">
        <ele>328.8</ele>
        <time>2022-03-07T09:34:48Z</time>
      </trkpt>
      <trkpt lat="46.59007" lon="5.48175">
        <ele>328.8</ele>
        <time>2022-03-07T09:34:49Z</time>
      </trkpt>
      <trkpt lat="46.59008" lon="5.48178">
        <ele>329.2</ele>
        <time>2022-03-07T09:34:50Z</time>
      </trkpt>
      <trkpt lat="46.59009" lon="5.48181">
        <ele>329.2</ele>
        <time>2022-03-07T09:34:51Z</time>
      </trkpt>
      <trkpt lat="46.5901" lon="5.48185">
        <ele>329.6</ele>
        <time>2022-03-07T09:34:52Z</time>
      </trkpt>
      <trkpt lat="46.59012" lon="5.48188">
        <ele>329.6</ele>
        <time>2022-03-07T09:34:53Z</time>
      </trkpt>
      <trkpt lat="46.59013" lon="5.48191">
        <ele>330</ele>
        <time>2022-03-07T09:34:54Z</time>
      </trkpt>
      <trkpt lat="46.59014" lon="5.48195">
        <ele>330</ele>
        <time>2022-03-07T09:34:55Z</time>
      </trkpt>
      <trkpt lat="46.59015" lon="5.48198">
        <ele>330</ele>
        <time>2022-03-07T09:34:56Z</time>
      </trkpt>
      <trkpt lat="46.59016" lon="5.48201">
        <ele>330.2</ele>
        <time>2022-03-07T09:34:57Z</time>
      </trkpt>
      <trkpt lat="46.59017" lon="5.48205">
        <ele>330.2</ele>
        <time>2022-03-07T09:34:58Z</time>
      </trkpt>
      <trkpt lat="46.59018" lon="5.48208">
        <ele>330.4</ele>
        <time>2022-03-07T09:34:59Z</time>
      </trkpt>
      <trkpt lat="46.59019" lon="5.48212">
        <ele>330.4</ele>
        <time>2022-03-07T09:35:00Z</time>
      </trkpt>
      <trkpt lat="46.59019" lon="5.48215">
        <ele>330.8</ele>
        <time>2022-03-07T09:35:01Z</time>
      </trkpt>
      <trkpt lat="46.59019" lon="5.48219">
        <ele>330.8</ele>
        <time>2022-03-07T09:35:02Z</time>
      </trkpt>
      <trkpt lat="46.5902" lon="5.48222">
        <ele>331.2</ele>
        <time>2022-03-07T09:35:03Z</time>
      </trkpt>
      <trkpt lat="46.59021" lon="5.48226">
        <ele>331.4</ele>
        <time>2022-03-07T09:35:04Z</time>
      </trkpt>
      <trkpt lat="46.59022" lon="5.4823">
        <ele>331.4</ele>
        <time>2022-03-07T09:35:05Z</time>
      </trkpt>
      <trkpt lat="46.59022" lon="5.48233">
        <ele>331.8</ele>
        <time>2022-03-07T09:35:06Z</time>
      </trkpt>
      <trkpt lat="46.59023" lon="5.48237">
        <ele>331.8</ele>
        <time>2022-03-07T09:35:07Z</time>
      </trkpt>
      <trkpt lat="46.59023" lon="5.4824">
        <ele>332.2</ele>
        <time>2022-03-07T09:35:08Z</time>
      </trkpt>
      <trkpt lat="46.59024" lon="5.48244">
        <ele>332.4</ele>
        <time>2022-03-07T09:35:09Z</time>
      </trkpt>
      <trkpt lat="46.59024" lon="5.48247">
        <ele>332.4</ele>
        <time>2022-03-07T09:35:10Z</time>
      </trkpt>
      <trkpt lat="46.59025" lon="5.4825">
        <ele>332.8</ele>
        <time>2022-03-07T09:35:11Z</time>
      </trkpt>
      <trkpt lat="46.59026" lon="5.48254">
        <ele>332.8</ele>
        <time>2022-03-07T09:35:12Z</time>
      </trkpt>
      <trkpt lat="46.59028" lon="5.48257">
        <ele>333</ele>
        <time>2022-03-07T09:35:13Z</time>
      </trkpt>
      <trkpt lat="46.59029" lon="5.4826">
        <ele>333</ele>
        <time>2022-03-07T09:35:14Z</time>
      </trkpt>
      <trkpt lat="46.5903" lon="5.48263">
        <ele>333.4</ele>
        <time>2022-03-07T09:35:15Z</time>
      </trkpt>
      <trkpt lat="46.59031" lon="5.48267">
        <ele>333.4</ele>
        <time>2022-03-07T09:35:16Z</time>
      </trkpt>
      <trkpt lat="46.59032" lon="5.4827">
        <ele>333.6</ele>
        <time>2022-03-07T09:35:17Z</time>
      </trkpt>
      <trkpt lat="46.59033" lon="5.48273">
        <ele>333.6</ele>
        <time>2022-03-07T09:35:18Z</time>
      </trkpt>
      <trkpt lat="46.59035" lon="5.48276">
        <ele>333.6</ele>
        <time>2022-03-07T09:35:19Z</time>
      </trkpt>
      <trkpt lat="46.59037" lon="5.4828">
        <ele>334</ele>
        <time>2022-03-07T09:35:20Z</time>
      </trkpt>
      <trkpt lat="46.59038" lon="5.48283">
        <ele>334</ele>
        <time>2022-03-07T09:35:21Z</time>
      </trkpt>
      <trkpt lat="46.5904" lon="5.48286">
        <ele>334.2</ele>
        <time>2022-03-07T09:35:22Z</time>
      </trkpt>
      <trkpt lat="46.59042" lon="5.48289">
        <ele>334.2</ele>
        <time>2022-03-07T09:35:23Z</time>
      </trkpt>
      <trkpt lat="46.59044" lon="5.48292">
        <ele>334.4</ele>
        <time>2022-03-07T09:35:24Z</time>
      </trkpt>
      <trkpt lat="46.59046" lon="5.48295">
        <ele>334.4</ele>
        <time>2022-03-07T09:35:25Z</time>
      </trkpt>
      <trkpt lat="46.59048" lon="5.48298">
        <ele>334.4</ele>
        <time>2022-03-07T09:35:26Z</time>
      </trkpt>
      <trkpt lat="46.5905" lon="5.48301">
        <ele>334.8</ele>
        <time>2022-03-07T09:35:27Z</time>
      </trkpt>
      <trkpt lat="46.59051" lon="5.48304">
        <ele>334.8</ele>
        <time>2022-03-07T09:35:28Z</time>
      </trkpt>
      <trkpt lat="46.59053" lon="5.48308">
        <ele>335.2</ele>
        <time>2022-03-07T09:35:29Z</time>
      </trkpt>
      <trkpt lat="46.59055" lon="5.48311">
        <ele>335.2</ele>
        <time>2022-03-07T09:35:30Z</time>
      </trkpt>
      <trkpt lat="46.59057" lon="5.48314">
        <ele>335.4</ele>
        <time>2022-03-07T09:35:31Z</time>
      </trkpt>
      <trkpt lat="46.59059" lon="5.48317">
        <ele>335.4</ele>
        <time>2022-03-07T09:35:32Z</time>
      </trkpt>
      <trkpt lat="46.59061" lon="5.4832">
        <ele>335.4</ele>
        <time>2022-03-07T09:35:33Z</time>
      </trkpt>
      <trkpt lat="46.59062" lon="5.48323">
        <ele>335.4</ele>
        <time>2022-03-07T09:35:34Z</time>
      </trkpt>
      <trkpt lat="46.59065" lon="5.48326">
        <ele>335.6</ele>
        <time>2022-03-07T09:35:35Z</time>
      </trkpt>
      <trkpt lat="46.59067" lon="5.48329">
        <ele>335.6</ele>
        <time>2022-03-07T09:35:36Z</time>
      </trkpt>
      <trkpt lat="46.59069" lon="5.48331">
        <ele>335.8</ele>
        <time>2022-03-07T09:35:37Z</time>
      </trkpt>
      <trkpt lat="46.59071" lon="5.48334">
        <ele>335.8</ele>
        <time>2022-03-07T09:35:38Z</time>
      </trkpt>
      <trkpt lat="46.59074" lon="5.48336">
        <ele>336.2</ele>
        <time>2022-03-07T09:35:39Z</time>
      </trkpt>
      <trkpt lat="46.59076" lon="5.48338">
        <ele>336.2</ele>
        <time>2022-03-07T09:35:40Z</time>
      </trkpt>
      <trkpt lat="46.59078" lon="5.4834">
        <ele>336.4</ele>
        <time>2022-03-07T09:35:41Z</time>
      </trkpt>
      <trkpt lat="46.5908" lon="5.48342">
        <ele>336.4</ele>
        <time>2022-03-07T09:35:42Z</time>
      </trkpt>
      <trkpt lat="46.59082" lon="5.48344">
        <ele>336.8</ele>
        <time>2022-03-07T09:35:43Z</time>
      </trkpt>
      <trkpt lat="46.59085" lon="5.48347">
        <ele>336.8</ele>
        <time>2022-03-07T09:35:44Z</time>
      </trkpt>
      <trkpt lat="46.59087" lon="5.48349">
        <ele>337</ele>
        <time>2022-03-07T09:35:45Z</time>
      </trkpt>
      <trkpt lat="46.59089" lon="5.4835">
        <ele>337</ele>
        <time>2022-03-07T09:35:46Z</time>
      </trkpt>
      <trkpt lat="46.59091" lon="5.48352">
        <ele>337.2</ele>
        <time>2022-03-07T09:35:47Z</time>
      </trkpt>
      <trkpt lat="46.59093" lon="5.48355">
        <ele>337.2</ele>
        <time>2022-03-07T09:35:48Z</time>
      </trkpt>
      <trkpt lat="46.59094" lon="5.48357">
        <ele>337.6</ele>
        <time>2022-03-07T09:35:49Z</time>
      </trkpt>
      <trkpt lat="46.59095" lon="5.4836">
        <ele>337.6</ele>
        <time>2022-03-07T09:35:50Z</time>
      </trkpt>
      <trkpt lat="46.59095" lon="5.48364">
        <ele>338</ele>
        <time>2022-03-07T09:35:51Z</time>
      </trkpt>
      <trkpt lat="46.59095" lon="5.48367">
        <ele>338</ele>
        <time>2022-03-07T09:35:52Z</time>
      </trkpt>
      <trkpt lat="46.59095" lon="5.48371">
        <ele>338.2</ele>
        <time>2022-03-07T09:35:53Z</time>
      </trkpt>
      <trkpt lat="46.59094" lon="5.48374">
        <ele>338.6</ele>
        <time>2022-03-07T09:35:54Z</time>
      </trkpt>
      <trkpt lat="46.59093" lon="5.48377">
        <ele>338.8</ele>
        <time>2022-03-07T09:35:55Z</time>
      </trkpt>
      <trkpt lat="46.59091" lon="5.4838">
        <ele>338.8</ele>
        <time>2022-03-07T09:35:56Z</time>
      </trkpt>
      <trkpt lat="46.59089" lon="5.48381">
        <ele>339</ele>
        <time>2022-03-07T09:35:57Z</time>
      </trkpt>
      <trkpt lat="46.59087" lon="5.48383">
        <ele>339</ele>
        <time>2022-03-07T09:35:58Z</time>
      </trkpt>
      <trkpt lat="46.59085" lon="5.48384">
        <ele>339.4</ele>
        <time>2022-03-07T09:35:59Z</time>
      </trkpt>
      <trkpt lat="46.59082" lon="5.48384">
        <ele>339.6</ele>
        <time>2022-03-07T09:36:00Z</time>
      </trkpt>
      <trkpt lat="46.5908" lon="5.48384">
        <ele>339.6</ele>
        <time>2022-03-07T09:36:01Z</time>
      </trkpt>
      <trkpt lat="46.59077" lon="5.48384">
        <ele>340</ele>
        <time>2022-03-07T09:36:02Z</time>
      </trkpt>
      <trkpt lat="46.59075" lon="5.48384">
        <ele>340.2</ele>
        <time>2022-03-07T09:36:03Z</time>
      </trkpt>
      <trkpt lat="46.59072" lon="5.48383">
        <ele>340.2</ele>
        <time>2022-03-07T09:36:04Z</time>
      </trkpt>
      <trkpt lat="46.5907" lon="5.48382">
        <ele>340.6</ele>
        <time>2022-03-07T09:36:05Z</time>
      </trkpt>
      <trkpt lat="46.59067" lon="5.48381">
        <ele>340.8</ele>
        <time>2022-03-07T09:36:06Z</time>
      </trkpt>
      <trkpt lat="46.59065" lon="5.4838">
        <ele>340.8</ele>
        <time>2022-03-07T09:36:07Z</time>
      </trkpt>
      <trkpt lat="46.59062" lon="5.48378">
        <ele>341.2</ele>
        <time>2022-03-07T09:36:08Z</time>
      </trkpt>
      <trkpt lat="46.5906" lon="5.48377">
        <ele>341.4</ele>
        <time>2022-03-07T09:36:09Z</time>
      </trkpt>
      <trkpt lat="46.59058" lon="5.48376">
        <ele>341.8</ele>
        <time>2022-03-07T09:36:10Z</time>
      </trkpt>
      <trkpt lat="46.59055" lon="5.48373">
        <ele>341.8</ele>
        <time>2022-03-07T09:36:11Z</time>
      </trkpt>
      <trkpt lat="46.59053" lon="5.48371">
        <ele>342</ele>
        <time>2022-03-07T09:36:12Z</time>
      </trkpt>
      <trkpt lat="46.59051" lon="5.48368">
        <ele>342</ele>
        <time>2022-03-07T09:36:13Z</time>
      </trkpt>
      <trkpt lat="46.59049" lon="5.48365">
        <ele>342.2</ele>
        <time>2022-03-07T09:36:14Z</time>
      </trkpt>
      <trkpt lat="46.59048" lon="5.48363">
        <ele>342.2</ele>
        <time>2022-03-07T09:36:15Z</time>
      </trkpt>
      <trkpt lat="46.59046" lon="5.4836">
        <ele>342.6</ele>
        <time>2022-03-07T09:36:16Z</time>
      </trkpt>
      <trkpt lat="46.59044" lon="5.48357">
        <ele>342.6</ele>
        <time>2022-03-07T09:36:17Z</time>
      </trkpt>
      <trkpt lat="46.59042" lon="5.48355">
        <ele>342.8</ele>
        <time>2022-03-07T09:36:18Z</time>
      </trkpt>
      <trkpt lat="46.5904" lon="5.48352">
        <ele>343</ele>
        <time>2022-03-07T09:36:19Z</time>
      </trkpt>
      <trkpt lat="46.59038" lon="5.4835">
        <ele>343</ele>
        <time>2022-03-07T09:36:20Z</time>
      </trkpt>
      <trkpt lat="46.59035" lon="5.48347">
        <ele>343.4</ele>
        <time>2022-03-07T09:36:21Z</time>
      </trkpt>
      <trkpt lat="46.59034" lon="5.48345">
        <ele>343.4</ele>
        <time>2022-03-07T09:36:22Z</time>
      </trkpt>
      <trkpt lat="46.59032" lon="5.48342">
        <ele>343.6</ele>
        <time>2022-03-07T09:36:23Z</time>
      </trkpt>
      <trkpt lat="46.5903" lon="5.48339">
        <ele>343.6</ele>
        <time>2022-03-07T09:36:24Z</time>
      </trkpt>
      <trkpt lat="46.59028" lon="5.48337">
        <ele>343.8</ele>
        <time>2022-03-07T09:36:25Z</time>
      </trkpt>
      <trkpt lat="46.59026" lon="5.48334">
        <ele>343.8</ele>
        <time>2022-03-07T09:36:26Z</time>
      </trkpt>
      <trkpt lat="46.59024" lon="5.48332">
        <ele>344.2</ele>
        <time>2022-03-07T09:36:27Z</time>
      </trkpt>
      <trkpt lat="46.59022" lon="5.4833">
        <ele>344.2</ele>
        <time>2022-03-07T09:36:28Z</time>
      </trkpt>
      <trkpt lat="46.59021" lon="5.48327">
        <ele>344.6</ele>
        <time>2022-03-07T09:36:29Z</time>
      </trkpt>
      <trkpt lat="46.59019" lon="5.48325">
        <ele>344.6</ele>
        <time>2022-03-07T09:36:30Z</time>
      </trkpt>
      <trkpt lat="46.59017" lon="5.48322">
        <ele>344.8</ele>
        <time>2022-03-07T09:36:31Z</time>
      </trkpt>
      <trkpt lat="46.59016" lon="5.4832">
        <ele>344.8</ele>
        <time>2022-03-07T09:36:32Z</time>
      </trkpt>
      <trkpt lat="46.59014" lon="5.48317">
        <ele>345.2</ele>
        <time>2022-03-07T09:36:33Z</time>
      </trkpt>
      <trkpt lat="46.59012" lon="5.48315">
        <ele>345.2</ele>
        <time>2022-03-07T09:36:34Z</time>
      </trkpt>
      <trkpt lat="46.59011" lon="5.48312">
        <ele>345.6</ele>
        <time>2022-03-07T09:36:35Z</time>
      </trkpt>
      <trkpt lat="46.59009" lon="5.48309">
        <ele>345.6</ele>
        <time>2022-03-07T09:36:36Z</time>
      </trkpt>
      <trkpt lat="46.59008" lon="5.48306">
        <ele>345.8</ele>
        <time>2022-03-07T09:36:37Z</time>
      </trkpt>
      <trkpt lat="46.59006" lon="5.48304">
        <ele>346</ele>
        <time>2022-03-07T09:36:38Z</time>
      </trkpt>
      <trkpt lat="46.59004" lon="5.48301">
        <ele>346</ele>
        <time>2022-03-07T09:36:39Z</time>
      </trkpt>
      <trkpt lat="46.59003" lon="5.48298">
        <ele>346.4</ele>
        <time>2022-03-07T09:36:40Z</time>
      </trkpt>
      <trkpt lat="46.59001" lon="5.48296">
        <ele>346.6</ele>
        <time>2022-03-07T09:36:41Z</time>
      </trkpt>
      <trkpt lat="46.59" lon="5.48294">
        <ele>347</ele>
        <time>2022-03-07T09:36:42Z</time>
      </trkpt>
      <trkpt lat="46.58998" lon="5.48291">
        <ele>347.2</ele>
        <time>2022-03-07T09:36:43Z</time>
      </trkpt>
      <trkpt lat="46.58997" lon="5.48288">
        <ele>347.6</ele>
        <time>2022-03-07T09:36:44Z</time>
      </trkpt>
      <trkpt lat="46.58995" lon="5.48285">
        <ele>347.6</ele>
        <time>2022-03-07T09:36:45Z</time>
      </trkpt>
      <trkpt lat="46.58993" lon="5.48282">
        <ele>347.8</ele>
        <time>2022-03-07T09:36:46Z</time>
      </trkpt>
      <trkpt lat="46.58992" lon="5.48279">
        <ele>348.2</ele>
        <time>2022-03-07T09:36:47Z</time>
      </trkpt>
      <trkpt lat="46.5899" lon="5.48277">
        <ele>348.2</ele>
        <time>2022-03-07T09:36:48Z</time>
      </trkpt>
      <trkpt lat="46.58988" lon="5.48274">
        <ele>348.6</ele>
        <time>2022-03-07T09:36:49Z</time>
      </trkpt>
      <trkpt lat="46.58987" lon="5.48271">
        <ele>348.6</ele>
        <time>2022-03-07T09:36:50Z</time>
      </trkpt>
      <trkpt lat="46.58985" lon="5.48268">
        <ele>349</ele>
        <time>2022-03-07T09:36:51Z</time>
      </trkpt>
      <trkpt lat="46.58984" lon="5.48265">
        <ele>349</ele>
        <time>2022-03-07T09:36:52Z</time>
      </trkpt>
      <trkpt lat="46.58982" lon="5.48262">
        <ele>349</ele>
        <time>2022-03-07T09:36:53Z</time>
      </trkpt>
      <trkpt lat="46.58981" lon="5.48259">
        <ele>349.2</ele>
        <time>2022-03-07T09:36:54Z</time>
      </trkpt>
      <trkpt lat="46.58979" lon="5.48256">
        <ele>349.2</ele>
        <time>2022-03-07T09:36:55Z</time>
      </trkpt>
      <trkpt lat="46.58978" lon="5.48253">
        <ele>349.4</ele>
        <time>2022-03-07T09:36:56Z</time>
      </trkpt>
      <trkpt lat="46.58977" lon="5.4825">
        <ele>349.4</ele>
        <time>2022-03-07T09:36:57Z</time>
      </trkpt>
      <trkpt lat="46.58975" lon="5.48247">
        <ele>349.8</ele>
        <time>2022-03-07T09:36:58Z</time>
      </trkpt>
      <trkpt lat="46.58974" lon="5.48244">
        <ele>349.8</ele>
        <time>2022-03-07T09:36:59Z</time>
      </trkpt>
      <trkpt lat="46.58972" lon="5.48241">
        <ele>350.2</ele>
        <time>2022-03-07T09:37:00Z</time>
      </trkpt>
      <trkpt lat="46.5897" lon="5.48238">
        <ele>350.2</ele>
        <time>2022-03-07T09:37:01Z</time>
      </trkpt>
      <trkpt lat="46.58968" lon="5.48236">
        <ele>350.6</ele>
        <time>2022-03-07T09:37:02Z</time>
      </trkpt>
      <trkpt lat="46.58967" lon="5.48233">
        <ele>350.8</ele>
        <time>2022-03-07T09:37:03Z</time>
      </trkpt>
      <trkpt lat="46.58965" lon="5.4823">
        <ele>351</ele>
        <time>2022-03-07T09:37:04Z</time>
      </trkpt>
      <trkpt lat="46.58964" lon="5.48227">
        <ele>351.4</ele>
        <time>2022-03-07T09:37:05Z</time>
      </trkpt>
      <trkpt lat="46.58962" lon="5.48225">
        <ele>351.4</ele>
        <time>2022-03-07T09:37:06Z</time>
      </trkpt>
      <trkpt lat="46.5896" lon="5.48222">
        <ele>351.6</ele>
        <time>2022-03-07T09:37:07Z</time>
      </trkpt>
      <trkpt lat="46.58959" lon="5.48219">
        <ele>351.8</ele>
        <time>2022-03-07T09:37:08Z</time>
      </trkpt>
      <trkpt lat="46.58957" lon="5.48216">
        <ele>352</ele>
        <time>2022-03-07T09:37:09Z</time>
      </trkpt>
      <trkpt lat="46.58955" lon="5.48214">
        <ele>352.4</ele>
        <time>2022-03-07T09:37:10Z</time>
      </trkpt>
      <trkpt lat="46.58954" lon="5.48212">
        <ele>352.6</ele>
        <time>2022-03-07T09:37:11Z</time>
      </trkpt>
      <trkpt lat="46.58951" lon="5.48211">
        <ele>352.6</ele>
        <time>2022-03-07T09:37:12Z</time>
      </trkpt>
      <trkpt lat="46.58949" lon="5.48209">
        <ele>352.8</ele>
        <time>2022-03-07T09:37:13Z</time>
      </trkpt>
      <trkpt lat="46.58947" lon="5.48208">
        <ele>353</ele>
        <time>2022-03-07T09:37:14Z</time>
      </trkpt>
      <trkpt lat="46.58945" lon="5.48206">
        <ele>353.2</ele>
        <time>2022-03-07T09:37:15Z</time>
      </trkpt>
      <trkpt lat="46.58943" lon="5.48204">
        <ele>353.2</ele>
        <time>2022-03-07T09:37:16Z</time>
      </trkpt>
      <trkpt lat="46.58942" lon="5.48202">
        <ele>353.8</ele>
        <time>2022-03-07T09:37:17Z</time>
      </trkpt>
      <trkpt lat="46.5894" lon="5.48201">
        <ele>353.8</ele>
        <time>2022-03-07T09:37:18Z</time>
      </trkpt>
      <trkpt lat="46.58938" lon="5.48199">
        <ele>354</ele>
        <time>2022-03-07T09:37:19Z</time>
      </trkpt>
      <trkpt lat="46.58936" lon="5.48197">
        <ele>354.2</ele>
        <time>2022-03-07T09:37:20Z</time>
      </trkpt>
      <trkpt lat="46.58934" lon="5.48196">
        <ele>354.6</ele>
        <time>2022-03-07T09:37:21Z</time>
      </trkpt>
      <trkpt lat="46.58932" lon="5.48195">
        <ele>354.6</ele>
        <time>2022-03-07T09:37:22Z</time>
      </trkpt>
      <trkpt lat="46.5893" lon="5.48194">
        <ele>354.8</ele>
        <time>2022-03-07T09:37:23Z</time>
      </trkpt>
      <trkpt lat="46.58928" lon="5.48193">
        <ele>355</ele>
        <time>2022-03-07T09:37:24Z</time>
      </trkpt>
      <trkpt lat="46.58926" lon="5.48192">
        <ele>355</ele>
        <time>2022-03-07T09:37:25Z</time>
      </trkpt>
      <trkpt lat="46.58925" lon="5.4819">
        <ele>355.4</ele>
        <time>2022-03-07T09:37:26Z</time>
      </trkpt>
      <trkpt lat="46.58924" lon="5.48189">
        <ele>355.4</ele>
        <time>2022-03-07T09:37:27Z</time>
      </trkpt>
      <trkpt lat="46.58923" lon="5.48188">
        <ele>355.4</ele>
        <time>2022-03-07T09:37:28Z</time>
      </trkpt>
      <trkpt lat="46.58923" lon="5.48188">
        <ele>355.6</ele>
        <time>2022-03-07T09:37:29Z</time>
      </trkpt>
      <trkpt lat="46.58923" lon="5.48187">
        <ele>355.6</ele>
        <time>2022-03-07T09:37:30Z</time>
      </trkpt>
      <trkpt lat="46.58923" lon="5.48187">
        <ele>355.6</ele>
        <time>2022-03-07T09:37:31Z</time>
      </trkpt>
      <trkpt lat="46.58923" lon="5.48187">
        <ele>355.8</ele>
        <time>2022-03-07T09:37:33Z</time>
      </trkpt>
      <trkpt lat="46.58923" lon="5.48187">
        <ele>355.8</ele>
        <time>2022-03-07T09:37:34Z</time>
      </trkpt>
      <trkpt lat="46.58923" lon="5.48187">
        <ele>355.8</ele>
        <time>2022-03-07T09:37:35Z</time>
      </trkpt>
      <trkpt lat="46.58923" lon="5.48187">
        <ele>355.8</ele>
        <time>2022-03-07T09:37:42Z</time>
      </trkpt>
      <trkpt lat="46.58923" lon="5.48187">
        <ele>355.8</ele>
        <time>2022-03-07T09:37:43Z</time>
      </trkpt>
      <trkpt lat="46.58923" lon="5.48187">
        <ele>355.8</ele>
        <time>2022-03-07T09:37:44Z</time>
      </trkpt>
      <trkpt lat="46.58923" lon="5.48187">
        <ele>355.8</ele>
        <time>2022-03-07T09:37:45Z</time>
      </trkpt>
      <trkpt lat="46.58923" lon="5.48187">
        <ele>355.8</ele>
        <time>2022-03-07T09:37:46Z</time>
      </trkpt>
      <trkpt lat="46.58923" lon="5.48187">
        <ele>355.8</ele>
        <time>2022-03-07T09:37:47Z</time>
      </trkpt>
      <trkpt lat="46.58923" lon="5.48187">
        <ele>355.8</ele>
        <time>2022-03-07T09:37:50Z</time>
      </trkpt>
      <trkpt lat="46.58923" lon="5.48187">
        <ele>355.8</ele>
        <time>2022-03-07T09:37:51Z</time>
      </trkpt>
      <trkpt lat="46.58923" lon="5.48187">
        <ele>355.8</ele>
        <time>2022-03-07T09:37:52Z</time>
      </trkpt>
      <trkpt lat="46.58923" lon="5.48187">
        <ele>355.8</ele>
        <time>2022-03-07T09:37:53Z</time>
      </trkpt>
      <trkpt lat="46.58923" lon="5.48187">
        <ele>356</ele>
        <time>2022-03-07T09:37:54Z</time>
      </trkpt>
      <trkpt lat="46.58923" lon="5.48187">
        <ele>356</ele>
        <time>2022-03-07T09:37:55Z</time>
      </trkpt>
      <trkpt lat="46.5892" lon="5.48186">
        <ele>356.4</ele>
        <time>2022-03-07T09:37:56Z</time>
      </trkpt>
      <trkpt lat="46.58918" lon="5.48185">
        <ele>356.4</ele>
        <time>2022-03-07T09:37:57Z</time>
      </trkpt>
      <trkpt lat="46.58915" lon="5.48184">
        <ele>356.6</ele>
        <time>2022-03-07T09:37:58Z</time>
      </trkpt>
      <trkpt lat="46.58913" lon="5.48183">
        <ele>356.6</ele>
        <time>2022-03-07T09:37:59Z</time>
      </trkpt>
      <trkpt lat="46.58911" lon="5.48182">
        <ele>357</ele>
        <time>2022-03-07T09:38:00Z</time>
      </trkpt>
      <trkpt lat="46.58909" lon="5.48181">
        <ele>357</ele>
        <time>2022-03-07T09:38:01Z</time>
      </trkpt>
      <trkpt lat="46.58906" lon="5.48179">
        <ele>357.2</ele>
        <time>2022-03-07T09:38:02Z</time>
      </trkpt>
      <trkpt lat="46.58904" lon="5.48178">
        <ele>357.2</ele>
        <time>2022-03-07T09:38:03Z</time>
      </trkpt>
      <trkpt lat="46.58901" lon="5.48177">
        <ele>357.4</ele>
        <time>2022-03-07T09:38:04Z</time>
      </trkpt>
      <trkpt lat="46.58899" lon="5.48176">
        <ele>357.4</ele>
        <time>2022-03-07T09:38:05Z</time>
      </trkpt>
      <trkpt lat="46.58896" lon="5.48175">
        <ele>357.4</ele>
        <time>2022-03-07T09:38:06Z</time>
      </trkpt>
      <trkpt lat="46.58893" lon="5.48174">
        <ele>357.8</ele>
        <time>2022-03-07T09:38:07Z</time>
      </trkpt>
      <trkpt lat="46.58891" lon="5.48173">
        <ele>358</ele>
        <time>2022-03-07T09:38:08Z</time>
      </trkpt>
      <trkpt lat="46.58888" lon="5.48172">
        <ele>358</ele>
        <time>2022-03-07T09:38:09Z</time>
      </trkpt>
      <trkpt lat="46.58885" lon="5.4817">
        <ele>358.4</ele>
        <time>2022-03-07T09:38:10Z</time>
      </trkpt>
      <trkpt lat="46.58883" lon="5.4817">
        <ele>358.4</ele>
        <time>2022-03-07T09:38:11Z</time>
      </trkpt>
      <trkpt lat="46.5888" lon="5.48168">
        <ele>358.6</ele>
        <time>2022-03-07T09:38:12Z</time>
      </trkpt>
      <trkpt lat="46.58877" lon="5.48167">
        <ele>358.6</ele>
        <time>2022-03-07T09:38:13Z</time>
      </trkpt>
      <trkpt lat="46.58874" lon="5.48165">
        <ele>358.6</ele>
        <time>2022-03-07T09:38:14Z</time>
      </trkpt>
      <trkpt lat="46.58871" lon="5.48164">
        <ele>359</ele>
        <time>2022-03-07T09:38:15Z</time>
      </trkpt>
      <trkpt lat="46.58869" lon="5.48162">
        <ele>359</ele>
        <time>2022-03-07T09:38:16Z</time>
      </trkpt>
      <trkpt lat="46.58866" lon="5.48161">
        <ele>359.2</ele>
        <time>2022-03-07T09:38:17Z</time>
      </trkpt>
      <trkpt lat="46.58863" lon="5.4816">
        <ele>359.2</ele>
        <time>2022-03-07T09:38:18Z</time>
      </trkpt>
      <trkpt lat="46.5886" lon="5.4816">
        <ele>359.6</ele>
        <time>2022-03-07T09:38:19Z</time>
      </trkpt>
      <trkpt lat="46.58858" lon="5.48159">
        <ele>359.6</ele>
        <time>2022-03-07T09:38:20Z</time>
      </trkpt>
      <trkpt lat="46.58855" lon="5.48159">
        <ele>359.8</ele>
        <time>2022-03-07T09:38:21Z</time>
      </trkpt>
      <trkpt lat="46.58852" lon="5.48159">
        <ele>359.8</ele>
        <time>2022-03-07T09:38:22Z</time>
      </trkpt>
      <trkpt lat="46.58849" lon="5.48158">
        <ele>360</ele>
        <time>2022-03-07T09:38:23Z</time>
      </trkpt>
      <trkpt lat="46.58846" lon="5.48158">
        <ele>360</ele>
        <time>2022-03-07T09:38:24Z</time>
      </trkpt>
      <trkpt lat="46.58844" lon="5.48158">
        <ele>360.4</ele>
        <time>2022-03-07T09:38:25Z</time>
      </trkpt>
      <trkpt lat="46.58841" lon="5.48157">
        <ele>360.4</ele>
        <time>2022-03-07T09:38:26Z</time>
      </trkpt>
      <trkpt lat="46.58838" lon="5.48157">
        <ele>360.8</ele>
        <time>2022-03-07T09:38:27Z</time>
      </trkpt>
      <trkpt lat="46.58836" lon="5.48158">
        <ele>360.8</ele>
        <time>2022-03-07T09:38:28Z</time>
      </trkpt>
      <trkpt lat="46.58833" lon="5.48158">
        <ele>361</ele>
        <time>2022-03-07T09:38:29Z</time>
      </trkpt>
      <trkpt lat="46.5883" lon="5.48158">
        <ele>361</ele>
        <time>2022-03-07T09:38:30Z</time>
      </trkpt>
      <trkpt lat="46.58828" lon="5.48158">
        <ele>361.4</ele>
        <time>2022-03-07T09:38:31Z</time>
      </trkpt>
      <trkpt lat="46.58825" lon="5.48158">
        <ele>361.6</ele>
        <time>2022-03-07T09:38:32Z</time>
      </trkpt>
      <trkpt lat="46.58822" lon="5.48158">
        <ele>361.6</ele>
        <time>2022-03-07T09:38:33Z</time>
      </trkpt>
      <trkpt lat="46.5882" lon="5.48158">
        <ele>362</ele>
        <time>2022-03-07T09:38:34Z</time>
      </trkpt>
      <trkpt lat="46.58817" lon="5.48158">
        <ele>362</ele>
        <time>2022-03-07T09:38:35Z</time>
      </trkpt>
      <trkpt lat="46.58814" lon="5.48159">
        <ele>362.4</ele>
        <time>2022-03-07T09:38:36Z</time>
      </trkpt>
      <trkpt lat="46.58811" lon="5.48159">
        <ele>362.4</ele>
        <time>2022-03-07T09:38:37Z</time>
      </trkpt>
      <trkpt lat="46.58808" lon="5.48159">
        <ele>362.8</ele>
        <time>2022-03-07T09:38:38Z</time>
      </trkpt>
      <trkpt lat="46.58806" lon="5.48159">
        <ele>362.8</ele>
        <time>2022-03-07T09:38:39Z</time>
      </trkpt>
      <trkpt lat="46.58803" lon="5.48159">
        <ele>363</ele>
        <time>2022-03-07T09:38:40Z</time>
      </trkpt>
      <trkpt lat="46.588" lon="5.48158">
        <ele>363</ele>
        <time>2022-03-07T09:38:41Z</time>
      </trkpt>
      <trkpt lat="46.58797" lon="5.48157">
        <ele>363.4</ele>
        <time>2022-03-07T09:38:42Z</time>
      </trkpt>
      <trkpt lat="46.58794" lon="5.48157">
        <ele>363.4</ele>
        <time>2022-03-07T09:38:43Z</time>
      </trkpt>
      <trkpt lat="46.58792" lon="5.48156">
        <ele>363.6</ele>
        <time>2022-03-07T09:38:44Z</time>
      </trkpt>
      <trkpt lat="46.58789" lon="5.48156">
        <ele>363.6</ele>
        <time>2022-03-07T09:38:45Z</time>
      </trkpt>
      <trkpt lat="46.58787" lon="5.48156">
        <ele>364</ele>
        <time>2022-03-07T09:38:46Z</time>
      </trkpt>
      <trkpt lat="46.58784" lon="5.48156">
        <ele>364</ele>
        <time>2022-03-07T09:38:47Z</time>
      </trkpt>
      <trkpt lat="46.58782" lon="5.48155">
        <ele>364.2</ele>
        <time>2022-03-07T09:38:48Z</time>
      </trkpt>
      <trkpt lat="46.58779" lon="5.48154">
        <ele>364.4</ele>
        <time>2022-03-07T09:38:49Z</time>
      </trkpt>
      <trkpt lat="46.58777" lon="5.48154">
        <ele>364.6</ele>
        <time>2022-03-07T09:38:50Z</time>
      </trkpt>
      <trkpt lat="46.58774" lon="5.48154">
        <ele>364.6</ele>
        <time>2022-03-07T09:38:51Z</time>
      </trkpt>
      <trkpt lat="46.58772" lon="5.48153">
        <ele>365</ele>
        <time>2022-03-07T09:38:52Z</time>
      </trkpt>
      <trkpt lat="46.58769" lon="5.48152">
        <ele>365.2</ele>
        <time>2022-03-07T09:38:53Z</time>
      </trkpt>
      <trkpt lat="46.58767" lon="5.48151">
        <ele>365.2</ele>
        <time>2022-03-07T09:38:54Z</time>
      </trkpt>
      <trkpt lat="46.58765" lon="5.4815">
        <ele>365.4</ele>
        <time>2022-03-07T09:38:55Z</time>
      </trkpt>
      <trkpt lat="46.58763" lon="5.48149">
        <ele>365.6</ele>
        <time>2022-03-07T09:38:56Z</time>
      </trkpt>
      <trkpt lat="46.5876" lon="5.48148">
        <ele>366</ele>
        <time>2022-03-07T09:38:57Z</time>
      </trkpt>
      <trkpt lat="46.58758" lon="5.48147">
        <ele>366</ele>
        <time>2022-03-07T09:38:58Z</time>
      </trkpt>
      <trkpt lat="46.58756" lon="5.48146">
        <ele>366.2</ele>
        <time>2022-03-07T09:38:59Z</time>
      </trkpt>
      <trkpt lat="46.58754" lon="5.48144">
        <ele>366.2</ele>
        <time>2022-03-07T09:39:00Z</time>
      </trkpt>
      <trkpt lat="46.58752" lon="5.48143">
        <ele>366.4</ele>
        <time>2022-03-07T09:39:01Z</time>
      </trkpt>
      <trkpt lat="46.5875" lon="5.4814">
        <ele>366.4</ele>
        <time>2022-03-07T09:39:02Z</time>
      </trkpt>
      <trkpt lat="46.58748" lon="5.48137">
        <ele>366.8</ele>
        <time>2022-03-07T09:39:03Z</time>
      </trkpt>
      <trkpt lat="46.58746" lon="5.48135">
        <ele>366.8</ele>
        <time>2022-03-07T09:39:04Z</time>
      </trkpt>
      <trkpt lat="46.58744" lon="5.48132">
        <ele>367</ele>
        <time>2022-03-07T09:39:05Z</time>
      </trkpt>
      <trkpt lat="46.58742" lon="5.48129">
        <ele>367</ele>
        <time>2022-03-07T09:39:06Z</time>
      </trkpt>
      <trkpt lat="46.5874" lon="5.48126">
        <ele>367</ele>
        <time>2022-03-07T09:39:07Z</time>
      </trkpt>
      <trkpt lat="46.58738" lon="5.48123">
        <ele>367</ele>
        <time>2022-03-07T09:39:08Z</time>
      </trkpt>
      <trkpt lat="46.58736" lon="5.4812">
        <ele>367</ele>
        <time>2022-03-07T09:39:09Z</time>
      </trkpt>
      <trkpt lat="46.58734" lon="5.48117">
        <ele>367.4</ele>
        <time>2022-03-07T09:39:10Z</time>
      </trkpt>
      <trkpt lat="46.58732" lon="5.48114">
        <ele>367.4</ele>
        <time>2022-03-07T09:39:11Z</time>
      </trkpt>
      <trkpt lat="46.58729" lon="5.48111">
        <ele>367.4</ele>
        <time>2022-03-07T09:39:12Z</time>
      </trkpt>
      <trkpt lat="46.58727" lon="5.48108">
        <ele>367.6</ele>
        <time>2022-03-07T09:39:13Z</time>
      </trkpt>
      <trkpt lat="46.58726" lon="5.48105">
        <ele>367.6</ele>
        <time>2022-03-07T09:39:14Z</time>
      </trkpt>
      <trkpt lat="46.58724" lon="5.48103">
        <ele>367.6</ele>
        <time>2022-03-07T09:39:15Z</time>
      </trkpt>
      <trkpt lat="46.58722" lon="5.48101">
        <ele>367.8</ele>
        <time>2022-03-07T09:39:16Z</time>
      </trkpt>
      <trkpt lat="46.58721" lon="5.48098">
        <ele>367.8</ele>
        <time>2022-03-07T09:39:17Z</time>
      </trkpt>
      <trkpt lat="46.58718" lon="5.48095">
        <ele>368.2</ele>
        <time>2022-03-07T09:39:18Z</time>
      </trkpt>
      <trkpt lat="46.58716" lon="5.48093">
        <ele>368.2</ele>
        <time>2022-03-07T09:39:19Z</time>
      </trkpt>
      <trkpt lat="46.58714" lon="5.4809">
        <ele>368.4</ele>
        <time>2022-03-07T09:39:20Z</time>
      </trkpt>
      <trkpt lat="46.58712" lon="5.48087">
        <ele>368.4</ele>
        <time>2022-03-07T09:39:21Z</time>
      </trkpt>
      <trkpt lat="46.5871" lon="5.48085">
        <ele>368.4</ele>
        <time>2022-03-07T09:39:22Z</time>
      </trkpt>
      <trkpt lat="46.58708" lon="5.48082">
        <ele>368.6</ele>
        <time>2022-03-07T09:39:23Z</time>
      </trkpt>
      <trkpt lat="46.58706" lon="5.48079">
        <ele>368.8</ele>
        <time>2022-03-07T09:39:24Z</time>
      </trkpt>
      <trkpt lat="46.58705" lon="5.48075">
        <ele>368.8</ele>
        <time>2022-03-07T09:39:25Z</time>
      </trkpt>
      <trkpt lat="46.58702" lon="5.4807">
        <ele>369.2</ele>
        <time>2022-03-07T09:39:26Z</time>
      </trkpt>
      <trkpt lat="46.587" lon="5.48066">
        <ele>369.2</ele>
        <time>2022-03-07T09:39:27Z</time>
      </trkpt>
      <trkpt lat="46.58699" lon="5.48062">
        <ele>369.6</ele>
        <time>2022-03-07T09:39:28Z</time>
      </trkpt>
      <trkpt lat="46.58697" lon="5.48059">
        <ele>369.6</ele>
        <time>2022-03-07T09:39:29Z</time>
      </trkpt>
      <trkpt lat="46.58696" lon="5.48055">
        <ele>370</ele>
        <time>2022-03-07T09:39:30Z</time>
      </trkpt>
      <trkpt lat="46.58694" lon="5.48051">
        <ele>370</ele>
        <time>2022-03-07T09:39:31Z</time>
      </trkpt>
      <trkpt lat="46.58692" lon="5.48048">
        <ele>370.4</ele>
        <time>2022-03-07T09:39:32Z</time>
      </trkpt>
      <trkpt lat="46.58691" lon="5.48044">
        <ele>370.6</ele>
        <time>2022-03-07T09:39:33Z</time>
      </trkpt>
      <trkpt lat="46.5869" lon="5.48041">
        <ele>370.8</ele>
        <time>2022-03-07T09:39:34Z</time>
      </trkpt>
      <trkpt lat="46.5869" lon="5.48037">
        <ele>371</ele>
        <time>2022-03-07T09:39:35Z</time>
      </trkpt>
      <trkpt lat="46.58689" lon="5.48033">
        <ele>371</ele>
        <time>2022-03-07T09:39:36Z</time>
      </trkpt>
      <trkpt lat="46.58688" lon="5.48029">
        <ele>371.4</ele>
        <time>2022-03-07T09:39:37Z</time>
      </trkpt>
      <trkpt lat="46.58688" lon="5.48025">
        <ele>371.4</ele>
        <time>2022-03-07T09:39:38Z</time>
      </trkpt>
      <trkpt lat="46.58687" lon="5.48021">
        <ele>371.6</ele>
        <time>2022-03-07T09:39:39Z</time>
      </trkpt>
      <trkpt lat="46.58687" lon="5.48017">
        <ele>371.6</ele>
        <time>2022-03-07T09:39:40Z</time>
      </trkpt>
      <trkpt lat="46.58686" lon="5.48012">
        <ele>372</ele>
        <time>2022-03-07T09:39:41Z</time>
      </trkpt>
      <trkpt lat="46.58685" lon="5.48009">
        <ele>372</ele>
        <time>2022-03-07T09:39:42Z</time>
      </trkpt>
      <trkpt lat="46.58685" lon="5.48005">
        <ele>372.2</ele>
        <time>2022-03-07T09:39:43Z</time>
      </trkpt>
      <trkpt lat="46.58685" lon="5.48002">
        <ele>372.2</ele>
        <time>2022-03-07T09:39:44Z</time>
      </trkpt>
      <trkpt lat="46.58684" lon="5.47999">
        <ele>372.6</ele>
        <time>2022-03-07T09:39:45Z</time>
      </trkpt>
      <trkpt lat="46.58684" lon="5.47996">
        <ele>372.6</ele>
        <time>2022-03-07T09:39:46Z</time>
      </trkpt>
      <trkpt lat="46.58684" lon="5.47992">
        <ele>373</ele>
        <time>2022-03-07T09:39:47Z</time>
      </trkpt>
      <trkpt lat="46.58684" lon="5.47989">
        <ele>373</ele>
        <time>2022-03-07T09:39:48Z</time>
      </trkpt>
      <trkpt lat="46.58684" lon="5.47986">
        <ele>373.2</ele>
        <time>2022-03-07T09:39:49Z</time>
      </trkpt>
      <trkpt lat="46.58684" lon="5.47983">
        <ele>373.2</ele>
        <time>2022-03-07T09:39:50Z</time>
      </trkpt>
      <trkpt lat="46.58683" lon="5.4798">
        <ele>373.2</ele>
        <time>2022-03-07T09:39:51Z</time>
      </trkpt>
      <trkpt lat="46.58683" lon="5.47977">
        <ele>373.6</ele>
        <time>2022-03-07T09:39:52Z</time>
      </trkpt>
      <trkpt lat="46.58682" lon="5.47973">
        <ele>373.6</ele>
        <time>2022-03-07T09:39:53Z</time>
      </trkpt>
      <trkpt lat="46.58682" lon="5.47969">
        <ele>373.8</ele>
        <time>2022-03-07T09:39:54Z</time>
      </trkpt>
      <trkpt lat="46.58682" lon="5.47966">
        <ele>373.8</ele>
        <time>2022-03-07T09:39:55Z</time>
      </trkpt>
      <trkpt lat="46.58682" lon="5.47962">
        <ele>374.2</ele>
        <time>2022-03-07T09:39:56Z</time>
      </trkpt>
      <trkpt lat="46.58682" lon="5.47959">
        <ele>374.2</ele>
        <time>2022-03-07T09:39:57Z</time>
      </trkpt>
      <trkpt lat="46.58682" lon="5.47955">
        <ele>374.6</ele>
        <time>2022-03-07T09:39:58Z</time>
      </trkpt>
      <trkpt lat="46.58682" lon="5.47952">
        <ele>374.6</ele>
        <time>2022-03-07T09:39:59Z</time>
      </trkpt>
      <trkpt lat="46.58682" lon="5.47948">
        <ele>375</ele>
        <time>2022-03-07T09:40:00Z</time>
      </trkpt>
      <trkpt lat="46.58683" lon="5.47945">
        <ele>375</ele>
        <time>2022-03-07T09:40:01Z</time>
      </trkpt>
      <trkpt lat="46.58683" lon="5.47941">
        <ele>375.2</ele>
        <time>2022-03-07T09:40:02Z</time>
      </trkpt>
      <trkpt lat="46.58683" lon="5.47937">
        <ele>375.2</ele>
        <time>2022-03-07T09:40:03Z</time>
      </trkpt>
      <trkpt lat="46.58683" lon="5.47933">
        <ele>375.6</ele>
        <time>2022-03-07T09:40:04Z</time>
      </trkpt>
      <trkpt lat="46.58683" lon="5.4793">
        <ele>375.6</ele>
        <time>2022-03-07T09:40:05Z</time>
      </trkpt>
      <trkpt lat="46.58683" lon="5.47926">
        <ele>376</ele>
        <time>2022-03-07T09:40:06Z</time>
      </trkpt>
      <trkpt lat="46.58684" lon="5.47922">
        <ele>376</ele>
        <time>2022-03-07T09:40:07Z</time>
      </trkpt>
      <trkpt lat="46.58684" lon="5.47918">
        <ele>376.4</ele>
        <time>2022-03-07T09:40:08Z</time>
      </trkpt>
      <trkpt lat="46.58685" lon="5.47914">
        <ele>376.4</ele>
        <time>2022-03-07T09:40:09Z</time>
      </trkpt>
      <trkpt lat="46.58685" lon="5.4791">
        <ele>376.8</ele>
        <time>2022-03-07T09:40:10Z</time>
      </trkpt>
      <trkpt lat="46.58685" lon="5.47906">
        <ele>376.8</ele>
        <time>2022-03-07T09:40:11Z</time>
      </trkpt>
      <trkpt lat="46.58685" lon="5.47902">
        <ele>377</ele>
        <time>2022-03-07T09:40:12Z</time>
      </trkpt>
      <trkpt lat="46.58684" lon="5.47897">
        <ele>377</ele>
        <time>2022-03-07T09:40:13Z</time>
      </trkpt>
      <trkpt lat="46.58684" lon="5.47893">
        <ele>377.4</ele>
        <time>2022-03-07T09:40:14Z</time>
      </trkpt>
      <trkpt lat="46.58684" lon="5.47888">
        <ele>377.4</ele>
        <time>2022-03-07T09:40:15Z</time>
      </trkpt>
      <trkpt lat="46.58684" lon="5.47884">
        <ele>377.6</ele>
        <time>2022-03-07T09:40:16Z</time>
      </trkpt>
      <trkpt lat="46.58684" lon="5.4788">
        <ele>377.6</ele>
        <time>2022-03-07T09:40:17Z</time>
      </trkpt>
      <trkpt lat="46.58684" lon="5.47875">
        <ele>378</ele>
        <time>2022-03-07T09:40:18Z</time>
      </trkpt>
      <trkpt lat="46.58684" lon="5.47871">
        <ele>378</ele>
        <time>2022-03-07T09:40:19Z</time>
      </trkpt>
      <trkpt lat="46.58684" lon="5.47867">
        <ele>378.4</ele>
        <time>2022-03-07T09:40:20Z</time>
      </trkpt>
      <trkpt lat="46.58685" lon="5.47862">
        <ele>378.4</ele>
        <time>2022-03-07T09:40:21Z</time>
      </trkpt>
      <trkpt lat="46.58685" lon="5.47858">
        <ele>378.6</ele>
        <time>2022-03-07T09:40:22Z</time>
      </trkpt>
      <trkpt lat="46.58686" lon="5.47854">
        <ele>378.6</ele>
        <time>2022-03-07T09:40:23Z</time>
      </trkpt>
      <trkpt lat="46.58685" lon="5.47849">
        <ele>379</ele>
        <time>2022-03-07T09:40:24Z</time>
      </trkpt>
      <trkpt lat="46.58685" lon="5.47845">
        <ele>379</ele>
        <time>2022-03-07T09:40:25Z</time>
      </trkpt>
      <trkpt lat="46.58684" lon="5.47842">
        <ele>379.2</ele>
        <time>2022-03-07T09:40:26Z</time>
      </trkpt>
      <trkpt lat="46.58683" lon="5.47838">
        <ele>379.2</ele>
        <time>2022-03-07T09:40:27Z</time>
      </trkpt>
      <trkpt lat="46.58681" lon="5.47834">
        <ele>379.2</ele>
        <time>2022-03-07T09:40:28Z</time>
      </trkpt>
      <trkpt lat="46.5868" lon="5.47831">
        <ele>379.6</ele>
        <time>2022-03-07T09:40:29Z</time>
      </trkpt>
      <trkpt lat="46.58678" lon="5.47828">
        <ele>379.8</ele>
        <time>2022-03-07T09:40:30Z</time>
      </trkpt>
      <trkpt lat="46.58677" lon="5.47825">
        <ele>379.8</ele>
        <time>2022-03-07T09:40:31Z</time>
      </trkpt>
      <trkpt lat="46.58675" lon="5.47822">
        <ele>380</ele>
        <time>2022-03-07T09:40:32Z</time>
      </trkpt>
      <trkpt lat="46.58673" lon="5.47819">
        <ele>380</ele>
        <time>2022-03-07T09:40:33Z</time>
      </trkpt>
      <trkpt lat="46.58672" lon="5.47816">
        <ele>380.2</ele>
        <time>2022-03-07T09:40:34Z</time>
      </trkpt>
      <trkpt lat="46.5867" lon="5.47813">
        <ele>380.2</ele>
        <time>2022-03-07T09:40:35Z</time>
      </trkpt>
      <trkpt lat="46.58669" lon="5.4781">
        <ele>380.4</ele>
        <time>2022-03-07T09:40:36Z</time>
      </trkpt>
      <trkpt lat="46.58667" lon="5.47808">
        <ele>380.4</ele>
        <time>2022-03-07T09:40:37Z</time>
      </trkpt>
      <trkpt lat="46.58664" lon="5.47807">
        <ele>380.4</ele>
        <time>2022-03-07T09:40:38Z</time>
      </trkpt>
      <trkpt lat="46.58662" lon="5.47805">
        <ele>380.8</ele>
        <time>2022-03-07T09:40:39Z</time>
      </trkpt>
      <trkpt lat="46.5866" lon="5.47803">
        <ele>380.8</ele>
        <time>2022-03-07T09:40:40Z</time>
      </trkpt>
      <trkpt lat="46.58658" lon="5.47801">
        <ele>380.8</ele>
        <time>2022-03-07T09:40:41Z</time>
      </trkpt>
      <trkpt lat="46.58655" lon="5.47799">
        <ele>381.2</ele>
        <time>2022-03-07T09:40:42Z</time>
      </trkpt>
      <trkpt lat="46.58653" lon="5.47798">
        <ele>381.2</ele>
        <time>2022-03-07T09:40:43Z</time>
      </trkpt>
      <trkpt lat="46.58651" lon="5.47796">
        <ele>381.4</ele>
        <time>2022-03-07T09:40:44Z</time>
      </trkpt>
      <trkpt lat="46.58649" lon="5.47795">
        <ele>381.4</ele>
        <time>2022-03-07T09:40:45Z</time>
      </trkpt>
      <trkpt lat="46.58646" lon="5.47794">
        <ele>381.6</ele>
        <time>2022-03-07T09:40:46Z</time>
      </trkpt>
      <trkpt lat="46.58644" lon="5.47792">
        <ele>381.8</ele>
        <time>2022-03-07T09:40:47Z</time>
      </trkpt>
      <trkpt lat="46.58642" lon="5.47791">
        <ele>381.8</ele>
        <time>2022-03-07T09:40:48Z</time>
      </trkpt>
      <trkpt lat="46.58639" lon="5.4779">
        <ele>382.2</ele>
        <time>2022-03-07T09:40:49Z</time>
      </trkpt>
      <trkpt lat="46.58637" lon="5.47789">
        <ele>382.2</ele>
        <time>2022-03-07T09:40:50Z</time>
      </trkpt>
      <trkpt lat="46.58634" lon="5.47787">
        <ele>382.6</ele>
        <time>2022-03-07T09:40:51Z</time>
      </trkpt>
      <trkpt lat="46.58632" lon="5.47785">
        <ele>382.6</ele>
        <time>2022-03-07T09:40:52Z</time>
      </trkpt>
      <trkpt lat="46.5863" lon="5.47783">
        <ele>382.8</ele>
        <time>2022-03-07T09:40:53Z</time>
      </trkpt>
      <trkpt lat="46.58627" lon="5.47782">
        <ele>382.8</ele>
        <time>2022-03-07T09:40:54Z</time>
      </trkpt>
      <trkpt lat="46.58624" lon="5.47782">
        <ele>383.2</ele>
        <time>2022-03-07T09:40:55Z</time>
      </trkpt>
      <trkpt lat="46.58622" lon="5.47781">
        <ele>383.2</ele>
        <time>2022-03-07T09:40:56Z</time>
      </trkpt>
      <trkpt lat="46.58619" lon="5.47779">
        <ele>383.4</ele>
        <time>2022-03-07T09:40:57Z</time>
      </trkpt>
      <trkpt lat="46.58617" lon="5.47778">
        <ele>383.4</ele>
        <time>2022-03-07T09:40:58Z</time>
      </trkpt>
      <trkpt lat="46.58614" lon="5.47777">
        <ele>383.4</ele>
        <time>2022-03-07T09:40:59Z</time>
      </trkpt>
      <trkpt lat="46.58612" lon="5.47776">
        <ele>383.8</ele>
        <time>2022-03-07T09:41:00Z</time>
      </trkpt>
      <trkpt lat="46.58609" lon="5.47775">
        <ele>383.8</ele>
        <time>2022-03-07T09:41:01Z</time>
      </trkpt>
      <trkpt lat="46.58606" lon="5.47774">
        <ele>384</ele>
        <time>2022-03-07T09:41:02Z</time>
      </trkpt>
      <trkpt lat="46.58604" lon="5.47773">
        <ele>384</ele>
        <time>2022-03-07T09:41:03Z</time>
      </trkpt>
      <trkpt lat="46.58601" lon="5.47773">
        <ele>384</ele>
        <time>2022-03-07T09:41:04Z</time>
      </trkpt>
      <trkpt lat="46.58599" lon="5.47772">
        <ele>384.4</ele>
        <time>2022-03-07T09:41:05Z</time>
      </trkpt>
      <trkpt lat="46.58596" lon="5.47772">
        <ele>384.4</ele>
        <time>2022-03-07T09:41:06Z</time>
      </trkpt>
      <trkpt lat="46.58594" lon="5.47771">
        <ele>384.6</ele>
        <time>2022-03-07T09:41:07Z</time>
      </trkpt>
      <trkpt lat="46.58591" lon="5.47771">
        <ele>384.6</ele>
        <time>2022-03-07T09:41:08Z</time>
      </trkpt>
      <trkpt lat="46.58589" lon="5.4777">
        <ele>384.8</ele>
        <time>2022-03-07T09:41:09Z</time>
      </trkpt>
      <trkpt lat="46.58586" lon="5.4777">
        <ele>384.8</ele>
        <time>2022-03-07T09:41:10Z</time>
      </trkpt>
      <trkpt lat="46.58584" lon="5.4777">
        <ele>385.2</ele>
        <time>2022-03-07T09:41:11Z</time>
      </trkpt>
      <trkpt lat="46.58581" lon="5.47771">
        <ele>385.2</ele>
        <time>2022-03-07T09:41:12Z</time>
      </trkpt>
      <trkpt lat="46.58579" lon="5.47771">
        <ele>385.4</ele>
        <time>2022-03-07T09:41:13Z</time>
      </trkpt>
      <trkpt lat="46.58577" lon="5.47772">
        <ele>385.4</ele>
        <time>2022-03-07T09:41:14Z</time>
      </trkpt>
      <trkpt lat="46.58574" lon="5.47773">
        <ele>385.8</ele>
        <time>2022-03-07T09:41:15Z</time>
      </trkpt>
      <trkpt lat="46.58572" lon="5.47774">
        <ele>385.8</ele>
        <time>2022-03-07T09:41:16Z</time>
      </trkpt>
      <trkpt lat="46.5857" lon="5.47775">
        <ele>386</ele>
        <time>2022-03-07T09:41:17Z</time>
      </trkpt>
      <trkpt lat="46.58567" lon="5.47777">
        <ele>386</ele>
        <time>2022-03-07T09:41:18Z</time>
      </trkpt>
      <trkpt lat="46.58565" lon="5.47778">
        <ele>386.2</ele>
        <time>2022-03-07T09:41:19Z</time>
      </trkpt>
      <trkpt lat="46.58563" lon="5.47779">
        <ele>386.2</ele>
        <time>2022-03-07T09:41:20Z</time>
      </trkpt>
      <trkpt lat="46.58561" lon="5.47781">
        <ele>386.2</ele>
        <time>2022-03-07T09:41:21Z</time>
      </trkpt>
      <trkpt lat="46.58558" lon="5.47783">
        <ele>386.4</ele>
        <time>2022-03-07T09:41:22Z</time>
      </trkpt>
      <trkpt lat="46.58557" lon="5.47785">
        <ele>386.4</ele>
        <time>2022-03-07T09:41:23Z</time>
      </trkpt>
      <trkpt lat="46.58555" lon="5.47787">
        <ele>386.4</ele>
        <time>2022-03-07T09:41:24Z</time>
      </trkpt>
      <trkpt lat="46.58553" lon="5.47789">
        <ele>386.8</ele>
        <time>2022-03-07T09:41:25Z</time>
      </trkpt>
      <trkpt lat="46.5855" lon="5.4779">
        <ele>386.8</ele>
        <time>2022-03-07T09:41:26Z</time>
      </trkpt>
      <trkpt lat="46.58549" lon="5.47792">
        <ele>387</ele>
        <time>2022-03-07T09:41:27Z</time>
      </trkpt>
      <trkpt lat="46.58546" lon="5.47794">
        <ele>387</ele>
        <time>2022-03-07T09:41:28Z</time>
      </trkpt>
      <trkpt lat="46.58544" lon="5.47795">
        <ele>387.4</ele>
        <time>2022-03-07T09:41:29Z</time>
      </trkpt>
      <trkpt lat="46.58541" lon="5.47797">
        <ele>387.4</ele>
        <time>2022-03-07T09:41:30Z</time>
      </trkpt>
      <trkpt lat="46.58539" lon="5.47798">
        <ele>387.6</ele>
        <time>2022-03-07T09:41:31Z</time>
      </trkpt>
      <trkpt lat="46.58536" lon="5.47799">
        <ele>388</ele>
        <time>2022-03-07T09:41:32Z</time>
      </trkpt>
      <trkpt lat="46.58534" lon="5.47801">
        <ele>388.2</ele>
        <time>2022-03-07T09:41:33Z</time>
      </trkpt>
      <trkpt lat="46.58532" lon="5.47803">
        <ele>388.2</ele>
        <time>2022-03-07T09:41:34Z</time>
      </trkpt>
      <trkpt lat="46.5853" lon="5.47805">
        <ele>388.4</ele>
        <time>2022-03-07T09:41:35Z</time>
      </trkpt>
      <trkpt lat="46.58528" lon="5.47807">
        <ele>388.4</ele>
        <time>2022-03-07T09:41:36Z</time>
      </trkpt>
      <trkpt lat="46.58525" lon="5.47808">
        <ele>388.6</ele>
        <time>2022-03-07T09:41:37Z</time>
      </trkpt>
      <trkpt lat="46.58523" lon="5.4781">
        <ele>388.6</ele>
        <time>2022-03-07T09:41:38Z</time>
      </trkpt>
      <trkpt lat="46.58521" lon="5.47812">
        <ele>388.8</ele>
        <time>2022-03-07T09:41:39Z</time>
      </trkpt>
      <trkpt lat="46.58518" lon="5.47814">
        <ele>388.8</ele>
        <time>2022-03-07T09:41:40Z</time>
      </trkpt>
      <trkpt lat="46.58516" lon="5.47815">
        <ele>389.2</ele>
        <time>2022-03-07T09:41:41Z</time>
      </trkpt>
      <trkpt lat="46.58514" lon="5.47817">
        <ele>389.2</ele>
        <time>2022-03-07T09:41:42Z</time>
      </trkpt>
      <trkpt lat="46.58512" lon="5.47819">
        <ele>389.4</ele>
        <time>2022-03-07T09:41:43Z</time>
      </trkpt>
      <trkpt lat="46.58509" lon="5.47821">
        <ele>389.4</ele>
        <time>2022-03-07T09:41:44Z</time>
      </trkpt>
      <trkpt lat="46.58507" lon="5.47823">
        <ele>389.4</ele>
        <time>2022-03-07T09:41:45Z</time>
      </trkpt>
      <trkpt lat="46.58504" lon="5.47825">
        <ele>389.8</ele>
        <time>2022-03-07T09:41:46Z</time>
      </trkpt>
      <trkpt lat="46.58502" lon="5.47826">
        <ele>389.8</ele>
        <time>2022-03-07T09:41:47Z</time>
      </trkpt>
      <trkpt lat="46.58499" lon="5.47828">
        <ele>389.8</ele>
        <time>2022-03-07T09:41:48Z</time>
      </trkpt>
      <trkpt lat="46.58497" lon="5.47829">
        <ele>390</ele>
        <time>2022-03-07T09:41:49Z</time>
      </trkpt>
      <trkpt lat="46.58494" lon="5.47831">
        <ele>390</ele>
        <time>2022-03-07T09:41:50Z</time>
      </trkpt>
      <trkpt lat="46.58492" lon="5.47833">
        <ele>390</ele>
        <time>2022-03-07T09:41:51Z</time>
      </trkpt>
      <trkpt lat="46.5849" lon="5.47835">
        <ele>390</ele>
        <time>2022-03-07T09:41:52Z</time>
      </trkpt>
      <trkpt lat="46.58487" lon="5.47837">
        <ele>390.2</ele>
        <time>2022-03-07T09:41:53Z</time>
      </trkpt>
      <trkpt lat="46.58485" lon="5.47839">
        <ele>390.2</ele>
        <time>2022-03-07T09:41:54Z</time>
      </trkpt>
      <trkpt lat="46.58483" lon="5.4784">
        <ele>390.2</ele>
        <time>2022-03-07T09:41:55Z</time>
      </trkpt>
      <trkpt lat="46.58481" lon="5.47842">
        <ele>390.6</ele>
        <time>2022-03-07T09:41:56Z</time>
      </trkpt>
      <trkpt lat="46.58479" lon="5.47844">
        <ele>390.6</ele>
        <time>2022-03-07T09:41:57Z</time>
      </trkpt>
      <trkpt lat="46.58477" lon="5.47846">
        <ele>391</ele>
        <time>2022-03-07T09:41:58Z</time>
      </trkpt>
      <trkpt lat="46.58475" lon="5.47848">
        <ele>391.2</ele>
        <time>2022-03-07T09:41:59Z</time>
      </trkpt>
      <trkpt lat="46.58474" lon="5.4785">
        <ele>391.2</ele>
        <time>2022-03-07T09:42:00Z</time>
      </trkpt>
      <trkpt lat="46.58472" lon="5.47853">
        <ele>391.6</ele>
        <time>2022-03-07T09:42:01Z</time>
      </trkpt>
      <trkpt lat="46.5847" lon="5.47855">
        <ele>391.8</ele>
        <time>2022-03-07T09:42:02Z</time>
      </trkpt>
      <trkpt lat="46.58469" lon="5.47858">
        <ele>392</ele>
        <time>2022-03-07T09:42:03Z</time>
      </trkpt>
      <trkpt lat="46.58467" lon="5.4786">
        <ele>392.2</ele>
        <time>2022-03-07T09:42:04Z</time>
      </trkpt>
      <trkpt lat="46.58465" lon="5.47863">
        <ele>392.6</ele>
        <time>2022-03-07T09:42:05Z</time>
      </trkpt>
      <trkpt lat="46.58464" lon="5.47866">
        <ele>392.8</ele>
        <time>2022-03-07T09:42:06Z</time>
      </trkpt>
      <trkpt lat="46.58463" lon="5.47869">
        <ele>393</ele>
        <time>2022-03-07T09:42:07Z</time>
      </trkpt>
      <trkpt lat="46.58462" lon="5.47872">
        <ele>393.2</ele>
        <time>2022-03-07T09:42:08Z</time>
      </trkpt>
      <trkpt lat="46.58462" lon="5.47875">
        <ele>393.2</ele>
        <time>2022-03-07T09:42:09Z</time>
      </trkpt>
      <trkpt lat="46.58462" lon="5.47879">
        <ele>393.6</ele>
        <time>2022-03-07T09:42:10Z</time>
      </trkpt>
      <trkpt lat="46.58463" lon="5.47882">
        <ele>393.6</ele>
        <time>2022-03-07T09:42:11Z</time>
      </trkpt>
      <trkpt lat="46.58464" lon="5.47884">
        <ele>393.8</ele>
        <time>2022-03-07T09:42:12Z</time>
      </trkpt>
      <trkpt lat="46.58466" lon="5.47887">
        <ele>394.2</ele>
        <time>2022-03-07T09:42:13Z</time>
      </trkpt>
      <trkpt lat="46.58467" lon="5.47888">
        <ele>394.4</ele>
        <time>2022-03-07T09:42:14Z</time>
      </trkpt>
      <trkpt lat="46.5847" lon="5.47889">
        <ele>394.4</ele>
        <time>2022-03-07T09:42:15Z</time>
      </trkpt>
      <trkpt lat="46.58472" lon="5.47889">
        <ele>394.6</ele>
        <time>2022-03-07T09:42:16Z</time>
      </trkpt>
      <trkpt lat="46.58475" lon="5.47889">
        <ele>394.6</ele>
        <time>2022-03-07T09:42:17Z</time>
      </trkpt>
      <trkpt lat="46.58478" lon="5.47888">
        <ele>395</ele>
        <time>2022-03-07T09:42:18Z</time>
      </trkpt>
      <trkpt lat="46.58481" lon="5.47887">
        <ele>395</ele>
        <time>2022-03-07T09:42:19Z</time>
      </trkpt>
      <trkpt lat="46.58484" lon="5.47885">
        <ele>395.2</ele>
        <time>2022-03-07T09:42:20Z</time>
      </trkpt>
      <trkpt lat="46.58487" lon="5.47884">
        <ele>395.2</ele>
        <time>2022-03-07T09:42:21Z</time>
      </trkpt>
      <trkpt lat="46.5849" lon="5.47883">
        <ele>395.4</ele>
        <time>2022-03-07T09:42:22Z</time>
      </trkpt>
      <trkpt lat="46.58492" lon="5.47881">
        <ele>395.4</ele>
        <time>2022-03-07T09:42:23Z</time>
      </trkpt>
      <trkpt lat="46.58495" lon="5.4788">
        <ele>395.4</ele>
        <time>2022-03-07T09:42:24Z</time>
      </trkpt>
      <trkpt lat="46.58498" lon="5.47878">
        <ele>395.8</ele>
        <time>2022-03-07T09:42:25Z</time>
      </trkpt>
      <trkpt lat="46.585" lon="5.47877">
        <ele>395.8</ele>
        <time>2022-03-07T09:42:26Z</time>
      </trkpt>
      <trkpt lat="46.58503" lon="5.47876">
        <ele>396.2</ele>
        <time>2022-03-07T09:42:27Z</time>
      </trkpt>
      <trkpt lat="46.58505" lon="5.47875">
        <ele>396.2</ele>
        <time>2022-03-07T09:42:28Z</time>
      </trkpt>
      <trkpt lat="46.58508" lon="5.47874">
        <ele>396.4</ele>
        <time>2022-03-07T09:42:29Z</time>
      </trkpt>
      <trkpt lat="46.58511" lon="5.47873">
        <ele>396.4</ele>
        <time>2022-03-07T09:42:30Z</time>
      </trkpt>
      <trkpt lat="46.58513" lon="5.47873">
        <ele>396.8</ele>
        <time>2022-03-07T09:42:31Z</time>
      </trkpt>
      <trkpt lat="46.58516" lon="5.47874">
        <ele>396.8</ele>
        <time>2022-03-07T09:42:32Z</time>
      </trkpt>
      <trkpt lat="46.58518" lon="5.47873">
        <ele>397</ele>
        <time>2022-03-07T09:42:33Z</time>
      </trkpt>
      <trkpt lat="46.58521" lon="5.47873">
        <ele>397</ele>
        <time>2022-03-07T09:42:34Z</time>
      </trkpt>
      <trkpt lat="46.58523" lon="5.47874">
        <ele>397</ele>
        <time>2022-03-07T09:42:35Z</time>
      </trkpt>
      <trkpt lat="46.58526" lon="5.47873">
        <ele>397.4</ele>
        <time>2022-03-07T09:42:36Z</time>
      </trkpt>
      <trkpt lat="46.58528" lon="5.47872">
        <ele>397.4</ele>
        <time>2022-03-07T09:42:37Z</time>
      </trkpt>
      <trkpt lat="46.5853" lon="5.47872">
        <ele>397.6</ele>
        <time>2022-03-07T09:42:38Z</time>
      </trkpt>
      <trkpt lat="46.58533" lon="5.47871">
        <ele>397.6</ele>
        <time>2022-03-07T09:42:39Z</time>
      </trkpt>
      <trkpt lat="46.58535" lon="5.47871">
        <ele>397.8</ele>
        <time>2022-03-07T09:42:40Z</time>
      </trkpt>
      <trkpt lat="46.58538" lon="5.47871">
        <ele>397.8</ele>
        <time>2022-03-07T09:42:41Z</time>
      </trkpt>
      <trkpt lat="46.5854" lon="5.47871">
        <ele>398</ele>
        <time>2022-03-07T09:42:42Z</time>
      </trkpt>
      <trkpt lat="46.58543" lon="5.47872">
        <ele>398</ele>
        <time>2022-03-07T09:42:43Z</time>
      </trkpt>
      <trkpt lat="46.58545" lon="5.47872">
        <ele>398</ele>
        <time>2022-03-07T09:42:44Z</time>
      </trkpt>
      <trkpt lat="46.58548" lon="5.47874">
        <ele>398.4</ele>
        <time>2022-03-07T09:42:45Z</time>
      </trkpt>
      <trkpt lat="46.5855" lon="5.47876">
        <ele>398.4</ele>
        <time>2022-03-07T09:42:46Z</time>
      </trkpt>
      <trkpt lat="46.58553" lon="5.47878">
        <ele>398.6</ele>
        <time>2022-03-07T09:42:47Z</time>
      </trkpt>
      <trkpt lat="46.58555" lon="5.47879">
        <ele>398.6</ele>
        <time>2022-03-07T09:42:48Z</time>
      </trkpt>
      <trkpt lat="46.58558" lon="5.47881">
        <ele>398.6</ele>
        <time>2022-03-07T09:42:49Z</time>
      </trkpt>
      <trkpt lat="46.58561" lon="5.47883">
        <ele>399</ele>
        <time>2022-03-07T09:42:50Z</time>
      </trkpt>
      <trkpt lat="46.58563" lon="5.47885">
        <ele>399</ele>
        <time>2022-03-07T09:42:51Z</time>
      </trkpt>
      <trkpt lat="46.58566" lon="5.47887">
        <ele>399</ele>
        <time>2022-03-07T09:42:52Z</time>
      </trkpt>
      <trkpt lat="46.58568" lon="5.4789">
        <ele>399.2</ele>
        <time>2022-03-07T09:42:53Z</time>
      </trkpt>
      <trkpt lat="46.58571" lon="5.47893">
        <ele>399.2</ele>
        <time>2022-03-07T09:42:54Z</time>
      </trkpt>
      <trkpt lat="46.58573" lon="5.47895">
        <ele>399.6</ele>
        <time>2022-03-07T09:42:55Z</time>
      </trkpt>
      <trkpt lat="46.58575" lon="5.47898">
        <ele>399.8</ele>
        <time>2022-03-07T09:42:56Z</time>
      </trkpt>
      <trkpt lat="46.58577" lon="5.47901">
        <ele>399.8</ele>
        <time>2022-03-07T09:42:57Z</time>
      </trkpt>
      <trkpt lat="46.58578" lon="5.47904">
        <ele>400.2</ele>
        <time>2022-03-07T09:42:58Z</time>
      </trkpt>
      <trkpt lat="46.5858" lon="5.47906">
        <ele>400.2</ele>
        <time>2022-03-07T09:42:59Z</time>
      </trkpt>
      <trkpt lat="46.58581" lon="5.4791">
        <ele>400.6</ele>
        <time>2022-03-07T09:43:00Z</time>
      </trkpt>
      <trkpt lat="46.58582" lon="5.47913">
        <ele>400.6</ele>
        <time>2022-03-07T09:43:01Z</time>
      </trkpt>
      <trkpt lat="46.58584" lon="5.47916">
        <ele>400.8</ele>
        <time>2022-03-07T09:43:02Z</time>
      </trkpt>
      <trkpt lat="46.58584" lon="5.4792">
        <ele>400.8</ele>
        <time>2022-03-07T09:43:03Z</time>
      </trkpt>
      <trkpt lat="46.58585" lon="5.47923">
        <ele>401</ele>
        <time>2022-03-07T09:43:04Z</time>
      </trkpt>
      <trkpt lat="46.58586" lon="5.47927">
        <ele>401</ele>
        <time>2022-03-07T09:43:05Z</time>
      </trkpt>
      <trkpt lat="46.58587" lon="5.4793">
        <ele>401.4</ele>
        <time>2022-03-07T09:43:06Z</time>
      </trkpt>
      <trkpt lat="46.58588" lon="5.47934">
        <ele>401.4</ele>
        <time>2022-03-07T09:43:07Z</time>
      </trkpt>
      <trkpt lat="46.58589" lon="5.47937">
        <ele>401.6</ele>
        <time>2022-03-07T09:43:08Z</time>
      </trkpt>
      <trkpt lat="46.5859" lon="5.47941">
        <ele>401.6</ele>
        <time>2022-03-07T09:43:09Z</time>
      </trkpt>
      <trkpt lat="46.5859" lon="5.47945">
        <ele>402</ele>
        <time>2022-03-07T09:43:10Z</time>
      </trkpt>
      <trkpt lat="46.58591" lon="5.47948">
        <ele>402</ele>
        <time>2022-03-07T09:43:11Z</time>
      </trkpt>
      <trkpt lat="46.58592" lon="5.47952">
        <ele>402.4</ele>
        <time>2022-03-07T09:43:12Z</time>
      </trkpt>
      <trkpt lat="46.58592" lon="5.47956">
        <ele>402.4</ele>
        <time>2022-03-07T09:43:13Z</time>
      </trkpt>
      <trkpt lat="46.58593" lon="5.4796">
        <ele>402.6</ele>
        <time>2022-03-07T09:43:14Z</time>
      </trkpt>
      <trkpt lat="46.58594" lon="5.47964">
        <ele>402.6</ele>
        <time>2022-03-07T09:43:15Z</time>
      </trkpt>
      <trkpt lat="46.58594" lon="5.47968">
        <ele>403</ele>
        <time>2022-03-07T09:43:16Z</time>
      </trkpt>
      <trkpt lat="46.58595" lon="5.47972">
        <ele>403</ele>
        <time>2022-03-07T09:43:17Z</time>
      </trkpt>
      <trkpt lat="46.58596" lon="5.47976">
        <ele>403.4</ele>
        <time>2022-03-07T09:43:18Z</time>
      </trkpt>
      <trkpt lat="46.58596" lon="5.4798">
        <ele>403.4</ele>
        <time>2022-03-07T09:43:19Z</time>
      </trkpt>
      <trkpt lat="46.58597" lon="5.47985">
        <ele>403.6</ele>
        <time>2022-03-07T09:43:20Z</time>
      </trkpt>
      <trkpt lat="46.58597" lon="5.47989">
        <ele>403.6</ele>
        <time>2022-03-07T09:43:21Z</time>
      </trkpt>
      <trkpt lat="46.58598" lon="5.47993">
        <ele>404</ele>
        <time>2022-03-07T09:43:22Z</time>
      </trkpt>
      <trkpt lat="46.58599" lon="5.47997">
        <ele>404</ele>
        <time>2022-03-07T09:43:23Z</time>
      </trkpt>
      <trkpt lat="46.586" lon="5.48001">
        <ele>404.2</ele>
        <time>2022-03-07T09:43:24Z</time>
      </trkpt>
      <trkpt lat="46.58601" lon="5.48005">
        <ele>404.2</ele>
        <time>2022-03-07T09:43:25Z</time>
      </trkpt>
      <trkpt lat="46.58601" lon="5.48009">
        <ele>404.2</ele>
        <time>2022-03-07T09:43:26Z</time>
      </trkpt>
      <trkpt lat="46.58601" lon="5.48014">
        <ele>404.4</ele>
        <time>2022-03-07T09:43:27Z</time>
      </trkpt>
      <trkpt lat="46.58602" lon="5.48018">
        <ele>404.8</ele>
        <time>2022-03-07T09:43:28Z</time>
      </trkpt>
      <trkpt lat="46.58602" lon="5.48021">
        <ele>405</ele>
        <time>2022-03-07T09:43:29Z</time>
      </trkpt>
      <trkpt lat="46.58602" lon="5.48025">
        <ele>405</ele>
        <time>2022-03-07T09:43:30Z</time>
      </trkpt>
      <trkpt lat="46.58603" lon="5.48029">
        <ele>405.2</ele>
        <time>2022-03-07T09:43:31Z</time>
      </trkpt>
      <trkpt lat="46.58604" lon="5.48032">
        <ele>405.2</ele>
        <time>2022-03-07T09:43:32Z</time>
      </trkpt>
      <trkpt lat="46.58605" lon="5.48036">
        <ele>405.6</ele>
        <time>2022-03-07T09:43:33Z</time>
      </trkpt>
      <trkpt lat="46.58606" lon="5.48039">
        <ele>405.6</ele>
        <time>2022-03-07T09:43:34Z</time>
      </trkpt>
      <trkpt lat="46.58607" lon="5.48042">
        <ele>405.8</ele>
        <time>2022-03-07T09:43:35Z</time>
      </trkpt>
      <trkpt lat="46.58608" lon="5.48046">
        <ele>405.8</ele>
        <time>2022-03-07T09:43:36Z</time>
      </trkpt>
      <trkpt lat="46.58608" lon="5.48049">
        <ele>406.2</ele>
        <time>2022-03-07T09:43:37Z</time>
      </trkpt>
      <trkpt lat="46.58609" lon="5.48053">
        <ele>406.2</ele>
        <time>2022-03-07T09:43:38Z</time>
      </trkpt>
      <trkpt lat="46.58609" lon="5.48056">
        <ele>406.6</ele>
        <time>2022-03-07T09:43:39Z</time>
      </trkpt>
      <trkpt lat="46.5861" lon="5.48059">
        <ele>406.6</ele>
        <time>2022-03-07T09:43:40Z</time>
      </trkpt>
      <trkpt lat="46.58611" lon="5.48062">
        <ele>406.8</ele>
        <time>2022-03-07T09:43:41Z</time>
      </trkpt>
      <trkpt lat="46.58612" lon="5.48065">
        <ele>406.8</ele>
        <time>2022-03-07T09:43:42Z</time>
      </trkpt>
      <trkpt lat="46.58613" lon="5.48069">
        <ele>407.2</ele>
        <time>2022-03-07T09:43:43Z</time>
      </trkpt>
      <trkpt lat="46.58614" lon="5.48073">
        <ele>407.4</ele>
        <time>2022-03-07T09:43:44Z</time>
      </trkpt>
      <trkpt lat="46.58615" lon="5.48076">
        <ele>407.4</ele>
        <time>2022-03-07T09:43:45Z</time>
      </trkpt>
      <trkpt lat="46.58615" lon="5.48079">
        <ele>407.4</ele>
        <time>2022-03-07T09:43:46Z</time>
      </trkpt>
      <trkpt lat="46.58616" lon="5.48083">
        <ele>407.6</ele>
        <time>2022-03-07T09:43:47Z</time>
      </trkpt>
      <trkpt lat="46.58617" lon="5.48086">
        <ele>407.6</ele>
        <time>2022-03-07T09:43:48Z</time>
      </trkpt>
      <trkpt lat="46.58618" lon="5.48089">
        <ele>408</ele>
        <time>2022-03-07T09:43:49Z</time>
      </trkpt>
      <trkpt lat="46.58619" lon="5.48093">
        <ele>408</ele>
        <time>2022-03-07T09:43:50Z</time>
      </trkpt>
      <trkpt lat="46.5862" lon="5.48096">
        <ele>408</ele>
        <time>2022-03-07T09:43:51Z</time>
      </trkpt>
      <trkpt lat="46.58621" lon="5.48099">
        <ele>408.2</ele>
        <time>2022-03-07T09:43:52Z</time>
      </trkpt>
      <trkpt lat="46.58622" lon="5.48102">
        <ele>408.4</ele>
        <time>2022-03-07T09:43:53Z</time>
      </trkpt>
      <trkpt lat="46.58623" lon="5.48105">
        <ele>408.4</ele>
        <time>2022-03-07T09:43:54Z</time>
      </trkpt>
      <trkpt lat="46.58625" lon="5.48108">
        <ele>408.8</ele>
        <time>2022-03-07T09:43:55Z</time>
      </trkpt>
      <trkpt lat="46.58626" lon="5.48111">
        <ele>408.8</ele>
        <time>2022-03-07T09:43:56Z</time>
      </trkpt>
      <trkpt lat="46.58627" lon="5.48114">
        <ele>409</ele>
        <time>2022-03-07T09:43:57Z</time>
      </trkpt>
      <trkpt lat="46.58628" lon="5.48117">
        <ele>409</ele>
        <time>2022-03-07T09:43:58Z</time>
      </trkpt>
      <trkpt lat="46.5863" lon="5.4812">
        <ele>409.4</ele>
        <time>2022-03-07T09:43:59Z</time>
      </trkpt>
      <trkpt lat="46.58631" lon="5.48123">
        <ele>409.4</ele>
        <time>2022-03-07T09:44:00Z</time>
      </trkpt>
      <trkpt lat="46.58633" lon="5.48125">
        <ele>409.8</ele>
        <time>2022-03-07T09:44:01Z</time>
      </trkpt>
      <trkpt lat="46.58634" lon="5.48129">
        <ele>410</ele>
        <time>2022-03-07T09:44:02Z</time>
      </trkpt>
      <trkpt lat="46.58635" lon="5.48132">
        <ele>410</ele>
        <time>2022-03-07T09:44:03Z</time>
      </trkpt>
      <trkpt lat="46.58636" lon="5.48135">
        <ele>410.2</ele>
        <time>2022-03-07T09:44:04Z</time>
      </trkpt>
      <trkpt lat="46.58637" lon="5.48138">
        <ele>410.4</ele>
        <time>2022-03-07T09:44:05Z</time>
      </trkpt>
      <trkpt lat="46.58639" lon="5.48142">
        <ele>410.4</ele>
        <time>2022-03-07T09:44:06Z</time>
      </trkpt>
      <trkpt lat="46.5864" lon="5.48145">
        <ele>410.8</ele>
        <time>2022-03-07T09:44:07Z</time>
      </trkpt>
      <trkpt lat="46.58641" lon="5.48148">
        <ele>410.8</ele>
        <time>2022-03-07T09:44:08Z</time>
      </trkpt>
      <trkpt lat="46.58642" lon="5.48151">
        <ele>411</ele>
        <time>2022-03-07T09:44:09Z</time>
      </trkpt>
      <trkpt lat="46.58643" lon="5.48154">
        <ele>411</ele>
        <time>2022-03-07T09:44:10Z</time>
      </trkpt>
      <trkpt lat="46.58644" lon="5.48158">
        <ele>411.4</ele>
        <time>2022-03-07T09:44:11Z</time>
      </trkpt>
      <trkpt lat="46.58645" lon="5.48161">
        <ele>411.4</ele>
        <time>2022-03-07T09:44:12Z</time>
      </trkpt>
      <trkpt lat="46.58646" lon="5.48165">
        <ele>411.6</ele>
        <time>2022-03-07T09:44:13Z</time>
      </trkpt>
      <trkpt lat="46.58646" lon="5.48169">
        <ele>411.6</ele>
        <time>2022-03-07T09:44:14Z</time>
      </trkpt>
      <trkpt lat="46.58647" lon="5.48172">
        <ele>412</ele>
        <time>2022-03-07T09:44:15Z</time>
      </trkpt>
      <trkpt lat="46.58648" lon="5.48176">
        <ele>412</ele>
        <time>2022-03-07T09:44:16Z</time>
      </trkpt>
      <trkpt lat="46.58649" lon="5.4818">
        <ele>412.2</ele>
        <time>2022-03-07T09:44:17Z</time>
      </trkpt>
      <trkpt lat="46.58649" lon="5.48184">
        <ele>412.2</ele>
        <time>2022-03-07T09:44:18Z</time>
      </trkpt>
      <trkpt lat="46.5865" lon="5.48187">
        <ele>412.6</ele>
        <time>2022-03-07T09:44:19Z</time>
      </trkpt>
      <trkpt lat="46.58651" lon="5.48191">
        <ele>412.8</ele>
        <time>2022-03-07T09:44:20Z</time>
      </trkpt>
      <trkpt lat="46.58652" lon="5.48195">
        <ele>412.8</ele>
        <time>2022-03-07T09:44:21Z</time>
      </trkpt>
      <trkpt lat="46.58653" lon="5.48199">
        <ele>413.2</ele>
        <time>2022-03-07T09:44:22Z</time>
      </trkpt>
      <trkpt lat="46.58654" lon="5.48203">
        <ele>413.2</ele>
        <time>2022-03-07T09:44:23Z</time>
      </trkpt>
      <trkpt lat="46.58654" lon="5.48208">
        <ele>413.4</ele>
        <time>2022-03-07T09:44:24Z</time>
      </trkpt>
      <trkpt lat="46.58655" lon="5.48212">
        <ele>413.4</ele>
        <time>2022-03-07T09:44:25Z</time>
      </trkpt>
      <trkpt lat="46.58655" lon="5.48215">
        <ele>413.8</ele>
        <time>2022-03-07T09:44:26Z</time>
      </trkpt>
      <trkpt lat="46.58655" lon="5.48219">
        <ele>413.8</ele>
        <time>2022-03-07T09:44:27Z</time>
      </trkpt>
      <trkpt lat="46.58655" lon="5.48222">
        <ele>414.2</ele>
        <time>2022-03-07T09:44:28Z</time>
      </trkpt>
      <trkpt lat="46.58656" lon="5.48226">
        <ele>414.2</ele>
        <time>2022-03-07T09:44:29Z</time>
      </trkpt>
      <trkpt lat="46.58657" lon="5.48229">
        <ele>414.4</ele>
        <time>2022-03-07T09:44:30Z</time>
      </trkpt>
      <trkpt lat="46.58657" lon="5.48233">
        <ele>414.4</ele>
        <time>2022-03-07T09:44:31Z</time>
      </trkpt>
      <trkpt lat="46.58659" lon="5.48236">
        <ele>414.8</ele>
        <time>2022-03-07T09:44:32Z</time>
      </trkpt>
      <trkpt lat="46.58659" lon="5.4824">
        <ele>414.8</ele>
        <time>2022-03-07T09:44:33Z</time>
      </trkpt>
      <trkpt lat="46.5866" lon="5.48244">
        <ele>415</ele>
        <time>2022-03-07T09:44:34Z</time>
      </trkpt>
      <trkpt lat="46.58661" lon="5.48247">
        <ele>415.4</ele>
        <time>2022-03-07T09:44:35Z</time>
      </trkpt>
      <trkpt lat="46.58661" lon="5.48251">
        <ele>415.4</ele>
        <time>2022-03-07T09:44:36Z</time>
      </trkpt>
      <trkpt lat="46.58662" lon="5.48255">
        <ele>415.6</ele>
        <time>2022-03-07T09:44:37Z</time>
      </trkpt>
      <trkpt lat="46.58663" lon="5.48258">
        <ele>415.6</ele>
        <time>2022-03-07T09:44:38Z</time>
      </trkpt>
      <trkpt lat="46.58664" lon="5.48262">
        <ele>415.8</ele>
        <time>2022-03-07T09:44:39Z</time>
      </trkpt>
      <trkpt lat="46.58665" lon="5.48265">
        <ele>415.8</ele>
        <time>2022-03-07T09:44:40Z</time>
      </trkpt>
      <trkpt lat="46.58666" lon="5.48268">
        <ele>416.2</ele>
        <time>2022-03-07T09:44:41Z</time>
      </trkpt>
      <trkpt lat="46.58667" lon="5.48271">
        <ele>416.2</ele>
        <time>2022-03-07T09:44:42Z</time>
      </trkpt>
      <trkpt lat="46.58668" lon="5.48275">
        <ele>416.6</ele>
        <time>2022-03-07T09:44:43Z</time>
      </trkpt>
      <trkpt lat="46.58669" lon="5.48279">
        <ele>416.6</ele>
        <time>2022-03-07T09:44:44Z</time>
      </trkpt>
      <trkpt lat="46.58669" lon="5.48282">
        <ele>416.8</ele>
        <time>2022-03-07T09:44:45Z</time>
      </trkpt>
      <trkpt lat="46.5867" lon="5.48286">
        <ele>416.8</ele>
        <time>2022-03-07T09:44:46Z</time>
      </trkpt>
      <trkpt lat="46.58669" lon="5.4829">
        <ele>417.2</ele>
        <time>2022-03-07T09:44:47Z</time>
      </trkpt>
      <trkpt lat="46.58669" lon="5.48294">
        <ele>417.2</ele>
        <time>2022-03-07T09:44:48Z</time>
      </trkpt>
      <trkpt lat="46.58669" lon="5.48297">
        <ele>417.6</ele>
        <time>2022-03-07T09:44:49Z</time>
      </trkpt>
      <trkpt lat="46.58668" lon="5.483">
        <ele>417.6</ele>
        <time>2022-03-07T09:44:50Z</time>
      </trkpt>
      <trkpt lat="46.58667" lon="5.48303">
        <ele>417.8</ele>
        <time>2022-03-07T09:44:51Z</time>
      </trkpt>
      <trkpt lat="46.58666" lon="5.48305">
        <ele>417.8</ele>
        <time>2022-03-07T09:44:52Z</time>
      </trkpt>
      <trkpt lat="46.58664" lon="5.48308">
        <ele>418.2</ele>
        <time>2022-03-07T09:44:53Z</time>
      </trkpt>
      <trkpt lat="46.58662" lon="5.4831">
        <ele>418.2</ele>
        <time>2022-03-07T09:44:54Z</time>
      </trkpt>
      <trkpt lat="46.5866" lon="5.48312">
        <ele>418.4</ele>
        <time>2022-03-07T09:44:55Z</time>
      </trkpt>
      <trkpt lat="46.58658" lon="5.48313">
        <ele>418.4</ele>
        <time>2022-03-07T09:44:56Z</time>
      </trkpt>
      <trkpt lat="46.58655" lon="5.48315">
        <ele>418.4</ele>
        <time>2022-03-07T09:44:57Z</time>
      </trkpt>
      <trkpt lat="46.58653" lon="5.48316">
        <ele>418.8</ele>
        <time>2022-03-07T09:44:58Z</time>
      </trkpt>
      <trkpt lat="46.58651" lon="5.48316">
        <ele>418.8</ele>
        <time>2022-03-07T09:44:59Z</time>
      </trkpt>
      <trkpt lat="46.58648" lon="5.48316">
        <ele>419</ele>
        <time>2022-03-07T09:45:00Z</time>
      </trkpt>
      <trkpt lat="46.58646" lon="5.48317">
        <ele>419</ele>
        <time>2022-03-07T09:45:01Z</time>
      </trkpt>
      <trkpt lat="46.58643" lon="5.48318">
        <ele>419.4</ele>
        <time>2022-03-07T09:45:02Z</time>
      </trkpt>
      <trkpt lat="46.58641" lon="5.48319">
        <ele>419.4</ele>
        <time>2022-03-07T09:45:03Z</time>
      </trkpt>
      <trkpt lat="46.58639" lon="5.4832">
        <ele>419.6</ele>
        <time>2022-03-07T09:45:04Z</time>
      </trkpt>
      <trkpt lat="46.58636" lon="5.4832">
        <ele>419.8</ele>
        <time>2022-03-07T09:45:05Z</time>
      </trkpt>
      <trkpt lat="46.58634" lon="5.48321">
        <ele>419.8</ele>
        <time>2022-03-07T09:45:06Z</time>
      </trkpt>
      <trkpt lat="46.58632" lon="5.48321">
        <ele>420.2</ele>
        <time>2022-03-07T09:45:07Z</time>
      </trkpt>
      <trkpt lat="46.58629" lon="5.48323">
        <ele>420.2</ele>
        <time>2022-03-07T09:45:08Z</time>
      </trkpt>
      <trkpt lat="46.58627" lon="5.48324">
        <ele>420.4</ele>
        <time>2022-03-07T09:45:09Z</time>
      </trkpt>
      <trkpt lat="46.58625" lon="5.48325">
        <ele>420.6</ele>
        <time>2022-03-07T09:45:10Z</time>
      </trkpt>
      <trkpt lat="46.58622" lon="5.48326">
        <ele>420.6</ele>
        <time>2022-03-07T09:45:11Z</time>
      </trkpt>
      <trkpt lat="46.5862" lon="5.48327">
        <ele>421</ele>
        <time>2022-03-07T09:45:12Z</time>
      </trkpt>
      <trkpt lat="46.58617" lon="5.48327">
        <ele>421</ele>
        <time>2022-03-07T09:45:13Z</time>
      </trkpt>
      <trkpt lat="46.58615" lon="5.48327">
        <ele>421.2</ele>
        <time>2022-03-07T09:45:14Z</time>
      </trkpt>
      <trkpt lat="46.58613" lon="5.48327">
        <ele>421.2</ele>
        <time>2022-03-07T09:45:15Z</time>
      </trkpt>
      <trkpt lat="46.5861" lon="5.48327">
        <ele>421.4</ele>
        <time>2022-03-07T09:45:16Z</time>
      </trkpt>
      <trkpt lat="46.58607" lon="5.48327">
        <ele>421.4</ele>
        <time>2022-03-07T09:45:17Z</time>
      </trkpt>
      <trkpt lat="46.58605" lon="5.48327">
        <ele>421.8</ele>
        <time>2022-03-07T09:45:18Z</time>
      </trkpt>
      <trkpt lat="46.58602" lon="5.48328">
        <ele>421.8</ele>
        <time>2022-03-07T09:45:19Z</time>
      </trkpt>
      <trkpt lat="46.586" lon="5.48328">
        <ele>422.2</ele>
        <time>2022-03-07T09:45:20Z</time>
      </trkpt>
      <trkpt lat="46.58597" lon="5.48329">
        <ele>422.4</ele>
        <time>2022-03-07T09:45:21Z</time>
      </trkpt>
      <trkpt lat="46.58595" lon="5.48329">
        <ele>422.4</ele>
        <time>2022-03-07T09:45:22Z</time>
      </trkpt>
      <trkpt lat="46.58593" lon="5.48329">
        <ele>422.6</ele>
        <time>2022-03-07T09:45:23Z</time>
      </trkpt>
      <trkpt lat="46.5859" lon="5.4833">
        <ele>422.8</ele>
        <time>2022-03-07T09:45:24Z</time>
      </trkpt>
      <trkpt lat="46.58588" lon="5.4833">
        <ele>423</ele>
        <time>2022-03-07T09:45:25Z</time>
      </trkpt>
      <trkpt lat="46.58585" lon="5.4833">
        <ele>423</ele>
        <time>2022-03-07T09:45:26Z</time>
      </trkpt>
      <trkpt lat="46.58583" lon="5.48329">
        <ele>423.4</ele>
        <time>2022-03-07T09:45:27Z</time>
      </trkpt>
      <trkpt lat="46.5858" lon="5.48329">
        <ele>423.4</ele>
        <time>2022-03-07T09:45:28Z</time>
      </trkpt>
      <trkpt lat="46.58578" lon="5.48329">
        <ele>423.6</ele>
        <time>2022-03-07T09:45:29Z</time>
      </trkpt>
      <trkpt lat="46.58575" lon="5.48329">
        <ele>423.6</ele>
        <time>2022-03-07T09:45:30Z</time>
      </trkpt>
      <trkpt lat="46.58573" lon="5.48328">
        <ele>423.8</ele>
        <time>2022-03-07T09:45:31Z</time>
      </trkpt>
      <trkpt lat="46.5857" lon="5.48328">
        <ele>423.8</ele>
        <time>2022-03-07T09:45:32Z</time>
      </trkpt>
      <trkpt lat="46.58568" lon="5.48328">
        <ele>424</ele>
        <time>2022-03-07T09:45:33Z</time>
      </trkpt>
      <trkpt lat="46.58565" lon="5.48328">
        <ele>424</ele>
        <time>2022-03-07T09:45:34Z</time>
      </trkpt>
      <trkpt lat="46.58563" lon="5.48328">
        <ele>424.2</ele>
        <time>2022-03-07T09:45:35Z</time>
      </trkpt>
      <trkpt lat="46.5856" lon="5.48328">
        <ele>424.2</ele>
        <time>2022-03-07T09:45:36Z</time>
      </trkpt>
      <trkpt lat="46.58558" lon="5.48328">
        <ele>424.2</ele>
        <time>2022-03-07T09:45:37Z</time>
      </trkpt>
      <trkpt lat="46.58556" lon="5.48327">
        <ele>424.6</ele>
        <time>2022-03-07T09:45:38Z</time>
      </trkpt>
      <trkpt lat="46.58553" lon="5.48327">
        <ele>424.6</ele>
        <time>2022-03-07T09:45:39Z</time>
      </trkpt>
      <trkpt lat="46.58551" lon="5.48326">
        <ele>424.8</ele>
        <time>2022-03-07T09:45:40Z</time>
      </trkpt>
      <trkpt lat="46.58548" lon="5.48326">
        <ele>424.8</ele>
        <time>2022-03-07T09:45:41Z</time>
      </trkpt>
      <trkpt lat="46.58546" lon="5.48325">
        <ele>425</ele>
        <time>2022-03-07T09:45:42Z</time>
      </trkpt>
      <trkpt lat="46.58544" lon="5.48325">
        <ele>425</ele>
        <time>2022-03-07T09:45:43Z</time>
      </trkpt>
      <trkpt lat="46.58541" lon="5.48325">
        <ele>425.2</ele>
        <time>2022-03-07T09:45:44Z</time>
      </trkpt>
      <trkpt lat="46.58539" lon="5.48324">
        <ele>425.2</ele>
        <time>2022-03-07T09:45:45Z</time>
      </trkpt>
      <trkpt lat="46.58536" lon="5.48324">
        <ele>425.2</ele>
        <time>2022-03-07T09:45:46Z</time>
      </trkpt>
      <trkpt lat="46.58534" lon="5.48324">
        <ele>425.6</ele>
        <time>2022-03-07T09:45:47Z</time>
      </trkpt>
      <trkpt lat="46.58531" lon="5.48323">
        <ele>425.6</ele>
        <time>2022-03-07T09:45:48Z</time>
      </trkpt>
      <trkpt lat="46.58529" lon="5.48322">
        <ele>426</ele>
        <time>2022-03-07T09:45:49Z</time>
      </trkpt>
      <trkpt lat="46.58526" lon="5.48321">
        <ele>426</ele>
        <time>2022-03-07T09:45:50Z</time>
      </trkpt>
      <trkpt lat="46.58524" lon="5.4832">
        <ele>426.2</ele>
        <time>2022-03-07T09:45:51Z</time>
      </trkpt>
      <trkpt lat="46.58522" lon="5.48319">
        <ele>426.2</ele>
        <time>2022-03-07T09:45:52Z</time>
      </trkpt>
      <trkpt lat="46.58519" lon="5.48318">
        <ele>426.4</ele>
        <time>2022-03-07T09:45:53Z</time>
      </trkpt>
      <trkpt lat="46.58517" lon="5.48317">
        <ele>426.4</ele>
        <time>2022-03-07T09:45:54Z</time>
      </trkpt>
      <trkpt lat="46.58514" lon="5.48316">
        <ele>426.8</ele>
        <time>2022-03-07T09:45:55Z</time>
      </trkpt>
      <trkpt lat="46.58512" lon="5.48315">
        <ele>426.8</ele>
        <time>2022-03-07T09:45:56Z</time>
      </trkpt>
      <trkpt lat="46.5851" lon="5.48313">
        <ele>427</ele>
        <time>2022-03-07T09:45:57Z</time>
      </trkpt>
      <trkpt lat="46.58507" lon="5.48312">
        <ele>427</ele>
        <time>2022-03-07T09:45:58Z</time>
      </trkpt>
      <trkpt lat="46.58505" lon="5.48311">
        <ele>427.2</ele>
        <time>2022-03-07T09:45:59Z</time>
      </trkpt>
      <trkpt lat="46.58503" lon="5.4831">
        <ele>427.2</ele>
        <time>2022-03-07T09:46:00Z</time>
      </trkpt>
      <trkpt lat="46.585" lon="5.48309">
        <ele>427.6</ele>
        <time>2022-03-07T09:46:01Z</time>
      </trkpt>
      <trkpt lat="46.58498" lon="5.48307">
        <ele>427.6</ele>
        <time>2022-03-07T09:46:02Z</time>
      </trkpt>
      <trkpt lat="46.58496" lon="5.48306">
        <ele>427.8</ele>
        <time>2022-03-07T09:46:03Z</time>
      </trkpt>
      <trkpt lat="46.58493" lon="5.48304">
        <ele>427.8</ele>
        <time>2022-03-07T09:46:04Z</time>
      </trkpt>
      <trkpt lat="46.58491" lon="5.48302">
        <ele>428</ele>
        <time>2022-03-07T09:46:05Z</time>
      </trkpt>
      <trkpt lat="46.58489" lon="5.48301">
        <ele>428</ele>
        <time>2022-03-07T09:46:06Z</time>
      </trkpt>
      <trkpt lat="46.58489" lon="5.48301">
        <ele>428.4</ele>
        <time>2022-03-07T09:46:07Z</time>
      </trkpt>
      <trkpt lat="46.58486" lon="5.48301">
        <ele>428.8</ele>
        <time>2022-03-07T09:46:08Z</time>
      </trkpt>
      <trkpt lat="46.58484" lon="5.48299">
        <ele>429</ele>
        <time>2022-03-07T09:46:09Z</time>
      </trkpt>
      <trkpt lat="46.58482" lon="5.48298">
        <ele>429</ele>
        <time>2022-03-07T09:46:10Z</time>
      </trkpt>
      <trkpt lat="46.58479" lon="5.48296">
        <ele>429</ele>
        <time>2022-03-07T09:46:11Z</time>
      </trkpt>
      <trkpt lat="46.58477" lon="5.48294">
        <ele>429.2</ele>
        <time>2022-03-07T09:46:12Z</time>
      </trkpt>
      <trkpt lat="46.58475" lon="5.48292">
        <ele>429.2</ele>
        <time>2022-03-07T09:46:13Z</time>
      </trkpt>
      <trkpt lat="46.58472" lon="5.4829">
        <ele>429.4</ele>
        <time>2022-03-07T09:46:14Z</time>
      </trkpt>
      <trkpt lat="46.5847" lon="5.48289">
        <ele>429.4</ele>
        <time>2022-03-07T09:46:15Z</time>
      </trkpt>
      <trkpt lat="46.58467" lon="5.48287">
        <ele>429.8</ele>
        <time>2022-03-07T09:46:16Z</time>
      </trkpt>
      <trkpt lat="46.58463" lon="5.48285">
        <ele>430</ele>
        <time>2022-03-07T09:46:17Z</time>
      </trkpt>
      <trkpt lat="46.5846" lon="5.48283">
        <ele>430</ele>
        <time>2022-03-07T09:46:19Z</time>
      </trkpt>
      <trkpt lat="46.58458" lon="5.48281">
        <ele>430.4</ele>
        <time>2022-03-07T09:46:20Z</time>
      </trkpt>
      <trkpt lat="46.58456" lon="5.48279">
        <ele>430.4</ele>
        <time>2022-03-07T09:46:21Z</time>
      </trkpt>
      <trkpt lat="46.58454" lon="5.48277">
        <ele>430.6</ele>
        <time>2022-03-07T09:46:22Z</time>
      </trkpt>
      <trkpt lat="46.58452" lon="5.48275">
        <ele>430.6</ele>
        <time>2022-03-07T09:46:23Z</time>
      </trkpt>
      <trkpt lat="46.5845" lon="5.48274">
        <ele>431</ele>
        <time>2022-03-07T09:46:24Z</time>
      </trkpt>
      <trkpt lat="46.58448" lon="5.48272">
        <ele>431.2</ele>
        <time>2022-03-07T09:46:25Z</time>
      </trkpt>
      <trkpt lat="46.58446" lon="5.48271">
        <ele>431.4</ele>
        <time>2022-03-07T09:46:26Z</time>
      </trkpt>
      <trkpt lat="46.58444" lon="5.48269">
        <ele>431.6</ele>
        <time>2022-03-07T09:46:27Z</time>
      </trkpt>
      <trkpt lat="46.58442" lon="5.48267">
        <ele>431.8</ele>
        <time>2022-03-07T09:46:28Z</time>
      </trkpt>
      <trkpt lat="46.58439" lon="5.48265">
        <ele>431.8</ele>
        <time>2022-03-07T09:46:29Z</time>
      </trkpt>
      <trkpt lat="46.58437" lon="5.48264">
        <ele>432.2</ele>
        <time>2022-03-07T09:46:30Z</time>
      </trkpt>
      <trkpt lat="46.58435" lon="5.48262">
        <ele>432.2</ele>
        <time>2022-03-07T09:46:31Z</time>
      </trkpt>
      <trkpt lat="46.58432" lon="5.48261">
        <ele>432.6</ele>
        <time>2022-03-07T09:46:32Z</time>
      </trkpt>
      <trkpt lat="46.5843" lon="5.48259">
        <ele>433</ele>
        <time>2022-03-07T09:46:33Z</time>
      </trkpt>
      <trkpt lat="46.58428" lon="5.48258">
        <ele>433</ele>
        <time>2022-03-07T09:46:34Z</time>
      </trkpt>
      <trkpt lat="46.58426" lon="5.48256">
        <ele>433</ele>
        <time>2022-03-07T09:46:35Z</time>
      </trkpt>
      <trkpt lat="46.58423" lon="5.48254">
        <ele>433</ele>
        <time>2022-03-07T09:46:36Z</time>
      </trkpt>
      <trkpt lat="46.58421" lon="5.48253">
        <ele>433.2</ele>
        <time>2022-03-07T09:46:37Z</time>
      </trkpt>
      <trkpt lat="46.58418" lon="5.48252">
        <ele>433.2</ele>
        <time>2022-03-07T09:46:38Z</time>
      </trkpt>
      <trkpt lat="46.5841" lon="5.4825">
        <ele>433.2</ele>
        <time>2022-03-07T09:46:39Z</time>
      </trkpt>
      <trkpt lat="46.58407" lon="5.4825">
        <ele>433.2</ele>
        <time>2022-03-07T09:46:40Z</time>
      </trkpt>
      <trkpt lat="46.58404" lon="5.4825">
        <ele>433.2</ele>
        <time>2022-03-07T09:46:41Z</time>
      </trkpt>
      <trkpt lat="46.58401" lon="5.48251">
        <ele>433.2</ele>
        <time>2022-03-07T09:46:42Z</time>
      </trkpt>
      <trkpt lat="46.58398" lon="5.48251">
        <ele>433.2</ele>
        <time>2022-03-07T09:46:43Z</time>
      </trkpt>
      <trkpt lat="46.58394" lon="5.48252">
        <ele>433.2</ele>
        <time>2022-03-07T09:46:44Z</time>
      </trkpt>
      <trkpt lat="46.58391" lon="5.48252">
        <ele>433.6</ele>
        <time>2022-03-07T09:46:45Z</time>
      </trkpt>
      <trkpt lat="46.58388" lon="5.48254">
        <ele>433.6</ele>
        <time>2022-03-07T09:46:46Z</time>
      </trkpt>
      <trkpt lat="46.58385" lon="5.48254">
        <ele>433.6</ele>
        <time>2022-03-07T09:46:49Z</time>
      </trkpt>
      <trkpt lat="46.58381" lon="5.48255">
        <ele>433.6</ele>
        <time>2022-03-07T09:46:50Z</time>
      </trkpt>
      <trkpt lat="46.58378" lon="5.48255">
        <ele>433.8</ele>
        <time>2022-03-07T09:46:51Z</time>
      </trkpt>
      <trkpt lat="46.58375" lon="5.48256">
        <ele>433.8</ele>
        <time>2022-03-07T09:46:52Z</time>
      </trkpt>
      <trkpt lat="46.58372" lon="5.48257">
        <ele>433.8</ele>
        <time>2022-03-07T09:46:53Z</time>
      </trkpt>
      <trkpt lat="46.58369" lon="5.48257">
        <ele>434</ele>
        <time>2022-03-07T09:46:54Z</time>
      </trkpt>
      <trkpt lat="46.58365" lon="5.48257">
        <ele>434</ele>
        <time>2022-03-07T09:46:55Z</time>
      </trkpt>
      <trkpt lat="46.58362" lon="5.48257">
        <ele>434.2</ele>
        <time>2022-03-07T09:46:56Z</time>
      </trkpt>
      <trkpt lat="46.58359" lon="5.48257">
        <ele>434.2</ele>
        <time>2022-03-07T09:46:57Z</time>
      </trkpt>
      <trkpt lat="46.58355" lon="5.48256">
        <ele>434.2</ele>
        <time>2022-03-07T09:46:58Z</time>
      </trkpt>
      <trkpt lat="46.58352" lon="5.48256">
        <ele>434.2</ele>
        <time>2022-03-07T09:46:59Z</time>
      </trkpt>
      <trkpt lat="46.58349" lon="5.48256">
        <ele>434.2</ele>
        <time>2022-03-07T09:47:00Z</time>
      </trkpt>
      <trkpt lat="46.58345" lon="5.48255">
        <ele>434.2</ele>
        <time>2022-03-07T09:47:01Z</time>
      </trkpt>
      <trkpt lat="46.58342" lon="5.48255">
        <ele>434.2</ele>
        <time>2022-03-07T09:47:02Z</time>
      </trkpt>
      <trkpt lat="46.58338" lon="5.48253">
        <ele>434.2</ele>
        <time>2022-03-07T09:47:03Z</time>
      </trkpt>
      <trkpt lat="46.58335" lon="5.48253">
        <ele>434.2</ele>
        <time>2022-03-07T09:47:04Z</time>
      </trkpt>
      <trkpt lat="46.58331" lon="5.48252">
        <ele>434.2</ele>
        <time>2022-03-07T09:47:05Z</time>
      </trkpt>
      <trkpt lat="46.58328" lon="5.48252">
        <ele>434.2</ele>
        <time>2022-03-07T09:47:06Z</time>
      </trkpt>
      <trkpt lat="46.58325" lon="5.48251">
        <ele>434.2</ele>
        <time>2022-03-07T09:47:07Z</time>
      </trkpt>
      <trkpt lat="46.58322" lon="5.48251">
        <ele>434.2</ele>
        <time>2022-03-07T09:47:08Z</time>
      </trkpt>
      <trkpt lat="46.58319" lon="5.4825">
        <ele>434.4</ele>
        <time>2022-03-07T09:47:09Z</time>
      </trkpt>
      <trkpt lat="46.58316" lon="5.4825">
        <ele>434.4</ele>
        <time>2022-03-07T09:47:10Z</time>
      </trkpt>
      <trkpt lat="46.58313" lon="5.48249">
        <ele>434.4</ele>
        <time>2022-03-07T09:47:11Z</time>
      </trkpt>
      <trkpt lat="46.58309" lon="5.48249">
        <ele>434.4</ele>
        <time>2022-03-07T09:47:12Z</time>
      </trkpt>
      <trkpt lat="46.58306" lon="5.48248">
        <ele>434.4</ele>
        <time>2022-03-07T09:47:13Z</time>
      </trkpt>
      <trkpt lat="46.58302" lon="5.48247">
        <ele>434.4</ele>
        <time>2022-03-07T09:47:14Z</time>
      </trkpt>
      <trkpt lat="46.58298" lon="5.48246">
        <ele>434.4</ele>
        <time>2022-03-07T09:47:15Z</time>
      </trkpt>
      <trkpt lat="46.58295" lon="5.48245">
        <ele>434.4</ele>
        <time>2022-03-07T09:47:16Z</time>
      </trkpt>
      <trkpt lat="46.58291" lon="5.48245">
        <ele>434.4</ele>
        <time>2022-03-07T09:47:17Z</time>
      </trkpt>
      <trkpt lat="46.58287" lon="5.48243">
        <ele>434.4</ele>
        <time>2022-03-07T09:47:18Z</time>
      </trkpt>
      <trkpt lat="46.58283" lon="5.48242">
        <ele>434.4</ele>
        <time>2022-03-07T09:47:19Z</time>
      </trkpt>
      <trkpt lat="46.58279" lon="5.4824">
        <ele>434.4</ele>
        <time>2022-03-07T09:47:20Z</time>
      </trkpt>
      <trkpt lat="46.58275" lon="5.4824">
        <ele>434.6</ele>
        <time>2022-03-07T09:47:21Z</time>
      </trkpt>
      <trkpt lat="46.58271" lon="5.4824">
        <ele>434.6</ele>
        <time>2022-03-07T09:47:22Z</time>
      </trkpt>
      <trkpt lat="46.58267" lon="5.48239">
        <ele>434.6</ele>
        <time>2022-03-07T09:47:23Z</time>
      </trkpt>
      <trkpt lat="46.58264" lon="5.48238">
        <ele>434.6</ele>
        <time>2022-03-07T09:47:24Z</time>
      </trkpt>
      <trkpt lat="46.5826" lon="5.48237">
        <ele>434.6</ele>
        <time>2022-03-07T09:47:25Z</time>
      </trkpt>
      <trkpt lat="46.58256" lon="5.48236">
        <ele>434.6</ele>
        <time>2022-03-07T09:47:26Z</time>
      </trkpt>
      <trkpt lat="46.58253" lon="5.48235">
        <ele>435</ele>
        <time>2022-03-07T09:47:27Z</time>
      </trkpt>
      <trkpt lat="46.58249" lon="5.48234">
        <ele>435</ele>
        <time>2022-03-07T09:47:28Z</time>
      </trkpt>
      <trkpt lat="46.58245" lon="5.48234">
        <ele>435</ele>
        <time>2022-03-07T09:47:29Z</time>
      </trkpt>
      <trkpt lat="46.58242" lon="5.48232">
        <ele>435.2</ele>
        <time>2022-03-07T09:47:30Z</time>
      </trkpt>
      <trkpt lat="46.58238" lon="5.4823">
        <ele>435.2</ele>
        <time>2022-03-07T09:47:31Z</time>
      </trkpt>
      <trkpt lat="46.58235" lon="5.48228">
        <ele>435.4</ele>
        <time>2022-03-07T09:47:32Z</time>
      </trkpt>
      <trkpt lat="46.58231" lon="5.48226">
        <ele>435.4</ele>
        <time>2022-03-07T09:47:33Z</time>
      </trkpt>
      <trkpt lat="46.58227" lon="5.48225">
        <ele>435.4</ele>
        <time>2022-03-07T09:47:34Z</time>
      </trkpt>
      <trkpt lat="46.58224" lon="5.48223">
        <ele>435.6</ele>
        <time>2022-03-07T09:47:35Z</time>
      </trkpt>
      <trkpt lat="46.5822" lon="5.48222">
        <ele>435.6</ele>
        <time>2022-03-07T09:47:36Z</time>
      </trkpt>
      <trkpt lat="46.58217" lon="5.4822">
        <ele>435.6</ele>
        <time>2022-03-07T09:47:37Z</time>
      </trkpt>
      <trkpt lat="46.58214" lon="5.48219">
        <ele>435.8</ele>
        <time>2022-03-07T09:47:38Z</time>
      </trkpt>
      <trkpt lat="46.5821" lon="5.48218">
        <ele>435.8</ele>
        <time>2022-03-07T09:47:39Z</time>
      </trkpt>
      <trkpt lat="46.58207" lon="5.48217">
        <ele>435.8</ele>
        <time>2022-03-07T09:47:40Z</time>
      </trkpt>
      <trkpt lat="46.58204" lon="5.48216">
        <ele>436.2</ele>
        <time>2022-03-07T09:47:41Z</time>
      </trkpt>
      <trkpt lat="46.58201" lon="5.48216">
        <ele>436.2</ele>
        <time>2022-03-07T09:47:42Z</time>
      </trkpt>
      <trkpt lat="46.58198" lon="5.48215">
        <ele>436.6</ele>
        <time>2022-03-07T09:47:43Z</time>
      </trkpt>
      <trkpt lat="46.58195" lon="5.48215">
        <ele>436.6</ele>
        <time>2022-03-07T09:47:44Z</time>
      </trkpt>
      <trkpt lat="46.58192" lon="5.48214">
        <ele>437</ele>
        <time>2022-03-07T09:47:45Z</time>
      </trkpt>
      <trkpt lat="46.58189" lon="5.48212">
        <ele>437.2</ele>
        <time>2022-03-07T09:47:46Z</time>
      </trkpt>
      <trkpt lat="46.58186" lon="5.4821">
        <ele>437.4</ele>
        <time>2022-03-07T09:47:47Z</time>
      </trkpt>
      <trkpt lat="46.58183" lon="5.48208">
        <ele>437.6</ele>
        <time>2022-03-07T09:47:48Z</time>
      </trkpt>
      <trkpt lat="46.5818" lon="5.48206">
        <ele>437.8</ele>
        <time>2022-03-07T09:47:49Z</time>
      </trkpt>
      <trkpt lat="46.58178" lon="5.48205">
        <ele>438.2</ele>
        <time>2022-03-07T09:47:50Z</time>
      </trkpt>
      <trkpt lat="46.58175" lon="5.48204">
        <ele>438.2</ele>
        <time>2022-03-07T09:47:51Z</time>
      </trkpt>
      <trkpt lat="46.58172" lon="5.48202">
        <ele>438.6</ele>
        <time>2022-03-07T09:47:52Z</time>
      </trkpt>
      <trkpt lat="46.58169" lon="5.48201">
        <ele>438.8</ele>
        <time>2022-03-07T09:47:53Z</time>
      </trkpt>
      <trkpt lat="46.58167" lon="5.482">
        <ele>439.2</ele>
        <time>2022-03-07T09:47:54Z</time>
      </trkpt>
      <trkpt lat="46.58165" lon="5.48199">
        <ele>439.4</ele>
        <time>2022-03-07T09:47:55Z</time>
      </trkpt>
      <trkpt lat="46.58162" lon="5.48197">
        <ele>439.6</ele>
        <time>2022-03-07T09:47:56Z</time>
      </trkpt>
      <trkpt lat="46.58159" lon="5.48195">
        <ele>439.8</ele>
        <time>2022-03-07T09:47:57Z</time>
      </trkpt>
      <trkpt lat="46.58157" lon="5.48193">
        <ele>439.8</ele>
        <time>2022-03-07T09:47:58Z</time>
      </trkpt>
      <trkpt lat="46.58154" lon="5.48191">
        <ele>440.2</ele>
        <time>2022-03-07T09:47:59Z</time>
      </trkpt>
      <trkpt lat="46.58151" lon="5.48189">
        <ele>440.2</ele>
        <time>2022-03-07T09:48:00Z</time>
      </trkpt>
      <trkpt lat="46.58148" lon="5.48187">
        <ele>440.8</ele>
        <time>2022-03-07T09:48:01Z</time>
      </trkpt>
      <trkpt lat="46.58145" lon="5.48185">
        <ele>441</ele>
        <time>2022-03-07T09:48:02Z</time>
      </trkpt>
      <trkpt lat="46.58142" lon="5.48184">
        <ele>441.2</ele>
        <time>2022-03-07T09:48:03Z</time>
      </trkpt>
      <trkpt lat="46.58139" lon="5.48183">
        <ele>441.2</ele>
        <time>2022-03-07T09:48:04Z</time>
      </trkpt>
      <trkpt lat="46.58136" lon="5.48181">
        <ele>441.4</ele>
        <time>2022-03-07T09:48:05Z</time>
      </trkpt>
      <trkpt lat="46.58132" lon="5.48179">
        <ele>441.4</ele>
        <time>2022-03-07T09:48:06Z</time>
      </trkpt>
      <trkpt lat="46.58129" lon="5.48177">
        <ele>441.8</ele>
        <time>2022-03-07T09:48:07Z</time>
      </trkpt>
      <trkpt lat="46.58126" lon="5.48176">
        <ele>441.8</ele>
        <time>2022-03-07T09:48:08Z</time>
      </trkpt>
      <trkpt lat="46.58123" lon="5.48175">
        <ele>442</ele>
        <time>2022-03-07T09:48:09Z</time>
      </trkpt>
      <trkpt lat="46.58121" lon="5.48173">
        <ele>442</ele>
        <time>2022-03-07T09:48:10Z</time>
      </trkpt>
      <trkpt lat="46.58118" lon="5.4817">
        <ele>442.2</ele>
        <time>2022-03-07T09:48:11Z</time>
      </trkpt>
      <trkpt lat="46.58116" lon="5.48168">
        <ele>442.2</ele>
        <time>2022-03-07T09:48:12Z</time>
      </trkpt>
      <trkpt lat="46.58115" lon="5.48166">
        <ele>442.6</ele>
        <time>2022-03-07T09:48:13Z</time>
      </trkpt>
      <trkpt lat="46.58113" lon="5.48163">
        <ele>442.8</ele>
        <time>2022-03-07T09:48:14Z</time>
      </trkpt>
      <trkpt lat="46.58111" lon="5.4816">
        <ele>443</ele>
        <time>2022-03-07T09:48:15Z</time>
      </trkpt>
      <trkpt lat="46.5811" lon="5.48157">
        <ele>443.2</ele>
        <time>2022-03-07T09:48:16Z</time>
      </trkpt>
      <trkpt lat="46.58109" lon="5.48154">
        <ele>443.2</ele>
        <time>2022-03-07T09:48:17Z</time>
      </trkpt>
      <trkpt lat="46.58108" lon="5.48151">
        <ele>443.6</ele>
        <time>2022-03-07T09:48:18Z</time>
      </trkpt>
      <trkpt lat="46.58107" lon="5.48148">
        <ele>443.6</ele>
        <time>2022-03-07T09:48:19Z</time>
      </trkpt>
      <trkpt lat="46.58105" lon="5.48143">
        <ele>443.8</ele>
        <time>2022-03-07T09:48:20Z</time>
      </trkpt>
      <trkpt lat="46.58104" lon="5.4814">
        <ele>444</ele>
        <time>2022-03-07T09:48:21Z</time>
      </trkpt>
      <trkpt lat="46.58103" lon="5.48137">
        <ele>444</ele>
        <time>2022-03-07T09:48:22Z</time>
      </trkpt>
      <trkpt lat="46.58102" lon="5.48134">
        <ele>444.4</ele>
        <time>2022-03-07T09:48:23Z</time>
      </trkpt>
      <trkpt lat="46.58102" lon="5.4813">
        <ele>444.4</ele>
        <time>2022-03-07T09:48:24Z</time>
      </trkpt>
      <trkpt lat="46.58101" lon="5.48127">
        <ele>444.8</ele>
        <time>2022-03-07T09:48:25Z</time>
      </trkpt>
      <trkpt lat="46.58101" lon="5.48123">
        <ele>444.8</ele>
        <time>2022-03-07T09:48:26Z</time>
      </trkpt>
      <trkpt lat="46.58101" lon="5.48119">
        <ele>445</ele>
        <time>2022-03-07T09:48:27Z</time>
      </trkpt>
      <trkpt lat="46.58101" lon="5.48115">
        <ele>445</ele>
        <time>2022-03-07T09:48:28Z</time>
      </trkpt>
      <trkpt lat="46.581" lon="5.48112">
        <ele>445.4</ele>
        <time>2022-03-07T09:48:29Z</time>
      </trkpt>
      <trkpt lat="46.581" lon="5.48108">
        <ele>445.4</ele>
        <time>2022-03-07T09:48:30Z</time>
      </trkpt>
      <trkpt lat="46.58099" lon="5.48104">
        <ele>445.6</ele>
        <time>2022-03-07T09:48:31Z</time>
      </trkpt>
      <trkpt lat="46.58099" lon="5.48101">
        <ele>445.6</ele>
        <time>2022-03-07T09:48:32Z</time>
      </trkpt>
      <trkpt lat="46.58097" lon="5.48098">
        <ele>445.8</ele>
        <time>2022-03-07T09:48:33Z</time>
      </trkpt>
      <trkpt lat="46.58096" lon="5.48095">
        <ele>445.8</ele>
        <time>2022-03-07T09:48:34Z</time>
      </trkpt>
      <trkpt lat="46.58095" lon="5.48091">
        <ele>446.2</ele>
        <time>2022-03-07T09:48:35Z</time>
      </trkpt>
      <trkpt lat="46.58094" lon="5.48088">
        <ele>446.2</ele>
        <time>2022-03-07T09:48:36Z</time>
      </trkpt>
      <trkpt lat="46.58093" lon="5.48085">
        <ele>446.4</ele>
        <time>2022-03-07T09:48:37Z</time>
      </trkpt>
      <trkpt lat="46.58092" lon="5.48082">
        <ele>446.6</ele>
        <time>2022-03-07T09:48:38Z</time>
      </trkpt>
      <trkpt lat="46.58091" lon="5.4808">
        <ele>446.8</ele>
        <time>2022-03-07T09:48:39Z</time>
      </trkpt>
      <trkpt lat="46.58089" lon="5.48077">
        <ele>446.8</ele>
        <time>2022-03-07T09:48:40Z</time>
      </trkpt>
      <trkpt lat="46.58087" lon="5.48075">
        <ele>447.2</ele>
        <time>2022-03-07T09:48:41Z</time>
      </trkpt>
      <trkpt lat="46.58085" lon="5.48072">
        <ele>447.2</ele>
        <time>2022-03-07T09:48:42Z</time>
      </trkpt>
      <trkpt lat="46.58083" lon="5.4807">
        <ele>447.6</ele>
        <time>2022-03-07T09:48:43Z</time>
      </trkpt>
      <trkpt lat="46.58082" lon="5.48068">
        <ele>447.6</ele>
        <time>2022-03-07T09:48:44Z</time>
      </trkpt>
      <trkpt lat="46.5808" lon="5.48066">
        <ele>447.8</ele>
        <time>2022-03-07T09:48:45Z</time>
      </trkpt>
      <trkpt lat="46.58078" lon="5.48065">
        <ele>448</ele>
        <time>2022-03-07T09:48:46Z</time>
      </trkpt>
      <trkpt lat="46.58076" lon="5.48064">
        <ele>448</ele>
        <time>2022-03-07T09:48:47Z</time>
      </trkpt>
      <trkpt lat="46.58074" lon="5.48062">
        <ele>448.4</ele>
        <time>2022-03-07T09:48:48Z</time>
      </trkpt>
      <trkpt lat="46.58072" lon="5.4806">
        <ele>448.4</ele>
        <time>2022-03-07T09:48:49Z</time>
      </trkpt>
      <trkpt lat="46.58069" lon="5.48058">
        <ele>448.6</ele>
        <time>2022-03-07T09:48:50Z</time>
      </trkpt>
      <trkpt lat="46.58067" lon="5.48056">
        <ele>448.6</ele>
        <time>2022-03-07T09:48:51Z</time>
      </trkpt>
      <trkpt lat="46.58065" lon="5.48054">
        <ele>449</ele>
        <time>2022-03-07T09:48:52Z</time>
      </trkpt>
      <trkpt lat="46.58063" lon="5.48053">
        <ele>449</ele>
        <time>2022-03-07T09:48:53Z</time>
      </trkpt>
      <trkpt lat="46.58061" lon="5.48051">
        <ele>449.2</ele>
        <time>2022-03-07T09:48:54Z</time>
      </trkpt>
      <trkpt lat="46.58059" lon="5.48049">
        <ele>449.2</ele>
        <time>2022-03-07T09:48:55Z</time>
      </trkpt>
      <trkpt lat="46.58057" lon="5.48046">
        <ele>449.6</ele>
        <time>2022-03-07T09:48:56Z</time>
      </trkpt>
      <trkpt lat="46.58055" lon="5.48044">
        <ele>449.6</ele>
        <time>2022-03-07T09:48:57Z</time>
      </trkpt>
      <trkpt lat="46.58053" lon="5.48041">
        <ele>450</ele>
        <time>2022-03-07T09:48:58Z</time>
      </trkpt>
      <trkpt lat="46.58051" lon="5.48039">
        <ele>450.2</ele>
        <time>2022-03-07T09:48:59Z</time>
      </trkpt>
      <trkpt lat="46.58049" lon="5.48037">
        <ele>450.4</ele>
        <time>2022-03-07T09:49:00Z</time>
      </trkpt>
      <trkpt lat="46.58047" lon="5.48036">
        <ele>450.6</ele>
        <time>2022-03-07T09:49:01Z</time>
      </trkpt>
      <trkpt lat="46.58044" lon="5.48034">
        <ele>450.8</ele>
        <time>2022-03-07T09:49:02Z</time>
      </trkpt>
      <trkpt lat="46.58042" lon="5.48033">
        <ele>451</ele>
        <time>2022-03-07T09:49:03Z</time>
      </trkpt>
      <trkpt lat="46.58039" lon="5.48031">
        <ele>451</ele>
        <time>2022-03-07T09:49:04Z</time>
      </trkpt>
      <trkpt lat="46.58037" lon="5.4803">
        <ele>451.4</ele>
        <time>2022-03-07T09:49:05Z</time>
      </trkpt>
      <trkpt lat="46.58034" lon="5.48029">
        <ele>451.4</ele>
        <time>2022-03-07T09:49:06Z</time>
      </trkpt>
      <trkpt lat="46.58032" lon="5.4803">
        <ele>451.8</ele>
        <time>2022-03-07T09:49:07Z</time>
      </trkpt>
      <trkpt lat="46.58029" lon="5.4803">
        <ele>451.8</ele>
        <time>2022-03-07T09:49:08Z</time>
      </trkpt>
      <trkpt lat="46.58027" lon="5.48031">
        <ele>452</ele>
        <time>2022-03-07T09:49:09Z</time>
      </trkpt>
      <trkpt lat="46.58025" lon="5.48032">
        <ele>452.2</ele>
        <time>2022-03-07T09:49:10Z</time>
      </trkpt>
      <trkpt lat="46.58024" lon="5.48035">
        <ele>452.4</ele>
        <time>2022-03-07T09:49:11Z</time>
      </trkpt>
      <trkpt lat="46.58023" lon="5.48037">
        <ele>452.8</ele>
        <time>2022-03-07T09:49:12Z</time>
      </trkpt>
      <trkpt lat="46.58023" lon="5.4804">
        <ele>453</ele>
        <time>2022-03-07T09:49:13Z</time>
      </trkpt>
      <trkpt lat="46.58023" lon="5.48043">
        <ele>453.2</ele>
        <time>2022-03-07T09:49:14Z</time>
      </trkpt>
      <trkpt lat="46.58024" lon="5.48045">
        <ele>453.2</ele>
        <time>2022-03-07T09:49:15Z</time>
      </trkpt>
      <trkpt lat="46.58024" lon="5.48048">
        <ele>453.4</ele>
        <time>2022-03-07T09:49:16Z</time>
      </trkpt>
      <trkpt lat="46.58025" lon="5.48051">
        <ele>453.4</ele>
        <time>2022-03-07T09:49:17Z</time>
      </trkpt>
      <trkpt lat="46.58025" lon="5.48054">
        <ele>453.4</ele>
        <time>2022-03-07T09:49:18Z</time>
      </trkpt>
      <trkpt lat="46.58026" lon="5.48057">
        <ele>453.8</ele>
        <time>2022-03-07T09:49:19Z</time>
      </trkpt>
      <trkpt lat="46.58026" lon="5.4806">
        <ele>453.8</ele>
        <time>2022-03-07T09:49:20Z</time>
      </trkpt>
      <trkpt lat="46.58027" lon="5.48063">
        <ele>454.2</ele>
        <time>2022-03-07T09:49:21Z</time>
      </trkpt>
      <trkpt lat="46.58028" lon="5.48066">
        <ele>454.2</ele>
        <time>2022-03-07T09:49:22Z</time>
      </trkpt>
      <trkpt lat="46.58029" lon="5.48069">
        <ele>454.4</ele>
        <time>2022-03-07T09:49:23Z</time>
      </trkpt>
      <trkpt lat="46.5803" lon="5.48072">
        <ele>454.4</ele>
        <time>2022-03-07T09:49:24Z</time>
      </trkpt>
      <trkpt lat="46.58031" lon="5.48075">
        <ele>454.6</ele>
        <time>2022-03-07T09:49:25Z</time>
      </trkpt>
      <trkpt lat="46.58032" lon="5.48078">
        <ele>454.6</ele>
        <time>2022-03-07T09:49:26Z</time>
      </trkpt>
      <trkpt lat="46.58033" lon="5.48081">
        <ele>455</ele>
        <time>2022-03-07T09:49:27Z</time>
      </trkpt>
      <trkpt lat="46.58034" lon="5.48084">
        <ele>455</ele>
        <time>2022-03-07T09:49:28Z</time>
      </trkpt>
      <trkpt lat="46.58035" lon="5.48087">
        <ele>455.2</ele>
        <time>2022-03-07T09:49:29Z</time>
      </trkpt>
      <trkpt lat="46.58037" lon="5.48093">
        <ele>455.2</ele>
        <time>2022-03-07T09:49:30Z</time>
      </trkpt>
      <trkpt lat="46.58038" lon="5.48097">
        <ele>455.6</ele>
        <time>2022-03-07T09:49:31Z</time>
      </trkpt>
      <trkpt lat="46.58039" lon="5.481">
        <ele>455.6</ele>
        <time>2022-03-07T09:49:32Z</time>
      </trkpt>
      <trkpt lat="46.5804" lon="5.48103">
        <ele>455.8</ele>
        <time>2022-03-07T09:49:33Z</time>
      </trkpt>
      <trkpt lat="46.58041" lon="5.48107">
        <ele>455.8</ele>
        <time>2022-03-07T09:49:34Z</time>
      </trkpt>
      <trkpt lat="46.58042" lon="5.4811">
        <ele>456</ele>
        <time>2022-03-07T09:49:35Z</time>
      </trkpt>
      <trkpt lat="46.58043" lon="5.48113">
        <ele>456</ele>
        <time>2022-03-07T09:49:36Z</time>
      </trkpt>
      <trkpt lat="46.58044" lon="5.48116">
        <ele>456</ele>
        <time>2022-03-07T09:49:37Z</time>
      </trkpt>
      <trkpt lat="46.58045" lon="5.48119">
        <ele>456.2</ele>
        <time>2022-03-07T09:49:38Z</time>
      </trkpt>
      <trkpt lat="46.58046" lon="5.48122">
        <ele>456.2</ele>
        <time>2022-03-07T09:49:39Z</time>
      </trkpt>
      <trkpt lat="46.58046" lon="5.48126">
        <ele>456.2</ele>
        <time>2022-03-07T09:49:40Z</time>
      </trkpt>
      <trkpt lat="46.58047" lon="5.48129">
        <ele>456.6</ele>
        <time>2022-03-07T09:49:41Z</time>
      </trkpt>
      <trkpt lat="46.58048" lon="5.48132">
        <ele>456.6</ele>
        <time>2022-03-07T09:49:42Z</time>
      </trkpt>
      <trkpt lat="46.58049" lon="5.48135">
        <ele>456.6</ele>
        <time>2022-03-07T09:49:43Z</time>
      </trkpt>
      <trkpt lat="46.58049" lon="5.48138">
        <ele>456.6</ele>
        <time>2022-03-07T09:49:44Z</time>
      </trkpt>
      <trkpt lat="46.5805" lon="5.48142">
        <ele>456.8</ele>
        <time>2022-03-07T09:49:45Z</time>
      </trkpt>
      <trkpt lat="46.5805" lon="5.48145">
        <ele>456.8</ele>
        <time>2022-03-07T09:49:46Z</time>
      </trkpt>
      <trkpt lat="46.5805" lon="5.48148">
        <ele>457</ele>
        <time>2022-03-07T09:49:47Z</time>
      </trkpt>
      <trkpt lat="46.58051" lon="5.48152">
        <ele>457</ele>
        <time>2022-03-07T09:49:48Z</time>
      </trkpt>
      <trkpt lat="46.5805" lon="5.48155">
        <ele>457.2</ele>
        <time>2022-03-07T09:49:49Z</time>
      </trkpt>
      <trkpt lat="46.58051" lon="5.48158">
        <ele>457.2</ele>
        <time>2022-03-07T09:49:50Z</time>
      </trkpt>
      <trkpt lat="46.58051" lon="5.48162">
        <ele>457.6</ele>
        <time>2022-03-07T09:49:51Z</time>
      </trkpt>
      <trkpt lat="46.58051" lon="5.48165">
        <ele>457.6</ele>
        <time>2022-03-07T09:49:52Z</time>
      </trkpt>
      <trkpt lat="46.5805" lon="5.48168">
        <ele>457.8</ele>
        <time>2022-03-07T09:49:53Z</time>
      </trkpt>
      <trkpt lat="46.5805" lon="5.48171">
        <ele>458</ele>
        <time>2022-03-07T09:49:54Z</time>
      </trkpt>
      <trkpt lat="46.58049" lon="5.48175">
        <ele>458</ele>
        <time>2022-03-07T09:49:55Z</time>
      </trkpt>
      <trkpt lat="46.58049" lon="5.48178">
        <ele>458.4</ele>
        <time>2022-03-07T09:49:56Z</time>
      </trkpt>
      <trkpt lat="46.58048" lon="5.48181">
        <ele>458.4</ele>
        <time>2022-03-07T09:49:57Z</time>
      </trkpt>
      <trkpt lat="46.58048" lon="5.48185">
        <ele>458.8</ele>
        <time>2022-03-07T09:49:58Z</time>
      </trkpt>
      <trkpt lat="46.58048" lon="5.48187">
        <ele>458.8</ele>
        <time>2022-03-07T09:49:59Z</time>
      </trkpt>
      <trkpt lat="46.58048" lon="5.4819">
        <ele>459</ele>
        <time>2022-03-07T09:50:00Z</time>
      </trkpt>
      <trkpt lat="46.58047" lon="5.48193">
        <ele>459</ele>
        <time>2022-03-07T09:50:01Z</time>
      </trkpt>
      <trkpt lat="46.58047" lon="5.48196">
        <ele>459.4</ele>
        <time>2022-03-07T09:50:02Z</time>
      </trkpt>
      <trkpt lat="46.58046" lon="5.48199">
        <ele>459.6</ele>
        <time>2022-03-07T09:50:03Z</time>
      </trkpt>
      <trkpt lat="46.58045" lon="5.48202">
        <ele>459.8</ele>
        <time>2022-03-07T09:50:04Z</time>
      </trkpt>
      <trkpt lat="46.58044" lon="5.48205">
        <ele>459.8</ele>
        <time>2022-03-07T09:50:05Z</time>
      </trkpt>
      <trkpt lat="46.58044" lon="5.48208">
        <ele>460.2</ele>
        <time>2022-03-07T09:50:06Z</time>
      </trkpt>
      <trkpt lat="46.58043" lon="5.48211">
        <ele>460.4</ele>
        <time>2022-03-07T09:50:07Z</time>
      </trkpt>
      <trkpt lat="46.58042" lon="5.48214">
        <ele>460.4</ele>
        <time>2022-03-07T09:50:08Z</time>
      </trkpt>
      <trkpt lat="46.58041" lon="5.48217">
        <ele>460.8</ele>
        <time>2022-03-07T09:50:09Z</time>
      </trkpt>
      <trkpt lat="46.58041" lon="5.4822">
        <ele>461</ele>
        <time>2022-03-07T09:50:10Z</time>
      </trkpt>
      <trkpt lat="46.5804" lon="5.48223">
        <ele>461</ele>
        <time>2022-03-07T09:50:11Z</time>
      </trkpt>
      <trkpt lat="46.5804" lon="5.48225">
        <ele>461.2</ele>
        <time>2022-03-07T09:50:12Z</time>
      </trkpt>
      <trkpt lat="46.58039" lon="5.48228">
        <ele>461.2</ele>
        <time>2022-03-07T09:50:13Z</time>
      </trkpt>
      <trkpt lat="46.58039" lon="5.4823">
        <ele>461.6</ele>
        <time>2022-03-07T09:50:14Z</time>
      </trkpt>
      <trkpt lat="46.58038" lon="5.48232">
        <ele>461.6</ele>
        <time>2022-03-07T09:50:15Z</time>
      </trkpt>
      <trkpt lat="46.58037" lon="5.48234">
        <ele>461.8</ele>
        <time>2022-03-07T09:50:16Z</time>
      </trkpt>
      <trkpt lat="46.58036" lon="5.48236">
        <ele>461.8</ele>
        <time>2022-03-07T09:50:17Z</time>
      </trkpt>
      <trkpt lat="46.58036" lon="5.48238">
        <ele>462.2</ele>
        <time>2022-03-07T09:50:18Z</time>
      </trkpt>
      <trkpt lat="46.58035" lon="5.48241">
        <ele>462.4</ele>
        <time>2022-03-07T09:50:19Z</time>
      </trkpt>
      <trkpt lat="46.58033" lon="5.48244">
        <ele>462.6</ele>
        <time>2022-03-07T09:50:20Z</time>
      </trkpt>
      <trkpt lat="46.58032" lon="5.48246">
        <ele>462.8</ele>
        <time>2022-03-07T09:50:21Z</time>
      </trkpt>
      <trkpt lat="46.5803" lon="5.48249">
        <ele>462.8</ele>
        <time>2022-03-07T09:50:22Z</time>
      </trkpt>
      <trkpt lat="46.58028" lon="5.48252">
        <ele>463.2</ele>
        <time>2022-03-07T09:50:23Z</time>
      </trkpt>
      <trkpt lat="46.58026" lon="5.48254">
        <ele>463.2</ele>
        <time>2022-03-07T09:50:24Z</time>
      </trkpt>
      <trkpt lat="46.58024" lon="5.48257">
        <ele>463.6</ele>
        <time>2022-03-07T09:50:25Z</time>
      </trkpt>
      <trkpt lat="46.58022" lon="5.4826">
        <ele>463.6</ele>
        <time>2022-03-07T09:50:26Z</time>
      </trkpt>
      <trkpt lat="46.5802" lon="5.48263">
        <ele>464</ele>
        <time>2022-03-07T09:50:27Z</time>
      </trkpt>
      <trkpt lat="46.58018" lon="5.48266">
        <ele>464</ele>
        <time>2022-03-07T09:50:28Z</time>
      </trkpt>
      <trkpt lat="46.58016" lon="5.48269">
        <ele>464.4</ele>
        <time>2022-03-07T09:50:29Z</time>
      </trkpt>
      <trkpt lat="46.58014" lon="5.48271">
        <ele>464.4</ele>
        <time>2022-03-07T09:50:30Z</time>
      </trkpt>
      <trkpt lat="46.58012" lon="5.48274">
        <ele>464.6</ele>
        <time>2022-03-07T09:50:31Z</time>
      </trkpt>
      <trkpt lat="46.58011" lon="5.48276">
        <ele>464.8</ele>
        <time>2022-03-07T09:50:32Z</time>
      </trkpt>
      <trkpt lat="46.5801" lon="5.48279">
        <ele>464.8</ele>
        <time>2022-03-07T09:50:33Z</time>
      </trkpt>
      <trkpt lat="46.58008" lon="5.48282">
        <ele>465.2</ele>
        <time>2022-03-07T09:50:34Z</time>
      </trkpt>
      <trkpt lat="46.58007" lon="5.48285">
        <ele>465.2</ele>
        <time>2022-03-07T09:50:35Z</time>
      </trkpt>
      <trkpt lat="46.58005" lon="5.48288">
        <ele>465.4</ele>
        <time>2022-03-07T09:50:36Z</time>
      </trkpt>
      <trkpt lat="46.58005" lon="5.48292">
        <ele>465.4</ele>
        <time>2022-03-07T09:50:37Z</time>
      </trkpt>
      <trkpt lat="46.58005" lon="5.48296">
        <ele>465.8</ele>
        <time>2022-03-07T09:50:38Z</time>
      </trkpt>
      <trkpt lat="46.58004" lon="5.48299">
        <ele>465.8</ele>
        <time>2022-03-07T09:50:39Z</time>
      </trkpt>
      <trkpt lat="46.58004" lon="5.48303">
        <ele>466</ele>
        <time>2022-03-07T09:50:40Z</time>
      </trkpt>
      <trkpt lat="46.58004" lon="5.48307">
        <ele>466.4</ele>
        <time>2022-03-07T09:50:41Z</time>
      </trkpt>
      <trkpt lat="46.58004" lon="5.48311">
        <ele>466.4</ele>
        <time>2022-03-07T09:50:42Z</time>
      </trkpt>
      <trkpt lat="46.58005" lon="5.48315">
        <ele>466.6</ele>
        <time>2022-03-07T09:50:43Z</time>
      </trkpt>
      <trkpt lat="46.58005" lon="5.48318">
        <ele>466.6</ele>
        <time>2022-03-07T09:50:44Z</time>
      </trkpt>
      <trkpt lat="46.58006" lon="5.48322">
        <ele>466.6</ele>
        <time>2022-03-07T09:50:45Z</time>
      </trkpt>
      <trkpt lat="46.58007" lon="5.48326">
        <ele>466.8</ele>
        <time>2022-03-07T09:50:46Z</time>
      </trkpt>
      <trkpt lat="46.58008" lon="5.4833">
        <ele>466.8</ele>
        <time>2022-03-07T09:50:47Z</time>
      </trkpt>
      <trkpt lat="46.58008" lon="5.48334">
        <ele>466.8</ele>
        <time>2022-03-07T09:50:48Z</time>
      </trkpt>
      <trkpt lat="46.58009" lon="5.48338">
        <ele>467.2</ele>
        <time>2022-03-07T09:50:49Z</time>
      </trkpt>
      <trkpt lat="46.5801" lon="5.48341">
        <ele>467.2</ele>
        <time>2022-03-07T09:50:50Z</time>
      </trkpt>
      <trkpt lat="46.58011" lon="5.48345">
        <ele>467.4</ele>
        <time>2022-03-07T09:50:51Z</time>
      </trkpt>
      <trkpt lat="46.58012" lon="5.48348">
        <ele>467.4</ele>
        <time>2022-03-07T09:50:52Z</time>
      </trkpt>
      <trkpt lat="46.58013" lon="5.48351">
        <ele>467.6</ele>
        <time>2022-03-07T09:50:53Z</time>
      </trkpt>
      <trkpt lat="46.58014" lon="5.48354">
        <ele>467.6</ele>
        <time>2022-03-07T09:50:54Z</time>
      </trkpt>
      <trkpt lat="46.58015" lon="5.48357">
        <ele>467.8</ele>
        <time>2022-03-07T09:50:55Z</time>
      </trkpt>
      <trkpt lat="46.58016" lon="5.4836">
        <ele>467.8</ele>
        <time>2022-03-07T09:50:56Z</time>
      </trkpt>
      <trkpt lat="46.58016" lon="5.48363">
        <ele>468.2</ele>
        <time>2022-03-07T09:50:57Z</time>
      </trkpt>
      <trkpt lat="46.58016" lon="5.48367">
        <ele>468.2</ele>
        <time>2022-03-07T09:50:58Z</time>
      </trkpt>
      <trkpt lat="46.58017" lon="5.4837">
        <ele>468.2</ele>
        <time>2022-03-07T09:50:59Z</time>
      </trkpt>
      <trkpt lat="46.58017" lon="5.48373">
        <ele>468.6</ele>
        <time>2022-03-07T09:51:00Z</time>
      </trkpt>
      <trkpt lat="46.58016" lon="5.48375">
        <ele>468.6</ele>
        <time>2022-03-07T09:51:01Z</time>
      </trkpt>
      <trkpt lat="46.58017" lon="5.48377">
        <ele>468.6</ele>
        <time>2022-03-07T09:51:02Z</time>
      </trkpt>
      <trkpt lat="46.58017" lon="5.4838">
        <ele>468.8</ele>
        <time>2022-03-07T09:51:03Z</time>
      </trkpt>
      <trkpt lat="46.58016" lon="5.48383">
        <ele>468.8</ele>
        <time>2022-03-07T09:51:04Z</time>
      </trkpt>
      <trkpt lat="46.58016" lon="5.48386">
        <ele>469</ele>
        <time>2022-03-07T09:51:05Z</time>
      </trkpt>
      <trkpt lat="46.58016" lon="5.4839">
        <ele>469</ele>
        <time>2022-03-07T09:51:06Z</time>
      </trkpt>
      <trkpt lat="46.58015" lon="5.48393">
        <ele>469.2</ele>
        <time>2022-03-07T09:51:07Z</time>
      </trkpt>
      <trkpt lat="46.58015" lon="5.48397">
        <ele>469.2</ele>
        <time>2022-03-07T09:51:08Z</time>
      </trkpt>
      <trkpt lat="46.58015" lon="5.484">
        <ele>469.6</ele>
        <time>2022-03-07T09:51:09Z</time>
      </trkpt>
      <trkpt lat="46.58014" lon="5.48403">
        <ele>469.6</ele>
        <time>2022-03-07T09:51:10Z</time>
      </trkpt>
      <trkpt lat="46.58014" lon="5.48405">
        <ele>469.6</ele>
        <time>2022-03-07T09:51:11Z</time>
      </trkpt>
      <trkpt lat="46.58013" lon="5.48408">
        <ele>469.8</ele>
        <time>2022-03-07T09:51:12Z</time>
      </trkpt>
      <trkpt lat="46.58013" lon="5.48411">
        <ele>469.8</ele>
        <time>2022-03-07T09:51:13Z</time>
      </trkpt>
      <trkpt lat="46.58012" lon="5.48414">
        <ele>470.2</ele>
        <time>2022-03-07T09:51:14Z</time>
      </trkpt>
      <trkpt lat="46.58011" lon="5.48417">
        <ele>470.4</ele>
        <time>2022-03-07T09:51:15Z</time>
      </trkpt>
      <trkpt lat="46.58009" lon="5.4842">
        <ele>470.4</ele>
        <time>2022-03-07T09:51:16Z</time>
      </trkpt>
      <trkpt lat="46.58009" lon="5.48423">
        <ele>470.6</ele>
        <time>2022-03-07T09:51:17Z</time>
      </trkpt>
      <trkpt lat="46.58008" lon="5.48425">
        <ele>470.8</ele>
        <time>2022-03-07T09:51:18Z</time>
      </trkpt>
      <trkpt lat="46.58007" lon="5.48428">
        <ele>471</ele>
        <time>2022-03-07T09:51:19Z</time>
      </trkpt>
      <trkpt lat="46.58005" lon="5.48431">
        <ele>471.2</ele>
        <time>2022-03-07T09:51:20Z</time>
      </trkpt>
      <trkpt lat="46.58003" lon="5.48434">
        <ele>471.2</ele>
        <time>2022-03-07T09:51:21Z</time>
      </trkpt>
      <trkpt lat="46.58001" lon="5.48436">
        <ele>471.4</ele>
        <time>2022-03-07T09:51:22Z</time>
      </trkpt>
      <trkpt lat="46.57999" lon="5.48438">
        <ele>471.4</ele>
        <time>2022-03-07T09:51:23Z</time>
      </trkpt>
      <trkpt lat="46.57997" lon="5.4844">
        <ele>471.8</ele>
        <time>2022-03-07T09:51:24Z</time>
      </trkpt>
      <trkpt lat="46.57995" lon="5.48442">
        <ele>471.8</ele>
        <time>2022-03-07T09:51:25Z</time>
      </trkpt>
      <trkpt lat="46.57993" lon="5.48444">
        <ele>472</ele>
        <time>2022-03-07T09:51:26Z</time>
      </trkpt>
      <trkpt lat="46.57992" lon="5.48445">
        <ele>472</ele>
        <time>2022-03-07T09:51:27Z</time>
      </trkpt>
      <trkpt lat="46.5799" lon="5.48446">
        <ele>472.2</ele>
        <time>2022-03-07T09:51:28Z</time>
      </trkpt>
      <trkpt lat="46.57989" lon="5.48447">
        <ele>472.2</ele>
        <time>2022-03-07T09:51:29Z</time>
      </trkpt>
      <trkpt lat="46.57987" lon="5.48448">
        <ele>472.6</ele>
        <time>2022-03-07T09:51:30Z</time>
      </trkpt>
      <trkpt lat="46.57984" lon="5.4845">
        <ele>472.6</ele>
        <time>2022-03-07T09:51:31Z</time>
      </trkpt>
      <trkpt lat="46.57981" lon="5.4845">
        <ele>473</ele>
        <time>2022-03-07T09:51:32Z</time>
      </trkpt>
      <trkpt lat="46.57979" lon="5.48451">
        <ele>473.2</ele>
        <time>2022-03-07T09:51:33Z</time>
      </trkpt>
      <trkpt lat="46.57976" lon="5.48452">
        <ele>473.2</ele>
        <time>2022-03-07T09:51:34Z</time>
      </trkpt>
      <trkpt lat="46.57974" lon="5.48452">
        <ele>473.6</ele>
        <time>2022-03-07T09:51:35Z</time>
      </trkpt>
      <trkpt lat="46.57971" lon="5.48452">
        <ele>473.8</ele>
        <time>2022-03-07T09:51:36Z</time>
      </trkpt>
      <trkpt lat="46.57968" lon="5.48452">
        <ele>473.8</ele>
        <time>2022-03-07T09:51:37Z</time>
      </trkpt>
      <trkpt lat="46.57966" lon="5.48453">
        <ele>474.2</ele>
        <time>2022-03-07T09:51:38Z</time>
      </trkpt>
      <trkpt lat="46.57963" lon="5.48453">
        <ele>474.2</ele>
        <time>2022-03-07T09:51:39Z</time>
      </trkpt>
      <trkpt lat="46.5796" lon="5.48453">
        <ele>474.4</ele>
        <time>2022-03-07T09:51:40Z</time>
      </trkpt>
      <trkpt lat="46.57958" lon="5.48452">
        <ele>474.4</ele>
        <time>2022-03-07T09:51:41Z</time>
      </trkpt>
      <trkpt lat="46.57955" lon="5.48453">
        <ele>474.4</ele>
        <time>2022-03-07T09:51:42Z</time>
      </trkpt>
      <trkpt lat="46.57953" lon="5.48452">
        <ele>474.6</ele>
        <time>2022-03-07T09:51:43Z</time>
      </trkpt>
      <trkpt lat="46.57951" lon="5.48452">
        <ele>474.6</ele>
        <time>2022-03-07T09:51:44Z</time>
      </trkpt>
      <trkpt lat="46.57948" lon="5.48452">
        <ele>475</ele>
        <time>2022-03-07T09:51:45Z</time>
      </trkpt>
      <trkpt lat="46.57946" lon="5.48452">
        <ele>475</ele>
        <time>2022-03-07T09:51:46Z</time>
      </trkpt>
      <trkpt lat="46.57944" lon="5.48452">
        <ele>475.2</ele>
        <time>2022-03-07T09:51:47Z</time>
      </trkpt>
      <trkpt lat="46.57941" lon="5.48452">
        <ele>475.2</ele>
        <time>2022-03-07T09:51:48Z</time>
      </trkpt>
      <trkpt lat="46.57939" lon="5.48452">
        <ele>475.2</ele>
        <time>2022-03-07T09:51:49Z</time>
      </trkpt>
      <trkpt lat="46.57937" lon="5.48453">
        <ele>475.6</ele>
        <time>2022-03-07T09:51:50Z</time>
      </trkpt>
      <trkpt lat="46.57935" lon="5.48452">
        <ele>475.6</ele>
        <time>2022-03-07T09:51:51Z</time>
      </trkpt>
      <trkpt lat="46.57933" lon="5.48452">
        <ele>475.6</ele>
        <time>2022-03-07T09:51:52Z</time>
      </trkpt>
      <trkpt lat="46.57931" lon="5.48451">
        <ele>475.8</ele>
        <time>2022-03-07T09:51:53Z</time>
      </trkpt>
      <trkpt lat="46.57929" lon="5.48451">
        <ele>476</ele>
        <time>2022-03-07T09:51:54Z</time>
      </trkpt>
      <trkpt lat="46.57927" lon="5.48451">
        <ele>476</ele>
        <time>2022-03-07T09:51:55Z</time>
      </trkpt>
      <trkpt lat="46.57925" lon="5.48451">
        <ele>476.4</ele>
        <time>2022-03-07T09:51:56Z</time>
      </trkpt>
      <trkpt lat="46.57923" lon="5.4845">
        <ele>476.4</ele>
        <time>2022-03-07T09:51:57Z</time>
      </trkpt>
      <trkpt lat="46.57921" lon="5.4845">
        <ele>476.6</ele>
        <time>2022-03-07T09:51:58Z</time>
      </trkpt>
      <trkpt lat="46.57919" lon="5.4845">
        <ele>476.6</ele>
        <time>2022-03-07T09:51:59Z</time>
      </trkpt>
      <trkpt lat="46.57917" lon="5.4845">
        <ele>476.8</ele>
        <time>2022-03-07T09:52:00Z</time>
      </trkpt>
      <trkpt lat="46.57915" lon="5.4845">
        <ele>476.8</ele>
        <time>2022-03-07T09:52:01Z</time>
      </trkpt>
      <trkpt lat="46.57913" lon="5.48449">
        <ele>477.2</ele>
        <time>2022-03-07T09:52:02Z</time>
      </trkpt>
      <trkpt lat="46.57911" lon="5.48449">
        <ele>477.2</ele>
        <time>2022-03-07T09:52:03Z</time>
      </trkpt>
      <trkpt lat="46.57908" lon="5.48448">
        <ele>477.4</ele>
        <time>2022-03-07T09:52:04Z</time>
      </trkpt>
      <trkpt lat="46.57905" lon="5.48448">
        <ele>477.4</ele>
        <time>2022-03-07T09:52:05Z</time>
      </trkpt>
      <trkpt lat="46.57902" lon="5.48448">
        <ele>477.4</ele>
        <time>2022-03-07T09:52:06Z</time>
      </trkpt>
      <trkpt lat="46.57899" lon="5.48448">
        <ele>477.8</ele>
        <time>2022-03-07T09:52:07Z</time>
      </trkpt>
      <trkpt lat="46.57896" lon="5.48447">
        <ele>477.8</ele>
        <time>2022-03-07T09:52:08Z</time>
      </trkpt>
      <trkpt lat="46.57894" lon="5.48447">
        <ele>478</ele>
        <time>2022-03-07T09:52:09Z</time>
      </trkpt>
      <trkpt lat="46.57891" lon="5.48446">
        <ele>478</ele>
        <time>2022-03-07T09:52:10Z</time>
      </trkpt>
      <trkpt lat="46.57889" lon="5.48445">
        <ele>478.4</ele>
        <time>2022-03-07T09:52:11Z</time>
      </trkpt>
      <trkpt lat="46.57887" lon="5.48444">
        <ele>478.4</ele>
        <time>2022-03-07T09:52:12Z</time>
      </trkpt>
      <trkpt lat="46.57884" lon="5.48443">
        <ele>478.8</ele>
        <time>2022-03-07T09:52:13Z</time>
      </trkpt>
      <trkpt lat="46.57882" lon="5.48443">
        <ele>478.8</ele>
        <time>2022-03-07T09:52:14Z</time>
      </trkpt>
      <trkpt lat="46.5788" lon="5.48443">
        <ele>479.2</ele>
        <time>2022-03-07T09:52:15Z</time>
      </trkpt>
      <trkpt lat="46.57878" lon="5.48442">
        <ele>479.2</ele>
        <time>2022-03-07T09:52:16Z</time>
      </trkpt>
      <trkpt lat="46.57875" lon="5.48441">
        <ele>479.4</ele>
        <time>2022-03-07T09:52:17Z</time>
      </trkpt>
      <trkpt lat="46.57873" lon="5.48441">
        <ele>479.4</ele>
        <time>2022-03-07T09:52:18Z</time>
      </trkpt>
      <trkpt lat="46.5787" lon="5.48441">
        <ele>479.6</ele>
        <time>2022-03-07T09:52:19Z</time>
      </trkpt>
      <trkpt lat="46.57868" lon="5.48441">
        <ele>479.6</ele>
        <time>2022-03-07T09:52:20Z</time>
      </trkpt>
      <trkpt lat="46.57865" lon="5.48441">
        <ele>479.8</ele>
        <time>2022-03-07T09:52:21Z</time>
      </trkpt>
      <trkpt lat="46.57862" lon="5.4844">
        <ele>479.8</ele>
        <time>2022-03-07T09:52:22Z</time>
      </trkpt>
      <trkpt lat="46.5786" lon="5.4844">
        <ele>480.2</ele>
        <time>2022-03-07T09:52:23Z</time>
      </trkpt>
      <trkpt lat="46.57857" lon="5.4844">
        <ele>480.2</ele>
        <time>2022-03-07T09:52:24Z</time>
      </trkpt>
      <trkpt lat="46.57855" lon="5.4844">
        <ele>480.4</ele>
        <time>2022-03-07T09:52:25Z</time>
      </trkpt>
      <trkpt lat="46.57852" lon="5.48441">
        <ele>480.4</ele>
        <time>2022-03-07T09:52:26Z</time>
      </trkpt>
      <trkpt lat="46.5785" lon="5.48442">
        <ele>480.6</ele>
        <time>2022-03-07T09:52:27Z</time>
      </trkpt>
      <trkpt lat="46.57848" lon="5.48443">
        <ele>480.6</ele>
        <time>2022-03-07T09:52:28Z</time>
      </trkpt>
      <trkpt lat="46.57845" lon="5.48443">
        <ele>481</ele>
        <time>2022-03-07T09:52:29Z</time>
      </trkpt>
      <trkpt lat="46.57843" lon="5.48444">
        <ele>481</ele>
        <time>2022-03-07T09:52:30Z</time>
      </trkpt>
      <trkpt lat="46.57841" lon="5.48444">
        <ele>481.4</ele>
        <time>2022-03-07T09:52:31Z</time>
      </trkpt>
      <trkpt lat="46.57838" lon="5.48445">
        <ele>481.4</ele>
        <time>2022-03-07T09:52:32Z</time>
      </trkpt>
      <trkpt lat="46.57836" lon="5.48446">
        <ele>481.6</ele>
        <time>2022-03-07T09:52:33Z</time>
      </trkpt>
      <trkpt lat="46.57834" lon="5.48447">
        <ele>481.6</ele>
        <time>2022-03-07T09:52:34Z</time>
      </trkpt>
      <trkpt lat="46.57832" lon="5.48449">
        <ele>482</ele>
        <time>2022-03-07T09:52:35Z</time>
      </trkpt>
      <trkpt lat="46.5783" lon="5.48451">
        <ele>482</ele>
        <time>2022-03-07T09:52:36Z</time>
      </trkpt>
      <trkpt lat="46.57829" lon="5.48453">
        <ele>482.2</ele>
        <time>2022-03-07T09:52:37Z</time>
      </trkpt>
      <trkpt lat="46.57827" lon="5.48454">
        <ele>482.2</ele>
        <time>2022-03-07T09:52:38Z</time>
      </trkpt>
      <trkpt lat="46.57827" lon="5.48454">
        <ele>482.4</ele>
        <time>2022-03-07T09:52:39Z</time>
      </trkpt>
      <trkpt lat="46.57827" lon="5.48454">
        <ele>482.4</ele>
        <time>2022-03-07T09:52:40Z</time>
      </trkpt>
      <trkpt lat="46.57826" lon="5.48455">
        <ele>482.6</ele>
        <time>2022-03-07T09:52:41Z</time>
      </trkpt>
      <trkpt lat="46.57826" lon="5.48455">
        <ele>482.6</ele>
        <time>2022-03-07T09:52:42Z</time>
      </trkpt>
      <trkpt lat="46.57825" lon="5.48455">
        <ele>482.6</ele>
        <time>2022-03-07T09:52:43Z</time>
      </trkpt>
      <trkpt lat="46.57825" lon="5.48455">
        <ele>482.6</ele>
        <time>2022-03-07T09:52:45Z</time>
      </trkpt>
      <trkpt lat="46.57825" lon="5.48455">
        <ele>483</ele>
        <time>2022-03-07T09:52:46Z</time>
      </trkpt>
      <trkpt lat="46.57824" lon="5.48455">
        <ele>483</ele>
        <time>2022-03-07T09:52:47Z</time>
      </trkpt>
      <trkpt lat="46.57824" lon="5.48456">
        <ele>483</ele>
        <time>2022-03-07T09:52:48Z</time>
      </trkpt>
      <trkpt lat="46.57824" lon="5.48456">
        <ele>483</ele>
        <time>2022-03-07T09:52:49Z</time>
      </trkpt>
      <trkpt lat="46.57823" lon="5.48456">
        <ele>483</ele>
        <time>2022-03-07T09:52:51Z</time>
      </trkpt>
      <trkpt lat="46.57823" lon="5.48456">
        <ele>483</ele>
        <time>2022-03-07T09:52:52Z</time>
      </trkpt>
      <trkpt lat="46.57823" lon="5.48456">
        <ele>483</ele>
        <time>2022-03-07T09:53:13Z</time>
      </trkpt>
      <trkpt lat="46.57822" lon="5.48456">
        <ele>483</ele>
        <time>2022-03-07T09:53:14Z</time>
      </trkpt>
      <trkpt lat="46.57822" lon="5.48457">
        <ele>483</ele>
        <time>2022-03-07T09:53:15Z</time>
      </trkpt>
      <trkpt lat="46.57822" lon="5.48457">
        <ele>483</ele>
        <time>2022-03-07T09:53:16Z</time>
      </trkpt>
      <trkpt lat="46.57821" lon="5.48457">
        <ele>483</ele>
        <time>2022-03-07T09:53:17Z</time>
      </trkpt>
      <trkpt lat="46.5782" lon="5.48457">
        <ele>483</ele>
        <time>2022-03-07T09:53:18Z</time>
      </trkpt>
      <trkpt lat="46.57818" lon="5.48457">
        <ele>483</ele>
        <time>2022-03-07T09:53:19Z</time>
      </trkpt>
      <trkpt lat="46.57815" lon="5.48456">
        <ele>483</ele>
        <time>2022-03-07T09:53:20Z</time>
      </trkpt>
      <trkpt lat="46.57813" lon="5.48455">
        <ele>482.6</ele>
        <time>2022-03-07T09:53:21Z</time>
      </trkpt>
      <trkpt lat="46.57811" lon="5.48452">
        <ele>482.6</ele>
        <time>2022-03-07T09:53:22Z</time>
      </trkpt>
      <trkpt lat="46.57809" lon="5.48449">
        <ele>482.4</ele>
        <time>2022-03-07T09:53:23Z</time>
      </trkpt>
      <trkpt lat="46.57807" lon="5.48445">
        <ele>482.4</ele>
        <time>2022-03-07T09:53:24Z</time>
      </trkpt>
      <trkpt lat="46.57804" lon="5.48442">
        <ele>482.2</ele>
        <time>2022-03-07T09:53:25Z</time>
      </trkpt>
      <trkpt lat="46.57802" lon="5.48438">
        <ele>482.2</ele>
        <time>2022-03-07T09:53:26Z</time>
      </trkpt>
      <trkpt lat="46.57798" lon="5.48434">
        <ele>481.8</ele>
        <time>2022-03-07T09:53:27Z</time>
      </trkpt>
      <trkpt lat="46.57795" lon="5.4843">
        <ele>481.4</ele>
        <time>2022-03-07T09:53:28Z</time>
      </trkpt>
      <trkpt lat="46.57792" lon="5.48425">
        <ele>481.2</ele>
        <time>2022-03-07T09:53:29Z</time>
      </trkpt>
      <trkpt lat="46.57788" lon="5.4842">
        <ele>480.8</ele>
        <time>2022-03-07T09:53:30Z</time>
      </trkpt>
      <trkpt lat="46.57785" lon="5.48414">
        <ele>480.4</ele>
        <time>2022-03-07T09:53:31Z</time>
      </trkpt>
      <trkpt lat="46.57781" lon="5.48409">
        <ele>480.2</ele>
        <time>2022-03-07T09:53:32Z</time>
      </trkpt>
      <trkpt lat="46.57777" lon="5.48403">
        <ele>479.8</ele>
        <time>2022-03-07T09:53:33Z</time>
      </trkpt>
      <trkpt lat="46.57772" lon="5.48396">
        <ele>479.4</ele>
        <time>2022-03-07T09:53:34Z</time>
      </trkpt>
      <trkpt lat="46.57767" lon="5.4839">
        <ele>479.2</ele>
        <time>2022-03-07T09:53:35Z</time>
      </trkpt>
      <trkpt lat="46.57761" lon="5.48384">
        <ele>478.8</ele>
        <time>2022-03-07T09:53:36Z</time>
      </trkpt>
      <trkpt lat="46.57755" lon="5.48378">
        <ele>478.6</ele>
        <time>2022-03-07T09:53:37Z</time>
      </trkpt>
      <trkpt lat="46.57749" lon="5.48372">
        <ele>478.6</ele>
        <time>2022-03-07T09:53:38Z</time>
      </trkpt>
      <trkpt lat="46.57744" lon="5.48367">
        <ele>478.2</ele>
        <time>2022-03-07T09:53:39Z</time>
      </trkpt>
      <trkpt lat="46.57738" lon="5.4836">
        <ele>478</ele>
        <time>2022-03-07T09:53:40Z</time>
      </trkpt>
      <trkpt lat="46.57733" lon="5.48353">
        <ele>477.6</ele>
        <time>2022-03-07T09:53:41Z</time>
      </trkpt>
      <trkpt lat="46.57727" lon="5.48346">
        <ele>477.4</ele>
        <time>2022-03-07T09:53:42Z</time>
      </trkpt>
      <trkpt lat="46.57723" lon="5.48338">
        <ele>477.2</ele>
        <time>2022-03-07T09:53:43Z</time>
      </trkpt>
      <trkpt lat="46.57717" lon="5.4833">
        <ele>477.2</ele>
        <time>2022-03-07T09:53:44Z</time>
      </trkpt>
      <trkpt lat="46.57712" lon="5.48322">
        <ele>476.8</ele>
        <time>2022-03-07T09:53:45Z</time>
      </trkpt>
      <trkpt lat="46.57706" lon="5.48313">
        <ele>476.8</ele>
        <time>2022-03-07T09:53:46Z</time>
      </trkpt>
      <trkpt lat="46.57701" lon="5.48305">
        <ele>476.4</ele>
        <time>2022-03-07T09:53:47Z</time>
      </trkpt>
      <trkpt lat="46.57696" lon="5.48298">
        <ele>476</ele>
        <time>2022-03-07T09:53:48Z</time>
      </trkpt>
      <trkpt lat="46.57691" lon="5.4829">
        <ele>476</ele>
        <time>2022-03-07T09:53:49Z</time>
      </trkpt>
      <trkpt lat="46.57686" lon="5.48282">
        <ele>475.8</ele>
        <time>2022-03-07T09:53:50Z</time>
      </trkpt>
      <trkpt lat="46.57681" lon="5.48275">
        <ele>475.8</ele>
        <time>2022-03-07T09:53:51Z</time>
      </trkpt>
      <trkpt lat="46.57677" lon="5.48268">
        <ele>475.8</ele>
        <time>2022-03-07T09:53:52Z</time>
      </trkpt>
      <trkpt lat="46.57672" lon="5.48261">
        <ele>475.4</ele>
        <time>2022-03-07T09:53:53Z</time>
      </trkpt>
      <trkpt lat="46.57668" lon="5.48255">
        <ele>475.4</ele>
        <time>2022-03-07T09:53:54Z</time>
      </trkpt>
      <trkpt lat="46.57664" lon="5.48249">
        <ele>475.2</ele>
        <time>2022-03-07T09:53:55Z</time>
      </trkpt>
      <trkpt lat="46.5766" lon="5.48243">
        <ele>475.2</ele>
        <time>2022-03-07T09:53:56Z</time>
      </trkpt>
      <trkpt lat="46.57657" lon="5.48237">
        <ele>474.8</ele>
        <time>2022-03-07T09:53:57Z</time>
      </trkpt>
      <trkpt lat="46.57653" lon="5.48231">
        <ele>474.8</ele>
        <time>2022-03-07T09:53:58Z</time>
      </trkpt>
      <trkpt lat="46.57649" lon="5.48225">
        <ele>474.8</ele>
        <time>2022-03-07T09:53:59Z</time>
      </trkpt>
      <trkpt lat="46.57646" lon="5.48219">
        <ele>474.8</ele>
        <time>2022-03-07T09:54:00Z</time>
      </trkpt>
      <trkpt lat="46.57642" lon="5.48214">
        <ele>474.6</ele>
        <time>2022-03-07T09:54:01Z</time>
      </trkpt>
      <trkpt lat="46.57638" lon="5.48209">
        <ele>474.6</ele>
        <time>2022-03-07T09:54:02Z</time>
      </trkpt>
      <trkpt lat="46.57635" lon="5.48203">
        <ele>474.6</ele>
        <time>2022-03-07T09:54:03Z</time>
      </trkpt>
      <trkpt lat="46.57631" lon="5.48197">
        <ele>474.4</ele>
        <time>2022-03-07T09:54:04Z</time>
      </trkpt>
      <trkpt lat="46.57627" lon="5.48192">
        <ele>474.4</ele>
        <time>2022-03-07T09:54:05Z</time>
      </trkpt>
      <trkpt lat="46.57624" lon="5.48187">
        <ele>474.4</ele>
        <time>2022-03-07T09:54:06Z</time>
      </trkpt>
      <trkpt lat="46.5762" lon="5.48181">
        <ele>474.4</ele>
        <time>2022-03-07T09:54:07Z</time>
      </trkpt>
      <trkpt lat="46.57616" lon="5.48176">
        <ele>474</ele>
        <time>2022-03-07T09:54:08Z</time>
      </trkpt>
      <trkpt lat="46.57612" lon="5.48171">
        <ele>474</ele>
        <time>2022-03-07T09:54:09Z</time>
      </trkpt>
      <trkpt lat="46.57608" lon="5.48166">
        <ele>474</ele>
        <time>2022-03-07T09:54:10Z</time>
      </trkpt>
      <trkpt lat="46.57604" lon="5.48161">
        <ele>473.8</ele>
        <time>2022-03-07T09:54:11Z</time>
      </trkpt>
      <trkpt lat="46.57601" lon="5.48155">
        <ele>473.8</ele>
        <time>2022-03-07T09:54:12Z</time>
      </trkpt>
      <trkpt lat="46.57597" lon="5.4815">
        <ele>473.8</ele>
        <time>2022-03-07T09:54:13Z</time>
      </trkpt>
      <trkpt lat="46.57593" lon="5.48146">
        <ele>473.8</ele>
        <time>2022-03-07T09:54:14Z</time>
      </trkpt>
      <trkpt lat="46.5759" lon="5.48141">
        <ele>473.8</ele>
        <time>2022-03-07T09:54:15Z</time>
      </trkpt>
      <trkpt lat="46.57588" lon="5.48139">
        <ele>473.4</ele>
        <time>2022-03-07T09:54:16Z</time>
      </trkpt>
      <trkpt lat="46.57586" lon="5.48137">
        <ele>473.4</ele>
        <time>2022-03-07T09:54:17Z</time>
      </trkpt>
      <trkpt lat="46.57583" lon="5.48131">
        <ele>473.2</ele>
        <time>2022-03-07T09:54:18Z</time>
      </trkpt>
      <trkpt lat="46.57579" lon="5.48126">
        <ele>473.2</ele>
        <time>2022-03-07T09:54:19Z</time>
      </trkpt>
      <trkpt lat="46.57574" lon="5.48121">
        <ele>473</ele>
        <time>2022-03-07T09:54:20Z</time>
      </trkpt>
      <trkpt lat="46.5757" lon="5.48116">
        <ele>473</ele>
        <time>2022-03-07T09:54:21Z</time>
      </trkpt>
      <trkpt lat="46.57565" lon="5.4811">
        <ele>472.8</ele>
        <time>2022-03-07T09:54:22Z</time>
      </trkpt>
      <trkpt lat="46.5756" lon="5.48105">
        <ele>472.8</ele>
        <time>2022-03-07T09:54:23Z</time>
      </trkpt>
      <trkpt lat="46.57556" lon="5.481">
        <ele>472.4</ele>
        <time>2022-03-07T09:54:24Z</time>
      </trkpt>
      <trkpt lat="46.57551" lon="5.48093">
        <ele>472.4</ele>
        <time>2022-03-07T09:54:25Z</time>
      </trkpt>
      <trkpt lat="46.57546" lon="5.48087">
        <ele>472.2</ele>
        <time>2022-03-07T09:54:26Z</time>
      </trkpt>
      <trkpt lat="46.57542" lon="5.4808">
        <ele>472</ele>
        <time>2022-03-07T09:54:27Z</time>
      </trkpt>
      <trkpt lat="46.57537" lon="5.48074">
        <ele>472</ele>
        <time>2022-03-07T09:54:28Z</time>
      </trkpt>
      <trkpt lat="46.57532" lon="5.48067">
        <ele>471.6</ele>
        <time>2022-03-07T09:54:29Z</time>
      </trkpt>
      <trkpt lat="46.57528" lon="5.48061">
        <ele>471.6</ele>
        <time>2022-03-07T09:54:30Z</time>
      </trkpt>
      <trkpt lat="46.57524" lon="5.48055">
        <ele>471.6</ele>
        <time>2022-03-07T09:54:31Z</time>
      </trkpt>
      <trkpt lat="46.5752" lon="5.48049">
        <ele>471.4</ele>
        <time>2022-03-07T09:54:32Z</time>
      </trkpt>
      <trkpt lat="46.57516" lon="5.48042">
        <ele>471.4</ele>
        <time>2022-03-07T09:54:33Z</time>
      </trkpt>
      <trkpt lat="46.57511" lon="5.48035">
        <ele>471</ele>
        <time>2022-03-07T09:54:34Z</time>
      </trkpt>
      <trkpt lat="46.57507" lon="5.48029">
        <ele>471</ele>
        <time>2022-03-07T09:54:35Z</time>
      </trkpt>
      <trkpt lat="46.57503" lon="5.48023">
        <ele>471</ele>
        <time>2022-03-07T09:54:36Z</time>
      </trkpt>
      <trkpt lat="46.57499" lon="5.48018">
        <ele>470.8</ele>
        <time>2022-03-07T09:54:37Z</time>
      </trkpt>
      <trkpt lat="46.57494" lon="5.48013">
        <ele>470.8</ele>
        <time>2022-03-07T09:54:38Z</time>
      </trkpt>
      <trkpt lat="46.5749" lon="5.48007">
        <ele>470.8</ele>
        <time>2022-03-07T09:54:39Z</time>
      </trkpt>
      <trkpt lat="46.57486" lon="5.48002">
        <ele>470.8</ele>
        <time>2022-03-07T09:54:40Z</time>
      </trkpt>
      <trkpt lat="46.57481" lon="5.47998">
        <ele>470.8</ele>
        <time>2022-03-07T09:54:41Z</time>
      </trkpt>
      <trkpt lat="46.57476" lon="5.47992">
        <ele>470.8</ele>
        <time>2022-03-07T09:54:42Z</time>
      </trkpt>
      <trkpt lat="46.57471" lon="5.47988">
        <ele>470.8</ele>
        <time>2022-03-07T09:54:43Z</time>
      </trkpt>
      <trkpt lat="46.57465" lon="5.47983">
        <ele>470.6</ele>
        <time>2022-03-07T09:54:44Z</time>
      </trkpt>
      <trkpt lat="46.5746" lon="5.47979">
        <ele>470.6</ele>
        <time>2022-03-07T09:54:45Z</time>
      </trkpt>
      <trkpt lat="46.57455" lon="5.47975">
        <ele>470.6</ele>
        <time>2022-03-07T09:54:46Z</time>
      </trkpt>
      <trkpt lat="46.57449" lon="5.47972">
        <ele>470.4</ele>
        <time>2022-03-07T09:54:47Z</time>
      </trkpt>
      <trkpt lat="46.57444" lon="5.47969">
        <ele>470.4</ele>
        <time>2022-03-07T09:54:48Z</time>
      </trkpt>
      <trkpt lat="46.57438" lon="5.47966">
        <ele>470.4</ele>
        <time>2022-03-07T09:54:49Z</time>
      </trkpt>
      <trkpt lat="46.57434" lon="5.47963">
        <ele>470.4</ele>
        <time>2022-03-07T09:54:50Z</time>
      </trkpt>
      <trkpt lat="46.57429" lon="5.47961">
        <ele>470.4</ele>
        <time>2022-03-07T09:54:51Z</time>
      </trkpt>
      <trkpt lat="46.57425" lon="5.47959">
        <ele>470.4</ele>
        <time>2022-03-07T09:54:52Z</time>
      </trkpt>
      <trkpt lat="46.57421" lon="5.47956">
        <ele>470.2</ele>
        <time>2022-03-07T09:54:53Z</time>
      </trkpt>
      <trkpt lat="46.57416" lon="5.47952">
        <ele>470.2</ele>
        <time>2022-03-07T09:54:54Z</time>
      </trkpt>
      <trkpt lat="46.57412" lon="5.47947">
        <ele>470.2</ele>
        <time>2022-03-07T09:54:55Z</time>
      </trkpt>
      <trkpt lat="46.57407" lon="5.47944">
        <ele>469.6</ele>
        <time>2022-03-07T09:54:56Z</time>
      </trkpt>
      <trkpt lat="46.57402" lon="5.47941">
        <ele>469.4</ele>
        <time>2022-03-07T09:54:57Z</time>
      </trkpt>
      <trkpt lat="46.57397" lon="5.47936">
        <ele>469.4</ele>
        <time>2022-03-07T09:54:58Z</time>
      </trkpt>
      <trkpt lat="46.57392" lon="5.47932">
        <ele>469.4</ele>
        <time>2022-03-07T09:54:59Z</time>
      </trkpt>
      <trkpt lat="46.57387" lon="5.47927">
        <ele>469.2</ele>
        <time>2022-03-07T09:55:00Z</time>
      </trkpt>
      <trkpt lat="46.57383" lon="5.47924">
        <ele>469.2</ele>
        <time>2022-03-07T09:55:01Z</time>
      </trkpt>
      <trkpt lat="46.57377" lon="5.4792">
        <ele>469.2</ele>
        <time>2022-03-07T09:55:02Z</time>
      </trkpt>
      <trkpt lat="46.57371" lon="5.47917">
        <ele>469.2</ele>
        <time>2022-03-07T09:55:03Z</time>
      </trkpt>
      <trkpt lat="46.57364" lon="5.47915">
        <ele>469.2</ele>
        <time>2022-03-07T09:55:04Z</time>
      </trkpt>
      <trkpt lat="46.57357" lon="5.47914">
        <ele>469.2</ele>
        <time>2022-03-07T09:55:05Z</time>
      </trkpt>
      <trkpt lat="46.57351" lon="5.47912">
        <ele>469</ele>
        <time>2022-03-07T09:55:06Z</time>
      </trkpt>
      <trkpt lat="46.57344" lon="5.4791">
        <ele>469</ele>
        <time>2022-03-07T09:55:07Z</time>
      </trkpt>
      <trkpt lat="46.57338" lon="5.47909">
        <ele>468.8</ele>
        <time>2022-03-07T09:55:08Z</time>
      </trkpt>
      <trkpt lat="46.57333" lon="5.47908">
        <ele>468.8</ele>
        <time>2022-03-07T09:55:09Z</time>
      </trkpt>
      <trkpt lat="46.57328" lon="5.47908">
        <ele>468.8</ele>
        <time>2022-03-07T09:55:10Z</time>
      </trkpt>
      <trkpt lat="46.57323" lon="5.47909">
        <ele>468.8</ele>
        <time>2022-03-07T09:55:11Z</time>
      </trkpt>
      <trkpt lat="46.57318" lon="5.47909">
        <ele>468.8</ele>
        <time>2022-03-07T09:55:12Z</time>
      </trkpt>
      <trkpt lat="46.57312" lon="5.47909">
        <ele>468.8</ele>
        <time>2022-03-07T09:55:13Z</time>
      </trkpt>
      <trkpt lat="46.57307" lon="5.47908">
        <ele>469</ele>
        <time>2022-03-07T09:55:14Z</time>
      </trkpt>
      <trkpt lat="46.57302" lon="5.47908">
        <ele>469</ele>
        <time>2022-03-07T09:55:15Z</time>
      </trkpt>
      <trkpt lat="46.57297" lon="5.47908">
        <ele>469</ele>
        <time>2022-03-07T09:55:16Z</time>
      </trkpt>
      <trkpt lat="46.57292" lon="5.47909">
        <ele>469.2</ele>
        <time>2022-03-07T09:55:17Z</time>
      </trkpt>
      <trkpt lat="46.57287" lon="5.4791">
        <ele>469.2</ele>
        <time>2022-03-07T09:55:18Z</time>
      </trkpt>
      <trkpt lat="46.57282" lon="5.4791">
        <ele>469.2</ele>
        <time>2022-03-07T09:55:19Z</time>
      </trkpt>
      <trkpt lat="46.57278" lon="5.4791">
        <ele>469.6</ele>
        <time>2022-03-07T09:55:20Z</time>
      </trkpt>
      <trkpt lat="46.57273" lon="5.4791">
        <ele>469.6</ele>
        <time>2022-03-07T09:55:21Z</time>
      </trkpt>
      <trkpt lat="46.57269" lon="5.4791">
        <ele>469.8</ele>
        <time>2022-03-07T09:55:22Z</time>
      </trkpt>
      <trkpt lat="46.57265" lon="5.4791">
        <ele>469.8</ele>
        <time>2022-03-07T09:55:23Z</time>
      </trkpt>
      <trkpt lat="46.57261" lon="5.4791">
        <ele>470.2</ele>
        <time>2022-03-07T09:55:24Z</time>
      </trkpt>
      <trkpt lat="46.57258" lon="5.47911">
        <ele>470.2</ele>
        <time>2022-03-07T09:55:25Z</time>
      </trkpt>
      <trkpt lat="46.57254" lon="5.47911">
        <ele>470.2</ele>
        <time>2022-03-07T09:55:26Z</time>
      </trkpt>
      <trkpt lat="46.5725" lon="5.47912">
        <ele>470.6</ele>
        <time>2022-03-07T09:55:27Z</time>
      </trkpt>
      <trkpt lat="46.57247" lon="5.47912">
        <ele>470.6</ele>
        <time>2022-03-07T09:55:28Z</time>
      </trkpt>
      <trkpt lat="46.57243" lon="5.47913">
        <ele>470.8</ele>
        <time>2022-03-07T09:55:29Z</time>
      </trkpt>
      <trkpt lat="46.57239" lon="5.47914">
        <ele>470.8</ele>
        <time>2022-03-07T09:55:30Z</time>
      </trkpt>
      <trkpt lat="46.57235" lon="5.47914">
        <ele>471</ele>
        <time>2022-03-07T09:55:31Z</time>
      </trkpt>
      <trkpt lat="46.57231" lon="5.47914">
        <ele>471</ele>
        <time>2022-03-07T09:55:32Z</time>
      </trkpt>
      <trkpt lat="46.57228" lon="5.47914">
        <ele>471</ele>
        <time>2022-03-07T09:55:33Z</time>
      </trkpt>
      <trkpt lat="46.57224" lon="5.47914">
        <ele>471.2</ele>
        <time>2022-03-07T09:55:34Z</time>
      </trkpt>
      <trkpt lat="46.5722" lon="5.47915">
        <ele>471.2</ele>
        <time>2022-03-07T09:55:35Z</time>
      </trkpt>
      <trkpt lat="46.57216" lon="5.47915">
        <ele>471.6</ele>
        <time>2022-03-07T09:55:36Z</time>
      </trkpt>
      <trkpt lat="46.57212" lon="5.47915">
        <ele>471.6</ele>
        <time>2022-03-07T09:55:37Z</time>
      </trkpt>
      <trkpt lat="46.57209" lon="5.47915">
        <ele>471.6</ele>
        <time>2022-03-07T09:55:38Z</time>
      </trkpt>
      <trkpt lat="46.57206" lon="5.47915">
        <ele>471.6</ele>
        <time>2022-03-07T09:55:39Z</time>
      </trkpt>
      <trkpt lat="46.57202" lon="5.47915">
        <ele>471.8</ele>
        <time>2022-03-07T09:55:40Z</time>
      </trkpt>
      <trkpt lat="46.57199" lon="5.47914">
        <ele>471.8</ele>
        <time>2022-03-07T09:55:41Z</time>
      </trkpt>
      <trkpt lat="46.57196" lon="5.47914">
        <ele>472.2</ele>
        <time>2022-03-07T09:55:42Z</time>
      </trkpt>
      <trkpt lat="46.57192" lon="5.47913">
        <ele>472.2</ele>
        <time>2022-03-07T09:55:43Z</time>
      </trkpt>
      <trkpt lat="46.57189" lon="5.47912">
        <ele>472.2</ele>
        <time>2022-03-07T09:55:44Z</time>
      </trkpt>
      <trkpt lat="46.57186" lon="5.47911">
        <ele>472.4</ele>
        <time>2022-03-07T09:55:45Z</time>
      </trkpt>
      <trkpt lat="46.57183" lon="5.47911">
        <ele>472.4</ele>
        <time>2022-03-07T09:55:46Z</time>
      </trkpt>
      <trkpt lat="46.5718" lon="5.47909">
        <ele>472.6</ele>
        <time>2022-03-07T09:55:47Z</time>
      </trkpt>
      <trkpt lat="46.57177" lon="5.47908">
        <ele>472.6</ele>
        <time>2022-03-07T09:55:48Z</time>
      </trkpt>
      <trkpt lat="46.57174" lon="5.47906">
        <ele>473</ele>
        <time>2022-03-07T09:55:49Z</time>
      </trkpt>
      <trkpt lat="46.57172" lon="5.47904">
        <ele>473</ele>
        <time>2022-03-07T09:55:50Z</time>
      </trkpt>
      <trkpt lat="46.57169" lon="5.47902">
        <ele>473.2</ele>
        <time>2022-03-07T09:55:51Z</time>
      </trkpt>
      <trkpt lat="46.57166" lon="5.47901">
        <ele>473.2</ele>
        <time>2022-03-07T09:55:52Z</time>
      </trkpt>
      <trkpt lat="46.57164" lon="5.47899">
        <ele>473.6</ele>
        <time>2022-03-07T09:55:53Z</time>
      </trkpt>
      <trkpt lat="46.57161" lon="5.47897">
        <ele>473.8</ele>
        <time>2022-03-07T09:55:54Z</time>
      </trkpt>
      <trkpt lat="46.57158" lon="5.47895">
        <ele>474.2</ele>
        <time>2022-03-07T09:55:55Z</time>
      </trkpt>
      <trkpt lat="46.57156" lon="5.47893">
        <ele>474.2</ele>
        <time>2022-03-07T09:55:56Z</time>
      </trkpt>
      <trkpt lat="46.57153" lon="5.4789">
        <ele>474.4</ele>
        <time>2022-03-07T09:55:57Z</time>
      </trkpt>
      <trkpt lat="46.57151" lon="5.47888">
        <ele>474.4</ele>
        <time>2022-03-07T09:55:58Z</time>
      </trkpt>
      <trkpt lat="46.57149" lon="5.47886">
        <ele>474.8</ele>
        <time>2022-03-07T09:55:59Z</time>
      </trkpt>
      <trkpt lat="46.57147" lon="5.47883">
        <ele>474.8</ele>
        <time>2022-03-07T09:56:00Z</time>
      </trkpt>
      <trkpt lat="46.57145" lon="5.47881">
        <ele>475</ele>
        <time>2022-03-07T09:56:01Z</time>
      </trkpt>
      <trkpt lat="46.57143" lon="5.47878">
        <ele>475.2</ele>
        <time>2022-03-07T09:56:02Z</time>
      </trkpt>
      <trkpt lat="46.57141" lon="5.47876">
        <ele>475.2</ele>
        <time>2022-03-07T09:56:03Z</time>
      </trkpt>
      <trkpt lat="46.57139" lon="5.47875">
        <ele>475.6</ele>
        <time>2022-03-07T09:56:04Z</time>
      </trkpt>
      <trkpt lat="46.57137" lon="5.47873">
        <ele>475.6</ele>
        <time>2022-03-07T09:56:05Z</time>
      </trkpt>
      <trkpt lat="46.57135" lon="5.47871">
        <ele>475.8</ele>
        <time>2022-03-07T09:56:06Z</time>
      </trkpt>
      <trkpt lat="46.57133" lon="5.4787">
        <ele>475.8</ele>
        <time>2022-03-07T09:56:07Z</time>
      </trkpt>
      <trkpt lat="46.57131" lon="5.47868">
        <ele>476</ele>
        <time>2022-03-07T09:56:08Z</time>
      </trkpt>
      <trkpt lat="46.57129" lon="5.47866">
        <ele>476</ele>
        <time>2022-03-07T09:56:09Z</time>
      </trkpt>
      <trkpt lat="46.57127" lon="5.47864">
        <ele>476</ele>
        <time>2022-03-07T09:56:10Z</time>
      </trkpt>
      <trkpt lat="46.57125" lon="5.47862">
        <ele>476.4</ele>
        <time>2022-03-07T09:56:11Z</time>
      </trkpt>
      <trkpt lat="46.57123" lon="5.4786">
        <ele>476.4</ele>
        <time>2022-03-07T09:56:12Z</time>
      </trkpt>
      <trkpt lat="46.57121" lon="5.47858">
        <ele>476.6</ele>
        <time>2022-03-07T09:56:13Z</time>
      </trkpt>
      <trkpt lat="46.57119" lon="5.47856">
        <ele>476.6</ele>
        <time>2022-03-07T09:56:14Z</time>
      </trkpt>
      <trkpt lat="46.57116" lon="5.47855">
        <ele>476.6</ele>
        <time>2022-03-07T09:56:15Z</time>
      </trkpt>
      <trkpt lat="46.57114" lon="5.47853">
        <ele>476.8</ele>
        <time>2022-03-07T09:56:16Z</time>
      </trkpt>
      <trkpt lat="46.57112" lon="5.47851">
        <ele>476.8</ele>
        <time>2022-03-07T09:56:17Z</time>
      </trkpt>
      <trkpt lat="46.5711" lon="5.4785">
        <ele>477.2</ele>
        <time>2022-03-07T09:56:18Z</time>
      </trkpt>
      <trkpt lat="46.57108" lon="5.47848">
        <ele>477.2</ele>
        <time>2022-03-07T09:56:19Z</time>
      </trkpt>
      <trkpt lat="46.57105" lon="5.47847">
        <ele>477.2</ele>
        <time>2022-03-07T09:56:20Z</time>
      </trkpt>
      <trkpt lat="46.57103" lon="5.47845">
        <ele>477.4</ele>
        <time>2022-03-07T09:56:21Z</time>
      </trkpt>
      <trkpt lat="46.57101" lon="5.47844">
        <ele>477.4</ele>
        <time>2022-03-07T09:56:22Z</time>
      </trkpt>
      <trkpt lat="46.57099" lon="5.47843">
        <ele>477.4</ele>
        <time>2022-03-07T09:56:23Z</time>
      </trkpt>
      <trkpt lat="46.57096" lon="5.47841">
        <ele>477.6</ele>
        <time>2022-03-07T09:56:24Z</time>
      </trkpt>
      <trkpt lat="46.57094" lon="5.4784">
        <ele>477.6</ele>
        <time>2022-03-07T09:56:25Z</time>
      </trkpt>
      <trkpt lat="46.57092" lon="5.47839">
        <ele>477.6</ele>
        <time>2022-03-07T09:56:26Z</time>
      </trkpt>
      <trkpt lat="46.57089" lon="5.47837">
        <ele>478</ele>
        <time>2022-03-07T09:56:27Z</time>
      </trkpt>
      <trkpt lat="46.57087" lon="5.47835">
        <ele>478</ele>
        <time>2022-03-07T09:56:28Z</time>
      </trkpt>
      <trkpt lat="46.57085" lon="5.47834">
        <ele>478</ele>
        <time>2022-03-07T09:56:29Z</time>
      </trkpt>
      <trkpt lat="46.57082" lon="5.47832">
        <ele>478.2</ele>
        <time>2022-03-07T09:56:30Z</time>
      </trkpt>
      <trkpt lat="46.5708" lon="5.4783">
        <ele>478.2</ele>
        <time>2022-03-07T09:56:31Z</time>
      </trkpt>
      <trkpt lat="46.57078" lon="5.47829">
        <ele>478.2</ele>
        <time>2022-03-07T09:56:32Z</time>
      </trkpt>
      <trkpt lat="46.57075" lon="5.47828">
        <ele>478.6</ele>
        <time>2022-03-07T09:56:33Z</time>
      </trkpt>
      <trkpt lat="46.57073" lon="5.47827">
        <ele>478.6</ele>
        <time>2022-03-07T09:56:34Z</time>
      </trkpt>
      <trkpt lat="46.5707" lon="5.47825">
        <ele>478.6</ele>
        <time>2022-03-07T09:56:35Z</time>
      </trkpt>
      <trkpt lat="46.57068" lon="5.47823">
        <ele>478.8</ele>
        <time>2022-03-07T09:56:36Z</time>
      </trkpt>
      <trkpt lat="46.57066" lon="5.47822">
        <ele>478.8</ele>
        <time>2022-03-07T09:56:37Z</time>
      </trkpt>
      <trkpt lat="46.57064" lon="5.4782">
        <ele>479</ele>
        <time>2022-03-07T09:56:38Z</time>
      </trkpt>
      <trkpt lat="46.57061" lon="5.47819">
        <ele>479</ele>
        <time>2022-03-07T09:56:39Z</time>
      </trkpt>
      <trkpt lat="46.57059" lon="5.47818">
        <ele>479</ele>
        <time>2022-03-07T09:56:40Z</time>
      </trkpt>
      <trkpt lat="46.57057" lon="5.47817">
        <ele>479.4</ele>
        <time>2022-03-07T09:56:41Z</time>
      </trkpt>
      <trkpt lat="46.57054" lon="5.47816">
        <ele>479.4</ele>
        <time>2022-03-07T09:56:42Z</time>
      </trkpt>
      <trkpt lat="46.57052" lon="5.47815">
        <ele>479.6</ele>
        <time>2022-03-07T09:56:43Z</time>
      </trkpt>
      <trkpt lat="46.5705" lon="5.47813">
        <ele>479.6</ele>
        <time>2022-03-07T09:56:44Z</time>
      </trkpt>
      <trkpt lat="46.57047" lon="5.47812">
        <ele>479.6</ele>
        <time>2022-03-07T09:56:45Z</time>
      </trkpt>
      <trkpt lat="46.57045" lon="5.47811">
        <ele>480</ele>
        <time>2022-03-07T09:56:46Z</time>
      </trkpt>
      <trkpt lat="46.57043" lon="5.47811">
        <ele>480</ele>
        <time>2022-03-07T09:56:47Z</time>
      </trkpt>
      <trkpt lat="46.5704" lon="5.4781">
        <ele>480.2</ele>
        <time>2022-03-07T09:56:48Z</time>
      </trkpt>
      <trkpt lat="46.57038" lon="5.47808">
        <ele>480.2</ele>
        <time>2022-03-07T09:56:49Z</time>
      </trkpt>
      <trkpt lat="46.57036" lon="5.47807">
        <ele>480.2</ele>
        <time>2022-03-07T09:56:50Z</time>
      </trkpt>
      <trkpt lat="46.57033" lon="5.47806">
        <ele>480.6</ele>
        <time>2022-03-07T09:56:51Z</time>
      </trkpt>
      <trkpt lat="46.57031" lon="5.47806">
        <ele>480.6</ele>
        <time>2022-03-07T09:56:52Z</time>
      </trkpt>
      <trkpt lat="46.57029" lon="5.47805">
        <ele>480.8</ele>
        <time>2022-03-07T09:56:53Z</time>
      </trkpt>
      <trkpt lat="46.57026" lon="5.47805">
        <ele>480.8</ele>
        <time>2022-03-07T09:56:54Z</time>
      </trkpt>
      <trkpt lat="46.57024" lon="5.47804">
        <ele>481</ele>
        <time>2022-03-07T09:56:55Z</time>
      </trkpt>
      <trkpt lat="46.57022" lon="5.47804">
        <ele>481</ele>
        <time>2022-03-07T09:56:56Z</time>
      </trkpt>
      <trkpt lat="46.57019" lon="5.47803">
        <ele>481.2</ele>
        <time>2022-03-07T09:56:57Z</time>
      </trkpt>
      <trkpt lat="46.57017" lon="5.47803">
        <ele>481.2</ele>
        <time>2022-03-07T09:56:58Z</time>
      </trkpt>
      <trkpt lat="46.57014" lon="5.47803">
        <ele>481.2</ele>
        <time>2022-03-07T09:56:59Z</time>
      </trkpt>
      <trkpt lat="46.57012" lon="5.47802">
        <ele>481.6</ele>
        <time>2022-03-07T09:57:00Z</time>
      </trkpt>
      <trkpt lat="46.5701" lon="5.47802">
        <ele>481.6</ele>
        <time>2022-03-07T09:57:01Z</time>
      </trkpt>
      <trkpt lat="46.57007" lon="5.47803">
        <ele>481.6</ele>
        <time>2022-03-07T09:57:02Z</time>
      </trkpt>
      <trkpt lat="46.57005" lon="5.47803">
        <ele>481.8</ele>
        <time>2022-03-07T09:57:03Z</time>
      </trkpt>
      <trkpt lat="46.57003" lon="5.47803">
        <ele>481.8</ele>
        <time>2022-03-07T09:57:04Z</time>
      </trkpt>
      <trkpt lat="46.57" lon="5.47804">
        <ele>481.8</ele>
        <time>2022-03-07T09:57:05Z</time>
      </trkpt>
      <trkpt lat="46.56998" lon="5.47805">
        <ele>482</ele>
        <time>2022-03-07T09:57:06Z</time>
      </trkpt>
      <trkpt lat="46.56996" lon="5.47805">
        <ele>482</ele>
        <time>2022-03-07T09:57:07Z</time>
      </trkpt>
      <trkpt lat="46.56994" lon="5.47805">
        <ele>482.4</ele>
        <time>2022-03-07T09:57:08Z</time>
      </trkpt>
      <trkpt lat="46.56992" lon="5.47806">
        <ele>482.4</ele>
        <time>2022-03-07T09:57:09Z</time>
      </trkpt>
      <trkpt lat="46.5699" lon="5.47806">
        <ele>482.6</ele>
        <time>2022-03-07T09:57:10Z</time>
      </trkpt>
      <trkpt lat="46.56988" lon="5.47806">
        <ele>482.6</ele>
        <time>2022-03-07T09:57:11Z</time>
      </trkpt>
      <trkpt lat="46.56985" lon="5.47806">
        <ele>483</ele>
        <time>2022-03-07T09:57:12Z</time>
      </trkpt>
      <trkpt lat="46.56983" lon="5.47806">
        <ele>483</ele>
        <time>2022-03-07T09:57:13Z</time>
      </trkpt>
      <trkpt lat="46.56981" lon="5.47806">
        <ele>483.4</ele>
        <time>2022-03-07T09:57:14Z</time>
      </trkpt>
      <trkpt lat="46.56979" lon="5.47807">
        <ele>483.4</ele>
        <time>2022-03-07T09:57:15Z</time>
      </trkpt>
      <trkpt lat="46.56978" lon="5.47807">
        <ele>483.8</ele>
        <time>2022-03-07T09:57:16Z</time>
      </trkpt>
      <trkpt lat="46.56976" lon="5.47808">
        <ele>484</ele>
        <time>2022-03-07T09:57:17Z</time>
      </trkpt>
      <trkpt lat="46.56974" lon="5.47808">
        <ele>484.2</ele>
        <time>2022-03-07T09:57:18Z</time>
      </trkpt>
      <trkpt lat="46.56972" lon="5.47808">
        <ele>484.2</ele>
        <time>2022-03-07T09:57:19Z</time>
      </trkpt>
      <trkpt lat="46.5697" lon="5.47808">
        <ele>484.6</ele>
        <time>2022-03-07T09:57:20Z</time>
      </trkpt>
      <trkpt lat="46.56968" lon="5.47807">
        <ele>484.6</ele>
        <time>2022-03-07T09:57:21Z</time>
      </trkpt>
      <trkpt lat="46.56966" lon="5.47806">
        <ele>485</ele>
        <time>2022-03-07T09:57:22Z</time>
      </trkpt>
      <trkpt lat="46.56964" lon="5.47806">
        <ele>485</ele>
        <time>2022-03-07T09:57:23Z</time>
      </trkpt>
      <trkpt lat="46.56961" lon="5.47805">
        <ele>485.2</ele>
        <time>2022-03-07T09:57:24Z</time>
      </trkpt>
      <trkpt lat="46.56959" lon="5.47805">
        <ele>485.2</ele>
        <time>2022-03-07T09:57:25Z</time>
      </trkpt>
      <trkpt lat="46.56957" lon="5.47804">
        <ele>485.2</ele>
        <time>2022-03-07T09:57:26Z</time>
      </trkpt>
      <trkpt lat="46.56954" lon="5.47804">
        <ele>485.6</ele>
        <time>2022-03-07T09:57:27Z</time>
      </trkpt>
      <trkpt lat="46.56952" lon="5.47804">
        <ele>485.6</ele>
        <time>2022-03-07T09:57:28Z</time>
      </trkpt>
      <trkpt lat="46.5695" lon="5.47804">
        <ele>485.8</ele>
        <time>2022-03-07T09:57:29Z</time>
      </trkpt>
      <trkpt lat="46.56947" lon="5.47804">
        <ele>485.8</ele>
        <time>2022-03-07T09:57:30Z</time>
      </trkpt>
      <trkpt lat="46.56945" lon="5.47804">
        <ele>486</ele>
        <time>2022-03-07T09:57:31Z</time>
      </trkpt>
      <trkpt lat="46.56943" lon="5.47804">
        <ele>486</ele>
        <time>2022-03-07T09:57:32Z</time>
      </trkpt>
      <trkpt lat="46.56941" lon="5.47803">
        <ele>486.4</ele>
        <time>2022-03-07T09:57:33Z</time>
      </trkpt>
      <trkpt lat="46.56938" lon="5.47803">
        <ele>486.4</ele>
        <time>2022-03-07T09:57:34Z</time>
      </trkpt>
      <trkpt lat="46.56936" lon="5.47803">
        <ele>486.6</ele>
        <time>2022-03-07T09:57:35Z</time>
      </trkpt>
      <trkpt lat="46.56934" lon="5.47802">
        <ele>486.6</ele>
        <time>2022-03-07T09:57:36Z</time>
      </trkpt>
      <trkpt lat="46.56932" lon="5.47801">
        <ele>486.6</ele>
        <time>2022-03-07T09:57:37Z</time>
      </trkpt>
      <trkpt lat="46.56929" lon="5.478">
        <ele>487</ele>
        <time>2022-03-07T09:57:38Z</time>
      </trkpt>
      <trkpt lat="46.56927" lon="5.47799">
        <ele>487</ele>
        <time>2022-03-07T09:57:39Z</time>
      </trkpt>
      <trkpt lat="46.56925" lon="5.47798">
        <ele>487.4</ele>
        <time>2022-03-07T09:57:40Z</time>
      </trkpt>
      <trkpt lat="46.56923" lon="5.47797">
        <ele>487.4</ele>
        <time>2022-03-07T09:57:41Z</time>
      </trkpt>
      <trkpt lat="46.56921" lon="5.47797">
        <ele>487.6</ele>
        <time>2022-03-07T09:57:42Z</time>
      </trkpt>
      <trkpt lat="46.56918" lon="5.47796">
        <ele>487.6</ele>
        <time>2022-03-07T09:57:43Z</time>
      </trkpt>
      <trkpt lat="46.56916" lon="5.47795">
        <ele>487.8</ele>
        <time>2022-03-07T09:57:44Z</time>
      </trkpt>
      <trkpt lat="46.56914" lon="5.47795">
        <ele>487.8</ele>
        <time>2022-03-07T09:57:45Z</time>
      </trkpt>
      <trkpt lat="46.56912" lon="5.47794">
        <ele>488</ele>
        <time>2022-03-07T09:57:46Z</time>
      </trkpt>
      <trkpt lat="46.56909" lon="5.47793">
        <ele>488</ele>
        <time>2022-03-07T09:57:47Z</time>
      </trkpt>
      <trkpt lat="46.56907" lon="5.47792">
        <ele>488.4</ele>
        <time>2022-03-07T09:57:48Z</time>
      </trkpt>
      <trkpt lat="46.56905" lon="5.47791">
        <ele>488.4</ele>
        <time>2022-03-07T09:57:49Z</time>
      </trkpt>
      <trkpt lat="46.56903" lon="5.4779">
        <ele>488.6</ele>
        <time>2022-03-07T09:57:50Z</time>
      </trkpt>
      <trkpt lat="46.569" lon="5.47789">
        <ele>488.6</ele>
        <time>2022-03-07T09:57:51Z</time>
      </trkpt>
      <trkpt lat="46.56898" lon="5.47788">
        <ele>489</ele>
        <time>2022-03-07T09:57:52Z</time>
      </trkpt>
      <trkpt lat="46.56895" lon="5.47787">
        <ele>489</ele>
        <time>2022-03-07T09:57:53Z</time>
      </trkpt>
      <trkpt lat="46.56893" lon="5.47785">
        <ele>489</ele>
        <time>2022-03-07T09:57:54Z</time>
      </trkpt>
      <trkpt lat="46.56891" lon="5.47784">
        <ele>489.2</ele>
        <time>2022-03-07T09:57:55Z</time>
      </trkpt>
      <trkpt lat="46.56889" lon="5.47783">
        <ele>489.2</ele>
        <time>2022-03-07T09:57:56Z</time>
      </trkpt>
      <trkpt lat="46.56887" lon="5.47781">
        <ele>489.2</ele>
        <time>2022-03-07T09:57:57Z</time>
      </trkpt>
      <trkpt lat="46.56884" lon="5.47779">
        <ele>489.2</ele>
        <time>2022-03-07T09:57:58Z</time>
      </trkpt>
      <trkpt lat="46.56882" lon="5.47777">
        <ele>489.2</ele>
        <time>2022-03-07T09:57:59Z</time>
      </trkpt>
      <trkpt lat="46.56879" lon="5.47776">
        <ele>489.4</ele>
        <time>2022-03-07T09:58:00Z</time>
      </trkpt>
      <trkpt lat="46.56876" lon="5.47774">
        <ele>489.4</ele>
        <time>2022-03-07T09:58:01Z</time>
      </trkpt>
      <trkpt lat="46.56874" lon="5.47772">
        <ele>489.4</ele>
        <time>2022-03-07T09:58:02Z</time>
      </trkpt>
      <trkpt lat="46.56872" lon="5.4777">
        <ele>489.4</ele>
        <time>2022-03-07T09:58:03Z</time>
      </trkpt>
      <trkpt lat="46.56869" lon="5.47768">
        <ele>489.8</ele>
        <time>2022-03-07T09:58:04Z</time>
      </trkpt>
      <trkpt lat="46.56867" lon="5.47766">
        <ele>489.8</ele>
        <time>2022-03-07T09:58:05Z</time>
      </trkpt>
      <trkpt lat="46.56864" lon="5.47764">
        <ele>490</ele>
        <time>2022-03-07T09:58:06Z</time>
      </trkpt>
      <trkpt lat="46.56862" lon="5.47762">
        <ele>490</ele>
        <time>2022-03-07T09:58:07Z</time>
      </trkpt>
      <trkpt lat="46.5686" lon="5.4776">
        <ele>490.2</ele>
        <time>2022-03-07T09:58:08Z</time>
      </trkpt>
      <trkpt lat="46.56858" lon="5.47758">
        <ele>490.2</ele>
        <time>2022-03-07T09:58:09Z</time>
      </trkpt>
      <trkpt lat="46.56855" lon="5.47756">
        <ele>490.4</ele>
        <time>2022-03-07T09:58:10Z</time>
      </trkpt>
      <trkpt lat="46.56853" lon="5.47755">
        <ele>490.4</ele>
        <time>2022-03-07T09:58:11Z</time>
      </trkpt>
      <trkpt lat="46.5685" lon="5.47753">
        <ele>490.6</ele>
        <time>2022-03-07T09:58:12Z</time>
      </trkpt>
      <trkpt lat="46.56848" lon="5.47751">
        <ele>490.6</ele>
        <time>2022-03-07T09:58:13Z</time>
      </trkpt>
      <trkpt lat="46.56846" lon="5.47749">
        <ele>490.6</ele>
        <time>2022-03-07T09:58:14Z</time>
      </trkpt>
      <trkpt lat="46.56844" lon="5.47747">
        <ele>491</ele>
        <time>2022-03-07T09:58:15Z</time>
      </trkpt>
      <trkpt lat="46.56842" lon="5.47745">
        <ele>491</ele>
        <time>2022-03-07T09:58:16Z</time>
      </trkpt>
      <trkpt lat="46.5684" lon="5.47743">
        <ele>491.4</ele>
        <time>2022-03-07T09:58:17Z</time>
      </trkpt>
      <trkpt lat="46.56837" lon="5.47741">
        <ele>491.4</ele>
        <time>2022-03-07T09:58:18Z</time>
      </trkpt>
      <trkpt lat="46.56835" lon="5.47739">
        <ele>491.4</ele>
        <time>2022-03-07T09:58:19Z</time>
      </trkpt>
      <trkpt lat="46.56832" lon="5.47737">
        <ele>491.8</ele>
        <time>2022-03-07T09:58:20Z</time>
      </trkpt>
      <trkpt lat="46.5683" lon="5.47736">
        <ele>491.8</ele>
        <time>2022-03-07T09:58:21Z</time>
      </trkpt>
      <trkpt lat="46.56828" lon="5.47734">
        <ele>492</ele>
        <time>2022-03-07T09:58:22Z</time>
      </trkpt>
      <trkpt lat="46.56826" lon="5.47732">
        <ele>492</ele>
        <time>2022-03-07T09:58:23Z</time>
      </trkpt>
      <trkpt lat="46.56824" lon="5.4773">
        <ele>492.2</ele>
        <time>2022-03-07T09:58:24Z</time>
      </trkpt>
      <trkpt lat="46.56821" lon="5.47727">
        <ele>492.2</ele>
        <time>2022-03-07T09:58:25Z</time>
      </trkpt>
      <trkpt lat="46.56819" lon="5.47725">
        <ele>492.4</ele>
        <time>2022-03-07T09:58:26Z</time>
      </trkpt>
      <trkpt lat="46.56817" lon="5.47723">
        <ele>492.4</ele>
        <time>2022-03-07T09:58:27Z</time>
      </trkpt>
      <trkpt lat="46.56815" lon="5.47721">
        <ele>492.6</ele>
        <time>2022-03-07T09:58:28Z</time>
      </trkpt>
      <trkpt lat="46.56813" lon="5.4772">
        <ele>492.6</ele>
        <time>2022-03-07T09:58:29Z</time>
      </trkpt>
      <trkpt lat="46.56811" lon="5.47718">
        <ele>493</ele>
        <time>2022-03-07T09:58:30Z</time>
      </trkpt>
      <trkpt lat="46.56809" lon="5.47717">
        <ele>493</ele>
        <time>2022-03-07T09:58:31Z</time>
      </trkpt>
      <trkpt lat="46.56807" lon="5.47715">
        <ele>493</ele>
        <time>2022-03-07T09:58:32Z</time>
      </trkpt>
      <trkpt lat="46.56804" lon="5.47713">
        <ele>493.2</ele>
        <time>2022-03-07T09:58:33Z</time>
      </trkpt>
      <trkpt lat="46.56802" lon="5.47712">
        <ele>493.2</ele>
        <time>2022-03-07T09:58:34Z</time>
      </trkpt>
      <trkpt lat="46.568" lon="5.4771">
        <ele>493.4</ele>
        <time>2022-03-07T09:58:35Z</time>
      </trkpt>
      <trkpt lat="46.56798" lon="5.47709">
        <ele>493.4</ele>
        <time>2022-03-07T09:58:36Z</time>
      </trkpt>
      <trkpt lat="46.56795" lon="5.47707">
        <ele>493.4</ele>
        <time>2022-03-07T09:58:37Z</time>
      </trkpt>
      <trkpt lat="46.56793" lon="5.47706">
        <ele>493.8</ele>
        <time>2022-03-07T09:58:38Z</time>
      </trkpt>
      <trkpt lat="46.56791" lon="5.47705">
        <ele>493.8</ele>
        <time>2022-03-07T09:58:39Z</time>
      </trkpt>
      <trkpt lat="46.56788" lon="5.47704">
        <ele>494</ele>
        <time>2022-03-07T09:58:40Z</time>
      </trkpt>
      <trkpt lat="46.56786" lon="5.47703">
        <ele>494</ele>
        <time>2022-03-07T09:58:41Z</time>
      </trkpt>
      <trkpt lat="46.56784" lon="5.47702">
        <ele>494</ele>
        <time>2022-03-07T09:58:42Z</time>
      </trkpt>
      <trkpt lat="46.56782" lon="5.477">
        <ele>494.4</ele>
        <time>2022-03-07T09:58:43Z</time>
      </trkpt>
      <trkpt lat="46.56779" lon="5.47699">
        <ele>494.4</ele>
        <time>2022-03-07T09:58:44Z</time>
      </trkpt>
      <trkpt lat="46.56777" lon="5.47697">
        <ele>494.6</ele>
        <time>2022-03-07T09:58:45Z</time>
      </trkpt>
      <trkpt lat="46.56775" lon="5.47696">
        <ele>494.6</ele>
        <time>2022-03-07T09:58:46Z</time>
      </trkpt>
      <trkpt lat="46.56772" lon="5.47695">
        <ele>495</ele>
        <time>2022-03-07T09:58:47Z</time>
      </trkpt>
      <trkpt lat="46.5677" lon="5.47693">
        <ele>495</ele>
        <time>2022-03-07T09:58:48Z</time>
      </trkpt>
      <trkpt lat="46.56767" lon="5.47692">
        <ele>495</ele>
        <time>2022-03-07T09:58:49Z</time>
      </trkpt>
      <trkpt lat="46.56765" lon="5.47691">
        <ele>495</ele>
        <time>2022-03-07T09:58:50Z</time>
      </trkpt>
      <trkpt lat="46.56763" lon="5.47689">
        <ele>495</ele>
        <time>2022-03-07T09:58:51Z</time>
      </trkpt>
      <trkpt lat="46.5676" lon="5.47688">
        <ele>495.2</ele>
        <time>2022-03-07T09:58:52Z</time>
      </trkpt>
      <trkpt lat="46.56758" lon="5.47688">
        <ele>495.2</ele>
        <time>2022-03-07T09:58:53Z</time>
      </trkpt>
      <trkpt lat="46.56755" lon="5.47686">
        <ele>495.2</ele>
        <time>2022-03-07T09:58:54Z</time>
      </trkpt>
      <trkpt lat="46.56753" lon="5.47685">
        <ele>495.6</ele>
        <time>2022-03-07T09:58:55Z</time>
      </trkpt>
      <trkpt lat="46.5675" lon="5.47683">
        <ele>495.6</ele>
        <time>2022-03-07T09:58:56Z</time>
      </trkpt>
      <trkpt lat="46.56748" lon="5.47682">
        <ele>495.6</ele>
        <time>2022-03-07T09:58:57Z</time>
      </trkpt>
      <trkpt lat="46.56746" lon="5.47681">
        <ele>495.8</ele>
        <time>2022-03-07T09:58:58Z</time>
      </trkpt>
      <trkpt lat="46.56743" lon="5.47679">
        <ele>495.8</ele>
        <time>2022-03-07T09:58:59Z</time>
      </trkpt>
      <trkpt lat="46.56741" lon="5.47678">
        <ele>496.2</ele>
        <time>2022-03-07T09:59:00Z</time>
      </trkpt>
      <trkpt lat="46.56739" lon="5.47677">
        <ele>496.2</ele>
        <time>2022-03-07T09:59:01Z</time>
      </trkpt>
      <trkpt lat="46.56736" lon="5.47676">
        <ele>496.4</ele>
        <time>2022-03-07T09:59:02Z</time>
      </trkpt>
      <trkpt lat="46.56734" lon="5.47674">
        <ele>496.4</ele>
        <time>2022-03-07T09:59:03Z</time>
      </trkpt>
      <trkpt lat="46.56732" lon="5.47672">
        <ele>496.8</ele>
        <time>2022-03-07T09:59:04Z</time>
      </trkpt>
      <trkpt lat="46.5673" lon="5.4767">
        <ele>496.8</ele>
        <time>2022-03-07T09:59:05Z</time>
      </trkpt>
      <trkpt lat="46.56728" lon="5.47669">
        <ele>497</ele>
        <time>2022-03-07T09:59:06Z</time>
      </trkpt>
      <trkpt lat="46.56726" lon="5.47667">
        <ele>497</ele>
        <time>2022-03-07T09:59:07Z</time>
      </trkpt>
      <trkpt lat="46.56723" lon="5.47665">
        <ele>497.4</ele>
        <time>2022-03-07T09:59:08Z</time>
      </trkpt>
      <trkpt lat="46.56721" lon="5.47664">
        <ele>497.6</ele>
        <time>2022-03-07T09:59:09Z</time>
      </trkpt>
      <trkpt lat="46.56718" lon="5.47663">
        <ele>497.8</ele>
        <time>2022-03-07T09:59:10Z</time>
      </trkpt>
      <trkpt lat="46.56716" lon="5.47661">
        <ele>497.8</ele>
        <time>2022-03-07T09:59:11Z</time>
      </trkpt>
      <trkpt lat="46.56713" lon="5.47659">
        <ele>498.2</ele>
        <time>2022-03-07T09:59:12Z</time>
      </trkpt>
      <trkpt lat="46.5671" lon="5.47657">
        <ele>498.2</ele>
        <time>2022-03-07T09:59:13Z</time>
      </trkpt>
      <trkpt lat="46.56708" lon="5.47655">
        <ele>498.4</ele>
        <time>2022-03-07T09:59:14Z</time>
      </trkpt>
      <trkpt lat="46.56705" lon="5.47654">
        <ele>498.4</ele>
        <time>2022-03-07T09:59:15Z</time>
      </trkpt>
      <trkpt lat="46.56702" lon="5.47652">
        <ele>498.6</ele>
        <time>2022-03-07T09:59:16Z</time>
      </trkpt>
      <trkpt lat="46.56699" lon="5.47651">
        <ele>498.6</ele>
        <time>2022-03-07T09:59:17Z</time>
      </trkpt>
      <trkpt lat="46.56697" lon="5.47649">
        <ele>498.6</ele>
        <time>2022-03-07T09:59:18Z</time>
      </trkpt>
      <trkpt lat="46.56694" lon="5.47648">
        <ele>499</ele>
        <time>2022-03-07T09:59:19Z</time>
      </trkpt>
      <trkpt lat="46.56692" lon="5.47646">
        <ele>499</ele>
        <time>2022-03-07T09:59:20Z</time>
      </trkpt>
      <trkpt lat="46.56689" lon="5.47644">
        <ele>499.2</ele>
        <time>2022-03-07T09:59:21Z</time>
      </trkpt>
      <trkpt lat="46.56687" lon="5.47643">
        <ele>499.2</ele>
        <time>2022-03-07T09:59:22Z</time>
      </trkpt>
      <trkpt lat="46.56685" lon="5.47641">
        <ele>499.4</ele>
        <time>2022-03-07T09:59:23Z</time>
      </trkpt>
      <trkpt lat="46.56682" lon="5.4764">
        <ele>499.4</ele>
        <time>2022-03-07T09:59:24Z</time>
      </trkpt>
      <trkpt lat="46.5668" lon="5.47637">
        <ele>499.6</ele>
        <time>2022-03-07T09:59:25Z</time>
      </trkpt>
      <trkpt lat="46.56678" lon="5.47636">
        <ele>499.6</ele>
        <time>2022-03-07T09:59:26Z</time>
      </trkpt>
      <trkpt lat="46.56675" lon="5.47634">
        <ele>500</ele>
        <time>2022-03-07T09:59:27Z</time>
      </trkpt>
      <trkpt lat="46.56673" lon="5.47632">
        <ele>500</ele>
        <time>2022-03-07T09:59:28Z</time>
      </trkpt>
      <trkpt lat="46.56671" lon="5.4763">
        <ele>500</ele>
        <time>2022-03-07T09:59:29Z</time>
      </trkpt>
      <trkpt lat="46.56668" lon="5.47629">
        <ele>500.2</ele>
        <time>2022-03-07T09:59:30Z</time>
      </trkpt>
      <trkpt lat="46.56666" lon="5.47628">
        <ele>500.2</ele>
        <time>2022-03-07T09:59:31Z</time>
      </trkpt>
      <trkpt lat="46.56664" lon="5.47626">
        <ele>500.2</ele>
        <time>2022-03-07T09:59:32Z</time>
      </trkpt>
      <trkpt lat="46.56661" lon="5.47625">
        <ele>500.6</ele>
        <time>2022-03-07T09:59:33Z</time>
      </trkpt>
      <trkpt lat="46.56659" lon="5.47623">
        <ele>500.6</ele>
        <time>2022-03-07T09:59:34Z</time>
      </trkpt>
      <trkpt lat="46.56657" lon="5.47621">
        <ele>500.6</ele>
        <time>2022-03-07T09:59:35Z</time>
      </trkpt>
      <trkpt lat="46.56654" lon="5.4762">
        <ele>500.8</ele>
        <time>2022-03-07T09:59:36Z</time>
      </trkpt>
      <trkpt lat="46.56652" lon="5.47618">
        <ele>500.8</ele>
        <time>2022-03-07T09:59:37Z</time>
      </trkpt>
      <trkpt lat="46.56649" lon="5.47617">
        <ele>500.8</ele>
        <time>2022-03-07T09:59:38Z</time>
      </trkpt>
      <trkpt lat="46.56647" lon="5.47615">
        <ele>501.2</ele>
        <time>2022-03-07T09:59:39Z</time>
      </trkpt>
      <trkpt lat="46.56645" lon="5.47613">
        <ele>501.2</ele>
        <time>2022-03-07T09:59:40Z</time>
      </trkpt>
      <trkpt lat="46.56642" lon="5.47612">
        <ele>501.4</ele>
        <time>2022-03-07T09:59:41Z</time>
      </trkpt>
      <trkpt lat="46.5664" lon="5.4761">
        <ele>501.4</ele>
        <time>2022-03-07T09:59:42Z</time>
      </trkpt>
      <trkpt lat="46.56638" lon="5.47609">
        <ele>501.6</ele>
        <time>2022-03-07T09:59:43Z</time>
      </trkpt>
      <trkpt lat="46.56635" lon="5.47607">
        <ele>501.8</ele>
        <time>2022-03-07T09:59:44Z</time>
      </trkpt>
      <trkpt lat="46.56633" lon="5.47606">
        <ele>501.8</ele>
        <time>2022-03-07T09:59:45Z</time>
      </trkpt>
      <trkpt lat="46.56631" lon="5.47604">
        <ele>501.8</ele>
        <time>2022-03-07T09:59:46Z</time>
      </trkpt>
      <trkpt lat="46.56628" lon="5.47602">
        <ele>502.2</ele>
        <time>2022-03-07T09:59:47Z</time>
      </trkpt>
      <trkpt lat="46.56626" lon="5.476">
        <ele>502.2</ele>
        <time>2022-03-07T09:59:48Z</time>
      </trkpt>
      <trkpt lat="46.56624" lon="5.47599">
        <ele>502.2</ele>
        <time>2022-03-07T09:59:49Z</time>
      </trkpt>
      <trkpt lat="46.56622" lon="5.47597">
        <ele>502.6</ele>
        <time>2022-03-07T09:59:50Z</time>
      </trkpt>
      <trkpt lat="46.5662" lon="5.47595">
        <ele>502.6</ele>
        <time>2022-03-07T09:59:51Z</time>
      </trkpt>
      <trkpt lat="46.56618" lon="5.47593">
        <ele>502.8</ele>
        <time>2022-03-07T09:59:52Z</time>
      </trkpt>
      <trkpt lat="46.56616" lon="5.47592">
        <ele>502.8</ele>
        <time>2022-03-07T09:59:53Z</time>
      </trkpt>
      <trkpt lat="46.56614" lon="5.4759">
        <ele>503.2</ele>
        <time>2022-03-07T09:59:54Z</time>
      </trkpt>
      <trkpt lat="46.56612" lon="5.47588">
        <ele>503.2</ele>
        <time>2022-03-07T09:59:55Z</time>
      </trkpt>
      <trkpt lat="46.5661" lon="5.47587">
        <ele>503.4</ele>
        <time>2022-03-07T09:59:56Z</time>
      </trkpt>
      <trkpt lat="46.56608" lon="5.47585">
        <ele>503.4</ele>
        <time>2022-03-07T09:59:57Z</time>
      </trkpt>
      <trkpt lat="46.56607" lon="5.47583">
        <ele>503.6</ele>
        <time>2022-03-07T09:59:58Z</time>
      </trkpt>
      <trkpt lat="46.56605" lon="5.47581">
        <ele>503.6</ele>
        <time>2022-03-07T09:59:59Z</time>
      </trkpt>
      <trkpt lat="46.56603" lon="5.47579">
        <ele>504</ele>
        <time>2022-03-07T10:00:00Z</time>
      </trkpt>
      <trkpt lat="46.56601" lon="5.47578">
        <ele>504</ele>
        <time>2022-03-07T10:00:01Z</time>
      </trkpt>
      <trkpt lat="46.56599" lon="5.47576">
        <ele>504.2</ele>
        <time>2022-03-07T10:00:02Z</time>
      </trkpt>
      <trkpt lat="46.56597" lon="5.47574">
        <ele>504.2</ele>
        <time>2022-03-07T10:00:03Z</time>
      </trkpt>
      <trkpt lat="46.56595" lon="5.47573">
        <ele>504.2</ele>
        <time>2022-03-07T10:00:04Z</time>
      </trkpt>
      <trkpt lat="46.56594" lon="5.47571">
        <ele>504.6</ele>
        <time>2022-03-07T10:00:05Z</time>
      </trkpt>
      <trkpt lat="46.56592" lon="5.47568">
        <ele>504.6</ele>
        <time>2022-03-07T10:00:06Z</time>
      </trkpt>
      <trkpt lat="46.5659" lon="5.47566">
        <ele>504.8</ele>
        <time>2022-03-07T10:00:07Z</time>
      </trkpt>
      <trkpt lat="46.56589" lon="5.47563">
        <ele>504.8</ele>
        <time>2022-03-07T10:00:08Z</time>
      </trkpt>
      <trkpt lat="46.56587" lon="5.47561">
        <ele>504.8</ele>
        <time>2022-03-07T10:00:09Z</time>
      </trkpt>
      <trkpt lat="46.56586" lon="5.47558">
        <ele>505</ele>
        <time>2022-03-07T10:00:10Z</time>
      </trkpt>
      <trkpt lat="46.56584" lon="5.47555">
        <ele>505</ele>
        <time>2022-03-07T10:00:11Z</time>
      </trkpt>
      <trkpt lat="46.56583" lon="5.47553">
        <ele>505.4</ele>
        <time>2022-03-07T10:00:12Z</time>
      </trkpt>
      <trkpt lat="46.56581" lon="5.47551">
        <ele>505.4</ele>
        <time>2022-03-07T10:00:13Z</time>
      </trkpt>
      <trkpt lat="46.56579" lon="5.47548">
        <ele>505.6</ele>
        <time>2022-03-07T10:00:14Z</time>
      </trkpt>
      <trkpt lat="46.56577" lon="5.47546">
        <ele>505.6</ele>
        <time>2022-03-07T10:00:15Z</time>
      </trkpt>
      <trkpt lat="46.56575" lon="5.47543">
        <ele>506</ele>
        <time>2022-03-07T10:00:16Z</time>
      </trkpt>
      <trkpt lat="46.56574" lon="5.47541">
        <ele>506</ele>
        <time>2022-03-07T10:00:17Z</time>
      </trkpt>
      <trkpt lat="46.56572" lon="5.47539">
        <ele>506.2</ele>
        <time>2022-03-07T10:00:18Z</time>
      </trkpt>
      <trkpt lat="46.5657" lon="5.47536">
        <ele>506.2</ele>
        <time>2022-03-07T10:00:19Z</time>
      </trkpt>
      <trkpt lat="46.56568" lon="5.47534">
        <ele>506.4</ele>
        <time>2022-03-07T10:00:20Z</time>
      </trkpt>
      <trkpt lat="46.56566" lon="5.47532">
        <ele>506.4</ele>
        <time>2022-03-07T10:00:21Z</time>
      </trkpt>
      <trkpt lat="46.56564" lon="5.4753">
        <ele>506.6</ele>
        <time>2022-03-07T10:00:22Z</time>
      </trkpt>
      <trkpt lat="46.56562" lon="5.47527">
        <ele>506.6</ele>
        <time>2022-03-07T10:00:23Z</time>
      </trkpt>
      <trkpt lat="46.5656" lon="5.47525">
        <ele>506.8</ele>
        <time>2022-03-07T10:00:24Z</time>
      </trkpt>
      <trkpt lat="46.56558" lon="5.47523">
        <ele>506.8</ele>
        <time>2022-03-07T10:00:25Z</time>
      </trkpt>
      <trkpt lat="46.56556" lon="5.47521">
        <ele>507.2</ele>
        <time>2022-03-07T10:00:26Z</time>
      </trkpt>
      <trkpt lat="46.56554" lon="5.47519">
        <ele>507.2</ele>
        <time>2022-03-07T10:00:27Z</time>
      </trkpt>
      <trkpt lat="46.56552" lon="5.47518">
        <ele>507.2</ele>
        <time>2022-03-07T10:00:28Z</time>
      </trkpt>
      <trkpt lat="46.5655" lon="5.47516">
        <ele>507.4</ele>
        <time>2022-03-07T10:00:29Z</time>
      </trkpt>
      <trkpt lat="46.56548" lon="5.47514">
        <ele>507.4</ele>
        <time>2022-03-07T10:00:30Z</time>
      </trkpt>
      <trkpt lat="46.56546" lon="5.47512">
        <ele>507.6</ele>
        <time>2022-03-07T10:00:31Z</time>
      </trkpt>
      <trkpt lat="46.56543" lon="5.47511">
        <ele>507.6</ele>
        <time>2022-03-07T10:00:32Z</time>
      </trkpt>
      <trkpt lat="46.56541" lon="5.4751">
        <ele>507.8</ele>
        <time>2022-03-07T10:00:33Z</time>
      </trkpt>
      <trkpt lat="46.56539" lon="5.47508">
        <ele>507.8</ele>
        <time>2022-03-07T10:00:34Z</time>
      </trkpt>
      <trkpt lat="46.56537" lon="5.47507">
        <ele>508.2</ele>
        <time>2022-03-07T10:00:35Z</time>
      </trkpt>
      <trkpt lat="46.56535" lon="5.47505">
        <ele>508.2</ele>
        <time>2022-03-07T10:00:36Z</time>
      </trkpt>
      <trkpt lat="46.56533" lon="5.47503">
        <ele>508.2</ele>
        <time>2022-03-07T10:00:37Z</time>
      </trkpt>
      <trkpt lat="46.56531" lon="5.47501">
        <ele>508.4</ele>
        <time>2022-03-07T10:00:38Z</time>
      </trkpt>
      <trkpt lat="46.56529" lon="5.475">
        <ele>508.4</ele>
        <time>2022-03-07T10:00:39Z</time>
      </trkpt>
      <trkpt lat="46.56526" lon="5.47498">
        <ele>508.4</ele>
        <time>2022-03-07T10:00:40Z</time>
      </trkpt>
      <trkpt lat="46.56524" lon="5.47497">
        <ele>508.6</ele>
        <time>2022-03-07T10:00:41Z</time>
      </trkpt>
      <trkpt lat="46.56522" lon="5.47495">
        <ele>508.6</ele>
        <time>2022-03-07T10:00:42Z</time>
      </trkpt>
      <trkpt lat="46.5652" lon="5.47493">
        <ele>508.8</ele>
        <time>2022-03-07T10:00:43Z</time>
      </trkpt>
      <trkpt lat="46.56518" lon="5.47491">
        <ele>508.8</ele>
        <time>2022-03-07T10:00:44Z</time>
      </trkpt>
      <trkpt lat="46.56516" lon="5.47489">
        <ele>509.2</ele>
        <time>2022-03-07T10:00:45Z</time>
      </trkpt>
      <trkpt lat="46.56513" lon="5.47487">
        <ele>509.2</ele>
        <time>2022-03-07T10:00:46Z</time>
      </trkpt>
      <trkpt lat="46.56511" lon="5.47486">
        <ele>509.2</ele>
        <time>2022-03-07T10:00:47Z</time>
      </trkpt>
      <trkpt lat="46.56509" lon="5.47484">
        <ele>509.6</ele>
        <time>2022-03-07T10:00:48Z</time>
      </trkpt>
      <trkpt lat="46.56507" lon="5.47482">
        <ele>509.6</ele>
        <time>2022-03-07T10:00:49Z</time>
      </trkpt>
      <trkpt lat="46.56505" lon="5.47481">
        <ele>510</ele>
        <time>2022-03-07T10:00:50Z</time>
      </trkpt>
      <trkpt lat="46.56503" lon="5.4748">
        <ele>510.2</ele>
        <time>2022-03-07T10:00:51Z</time>
      </trkpt>
      <trkpt lat="46.56501" lon="5.47478">
        <ele>510.2</ele>
        <time>2022-03-07T10:00:52Z</time>
      </trkpt>
      <trkpt lat="46.56499" lon="5.47477">
        <ele>510.4</ele>
        <time>2022-03-07T10:00:53Z</time>
      </trkpt>
      <trkpt lat="46.56497" lon="5.47476">
        <ele>510.4</ele>
        <time>2022-03-07T10:00:54Z</time>
      </trkpt>
      <trkpt lat="46.56495" lon="5.47474">
        <ele>510.8</ele>
        <time>2022-03-07T10:00:55Z</time>
      </trkpt>
      <trkpt lat="46.56494" lon="5.47473">
        <ele>510.8</ele>
        <time>2022-03-07T10:00:56Z</time>
      </trkpt>
      <trkpt lat="46.56492" lon="5.47471">
        <ele>511</ele>
        <time>2022-03-07T10:00:57Z</time>
      </trkpt>
      <trkpt lat="46.5649" lon="5.47469">
        <ele>511</ele>
        <time>2022-03-07T10:00:58Z</time>
      </trkpt>
      <trkpt lat="46.56489" lon="5.47467">
        <ele>511.4</ele>
        <time>2022-03-07T10:00:59Z</time>
      </trkpt>
      <trkpt lat="46.56487" lon="5.47466">
        <ele>511.4</ele>
        <time>2022-03-07T10:01:00Z</time>
      </trkpt>
      <trkpt lat="46.56485" lon="5.47465">
        <ele>511.6</ele>
        <time>2022-03-07T10:01:01Z</time>
      </trkpt>
      <trkpt lat="46.56483" lon="5.47464">
        <ele>511.6</ele>
        <time>2022-03-07T10:01:02Z</time>
      </trkpt>
      <trkpt lat="46.56481" lon="5.47463">
        <ele>512</ele>
        <time>2022-03-07T10:01:03Z</time>
      </trkpt>
      <trkpt lat="46.5648" lon="5.47462">
        <ele>512</ele>
        <time>2022-03-07T10:01:04Z</time>
      </trkpt>
      <trkpt lat="46.56478" lon="5.4746">
        <ele>512.2</ele>
        <time>2022-03-07T10:01:05Z</time>
      </trkpt>
      <trkpt lat="46.56476" lon="5.47459">
        <ele>512.2</ele>
        <time>2022-03-07T10:01:06Z</time>
      </trkpt>
      <trkpt lat="46.56475" lon="5.47458">
        <ele>512.6</ele>
        <time>2022-03-07T10:01:07Z</time>
      </trkpt>
      <trkpt lat="46.56473" lon="5.47456">
        <ele>512.6</ele>
        <time>2022-03-07T10:01:08Z</time>
      </trkpt>
      <trkpt lat="46.56471" lon="5.47454">
        <ele>513</ele>
        <time>2022-03-07T10:01:09Z</time>
      </trkpt>
      <trkpt lat="46.56469" lon="5.47452">
        <ele>513.2</ele>
        <time>2022-03-07T10:01:10Z</time>
      </trkpt>
      <trkpt lat="46.56468" lon="5.4745">
        <ele>513.2</ele>
        <time>2022-03-07T10:01:11Z</time>
      </trkpt>
      <trkpt lat="46.56466" lon="5.47448">
        <ele>513.6</ele>
        <time>2022-03-07T10:01:12Z</time>
      </trkpt>
      <trkpt lat="46.56465" lon="5.47446">
        <ele>513.8</ele>
        <time>2022-03-07T10:01:13Z</time>
      </trkpt>
      <trkpt lat="46.56464" lon="5.47444">
        <ele>513.8</ele>
        <time>2022-03-07T10:01:14Z</time>
      </trkpt>
      <trkpt lat="46.56462" lon="5.47442">
        <ele>514</ele>
        <time>2022-03-07T10:01:15Z</time>
      </trkpt>
      <trkpt lat="46.56461" lon="5.47441">
        <ele>514</ele>
        <time>2022-03-07T10:01:16Z</time>
      </trkpt>
      <trkpt lat="46.56459" lon="5.4744">
        <ele>514.4</ele>
        <time>2022-03-07T10:01:17Z</time>
      </trkpt>
      <trkpt lat="46.56457" lon="5.47438">
        <ele>514.4</ele>
        <time>2022-03-07T10:01:18Z</time>
      </trkpt>
      <trkpt lat="46.56456" lon="5.47436">
        <ele>514.6</ele>
        <time>2022-03-07T10:01:19Z</time>
      </trkpt>
      <trkpt lat="46.56454" lon="5.47435">
        <ele>514.6</ele>
        <time>2022-03-07T10:01:20Z</time>
      </trkpt>
      <trkpt lat="46.56453" lon="5.47433">
        <ele>515</ele>
        <time>2022-03-07T10:01:21Z</time>
      </trkpt>
      <trkpt lat="46.56451" lon="5.47431">
        <ele>515</ele>
        <time>2022-03-07T10:01:22Z</time>
      </trkpt>
      <trkpt lat="46.5645" lon="5.4743">
        <ele>515.4</ele>
        <time>2022-03-07T10:01:23Z</time>
      </trkpt>
      <trkpt lat="46.56448" lon="5.47428">
        <ele>515.4</ele>
        <time>2022-03-07T10:01:24Z</time>
      </trkpt>
      <trkpt lat="46.56447" lon="5.47427">
        <ele>515.6</ele>
        <time>2022-03-07T10:01:25Z</time>
      </trkpt>
      <trkpt lat="46.56445" lon="5.47425">
        <ele>515.6</ele>
        <time>2022-03-07T10:01:26Z</time>
      </trkpt>
      <trkpt lat="46.56444" lon="5.47424">
        <ele>516</ele>
        <time>2022-03-07T10:01:27Z</time>
      </trkpt>
      <trkpt lat="46.56442" lon="5.47423">
        <ele>516.2</ele>
        <time>2022-03-07T10:01:28Z</time>
      </trkpt>
      <trkpt lat="46.5644" lon="5.47421">
        <ele>516.2</ele>
        <time>2022-03-07T10:01:29Z</time>
      </trkpt>
      <trkpt lat="46.56438" lon="5.4742">
        <ele>516.4</ele>
        <time>2022-03-07T10:01:30Z</time>
      </trkpt>
      <trkpt lat="46.56436" lon="5.47419">
        <ele>516.4</ele>
        <time>2022-03-07T10:01:31Z</time>
      </trkpt>
      <trkpt lat="46.56434" lon="5.47418">
        <ele>516.8</ele>
        <time>2022-03-07T10:01:32Z</time>
      </trkpt>
      <trkpt lat="46.56433" lon="5.47416">
        <ele>516.8</ele>
        <time>2022-03-07T10:01:33Z</time>
      </trkpt>
      <trkpt lat="46.56431" lon="5.47415">
        <ele>517.2</ele>
        <time>2022-03-07T10:01:34Z</time>
      </trkpt>
      <trkpt lat="46.56429" lon="5.47414">
        <ele>517.4</ele>
        <time>2022-03-07T10:01:35Z</time>
      </trkpt>
      <trkpt lat="46.56428" lon="5.47412">
        <ele>517.6</ele>
        <time>2022-03-07T10:01:36Z</time>
      </trkpt>
      <trkpt lat="46.56426" lon="5.47409">
        <ele>517.8</ele>
        <time>2022-03-07T10:01:37Z</time>
      </trkpt>
      <trkpt lat="46.56425" lon="5.47407">
        <ele>517.8</ele>
        <time>2022-03-07T10:01:38Z</time>
      </trkpt>
      <trkpt lat="46.56423" lon="5.47406">
        <ele>518.2</ele>
        <time>2022-03-07T10:01:39Z</time>
      </trkpt>
      <trkpt lat="46.56421" lon="5.47404">
        <ele>518.4</ele>
        <time>2022-03-07T10:01:40Z</time>
      </trkpt>
      <trkpt lat="46.5642" lon="5.47403">
        <ele>518.4</ele>
        <time>2022-03-07T10:01:41Z</time>
      </trkpt>
      <trkpt lat="46.56418" lon="5.47402">
        <ele>518.8</ele>
        <time>2022-03-07T10:01:42Z</time>
      </trkpt>
      <trkpt lat="46.56416" lon="5.474">
        <ele>519.2</ele>
        <time>2022-03-07T10:01:43Z</time>
      </trkpt>
      <trkpt lat="46.56415" lon="5.47399">
        <ele>519.4</ele>
        <time>2022-03-07T10:01:44Z</time>
      </trkpt>
      <trkpt lat="46.56413" lon="5.47397">
        <ele>519.4</ele>
        <time>2022-03-07T10:01:45Z</time>
      </trkpt>
      <trkpt lat="46.56411" lon="5.47396">
        <ele>519.8</ele>
        <time>2022-03-07T10:01:46Z</time>
      </trkpt>
      <trkpt lat="46.56409" lon="5.47394">
        <ele>520</ele>
        <time>2022-03-07T10:01:47Z</time>
      </trkpt>
      <trkpt lat="46.56408" lon="5.47393">
        <ele>520</ele>
        <time>2022-03-07T10:01:48Z</time>
      </trkpt>
      <trkpt lat="46.56406" lon="5.47392">
        <ele>520.4</ele>
        <time>2022-03-07T10:01:49Z</time>
      </trkpt>
      <trkpt lat="46.56405" lon="5.4739">
        <ele>520.6</ele>
        <time>2022-03-07T10:01:50Z</time>
      </trkpt>
      <trkpt lat="46.56403" lon="5.47389">
        <ele>521</ele>
        <time>2022-03-07T10:01:51Z</time>
      </trkpt>
      <trkpt lat="46.56402" lon="5.47387">
        <ele>521.2</ele>
        <time>2022-03-07T10:01:52Z</time>
      </trkpt>
      <trkpt lat="46.56401" lon="5.47386">
        <ele>521.4</ele>
        <time>2022-03-07T10:01:53Z</time>
      </trkpt>
      <trkpt lat="46.56399" lon="5.47384">
        <ele>521.6</ele>
        <time>2022-03-07T10:01:54Z</time>
      </trkpt>
      <trkpt lat="46.56397" lon="5.47382">
        <ele>521.8</ele>
        <time>2022-03-07T10:01:55Z</time>
      </trkpt>
      <trkpt lat="46.56396" lon="5.47381">
        <ele>522</ele>
        <time>2022-03-07T10:01:56Z</time>
      </trkpt>
      <trkpt lat="46.56394" lon="5.47379">
        <ele>522.2</ele>
        <time>2022-03-07T10:01:57Z</time>
      </trkpt>
      <trkpt lat="46.56392" lon="5.47378">
        <ele>522.6</ele>
        <time>2022-03-07T10:01:58Z</time>
      </trkpt>
      <trkpt lat="46.5639" lon="5.47376">
        <ele>522.8</ele>
        <time>2022-03-07T10:01:59Z</time>
      </trkpt>
      <trkpt lat="46.56388" lon="5.47375">
        <ele>523</ele>
        <time>2022-03-07T10:02:00Z</time>
      </trkpt>
      <trkpt lat="46.56386" lon="5.47374">
        <ele>523.2</ele>
        <time>2022-03-07T10:02:01Z</time>
      </trkpt>
      <trkpt lat="46.56384" lon="5.47373">
        <ele>523.6</ele>
        <time>2022-03-07T10:02:02Z</time>
      </trkpt>
      <trkpt lat="46.56383" lon="5.47372">
        <ele>523.8</ele>
        <time>2022-03-07T10:02:03Z</time>
      </trkpt>
      <trkpt lat="46.56381" lon="5.47371">
        <ele>524</ele>
        <time>2022-03-07T10:02:04Z</time>
      </trkpt>
      <trkpt lat="46.56379" lon="5.47369">
        <ele>524.2</ele>
        <time>2022-03-07T10:02:05Z</time>
      </trkpt>
      <trkpt lat="46.56378" lon="5.47367">
        <ele>524.6</ele>
        <time>2022-03-07T10:02:06Z</time>
      </trkpt>
      <trkpt lat="46.56377" lon="5.47365">
        <ele>524.8</ele>
        <time>2022-03-07T10:02:07Z</time>
      </trkpt>
      <trkpt lat="46.56375" lon="5.47363">
        <ele>525</ele>
        <time>2022-03-07T10:02:08Z</time>
      </trkpt>
      <trkpt lat="46.56374" lon="5.47361">
        <ele>525.2</ele>
        <time>2022-03-07T10:02:09Z</time>
      </trkpt>
      <trkpt lat="46.56373" lon="5.47359">
        <ele>525.4</ele>
        <time>2022-03-07T10:02:10Z</time>
      </trkpt>
      <trkpt lat="46.56371" lon="5.47357">
        <ele>525.8</ele>
        <time>2022-03-07T10:02:11Z</time>
      </trkpt>
      <trkpt lat="46.5637" lon="5.47356">
        <ele>526</ele>
        <time>2022-03-07T10:02:12Z</time>
      </trkpt>
      <trkpt lat="46.56368" lon="5.47354">
        <ele>526.2</ele>
        <time>2022-03-07T10:02:13Z</time>
      </trkpt>
      <trkpt lat="46.56367" lon="5.47353">
        <ele>526.4</ele>
        <time>2022-03-07T10:02:14Z</time>
      </trkpt>
      <trkpt lat="46.56365" lon="5.47352">
        <ele>526.6</ele>
        <time>2022-03-07T10:02:15Z</time>
      </trkpt>
      <trkpt lat="46.56364" lon="5.4735">
        <ele>527</ele>
        <time>2022-03-07T10:02:16Z</time>
      </trkpt>
      <trkpt lat="46.56362" lon="5.47349">
        <ele>527.2</ele>
        <time>2022-03-07T10:02:17Z</time>
      </trkpt>
      <trkpt lat="46.56361" lon="5.47347">
        <ele>527.4</ele>
        <time>2022-03-07T10:02:18Z</time>
      </trkpt>
      <trkpt lat="46.56359" lon="5.47346">
        <ele>527.6</ele>
        <time>2022-03-07T10:02:19Z</time>
      </trkpt>
      <trkpt lat="46.56358" lon="5.47344">
        <ele>528</ele>
        <time>2022-03-07T10:02:20Z</time>
      </trkpt>
      <trkpt lat="46.56356" lon="5.47343">
        <ele>528.2</ele>
        <time>2022-03-07T10:02:21Z</time>
      </trkpt>
      <trkpt lat="46.56355" lon="5.47341">
        <ele>528.6</ele>
        <time>2022-03-07T10:02:22Z</time>
      </trkpt>
      <trkpt lat="46.56354" lon="5.47339">
        <ele>528.8</ele>
        <time>2022-03-07T10:02:23Z</time>
      </trkpt>
      <trkpt lat="46.56352" lon="5.47337">
        <ele>529</ele>
        <time>2022-03-07T10:02:24Z</time>
      </trkpt>
      <trkpt lat="46.56351" lon="5.47336">
        <ele>529.2</ele>
        <time>2022-03-07T10:02:25Z</time>
      </trkpt>
      <trkpt lat="46.56349" lon="5.47334">
        <ele>529.6</ele>
        <time>2022-03-07T10:02:26Z</time>
      </trkpt>
      <trkpt lat="46.56348" lon="5.47333">
        <ele>529.8</ele>
        <time>2022-03-07T10:02:27Z</time>
      </trkpt>
      <trkpt lat="46.56346" lon="5.47332">
        <ele>529.8</ele>
        <time>2022-03-07T10:02:28Z</time>
      </trkpt>
      <trkpt lat="46.56345" lon="5.47332">
        <ele>530.2</ele>
        <time>2022-03-07T10:02:29Z</time>
      </trkpt>
      <trkpt lat="46.56343" lon="5.47332">
        <ele>530.4</ele>
        <time>2022-03-07T10:02:30Z</time>
      </trkpt>
      <trkpt lat="46.56341" lon="5.47333">
        <ele>530.6</ele>
        <time>2022-03-07T10:02:31Z</time>
      </trkpt>
      <trkpt lat="46.56339" lon="5.47333">
        <ele>531</ele>
        <time>2022-03-07T10:02:32Z</time>
      </trkpt>
      <trkpt lat="46.56338" lon="5.47332">
        <ele>531.2</ele>
        <time>2022-03-07T10:02:33Z</time>
      </trkpt>
      <trkpt lat="46.56336" lon="5.47332">
        <ele>531.4</ele>
        <time>2022-03-07T10:02:34Z</time>
      </trkpt>
      <trkpt lat="46.56334" lon="5.47332">
        <ele>531.8</ele>
        <time>2022-03-07T10:02:35Z</time>
      </trkpt>
      <trkpt lat="46.56333" lon="5.47331">
        <ele>531.8</ele>
        <time>2022-03-07T10:02:36Z</time>
      </trkpt>
      <trkpt lat="46.56331" lon="5.47331">
        <ele>532.2</ele>
        <time>2022-03-07T10:02:37Z</time>
      </trkpt>
      <trkpt lat="46.56329" lon="5.4733">
        <ele>532.4</ele>
        <time>2022-03-07T10:02:38Z</time>
      </trkpt>
      <trkpt lat="46.56327" lon="5.4733">
        <ele>532.6</ele>
        <time>2022-03-07T10:02:39Z</time>
      </trkpt>
      <trkpt lat="46.56325" lon="5.4733">
        <ele>532.6</ele>
        <time>2022-03-07T10:02:40Z</time>
      </trkpt>
      <trkpt lat="46.56324" lon="5.4733">
        <ele>533</ele>
        <time>2022-03-07T10:02:41Z</time>
      </trkpt>
      <trkpt lat="46.56322" lon="5.4733">
        <ele>533</ele>
        <time>2022-03-07T10:02:42Z</time>
      </trkpt>
      <trkpt lat="46.56321" lon="5.4733">
        <ele>533.2</ele>
        <time>2022-03-07T10:02:43Z</time>
      </trkpt>
      <trkpt lat="46.56319" lon="5.47329">
        <ele>533.2</ele>
        <time>2022-03-07T10:02:44Z</time>
      </trkpt>
      <trkpt lat="46.56317" lon="5.47329">
        <ele>533.6</ele>
        <time>2022-03-07T10:02:45Z</time>
      </trkpt>
      <trkpt lat="46.56316" lon="5.47329">
        <ele>533.6</ele>
        <time>2022-03-07T10:02:46Z</time>
      </trkpt>
      <trkpt lat="46.56314" lon="5.47328">
        <ele>534</ele>
        <time>2022-03-07T10:02:47Z</time>
      </trkpt>
      <trkpt lat="46.56312" lon="5.47327">
        <ele>534</ele>
        <time>2022-03-07T10:02:48Z</time>
      </trkpt>
      <trkpt lat="46.5631" lon="5.47327">
        <ele>534.4</ele>
        <time>2022-03-07T10:02:49Z</time>
      </trkpt>
      <trkpt lat="46.56308" lon="5.47326">
        <ele>534.4</ele>
        <time>2022-03-07T10:02:50Z</time>
      </trkpt>
      <trkpt lat="46.56306" lon="5.47326">
        <ele>534.6</ele>
        <time>2022-03-07T10:02:51Z</time>
      </trkpt>
      <trkpt lat="46.56304" lon="5.47325">
        <ele>534.6</ele>
        <time>2022-03-07T10:02:52Z</time>
      </trkpt>
      <trkpt lat="46.56302" lon="5.47325">
        <ele>535</ele>
        <time>2022-03-07T10:02:53Z</time>
      </trkpt>
      <trkpt lat="46.56299" lon="5.47325">
        <ele>535</ele>
        <time>2022-03-07T10:02:54Z</time>
      </trkpt>
      <trkpt lat="46.56297" lon="5.47324">
        <ele>535.2</ele>
        <time>2022-03-07T10:02:55Z</time>
      </trkpt>
      <trkpt lat="46.56296" lon="5.47324">
        <ele>535.2</ele>
        <time>2022-03-07T10:02:56Z</time>
      </trkpt>
      <trkpt lat="46.56294" lon="5.47324">
        <ele>535.6</ele>
        <time>2022-03-07T10:02:57Z</time>
      </trkpt>
      <trkpt lat="46.56292" lon="5.47324">
        <ele>535.6</ele>
        <time>2022-03-07T10:02:58Z</time>
      </trkpt>
      <trkpt lat="46.5629" lon="5.47323">
        <ele>535.8</ele>
        <time>2022-03-07T10:02:59Z</time>
      </trkpt>
      <trkpt lat="46.56288" lon="5.47323">
        <ele>535.8</ele>
        <time>2022-03-07T10:03:00Z</time>
      </trkpt>
      <trkpt lat="46.56285" lon="5.47324">
        <ele>535.8</ele>
        <time>2022-03-07T10:03:01Z</time>
      </trkpt>
      <trkpt lat="46.56283" lon="5.47325">
        <ele>536</ele>
        <time>2022-03-07T10:03:02Z</time>
      </trkpt>
      <trkpt lat="46.56281" lon="5.47326">
        <ele>536</ele>
        <time>2022-03-07T10:03:03Z</time>
      </trkpt>
      <trkpt lat="46.56279" lon="5.47326">
        <ele>536</ele>
        <time>2022-03-07T10:03:04Z</time>
      </trkpt>
      <trkpt lat="46.56278" lon="5.47327">
        <ele>536.2</ele>
        <time>2022-03-07T10:03:05Z</time>
      </trkpt>
      <trkpt lat="46.56276" lon="5.47328">
        <ele>536.2</ele>
        <time>2022-03-07T10:03:06Z</time>
      </trkpt>
      <trkpt lat="46.56274" lon="5.4733">
        <ele>536.4</ele>
        <time>2022-03-07T10:03:07Z</time>
      </trkpt>
      <trkpt lat="46.56272" lon="5.47331">
        <ele>536.4</ele>
        <time>2022-03-07T10:03:08Z</time>
      </trkpt>
      <trkpt lat="46.5627" lon="5.47332">
        <ele>536.8</ele>
        <time>2022-03-07T10:03:09Z</time>
      </trkpt>
      <trkpt lat="46.56269" lon="5.47332">
        <ele>536.8</ele>
        <time>2022-03-07T10:03:10Z</time>
      </trkpt>
      <trkpt lat="46.56267" lon="5.47333">
        <ele>537</ele>
        <time>2022-03-07T10:03:11Z</time>
      </trkpt>
      <trkpt lat="46.56265" lon="5.47334">
        <ele>537</ele>
        <time>2022-03-07T10:03:12Z</time>
      </trkpt>
      <trkpt lat="46.56264" lon="5.47336">
        <ele>537.2</ele>
        <time>2022-03-07T10:03:13Z</time>
      </trkpt>
      <trkpt lat="46.56262" lon="5.47336">
        <ele>537.2</ele>
        <time>2022-03-07T10:03:14Z</time>
      </trkpt>
      <trkpt lat="46.5626" lon="5.47338">
        <ele>537.6</ele>
        <time>2022-03-07T10:03:15Z</time>
      </trkpt>
      <trkpt lat="46.56259" lon="5.47339">
        <ele>537.6</ele>
        <time>2022-03-07T10:03:16Z</time>
      </trkpt>
      <trkpt lat="46.56257" lon="5.4734">
        <ele>538</ele>
        <time>2022-03-07T10:03:17Z</time>
      </trkpt>
      <trkpt lat="46.56256" lon="5.47341">
        <ele>538</ele>
        <time>2022-03-07T10:03:18Z</time>
      </trkpt>
      <trkpt lat="46.56254" lon="5.47342">
        <ele>538.2</ele>
        <time>2022-03-07T10:03:19Z</time>
      </trkpt>
      <trkpt lat="46.56253" lon="5.47343">
        <ele>538.2</ele>
        <time>2022-03-07T10:03:20Z</time>
      </trkpt>
      <trkpt lat="46.56252" lon="5.47345">
        <ele>538.8</ele>
        <time>2022-03-07T10:03:21Z</time>
      </trkpt>
      <trkpt lat="46.5625" lon="5.47346">
        <ele>539</ele>
        <time>2022-03-07T10:03:22Z</time>
      </trkpt>
      <trkpt lat="46.56249" lon="5.47348">
        <ele>539.2</ele>
        <time>2022-03-07T10:03:23Z</time>
      </trkpt>
      <trkpt lat="46.56247" lon="5.4735">
        <ele>539.6</ele>
        <time>2022-03-07T10:03:24Z</time>
      </trkpt>
      <trkpt lat="46.56246" lon="5.47351">
        <ele>539.8</ele>
        <time>2022-03-07T10:03:25Z</time>
      </trkpt>
      <trkpt lat="46.56244" lon="5.47352">
        <ele>540</ele>
        <time>2022-03-07T10:03:26Z</time>
      </trkpt>
      <trkpt lat="46.56243" lon="5.47354">
        <ele>540.2</ele>
        <time>2022-03-07T10:03:27Z</time>
      </trkpt>
      <trkpt lat="46.56241" lon="5.47355">
        <ele>540.6</ele>
        <time>2022-03-07T10:03:28Z</time>
      </trkpt>
      <trkpt lat="46.5624" lon="5.47356">
        <ele>540.8</ele>
        <time>2022-03-07T10:03:29Z</time>
      </trkpt>
      <trkpt lat="46.56238" lon="5.47358">
        <ele>540.8</ele>
        <time>2022-03-07T10:03:30Z</time>
      </trkpt>
      <trkpt lat="46.56236" lon="5.47359">
        <ele>541</ele>
        <time>2022-03-07T10:03:31Z</time>
      </trkpt>
      <trkpt lat="46.56234" lon="5.4736">
        <ele>541.2</ele>
        <time>2022-03-07T10:03:32Z</time>
      </trkpt>
      <trkpt lat="46.56233" lon="5.47362">
        <ele>541.4</ele>
        <time>2022-03-07T10:03:33Z</time>
      </trkpt>
      <trkpt lat="46.56231" lon="5.47363">
        <ele>541.6</ele>
        <time>2022-03-07T10:03:34Z</time>
      </trkpt>
      <trkpt lat="46.5623" lon="5.47364">
        <ele>541.6</ele>
        <time>2022-03-07T10:03:35Z</time>
      </trkpt>
      <trkpt lat="46.56229" lon="5.47366">
        <ele>542</ele>
        <time>2022-03-07T10:03:36Z</time>
      </trkpt>
      <trkpt lat="46.56227" lon="5.47367">
        <ele>542</ele>
        <time>2022-03-07T10:03:37Z</time>
      </trkpt>
      <trkpt lat="46.56226" lon="5.47368">
        <ele>542.4</ele>
        <time>2022-03-07T10:03:38Z</time>
      </trkpt>
      <trkpt lat="46.56224" lon="5.47369">
        <ele>542.4</ele>
        <time>2022-03-07T10:03:39Z</time>
      </trkpt>
      <trkpt lat="46.56223" lon="5.47369">
        <ele>542.6</ele>
        <time>2022-03-07T10:03:40Z</time>
      </trkpt>
      <trkpt lat="46.56221" lon="5.4737">
        <ele>542.6</ele>
        <time>2022-03-07T10:03:41Z</time>
      </trkpt>
      <trkpt lat="46.5622" lon="5.47371">
        <ele>543</ele>
        <time>2022-03-07T10:03:42Z</time>
      </trkpt>
      <trkpt lat="46.56218" lon="5.47371">
        <ele>543</ele>
        <time>2022-03-07T10:03:43Z</time>
      </trkpt>
      <trkpt lat="46.56217" lon="5.47371">
        <ele>543.4</ele>
        <time>2022-03-07T10:03:44Z</time>
      </trkpt>
      <trkpt lat="46.56215" lon="5.47371">
        <ele>543.6</ele>
        <time>2022-03-07T10:03:45Z</time>
      </trkpt>
      <trkpt lat="46.56213" lon="5.47372">
        <ele>543.6</ele>
        <time>2022-03-07T10:03:46Z</time>
      </trkpt>
      <trkpt lat="46.56212" lon="5.47372">
        <ele>544</ele>
        <time>2022-03-07T10:03:47Z</time>
      </trkpt>
      <trkpt lat="46.5621" lon="5.47372">
        <ele>544</ele>
        <time>2022-03-07T10:03:48Z</time>
      </trkpt>
      <trkpt lat="46.56209" lon="5.47372">
        <ele>544.2</ele>
        <time>2022-03-07T10:03:49Z</time>
      </trkpt>
      <trkpt lat="46.56207" lon="5.47372">
        <ele>544.2</ele>
        <time>2022-03-07T10:03:50Z</time>
      </trkpt>
      <trkpt lat="46.56206" lon="5.47371">
        <ele>544.6</ele>
        <time>2022-03-07T10:03:51Z</time>
      </trkpt>
      <trkpt lat="46.56204" lon="5.47371">
        <ele>544.6</ele>
        <time>2022-03-07T10:03:52Z</time>
      </trkpt>
      <trkpt lat="46.56202" lon="5.47371">
        <ele>545</ele>
        <time>2022-03-07T10:03:53Z</time>
      </trkpt>
      <trkpt lat="46.56201" lon="5.47371">
        <ele>545</ele>
        <time>2022-03-07T10:03:54Z</time>
      </trkpt>
      <trkpt lat="46.56199" lon="5.47372">
        <ele>545.4</ele>
        <time>2022-03-07T10:03:55Z</time>
      </trkpt>
      <trkpt lat="46.56197" lon="5.47372">
        <ele>545.6</ele>
        <time>2022-03-07T10:03:56Z</time>
      </trkpt>
      <trkpt lat="46.56196" lon="5.47372">
        <ele>545.6</ele>
        <time>2022-03-07T10:03:57Z</time>
      </trkpt>
      <trkpt lat="46.56194" lon="5.47372">
        <ele>545.8</ele>
        <time>2022-03-07T10:03:58Z</time>
      </trkpt>
      <trkpt lat="46.56192" lon="5.47372">
        <ele>545.8</ele>
        <time>2022-03-07T10:03:59Z</time>
      </trkpt>
      <trkpt lat="46.5619" lon="5.47372">
        <ele>546.2</ele>
        <time>2022-03-07T10:04:00Z</time>
      </trkpt>
      <trkpt lat="46.56188" lon="5.47372">
        <ele>546.2</ele>
        <time>2022-03-07T10:04:01Z</time>
      </trkpt>
      <trkpt lat="46.56186" lon="5.47372">
        <ele>546.4</ele>
        <time>2022-03-07T10:04:02Z</time>
      </trkpt>
      <trkpt lat="46.56184" lon="5.47373">
        <ele>546.4</ele>
        <time>2022-03-07T10:04:03Z</time>
      </trkpt>
      <trkpt lat="46.56182" lon="5.47373">
        <ele>546.8</ele>
        <time>2022-03-07T10:04:04Z</time>
      </trkpt>
      <trkpt lat="46.56181" lon="5.47373">
        <ele>546.8</ele>
        <time>2022-03-07T10:04:05Z</time>
      </trkpt>
      <trkpt lat="46.56179" lon="5.47372">
        <ele>547.2</ele>
        <time>2022-03-07T10:04:06Z</time>
      </trkpt>
      <trkpt lat="46.56177" lon="5.47372">
        <ele>547.2</ele>
        <time>2022-03-07T10:04:07Z</time>
      </trkpt>
      <trkpt lat="46.56175" lon="5.47371">
        <ele>547.6</ele>
        <time>2022-03-07T10:04:08Z</time>
      </trkpt>
      <trkpt lat="46.56173" lon="5.47371">
        <ele>547.6</ele>
        <time>2022-03-07T10:04:09Z</time>
      </trkpt>
      <trkpt lat="46.56172" lon="5.47371">
        <ele>548</ele>
        <time>2022-03-07T10:04:10Z</time>
      </trkpt>
      <trkpt lat="46.5617" lon="5.47372">
        <ele>548.2</ele>
        <time>2022-03-07T10:04:11Z</time>
      </trkpt>
      <trkpt lat="46.56168" lon="5.47372">
        <ele>548.4</ele>
        <time>2022-03-07T10:04:12Z</time>
      </trkpt>
      <trkpt lat="46.56167" lon="5.47372">
        <ele>548.4</ele>
        <time>2022-03-07T10:04:13Z</time>
      </trkpt>
      <trkpt lat="46.56165" lon="5.47371">
        <ele>548.8</ele>
        <time>2022-03-07T10:04:14Z</time>
      </trkpt>
      <trkpt lat="46.56164" lon="5.4737">
        <ele>548.8</ele>
        <time>2022-03-07T10:04:15Z</time>
      </trkpt>
      <trkpt lat="46.56162" lon="5.4737">
        <ele>549.2</ele>
        <time>2022-03-07T10:04:16Z</time>
      </trkpt>
      <trkpt lat="46.56161" lon="5.4737">
        <ele>549.6</ele>
        <time>2022-03-07T10:04:17Z</time>
      </trkpt>
      <trkpt lat="46.5616" lon="5.47369">
        <ele>549.8</ele>
        <time>2022-03-07T10:04:18Z</time>
      </trkpt>
      <trkpt lat="46.56159" lon="5.47369">
        <ele>549.8</ele>
        <time>2022-03-07T10:04:19Z</time>
      </trkpt>
      <trkpt lat="46.56157" lon="5.4737">
        <ele>550.2</ele>
        <time>2022-03-07T10:04:20Z</time>
      </trkpt>
      <trkpt lat="46.56156" lon="5.4737">
        <ele>550.2</ele>
        <time>2022-03-07T10:04:21Z</time>
      </trkpt>
      <trkpt lat="46.56155" lon="5.47369">
        <ele>550.6</ele>
        <time>2022-03-07T10:04:22Z</time>
      </trkpt>
      <trkpt lat="46.56153" lon="5.47369">
        <ele>550.6</ele>
        <time>2022-03-07T10:04:23Z</time>
      </trkpt>
      <trkpt lat="46.56152" lon="5.47369">
        <ele>550.8</ele>
        <time>2022-03-07T10:04:24Z</time>
      </trkpt>
      <trkpt lat="46.5615" lon="5.47369">
        <ele>551</ele>
        <time>2022-03-07T10:04:25Z</time>
      </trkpt>
      <trkpt lat="46.56149" lon="5.47369">
        <ele>551.2</ele>
        <time>2022-03-07T10:04:26Z</time>
      </trkpt>
      <trkpt lat="46.56147" lon="5.47369">
        <ele>551.6</ele>
        <time>2022-03-07T10:04:27Z</time>
      </trkpt>
      <trkpt lat="46.56145" lon="5.47369">
        <ele>551.8</ele>
        <time>2022-03-07T10:04:28Z</time>
      </trkpt>
      <trkpt lat="46.56144" lon="5.47369">
        <ele>551.8</ele>
        <time>2022-03-07T10:04:29Z</time>
      </trkpt>
      <trkpt lat="46.56142" lon="5.4737">
        <ele>552.2</ele>
        <time>2022-03-07T10:04:30Z</time>
      </trkpt>
      <trkpt lat="46.5614" lon="5.47371">
        <ele>552.2</ele>
        <time>2022-03-07T10:04:31Z</time>
      </trkpt>
      <trkpt lat="46.56139" lon="5.47372">
        <ele>552.6</ele>
        <time>2022-03-07T10:04:32Z</time>
      </trkpt>
      <trkpt lat="46.56138" lon="5.47373">
        <ele>552.8</ele>
        <time>2022-03-07T10:04:33Z</time>
      </trkpt>
      <trkpt lat="46.56136" lon="5.47374">
        <ele>553</ele>
        <time>2022-03-07T10:04:34Z</time>
      </trkpt>
      <trkpt lat="46.56134" lon="5.47375">
        <ele>553.4</ele>
        <time>2022-03-07T10:04:35Z</time>
      </trkpt>
      <trkpt lat="46.56133" lon="5.47377">
        <ele>553.6</ele>
        <time>2022-03-07T10:04:36Z</time>
      </trkpt>
      <trkpt lat="46.56132" lon="5.47378">
        <ele>554</ele>
        <time>2022-03-07T10:04:37Z</time>
      </trkpt>
      <trkpt lat="46.5613" lon="5.47381">
        <ele>554.2</ele>
        <time>2022-03-07T10:04:38Z</time>
      </trkpt>
      <trkpt lat="46.56129" lon="5.47383">
        <ele>554.4</ele>
        <time>2022-03-07T10:04:39Z</time>
      </trkpt>
      <trkpt lat="46.56128" lon="5.47385">
        <ele>554.6</ele>
        <time>2022-03-07T10:04:40Z</time>
      </trkpt>
      <trkpt lat="46.56127" lon="5.47387">
        <ele>554.8</ele>
        <time>2022-03-07T10:04:41Z</time>
      </trkpt>
      <trkpt lat="46.56126" lon="5.47389">
        <ele>555</ele>
        <time>2022-03-07T10:04:42Z</time>
      </trkpt>
      <trkpt lat="46.56126" lon="5.47391">
        <ele>555</ele>
        <time>2022-03-07T10:04:43Z</time>
      </trkpt>
      <trkpt lat="46.56126" lon="5.47394">
        <ele>555.4</ele>
        <time>2022-03-07T10:04:44Z</time>
      </trkpt>
      <trkpt lat="46.56125" lon="5.47396">
        <ele>555.8</ele>
        <time>2022-03-07T10:04:45Z</time>
      </trkpt>
      <trkpt lat="46.56125" lon="5.47398">
        <ele>556</ele>
        <time>2022-03-07T10:04:46Z</time>
      </trkpt>
      <trkpt lat="46.56125" lon="5.47401">
        <ele>556.2</ele>
        <time>2022-03-07T10:04:47Z</time>
      </trkpt>
      <trkpt lat="46.56125" lon="5.47404">
        <ele>556.4</ele>
        <time>2022-03-07T10:04:48Z</time>
      </trkpt>
      <trkpt lat="46.56125" lon="5.47406">
        <ele>556.4</ele>
        <time>2022-03-07T10:04:49Z</time>
      </trkpt>
      <trkpt lat="46.56124" lon="5.47408">
        <ele>556.8</ele>
        <time>2022-03-07T10:04:50Z</time>
      </trkpt>
      <trkpt lat="46.56124" lon="5.4741">
        <ele>556.8</ele>
        <time>2022-03-07T10:04:51Z</time>
      </trkpt>
      <trkpt lat="46.56124" lon="5.47412">
        <ele>557.2</ele>
        <time>2022-03-07T10:04:52Z</time>
      </trkpt>
      <trkpt lat="46.56124" lon="5.47415">
        <ele>557.4</ele>
        <time>2022-03-07T10:04:53Z</time>
      </trkpt>
      <trkpt lat="46.56124" lon="5.47417">
        <ele>557.6</ele>
        <time>2022-03-07T10:04:54Z</time>
      </trkpt>
      <trkpt lat="46.56125" lon="5.47419">
        <ele>557.6</ele>
        <time>2022-03-07T10:04:55Z</time>
      </trkpt>
      <trkpt lat="46.56125" lon="5.47422">
        <ele>558</ele>
        <time>2022-03-07T10:04:56Z</time>
      </trkpt>
      <trkpt lat="46.56126" lon="5.47424">
        <ele>558.2</ele>
        <time>2022-03-07T10:04:57Z</time>
      </trkpt>
      <trkpt lat="46.56126" lon="5.47427">
        <ele>558.2</ele>
        <time>2022-03-07T10:04:58Z</time>
      </trkpt>
      <trkpt lat="46.56127" lon="5.4743">
        <ele>558.4</ele>
        <time>2022-03-07T10:04:59Z</time>
      </trkpt>
      <trkpt lat="46.56128" lon="5.47432">
        <ele>558.4</ele>
        <time>2022-03-07T10:05:00Z</time>
      </trkpt>
      <trkpt lat="46.56128" lon="5.47435">
        <ele>558.6</ele>
        <time>2022-03-07T10:05:01Z</time>
      </trkpt>
      <trkpt lat="46.56129" lon="5.47437">
        <ele>558.6</ele>
        <time>2022-03-07T10:05:02Z</time>
      </trkpt>
      <trkpt lat="46.5613" lon="5.47439">
        <ele>558.8</ele>
        <time>2022-03-07T10:05:03Z</time>
      </trkpt>
      <trkpt lat="46.56131" lon="5.47441">
        <ele>558.8</ele>
        <time>2022-03-07T10:05:04Z</time>
      </trkpt>
      <trkpt lat="46.56131" lon="5.47443">
        <ele>559.2</ele>
        <time>2022-03-07T10:05:05Z</time>
      </trkpt>
      <trkpt lat="46.56132" lon="5.47446">
        <ele>559.2</ele>
        <time>2022-03-07T10:05:06Z</time>
      </trkpt>
      <trkpt lat="46.56132" lon="5.47448">
        <ele>559.2</ele>
        <time>2022-03-07T10:05:07Z</time>
      </trkpt>
      <trkpt lat="46.56133" lon="5.47452">
        <ele>559.2</ele>
        <time>2022-03-07T10:05:08Z</time>
      </trkpt>
      <trkpt lat="46.56133" lon="5.47455">
        <ele>559.2</ele>
        <time>2022-03-07T10:05:09Z</time>
      </trkpt>
      <trkpt lat="46.56134" lon="5.47459">
        <ele>559.2</ele>
        <time>2022-03-07T10:05:10Z</time>
      </trkpt>
      <trkpt lat="46.56135" lon="5.47464">
        <ele>559.2</ele>
        <time>2022-03-07T10:05:11Z</time>
      </trkpt>
      <trkpt lat="46.56136" lon="5.47469">
        <ele>558.8</ele>
        <time>2022-03-07T10:05:12Z</time>
      </trkpt>
      <trkpt lat="46.56137" lon="5.47475">
        <ele>558.8</ele>
        <time>2022-03-07T10:05:13Z</time>
      </trkpt>
      <trkpt lat="46.56137" lon="5.47481">
        <ele>558.6</ele>
        <time>2022-03-07T10:05:14Z</time>
      </trkpt>
      <trkpt lat="46.56138" lon="5.47489">
        <ele>558.2</ele>
        <time>2022-03-07T10:05:15Z</time>
      </trkpt>
      <trkpt lat="46.56139" lon="5.47496">
        <ele>558</ele>
        <time>2022-03-07T10:05:16Z</time>
      </trkpt>
      <trkpt lat="46.5614" lon="5.47504">
        <ele>557.8</ele>
        <time>2022-03-07T10:05:17Z</time>
      </trkpt>
      <trkpt lat="46.5614" lon="5.47512">
        <ele>557.4</ele>
        <time>2022-03-07T10:05:18Z</time>
      </trkpt>
      <trkpt lat="46.56141" lon="5.4752">
        <ele>557.2</ele>
        <time>2022-03-07T10:05:19Z</time>
      </trkpt>
      <trkpt lat="46.56141" lon="5.47528">
        <ele>556.8</ele>
        <time>2022-03-07T10:05:20Z</time>
      </trkpt>
      <trkpt lat="46.56141" lon="5.47535">
        <ele>556.4</ele>
        <time>2022-03-07T10:05:21Z</time>
      </trkpt>
      <trkpt lat="46.56141" lon="5.47542">
        <ele>555.8</ele>
        <time>2022-03-07T10:05:22Z</time>
      </trkpt>
      <trkpt lat="46.5614" lon="5.47549">
        <ele>555.6</ele>
        <time>2022-03-07T10:05:23Z</time>
      </trkpt>
      <trkpt lat="46.56139" lon="5.47555">
        <ele>555</ele>
        <time>2022-03-07T10:05:24Z</time>
      </trkpt>
      <trkpt lat="46.56139" lon="5.47561">
        <ele>554.8</ele>
        <time>2022-03-07T10:05:25Z</time>
      </trkpt>
      <trkpt lat="46.56138" lon="5.47567">
        <ele>554.4</ele>
        <time>2022-03-07T10:05:26Z</time>
      </trkpt>
      <trkpt lat="46.56136" lon="5.47573">
        <ele>554</ele>
        <time>2022-03-07T10:05:27Z</time>
      </trkpt>
      <trkpt lat="46.56134" lon="5.47578">
        <ele>553.8</ele>
        <time>2022-03-07T10:05:28Z</time>
      </trkpt>
      <trkpt lat="46.56132" lon="5.47584">
        <ele>553.4</ele>
        <time>2022-03-07T10:05:29Z</time>
      </trkpt>
      <trkpt lat="46.56129" lon="5.47589">
        <ele>553.2</ele>
        <time>2022-03-07T10:05:30Z</time>
      </trkpt>
      <trkpt lat="46.56125" lon="5.47594">
        <ele>553</ele>
        <time>2022-03-07T10:05:31Z</time>
      </trkpt>
      <trkpt lat="46.56121" lon="5.47598">
        <ele>552.6</ele>
        <time>2022-03-07T10:05:32Z</time>
      </trkpt>
      <trkpt lat="46.56117" lon="5.47601">
        <ele>552.4</ele>
        <time>2022-03-07T10:05:33Z</time>
      </trkpt>
      <trkpt lat="46.56113" lon="5.47602">
        <ele>552</ele>
        <time>2022-03-07T10:05:34Z</time>
      </trkpt>
      <trkpt lat="46.5611" lon="5.47603">
        <ele>551.8</ele>
        <time>2022-03-07T10:05:35Z</time>
      </trkpt>
      <trkpt lat="46.56107" lon="5.47605">
        <ele>551.4</ele>
        <time>2022-03-07T10:05:36Z</time>
      </trkpt>
      <trkpt lat="46.56103" lon="5.47606">
        <ele>551.2</ele>
        <time>2022-03-07T10:05:37Z</time>
      </trkpt>
      <trkpt lat="46.56098" lon="5.47607">
        <ele>551</ele>
        <time>2022-03-07T10:05:38Z</time>
      </trkpt>
      <trkpt lat="46.56093" lon="5.47608">
        <ele>550.8</ele>
        <time>2022-03-07T10:05:39Z</time>
      </trkpt>
      <trkpt lat="46.56088" lon="5.47609">
        <ele>550.4</ele>
        <time>2022-03-07T10:05:40Z</time>
      </trkpt>
      <trkpt lat="46.56082" lon="5.4761">
        <ele>550</ele>
        <time>2022-03-07T10:05:41Z</time>
      </trkpt>
      <trkpt lat="46.56075" lon="5.4761">
        <ele>549.6</ele>
        <time>2022-03-07T10:05:42Z</time>
      </trkpt>
      <trkpt lat="46.56068" lon="5.47611">
        <ele>549.2</ele>
        <time>2022-03-07T10:05:43Z</time>
      </trkpt>
      <trkpt lat="46.56062" lon="5.47612">
        <ele>548.8</ele>
        <time>2022-03-07T10:05:44Z</time>
      </trkpt>
      <trkpt lat="46.56056" lon="5.47614">
        <ele>548.2</ele>
        <time>2022-03-07T10:05:45Z</time>
      </trkpt>
      <trkpt lat="46.56049" lon="5.47617">
        <ele>547.6</ele>
        <time>2022-03-07T10:05:46Z</time>
      </trkpt>
      <trkpt lat="46.56042" lon="5.47619">
        <ele>547</ele>
        <time>2022-03-07T10:05:47Z</time>
      </trkpt>
      <trkpt lat="46.56035" lon="5.4762">
        <ele>546.2</ele>
        <time>2022-03-07T10:05:48Z</time>
      </trkpt>
      <trkpt lat="46.56028" lon="5.47616">
        <ele>545.4</ele>
        <time>2022-03-07T10:05:49Z</time>
      </trkpt>
      <trkpt lat="46.56021" lon="5.47611">
        <ele>544.6</ele>
        <time>2022-03-07T10:05:50Z</time>
      </trkpt>
      <trkpt lat="46.56014" lon="5.47606">
        <ele>543.6</ele>
        <time>2022-03-07T10:05:51Z</time>
      </trkpt>
      <trkpt lat="46.56006" lon="5.47602">
        <ele>542.6</ele>
        <time>2022-03-07T10:05:52Z</time>
      </trkpt>
      <trkpt lat="46.55998" lon="5.476">
        <ele>541.6</ele>
        <time>2022-03-07T10:05:53Z</time>
      </trkpt>
      <trkpt lat="46.55989" lon="5.47602">
        <ele>540.6</ele>
        <time>2022-03-07T10:05:54Z</time>
      </trkpt>
      <trkpt lat="46.55981" lon="5.47605">
        <ele>539.4</ele>
        <time>2022-03-07T10:05:55Z</time>
      </trkpt>
      <trkpt lat="46.55973" lon="5.47609">
        <ele>538.4</ele>
        <time>2022-03-07T10:05:56Z</time>
      </trkpt>
      <trkpt lat="46.55966" lon="5.47614">
        <ele>537.4</ele>
        <time>2022-03-07T10:05:57Z</time>
      </trkpt>
      <trkpt lat="46.55959" lon="5.47618">
        <ele>536.4</ele>
        <time>2022-03-07T10:05:58Z</time>
      </trkpt>
      <trkpt lat="46.55954" lon="5.47623">
        <ele>535.2</ele>
        <time>2022-03-07T10:05:59Z</time>
      </trkpt>
      <trkpt lat="46.55949" lon="5.4763">
        <ele>534</ele>
        <time>2022-03-07T10:06:00Z</time>
      </trkpt>
      <trkpt lat="46.55945" lon="5.4764">
        <ele>533</ele>
        <time>2022-03-07T10:06:01Z</time>
      </trkpt>
      <trkpt lat="46.55942" lon="5.47651">
        <ele>532</ele>
        <time>2022-03-07T10:06:02Z</time>
      </trkpt>
      <trkpt lat="46.55939" lon="5.47663">
        <ele>530.8</ele>
        <time>2022-03-07T10:06:03Z</time>
      </trkpt>
      <trkpt lat="46.55936" lon="5.47676">
        <ele>529.8</ele>
        <time>2022-03-07T10:06:04Z</time>
      </trkpt>
      <trkpt lat="46.55932" lon="5.47689">
        <ele>529</ele>
        <time>2022-03-07T10:06:05Z</time>
      </trkpt>
      <trkpt lat="46.55928" lon="5.47702">
        <ele>528</ele>
        <time>2022-03-07T10:06:06Z</time>
      </trkpt>
      <trkpt lat="46.55925" lon="5.47714">
        <ele>526.8</ele>
        <time>2022-03-07T10:06:07Z</time>
      </trkpt>
      <trkpt lat="46.55923" lon="5.47725">
        <ele>526</ele>
        <time>2022-03-07T10:06:08Z</time>
      </trkpt>
      <trkpt lat="46.55921" lon="5.47735">
        <ele>524.8</ele>
        <time>2022-03-07T10:06:09Z</time>
      </trkpt>
      <trkpt lat="46.55921" lon="5.47744">
        <ele>523.8</ele>
        <time>2022-03-07T10:06:10Z</time>
      </trkpt>
      <trkpt lat="46.5592" lon="5.47752">
        <ele>522.8</ele>
        <time>2022-03-07T10:06:11Z</time>
      </trkpt>
      <trkpt lat="46.55919" lon="5.47758">
        <ele>521.8</ele>
        <time>2022-03-07T10:06:12Z</time>
      </trkpt>
      <trkpt lat="46.55915" lon="5.47762">
        <ele>520.8</ele>
        <time>2022-03-07T10:06:13Z</time>
      </trkpt>
      <trkpt lat="46.5591" lon="5.47764">
        <ele>520</ele>
        <time>2022-03-07T10:06:14Z</time>
      </trkpt>
      <trkpt lat="46.55904" lon="5.47764">
        <ele>519.2</ele>
        <time>2022-03-07T10:06:15Z</time>
      </trkpt>
      <trkpt lat="46.55896" lon="5.47762">
        <ele>518.4</ele>
        <time>2022-03-07T10:06:16Z</time>
      </trkpt>
      <trkpt lat="46.55888" lon="5.47758">
        <ele>517.6</ele>
        <time>2022-03-07T10:06:17Z</time>
      </trkpt>
      <trkpt lat="46.55879" lon="5.47755">
        <ele>516.6</ele>
        <time>2022-03-07T10:06:18Z</time>
      </trkpt>
      <trkpt lat="46.5587" lon="5.47751">
        <ele>515.8</ele>
        <time>2022-03-07T10:06:19Z</time>
      </trkpt>
      <trkpt lat="46.5586" lon="5.47746">
        <ele>514.8</ele>
        <time>2022-03-07T10:06:20Z</time>
      </trkpt>
      <trkpt lat="46.55852" lon="5.47741">
        <ele>513.6</ele>
        <time>2022-03-07T10:06:21Z</time>
      </trkpt>
      <trkpt lat="46.55846" lon="5.47735">
        <ele>512.6</ele>
        <time>2022-03-07T10:06:22Z</time>
      </trkpt>
      <trkpt lat="46.55841" lon="5.4773">
        <ele>511.4</ele>
        <time>2022-03-07T10:06:23Z</time>
      </trkpt>
      <trkpt lat="46.55837" lon="5.47727">
        <ele>510.4</ele>
        <time>2022-03-07T10:06:24Z</time>
      </trkpt>
      <trkpt lat="46.55833" lon="5.47727">
        <ele>509.6</ele>
        <time>2022-03-07T10:06:25Z</time>
      </trkpt>
      <trkpt lat="46.5583" lon="5.47728">
        <ele>508.8</ele>
        <time>2022-03-07T10:06:26Z</time>
      </trkpt>
      <trkpt lat="46.55828" lon="5.47734">
        <ele>508</ele>
        <time>2022-03-07T10:06:27Z</time>
      </trkpt>
      <trkpt lat="46.55827" lon="5.47742">
        <ele>507.4</ele>
        <time>2022-03-07T10:06:28Z</time>
      </trkpt>
      <trkpt lat="46.55828" lon="5.47751">
        <ele>506.6</ele>
        <time>2022-03-07T10:06:29Z</time>
      </trkpt>
      <trkpt lat="46.5583" lon="5.47761">
        <ele>505.8</ele>
        <time>2022-03-07T10:06:30Z</time>
      </trkpt>
      <trkpt lat="46.55831" lon="5.47772">
        <ele>505.2</ele>
        <time>2022-03-07T10:06:31Z</time>
      </trkpt>
      <trkpt lat="46.55833" lon="5.47781">
        <ele>504.4</ele>
        <time>2022-03-07T10:06:32Z</time>
      </trkpt>
      <trkpt lat="46.55835" lon="5.47791">
        <ele>503.6</ele>
        <time>2022-03-07T10:06:33Z</time>
      </trkpt>
      <trkpt lat="46.55837" lon="5.47801">
        <ele>502.6</ele>
        <time>2022-03-07T10:06:34Z</time>
      </trkpt>
      <trkpt lat="46.5584" lon="5.4781">
        <ele>501.6</ele>
        <time>2022-03-07T10:06:35Z</time>
      </trkpt>
      <trkpt lat="46.55844" lon="5.47819">
        <ele>500.6</ele>
        <time>2022-03-07T10:06:36Z</time>
      </trkpt>
      <trkpt lat="46.55849" lon="5.47826">
        <ele>499.6</ele>
        <time>2022-03-07T10:06:37Z</time>
      </trkpt>
      <trkpt lat="46.55854" lon="5.47833">
        <ele>498.8</ele>
        <time>2022-03-07T10:06:38Z</time>
      </trkpt>
      <trkpt lat="46.55861" lon="5.47839">
        <ele>497.8</ele>
        <time>2022-03-07T10:06:39Z</time>
      </trkpt>
      <trkpt lat="46.55868" lon="5.47844">
        <ele>496.8</ele>
        <time>2022-03-07T10:06:40Z</time>
      </trkpt>
      <trkpt lat="46.55876" lon="5.4785">
        <ele>495.6</ele>
        <time>2022-03-07T10:06:41Z</time>
      </trkpt>
      <trkpt lat="46.55884" lon="5.47855">
        <ele>494.6</ele>
        <time>2022-03-07T10:06:42Z</time>
      </trkpt>
      <trkpt lat="46.55892" lon="5.47861">
        <ele>493.4</ele>
        <time>2022-03-07T10:06:43Z</time>
      </trkpt>
      <trkpt lat="46.55899" lon="5.47869">
        <ele>492.2</ele>
        <time>2022-03-07T10:06:44Z</time>
      </trkpt>
      <trkpt lat="46.55906" lon="5.47877">
        <ele>491</ele>
        <time>2022-03-07T10:06:45Z</time>
      </trkpt>
      <trkpt lat="46.55914" lon="5.47887">
        <ele>490</ele>
        <time>2022-03-07T10:06:46Z</time>
      </trkpt>
      <trkpt lat="46.55921" lon="5.47897">
        <ele>489</ele>
        <time>2022-03-07T10:06:47Z</time>
      </trkpt>
      <trkpt lat="46.55927" lon="5.47909">
        <ele>487.8</ele>
        <time>2022-03-07T10:06:48Z</time>
      </trkpt>
      <trkpt lat="46.55933" lon="5.4792">
        <ele>486.6</ele>
        <time>2022-03-07T10:06:49Z</time>
      </trkpt>
      <trkpt lat="46.55939" lon="5.47931">
        <ele>485.4</ele>
        <time>2022-03-07T10:06:50Z</time>
      </trkpt>
      <trkpt lat="46.55944" lon="5.47942">
        <ele>484</ele>
        <time>2022-03-07T10:06:51Z</time>
      </trkpt>
      <trkpt lat="46.55949" lon="5.47951">
        <ele>482.8</ele>
        <time>2022-03-07T10:06:52Z</time>
      </trkpt>
      <trkpt lat="46.55953" lon="5.4796">
        <ele>481.4</ele>
        <time>2022-03-07T10:06:53Z</time>
      </trkpt>
      <trkpt lat="46.55957" lon="5.47967">
        <ele>480.2</ele>
        <time>2022-03-07T10:06:54Z</time>
      </trkpt>
      <trkpt lat="46.5596" lon="5.47974">
        <ele>479</ele>
        <time>2022-03-07T10:06:55Z</time>
      </trkpt>
      <trkpt lat="46.55963" lon="5.47979">
        <ele>478</ele>
        <time>2022-03-07T10:06:56Z</time>
      </trkpt>
      <trkpt lat="46.55965" lon="5.47984">
        <ele>477.2</ele>
        <time>2022-03-07T10:06:57Z</time>
      </trkpt>
      <trkpt lat="46.55966" lon="5.47988">
        <ele>476.4</ele>
        <time>2022-03-07T10:06:58Z</time>
      </trkpt>
      <trkpt lat="46.55965" lon="5.47991">
        <ele>475.8</ele>
        <time>2022-03-07T10:06:59Z</time>
      </trkpt>
      <trkpt lat="46.55963" lon="5.47993">
        <ele>475</ele>
        <time>2022-03-07T10:07:00Z</time>
      </trkpt>
      <trkpt lat="46.5596" lon="5.47994">
        <ele>474.2</ele>
        <time>2022-03-07T10:07:01Z</time>
      </trkpt>
      <trkpt lat="46.55956" lon="5.47991">
        <ele>473.6</ele>
        <time>2022-03-07T10:07:02Z</time>
      </trkpt>
      <trkpt lat="46.55951" lon="5.47987">
        <ele>473</ele>
        <time>2022-03-07T10:07:03Z</time>
      </trkpt>
      <trkpt lat="46.55947" lon="5.47983">
        <ele>472.2</ele>
        <time>2022-03-07T10:07:04Z</time>
      </trkpt>
      <trkpt lat="46.55941" lon="5.47978">
        <ele>471.6</ele>
        <time>2022-03-07T10:07:05Z</time>
      </trkpt>
      <trkpt lat="46.55936" lon="5.47974">
        <ele>470.8</ele>
        <time>2022-03-07T10:07:06Z</time>
      </trkpt>
      <trkpt lat="46.55931" lon="5.4797">
        <ele>470.2</ele>
        <time>2022-03-07T10:07:07Z</time>
      </trkpt>
      <trkpt lat="46.55927" lon="5.47968">
        <ele>469.4</ele>
        <time>2022-03-07T10:07:08Z</time>
      </trkpt>
      <trkpt lat="46.55923" lon="5.47967">
        <ele>468.8</ele>
        <time>2022-03-07T10:07:09Z</time>
      </trkpt>
      <trkpt lat="46.5592" lon="5.47969">
        <ele>468.2</ele>
        <time>2022-03-07T10:07:10Z</time>
      </trkpt>
      <trkpt lat="46.55919" lon="5.47973">
        <ele>467.6</ele>
        <time>2022-03-07T10:07:11Z</time>
      </trkpt>
      <trkpt lat="46.5592" lon="5.47979">
        <ele>467</ele>
        <time>2022-03-07T10:07:12Z</time>
      </trkpt>
      <trkpt lat="46.55922" lon="5.47985">
        <ele>466.6</ele>
        <time>2022-03-07T10:07:13Z</time>
      </trkpt>
      <trkpt lat="46.55926" lon="5.47991">
        <ele>466</ele>
        <time>2022-03-07T10:07:14Z</time>
      </trkpt>
      <trkpt lat="46.5593" lon="5.47996">
        <ele>465.6</ele>
        <time>2022-03-07T10:07:15Z</time>
      </trkpt>
      <trkpt lat="46.55935" lon="5.48001">
        <ele>465.2</ele>
        <time>2022-03-07T10:07:16Z</time>
      </trkpt>
      <trkpt lat="46.55941" lon="5.48007">
        <ele>464.6</ele>
        <time>2022-03-07T10:07:17Z</time>
      </trkpt>
      <trkpt lat="46.55946" lon="5.48013">
        <ele>464.4</ele>
        <time>2022-03-07T10:07:18Z</time>
      </trkpt>
      <trkpt lat="46.55951" lon="5.48019">
        <ele>463.8</ele>
        <time>2022-03-07T10:07:19Z</time>
      </trkpt>
      <trkpt lat="46.55956" lon="5.48026">
        <ele>463.4</ele>
        <time>2022-03-07T10:07:20Z</time>
      </trkpt>
      <trkpt lat="46.55961" lon="5.48033">
        <ele>462.8</ele>
        <time>2022-03-07T10:07:21Z</time>
      </trkpt>
      <trkpt lat="46.55966" lon="5.4804">
        <ele>462</ele>
        <time>2022-03-07T10:07:22Z</time>
      </trkpt>
      <trkpt lat="46.55972" lon="5.48047">
        <ele>461.2</ele>
        <time>2022-03-07T10:07:23Z</time>
      </trkpt>
      <trkpt lat="46.55978" lon="5.48055">
        <ele>460.2</ele>
        <time>2022-03-07T10:07:24Z</time>
      </trkpt>
      <trkpt lat="46.55984" lon="5.48063">
        <ele>459.2</ele>
        <time>2022-03-07T10:07:25Z</time>
      </trkpt>
      <trkpt lat="46.55991" lon="5.48071">
        <ele>458</ele>
        <time>2022-03-07T10:07:26Z</time>
      </trkpt>
      <trkpt lat="46.55997" lon="5.48079">
        <ele>456.8</ele>
        <time>2022-03-07T10:07:27Z</time>
      </trkpt>
      <trkpt lat="46.56003" lon="5.48085">
        <ele>455.8</ele>
        <time>2022-03-07T10:07:28Z</time>
      </trkpt>
      <trkpt lat="46.56009" lon="5.48091">
        <ele>454.6</ele>
        <time>2022-03-07T10:07:29Z</time>
      </trkpt>
      <trkpt lat="46.56014" lon="5.48098">
        <ele>453.4</ele>
        <time>2022-03-07T10:07:30Z</time>
      </trkpt>
      <trkpt lat="46.56017" lon="5.48105">
        <ele>452.4</ele>
        <time>2022-03-07T10:07:31Z</time>
      </trkpt>
      <trkpt lat="46.5602" lon="5.48113">
        <ele>451.4</ele>
        <time>2022-03-07T10:07:32Z</time>
      </trkpt>
      <trkpt lat="46.56022" lon="5.48122">
        <ele>450.6</ele>
        <time>2022-03-07T10:07:33Z</time>
      </trkpt>
      <trkpt lat="46.56021" lon="5.48133">
        <ele>449.8</ele>
        <time>2022-03-07T10:07:34Z</time>
      </trkpt>
      <trkpt lat="46.56019" lon="5.48144">
        <ele>449.2</ele>
        <time>2022-03-07T10:07:35Z</time>
      </trkpt>
      <trkpt lat="46.56017" lon="5.48155">
        <ele>448.6</ele>
        <time>2022-03-07T10:07:36Z</time>
      </trkpt>
      <trkpt lat="46.56013" lon="5.48164">
        <ele>448.2</ele>
        <time>2022-03-07T10:07:37Z</time>
      </trkpt>
      <trkpt lat="46.5601" lon="5.48174">
        <ele>447.8</ele>
        <time>2022-03-07T10:07:38Z</time>
      </trkpt>
      <trkpt lat="46.56008" lon="5.48183">
        <ele>447.4</ele>
        <time>2022-03-07T10:07:39Z</time>
      </trkpt>
      <trkpt lat="46.56004" lon="5.48192">
        <ele>447</ele>
        <time>2022-03-07T10:07:40Z</time>
      </trkpt>
      <trkpt lat="46.56" lon="5.48201">
        <ele>446.6</ele>
        <time>2022-03-07T10:07:41Z</time>
      </trkpt>
      <trkpt lat="46.55996" lon="5.48207">
        <ele>446.2</ele>
        <time>2022-03-07T10:07:42Z</time>
      </trkpt>
      <trkpt lat="46.55989" lon="5.48211">
        <ele>446</ele>
        <time>2022-03-07T10:07:43Z</time>
      </trkpt>
      <trkpt lat="46.55983" lon="5.48214">
        <ele>446</ele>
        <time>2022-03-07T10:07:44Z</time>
      </trkpt>
      <trkpt lat="46.55975" lon="5.48213">
        <ele>445.6</ele>
        <time>2022-03-07T10:07:45Z</time>
      </trkpt>
      <trkpt lat="46.55969" lon="5.48212">
        <ele>445.6</ele>
        <time>2022-03-07T10:07:46Z</time>
      </trkpt>
      <trkpt lat="46.55962" lon="5.48211">
        <ele>445.4</ele>
        <time>2022-03-07T10:07:47Z</time>
      </trkpt>
      <trkpt lat="46.55956" lon="5.48211">
        <ele>445.4</ele>
        <time>2022-03-07T10:07:48Z</time>
      </trkpt>
      <trkpt lat="46.5595" lon="5.48213">
        <ele>445</ele>
        <time>2022-03-07T10:07:49Z</time>
      </trkpt>
      <trkpt lat="46.55945" lon="5.48217">
        <ele>445</ele>
        <time>2022-03-07T10:07:50Z</time>
      </trkpt>
      <trkpt lat="46.5594" lon="5.48222">
        <ele>444.8</ele>
        <time>2022-03-07T10:07:51Z</time>
      </trkpt>
      <trkpt lat="46.55936" lon="5.48228">
        <ele>444.8</ele>
        <time>2022-03-07T10:07:52Z</time>
      </trkpt>
      <trkpt lat="46.55932" lon="5.48235">
        <ele>444.8</ele>
        <time>2022-03-07T10:07:53Z</time>
      </trkpt>
      <trkpt lat="46.55929" lon="5.48241">
        <ele>444.8</ele>
        <time>2022-03-07T10:07:54Z</time>
      </trkpt>
      <trkpt lat="46.55925" lon="5.48247">
        <ele>444.8</ele>
        <time>2022-03-07T10:07:55Z</time>
      </trkpt>
      <trkpt lat="46.55921" lon="5.48253">
        <ele>444.8</ele>
        <time>2022-03-07T10:07:56Z</time>
      </trkpt>
      <trkpt lat="46.55916" lon="5.48258">
        <ele>444.6</ele>
        <time>2022-03-07T10:07:57Z</time>
      </trkpt>
      <trkpt lat="46.55912" lon="5.48264">
        <ele>444.6</ele>
        <time>2022-03-07T10:07:58Z</time>
      </trkpt>
      <trkpt lat="46.55908" lon="5.4827">
        <ele>444.6</ele>
        <time>2022-03-07T10:07:59Z</time>
      </trkpt>
      <trkpt lat="46.55903" lon="5.48275">
        <ele>444.2</ele>
        <time>2022-03-07T10:08:00Z</time>
      </trkpt>
      <trkpt lat="46.55898" lon="5.48281">
        <ele>444.2</ele>
        <time>2022-03-07T10:08:01Z</time>
      </trkpt>
      <trkpt lat="46.55893" lon="5.48287">
        <ele>444.2</ele>
        <time>2022-03-07T10:08:02Z</time>
      </trkpt>
      <trkpt lat="46.55888" lon="5.48292">
        <ele>444.2</ele>
        <time>2022-03-07T10:08:03Z</time>
      </trkpt>
      <trkpt lat="46.55883" lon="5.48296">
        <ele>444.2</ele>
        <time>2022-03-07T10:08:04Z</time>
      </trkpt>
      <trkpt lat="46.55878" lon="5.483">
        <ele>444.2</ele>
        <time>2022-03-07T10:08:05Z</time>
      </trkpt>
      <trkpt lat="46.55873" lon="5.48302">
        <ele>444.2</ele>
        <time>2022-03-07T10:08:06Z</time>
      </trkpt>
      <trkpt lat="46.55869" lon="5.48303">
        <ele>444.4</ele>
        <time>2022-03-07T10:08:07Z</time>
      </trkpt>
      <trkpt lat="46.55865" lon="5.48304">
        <ele>444.4</ele>
        <time>2022-03-07T10:08:08Z</time>
      </trkpt>
      <trkpt lat="46.55861" lon="5.48305">
        <ele>445</ele>
        <time>2022-03-07T10:08:09Z</time>
      </trkpt>
      <trkpt lat="46.55859" lon="5.48304">
        <ele>445.2</ele>
        <time>2022-03-07T10:08:10Z</time>
      </trkpt>
      <trkpt lat="46.55856" lon="5.48304">
        <ele>445.2</ele>
        <time>2022-03-07T10:08:11Z</time>
      </trkpt>
      <trkpt lat="46.55854" lon="5.48304">
        <ele>445.6</ele>
        <time>2022-03-07T10:08:12Z</time>
      </trkpt>
      <trkpt lat="46.55852" lon="5.48304">
        <ele>445.8</ele>
        <time>2022-03-07T10:08:13Z</time>
      </trkpt>
      <trkpt lat="46.55849" lon="5.48304">
        <ele>445.8</ele>
        <time>2022-03-07T10:08:14Z</time>
      </trkpt>
      <trkpt lat="46.55847" lon="5.48303">
        <ele>446.2</ele>
        <time>2022-03-07T10:08:15Z</time>
      </trkpt>
      <trkpt lat="46.55845" lon="5.48303">
        <ele>446.2</ele>
        <time>2022-03-07T10:08:16Z</time>
      </trkpt>
      <trkpt lat="46.55843" lon="5.48302">
        <ele>446.4</ele>
        <time>2022-03-07T10:08:17Z</time>
      </trkpt>
      <trkpt lat="46.5584" lon="5.48302">
        <ele>446.4</ele>
        <time>2022-03-07T10:08:18Z</time>
      </trkpt>
      <trkpt lat="46.55838" lon="5.48301">
        <ele>446.8</ele>
        <time>2022-03-07T10:08:19Z</time>
      </trkpt>
      <trkpt lat="46.55836" lon="5.48301">
        <ele>447</ele>
        <time>2022-03-07T10:08:20Z</time>
      </trkpt>
      <trkpt lat="46.55833" lon="5.483">
        <ele>447.2</ele>
        <time>2022-03-07T10:08:21Z</time>
      </trkpt>
      <trkpt lat="46.55831" lon="5.483">
        <ele>447.2</ele>
        <time>2022-03-07T10:08:22Z</time>
      </trkpt>
      <trkpt lat="46.55829" lon="5.48299">
        <ele>447.6</ele>
        <time>2022-03-07T10:08:23Z</time>
      </trkpt>
      <trkpt lat="46.55827" lon="5.48299">
        <ele>447.6</ele>
        <time>2022-03-07T10:08:24Z</time>
      </trkpt>
      <trkpt lat="46.55824" lon="5.48299">
        <ele>448</ele>
        <time>2022-03-07T10:08:25Z</time>
      </trkpt>
      <trkpt lat="46.55822" lon="5.48298">
        <ele>448</ele>
        <time>2022-03-07T10:08:26Z</time>
      </trkpt>
      <trkpt lat="46.5582" lon="5.48297">
        <ele>448.4</ele>
        <time>2022-03-07T10:08:27Z</time>
      </trkpt>
      <trkpt lat="46.55818" lon="5.48297">
        <ele>448.4</ele>
        <time>2022-03-07T10:08:28Z</time>
      </trkpt>
      <trkpt lat="46.55816" lon="5.48296">
        <ele>448.8</ele>
        <time>2022-03-07T10:08:29Z</time>
      </trkpt>
      <trkpt lat="46.55814" lon="5.48295">
        <ele>449</ele>
        <time>2022-03-07T10:08:30Z</time>
      </trkpt>
      <trkpt lat="46.55812" lon="5.48295">
        <ele>449.2</ele>
        <time>2022-03-07T10:08:31Z</time>
      </trkpt>
      <trkpt lat="46.5581" lon="5.48294">
        <ele>449.6</ele>
        <time>2022-03-07T10:08:32Z</time>
      </trkpt>
      <trkpt lat="46.55808" lon="5.48293">
        <ele>449.8</ele>
        <time>2022-03-07T10:08:33Z</time>
      </trkpt>
      <trkpt lat="46.55806" lon="5.48293">
        <ele>450</ele>
        <time>2022-03-07T10:08:34Z</time>
      </trkpt>
      <trkpt lat="46.55803" lon="5.48292">
        <ele>450.2</ele>
        <time>2022-03-07T10:08:35Z</time>
      </trkpt>
      <trkpt lat="46.55801" lon="5.48291">
        <ele>450.4</ele>
        <time>2022-03-07T10:08:36Z</time>
      </trkpt>
      <trkpt lat="46.55799" lon="5.4829">
        <ele>450.4</ele>
        <time>2022-03-07T10:08:37Z</time>
      </trkpt>
      <trkpt lat="46.55797" lon="5.48289">
        <ele>450.8</ele>
        <time>2022-03-07T10:08:38Z</time>
      </trkpt>
      <trkpt lat="46.55794" lon="5.48289">
        <ele>450.8</ele>
        <time>2022-03-07T10:08:39Z</time>
      </trkpt>
      <trkpt lat="46.55792" lon="5.48288">
        <ele>451.2</ele>
        <time>2022-03-07T10:08:40Z</time>
      </trkpt>
      <trkpt lat="46.55789" lon="5.48288">
        <ele>451.2</ele>
        <time>2022-03-07T10:08:41Z</time>
      </trkpt>
      <trkpt lat="46.55787" lon="5.48287">
        <ele>451.4</ele>
        <time>2022-03-07T10:08:42Z</time>
      </trkpt>
      <trkpt lat="46.55785" lon="5.48286">
        <ele>451.4</ele>
        <time>2022-03-07T10:08:43Z</time>
      </trkpt>
      <trkpt lat="46.55783" lon="5.48285">
        <ele>451.8</ele>
        <time>2022-03-07T10:08:44Z</time>
      </trkpt>
      <trkpt lat="46.55781" lon="5.48284">
        <ele>451.8</ele>
        <time>2022-03-07T10:08:45Z</time>
      </trkpt>
      <trkpt lat="46.55779" lon="5.48283">
        <ele>452</ele>
        <time>2022-03-07T10:08:46Z</time>
      </trkpt>
      <trkpt lat="46.55777" lon="5.48282">
        <ele>452.4</ele>
        <time>2022-03-07T10:08:47Z</time>
      </trkpt>
      <trkpt lat="46.55775" lon="5.4828">
        <ele>452.4</ele>
        <time>2022-03-07T10:08:48Z</time>
      </trkpt>
      <trkpt lat="46.55773" lon="5.4828">
        <ele>452.6</ele>
        <time>2022-03-07T10:08:49Z</time>
      </trkpt>
      <trkpt lat="46.55771" lon="5.48278">
        <ele>452.6</ele>
        <time>2022-03-07T10:08:50Z</time>
      </trkpt>
      <trkpt lat="46.55769" lon="5.48277">
        <ele>453</ele>
        <time>2022-03-07T10:08:51Z</time>
      </trkpt>
      <trkpt lat="46.55768" lon="5.48275">
        <ele>453</ele>
        <time>2022-03-07T10:08:52Z</time>
      </trkpt>
      <trkpt lat="46.55766" lon="5.48274">
        <ele>453.2</ele>
        <time>2022-03-07T10:08:53Z</time>
      </trkpt>
      <trkpt lat="46.55764" lon="5.48273">
        <ele>453.2</ele>
        <time>2022-03-07T10:08:54Z</time>
      </trkpt>
      <trkpt lat="46.55762" lon="5.48271">
        <ele>453.6</ele>
        <time>2022-03-07T10:08:55Z</time>
      </trkpt>
      <trkpt lat="46.5576" lon="5.4827">
        <ele>453.6</ele>
        <time>2022-03-07T10:08:56Z</time>
      </trkpt>
      <trkpt lat="46.55758" lon="5.48269">
        <ele>453.8</ele>
        <time>2022-03-07T10:08:57Z</time>
      </trkpt>
      <trkpt lat="46.55756" lon="5.48267">
        <ele>454</ele>
        <time>2022-03-07T10:08:58Z</time>
      </trkpt>
      <trkpt lat="46.55754" lon="5.48266">
        <ele>454.2</ele>
        <time>2022-03-07T10:08:59Z</time>
      </trkpt>
      <trkpt lat="46.55753" lon="5.48265">
        <ele>454.4</ele>
        <time>2022-03-07T10:09:00Z</time>
      </trkpt>
      <trkpt lat="46.55751" lon="5.48264">
        <ele>454.4</ele>
        <time>2022-03-07T10:09:01Z</time>
      </trkpt>
      <trkpt lat="46.55749" lon="5.48263">
        <ele>454.8</ele>
        <time>2022-03-07T10:09:02Z</time>
      </trkpt>
      <trkpt lat="46.55747" lon="5.48262">
        <ele>454.8</ele>
        <time>2022-03-07T10:09:03Z</time>
      </trkpt>
      <trkpt lat="46.55745" lon="5.48261">
        <ele>455</ele>
        <time>2022-03-07T10:09:04Z</time>
      </trkpt>
      <trkpt lat="46.55743" lon="5.4826">
        <ele>455</ele>
        <time>2022-03-07T10:09:05Z</time>
      </trkpt>
      <trkpt lat="46.55741" lon="5.48259">
        <ele>455.4</ele>
        <time>2022-03-07T10:09:06Z</time>
      </trkpt>
      <trkpt lat="46.55739" lon="5.48257">
        <ele>455.4</ele>
        <time>2022-03-07T10:09:07Z</time>
      </trkpt>
      <trkpt lat="46.55737" lon="5.48256">
        <ele>455.6</ele>
        <time>2022-03-07T10:09:08Z</time>
      </trkpt>
      <trkpt lat="46.55735" lon="5.48256">
        <ele>455.6</ele>
        <time>2022-03-07T10:09:09Z</time>
      </trkpt>
      <trkpt lat="46.55733" lon="5.48257">
        <ele>455.8</ele>
        <time>2022-03-07T10:09:10Z</time>
      </trkpt>
      <trkpt lat="46.5573" lon="5.48258">
        <ele>455.8</ele>
        <time>2022-03-07T10:09:11Z</time>
      </trkpt>
      <trkpt lat="46.55728" lon="5.48259">
        <ele>455.8</ele>
        <time>2022-03-07T10:09:12Z</time>
      </trkpt>
      <trkpt lat="46.55727" lon="5.48261">
        <ele>456.2</ele>
        <time>2022-03-07T10:09:13Z</time>
      </trkpt>
      <trkpt lat="46.55725" lon="5.48263">
        <ele>456.2</ele>
        <time>2022-03-07T10:09:14Z</time>
      </trkpt>
      <trkpt lat="46.55724" lon="5.48265">
        <ele>456.4</ele>
        <time>2022-03-07T10:09:15Z</time>
      </trkpt>
      <trkpt lat="46.55723" lon="5.48267">
        <ele>456.4</ele>
        <time>2022-03-07T10:09:16Z</time>
      </trkpt>
      <trkpt lat="46.55723" lon="5.48267">
        <ele>456.8</ele>
        <time>2022-03-07T10:09:17Z</time>
      </trkpt>
      <trkpt lat="46.55722" lon="5.4827">
        <ele>456.8</ele>
        <time>2022-03-07T10:09:18Z</time>
      </trkpt>
      <trkpt lat="46.55721" lon="5.48274">
        <ele>456.8</ele>
        <time>2022-03-07T10:09:19Z</time>
      </trkpt>
      <trkpt lat="46.55721" lon="5.48277">
        <ele>456.8</ele>
        <time>2022-03-07T10:09:20Z</time>
      </trkpt>
      <trkpt lat="46.5572" lon="5.48281">
        <ele>457</ele>
        <time>2022-03-07T10:09:21Z</time>
      </trkpt>
      <trkpt lat="46.5572" lon="5.48284">
        <ele>457</ele>
        <time>2022-03-07T10:09:22Z</time>
      </trkpt>
      <trkpt lat="46.55721" lon="5.48288">
        <ele>457</ele>
        <time>2022-03-07T10:09:23Z</time>
      </trkpt>
      <trkpt lat="46.55722" lon="5.48292">
        <ele>457</ele>
        <time>2022-03-07T10:09:24Z</time>
      </trkpt>
      <trkpt lat="46.55722" lon="5.48295">
        <ele>457</ele>
        <time>2022-03-07T10:09:25Z</time>
      </trkpt>
      <trkpt lat="46.55722" lon="5.48299">
        <ele>457.2</ele>
        <time>2022-03-07T10:09:26Z</time>
      </trkpt>
      <trkpt lat="46.55723" lon="5.48304">
        <ele>457.2</ele>
        <time>2022-03-07T10:09:27Z</time>
      </trkpt>
      <trkpt lat="46.55723" lon="5.48308">
        <ele>457.2</ele>
        <time>2022-03-07T10:09:28Z</time>
      </trkpt>
      <trkpt lat="46.55723" lon="5.48313">
        <ele>457.2</ele>
        <time>2022-03-07T10:09:29Z</time>
      </trkpt>
      <trkpt lat="46.55723" lon="5.48318">
        <ele>457.2</ele>
        <time>2022-03-07T10:09:30Z</time>
      </trkpt>
      <trkpt lat="46.55723" lon="5.48322">
        <ele>457.2</ele>
        <time>2022-03-07T10:09:31Z</time>
      </trkpt>
      <trkpt lat="46.55722" lon="5.48326">
        <ele>457.2</ele>
        <time>2022-03-07T10:09:32Z</time>
      </trkpt>
      <trkpt lat="46.55722" lon="5.48331">
        <ele>457.4</ele>
        <time>2022-03-07T10:09:33Z</time>
      </trkpt>
      <trkpt lat="46.55721" lon="5.48334">
        <ele>457.4</ele>
        <time>2022-03-07T10:09:34Z</time>
      </trkpt>
      <trkpt lat="46.5572" lon="5.48338">
        <ele>457.4</ele>
        <time>2022-03-07T10:09:35Z</time>
      </trkpt>
      <trkpt lat="46.55719" lon="5.48343">
        <ele>457.4</ele>
        <time>2022-03-07T10:09:36Z</time>
      </trkpt>
      <trkpt lat="46.55718" lon="5.48347">
        <ele>457.4</ele>
        <time>2022-03-07T10:09:37Z</time>
      </trkpt>
      <trkpt lat="46.55717" lon="5.4835">
        <ele>457.8</ele>
        <time>2022-03-07T10:09:38Z</time>
      </trkpt>
      <trkpt lat="46.55715" lon="5.48354">
        <ele>457.8</ele>
        <time>2022-03-07T10:09:39Z</time>
      </trkpt>
      <trkpt lat="46.55714" lon="5.48358">
        <ele>457.8</ele>
        <time>2022-03-07T10:09:40Z</time>
      </trkpt>
      <trkpt lat="46.55713" lon="5.48361">
        <ele>458</ele>
        <time>2022-03-07T10:09:41Z</time>
      </trkpt>
      <trkpt lat="46.55712" lon="5.48365">
        <ele>458</ele>
        <time>2022-03-07T10:09:42Z</time>
      </trkpt>
      <trkpt lat="46.55711" lon="5.48368">
        <ele>458.4</ele>
        <time>2022-03-07T10:09:43Z</time>
      </trkpt>
      <trkpt lat="46.55709" lon="5.48371">
        <ele>458.4</ele>
        <time>2022-03-07T10:09:44Z</time>
      </trkpt>
      <trkpt lat="46.55708" lon="5.48375">
        <ele>458.6</ele>
        <time>2022-03-07T10:09:45Z</time>
      </trkpt>
      <trkpt lat="46.55707" lon="5.48378">
        <ele>458.6</ele>
        <time>2022-03-07T10:09:46Z</time>
      </trkpt>
      <trkpt lat="46.55705" lon="5.48381">
        <ele>458.8</ele>
        <time>2022-03-07T10:09:47Z</time>
      </trkpt>
      <trkpt lat="46.55704" lon="5.48385">
        <ele>458.8</ele>
        <time>2022-03-07T10:09:48Z</time>
      </trkpt>
      <trkpt lat="46.55703" lon="5.48388">
        <ele>459</ele>
        <time>2022-03-07T10:09:49Z</time>
      </trkpt>
      <trkpt lat="46.55701" lon="5.48392">
        <ele>459</ele>
        <time>2022-03-07T10:09:50Z</time>
      </trkpt>
      <trkpt lat="46.557" lon="5.48395">
        <ele>459.4</ele>
        <time>2022-03-07T10:09:51Z</time>
      </trkpt>
      <trkpt lat="46.55698" lon="5.48398">
        <ele>459.4</ele>
        <time>2022-03-07T10:09:52Z</time>
      </trkpt>
      <trkpt lat="46.55696" lon="5.48402">
        <ele>459.6</ele>
        <time>2022-03-07T10:09:53Z</time>
      </trkpt>
      <trkpt lat="46.55695" lon="5.48405">
        <ele>459.6</ele>
        <time>2022-03-07T10:09:54Z</time>
      </trkpt>
      <trkpt lat="46.55693" lon="5.48409">
        <ele>459.8</ele>
        <time>2022-03-07T10:09:55Z</time>
      </trkpt>
      <trkpt lat="46.55692" lon="5.48412">
        <ele>459.8</ele>
        <time>2022-03-07T10:09:56Z</time>
      </trkpt>
      <trkpt lat="46.5569" lon="5.48415">
        <ele>460.2</ele>
        <time>2022-03-07T10:09:57Z</time>
      </trkpt>
      <trkpt lat="46.55688" lon="5.48418">
        <ele>460.2</ele>
        <time>2022-03-07T10:09:58Z</time>
      </trkpt>
      <trkpt lat="46.55687" lon="5.48422">
        <ele>460.4</ele>
        <time>2022-03-07T10:09:59Z</time>
      </trkpt>
      <trkpt lat="46.55685" lon="5.48425">
        <ele>460.4</ele>
        <time>2022-03-07T10:10:00Z</time>
      </trkpt>
      <trkpt lat="46.55684" lon="5.48429">
        <ele>460.8</ele>
        <time>2022-03-07T10:10:01Z</time>
      </trkpt>
      <trkpt lat="46.55682" lon="5.48433">
        <ele>460.8</ele>
        <time>2022-03-07T10:10:02Z</time>
      </trkpt>
      <trkpt lat="46.55681" lon="5.48438">
        <ele>461.2</ele>
        <time>2022-03-07T10:10:03Z</time>
      </trkpt>
      <trkpt lat="46.5568" lon="5.48442">
        <ele>461.2</ele>
        <time>2022-03-07T10:10:04Z</time>
      </trkpt>
      <trkpt lat="46.5568" lon="5.48446">
        <ele>461.2</ele>
        <time>2022-03-07T10:10:05Z</time>
      </trkpt>
      <trkpt lat="46.5568" lon="5.4845">
        <ele>461.4</ele>
        <time>2022-03-07T10:10:06Z</time>
      </trkpt>
      <trkpt lat="46.5568" lon="5.48454">
        <ele>461.4</ele>
        <time>2022-03-07T10:10:07Z</time>
      </trkpt>
      <trkpt lat="46.5568" lon="5.48458">
        <ele>461.4</ele>
        <time>2022-03-07T10:10:08Z</time>
      </trkpt>
      <trkpt lat="46.5568" lon="5.48463">
        <ele>461.4</ele>
        <time>2022-03-07T10:10:09Z</time>
      </trkpt>
      <trkpt lat="46.5568" lon="5.48468">
        <ele>461.6</ele>
        <time>2022-03-07T10:10:10Z</time>
      </trkpt>
      <trkpt lat="46.5568" lon="5.48472">
        <ele>461.6</ele>
        <time>2022-03-07T10:10:11Z</time>
      </trkpt>
      <trkpt lat="46.5568" lon="5.48476">
        <ele>461.6</ele>
        <time>2022-03-07T10:10:12Z</time>
      </trkpt>
      <trkpt lat="46.5568" lon="5.48481">
        <ele>461.6</ele>
        <time>2022-03-07T10:10:13Z</time>
      </trkpt>
      <trkpt lat="46.55681" lon="5.48485">
        <ele>462</ele>
        <time>2022-03-07T10:10:14Z</time>
      </trkpt>
      <trkpt lat="46.55682" lon="5.48489">
        <ele>462</ele>
        <time>2022-03-07T10:10:15Z</time>
      </trkpt>
      <trkpt lat="46.55682" lon="5.48493">
        <ele>462</ele>
        <time>2022-03-07T10:10:16Z</time>
      </trkpt>
      <trkpt lat="46.55682" lon="5.48498">
        <ele>462</ele>
        <time>2022-03-07T10:10:17Z</time>
      </trkpt>
      <trkpt lat="46.55682" lon="5.48502">
        <ele>462.2</ele>
        <time>2022-03-07T10:10:18Z</time>
      </trkpt>
      <trkpt lat="46.55681" lon="5.48507">
        <ele>462.2</ele>
        <time>2022-03-07T10:10:19Z</time>
      </trkpt>
      <trkpt lat="46.55681" lon="5.48511">
        <ele>462.2</ele>
        <time>2022-03-07T10:10:20Z</time>
      </trkpt>
      <trkpt lat="46.55682" lon="5.48516">
        <ele>462.2</ele>
        <time>2022-03-07T10:10:21Z</time>
      </trkpt>
      <trkpt lat="46.55682" lon="5.4852">
        <ele>462.4</ele>
        <time>2022-03-07T10:10:22Z</time>
      </trkpt>
      <trkpt lat="46.55683" lon="5.48525">
        <ele>462.4</ele>
        <time>2022-03-07T10:10:23Z</time>
      </trkpt>
      <trkpt lat="46.55683" lon="5.48529">
        <ele>462.8</ele>
        <time>2022-03-07T10:10:24Z</time>
      </trkpt>
      <trkpt lat="46.55684" lon="5.48533">
        <ele>462.8</ele>
        <time>2022-03-07T10:10:25Z</time>
      </trkpt>
      <trkpt lat="46.55685" lon="5.48537">
        <ele>462.8</ele>
        <time>2022-03-07T10:10:26Z</time>
      </trkpt>
      <trkpt lat="46.55686" lon="5.48541">
        <ele>463</ele>
        <time>2022-03-07T10:10:27Z</time>
      </trkpt>
      <trkpt lat="46.55687" lon="5.48546">
        <ele>463</ele>
        <time>2022-03-07T10:10:28Z</time>
      </trkpt>
      <trkpt lat="46.55688" lon="5.4855">
        <ele>463</ele>
        <time>2022-03-07T10:10:29Z</time>
      </trkpt>
      <trkpt lat="46.55689" lon="5.48554">
        <ele>463.2</ele>
        <time>2022-03-07T10:10:30Z</time>
      </trkpt>
      <trkpt lat="46.5569" lon="5.48558">
        <ele>463.2</ele>
        <time>2022-03-07T10:10:31Z</time>
      </trkpt>
      <trkpt lat="46.55692" lon="5.48562">
        <ele>463.2</ele>
        <time>2022-03-07T10:10:32Z</time>
      </trkpt>
      <trkpt lat="46.55693" lon="5.48565">
        <ele>463.4</ele>
        <time>2022-03-07T10:10:33Z</time>
      </trkpt>
      <trkpt lat="46.55695" lon="5.48569">
        <ele>463.4</ele>
        <time>2022-03-07T10:10:34Z</time>
      </trkpt>
      <trkpt lat="46.55696" lon="5.48573">
        <ele>463.4</ele>
        <time>2022-03-07T10:10:35Z</time>
      </trkpt>
      <trkpt lat="46.55698" lon="5.48576">
        <ele>463.4</ele>
        <time>2022-03-07T10:10:36Z</time>
      </trkpt>
      <trkpt lat="46.557" lon="5.48579">
        <ele>463.8</ele>
        <time>2022-03-07T10:10:37Z</time>
      </trkpt>
      <trkpt lat="46.55702" lon="5.48583">
        <ele>463.8</ele>
        <time>2022-03-07T10:10:38Z</time>
      </trkpt>
      <trkpt lat="46.55704" lon="5.48586">
        <ele>463.8</ele>
        <time>2022-03-07T10:10:39Z</time>
      </trkpt>
      <trkpt lat="46.55706" lon="5.48589">
        <ele>464</ele>
        <time>2022-03-07T10:10:40Z</time>
      </trkpt>
      <trkpt lat="46.55708" lon="5.48592">
        <ele>464</ele>
        <time>2022-03-07T10:10:41Z</time>
      </trkpt>
      <trkpt lat="46.5571" lon="5.48596">
        <ele>464.2</ele>
        <time>2022-03-07T10:10:42Z</time>
      </trkpt>
      <trkpt lat="46.55712" lon="5.48599">
        <ele>464.2</ele>
        <time>2022-03-07T10:10:43Z</time>
      </trkpt>
      <trkpt lat="46.55714" lon="5.48602">
        <ele>464.2</ele>
        <time>2022-03-07T10:10:44Z</time>
      </trkpt>
      <trkpt lat="46.55717" lon="5.48605">
        <ele>464.4</ele>
        <time>2022-03-07T10:10:45Z</time>
      </trkpt>
      <trkpt lat="46.55719" lon="5.48608">
        <ele>464.4</ele>
        <time>2022-03-07T10:10:46Z</time>
      </trkpt>
      <trkpt lat="46.55721" lon="5.48612">
        <ele>464.4</ele>
        <time>2022-03-07T10:10:47Z</time>
      </trkpt>
      <trkpt lat="46.55723" lon="5.48616">
        <ele>464.4</ele>
        <time>2022-03-07T10:10:48Z</time>
      </trkpt>
      <trkpt lat="46.55726" lon="5.48619">
        <ele>464.8</ele>
        <time>2022-03-07T10:10:49Z</time>
      </trkpt>
      <trkpt lat="46.55728" lon="5.48623">
        <ele>464.8</ele>
        <time>2022-03-07T10:10:50Z</time>
      </trkpt>
      <trkpt lat="46.5573" lon="5.48626">
        <ele>464.8</ele>
        <time>2022-03-07T10:10:51Z</time>
      </trkpt>
      <trkpt lat="46.55732" lon="5.48629">
        <ele>465</ele>
        <time>2022-03-07T10:10:52Z</time>
      </trkpt>
      <trkpt lat="46.55734" lon="5.48632">
        <ele>465</ele>
        <time>2022-03-07T10:10:53Z</time>
      </trkpt>
      <trkpt lat="46.55736" lon="5.48635">
        <ele>465</ele>
        <time>2022-03-07T10:10:54Z</time>
      </trkpt>
      <trkpt lat="46.55738" lon="5.48638">
        <ele>465</ele>
        <time>2022-03-07T10:10:55Z</time>
      </trkpt>
      <trkpt lat="46.5574" lon="5.48641">
        <ele>465.2</ele>
        <time>2022-03-07T10:10:56Z</time>
      </trkpt>
      <trkpt lat="46.55742" lon="5.48643">
        <ele>465.2</ele>
        <time>2022-03-07T10:10:57Z</time>
      </trkpt>
      <trkpt lat="46.55744" lon="5.48646">
        <ele>465.4</ele>
        <time>2022-03-07T10:10:58Z</time>
      </trkpt>
      <trkpt lat="46.55746" lon="5.48649">
        <ele>465.4</ele>
        <time>2022-03-07T10:10:59Z</time>
      </trkpt>
      <trkpt lat="46.55748" lon="5.48652">
        <ele>465.8</ele>
        <time>2022-03-07T10:11:00Z</time>
      </trkpt>
      <trkpt lat="46.5575" lon="5.48655">
        <ele>465.8</ele>
        <time>2022-03-07T10:11:01Z</time>
      </trkpt>
      <trkpt lat="46.55752" lon="5.48658">
        <ele>466</ele>
        <time>2022-03-07T10:11:02Z</time>
      </trkpt>
      <trkpt lat="46.55754" lon="5.48661">
        <ele>466</ele>
        <time>2022-03-07T10:11:03Z</time>
      </trkpt>
      <trkpt lat="46.55756" lon="5.48664">
        <ele>466.4</ele>
        <time>2022-03-07T10:11:04Z</time>
      </trkpt>
      <trkpt lat="46.55757" lon="5.48667">
        <ele>466.4</ele>
        <time>2022-03-07T10:11:05Z</time>
      </trkpt>
      <trkpt lat="46.55759" lon="5.4867">
        <ele>466.8</ele>
        <time>2022-03-07T10:11:06Z</time>
      </trkpt>
      <trkpt lat="46.55761" lon="5.48673">
        <ele>466.8</ele>
        <time>2022-03-07T10:11:07Z</time>
      </trkpt>
      <trkpt lat="46.55762" lon="5.48676">
        <ele>467</ele>
        <time>2022-03-07T10:11:08Z</time>
      </trkpt>
      <trkpt lat="46.55764" lon="5.48679">
        <ele>467</ele>
        <time>2022-03-07T10:11:09Z</time>
      </trkpt>
      <trkpt lat="46.55765" lon="5.48682">
        <ele>467.2</ele>
        <time>2022-03-07T10:11:10Z</time>
      </trkpt>
      <trkpt lat="46.55766" lon="5.48685">
        <ele>467.2</ele>
        <time>2022-03-07T10:11:11Z</time>
      </trkpt>
      <trkpt lat="46.55767" lon="5.48689">
        <ele>467.4</ele>
        <time>2022-03-07T10:11:12Z</time>
      </trkpt>
      <trkpt lat="46.55769" lon="5.48692">
        <ele>467.4</ele>
        <time>2022-03-07T10:11:13Z</time>
      </trkpt>
      <trkpt lat="46.5577" lon="5.48696">
        <ele>467.4</ele>
        <time>2022-03-07T10:11:14Z</time>
      </trkpt>
      <trkpt lat="46.55771" lon="5.487">
        <ele>467.4</ele>
        <time>2022-03-07T10:11:15Z</time>
      </trkpt>
      <trkpt lat="46.55772" lon="5.48704">
        <ele>467.4</ele>
        <time>2022-03-07T10:11:16Z</time>
      </trkpt>
      <trkpt lat="46.55772" lon="5.48709">
        <ele>467.4</ele>
        <time>2022-03-07T10:11:17Z</time>
      </trkpt>
      <trkpt lat="46.55773" lon="5.48714">
        <ele>467.4</ele>
        <time>2022-03-07T10:11:18Z</time>
      </trkpt>
      <trkpt lat="46.55774" lon="5.48719">
        <ele>467.4</ele>
        <time>2022-03-07T10:11:19Z</time>
      </trkpt>
      <trkpt lat="46.55775" lon="5.48725">
        <ele>467.4</ele>
        <time>2022-03-07T10:11:20Z</time>
      </trkpt>
      <trkpt lat="46.55775" lon="5.48731">
        <ele>467.2</ele>
        <time>2022-03-07T10:11:21Z</time>
      </trkpt>
      <trkpt lat="46.55776" lon="5.48738">
        <ele>467.2</ele>
        <time>2022-03-07T10:11:22Z</time>
      </trkpt>
      <trkpt lat="46.55776" lon="5.48745">
        <ele>467.2</ele>
        <time>2022-03-07T10:11:23Z</time>
      </trkpt>
      <trkpt lat="46.55777" lon="5.48752">
        <ele>467</ele>
        <time>2022-03-07T10:11:24Z</time>
      </trkpt>
      <trkpt lat="46.55777" lon="5.4876">
        <ele>467</ele>
        <time>2022-03-07T10:11:25Z</time>
      </trkpt>
      <trkpt lat="46.55778" lon="5.48767">
        <ele>467</ele>
        <time>2022-03-07T10:11:26Z</time>
      </trkpt>
      <trkpt lat="46.55778" lon="5.48773">
        <ele>467</ele>
        <time>2022-03-07T10:11:27Z</time>
      </trkpt>
      <trkpt lat="46.55779" lon="5.4878">
        <ele>467</ele>
        <time>2022-03-07T10:11:28Z</time>
      </trkpt>
      <trkpt lat="46.55779" lon="5.48787">
        <ele>467</ele>
        <time>2022-03-07T10:11:29Z</time>
      </trkpt>
      <trkpt lat="46.5578" lon="5.48794">
        <ele>467</ele>
        <time>2022-03-07T10:11:30Z</time>
      </trkpt>
      <trkpt lat="46.5578" lon="5.488">
        <ele>467</ele>
        <time>2022-03-07T10:11:31Z</time>
      </trkpt>
      <trkpt lat="46.5578" lon="5.48806">
        <ele>467</ele>
        <time>2022-03-07T10:11:32Z</time>
      </trkpt>
      <trkpt lat="46.55781" lon="5.48812">
        <ele>467</ele>
        <time>2022-03-07T10:11:33Z</time>
      </trkpt>
      <trkpt lat="46.55781" lon="5.48817">
        <ele>467</ele>
        <time>2022-03-07T10:11:34Z</time>
      </trkpt>
      <trkpt lat="46.55781" lon="5.48823">
        <ele>467</ele>
        <time>2022-03-07T10:11:35Z</time>
      </trkpt>
      <trkpt lat="46.55781" lon="5.48828">
        <ele>467</ele>
        <time>2022-03-07T10:11:36Z</time>
      </trkpt>
      <trkpt lat="46.55781" lon="5.48832">
        <ele>467.2</ele>
        <time>2022-03-07T10:11:37Z</time>
      </trkpt>
      <trkpt lat="46.55781" lon="5.48837">
        <ele>467.2</ele>
        <time>2022-03-07T10:11:38Z</time>
      </trkpt>
      <trkpt lat="46.55782" lon="5.48842">
        <ele>467.4</ele>
        <time>2022-03-07T10:11:39Z</time>
      </trkpt>
      <trkpt lat="46.55782" lon="5.48846">
        <ele>467.8</ele>
        <time>2022-03-07T10:11:40Z</time>
      </trkpt>
      <trkpt lat="46.55782" lon="5.4885">
        <ele>467.8</ele>
        <time>2022-03-07T10:11:41Z</time>
      </trkpt>
      <trkpt lat="46.55783" lon="5.48855">
        <ele>468</ele>
        <time>2022-03-07T10:11:42Z</time>
      </trkpt>
      <trkpt lat="46.55783" lon="5.4886">
        <ele>468</ele>
        <time>2022-03-07T10:11:43Z</time>
      </trkpt>
      <trkpt lat="46.55784" lon="5.48864">
        <ele>468.4</ele>
        <time>2022-03-07T10:11:44Z</time>
      </trkpt>
      <trkpt lat="46.55784" lon="5.48869">
        <ele>468.6</ele>
        <time>2022-03-07T10:11:45Z</time>
      </trkpt>
      <trkpt lat="46.55784" lon="5.48874">
        <ele>468.8</ele>
        <time>2022-03-07T10:11:46Z</time>
      </trkpt>
      <trkpt lat="46.55784" lon="5.48879">
        <ele>469.2</ele>
        <time>2022-03-07T10:11:47Z</time>
      </trkpt>
      <trkpt lat="46.55784" lon="5.48884">
        <ele>469.4</ele>
        <time>2022-03-07T10:11:48Z</time>
      </trkpt>
      <trkpt lat="46.55785" lon="5.48888">
        <ele>469.4</ele>
        <time>2022-03-07T10:11:49Z</time>
      </trkpt>
      <trkpt lat="46.55785" lon="5.48893">
        <ele>469.6</ele>
        <time>2022-03-07T10:11:50Z</time>
      </trkpt>
      <trkpt lat="46.55785" lon="5.48897">
        <ele>469.6</ele>
        <time>2022-03-07T10:11:51Z</time>
      </trkpt>
      <trkpt lat="46.55785" lon="5.48902">
        <ele>470</ele>
        <time>2022-03-07T10:11:52Z</time>
      </trkpt>
      <trkpt lat="46.55785" lon="5.48907">
        <ele>470</ele>
        <time>2022-03-07T10:11:53Z</time>
      </trkpt>
      <trkpt lat="46.55785" lon="5.48911">
        <ele>470.2</ele>
        <time>2022-03-07T10:11:54Z</time>
      </trkpt>
      <trkpt lat="46.55785" lon="5.48915">
        <ele>470.2</ele>
        <time>2022-03-07T10:11:55Z</time>
      </trkpt>
      <trkpt lat="46.55784" lon="5.48919">
        <ele>470.6</ele>
        <time>2022-03-07T10:11:56Z</time>
      </trkpt>
      <trkpt lat="46.55784" lon="5.48923">
        <ele>470.6</ele>
        <time>2022-03-07T10:11:57Z</time>
      </trkpt>
      <trkpt lat="46.55783" lon="5.48928">
        <ele>470.8</ele>
        <time>2022-03-07T10:11:58Z</time>
      </trkpt>
      <trkpt lat="46.55782" lon="5.48932">
        <ele>470.8</ele>
        <time>2022-03-07T10:11:59Z</time>
      </trkpt>
      <trkpt lat="46.55781" lon="5.48936">
        <ele>471.2</ele>
        <time>2022-03-07T10:12:00Z</time>
      </trkpt>
      <trkpt lat="46.5578" lon="5.4894">
        <ele>471.2</ele>
        <time>2022-03-07T10:12:01Z</time>
      </trkpt>
      <trkpt lat="46.5578" lon="5.48944">
        <ele>471.6</ele>
        <time>2022-03-07T10:12:02Z</time>
      </trkpt>
      <trkpt lat="46.55779" lon="5.48948">
        <ele>471.6</ele>
        <time>2022-03-07T10:12:03Z</time>
      </trkpt>
      <trkpt lat="46.55778" lon="5.48952">
        <ele>472</ele>
        <time>2022-03-07T10:12:04Z</time>
      </trkpt>
      <trkpt lat="46.55777" lon="5.48956">
        <ele>472</ele>
        <time>2022-03-07T10:12:05Z</time>
      </trkpt>
      <trkpt lat="46.55776" lon="5.48961">
        <ele>472.2</ele>
        <time>2022-03-07T10:12:06Z</time>
      </trkpt>
      <trkpt lat="46.55775" lon="5.48965">
        <ele>472.2</ele>
        <time>2022-03-07T10:12:07Z</time>
      </trkpt>
      <trkpt lat="46.55774" lon="5.48969">
        <ele>472.4</ele>
        <time>2022-03-07T10:12:08Z</time>
      </trkpt>
      <trkpt lat="46.55773" lon="5.48972">
        <ele>472.4</ele>
        <time>2022-03-07T10:12:09Z</time>
      </trkpt>
      <trkpt lat="46.55772" lon="5.48976">
        <ele>472.4</ele>
        <time>2022-03-07T10:12:10Z</time>
      </trkpt>
      <trkpt lat="46.55771" lon="5.48979">
        <ele>472.8</ele>
        <time>2022-03-07T10:12:11Z</time>
      </trkpt>
      <trkpt lat="46.5577" lon="5.48983">
        <ele>473</ele>
        <time>2022-03-07T10:12:12Z</time>
      </trkpt>
      <trkpt lat="46.55769" lon="5.48986">
        <ele>473</ele>
        <time>2022-03-07T10:12:13Z</time>
      </trkpt>
      <trkpt lat="46.55767" lon="5.48989">
        <ele>473.4</ele>
        <time>2022-03-07T10:12:14Z</time>
      </trkpt>
      <trkpt lat="46.55766" lon="5.48992">
        <ele>473.6</ele>
        <time>2022-03-07T10:12:15Z</time>
      </trkpt>
      <trkpt lat="46.55765" lon="5.48995">
        <ele>473.8</ele>
        <time>2022-03-07T10:12:16Z</time>
      </trkpt>
      <trkpt lat="46.55764" lon="5.48999">
        <ele>473.8</ele>
        <time>2022-03-07T10:12:17Z</time>
      </trkpt>
      <trkpt lat="46.55763" lon="5.49002">
        <ele>474.2</ele>
        <time>2022-03-07T10:12:18Z</time>
      </trkpt>
      <trkpt lat="46.55761" lon="5.49006">
        <ele>474.2</ele>
        <time>2022-03-07T10:12:19Z</time>
      </trkpt>
      <trkpt lat="46.5576" lon="5.49008">
        <ele>474.4</ele>
        <time>2022-03-07T10:12:20Z</time>
      </trkpt>
      <trkpt lat="46.55758" lon="5.49011">
        <ele>474.4</ele>
        <time>2022-03-07T10:12:21Z</time>
      </trkpt>
      <trkpt lat="46.55756" lon="5.49014">
        <ele>474.8</ele>
        <time>2022-03-07T10:12:22Z</time>
      </trkpt>
      <trkpt lat="46.55754" lon="5.49017">
        <ele>474.8</ele>
        <time>2022-03-07T10:12:23Z</time>
      </trkpt>
      <trkpt lat="46.55753" lon="5.49019">
        <ele>475.2</ele>
        <time>2022-03-07T10:12:24Z</time>
      </trkpt>
      <trkpt lat="46.55751" lon="5.49022">
        <ele>475.4</ele>
        <time>2022-03-07T10:12:25Z</time>
      </trkpt>
      <trkpt lat="46.55749" lon="5.49024">
        <ele>475.4</ele>
        <time>2022-03-07T10:12:26Z</time>
      </trkpt>
      <trkpt lat="46.55747" lon="5.49027">
        <ele>475.6</ele>
        <time>2022-03-07T10:12:27Z</time>
      </trkpt>
      <trkpt lat="46.55745" lon="5.49029">
        <ele>475.6</ele>
        <time>2022-03-07T10:12:28Z</time>
      </trkpt>
      <trkpt lat="46.55743" lon="5.49031">
        <ele>476</ele>
        <time>2022-03-07T10:12:29Z</time>
      </trkpt>
      <trkpt lat="46.55741" lon="5.49033">
        <ele>476</ele>
        <time>2022-03-07T10:12:30Z</time>
      </trkpt>
      <trkpt lat="46.55739" lon="5.49034">
        <ele>476.2</ele>
        <time>2022-03-07T10:12:31Z</time>
      </trkpt>
      <trkpt lat="46.55737" lon="5.49036">
        <ele>476.2</ele>
        <time>2022-03-07T10:12:32Z</time>
      </trkpt>
      <trkpt lat="46.55735" lon="5.49038">
        <ele>476.6</ele>
        <time>2022-03-07T10:12:33Z</time>
      </trkpt>
      <trkpt lat="46.55733" lon="5.4904">
        <ele>476.8</ele>
        <time>2022-03-07T10:12:34Z</time>
      </trkpt>
      <trkpt lat="46.55731" lon="5.49042">
        <ele>476.8</ele>
        <time>2022-03-07T10:12:35Z</time>
      </trkpt>
      <trkpt lat="46.55729" lon="5.49044">
        <ele>477</ele>
        <time>2022-03-07T10:12:36Z</time>
      </trkpt>
      <trkpt lat="46.55727" lon="5.49046">
        <ele>477</ele>
        <time>2022-03-07T10:12:37Z</time>
      </trkpt>
      <trkpt lat="46.55724" lon="5.49048">
        <ele>477.4</ele>
        <time>2022-03-07T10:12:38Z</time>
      </trkpt>
      <trkpt lat="46.55722" lon="5.4905">
        <ele>477.4</ele>
        <time>2022-03-07T10:12:39Z</time>
      </trkpt>
      <trkpt lat="46.5572" lon="5.49052">
        <ele>477.6</ele>
        <time>2022-03-07T10:12:40Z</time>
      </trkpt>
      <trkpt lat="46.55717" lon="5.49054">
        <ele>477.8</ele>
        <time>2022-03-07T10:12:41Z</time>
      </trkpt>
      <trkpt lat="46.55715" lon="5.49056">
        <ele>477.8</ele>
        <time>2022-03-07T10:12:42Z</time>
      </trkpt>
      <trkpt lat="46.55713" lon="5.49058">
        <ele>478.2</ele>
        <time>2022-03-07T10:12:43Z</time>
      </trkpt>
      <trkpt lat="46.55711" lon="5.4906">
        <ele>478.2</ele>
        <time>2022-03-07T10:12:44Z</time>
      </trkpt>
      <trkpt lat="46.55708" lon="5.49063">
        <ele>478.4</ele>
        <time>2022-03-07T10:12:45Z</time>
      </trkpt>
      <trkpt lat="46.55706" lon="5.49064">
        <ele>478.4</ele>
        <time>2022-03-07T10:12:46Z</time>
      </trkpt>
      <trkpt lat="46.55704" lon="5.49066">
        <ele>478.8</ele>
        <time>2022-03-07T10:12:47Z</time>
      </trkpt>
      <trkpt lat="46.55702" lon="5.49069">
        <ele>478.8</ele>
        <time>2022-03-07T10:12:48Z</time>
      </trkpt>
      <trkpt lat="46.55701" lon="5.49071">
        <ele>479</ele>
        <time>2022-03-07T10:12:49Z</time>
      </trkpt>
      <trkpt lat="46.55699" lon="5.49074">
        <ele>479</ele>
        <time>2022-03-07T10:12:50Z</time>
      </trkpt>
      <trkpt lat="46.55697" lon="5.49077">
        <ele>479.4</ele>
        <time>2022-03-07T10:12:51Z</time>
      </trkpt>
      <trkpt lat="46.55695" lon="5.49079">
        <ele>479.4</ele>
        <time>2022-03-07T10:12:52Z</time>
      </trkpt>
      <trkpt lat="46.55694" lon="5.49082">
        <ele>479.6</ele>
        <time>2022-03-07T10:12:53Z</time>
      </trkpt>
      <trkpt lat="46.55692" lon="5.49084">
        <ele>479.6</ele>
        <time>2022-03-07T10:12:54Z</time>
      </trkpt>
      <trkpt lat="46.5569" lon="5.49087">
        <ele>480</ele>
        <time>2022-03-07T10:12:55Z</time>
      </trkpt>
      <trkpt lat="46.55689" lon="5.4909">
        <ele>480</ele>
        <time>2022-03-07T10:12:56Z</time>
      </trkpt>
      <trkpt lat="46.55687" lon="5.49092">
        <ele>480.2</ele>
        <time>2022-03-07T10:12:57Z</time>
      </trkpt>
      <trkpt lat="46.55686" lon="5.49095">
        <ele>480.6</ele>
        <time>2022-03-07T10:12:58Z</time>
      </trkpt>
      <trkpt lat="46.55684" lon="5.49098">
        <ele>480.8</ele>
        <time>2022-03-07T10:12:59Z</time>
      </trkpt>
      <trkpt lat="46.55683" lon="5.491">
        <ele>480.8</ele>
        <time>2022-03-07T10:13:00Z</time>
      </trkpt>
      <trkpt lat="46.55681" lon="5.49103">
        <ele>481.2</ele>
        <time>2022-03-07T10:13:01Z</time>
      </trkpt>
      <trkpt lat="46.5568" lon="5.49107">
        <ele>481.2</ele>
        <time>2022-03-07T10:13:02Z</time>
      </trkpt>
      <trkpt lat="46.55679" lon="5.4911">
        <ele>481.6</ele>
        <time>2022-03-07T10:13:03Z</time>
      </trkpt>
      <trkpt lat="46.55677" lon="5.49113">
        <ele>481.8</ele>
        <time>2022-03-07T10:13:04Z</time>
      </trkpt>
      <trkpt lat="46.55676" lon="5.49116">
        <ele>482</ele>
        <time>2022-03-07T10:13:05Z</time>
      </trkpt>
      <trkpt lat="46.55675" lon="5.49119">
        <ele>482</ele>
        <time>2022-03-07T10:13:06Z</time>
      </trkpt>
      <trkpt lat="46.55674" lon="5.49123">
        <ele>482.2</ele>
        <time>2022-03-07T10:13:07Z</time>
      </trkpt>
      <trkpt lat="46.55672" lon="5.49126">
        <ele>482.2</ele>
        <time>2022-03-07T10:13:08Z</time>
      </trkpt>
      <trkpt lat="46.55671" lon="5.49129">
        <ele>482.6</ele>
        <time>2022-03-07T10:13:09Z</time>
      </trkpt>
      <trkpt lat="46.5567" lon="5.49133">
        <ele>482.8</ele>
        <time>2022-03-07T10:13:10Z</time>
      </trkpt>
      <trkpt lat="46.55669" lon="5.49136">
        <ele>483</ele>
        <time>2022-03-07T10:13:11Z</time>
      </trkpt>
      <trkpt lat="46.55668" lon="5.4914">
        <ele>483</ele>
        <time>2022-03-07T10:13:12Z</time>
      </trkpt>
      <trkpt lat="46.55668" lon="5.49144">
        <ele>483.4</ele>
        <time>2022-03-07T10:13:13Z</time>
      </trkpt>
      <trkpt lat="46.55667" lon="5.49147">
        <ele>483.6</ele>
        <time>2022-03-07T10:13:14Z</time>
      </trkpt>
      <trkpt lat="46.55667" lon="5.49151">
        <ele>483.8</ele>
        <time>2022-03-07T10:13:15Z</time>
      </trkpt>
      <trkpt lat="46.55666" lon="5.49154">
        <ele>484</ele>
        <time>2022-03-07T10:13:16Z</time>
      </trkpt>
      <trkpt lat="46.55666" lon="5.49158">
        <ele>484</ele>
        <time>2022-03-07T10:13:17Z</time>
      </trkpt>
      <trkpt lat="46.55666" lon="5.49162">
        <ele>484.4</ele>
        <time>2022-03-07T10:13:18Z</time>
      </trkpt>
      <trkpt lat="46.55665" lon="5.49167">
        <ele>484.4</ele>
        <time>2022-03-07T10:13:19Z</time>
      </trkpt>
      <trkpt lat="46.55665" lon="5.49171">
        <ele>484.6</ele>
        <time>2022-03-07T10:13:20Z</time>
      </trkpt>
      <trkpt lat="46.55665" lon="5.49175">
        <ele>484.6</ele>
        <time>2022-03-07T10:13:21Z</time>
      </trkpt>
      <trkpt lat="46.55665" lon="5.49179">
        <ele>485</ele>
        <time>2022-03-07T10:13:22Z</time>
      </trkpt>
      <trkpt lat="46.55665" lon="5.49183">
        <ele>485</ele>
        <time>2022-03-07T10:13:23Z</time>
      </trkpt>
      <trkpt lat="46.55665" lon="5.49187">
        <ele>485.4</ele>
        <time>2022-03-07T10:13:24Z</time>
      </trkpt>
      <trkpt lat="46.55665" lon="5.49192">
        <ele>485.6</ele>
        <time>2022-03-07T10:13:25Z</time>
      </trkpt>
      <trkpt lat="46.55666" lon="5.49196">
        <ele>485.6</ele>
        <time>2022-03-07T10:13:26Z</time>
      </trkpt>
      <trkpt lat="46.55666" lon="5.492">
        <ele>485.8</ele>
        <time>2022-03-07T10:13:27Z</time>
      </trkpt>
      <trkpt lat="46.55667" lon="5.49204">
        <ele>485.8</ele>
        <time>2022-03-07T10:13:28Z</time>
      </trkpt>
      <trkpt lat="46.55668" lon="5.49208">
        <ele>486.2</ele>
        <time>2022-03-07T10:13:29Z</time>
      </trkpt>
      <trkpt lat="46.55669" lon="5.49212">
        <ele>486.2</ele>
        <time>2022-03-07T10:13:30Z</time>
      </trkpt>
      <trkpt lat="46.5567" lon="5.49215">
        <ele>486.6</ele>
        <time>2022-03-07T10:13:31Z</time>
      </trkpt>
      <trkpt lat="46.55671" lon="5.49219">
        <ele>486.8</ele>
        <time>2022-03-07T10:13:32Z</time>
      </trkpt>
      <trkpt lat="46.55672" lon="5.49223">
        <ele>487</ele>
        <time>2022-03-07T10:13:33Z</time>
      </trkpt>
      <trkpt lat="46.55674" lon="5.49226">
        <ele>487</ele>
        <time>2022-03-07T10:13:34Z</time>
      </trkpt>
      <trkpt lat="46.55675" lon="5.49229">
        <ele>487.4</ele>
        <time>2022-03-07T10:13:35Z</time>
      </trkpt>
      <trkpt lat="46.55677" lon="5.49233">
        <ele>487.4</ele>
        <time>2022-03-07T10:13:36Z</time>
      </trkpt>
      <trkpt lat="46.55679" lon="5.49236">
        <ele>487.8</ele>
        <time>2022-03-07T10:13:37Z</time>
      </trkpt>
      <trkpt lat="46.5568" lon="5.49239">
        <ele>487.8</ele>
        <time>2022-03-07T10:13:38Z</time>
      </trkpt>
      <trkpt lat="46.55682" lon="5.49242">
        <ele>488</ele>
        <time>2022-03-07T10:13:39Z</time>
      </trkpt>
      <trkpt lat="46.55684" lon="5.49245">
        <ele>488</ele>
        <time>2022-03-07T10:13:40Z</time>
      </trkpt>
      <trkpt lat="46.55686" lon="5.49248">
        <ele>488.4</ele>
        <time>2022-03-07T10:13:41Z</time>
      </trkpt>
      <trkpt lat="46.55687" lon="5.49251">
        <ele>488.6</ele>
        <time>2022-03-07T10:13:42Z</time>
      </trkpt>
      <trkpt lat="46.55689" lon="5.49254">
        <ele>489</ele>
        <time>2022-03-07T10:13:43Z</time>
      </trkpt>
      <trkpt lat="46.55691" lon="5.49257">
        <ele>489.2</ele>
        <time>2022-03-07T10:13:44Z</time>
      </trkpt>
      <trkpt lat="46.55693" lon="5.49259">
        <ele>489.2</ele>
        <time>2022-03-07T10:13:45Z</time>
      </trkpt>
      <trkpt lat="46.55695" lon="5.49262">
        <ele>489.4</ele>
        <time>2022-03-07T10:13:46Z</time>
      </trkpt>
      <trkpt lat="46.55696" lon="5.49266">
        <ele>489.4</ele>
        <time>2022-03-07T10:13:47Z</time>
      </trkpt>
      <trkpt lat="46.55697" lon="5.49269">
        <ele>489.8</ele>
        <time>2022-03-07T10:13:48Z</time>
      </trkpt>
      <trkpt lat="46.55698" lon="5.49272">
        <ele>489.8</ele>
        <time>2022-03-07T10:13:49Z</time>
      </trkpt>
      <trkpt lat="46.55698" lon="5.49276">
        <ele>490.2</ele>
        <time>2022-03-07T10:13:50Z</time>
      </trkpt>
      <trkpt lat="46.55698" lon="5.49279">
        <ele>490.2</ele>
        <time>2022-03-07T10:13:51Z</time>
      </trkpt>
      <trkpt lat="46.55697" lon="5.49282">
        <ele>490.4</ele>
        <time>2022-03-07T10:13:52Z</time>
      </trkpt>
      <trkpt lat="46.55695" lon="5.49285">
        <ele>490.8</ele>
        <time>2022-03-07T10:13:53Z</time>
      </trkpt>
      <trkpt lat="46.55693" lon="5.49288">
        <ele>490.8</ele>
        <time>2022-03-07T10:13:54Z</time>
      </trkpt>
      <trkpt lat="46.55691" lon="5.49289">
        <ele>491.2</ele>
        <time>2022-03-07T10:13:55Z</time>
      </trkpt>
      <trkpt lat="46.55688" lon="5.49289">
        <ele>491.4</ele>
        <time>2022-03-07T10:13:56Z</time>
      </trkpt>
      <trkpt lat="46.55686" lon="5.49289">
        <ele>491.6</ele>
        <time>2022-03-07T10:13:57Z</time>
      </trkpt>
      <trkpt lat="46.55684" lon="5.49288">
        <ele>492</ele>
        <time>2022-03-07T10:13:58Z</time>
      </trkpt>
      <trkpt lat="46.55681" lon="5.49288">
        <ele>492</ele>
        <time>2022-03-07T10:13:59Z</time>
      </trkpt>
      <trkpt lat="46.55679" lon="5.49287">
        <ele>492.2</ele>
        <time>2022-03-07T10:14:00Z</time>
      </trkpt>
      <trkpt lat="46.55677" lon="5.49285">
        <ele>492.4</ele>
        <time>2022-03-07T10:14:01Z</time>
      </trkpt>
      <trkpt lat="46.55675" lon="5.49284">
        <ele>492.4</ele>
        <time>2022-03-07T10:14:02Z</time>
      </trkpt>
      <trkpt lat="46.55672" lon="5.49283">
        <ele>492.8</ele>
        <time>2022-03-07T10:14:03Z</time>
      </trkpt>
      <trkpt lat="46.5567" lon="5.49282">
        <ele>492.8</ele>
        <time>2022-03-07T10:14:04Z</time>
      </trkpt>
      <trkpt lat="46.55667" lon="5.4928">
        <ele>493.2</ele>
        <time>2022-03-07T10:14:05Z</time>
      </trkpt>
      <trkpt lat="46.55665" lon="5.49279">
        <ele>493.2</ele>
        <time>2022-03-07T10:14:06Z</time>
      </trkpt>
      <trkpt lat="46.55663" lon="5.49277">
        <ele>493.4</ele>
        <time>2022-03-07T10:14:07Z</time>
      </trkpt>
      <trkpt lat="46.55661" lon="5.49276">
        <ele>493.4</ele>
        <time>2022-03-07T10:14:08Z</time>
      </trkpt>
      <trkpt lat="46.55659" lon="5.49275">
        <ele>493.6</ele>
        <time>2022-03-07T10:14:09Z</time>
      </trkpt>
      <trkpt lat="46.55657" lon="5.49273">
        <ele>493.6</ele>
        <time>2022-03-07T10:14:10Z</time>
      </trkpt>
      <trkpt lat="46.55655" lon="5.49272">
        <ele>494</ele>
        <time>2022-03-07T10:14:11Z</time>
      </trkpt>
      <trkpt lat="46.55653" lon="5.49271">
        <ele>494</ele>
        <time>2022-03-07T10:14:12Z</time>
      </trkpt>
      <trkpt lat="46.55651" lon="5.49269">
        <ele>494.2</ele>
        <time>2022-03-07T10:14:13Z</time>
      </trkpt>
      <trkpt lat="46.55649" lon="5.49268">
        <ele>494.2</ele>
        <time>2022-03-07T10:14:14Z</time>
      </trkpt>
      <trkpt lat="46.55647" lon="5.49267">
        <ele>494.4</ele>
        <time>2022-03-07T10:14:15Z</time>
      </trkpt>
      <trkpt lat="46.55645" lon="5.49266">
        <ele>494.4</ele>
        <time>2022-03-07T10:14:16Z</time>
      </trkpt>
      <trkpt lat="46.55642" lon="5.49265">
        <ele>494.4</ele>
        <time>2022-03-07T10:14:17Z</time>
      </trkpt>
      <trkpt lat="46.5564" lon="5.49264">
        <ele>494.8</ele>
        <time>2022-03-07T10:14:18Z</time>
      </trkpt>
      <trkpt lat="46.55637" lon="5.49263">
        <ele>494.8</ele>
        <time>2022-03-07T10:14:19Z</time>
      </trkpt>
      <trkpt lat="46.55635" lon="5.49261">
        <ele>494.8</ele>
        <time>2022-03-07T10:14:20Z</time>
      </trkpt>
      <trkpt lat="46.55632" lon="5.4926">
        <ele>495</ele>
        <time>2022-03-07T10:14:21Z</time>
      </trkpt>
      <trkpt lat="46.55629" lon="5.49259">
        <ele>495</ele>
        <time>2022-03-07T10:14:22Z</time>
      </trkpt>
      <trkpt lat="46.55627" lon="5.49258">
        <ele>495.4</ele>
        <time>2022-03-07T10:14:23Z</time>
      </trkpt>
      <trkpt lat="46.55624" lon="5.49256">
        <ele>495.4</ele>
        <time>2022-03-07T10:14:24Z</time>
      </trkpt>
      <trkpt lat="46.55621" lon="5.49255">
        <ele>495.6</ele>
        <time>2022-03-07T10:14:25Z</time>
      </trkpt>
      <trkpt lat="46.55618" lon="5.49254">
        <ele>495.6</ele>
        <time>2022-03-07T10:14:26Z</time>
      </trkpt>
      <trkpt lat="46.55616" lon="5.49253">
        <ele>495.6</ele>
        <time>2022-03-07T10:14:27Z</time>
      </trkpt>
      <trkpt lat="46.55613" lon="5.49252">
        <ele>496</ele>
        <time>2022-03-07T10:14:28Z</time>
      </trkpt>
      <trkpt lat="46.55611" lon="5.4925">
        <ele>496</ele>
        <time>2022-03-07T10:14:29Z</time>
      </trkpt>
      <trkpt lat="46.55608" lon="5.49249">
        <ele>496</ele>
        <time>2022-03-07T10:14:30Z</time>
      </trkpt>
      <trkpt lat="46.55606" lon="5.49247">
        <ele>496.2</ele>
        <time>2022-03-07T10:14:31Z</time>
      </trkpt>
      <trkpt lat="46.55603" lon="5.49245">
        <ele>496.2</ele>
        <time>2022-03-07T10:14:32Z</time>
      </trkpt>
      <trkpt lat="46.556" lon="5.49243">
        <ele>496.4</ele>
        <time>2022-03-07T10:14:33Z</time>
      </trkpt>
      <trkpt lat="46.55598" lon="5.49242">
        <ele>496.4</ele>
        <time>2022-03-07T10:14:34Z</time>
      </trkpt>
      <trkpt lat="46.55595" lon="5.49241">
        <ele>496.6</ele>
        <time>2022-03-07T10:14:35Z</time>
      </trkpt>
      <trkpt lat="46.55592" lon="5.49239">
        <ele>496.6</ele>
        <time>2022-03-07T10:14:36Z</time>
      </trkpt>
      <trkpt lat="46.5559" lon="5.49238">
        <ele>496.6</ele>
        <time>2022-03-07T10:14:37Z</time>
      </trkpt>
      <trkpt lat="46.55587" lon="5.49237">
        <ele>497</ele>
        <time>2022-03-07T10:14:38Z</time>
      </trkpt>
      <trkpt lat="46.55584" lon="5.49236">
        <ele>497</ele>
        <time>2022-03-07T10:14:39Z</time>
      </trkpt>
      <trkpt lat="46.55581" lon="5.49235">
        <ele>497.2</ele>
        <time>2022-03-07T10:14:40Z</time>
      </trkpt>
      <trkpt lat="46.55578" lon="5.49233">
        <ele>497.4</ele>
        <time>2022-03-07T10:14:41Z</time>
      </trkpt>
      <trkpt lat="46.55575" lon="5.49232">
        <ele>497.4</ele>
        <time>2022-03-07T10:14:42Z</time>
      </trkpt>
      <trkpt lat="46.55572" lon="5.49231">
        <ele>497.4</ele>
        <time>2022-03-07T10:14:43Z</time>
      </trkpt>
      <trkpt lat="46.55569" lon="5.49229">
        <ele>497.8</ele>
        <time>2022-03-07T10:14:44Z</time>
      </trkpt>
      <trkpt lat="46.55566" lon="5.49228">
        <ele>497.8</ele>
        <time>2022-03-07T10:14:45Z</time>
      </trkpt>
      <trkpt lat="46.55564" lon="5.49226">
        <ele>498.2</ele>
        <time>2022-03-07T10:14:46Z</time>
      </trkpt>
      <trkpt lat="46.55561" lon="5.49225">
        <ele>498.2</ele>
        <time>2022-03-07T10:14:47Z</time>
      </trkpt>
      <trkpt lat="46.55559" lon="5.49224">
        <ele>498.4</ele>
        <time>2022-03-07T10:14:48Z</time>
      </trkpt>
      <trkpt lat="46.55556" lon="5.49223">
        <ele>498.4</ele>
        <time>2022-03-07T10:14:49Z</time>
      </trkpt>
      <trkpt lat="46.55553" lon="5.49222">
        <ele>498.4</ele>
        <time>2022-03-07T10:14:50Z</time>
      </trkpt>
      <trkpt lat="46.55551" lon="5.4922">
        <ele>498.6</ele>
        <time>2022-03-07T10:14:51Z</time>
      </trkpt>
      <trkpt lat="46.55548" lon="5.49219">
        <ele>498.6</ele>
        <time>2022-03-07T10:14:52Z</time>
      </trkpt>
      <trkpt lat="46.55545" lon="5.49217">
        <ele>499</ele>
        <time>2022-03-07T10:14:53Z</time>
      </trkpt>
      <trkpt lat="46.55543" lon="5.49215">
        <ele>499</ele>
        <time>2022-03-07T10:14:54Z</time>
      </trkpt>
      <trkpt lat="46.5554" lon="5.49214">
        <ele>499.2</ele>
        <time>2022-03-07T10:14:55Z</time>
      </trkpt>
      <trkpt lat="46.55537" lon="5.49213">
        <ele>499.2</ele>
        <time>2022-03-07T10:14:56Z</time>
      </trkpt>
      <trkpt lat="46.55535" lon="5.49211">
        <ele>499.2</ele>
        <time>2022-03-07T10:14:57Z</time>
      </trkpt>
      <trkpt lat="46.55532" lon="5.4921">
        <ele>499.4</ele>
        <time>2022-03-07T10:14:58Z</time>
      </trkpt>
      <trkpt lat="46.55529" lon="5.49208">
        <ele>499.4</ele>
        <time>2022-03-07T10:14:59Z</time>
      </trkpt>
      <trkpt lat="46.55526" lon="5.49207">
        <ele>499.4</ele>
        <time>2022-03-07T10:15:00Z</time>
      </trkpt>
      <trkpt lat="46.55523" lon="5.49205">
        <ele>499.4</ele>
        <time>2022-03-07T10:15:01Z</time>
      </trkpt>
      <trkpt lat="46.5552" lon="5.49204">
        <ele>499.6</ele>
        <time>2022-03-07T10:15:02Z</time>
      </trkpt>
      <trkpt lat="46.55517" lon="5.49202">
        <ele>499.6</ele>
        <time>2022-03-07T10:15:03Z</time>
      </trkpt>
      <trkpt lat="46.55514" lon="5.492">
        <ele>499.6</ele>
        <time>2022-03-07T10:15:04Z</time>
      </trkpt>
      <trkpt lat="46.55511" lon="5.49199">
        <ele>499.6</ele>
        <time>2022-03-07T10:15:05Z</time>
      </trkpt>
      <trkpt lat="46.55508" lon="5.49196">
        <ele>499.6</ele>
        <time>2022-03-07T10:15:06Z</time>
      </trkpt>
      <trkpt lat="46.55504" lon="5.49194">
        <ele>499.8</ele>
        <time>2022-03-07T10:15:07Z</time>
      </trkpt>
      <trkpt lat="46.55501" lon="5.49192">
        <ele>499.8</ele>
        <time>2022-03-07T10:15:08Z</time>
      </trkpt>
      <trkpt lat="46.55498" lon="5.4919">
        <ele>499.8</ele>
        <time>2022-03-07T10:15:09Z</time>
      </trkpt>
      <trkpt lat="46.55494" lon="5.49189">
        <ele>500.2</ele>
        <time>2022-03-07T10:15:10Z</time>
      </trkpt>
      <trkpt lat="46.55491" lon="5.49187">
        <ele>500.2</ele>
        <time>2022-03-07T10:15:11Z</time>
      </trkpt>
      <trkpt lat="46.55488" lon="5.49184">
        <ele>500.2</ele>
        <time>2022-03-07T10:15:12Z</time>
      </trkpt>
      <trkpt lat="46.55486" lon="5.49181">
        <ele>500.2</ele>
        <time>2022-03-07T10:15:13Z</time>
      </trkpt>
      <trkpt lat="46.55483" lon="5.49179">
        <ele>500.4</ele>
        <time>2022-03-07T10:15:14Z</time>
      </trkpt>
      <trkpt lat="46.5548" lon="5.49176">
        <ele>500.4</ele>
        <time>2022-03-07T10:15:15Z</time>
      </trkpt>
      <trkpt lat="46.55477" lon="5.49173">
        <ele>500.4</ele>
        <time>2022-03-07T10:15:16Z</time>
      </trkpt>
      <trkpt lat="46.55474" lon="5.4917">
        <ele>500.4</ele>
        <time>2022-03-07T10:15:17Z</time>
      </trkpt>
      <trkpt lat="46.55472" lon="5.49167">
        <ele>500.4</ele>
        <time>2022-03-07T10:15:18Z</time>
      </trkpt>
      <trkpt lat="46.5547" lon="5.49164">
        <ele>500.4</ele>
        <time>2022-03-07T10:15:19Z</time>
      </trkpt>
      <trkpt lat="46.55467" lon="5.4916">
        <ele>500.6</ele>
        <time>2022-03-07T10:15:20Z</time>
      </trkpt>
      <trkpt lat="46.55464" lon="5.49158">
        <ele>500.6</ele>
        <time>2022-03-07T10:15:21Z</time>
      </trkpt>
      <trkpt lat="46.55461" lon="5.49155">
        <ele>500.6</ele>
        <time>2022-03-07T10:15:22Z</time>
      </trkpt>
      <trkpt lat="46.55458" lon="5.49153">
        <ele>500.6</ele>
        <time>2022-03-07T10:15:23Z</time>
      </trkpt>
      <trkpt lat="46.55455" lon="5.49151">
        <ele>500.6</ele>
        <time>2022-03-07T10:15:24Z</time>
      </trkpt>
      <trkpt lat="46.55453" lon="5.49148">
        <ele>500.6</ele>
        <time>2022-03-07T10:15:25Z</time>
      </trkpt>
      <trkpt lat="46.5545" lon="5.49145">
        <ele>501</ele>
        <time>2022-03-07T10:15:26Z</time>
      </trkpt>
      <trkpt lat="46.55447" lon="5.49142">
        <ele>501</ele>
        <time>2022-03-07T10:15:27Z</time>
      </trkpt>
      <trkpt lat="46.55445" lon="5.49139">
        <ele>501</ele>
        <time>2022-03-07T10:15:28Z</time>
      </trkpt>
      <trkpt lat="46.55442" lon="5.49135">
        <ele>501</ele>
        <time>2022-03-07T10:15:29Z</time>
      </trkpt>
      <trkpt lat="46.55439" lon="5.49132">
        <ele>501</ele>
        <time>2022-03-07T10:15:30Z</time>
      </trkpt>
      <trkpt lat="46.55436" lon="5.49129">
        <ele>501</ele>
        <time>2022-03-07T10:15:31Z</time>
      </trkpt>
      <trkpt lat="46.55433" lon="5.49126">
        <ele>501</ele>
        <time>2022-03-07T10:15:32Z</time>
      </trkpt>
      <trkpt lat="46.5543" lon="5.49122">
        <ele>501</ele>
        <time>2022-03-07T10:15:33Z</time>
      </trkpt>
      <trkpt lat="46.55427" lon="5.49119">
        <ele>501</ele>
        <time>2022-03-07T10:15:34Z</time>
      </trkpt>
      <trkpt lat="46.55424" lon="5.49115">
        <ele>501</ele>
        <time>2022-03-07T10:15:35Z</time>
      </trkpt>
      <trkpt lat="46.55421" lon="5.49112">
        <ele>501</ele>
        <time>2022-03-07T10:15:36Z</time>
      </trkpt>
      <trkpt lat="46.55418" lon="5.49109">
        <ele>500.8</ele>
        <time>2022-03-07T10:15:37Z</time>
      </trkpt>
      <trkpt lat="46.55415" lon="5.49107">
        <ele>500.8</ele>
        <time>2022-03-07T10:15:38Z</time>
      </trkpt>
      <trkpt lat="46.55411" lon="5.49106">
        <ele>500.8</ele>
        <time>2022-03-07T10:15:39Z</time>
      </trkpt>
      <trkpt lat="46.55407" lon="5.49105">
        <ele>500.6</ele>
        <time>2022-03-07T10:15:40Z</time>
      </trkpt>
      <trkpt lat="46.55403" lon="5.49105">
        <ele>500.6</ele>
        <time>2022-03-07T10:15:41Z</time>
      </trkpt>
      <trkpt lat="46.55399" lon="5.49105">
        <ele>500.2</ele>
        <time>2022-03-07T10:15:42Z</time>
      </trkpt>
      <trkpt lat="46.55395" lon="5.49106">
        <ele>500.2</ele>
        <time>2022-03-07T10:15:43Z</time>
      </trkpt>
      <trkpt lat="46.5539" lon="5.49107">
        <ele>500</ele>
        <time>2022-03-07T10:15:44Z</time>
      </trkpt>
      <trkpt lat="46.55385" lon="5.49108">
        <ele>499.6</ele>
        <time>2022-03-07T10:15:45Z</time>
      </trkpt>
      <trkpt lat="46.55381" lon="5.49108">
        <ele>499.4</ele>
        <time>2022-03-07T10:15:46Z</time>
      </trkpt>
      <trkpt lat="46.55375" lon="5.49109">
        <ele>499.4</ele>
        <time>2022-03-07T10:15:47Z</time>
      </trkpt>
      <trkpt lat="46.5537" lon="5.4911">
        <ele>499</ele>
        <time>2022-03-07T10:15:48Z</time>
      </trkpt>
      <trkpt lat="46.55364" lon="5.49111">
        <ele>498.6</ele>
        <time>2022-03-07T10:15:49Z</time>
      </trkpt>
      <trkpt lat="46.55357" lon="5.49113">
        <ele>498.2</ele>
        <time>2022-03-07T10:15:50Z</time>
      </trkpt>
      <trkpt lat="46.55351" lon="5.49115">
        <ele>498</ele>
        <time>2022-03-07T10:15:51Z</time>
      </trkpt>
      <trkpt lat="46.55344" lon="5.49119">
        <ele>497.4</ele>
        <time>2022-03-07T10:15:52Z</time>
      </trkpt>
      <trkpt lat="46.55337" lon="5.49124">
        <ele>497.2</ele>
        <time>2022-03-07T10:15:53Z</time>
      </trkpt>
      <trkpt lat="46.55332" lon="5.49131">
        <ele>496.8</ele>
        <time>2022-03-07T10:15:54Z</time>
      </trkpt>
      <trkpt lat="46.55327" lon="5.49138">
        <ele>496.4</ele>
        <time>2022-03-07T10:15:55Z</time>
      </trkpt>
      <trkpt lat="46.55322" lon="5.49147">
        <ele>496.2</ele>
        <time>2022-03-07T10:15:56Z</time>
      </trkpt>
      <trkpt lat="46.55318" lon="5.49156">
        <ele>496</ele>
        <time>2022-03-07T10:15:57Z</time>
      </trkpt>
      <trkpt lat="46.55314" lon="5.49165">
        <ele>495.6</ele>
        <time>2022-03-07T10:15:58Z</time>
      </trkpt>
      <trkpt lat="46.55311" lon="5.49174">
        <ele>495.6</ele>
        <time>2022-03-07T10:15:59Z</time>
      </trkpt>
      <trkpt lat="46.55308" lon="5.49183">
        <ele>495.4</ele>
        <time>2022-03-07T10:16:00Z</time>
      </trkpt>
      <trkpt lat="46.55304" lon="5.49191">
        <ele>495.4</ele>
        <time>2022-03-07T10:16:01Z</time>
      </trkpt>
      <trkpt lat="46.55301" lon="5.49199">
        <ele>495.4</ele>
        <time>2022-03-07T10:16:02Z</time>
      </trkpt>
      <trkpt lat="46.55294" lon="5.49214">
        <ele>495.2</ele>
        <time>2022-03-07T10:16:03Z</time>
      </trkpt>
      <trkpt lat="46.5529" lon="5.4922">
        <ele>495.2</ele>
        <time>2022-03-07T10:16:04Z</time>
      </trkpt>
      <trkpt lat="46.55287" lon="5.49226">
        <ele>495.2</ele>
        <time>2022-03-07T10:16:05Z</time>
      </trkpt>
      <trkpt lat="46.55284" lon="5.49232">
        <ele>495.2</ele>
        <time>2022-03-07T10:16:06Z</time>
      </trkpt>
      <trkpt lat="46.5528" lon="5.49236">
        <ele>495.2</ele>
        <time>2022-03-07T10:16:07Z</time>
      </trkpt>
      <trkpt lat="46.55277" lon="5.49241">
        <ele>495.2</ele>
        <time>2022-03-07T10:16:08Z</time>
      </trkpt>
      <trkpt lat="46.55274" lon="5.49246">
        <ele>495.4</ele>
        <time>2022-03-07T10:16:09Z</time>
      </trkpt>
      <trkpt lat="46.55272" lon="5.4925">
        <ele>495.4</ele>
        <time>2022-03-07T10:16:10Z</time>
      </trkpt>
      <trkpt lat="46.55269" lon="5.49254">
        <ele>495.6</ele>
        <time>2022-03-07T10:16:11Z</time>
      </trkpt>
      <trkpt lat="46.55267" lon="5.49258">
        <ele>495.6</ele>
        <time>2022-03-07T10:16:12Z</time>
      </trkpt>
      <trkpt lat="46.55264" lon="5.49262">
        <ele>496</ele>
        <time>2022-03-07T10:16:13Z</time>
      </trkpt>
      <trkpt lat="46.55262" lon="5.49266">
        <ele>496</ele>
        <time>2022-03-07T10:16:14Z</time>
      </trkpt>
      <trkpt lat="46.55259" lon="5.4927">
        <ele>496.2</ele>
        <time>2022-03-07T10:16:15Z</time>
      </trkpt>
      <trkpt lat="46.55257" lon="5.49274">
        <ele>496.2</ele>
        <time>2022-03-07T10:16:16Z</time>
      </trkpt>
      <trkpt lat="46.55255" lon="5.49278">
        <ele>496.4</ele>
        <time>2022-03-07T10:16:17Z</time>
      </trkpt>
      <trkpt lat="46.55253" lon="5.49282">
        <ele>496.4</ele>
        <time>2022-03-07T10:16:18Z</time>
      </trkpt>
      <trkpt lat="46.55251" lon="5.49285">
        <ele>496.8</ele>
        <time>2022-03-07T10:16:19Z</time>
      </trkpt>
      <trkpt lat="46.5525" lon="5.49288">
        <ele>496.8</ele>
        <time>2022-03-07T10:16:20Z</time>
      </trkpt>
      <trkpt lat="46.5525" lon="5.4929">
        <ele>497</ele>
        <time>2022-03-07T10:16:21Z</time>
      </trkpt>
      <trkpt lat="46.55249" lon="5.49293">
        <ele>497</ele>
        <time>2022-03-07T10:16:22Z</time>
      </trkpt>
      <trkpt lat="46.55249" lon="5.49294">
        <ele>497</ele>
        <time>2022-03-07T10:16:23Z</time>
      </trkpt>
      <trkpt lat="46.55249" lon="5.49297">
        <ele>497.2</ele>
        <time>2022-03-07T10:16:24Z</time>
      </trkpt>
      <trkpt lat="46.55249" lon="5.49299">
        <ele>497.2</ele>
        <time>2022-03-07T10:16:25Z</time>
      </trkpt>
      <trkpt lat="46.5525" lon="5.49302">
        <ele>497.2</ele>
        <time>2022-03-07T10:16:26Z</time>
      </trkpt>
      <trkpt lat="46.55252" lon="5.49305">
        <ele>497.2</ele>
        <time>2022-03-07T10:16:27Z</time>
      </trkpt>
      <trkpt lat="46.55254" lon="5.49308">
        <ele>497.2</ele>
        <time>2022-03-07T10:16:28Z</time>
      </trkpt>
      <trkpt lat="46.55256" lon="5.49311">
        <ele>497</ele>
        <time>2022-03-07T10:16:29Z</time>
      </trkpt>
      <trkpt lat="46.55259" lon="5.49314">
        <ele>497</ele>
        <time>2022-03-07T10:16:30Z</time>
      </trkpt>
      <trkpt lat="46.55261" lon="5.49317">
        <ele>497</ele>
        <time>2022-03-07T10:16:31Z</time>
      </trkpt>
      <trkpt lat="46.55264" lon="5.49321">
        <ele>497</ele>
        <time>2022-03-07T10:16:32Z</time>
      </trkpt>
      <trkpt lat="46.55266" lon="5.49324">
        <ele>497</ele>
        <time>2022-03-07T10:16:33Z</time>
      </trkpt>
      <trkpt lat="46.55269" lon="5.49327">
        <ele>497</ele>
        <time>2022-03-07T10:16:34Z</time>
      </trkpt>
      <trkpt lat="46.55271" lon="5.4933">
        <ele>497</ele>
        <time>2022-03-07T10:16:35Z</time>
      </trkpt>
      <trkpt lat="46.55275" lon="5.49332">
        <ele>497</ele>
        <time>2022-03-07T10:16:36Z</time>
      </trkpt>
      <trkpt lat="46.55278" lon="5.49334">
        <ele>497</ele>
        <time>2022-03-07T10:16:37Z</time>
      </trkpt>
      <trkpt lat="46.55281" lon="5.49336">
        <ele>497</ele>
        <time>2022-03-07T10:16:38Z</time>
      </trkpt>
      <trkpt lat="46.55285" lon="5.49337">
        <ele>497</ele>
        <time>2022-03-07T10:16:39Z</time>
      </trkpt>
      <trkpt lat="46.55289" lon="5.49339">
        <ele>497</ele>
        <time>2022-03-07T10:16:40Z</time>
      </trkpt>
      <trkpt lat="46.55292" lon="5.49341">
        <ele>496.8</ele>
        <time>2022-03-07T10:16:41Z</time>
      </trkpt>
      <trkpt lat="46.55296" lon="5.49342">
        <ele>496.8</ele>
        <time>2022-03-07T10:16:42Z</time>
      </trkpt>
      <trkpt lat="46.553" lon="5.49343">
        <ele>496.8</ele>
        <time>2022-03-07T10:16:43Z</time>
      </trkpt>
      <trkpt lat="46.55303" lon="5.49344">
        <ele>496.8</ele>
        <time>2022-03-07T10:16:44Z</time>
      </trkpt>
      <trkpt lat="46.55307" lon="5.49345">
        <ele>496.8</ele>
        <time>2022-03-07T10:16:45Z</time>
      </trkpt>
      <trkpt lat="46.5531" lon="5.49346">
        <ele>496.6</ele>
        <time>2022-03-07T10:16:46Z</time>
      </trkpt>
      <trkpt lat="46.55313" lon="5.49347">
        <ele>496.6</ele>
        <time>2022-03-07T10:16:47Z</time>
      </trkpt>
      <trkpt lat="46.55316" lon="5.49349">
        <ele>496.6</ele>
        <time>2022-03-07T10:16:48Z</time>
      </trkpt>
      <trkpt lat="46.55317" lon="5.49352">
        <ele>496.4</ele>
        <time>2022-03-07T10:16:49Z</time>
      </trkpt>
      <trkpt lat="46.55318" lon="5.49355">
        <ele>496.4</ele>
        <time>2022-03-07T10:16:50Z</time>
      </trkpt>
      <trkpt lat="46.55319" lon="5.49357">
        <ele>496.4</ele>
        <time>2022-03-07T10:16:51Z</time>
      </trkpt>
      <trkpt lat="46.55319" lon="5.49357">
        <ele>496.4</ele>
        <time>2022-03-07T10:16:52Z</time>
      </trkpt>
      <trkpt lat="46.55321" lon="5.49355">
        <ele>496.4</ele>
        <time>2022-03-07T10:16:53Z</time>
      </trkpt>
      <trkpt lat="46.55321" lon="5.49353">
        <ele>496.4</ele>
        <time>2022-03-07T10:16:54Z</time>
      </trkpt>
      <trkpt lat="46.5532" lon="5.49351">
        <ele>496.4</ele>
        <time>2022-03-07T10:16:55Z</time>
      </trkpt>
      <trkpt lat="46.55319" lon="5.4935">
        <ele>496.4</ele>
        <time>2022-03-07T10:16:56Z</time>
      </trkpt>
      <trkpt lat="46.55317" lon="5.4935">
        <ele>496.4</ele>
        <time>2022-03-07T10:16:57Z</time>
      </trkpt>
      <trkpt lat="46.55316" lon="5.4935">
        <ele>496.2</ele>
        <time>2022-03-07T10:16:58Z</time>
      </trkpt>
      <trkpt lat="46.55314" lon="5.49351">
        <ele>496.2</ele>
        <time>2022-03-07T10:16:59Z</time>
      </trkpt>
      <trkpt lat="46.55313" lon="5.49351">
        <ele>496.2</ele>
        <time>2022-03-07T10:17:00Z</time>
      </trkpt>
      <trkpt lat="46.55311" lon="5.49353">
        <ele>496.2</ele>
        <time>2022-03-07T10:17:01Z</time>
      </trkpt>
      <trkpt lat="46.5531" lon="5.49355">
        <ele>496.2</ele>
        <time>2022-03-07T10:17:02Z</time>
      </trkpt>
      <trkpt lat="46.55309" lon="5.49356">
        <ele>496.2</ele>
        <time>2022-03-07T10:17:03Z</time>
      </trkpt>
      <trkpt lat="46.55309" lon="5.49356">
        <ele>496.2</ele>
        <time>2022-03-07T10:17:04Z</time>
      </trkpt>
      <trkpt lat="46.55309" lon="5.49356">
        <ele>496.2</ele>
        <time>2022-03-07T10:17:05Z</time>
      </trkpt>
      <trkpt lat="46.55309" lon="5.49356">
        <ele>496.2</ele>
        <time>2022-03-07T10:17:06Z</time>
      </trkpt>
      <trkpt lat="46.55309" lon="5.49356">
        <ele>496.2</ele>
        <time>2022-03-07T10:17:07Z</time>
      </trkpt>
      <trkpt lat="46.55309" lon="5.49356">
        <ele>496.2</ele>
        <time>2022-03-07T10:17:09Z</time>
      </trkpt>
      <trkpt lat="46.55309" lon="5.49356">
        <ele>496.2</ele>
        <time>2022-03-07T10:17:10Z</time>
      </trkpt>
      <trkpt lat="46.55309" lon="5.49356">
        <ele>496.2</ele>
        <time>2022-03-07T10:17:13Z</time>
      </trkpt>
      <trkpt lat="46.55309" lon="5.49356">
        <ele>496.2</ele>
        <time>2022-03-07T10:17:14Z</time>
      </trkpt>
      <trkpt lat="46.55309" lon="5.49356">
        <ele>496.2</ele>
        <time>2022-03-07T10:17:15Z</time>
      </trkpt>
      <trkpt lat="46.55309" lon="5.49356">
        <ele>496.2</ele>
        <time>2022-03-07T10:17:19Z</time>
      </trkpt>
      <trkpt lat="46.55309" lon="5.49356">
        <ele>496.2</ele>
        <time>2022-03-07T10:17:20Z</time>
      </trkpt>
      <trkpt lat="46.55309" lon="5.49356">
        <ele>496.2</ele>
        <time>2022-03-07T10:17:39Z</time>
      </trkpt>
      <trkpt lat="46.55309" lon="5.49356">
        <ele>496.2</ele>
        <time>2022-03-07T10:17:40Z</time>
      </trkpt>
      <trkpt lat="46.55309" lon="5.49356">
        <ele>496.2</ele>
        <time>2022-03-07T10:17:43Z</time>
      </trkpt>
      <trkpt lat="46.55309" lon="5.49356">
        <ele>496.2</ele>
        <time>2022-03-07T10:17:44Z</time>
      </trkpt>
      <trkpt lat="46.55309" lon="5.49356">
        <ele>496.2</ele>
        <time>2022-03-07T10:17:50Z</time>
      </trkpt>
      <trkpt lat="46.55309" lon="5.49356">
        <ele>496.2</ele>
        <time>2022-03-07T10:17:51Z</time>
      </trkpt>
      <trkpt lat="46.55309" lon="5.49356">
        <ele>496.2</ele>
        <time>2022-03-07T10:17:52Z</time>
      </trkpt>
      <trkpt lat="46.55309" lon="5.49356">
        <ele>496.2</ele>
        <time>2022-03-07T10:17:53Z</time>
      </trkpt>
      <trkpt lat="46.55309" lon="5.49356">
        <ele>496.2</ele>
        <time>2022-03-07T10:17:54Z</time>
      </trkpt>
      <trkpt lat="46.55309" lon="5.49356">
        <ele>496.2</ele>
        <time>2022-03-07T10:18:00Z</time>
      </trkpt>
      <trkpt lat="46.55309" lon="5.49356">
        <ele>496.2</ele>
        <time>2022-03-07T10:18:01Z</time>
      </trkpt>
      <trkpt lat="46.55309" lon="5.49356">
        <ele>496.4</ele>
        <time>2022-03-07T10:18:13Z</time>
      </trkpt>
      <trkpt lat="46.55309" lon="5.49356">
        <ele>496.4</ele>
        <time>2022-03-07T10:18:14Z</time>
      </trkpt>
      <trkpt lat="46.55309" lon="5.49356">
        <ele>496.6</ele>
        <time>2022-03-07T10:18:29Z</time>
      </trkpt>
      <trkpt lat="46.55309" lon="5.49356">
        <ele>496.6</ele>
        <time>2022-03-07T10:18:30Z</time>
      </trkpt>
      <trkpt lat="46.5531" lon="5.49356">
        <ele>496.6</ele>
        <time>2022-03-07T10:18:31Z</time>
      </trkpt>
      <trkpt lat="46.5531" lon="5.49356">
        <ele>496.6</ele>
        <time>2022-03-07T10:18:32Z</time>
      </trkpt>
      <trkpt lat="46.5531" lon="5.49355">
        <ele>496.6</ele>
        <time>2022-03-07T10:18:33Z</time>
      </trkpt>
      <trkpt lat="46.5531" lon="5.49355">
        <ele>496.4</ele>
        <time>2022-03-07T10:18:34Z</time>
      </trkpt>
      <trkpt lat="46.5531" lon="5.49355">
        <ele>496.4</ele>
        <time>2022-03-07T10:18:35Z</time>
      </trkpt>
      <trkpt lat="46.5531" lon="5.49355">
        <ele>496.4</ele>
        <time>2022-03-07T10:18:36Z</time>
      </trkpt>
      <trkpt lat="46.5531" lon="5.49355">
        <ele>496.4</ele>
        <time>2022-03-07T10:18:37Z</time>
      </trkpt>
      <trkpt lat="46.5531" lon="5.49355">
        <ele>496.4</ele>
        <time>2022-03-07T10:18:41Z</time>
      </trkpt>
      <trkpt lat="46.5531" lon="5.49355">
        <ele>496.4</ele>
        <time>2022-03-07T10:18:42Z</time>
      </trkpt>
      <trkpt lat="46.5531" lon="5.49355">
        <ele>496.4</ele>
        <time>2022-03-07T10:18:44Z</time>
      </trkpt>
      <trkpt lat="46.5531" lon="5.49355">
        <ele>496.4</ele>
        <time>2022-03-07T10:18:45Z</time>
      </trkpt>
      <trkpt lat="46.5531" lon="5.49355">
        <ele>496.6</ele>
        <time>2022-03-07T10:18:46Z</time>
      </trkpt>
      <trkpt lat="46.5531" lon="5.49355">
        <ele>496.6</ele>
        <time>2022-03-07T10:18:47Z</time>
      </trkpt>
      <trkpt lat="46.5531" lon="5.49355">
        <ele>496.6</ele>
        <time>2022-03-07T10:18:48Z</time>
      </trkpt>
      <trkpt lat="46.5531" lon="5.49355">
        <ele>496.6</ele>
        <time>2022-03-07T10:18:49Z</time>
      </trkpt>
      <trkpt lat="46.5531" lon="5.49355">
        <ele>496.4</ele>
        <time>2022-03-07T10:18:50Z</time>
      </trkpt>
      <trkpt lat="46.5531" lon="5.49355">
        <ele>496.4</ele>
        <time>2022-03-07T10:18:51Z</time>
      </trkpt>
      <trkpt lat="46.5531" lon="5.49355">
        <ele>496.4</ele>
        <time>2022-03-07T10:18:52Z</time>
      </trkpt>
      <trkpt lat="46.5531" lon="5.49355">
        <ele>496.4</ele>
        <time>2022-03-07T10:18:53Z</time>
      </trkpt>
      <trkpt lat="46.5531" lon="5.49355">
        <ele>496.4</ele>
        <time>2022-03-07T10:18:54Z</time>
      </trkpt>
      <trkpt lat="46.5531" lon="5.49355">
        <ele>496.4</ele>
        <time>2022-03-07T10:18:55Z</time>
      </trkpt>
      <trkpt lat="46.5531" lon="5.49355">
        <ele>496.4</ele>
        <time>2022-03-07T10:19:01Z</time>
      </trkpt>
      <trkpt lat="46.5531" lon="5.49355">
        <ele>496.4</ele>
        <time>2022-03-07T10:19:02Z</time>
      </trkpt>
      <trkpt lat="46.5531" lon="5.49355">
        <ele>496.4</ele>
        <time>2022-03-07T10:19:04Z</time>
      </trkpt>
      <trkpt lat="46.5531" lon="5.49355">
        <ele>496.4</ele>
        <time>2022-03-07T10:19:05Z</time>
      </trkpt>
      <trkpt lat="46.5531" lon="5.49355">
        <ele>496.6</ele>
        <time>2022-03-07T10:21:35Z</time>
      </trkpt>
      <trkpt lat="46.5531" lon="5.49355">
        <ele>496.6</ele>
        <time>2022-03-07T10:21:36Z</time>
      </trkpt>
      <trkpt lat="46.5531" lon="5.49355">
        <ele>496.6</ele>
        <time>2022-03-07T10:21:37Z</time>
      </trkpt>
      <trkpt lat="46.5531" lon="5.49355">
        <ele>496.6</ele>
        <time>2022-03-07T10:21:38Z</time>
      </trkpt>
      <trkpt lat="46.5531" lon="5.49355">
        <ele>496.2</ele>
        <time>2022-03-07T10:22:13Z</time>
      </trkpt>
      <trkpt lat="46.55311" lon="5.49355">
        <ele>496.2</ele>
        <time>2022-03-07T10:22:14Z</time>
      </trkpt>
      <trkpt lat="46.55311" lon="5.49355">
        <ele>496.2</ele>
        <time>2022-03-07T10:22:19Z</time>
      </trkpt>
      <trkpt lat="46.55311" lon="5.49355">
        <ele>496.2</ele>
        <time>2022-03-07T10:22:20Z</time>
      </trkpt>
      <trkpt lat="46.55311" lon="5.49355">
        <ele>496</ele>
        <time>2022-03-07T10:22:41Z</time>
      </trkpt>
      <trkpt lat="46.55311" lon="5.49355">
        <ele>496</ele>
        <time>2022-03-07T10:22:42Z</time>
      </trkpt>
      <trkpt lat="46.55311" lon="5.49355">
        <ele>496</ele>
        <time>2022-03-07T10:22:57Z</time>
      </trkpt>
      <trkpt lat="46.55311" lon="5.49354">
        <ele>496</ele>
        <time>2022-03-07T10:22:58Z</time>
      </trkpt>
      <trkpt lat="46.55311" lon="5.49354">
        <ele>496</ele>
        <time>2022-03-07T10:22:59Z</time>
      </trkpt>
      <trkpt lat="46.55311" lon="5.49354">
        <ele>496</ele>
        <time>2022-03-07T10:23:00Z</time>
      </trkpt>
      <trkpt lat="46.55311" lon="5.49354">
        <ele>496</ele>
        <time>2022-03-07T10:23:01Z</time>
      </trkpt>
      <trkpt lat="46.55311" lon="5.49354">
        <ele>496</ele>
        <time>2022-03-07T10:23:02Z</time>
      </trkpt>
      <trkpt lat="46.55311" lon="5.49354">
        <ele>496</ele>
        <time>2022-03-07T10:23:03Z</time>
      </trkpt>
      <trkpt lat="46.55311" lon="5.49354">
        <ele>496</ele>
        <time>2022-03-07T10:23:04Z</time>
      </trkpt>
      <trkpt lat="46.55311" lon="5.49354">
        <ele>496</ele>
        <time>2022-03-07T10:23:05Z</time>
      </trkpt>
      <trkpt lat="46.55311" lon="5.49354">
        <ele>496</ele>
        <time>2022-03-07T10:23:12Z</time>
      </trkpt>
      <trkpt lat="46.55311" lon="5.49354">
        <ele>496</ele>
        <time>2022-03-07T10:23:13Z</time>
      </trkpt>
      <trkpt lat="46.55311" lon="5.49354">
        <ele>496</ele>
        <time>2022-03-07T10:23:15Z</time>
      </trkpt>
      <trkpt lat="46.55311" lon="5.49354">
        <ele>496</ele>
        <time>2022-03-07T10:23:16Z</time>
      </trkpt>
      <trkpt lat="46.55311" lon="5.49354">
        <ele>496</ele>
        <time>2022-03-07T10:23:19Z</time>
      </trkpt>
      <trkpt lat="46.55311" lon="5.49354">
        <ele>496</ele>
        <time>2022-03-07T10:23:20Z</time>
      </trkpt>
      <trkpt lat="46.55311" lon="5.49354">
        <ele>496</ele>
        <time>2022-03-07T10:23:21Z</time>
      </trkpt>
      <trkpt lat="46.55311" lon="5.49354">
        <ele>496</ele>
        <time>2022-03-07T10:23:22Z</time>
      </trkpt>
      <trkpt lat="46.55311" lon="5.49354">
        <ele>496</ele>
        <time>2022-03-07T10:23:56Z</time>
      </trkpt>
      <trkpt lat="46.55311" lon="5.49354">
        <ele>496</ele>
        <time>2022-03-07T10:23:57Z</time>
      </trkpt>
      <trkpt lat="46.55311" lon="5.49354">
        <ele>496</ele>
        <time>2022-03-07T10:23:58Z</time>
      </trkpt>
      <trkpt lat="46.55311" lon="5.49354">
        <ele>496</ele>
        <time>2022-03-07T10:23:59Z</time>
      </trkpt>
      <trkpt lat="46.55311" lon="5.49354">
        <ele>496</ele>
        <time>2022-03-07T10:24:00Z</time>
      </trkpt>
      <trkpt lat="46.55311" lon="5.49354">
        <ele>496</ele>
        <time>2022-03-07T10:24:01Z</time>
      </trkpt>
      <trkpt lat="46.55311" lon="5.49354">
        <ele>496</ele>
        <time>2022-03-07T10:24:02Z</time>
      </trkpt>
      <trkpt lat="46.55312" lon="5.49354">
        <ele>496.2</ele>
        <time>2022-03-07T10:26:19Z</time>
      </trkpt>
      <trkpt lat="46.55312" lon="5.49354">
        <ele>496.2</ele>
        <time>2022-03-07T10:26:20Z</time>
      </trkpt>
      <trkpt lat="46.55312" lon="5.49354">
        <ele>496.2</ele>
        <time>2022-03-07T10:26:21Z</time>
      </trkpt>
      <trkpt lat="46.55312" lon="5.49354">
        <ele>496.2</ele>
        <time>2022-03-07T10:26:22Z</time>
      </trkpt>
      <trkpt lat="46.55312" lon="5.49354">
        <ele>496.2</ele>
        <time>2022-03-07T10:26:23Z</time>
      </trkpt>
      <trkpt lat="46.55312" lon="5.49354">
        <ele>496.2</ele>
        <time>2022-03-07T10:26:24Z</time>
      </trkpt>
      <trkpt lat="46.55312" lon="5.49354">
        <ele>496.2</ele>
        <time>2022-03-07T10:26:25Z</time>
      </trkpt>
      <trkpt lat="46.55312" lon="5.49354">
        <ele>496.2</ele>
        <time>2022-03-07T10:26:26Z</time>
      </trkpt>
      <trkpt lat="46.55312" lon="5.49354">
        <ele>496.2</ele>
        <time>2022-03-07T10:28:03Z</time>
      </trkpt>
      <trkpt lat="46.55312" lon="5.49354">
        <ele>496.2</ele>
        <time>2022-03-07T10:28:04Z</time>
      </trkpt>
      <trkpt lat="46.55312" lon="5.49353">
        <ele>496.2</ele>
        <time>2022-03-07T10:28:05Z</time>
      </trkpt>
      <trkpt lat="46.55312" lon="5.49353">
        <ele>496.2</ele>
        <time>2022-03-07T10:28:06Z</time>
      </trkpt>
      <trkpt lat="46.55312" lon="5.49353">
        <ele>496.2</ele>
        <time>2022-03-07T10:28:07Z</time>
      </trkpt>
      <trkpt lat="46.55312" lon="5.49353">
        <ele>496.2</ele>
        <time>2022-03-07T10:28:08Z</time>
      </trkpt>
      <trkpt lat="46.55312" lon="5.49353">
        <ele>496.2</ele>
        <time>2022-03-07T10:28:09Z</time>
      </trkpt>
      <trkpt lat="46.55312" lon="5.49353">
        <ele>496.2</ele>
        <time>2022-03-07T10:28:10Z</time>
      </trkpt>
      <trkpt lat="46.55312" lon="5.49353">
        <ele>496.4</ele>
        <time>2022-03-07T10:28:40Z</time>
      </trkpt>
      <trkpt lat="46.55312" lon="5.49353">
        <ele>496.4</ele>
        <time>2022-03-07T10:28:41Z</time>
      </trkpt>
      <trkpt lat="46.55312" lon="5.49353">
        <ele>496.4</ele>
        <time>2022-03-07T10:28:58Z</time>
      </trkpt>
      <trkpt lat="46.55312" lon="5.49353">
        <ele>496.4</ele>
        <time>2022-03-07T10:28:59Z</time>
      </trkpt>
      <trkpt lat="46.55312" lon="5.49353">
        <ele>496.4</ele>
        <time>2022-03-07T10:29:00Z</time>
      </trkpt>
      <trkpt lat="46.55312" lon="5.49353">
        <ele>496.4</ele>
        <time>2022-03-07T10:29:01Z</time>
      </trkpt>
      <trkpt lat="46.55312" lon="5.49353">
        <ele>496.4</ele>
        <time>2022-03-07T10:29:02Z</time>
      </trkpt>
      <trkpt lat="46.55312" lon="5.49353">
        <ele>496.4</ele>
        <time>2022-03-07T10:29:03Z</time>
      </trkpt>
      <trkpt lat="46.55312" lon="5.49353">
        <ele>496.4</ele>
        <time>2022-03-07T10:29:04Z</time>
      </trkpt>
      <trkpt lat="46.55312" lon="5.49353">
        <ele>496.4</ele>
        <time>2022-03-07T10:29:05Z</time>
      </trkpt>
      <trkpt lat="46.55314" lon="5.49351">
        <ele>496.4</ele>
        <time>2022-03-07T10:29:06Z</time>
      </trkpt>
      <trkpt lat="46.55315" lon="5.4935">
        <ele>496.4</ele>
        <time>2022-03-07T10:29:07Z</time>
      </trkpt>
      <trkpt lat="46.55317" lon="5.49351">
        <ele>496.4</ele>
        <time>2022-03-07T10:29:08Z</time>
      </trkpt>
      <trkpt lat="46.55319" lon="5.49352">
        <ele>496.4</ele>
        <time>2022-03-07T10:29:09Z</time>
      </trkpt>
      <trkpt lat="46.5532" lon="5.49354">
        <ele>496.4</ele>
        <time>2022-03-07T10:29:10Z</time>
      </trkpt>
      <trkpt lat="46.5532" lon="5.49357">
        <ele>496.2</ele>
        <time>2022-03-07T10:29:11Z</time>
      </trkpt>
      <trkpt lat="46.5532" lon="5.4936">
        <ele>496.2</ele>
        <time>2022-03-07T10:29:12Z</time>
      </trkpt>
      <trkpt lat="46.5532" lon="5.49363">
        <ele>496.2</ele>
        <time>2022-03-07T10:29:13Z</time>
      </trkpt>
      <trkpt lat="46.5532" lon="5.49366">
        <ele>496.6</ele>
        <time>2022-03-07T10:29:14Z</time>
      </trkpt>
      <trkpt lat="46.55319" lon="5.49369">
        <ele>496.6</ele>
        <time>2022-03-07T10:29:15Z</time>
      </trkpt>
      <trkpt lat="46.55319" lon="5.49372">
        <ele>496.8</ele>
        <time>2022-03-07T10:29:16Z</time>
      </trkpt>
      <trkpt lat="46.55319" lon="5.49375">
        <ele>496.8</ele>
        <time>2022-03-07T10:29:17Z</time>
      </trkpt>
      <trkpt lat="46.55318" lon="5.49378">
        <ele>497</ele>
        <time>2022-03-07T10:29:18Z</time>
      </trkpt>
      <trkpt lat="46.55317" lon="5.49381">
        <ele>497</ele>
        <time>2022-03-07T10:29:19Z</time>
      </trkpt>
      <trkpt lat="46.55316" lon="5.49383">
        <ele>497</ele>
        <time>2022-03-07T10:29:20Z</time>
      </trkpt>
      <trkpt lat="46.55316" lon="5.49386">
        <ele>497.2</ele>
        <time>2022-03-07T10:29:21Z</time>
      </trkpt>
      <trkpt lat="46.55316" lon="5.49388">
        <ele>497.2</ele>
        <time>2022-03-07T10:29:22Z</time>
      </trkpt>
      <trkpt lat="46.55317" lon="5.49391">
        <ele>497.2</ele>
        <time>2022-03-07T10:29:23Z</time>
      </trkpt>
      <trkpt lat="46.55317" lon="5.49394">
        <ele>497.6</ele>
        <time>2022-03-07T10:29:24Z</time>
      </trkpt>
      <trkpt lat="46.55316" lon="5.49397">
        <ele>497.6</ele>
        <time>2022-03-07T10:29:25Z</time>
      </trkpt>
      <trkpt lat="46.55316" lon="5.494">
        <ele>497.8</ele>
        <time>2022-03-07T10:29:26Z</time>
      </trkpt>
      <trkpt lat="46.55317" lon="5.49403">
        <ele>498</ele>
        <time>2022-03-07T10:29:27Z</time>
      </trkpt>
      <trkpt lat="46.55317" lon="5.49406">
        <ele>498</ele>
        <time>2022-03-07T10:29:28Z</time>
      </trkpt>
      <trkpt lat="46.55317" lon="5.49408">
        <ele>498.2</ele>
        <time>2022-03-07T10:29:29Z</time>
      </trkpt>
      <trkpt lat="46.55316" lon="5.49411">
        <ele>498.2</ele>
        <time>2022-03-07T10:29:30Z</time>
      </trkpt>
      <trkpt lat="46.55316" lon="5.49414">
        <ele>498.6</ele>
        <time>2022-03-07T10:29:31Z</time>
      </trkpt>
      <trkpt lat="46.55316" lon="5.49417">
        <ele>498.6</ele>
        <time>2022-03-07T10:29:32Z</time>
      </trkpt>
      <trkpt lat="46.55316" lon="5.4942">
        <ele>498.8</ele>
        <time>2022-03-07T10:29:33Z</time>
      </trkpt>
      <trkpt lat="46.55316" lon="5.49423">
        <ele>498.8</ele>
        <time>2022-03-07T10:29:34Z</time>
      </trkpt>
      <trkpt lat="46.55316" lon="5.49426">
        <ele>499.2</ele>
        <time>2022-03-07T10:29:35Z</time>
      </trkpt>
      <trkpt lat="46.55316" lon="5.49429">
        <ele>499.4</ele>
        <time>2022-03-07T10:29:36Z</time>
      </trkpt>
      <trkpt lat="46.55316" lon="5.49432">
        <ele>499.4</ele>
        <time>2022-03-07T10:29:37Z</time>
      </trkpt>
      <trkpt lat="46.55316" lon="5.49435">
        <ele>499.6</ele>
        <time>2022-03-07T10:29:38Z</time>
      </trkpt>
      <trkpt lat="46.55316" lon="5.49438">
        <ele>499.6</ele>
        <time>2022-03-07T10:29:39Z</time>
      </trkpt>
      <trkpt lat="46.55316" lon="5.49441">
        <ele>500</ele>
        <time>2022-03-07T10:29:40Z</time>
      </trkpt>
      <trkpt lat="46.55316" lon="5.49444">
        <ele>500</ele>
        <time>2022-03-07T10:29:41Z</time>
      </trkpt>
      <trkpt lat="46.55316" lon="5.49448">
        <ele>500.4</ele>
        <time>2022-03-07T10:29:42Z</time>
      </trkpt>
      <trkpt lat="46.55315" lon="5.49451">
        <ele>500.4</ele>
        <time>2022-03-07T10:29:43Z</time>
      </trkpt>
      <trkpt lat="46.55315" lon="5.49454">
        <ele>500.8</ele>
        <time>2022-03-07T10:29:44Z</time>
      </trkpt>
      <trkpt lat="46.55314" lon="5.49457">
        <ele>500.8</ele>
        <time>2022-03-07T10:29:45Z</time>
      </trkpt>
      <trkpt lat="46.55314" lon="5.4946">
        <ele>501</ele>
        <time>2022-03-07T10:29:46Z</time>
      </trkpt>
      <trkpt lat="46.55314" lon="5.49463">
        <ele>501.2</ele>
        <time>2022-03-07T10:29:47Z</time>
      </trkpt>
      <trkpt lat="46.55313" lon="5.49466">
        <ele>501.4</ele>
        <time>2022-03-07T10:29:48Z</time>
      </trkpt>
      <trkpt lat="46.55313" lon="5.49468">
        <ele>501.4</ele>
        <time>2022-03-07T10:29:49Z</time>
      </trkpt>
      <trkpt lat="46.55313" lon="5.49471">
        <ele>501.8</ele>
        <time>2022-03-07T10:29:50Z</time>
      </trkpt>
      <trkpt lat="46.55313" lon="5.49474">
        <ele>502</ele>
        <time>2022-03-07T10:29:51Z</time>
      </trkpt>
      <trkpt lat="46.55312" lon="5.49477">
        <ele>502</ele>
        <time>2022-03-07T10:29:52Z</time>
      </trkpt>
      <trkpt lat="46.55312" lon="5.49481">
        <ele>502.4</ele>
        <time>2022-03-07T10:29:53Z</time>
      </trkpt>
      <trkpt lat="46.55311" lon="5.49484">
        <ele>502.4</ele>
        <time>2022-03-07T10:29:54Z</time>
      </trkpt>
      <trkpt lat="46.5531" lon="5.49487">
        <ele>502.8</ele>
        <time>2022-03-07T10:29:55Z</time>
      </trkpt>
      <trkpt lat="46.5531" lon="5.4949">
        <ele>503</ele>
        <time>2022-03-07T10:29:56Z</time>
      </trkpt>
      <trkpt lat="46.5531" lon="5.49493">
        <ele>503</ele>
        <time>2022-03-07T10:29:57Z</time>
      </trkpt>
      <trkpt lat="46.55309" lon="5.49495">
        <ele>503.2</ele>
        <time>2022-03-07T10:29:58Z</time>
      </trkpt>
      <trkpt lat="46.55308" lon="5.49498">
        <ele>503.2</ele>
        <time>2022-03-07T10:29:59Z</time>
      </trkpt>
      <trkpt lat="46.55307" lon="5.49501">
        <ele>503.4</ele>
        <time>2022-03-07T10:30:00Z</time>
      </trkpt>
      <trkpt lat="46.55307" lon="5.49503">
        <ele>503.8</ele>
        <time>2022-03-07T10:30:01Z</time>
      </trkpt>
      <trkpt lat="46.55306" lon="5.49506">
        <ele>503.8</ele>
        <time>2022-03-07T10:30:02Z</time>
      </trkpt>
      <trkpt lat="46.55306" lon="5.49509">
        <ele>504</ele>
        <time>2022-03-07T10:30:03Z</time>
      </trkpt>
      <trkpt lat="46.55305" lon="5.49513">
        <ele>504</ele>
        <time>2022-03-07T10:30:04Z</time>
      </trkpt>
      <trkpt lat="46.55305" lon="5.49516">
        <ele>504.4</ele>
        <time>2022-03-07T10:30:05Z</time>
      </trkpt>
      <trkpt lat="46.55304" lon="5.49519">
        <ele>504.6</ele>
        <time>2022-03-07T10:30:06Z</time>
      </trkpt>
      <trkpt lat="46.55303" lon="5.49523">
        <ele>504.8</ele>
        <time>2022-03-07T10:30:07Z</time>
      </trkpt>
      <trkpt lat="46.55303" lon="5.49526">
        <ele>504.8</ele>
        <time>2022-03-07T10:30:08Z</time>
      </trkpt>
      <trkpt lat="46.55303" lon="5.49529">
        <ele>505.2</ele>
        <time>2022-03-07T10:30:09Z</time>
      </trkpt>
      <trkpt lat="46.55302" lon="5.49533">
        <ele>505.2</ele>
        <time>2022-03-07T10:30:10Z</time>
      </trkpt>
      <trkpt lat="46.55301" lon="5.49536">
        <ele>505.6</ele>
        <time>2022-03-07T10:30:11Z</time>
      </trkpt>
      <trkpt lat="46.55301" lon="5.49539">
        <ele>505.6</ele>
        <time>2022-03-07T10:30:12Z</time>
      </trkpt>
      <trkpt lat="46.553" lon="5.49543">
        <ele>505.8</ele>
        <time>2022-03-07T10:30:13Z</time>
      </trkpt>
      <trkpt lat="46.55299" lon="5.49546">
        <ele>506</ele>
        <time>2022-03-07T10:30:14Z</time>
      </trkpt>
      <trkpt lat="46.55298" lon="5.49549">
        <ele>506</ele>
        <time>2022-03-07T10:30:15Z</time>
      </trkpt>
      <trkpt lat="46.55298" lon="5.49552">
        <ele>506.4</ele>
        <time>2022-03-07T10:30:16Z</time>
      </trkpt>
      <trkpt lat="46.55297" lon="5.49556">
        <ele>506.4</ele>
        <time>2022-03-07T10:30:17Z</time>
      </trkpt>
      <trkpt lat="46.55297" lon="5.49559">
        <ele>506.8</ele>
        <time>2022-03-07T10:30:18Z</time>
      </trkpt>
      <trkpt lat="46.55297" lon="5.49562">
        <ele>506.8</ele>
        <time>2022-03-07T10:30:19Z</time>
      </trkpt>
      <trkpt lat="46.55297" lon="5.49565">
        <ele>506.8</ele>
        <time>2022-03-07T10:30:20Z</time>
      </trkpt>
      <trkpt lat="46.55297" lon="5.49568">
        <ele>507.2</ele>
        <time>2022-03-07T10:30:21Z</time>
      </trkpt>
      <trkpt lat="46.55297" lon="5.49571">
        <ele>507.2</ele>
        <time>2022-03-07T10:30:22Z</time>
      </trkpt>
      <trkpt lat="46.55298" lon="5.49574">
        <ele>507.6</ele>
        <time>2022-03-07T10:30:23Z</time>
      </trkpt>
      <trkpt lat="46.55299" lon="5.49576">
        <ele>507.8</ele>
        <time>2022-03-07T10:30:24Z</time>
      </trkpt>
      <trkpt lat="46.553" lon="5.49578">
        <ele>507.8</ele>
        <time>2022-03-07T10:30:25Z</time>
      </trkpt>
      <trkpt lat="46.55301" lon="5.49581">
        <ele>508</ele>
        <time>2022-03-07T10:30:26Z</time>
      </trkpt>
      <trkpt lat="46.55302" lon="5.49583">
        <ele>508</ele>
        <time>2022-03-07T10:30:27Z</time>
      </trkpt>
      <trkpt lat="46.55303" lon="5.49586">
        <ele>508.4</ele>
        <time>2022-03-07T10:30:28Z</time>
      </trkpt>
      <trkpt lat="46.55303" lon="5.49588">
        <ele>508.4</ele>
        <time>2022-03-07T10:30:29Z</time>
      </trkpt>
      <trkpt lat="46.55304" lon="5.49591">
        <ele>508.8</ele>
        <time>2022-03-07T10:30:30Z</time>
      </trkpt>
      <trkpt lat="46.55305" lon="5.49593">
        <ele>509</ele>
        <time>2022-03-07T10:30:31Z</time>
      </trkpt>
      <trkpt lat="46.55306" lon="5.49596">
        <ele>509</ele>
        <time>2022-03-07T10:30:32Z</time>
      </trkpt>
      <trkpt lat="46.55307" lon="5.49598">
        <ele>509.2</ele>
        <time>2022-03-07T10:30:33Z</time>
      </trkpt>
      <trkpt lat="46.55308" lon="5.496">
        <ele>509.6</ele>
        <time>2022-03-07T10:30:34Z</time>
      </trkpt>
      <trkpt lat="46.55309" lon="5.49602">
        <ele>509.6</ele>
        <time>2022-03-07T10:30:35Z</time>
      </trkpt>
      <trkpt lat="46.55311" lon="5.49604">
        <ele>509.8</ele>
        <time>2022-03-07T10:30:36Z</time>
      </trkpt>
      <trkpt lat="46.55312" lon="5.49606">
        <ele>510</ele>
        <time>2022-03-07T10:30:37Z</time>
      </trkpt>
      <trkpt lat="46.55313" lon="5.49608">
        <ele>510.2</ele>
        <time>2022-03-07T10:30:38Z</time>
      </trkpt>
      <trkpt lat="46.55314" lon="5.4961">
        <ele>510.2</ele>
        <time>2022-03-07T10:30:39Z</time>
      </trkpt>
      <trkpt lat="46.55315" lon="5.49613">
        <ele>510.6</ele>
        <time>2022-03-07T10:30:40Z</time>
      </trkpt>
      <trkpt lat="46.55316" lon="5.49615">
        <ele>510.6</ele>
        <time>2022-03-07T10:30:41Z</time>
      </trkpt>
      <trkpt lat="46.55317" lon="5.49618">
        <ele>511</ele>
        <time>2022-03-07T10:30:42Z</time>
      </trkpt>
      <trkpt lat="46.55318" lon="5.4962">
        <ele>511.2</ele>
        <time>2022-03-07T10:30:43Z</time>
      </trkpt>
      <trkpt lat="46.55319" lon="5.49623">
        <ele>511.4</ele>
        <time>2022-03-07T10:30:44Z</time>
      </trkpt>
      <trkpt lat="46.5532" lon="5.49625">
        <ele>511.6</ele>
        <time>2022-03-07T10:30:45Z</time>
      </trkpt>
      <trkpt lat="46.55321" lon="5.49627">
        <ele>511.6</ele>
        <time>2022-03-07T10:30:46Z</time>
      </trkpt>
      <trkpt lat="46.55323" lon="5.49629">
        <ele>512</ele>
        <time>2022-03-07T10:30:47Z</time>
      </trkpt>
      <trkpt lat="46.55324" lon="5.49631">
        <ele>512.2</ele>
        <time>2022-03-07T10:30:48Z</time>
      </trkpt>
      <trkpt lat="46.55325" lon="5.49634">
        <ele>512.6</ele>
        <time>2022-03-07T10:30:49Z</time>
      </trkpt>
      <trkpt lat="46.55326" lon="5.49636">
        <ele>512.6</ele>
        <time>2022-03-07T10:30:50Z</time>
      </trkpt>
      <trkpt lat="46.55327" lon="5.49638">
        <ele>512.8</ele>
        <time>2022-03-07T10:30:51Z</time>
      </trkpt>
      <trkpt lat="46.55328" lon="5.4964">
        <ele>513</ele>
        <time>2022-03-07T10:30:52Z</time>
      </trkpt>
      <trkpt lat="46.55329" lon="5.49642">
        <ele>513.2</ele>
        <time>2022-03-07T10:30:53Z</time>
      </trkpt>
      <trkpt lat="46.55329" lon="5.49644">
        <ele>513.6</ele>
        <time>2022-03-07T10:30:54Z</time>
      </trkpt>
      <trkpt lat="46.5533" lon="5.49647">
        <ele>513.8</ele>
        <time>2022-03-07T10:30:55Z</time>
      </trkpt>
      <trkpt lat="46.55332" lon="5.49648">
        <ele>514</ele>
        <time>2022-03-07T10:30:56Z</time>
      </trkpt>
      <trkpt lat="46.55333" lon="5.4965">
        <ele>514.2</ele>
        <time>2022-03-07T10:30:57Z</time>
      </trkpt>
      <trkpt lat="46.55334" lon="5.49652">
        <ele>514.6</ele>
        <time>2022-03-07T10:30:58Z</time>
      </trkpt>
      <trkpt lat="46.55336" lon="5.49654">
        <ele>514.8</ele>
        <time>2022-03-07T10:30:59Z</time>
      </trkpt>
      <trkpt lat="46.55337" lon="5.49656">
        <ele>514.8</ele>
        <time>2022-03-07T10:31:00Z</time>
      </trkpt>
      <trkpt lat="46.55338" lon="5.49658">
        <ele>515.2</ele>
        <time>2022-03-07T10:31:01Z</time>
      </trkpt>
      <trkpt lat="46.55339" lon="5.4966">
        <ele>515.4</ele>
        <time>2022-03-07T10:31:02Z</time>
      </trkpt>
      <trkpt lat="46.5534" lon="5.49663">
        <ele>515.4</ele>
        <time>2022-03-07T10:31:03Z</time>
      </trkpt>
      <trkpt lat="46.55342" lon="5.49665">
        <ele>515.8</ele>
        <time>2022-03-07T10:31:04Z</time>
      </trkpt>
      <trkpt lat="46.55343" lon="5.49666">
        <ele>515.8</ele>
        <time>2022-03-07T10:31:05Z</time>
      </trkpt>
      <trkpt lat="46.55345" lon="5.49668">
        <ele>516</ele>
        <time>2022-03-07T10:31:06Z</time>
      </trkpt>
      <trkpt lat="46.55346" lon="5.49671">
        <ele>516.2</ele>
        <time>2022-03-07T10:31:07Z</time>
      </trkpt>
      <trkpt lat="46.55347" lon="5.49673">
        <ele>516.2</ele>
        <time>2022-03-07T10:31:08Z</time>
      </trkpt>
      <trkpt lat="46.55348" lon="5.49675">
        <ele>516.6</ele>
        <time>2022-03-07T10:31:09Z</time>
      </trkpt>
      <trkpt lat="46.5535" lon="5.49678">
        <ele>516.6</ele>
        <time>2022-03-07T10:31:10Z</time>
      </trkpt>
      <trkpt lat="46.55351" lon="5.4968">
        <ele>516.8</ele>
        <time>2022-03-07T10:31:11Z</time>
      </trkpt>
      <trkpt lat="46.55352" lon="5.49682">
        <ele>516.8</ele>
        <time>2022-03-07T10:31:12Z</time>
      </trkpt>
      <trkpt lat="46.55353" lon="5.49685">
        <ele>517</ele>
        <time>2022-03-07T10:31:13Z</time>
      </trkpt>
      <trkpt lat="46.55354" lon="5.49687">
        <ele>517.4</ele>
        <time>2022-03-07T10:31:14Z</time>
      </trkpt>
      <trkpt lat="46.55356" lon="5.49689">
        <ele>517.6</ele>
        <time>2022-03-07T10:31:15Z</time>
      </trkpt>
      <trkpt lat="46.55357" lon="5.49691">
        <ele>517.8</ele>
        <time>2022-03-07T10:31:16Z</time>
      </trkpt>
      <trkpt lat="46.55358" lon="5.49693">
        <ele>517.8</ele>
        <time>2022-03-07T10:31:17Z</time>
      </trkpt>
      <trkpt lat="46.55359" lon="5.49696">
        <ele>518</ele>
        <time>2022-03-07T10:31:18Z</time>
      </trkpt>
      <trkpt lat="46.5536" lon="5.49698">
        <ele>518</ele>
        <time>2022-03-07T10:31:19Z</time>
      </trkpt>
      <trkpt lat="46.55362" lon="5.49701">
        <ele>518.4</ele>
        <time>2022-03-07T10:31:20Z</time>
      </trkpt>
      <trkpt lat="46.55363" lon="5.49703">
        <ele>518.4</ele>
        <time>2022-03-07T10:31:21Z</time>
      </trkpt>
      <trkpt lat="46.55365" lon="5.49705">
        <ele>518.4</ele>
        <time>2022-03-07T10:31:22Z</time>
      </trkpt>
      <trkpt lat="46.55366" lon="5.49708">
        <ele>518.8</ele>
        <time>2022-03-07T10:31:23Z</time>
      </trkpt>
      <trkpt lat="46.55368" lon="5.4971">
        <ele>518.8</ele>
        <time>2022-03-07T10:31:24Z</time>
      </trkpt>
      <trkpt lat="46.5537" lon="5.49712">
        <ele>519</ele>
        <time>2022-03-07T10:31:25Z</time>
      </trkpt>
      <trkpt lat="46.55371" lon="5.49714">
        <ele>519</ele>
        <time>2022-03-07T10:31:26Z</time>
      </trkpt>
      <trkpt lat="46.55373" lon="5.49716">
        <ele>519.2</ele>
        <time>2022-03-07T10:31:27Z</time>
      </trkpt>
      <trkpt lat="46.55375" lon="5.49718">
        <ele>519.2</ele>
        <time>2022-03-07T10:31:28Z</time>
      </trkpt>
      <trkpt lat="46.55377" lon="5.4972">
        <ele>519.6</ele>
        <time>2022-03-07T10:31:29Z</time>
      </trkpt>
      <trkpt lat="46.55379" lon="5.49722">
        <ele>519.6</ele>
        <time>2022-03-07T10:31:30Z</time>
      </trkpt>
      <trkpt lat="46.5538" lon="5.49724">
        <ele>520</ele>
        <time>2022-03-07T10:31:31Z</time>
      </trkpt>
      <trkpt lat="46.55382" lon="5.49727">
        <ele>520</ele>
        <time>2022-03-07T10:31:32Z</time>
      </trkpt>
      <trkpt lat="46.55384" lon="5.49729">
        <ele>520.2</ele>
        <time>2022-03-07T10:31:33Z</time>
      </trkpt>
      <trkpt lat="46.55385" lon="5.49731">
        <ele>520.2</ele>
        <time>2022-03-07T10:31:34Z</time>
      </trkpt>
      <trkpt lat="46.55387" lon="5.49733">
        <ele>520.4</ele>
        <time>2022-03-07T10:31:35Z</time>
      </trkpt>
      <trkpt lat="46.55389" lon="5.49736">
        <ele>520.4</ele>
        <time>2022-03-07T10:31:36Z</time>
      </trkpt>
      <trkpt lat="46.5539" lon="5.49739">
        <ele>520.6</ele>
        <time>2022-03-07T10:31:37Z</time>
      </trkpt>
      <trkpt lat="46.55391" lon="5.49741">
        <ele>520.6</ele>
        <time>2022-03-07T10:31:38Z</time>
      </trkpt>
      <trkpt lat="46.55392" lon="5.49744">
        <ele>521</ele>
        <time>2022-03-07T10:31:39Z</time>
      </trkpt>
      <trkpt lat="46.55392" lon="5.49746">
        <ele>521</ele>
        <time>2022-03-07T10:31:40Z</time>
      </trkpt>
      <trkpt lat="46.55392" lon="5.4975">
        <ele>521.2</ele>
        <time>2022-03-07T10:31:41Z</time>
      </trkpt>
      <trkpt lat="46.55392" lon="5.49753">
        <ele>521.2</ele>
        <time>2022-03-07T10:31:42Z</time>
      </trkpt>
      <trkpt lat="46.55392" lon="5.49756">
        <ele>521.6</ele>
        <time>2022-03-07T10:31:43Z</time>
      </trkpt>
      <trkpt lat="46.55392" lon="5.4976">
        <ele>521.6</ele>
        <time>2022-03-07T10:31:44Z</time>
      </trkpt>
      <trkpt lat="46.55392" lon="5.49763">
        <ele>521.8</ele>
        <time>2022-03-07T10:31:45Z</time>
      </trkpt>
      <trkpt lat="46.55392" lon="5.49767">
        <ele>521.8</ele>
        <time>2022-03-07T10:31:46Z</time>
      </trkpt>
      <trkpt lat="46.55391" lon="5.49771">
        <ele>522.2</ele>
        <time>2022-03-07T10:31:47Z</time>
      </trkpt>
      <trkpt lat="46.5539" lon="5.49774">
        <ele>522.2</ele>
        <time>2022-03-07T10:31:48Z</time>
      </trkpt>
      <trkpt lat="46.5539" lon="5.49777">
        <ele>522.4</ele>
        <time>2022-03-07T10:31:49Z</time>
      </trkpt>
      <trkpt lat="46.55389" lon="5.49781">
        <ele>522.4</ele>
        <time>2022-03-07T10:31:50Z</time>
      </trkpt>
      <trkpt lat="46.55388" lon="5.49785">
        <ele>522.4</ele>
        <time>2022-03-07T10:31:51Z</time>
      </trkpt>
      <trkpt lat="46.55387" lon="5.49789">
        <ele>522.4</ele>
        <time>2022-03-07T10:31:52Z</time>
      </trkpt>
      <trkpt lat="46.55386" lon="5.49793">
        <ele>522.4</ele>
        <time>2022-03-07T10:31:53Z</time>
      </trkpt>
      <trkpt lat="46.55385" lon="5.49797">
        <ele>522.4</ele>
        <time>2022-03-07T10:31:54Z</time>
      </trkpt>
      <trkpt lat="46.55383" lon="5.49802">
        <ele>522.4</ele>
        <time>2022-03-07T10:31:55Z</time>
      </trkpt>
      <trkpt lat="46.55382" lon="5.49806">
        <ele>522.4</ele>
        <time>2022-03-07T10:31:56Z</time>
      </trkpt>
      <trkpt lat="46.55381" lon="5.49811">
        <ele>522.4</ele>
        <time>2022-03-07T10:31:57Z</time>
      </trkpt>
      <trkpt lat="46.55379" lon="5.49817">
        <ele>522.4</ele>
        <time>2022-03-07T10:31:58Z</time>
      </trkpt>
      <trkpt lat="46.55378" lon="5.49822">
        <ele>522.4</ele>
        <time>2022-03-07T10:31:59Z</time>
      </trkpt>
      <trkpt lat="46.55376" lon="5.49827">
        <ele>522.4</ele>
        <time>2022-03-07T10:32:00Z</time>
      </trkpt>
      <trkpt lat="46.55374" lon="5.49833">
        <ele>522.4</ele>
        <time>2022-03-07T10:32:01Z</time>
      </trkpt>
      <trkpt lat="46.55373" lon="5.49838">
        <ele>522.2</ele>
        <time>2022-03-07T10:32:02Z</time>
      </trkpt>
      <trkpt lat="46.55372" lon="5.49843">
        <ele>522.2</ele>
        <time>2022-03-07T10:32:03Z</time>
      </trkpt>
      <trkpt lat="46.55371" lon="5.49848">
        <ele>522.2</ele>
        <time>2022-03-07T10:32:04Z</time>
      </trkpt>
      <trkpt lat="46.5537" lon="5.49853">
        <ele>522.2</ele>
        <time>2022-03-07T10:32:05Z</time>
      </trkpt>
      <trkpt lat="46.55369" lon="5.49858">
        <ele>522.2</ele>
        <time>2022-03-07T10:32:06Z</time>
      </trkpt>
      <trkpt lat="46.55369" lon="5.49863">
        <ele>522.2</ele>
        <time>2022-03-07T10:32:07Z</time>
      </trkpt>
      <trkpt lat="46.55368" lon="5.49867">
        <ele>522.6</ele>
        <time>2022-03-07T10:32:08Z</time>
      </trkpt>
      <trkpt lat="46.55368" lon="5.49872">
        <ele>522.6</ele>
        <time>2022-03-07T10:32:09Z</time>
      </trkpt>
      <trkpt lat="46.55368" lon="5.49876">
        <ele>522.6</ele>
        <time>2022-03-07T10:32:10Z</time>
      </trkpt>
      <trkpt lat="46.55368" lon="5.49881">
        <ele>522.8</ele>
        <time>2022-03-07T10:32:11Z</time>
      </trkpt>
      <trkpt lat="46.55369" lon="5.49885">
        <ele>522.8</ele>
        <time>2022-03-07T10:32:12Z</time>
      </trkpt>
      <trkpt lat="46.5537" lon="5.4989">
        <ele>522.8</ele>
        <time>2022-03-07T10:32:13Z</time>
      </trkpt>
      <trkpt lat="46.55371" lon="5.49894">
        <ele>522.8</ele>
        <time>2022-03-07T10:32:14Z</time>
      </trkpt>
      <trkpt lat="46.55371" lon="5.49899">
        <ele>522.8</ele>
        <time>2022-03-07T10:32:15Z</time>
      </trkpt>
      <trkpt lat="46.55373" lon="5.49903">
        <ele>523</ele>
        <time>2022-03-07T10:32:16Z</time>
      </trkpt>
      <trkpt lat="46.55374" lon="5.49908">
        <ele>523</ele>
        <time>2022-03-07T10:32:17Z</time>
      </trkpt>
      <trkpt lat="46.55376" lon="5.49912">
        <ele>523</ele>
        <time>2022-03-07T10:32:18Z</time>
      </trkpt>
      <trkpt lat="46.55377" lon="5.49916">
        <ele>523</ele>
        <time>2022-03-07T10:32:19Z</time>
      </trkpt>
      <trkpt lat="46.55379" lon="5.49921">
        <ele>523</ele>
        <time>2022-03-07T10:32:20Z</time>
      </trkpt>
      <trkpt lat="46.5538" lon="5.49926">
        <ele>523</ele>
        <time>2022-03-07T10:32:21Z</time>
      </trkpt>
      <trkpt lat="46.55381" lon="5.49931">
        <ele>523</ele>
        <time>2022-03-07T10:32:22Z</time>
      </trkpt>
      <trkpt lat="46.55382" lon="5.49936">
        <ele>523</ele>
        <time>2022-03-07T10:32:23Z</time>
      </trkpt>
      <trkpt lat="46.55384" lon="5.49941">
        <ele>523</ele>
        <time>2022-03-07T10:32:24Z</time>
      </trkpt>
      <trkpt lat="46.55385" lon="5.49946">
        <ele>523</ele>
        <time>2022-03-07T10:32:25Z</time>
      </trkpt>
      <trkpt lat="46.55386" lon="5.49951">
        <ele>522.8</ele>
        <time>2022-03-07T10:32:26Z</time>
      </trkpt>
      <trkpt lat="46.55388" lon="5.49957">
        <ele>522.8</ele>
        <time>2022-03-07T10:32:27Z</time>
      </trkpt>
      <trkpt lat="46.55389" lon="5.49963">
        <ele>522.8</ele>
        <time>2022-03-07T10:32:28Z</time>
      </trkpt>
      <trkpt lat="46.5539" lon="5.4997">
        <ele>522.8</ele>
        <time>2022-03-07T10:32:29Z</time>
      </trkpt>
      <trkpt lat="46.55391" lon="5.49977">
        <ele>522.4</ele>
        <time>2022-03-07T10:32:30Z</time>
      </trkpt>
      <trkpt lat="46.55391" lon="5.49985">
        <ele>522.2</ele>
        <time>2022-03-07T10:32:31Z</time>
      </trkpt>
      <trkpt lat="46.5539" lon="5.49994">
        <ele>522</ele>
        <time>2022-03-07T10:32:32Z</time>
      </trkpt>
      <trkpt lat="46.55389" lon="5.50003">
        <ele>521.6</ele>
        <time>2022-03-07T10:32:33Z</time>
      </trkpt>
      <trkpt lat="46.55388" lon="5.50011">
        <ele>521.2</ele>
        <time>2022-03-07T10:32:34Z</time>
      </trkpt>
      <trkpt lat="46.55385" lon="5.5002">
        <ele>520.6</ele>
        <time>2022-03-07T10:32:35Z</time>
      </trkpt>
      <trkpt lat="46.55382" lon="5.50028">
        <ele>520.4</ele>
        <time>2022-03-07T10:32:36Z</time>
      </trkpt>
      <trkpt lat="46.55378" lon="5.50036">
        <ele>520</ele>
        <time>2022-03-07T10:32:37Z</time>
      </trkpt>
      <trkpt lat="46.55373" lon="5.50044">
        <ele>519.6</ele>
        <time>2022-03-07T10:32:38Z</time>
      </trkpt>
      <trkpt lat="46.55368" lon="5.50051">
        <ele>519.2</ele>
        <time>2022-03-07T10:32:39Z</time>
      </trkpt>
      <trkpt lat="46.55362" lon="5.50058">
        <ele>518.8</ele>
        <time>2022-03-07T10:32:40Z</time>
      </trkpt>
      <trkpt lat="46.55356" lon="5.50065">
        <ele>518.4</ele>
        <time>2022-03-07T10:32:41Z</time>
      </trkpt>
      <trkpt lat="46.5535" lon="5.50072">
        <ele>518</ele>
        <time>2022-03-07T10:32:42Z</time>
      </trkpt>
      <trkpt lat="46.55343" lon="5.50079">
        <ele>517.6</ele>
        <time>2022-03-07T10:32:43Z</time>
      </trkpt>
      <trkpt lat="46.55337" lon="5.50086">
        <ele>517.2</ele>
        <time>2022-03-07T10:32:44Z</time>
      </trkpt>
      <trkpt lat="46.5533" lon="5.50092">
        <ele>516.8</ele>
        <time>2022-03-07T10:32:45Z</time>
      </trkpt>
      <trkpt lat="46.55324" lon="5.50099">
        <ele>516.6</ele>
        <time>2022-03-07T10:32:46Z</time>
      </trkpt>
      <trkpt lat="46.55317" lon="5.50106">
        <ele>516.2</ele>
        <time>2022-03-07T10:32:47Z</time>
      </trkpt>
      <trkpt lat="46.5531" lon="5.50112">
        <ele>515.8</ele>
        <time>2022-03-07T10:32:48Z</time>
      </trkpt>
      <trkpt lat="46.55302" lon="5.50118">
        <ele>515.4</ele>
        <time>2022-03-07T10:32:49Z</time>
      </trkpt>
      <trkpt lat="46.55294" lon="5.50124">
        <ele>515.2</ele>
        <time>2022-03-07T10:32:50Z</time>
      </trkpt>
      <trkpt lat="46.55286" lon="5.50129">
        <ele>514.8</ele>
        <time>2022-03-07T10:32:51Z</time>
      </trkpt>
      <trkpt lat="46.55278" lon="5.50135">
        <ele>514.4</ele>
        <time>2022-03-07T10:32:52Z</time>
      </trkpt>
      <trkpt lat="46.5527" lon="5.50141">
        <ele>514</ele>
        <time>2022-03-07T10:32:53Z</time>
      </trkpt>
      <trkpt lat="46.55261" lon="5.50147">
        <ele>513.4</ele>
        <time>2022-03-07T10:32:54Z</time>
      </trkpt>
      <trkpt lat="46.55252" lon="5.50153">
        <ele>512.8</ele>
        <time>2022-03-07T10:32:55Z</time>
      </trkpt>
      <trkpt lat="46.55243" lon="5.50159">
        <ele>512.4</ele>
        <time>2022-03-07T10:32:56Z</time>
      </trkpt>
      <trkpt lat="46.55235" lon="5.50164">
        <ele>511.8</ele>
        <time>2022-03-07T10:32:57Z</time>
      </trkpt>
      <trkpt lat="46.55225" lon="5.50169">
        <ele>511.4</ele>
        <time>2022-03-07T10:32:58Z</time>
      </trkpt>
      <trkpt lat="46.55217" lon="5.50175">
        <ele>511</ele>
        <time>2022-03-07T10:32:59Z</time>
      </trkpt>
      <trkpt lat="46.55209" lon="5.5018">
        <ele>510.6</ele>
        <time>2022-03-07T10:33:00Z</time>
      </trkpt>
      <trkpt lat="46.552" lon="5.50186">
        <ele>510</ele>
        <time>2022-03-07T10:33:01Z</time>
      </trkpt>
      <trkpt lat="46.5519" lon="5.50193">
        <ele>509.4</ele>
        <time>2022-03-07T10:33:02Z</time>
      </trkpt>
      <trkpt lat="46.55181" lon="5.50199">
        <ele>509</ele>
        <time>2022-03-07T10:33:03Z</time>
      </trkpt>
      <trkpt lat="46.55171" lon="5.50205">
        <ele>508.2</ele>
        <time>2022-03-07T10:33:04Z</time>
      </trkpt>
      <trkpt lat="46.55163" lon="5.50211">
        <ele>507.6</ele>
        <time>2022-03-07T10:33:05Z</time>
      </trkpt>
      <trkpt lat="46.55154" lon="5.5022">
        <ele>507</ele>
        <time>2022-03-07T10:33:06Z</time>
      </trkpt>
      <trkpt lat="46.55145" lon="5.50228">
        <ele>506.6</ele>
        <time>2022-03-07T10:33:07Z</time>
      </trkpt>
      <trkpt lat="46.55136" lon="5.50235">
        <ele>506</ele>
        <time>2022-03-07T10:33:08Z</time>
      </trkpt>
      <trkpt lat="46.55127" lon="5.50243">
        <ele>505.6</ele>
        <time>2022-03-07T10:33:09Z</time>
      </trkpt>
      <trkpt lat="46.55118" lon="5.50251">
        <ele>505</ele>
        <time>2022-03-07T10:33:10Z</time>
      </trkpt>
      <trkpt lat="46.55109" lon="5.50258">
        <ele>504.6</ele>
        <time>2022-03-07T10:33:11Z</time>
      </trkpt>
      <trkpt lat="46.551" lon="5.50266">
        <ele>504</ele>
        <time>2022-03-07T10:33:12Z</time>
      </trkpt>
      <trkpt lat="46.55091" lon="5.50274">
        <ele>503.6</ele>
        <time>2022-03-07T10:33:13Z</time>
      </trkpt>
      <trkpt lat="46.55083" lon="5.50282">
        <ele>503</ele>
        <time>2022-03-07T10:33:14Z</time>
      </trkpt>
      <trkpt lat="46.55074" lon="5.5029">
        <ele>502.4</ele>
        <time>2022-03-07T10:33:15Z</time>
      </trkpt>
      <trkpt lat="46.55065" lon="5.50298">
        <ele>501.8</ele>
        <time>2022-03-07T10:33:16Z</time>
      </trkpt>
      <trkpt lat="46.55056" lon="5.50306">
        <ele>501.4</ele>
        <time>2022-03-07T10:33:17Z</time>
      </trkpt>
      <trkpt lat="46.55047" lon="5.50312">
        <ele>500.8</ele>
        <time>2022-03-07T10:33:18Z</time>
      </trkpt>
      <trkpt lat="46.55038" lon="5.50319">
        <ele>500</ele>
        <time>2022-03-07T10:33:19Z</time>
      </trkpt>
      <trkpt lat="46.55028" lon="5.50325">
        <ele>499.6</ele>
        <time>2022-03-07T10:33:20Z</time>
      </trkpt>
      <trkpt lat="46.55018" lon="5.50329">
        <ele>499</ele>
        <time>2022-03-07T10:33:21Z</time>
      </trkpt>
      <trkpt lat="46.55007" lon="5.50334">
        <ele>498.4</ele>
        <time>2022-03-07T10:33:22Z</time>
      </trkpt>
      <trkpt lat="46.54997" lon="5.5034">
        <ele>497.8</ele>
        <time>2022-03-07T10:33:23Z</time>
      </trkpt>
      <trkpt lat="46.54987" lon="5.50346">
        <ele>497</ele>
        <time>2022-03-07T10:33:24Z</time>
      </trkpt>
      <trkpt lat="46.54978" lon="5.50353">
        <ele>496.2</ele>
        <time>2022-03-07T10:33:25Z</time>
      </trkpt>
      <trkpt lat="46.54968" lon="5.50362">
        <ele>495.6</ele>
        <time>2022-03-07T10:33:26Z</time>
      </trkpt>
      <trkpt lat="46.5496" lon="5.50371">
        <ele>495</ele>
        <time>2022-03-07T10:33:27Z</time>
      </trkpt>
      <trkpt lat="46.54952" lon="5.50379">
        <ele>494.4</ele>
        <time>2022-03-07T10:33:28Z</time>
      </trkpt>
      <trkpt lat="46.54943" lon="5.50389">
        <ele>493.8</ele>
        <time>2022-03-07T10:33:29Z</time>
      </trkpt>
      <trkpt lat="46.54935" lon="5.50397">
        <ele>493.2</ele>
        <time>2022-03-07T10:33:30Z</time>
      </trkpt>
      <trkpt lat="46.54927" lon="5.50408">
        <ele>492.6</ele>
        <time>2022-03-07T10:33:31Z</time>
      </trkpt>
      <trkpt lat="46.54921" lon="5.50418">
        <ele>492</ele>
        <time>2022-03-07T10:33:32Z</time>
      </trkpt>
      <trkpt lat="46.54915" lon="5.50431">
        <ele>491.4</ele>
        <time>2022-03-07T10:33:33Z</time>
      </trkpt>
      <trkpt lat="46.54911" lon="5.50443">
        <ele>491</ele>
        <time>2022-03-07T10:33:34Z</time>
      </trkpt>
      <trkpt lat="46.54909" lon="5.50455">
        <ele>490.6</ele>
        <time>2022-03-07T10:33:35Z</time>
      </trkpt>
      <trkpt lat="46.54905" lon="5.50465">
        <ele>490.2</ele>
        <time>2022-03-07T10:33:36Z</time>
      </trkpt>
      <trkpt lat="46.54902" lon="5.50476">
        <ele>490</ele>
        <time>2022-03-07T10:33:37Z</time>
      </trkpt>
      <trkpt lat="46.54902" lon="5.50476">
        <ele>490</ele>
        <time>2022-03-07T10:33:38Z</time>
      </trkpt>
      <trkpt lat="46.54899" lon="5.50486">
        <ele>489.8</ele>
        <time>2022-03-07T10:33:39Z</time>
      </trkpt>
      <trkpt lat="46.54895" lon="5.50495">
        <ele>489.8</ele>
        <time>2022-03-07T10:33:40Z</time>
      </trkpt>
      <trkpt lat="46.54891" lon="5.50502">
        <ele>489.8</ele>
        <time>2022-03-07T10:33:41Z</time>
      </trkpt>
      <trkpt lat="46.54886" lon="5.50508">
        <ele>489.8</ele>
        <time>2022-03-07T10:33:42Z</time>
      </trkpt>
      <trkpt lat="46.54881" lon="5.50513">
        <ele>489.8</ele>
        <time>2022-03-07T10:33:43Z</time>
      </trkpt>
      <trkpt lat="46.54876" lon="5.50515">
        <ele>490</ele>
        <time>2022-03-07T10:33:44Z</time>
      </trkpt>
      <trkpt lat="46.54872" lon="5.50516">
        <ele>490</ele>
        <time>2022-03-07T10:33:45Z</time>
      </trkpt>
      <trkpt lat="46.54868" lon="5.50517">
        <ele>490.4</ele>
        <time>2022-03-07T10:33:46Z</time>
      </trkpt>
      <trkpt lat="46.54865" lon="5.50518">
        <ele>490.6</ele>
        <time>2022-03-07T10:33:47Z</time>
      </trkpt>
      <trkpt lat="46.54862" lon="5.50518">
        <ele>490.8</ele>
        <time>2022-03-07T10:33:48Z</time>
      </trkpt>
      <trkpt lat="46.54859" lon="5.50518">
        <ele>491</ele>
        <time>2022-03-07T10:33:49Z</time>
      </trkpt>
      <trkpt lat="46.54856" lon="5.50519">
        <ele>491.4</ele>
        <time>2022-03-07T10:33:50Z</time>
      </trkpt>
      <trkpt lat="46.54854" lon="5.5052">
        <ele>491.6</ele>
        <time>2022-03-07T10:33:51Z</time>
      </trkpt>
      <trkpt lat="46.54852" lon="5.5052">
        <ele>491.8</ele>
        <time>2022-03-07T10:33:52Z</time>
      </trkpt>
      <trkpt lat="46.5485" lon="5.5052">
        <ele>492.2</ele>
        <time>2022-03-07T10:33:53Z</time>
      </trkpt>
      <trkpt lat="46.54848" lon="5.50519">
        <ele>492.4</ele>
        <time>2022-03-07T10:33:54Z</time>
      </trkpt>
      <trkpt lat="46.54846" lon="5.50519">
        <ele>492.6</ele>
        <time>2022-03-07T10:33:55Z</time>
      </trkpt>
      <trkpt lat="46.54844" lon="5.50519">
        <ele>492.8</ele>
        <time>2022-03-07T10:33:56Z</time>
      </trkpt>
      <trkpt lat="46.54842" lon="5.50519">
        <ele>492.8</ele>
        <time>2022-03-07T10:33:57Z</time>
      </trkpt>
      <trkpt lat="46.5484" lon="5.50519">
        <ele>493.2</ele>
        <time>2022-03-07T10:33:58Z</time>
      </trkpt>
      <trkpt lat="46.54839" lon="5.5052">
        <ele>493.4</ele>
        <time>2022-03-07T10:33:59Z</time>
      </trkpt>
      <trkpt lat="46.54837" lon="5.5052">
        <ele>493.4</ele>
        <time>2022-03-07T10:34:00Z</time>
      </trkpt>
      <trkpt lat="46.54834" lon="5.50521">
        <ele>493.8</ele>
        <time>2022-03-07T10:34:01Z</time>
      </trkpt>
      <trkpt lat="46.54832" lon="5.50521">
        <ele>493.8</ele>
        <time>2022-03-07T10:34:02Z</time>
      </trkpt>
      <trkpt lat="46.5483" lon="5.50521">
        <ele>494.2</ele>
        <time>2022-03-07T10:34:03Z</time>
      </trkpt>
      <trkpt lat="46.54828" lon="5.50521">
        <ele>494.4</ele>
        <time>2022-03-07T10:34:04Z</time>
      </trkpt>
      <trkpt lat="46.54826" lon="5.50521">
        <ele>494.6</ele>
        <time>2022-03-07T10:34:05Z</time>
      </trkpt>
      <trkpt lat="46.54824" lon="5.50521">
        <ele>494.6</ele>
        <time>2022-03-07T10:34:06Z</time>
      </trkpt>
      <trkpt lat="46.54822" lon="5.5052">
        <ele>495</ele>
        <time>2022-03-07T10:34:07Z</time>
      </trkpt>
      <trkpt lat="46.5482" lon="5.5052">
        <ele>495.2</ele>
        <time>2022-03-07T10:34:08Z</time>
      </trkpt>
      <trkpt lat="46.54818" lon="5.5052">
        <ele>495.2</ele>
        <time>2022-03-07T10:34:09Z</time>
      </trkpt>
      <trkpt lat="46.54816" lon="5.5052">
        <ele>495.6</ele>
        <time>2022-03-07T10:34:10Z</time>
      </trkpt>
      <trkpt lat="46.54814" lon="5.50521">
        <ele>495.8</ele>
        <time>2022-03-07T10:34:11Z</time>
      </trkpt>
      <trkpt lat="46.54812" lon="5.50521">
        <ele>496.2</ele>
        <time>2022-03-07T10:34:12Z</time>
      </trkpt>
      <trkpt lat="46.5481" lon="5.50521">
        <ele>496.4</ele>
        <time>2022-03-07T10:34:13Z</time>
      </trkpt>
      <trkpt lat="46.54808" lon="5.50522">
        <ele>496.4</ele>
        <time>2022-03-07T10:34:14Z</time>
      </trkpt>
      <trkpt lat="46.54806" lon="5.50522">
        <ele>496.6</ele>
        <time>2022-03-07T10:34:15Z</time>
      </trkpt>
      <trkpt lat="46.54804" lon="5.50522">
        <ele>496.6</ele>
        <time>2022-03-07T10:34:16Z</time>
      </trkpt>
      <trkpt lat="46.54803" lon="5.50522">
        <ele>496.8</ele>
        <time>2022-03-07T10:34:17Z</time>
      </trkpt>
      <trkpt lat="46.54801" lon="5.50521">
        <ele>496.8</ele>
        <time>2022-03-07T10:34:18Z</time>
      </trkpt>
      <trkpt lat="46.54799" lon="5.50521">
        <ele>497.2</ele>
        <time>2022-03-07T10:34:19Z</time>
      </trkpt>
      <trkpt lat="46.54797" lon="5.50521">
        <ele>497.2</ele>
        <time>2022-03-07T10:34:20Z</time>
      </trkpt>
      <trkpt lat="46.54795" lon="5.50521">
        <ele>497.6</ele>
        <time>2022-03-07T10:34:21Z</time>
      </trkpt>
      <trkpt lat="46.54794" lon="5.50521">
        <ele>497.6</ele>
        <time>2022-03-07T10:34:22Z</time>
      </trkpt>
      <trkpt lat="46.54792" lon="5.50521">
        <ele>498</ele>
        <time>2022-03-07T10:34:23Z</time>
      </trkpt>
      <trkpt lat="46.5479" lon="5.50522">
        <ele>498</ele>
        <time>2022-03-07T10:34:24Z</time>
      </trkpt>
      <trkpt lat="46.54788" lon="5.50522">
        <ele>498.2</ele>
        <time>2022-03-07T10:34:25Z</time>
      </trkpt>
      <trkpt lat="46.54786" lon="5.50522">
        <ele>498.2</ele>
        <time>2022-03-07T10:34:26Z</time>
      </trkpt>
      <trkpt lat="46.54784" lon="5.50523">
        <ele>498.2</ele>
        <time>2022-03-07T10:34:27Z</time>
      </trkpt>
      <trkpt lat="46.54782" lon="5.50523">
        <ele>498.6</ele>
        <time>2022-03-07T10:34:28Z</time>
      </trkpt>
      <trkpt lat="46.5478" lon="5.50523">
        <ele>498.6</ele>
        <time>2022-03-07T10:34:29Z</time>
      </trkpt>
      <trkpt lat="46.54778" lon="5.50524">
        <ele>498.8</ele>
        <time>2022-03-07T10:34:30Z</time>
      </trkpt>
      <trkpt lat="46.54776" lon="5.50524">
        <ele>498.8</ele>
        <time>2022-03-07T10:34:31Z</time>
      </trkpt>
      <trkpt lat="46.54774" lon="5.50524">
        <ele>499</ele>
        <time>2022-03-07T10:34:32Z</time>
      </trkpt>
      <trkpt lat="46.54772" lon="5.50525">
        <ele>499</ele>
        <time>2022-03-07T10:34:33Z</time>
      </trkpt>
      <trkpt lat="46.5477" lon="5.50526">
        <ele>499.4</ele>
        <time>2022-03-07T10:34:34Z</time>
      </trkpt>
      <trkpt lat="46.54768" lon="5.50526">
        <ele>499.4</ele>
        <time>2022-03-07T10:34:35Z</time>
      </trkpt>
      <trkpt lat="46.54766" lon="5.50527">
        <ele>499.6</ele>
        <time>2022-03-07T10:34:36Z</time>
      </trkpt>
      <trkpt lat="46.54763" lon="5.50527">
        <ele>499.6</ele>
        <time>2022-03-07T10:34:37Z</time>
      </trkpt>
      <trkpt lat="46.54761" lon="5.50528">
        <ele>500</ele>
        <time>2022-03-07T10:34:38Z</time>
      </trkpt>
      <trkpt lat="46.54759" lon="5.50528">
        <ele>500</ele>
        <time>2022-03-07T10:34:39Z</time>
      </trkpt>
      <trkpt lat="46.54756" lon="5.50529">
        <ele>500.4</ele>
        <time>2022-03-07T10:34:40Z</time>
      </trkpt>
      <trkpt lat="46.54754" lon="5.50529">
        <ele>500.4</ele>
        <time>2022-03-07T10:34:41Z</time>
      </trkpt>
      <trkpt lat="46.54751" lon="5.50529">
        <ele>500.6</ele>
        <time>2022-03-07T10:34:42Z</time>
      </trkpt>
      <trkpt lat="46.54748" lon="5.50529">
        <ele>500.8</ele>
        <time>2022-03-07T10:34:43Z</time>
      </trkpt>
      <trkpt lat="46.54745" lon="5.50529">
        <ele>500.8</ele>
        <time>2022-03-07T10:34:44Z</time>
      </trkpt>
      <trkpt lat="46.54742" lon="5.50529">
        <ele>501.2</ele>
        <time>2022-03-07T10:34:45Z</time>
      </trkpt>
      <trkpt lat="46.54739" lon="5.50529">
        <ele>501.2</ele>
        <time>2022-03-07T10:34:46Z</time>
      </trkpt>
      <trkpt lat="46.54737" lon="5.5053">
        <ele>501.6</ele>
        <time>2022-03-07T10:34:47Z</time>
      </trkpt>
      <trkpt lat="46.54735" lon="5.5053">
        <ele>501.8</ele>
        <time>2022-03-07T10:34:48Z</time>
      </trkpt>
      <trkpt lat="46.54732" lon="5.5053">
        <ele>501.8</ele>
        <time>2022-03-07T10:34:49Z</time>
      </trkpt>
      <trkpt lat="46.5473" lon="5.5053">
        <ele>502</ele>
        <time>2022-03-07T10:34:50Z</time>
      </trkpt>
      <trkpt lat="46.54727" lon="5.5053">
        <ele>502</ele>
        <time>2022-03-07T10:34:51Z</time>
      </trkpt>
      <trkpt lat="46.54725" lon="5.50529">
        <ele>502.4</ele>
        <time>2022-03-07T10:34:52Z</time>
      </trkpt>
      <trkpt lat="46.54722" lon="5.50528">
        <ele>502.4</ele>
        <time>2022-03-07T10:34:53Z</time>
      </trkpt>
      <trkpt lat="46.5472" lon="5.50527">
        <ele>502.4</ele>
        <time>2022-03-07T10:34:54Z</time>
      </trkpt>
      <trkpt lat="46.54717" lon="5.50527">
        <ele>502.8</ele>
        <time>2022-03-07T10:34:55Z</time>
      </trkpt>
      <trkpt lat="46.54714" lon="5.50527">
        <ele>502.8</ele>
        <time>2022-03-07T10:34:56Z</time>
      </trkpt>
      <trkpt lat="46.54712" lon="5.50527">
        <ele>503</ele>
        <time>2022-03-07T10:34:57Z</time>
      </trkpt>
      <trkpt lat="46.5471" lon="5.50527">
        <ele>503.4</ele>
        <time>2022-03-07T10:34:58Z</time>
      </trkpt>
      <trkpt lat="46.54707" lon="5.50527">
        <ele>503.4</ele>
        <time>2022-03-07T10:34:59Z</time>
      </trkpt>
      <trkpt lat="46.54704" lon="5.50527">
        <ele>503.6</ele>
        <time>2022-03-07T10:35:00Z</time>
      </trkpt>
      <trkpt lat="46.54702" lon="5.50527">
        <ele>503.6</ele>
        <time>2022-03-07T10:35:01Z</time>
      </trkpt>
      <trkpt lat="46.54699" lon="5.50526">
        <ele>504</ele>
        <time>2022-03-07T10:35:02Z</time>
      </trkpt>
      <trkpt lat="46.54697" lon="5.50526">
        <ele>504</ele>
        <time>2022-03-07T10:35:03Z</time>
      </trkpt>
      <trkpt lat="46.54694" lon="5.50525">
        <ele>504.2</ele>
        <time>2022-03-07T10:35:04Z</time>
      </trkpt>
      <trkpt lat="46.54692" lon="5.50525">
        <ele>504.2</ele>
        <time>2022-03-07T10:35:05Z</time>
      </trkpt>
      <trkpt lat="46.54689" lon="5.50524">
        <ele>504.6</ele>
        <time>2022-03-07T10:35:06Z</time>
      </trkpt>
      <trkpt lat="46.54687" lon="5.50523">
        <ele>504.8</ele>
        <time>2022-03-07T10:35:07Z</time>
      </trkpt>
      <trkpt lat="46.54685" lon="5.50522">
        <ele>504.8</ele>
        <time>2022-03-07T10:35:08Z</time>
      </trkpt>
      <trkpt lat="46.54682" lon="5.50521">
        <ele>505</ele>
        <time>2022-03-07T10:35:09Z</time>
      </trkpt>
      <trkpt lat="46.5468" lon="5.50521">
        <ele>505</ele>
        <time>2022-03-07T10:35:10Z</time>
      </trkpt>
      <trkpt lat="46.54678" lon="5.5052">
        <ele>505.4</ele>
        <time>2022-03-07T10:35:11Z</time>
      </trkpt>
      <trkpt lat="46.54676" lon="5.5052">
        <ele>505.4</ele>
        <time>2022-03-07T10:35:12Z</time>
      </trkpt>
      <trkpt lat="46.54673" lon="5.50519">
        <ele>505.6</ele>
        <time>2022-03-07T10:35:13Z</time>
      </trkpt>
      <trkpt lat="46.54671" lon="5.50519">
        <ele>505.6</ele>
        <time>2022-03-07T10:35:14Z</time>
      </trkpt>
      <trkpt lat="46.54669" lon="5.50518">
        <ele>506</ele>
        <time>2022-03-07T10:35:15Z</time>
      </trkpt>
      <trkpt lat="46.54666" lon="5.50517">
        <ele>506</ele>
        <time>2022-03-07T10:35:16Z</time>
      </trkpt>
      <trkpt lat="46.54664" lon="5.50517">
        <ele>506.2</ele>
        <time>2022-03-07T10:35:17Z</time>
      </trkpt>
      <trkpt lat="46.54662" lon="5.50516">
        <ele>506.2</ele>
        <time>2022-03-07T10:35:18Z</time>
      </trkpt>
      <trkpt lat="46.54659" lon="5.50515">
        <ele>506.2</ele>
        <time>2022-03-07T10:35:19Z</time>
      </trkpt>
      <trkpt lat="46.54657" lon="5.50515">
        <ele>506.6</ele>
        <time>2022-03-07T10:35:20Z</time>
      </trkpt>
      <trkpt lat="46.54654" lon="5.50515">
        <ele>506.6</ele>
        <time>2022-03-07T10:35:21Z</time>
      </trkpt>
      <trkpt lat="46.54652" lon="5.50514">
        <ele>506.8</ele>
        <time>2022-03-07T10:35:22Z</time>
      </trkpt>
      <trkpt lat="46.5465" lon="5.50514">
        <ele>506.8</ele>
        <time>2022-03-07T10:35:23Z</time>
      </trkpt>
      <trkpt lat="46.54647" lon="5.50513">
        <ele>507</ele>
        <time>2022-03-07T10:35:24Z</time>
      </trkpt>
      <trkpt lat="46.54645" lon="5.50513">
        <ele>507</ele>
        <time>2022-03-07T10:35:25Z</time>
      </trkpt>
      <trkpt lat="46.54643" lon="5.50514">
        <ele>507.2</ele>
        <time>2022-03-07T10:35:26Z</time>
      </trkpt>
      <trkpt lat="46.5464" lon="5.50515">
        <ele>507.2</ele>
        <time>2022-03-07T10:35:27Z</time>
      </trkpt>
      <trkpt lat="46.54638" lon="5.50517">
        <ele>507.2</ele>
        <time>2022-03-07T10:35:28Z</time>
      </trkpt>
      <trkpt lat="46.54637" lon="5.5052">
        <ele>507.4</ele>
        <time>2022-03-07T10:35:29Z</time>
      </trkpt>
      <trkpt lat="46.54636" lon="5.50523">
        <ele>507.4</ele>
        <time>2022-03-07T10:35:30Z</time>
      </trkpt>
      <trkpt lat="46.54636" lon="5.50526">
        <ele>507.6</ele>
        <time>2022-03-07T10:35:31Z</time>
      </trkpt>
      <trkpt lat="46.54636" lon="5.50529">
        <ele>508</ele>
        <time>2022-03-07T10:35:32Z</time>
      </trkpt>
      <trkpt lat="46.54636" lon="5.50532">
        <ele>508</ele>
        <time>2022-03-07T10:35:33Z</time>
      </trkpt>
      <trkpt lat="46.54637" lon="5.50534">
        <ele>508.4</ele>
        <time>2022-03-07T10:35:34Z</time>
      </trkpt>
      <trkpt lat="46.54638" lon="5.50536">
        <ele>508.6</ele>
        <time>2022-03-07T10:35:35Z</time>
      </trkpt>
      <trkpt lat="46.5464" lon="5.50537">
        <ele>508.6</ele>
        <time>2022-03-07T10:35:36Z</time>
      </trkpt>
      <trkpt lat="46.54642" lon="5.50539">
        <ele>509</ele>
        <time>2022-03-07T10:35:37Z</time>
      </trkpt>
      <trkpt lat="46.54644" lon="5.5054">
        <ele>509.2</ele>
        <time>2022-03-07T10:35:38Z</time>
      </trkpt>
      <trkpt lat="46.54646" lon="5.50541">
        <ele>509.2</ele>
        <time>2022-03-07T10:35:39Z</time>
      </trkpt>
      <trkpt lat="46.54647" lon="5.50543">
        <ele>509.4</ele>
        <time>2022-03-07T10:35:40Z</time>
      </trkpt>
      <trkpt lat="46.54649" lon="5.50545">
        <ele>509.6</ele>
        <time>2022-03-07T10:35:41Z</time>
      </trkpt>
      <trkpt lat="46.54651" lon="5.50547">
        <ele>509.6</ele>
        <time>2022-03-07T10:35:42Z</time>
      </trkpt>
      <trkpt lat="46.54653" lon="5.50549">
        <ele>509.8</ele>
        <time>2022-03-07T10:35:43Z</time>
      </trkpt>
      <trkpt lat="46.54655" lon="5.5055">
        <ele>509.8</ele>
        <time>2022-03-07T10:35:44Z</time>
      </trkpt>
      <trkpt lat="46.54657" lon="5.50551">
        <ele>510.2</ele>
        <time>2022-03-07T10:35:45Z</time>
      </trkpt>
      <trkpt lat="46.54659" lon="5.50552">
        <ele>510.4</ele>
        <time>2022-03-07T10:35:46Z</time>
      </trkpt>
      <trkpt lat="46.54661" lon="5.50553">
        <ele>510.4</ele>
        <time>2022-03-07T10:35:47Z</time>
      </trkpt>
      <trkpt lat="46.54663" lon="5.50555">
        <ele>510.6</ele>
        <time>2022-03-07T10:35:48Z</time>
      </trkpt>
      <trkpt lat="46.54665" lon="5.50556">
        <ele>510.6</ele>
        <time>2022-03-07T10:35:49Z</time>
      </trkpt>
      <trkpt lat="46.54667" lon="5.50557">
        <ele>511</ele>
        <time>2022-03-07T10:35:50Z</time>
      </trkpt>
      <trkpt lat="46.54669" lon="5.50558">
        <ele>511</ele>
        <time>2022-03-07T10:35:51Z</time>
      </trkpt>
      <trkpt lat="46.54671" lon="5.50559">
        <ele>511.2</ele>
        <time>2022-03-07T10:35:52Z</time>
      </trkpt>
      <trkpt lat="46.54673" lon="5.5056">
        <ele>511.2</ele>
        <time>2022-03-07T10:35:53Z</time>
      </trkpt>
      <trkpt lat="46.54676" lon="5.50562">
        <ele>511.4</ele>
        <time>2022-03-07T10:35:54Z</time>
      </trkpt>
      <trkpt lat="46.54678" lon="5.50563">
        <ele>511.4</ele>
        <time>2022-03-07T10:35:55Z</time>
      </trkpt>
      <trkpt lat="46.5468" lon="5.50564">
        <ele>511.4</ele>
        <time>2022-03-07T10:35:56Z</time>
      </trkpt>
      <trkpt lat="46.54681" lon="5.50565">
        <ele>511.8</ele>
        <time>2022-03-07T10:35:57Z</time>
      </trkpt>
      <trkpt lat="46.54683" lon="5.50567">
        <ele>511.8</ele>
        <time>2022-03-07T10:35:58Z</time>
      </trkpt>
      <trkpt lat="46.54685" lon="5.50569">
        <ele>512</ele>
        <time>2022-03-07T10:35:59Z</time>
      </trkpt>
      <trkpt lat="46.54687" lon="5.5057">
        <ele>512.2</ele>
        <time>2022-03-07T10:36:00Z</time>
      </trkpt>
      <trkpt lat="46.54689" lon="5.50571">
        <ele>512.2</ele>
        <time>2022-03-07T10:36:01Z</time>
      </trkpt>
      <trkpt lat="46.54691" lon="5.50572">
        <ele>512.6</ele>
        <time>2022-03-07T10:36:02Z</time>
      </trkpt>
      <trkpt lat="46.54693" lon="5.50573">
        <ele>512.6</ele>
        <time>2022-03-07T10:36:03Z</time>
      </trkpt>
      <trkpt lat="46.54695" lon="5.50574">
        <ele>513</ele>
        <time>2022-03-07T10:36:04Z</time>
      </trkpt>
      <trkpt lat="46.54697" lon="5.50576">
        <ele>513</ele>
        <time>2022-03-07T10:36:05Z</time>
      </trkpt>
      <trkpt lat="46.54699" lon="5.50578">
        <ele>513.2</ele>
        <time>2022-03-07T10:36:06Z</time>
      </trkpt>
      <trkpt lat="46.54701" lon="5.5058">
        <ele>513.2</ele>
        <time>2022-03-07T10:36:07Z</time>
      </trkpt>
      <trkpt lat="46.54703" lon="5.50583">
        <ele>513.4</ele>
        <time>2022-03-07T10:36:08Z</time>
      </trkpt>
      <trkpt lat="46.54705" lon="5.50585">
        <ele>513.4</ele>
        <time>2022-03-07T10:36:09Z</time>
      </trkpt>
      <trkpt lat="46.54707" lon="5.50587">
        <ele>513.6</ele>
        <time>2022-03-07T10:36:10Z</time>
      </trkpt>
      <trkpt lat="46.54709" lon="5.50589">
        <ele>513.6</ele>
        <time>2022-03-07T10:36:11Z</time>
      </trkpt>
      <trkpt lat="46.54711" lon="5.50591">
        <ele>514</ele>
        <time>2022-03-07T10:36:12Z</time>
      </trkpt>
      <trkpt lat="46.54713" lon="5.50593">
        <ele>514</ele>
        <time>2022-03-07T10:36:13Z</time>
      </trkpt>
      <trkpt lat="46.54715" lon="5.50595">
        <ele>514.2</ele>
        <time>2022-03-07T10:36:14Z</time>
      </trkpt>
      <trkpt lat="46.54717" lon="5.50597">
        <ele>514.2</ele>
        <time>2022-03-07T10:36:15Z</time>
      </trkpt>
      <trkpt lat="46.54719" lon="5.50599">
        <ele>514.6</ele>
        <time>2022-03-07T10:36:16Z</time>
      </trkpt>
      <trkpt lat="46.54722" lon="5.50601">
        <ele>514.6</ele>
        <time>2022-03-07T10:36:17Z</time>
      </trkpt>
      <trkpt lat="46.54724" lon="5.50603">
        <ele>514.8</ele>
        <time>2022-03-07T10:36:18Z</time>
      </trkpt>
      <trkpt lat="46.54725" lon="5.50605">
        <ele>515</ele>
        <time>2022-03-07T10:36:19Z</time>
      </trkpt>
      <trkpt lat="46.54728" lon="5.50607">
        <ele>515</ele>
        <time>2022-03-07T10:36:20Z</time>
      </trkpt>
      <trkpt lat="46.5473" lon="5.50609">
        <ele>515.4</ele>
        <time>2022-03-07T10:36:21Z</time>
      </trkpt>
      <trkpt lat="46.54732" lon="5.50611">
        <ele>515.4</ele>
        <time>2022-03-07T10:36:22Z</time>
      </trkpt>
      <trkpt lat="46.54734" lon="5.50613">
        <ele>515.6</ele>
        <time>2022-03-07T10:36:23Z</time>
      </trkpt>
      <trkpt lat="46.54735" lon="5.50616">
        <ele>515.6</ele>
        <time>2022-03-07T10:36:24Z</time>
      </trkpt>
      <trkpt lat="46.54737" lon="5.50618">
        <ele>516</ele>
        <time>2022-03-07T10:36:25Z</time>
      </trkpt>
      <trkpt lat="46.5474" lon="5.5062">
        <ele>516</ele>
        <time>2022-03-07T10:36:26Z</time>
      </trkpt>
      <trkpt lat="46.54742" lon="5.50622">
        <ele>516.2</ele>
        <time>2022-03-07T10:36:27Z</time>
      </trkpt>
      <trkpt lat="46.54743" lon="5.50625">
        <ele>516.2</ele>
        <time>2022-03-07T10:36:28Z</time>
      </trkpt>
      <trkpt lat="46.54745" lon="5.50627">
        <ele>516.6</ele>
        <time>2022-03-07T10:36:29Z</time>
      </trkpt>
      <trkpt lat="46.54747" lon="5.50629">
        <ele>516.6</ele>
        <time>2022-03-07T10:36:30Z</time>
      </trkpt>
      <trkpt lat="46.54749" lon="5.50632">
        <ele>516.8</ele>
        <time>2022-03-07T10:36:31Z</time>
      </trkpt>
      <trkpt lat="46.54751" lon="5.50634">
        <ele>516.8</ele>
        <time>2022-03-07T10:36:32Z</time>
      </trkpt>
      <trkpt lat="46.54753" lon="5.50636">
        <ele>517.2</ele>
        <time>2022-03-07T10:36:33Z</time>
      </trkpt>
      <trkpt lat="46.54755" lon="5.50638">
        <ele>517.2</ele>
        <time>2022-03-07T10:36:34Z</time>
      </trkpt>
      <trkpt lat="46.54757" lon="5.5064">
        <ele>517.4</ele>
        <time>2022-03-07T10:36:35Z</time>
      </trkpt>
      <trkpt lat="46.54759" lon="5.50643">
        <ele>517.4</ele>
        <time>2022-03-07T10:36:36Z</time>
      </trkpt>
      <trkpt lat="46.54761" lon="5.50645">
        <ele>517.8</ele>
        <time>2022-03-07T10:36:37Z</time>
      </trkpt>
      <trkpt lat="46.54763" lon="5.50648">
        <ele>517.8</ele>
        <time>2022-03-07T10:36:38Z</time>
      </trkpt>
      <trkpt lat="46.54765" lon="5.5065">
        <ele>518</ele>
        <time>2022-03-07T10:36:39Z</time>
      </trkpt>
      <trkpt lat="46.54767" lon="5.50652">
        <ele>518</ele>
        <time>2022-03-07T10:36:40Z</time>
      </trkpt>
      <trkpt lat="46.54769" lon="5.50655">
        <ele>518.4</ele>
        <time>2022-03-07T10:36:41Z</time>
      </trkpt>
      <trkpt lat="46.54771" lon="5.50658">
        <ele>518.4</ele>
        <time>2022-03-07T10:36:42Z</time>
      </trkpt>
      <trkpt lat="46.54772" lon="5.50661">
        <ele>518.8</ele>
        <time>2022-03-07T10:36:43Z</time>
      </trkpt>
      <trkpt lat="46.54775" lon="5.50663">
        <ele>518.8</ele>
        <time>2022-03-07T10:36:44Z</time>
      </trkpt>
      <trkpt lat="46.54776" lon="5.50666">
        <ele>519.2</ele>
        <time>2022-03-07T10:36:45Z</time>
      </trkpt>
      <trkpt lat="46.54778" lon="5.50669">
        <ele>519.2</ele>
        <time>2022-03-07T10:36:46Z</time>
      </trkpt>
      <trkpt lat="46.5478" lon="5.50672">
        <ele>519.4</ele>
        <time>2022-03-07T10:36:47Z</time>
      </trkpt>
      <trkpt lat="46.54782" lon="5.50675">
        <ele>519.4</ele>
        <time>2022-03-07T10:36:48Z</time>
      </trkpt>
      <trkpt lat="46.54783" lon="5.50679">
        <ele>519.8</ele>
        <time>2022-03-07T10:36:49Z</time>
      </trkpt>
      <trkpt lat="46.54785" lon="5.50682">
        <ele>519.8</ele>
        <time>2022-03-07T10:36:50Z</time>
      </trkpt>
      <trkpt lat="46.54786" lon="5.50685">
        <ele>520</ele>
        <time>2022-03-07T10:36:51Z</time>
      </trkpt>
      <trkpt lat="46.54787" lon="5.50689">
        <ele>520</ele>
        <time>2022-03-07T10:36:52Z</time>
      </trkpt>
      <trkpt lat="46.54788" lon="5.50692">
        <ele>520.4</ele>
        <time>2022-03-07T10:36:53Z</time>
      </trkpt>
      <trkpt lat="46.54788" lon="5.50696">
        <ele>520.6</ele>
        <time>2022-03-07T10:36:54Z</time>
      </trkpt>
      <trkpt lat="46.54789" lon="5.507">
        <ele>520.6</ele>
        <time>2022-03-07T10:36:55Z</time>
      </trkpt>
      <trkpt lat="46.5479" lon="5.50704">
        <ele>520.8</ele>
        <time>2022-03-07T10:36:56Z</time>
      </trkpt>
      <trkpt lat="46.5479" lon="5.50707">
        <ele>520.8</ele>
        <time>2022-03-07T10:36:57Z</time>
      </trkpt>
      <trkpt lat="46.54789" lon="5.50711">
        <ele>521.2</ele>
        <time>2022-03-07T10:36:58Z</time>
      </trkpt>
      <trkpt lat="46.54789" lon="5.50715">
        <ele>521.4</ele>
        <time>2022-03-07T10:36:59Z</time>
      </trkpt>
      <trkpt lat="46.54788" lon="5.50719">
        <ele>521.6</ele>
        <time>2022-03-07T10:37:00Z</time>
      </trkpt>
      <trkpt lat="46.54787" lon="5.50722">
        <ele>521.8</ele>
        <time>2022-03-07T10:37:01Z</time>
      </trkpt>
      <trkpt lat="46.54786" lon="5.50726">
        <ele>521.8</ele>
        <time>2022-03-07T10:37:02Z</time>
      </trkpt>
      <trkpt lat="46.54785" lon="5.50729">
        <ele>522.2</ele>
        <time>2022-03-07T10:37:03Z</time>
      </trkpt>
      <trkpt lat="46.54784" lon="5.50732">
        <ele>522.4</ele>
        <time>2022-03-07T10:37:04Z</time>
      </trkpt>
      <trkpt lat="46.54783" lon="5.50736">
        <ele>522.8</ele>
        <time>2022-03-07T10:37:05Z</time>
      </trkpt>
      <trkpt lat="46.54782" lon="5.50739">
        <ele>523</ele>
        <time>2022-03-07T10:37:06Z</time>
      </trkpt>
      <trkpt lat="46.5478" lon="5.50741">
        <ele>523.2</ele>
        <time>2022-03-07T10:37:07Z</time>
      </trkpt>
      <trkpt lat="46.54778" lon="5.50744">
        <ele>523.2</ele>
        <time>2022-03-07T10:37:08Z</time>
      </trkpt>
      <trkpt lat="46.54776" lon="5.50746">
        <ele>523.6</ele>
        <time>2022-03-07T10:37:09Z</time>
      </trkpt>
      <trkpt lat="46.54774" lon="5.50749">
        <ele>523.6</ele>
        <time>2022-03-07T10:37:10Z</time>
      </trkpt>
      <trkpt lat="46.54772" lon="5.5075">
        <ele>524</ele>
        <time>2022-03-07T10:37:11Z</time>
      </trkpt>
      <trkpt lat="46.5477" lon="5.50752">
        <ele>524</ele>
        <time>2022-03-07T10:37:12Z</time>
      </trkpt>
      <trkpt lat="46.54768" lon="5.50754">
        <ele>524.2</ele>
        <time>2022-03-07T10:37:13Z</time>
      </trkpt>
      <trkpt lat="46.54766" lon="5.50756">
        <ele>524.4</ele>
        <time>2022-03-07T10:37:14Z</time>
      </trkpt>
      <trkpt lat="46.54764" lon="5.50758">
        <ele>524.6</ele>
        <time>2022-03-07T10:37:15Z</time>
      </trkpt>
      <trkpt lat="46.54762" lon="5.50759">
        <ele>524.8</ele>
        <time>2022-03-07T10:37:16Z</time>
      </trkpt>
      <trkpt lat="46.5476" lon="5.5076">
        <ele>525.2</ele>
        <time>2022-03-07T10:37:17Z</time>
      </trkpt>
      <trkpt lat="46.54758" lon="5.50761">
        <ele>525.4</ele>
        <time>2022-03-07T10:37:18Z</time>
      </trkpt>
      <trkpt lat="46.54755" lon="5.50763">
        <ele>525.6</ele>
        <time>2022-03-07T10:37:19Z</time>
      </trkpt>
      <trkpt lat="46.54753" lon="5.50764">
        <ele>525.6</ele>
        <time>2022-03-07T10:37:20Z</time>
      </trkpt>
      <trkpt lat="46.54751" lon="5.50765">
        <ele>525.8</ele>
        <time>2022-03-07T10:37:21Z</time>
      </trkpt>
      <trkpt lat="46.54749" lon="5.50766">
        <ele>525.8</ele>
        <time>2022-03-07T10:37:22Z</time>
      </trkpt>
      <trkpt lat="46.54747" lon="5.50767">
        <ele>526.2</ele>
        <time>2022-03-07T10:37:23Z</time>
      </trkpt>
      <trkpt lat="46.54745" lon="5.50768">
        <ele>526.4</ele>
        <time>2022-03-07T10:37:24Z</time>
      </trkpt>
      <trkpt lat="46.54743" lon="5.50769">
        <ele>526.6</ele>
        <time>2022-03-07T10:37:25Z</time>
      </trkpt>
      <trkpt lat="46.54741" lon="5.5077">
        <ele>526.8</ele>
        <time>2022-03-07T10:37:26Z</time>
      </trkpt>
      <trkpt lat="46.54739" lon="5.5077">
        <ele>526.8</ele>
        <time>2022-03-07T10:37:27Z</time>
      </trkpt>
      <trkpt lat="46.54737" lon="5.50771">
        <ele>527.2</ele>
        <time>2022-03-07T10:37:28Z</time>
      </trkpt>
      <trkpt lat="46.54735" lon="5.50772">
        <ele>527.4</ele>
        <time>2022-03-07T10:37:29Z</time>
      </trkpt>
      <trkpt lat="46.54732" lon="5.50773">
        <ele>527.4</ele>
        <time>2022-03-07T10:37:30Z</time>
      </trkpt>
      <trkpt lat="46.54729" lon="5.50774">
        <ele>527.6</ele>
        <time>2022-03-07T10:37:31Z</time>
      </trkpt>
      <trkpt lat="46.54727" lon="5.50775">
        <ele>527.6</ele>
        <time>2022-03-07T10:37:32Z</time>
      </trkpt>
      <trkpt lat="46.54725" lon="5.50777">
        <ele>527.6</ele>
        <time>2022-03-07T10:37:33Z</time>
      </trkpt>
      <trkpt lat="46.54722" lon="5.50778">
        <ele>528</ele>
        <time>2022-03-07T10:37:34Z</time>
      </trkpt>
      <trkpt lat="46.5472" lon="5.50778">
        <ele>528</ele>
        <time>2022-03-07T10:37:35Z</time>
      </trkpt>
      <trkpt lat="46.54717" lon="5.50779">
        <ele>528.2</ele>
        <time>2022-03-07T10:37:36Z</time>
      </trkpt>
      <trkpt lat="46.54714" lon="5.5078">
        <ele>528.2</ele>
        <time>2022-03-07T10:37:37Z</time>
      </trkpt>
      <trkpt lat="46.54712" lon="5.50781">
        <ele>528.4</ele>
        <time>2022-03-07T10:37:38Z</time>
      </trkpt>
      <trkpt lat="46.54709" lon="5.50783">
        <ele>528.4</ele>
        <time>2022-03-07T10:37:39Z</time>
      </trkpt>
      <trkpt lat="46.54706" lon="5.50784">
        <ele>528.4</ele>
        <time>2022-03-07T10:37:40Z</time>
      </trkpt>
      <trkpt lat="46.54703" lon="5.50786">
        <ele>528.6</ele>
        <time>2022-03-07T10:37:41Z</time>
      </trkpt>
      <trkpt lat="46.54701" lon="5.50788">
        <ele>528.6</ele>
        <time>2022-03-07T10:37:42Z</time>
      </trkpt>
      <trkpt lat="46.54698" lon="5.50789">
        <ele>528.6</ele>
        <time>2022-03-07T10:37:43Z</time>
      </trkpt>
      <trkpt lat="46.54695" lon="5.50791">
        <ele>529</ele>
        <time>2022-03-07T10:37:44Z</time>
      </trkpt>
      <trkpt lat="46.54692" lon="5.50792">
        <ele>529.4</ele>
        <time>2022-03-07T10:37:45Z</time>
      </trkpt>
      <trkpt lat="46.54689" lon="5.50793">
        <ele>529.4</ele>
        <time>2022-03-07T10:37:46Z</time>
      </trkpt>
      <trkpt lat="46.54686" lon="5.50795">
        <ele>529.6</ele>
        <time>2022-03-07T10:37:47Z</time>
      </trkpt>
      <trkpt lat="46.54683" lon="5.50797">
        <ele>529.6</ele>
        <time>2022-03-07T10:37:48Z</time>
      </trkpt>
      <trkpt lat="46.54681" lon="5.50799">
        <ele>529.8</ele>
        <time>2022-03-07T10:37:49Z</time>
      </trkpt>
      <trkpt lat="46.54678" lon="5.508">
        <ele>529.8</ele>
        <time>2022-03-07T10:37:50Z</time>
      </trkpt>
      <trkpt lat="46.54675" lon="5.50801">
        <ele>529.8</ele>
        <time>2022-03-07T10:37:51Z</time>
      </trkpt>
      <trkpt lat="46.54671" lon="5.50803">
        <ele>530</ele>
        <time>2022-03-07T10:37:52Z</time>
      </trkpt>
      <trkpt lat="46.54669" lon="5.50805">
        <ele>530</ele>
        <time>2022-03-07T10:37:53Z</time>
      </trkpt>
      <trkpt lat="46.54666" lon="5.50806">
        <ele>530.4</ele>
        <time>2022-03-07T10:37:54Z</time>
      </trkpt>
      <trkpt lat="46.54663" lon="5.50808">
        <ele>530.6</ele>
        <time>2022-03-07T10:37:55Z</time>
      </trkpt>
      <trkpt lat="46.5466" lon="5.5081">
        <ele>530.6</ele>
        <time>2022-03-07T10:37:56Z</time>
      </trkpt>
      <trkpt lat="46.54657" lon="5.50812">
        <ele>530.8</ele>
        <time>2022-03-07T10:37:57Z</time>
      </trkpt>
      <trkpt lat="46.54653" lon="5.50814">
        <ele>530.8</ele>
        <time>2022-03-07T10:37:58Z</time>
      </trkpt>
      <trkpt lat="46.54649" lon="5.50816">
        <ele>530.8</ele>
        <time>2022-03-07T10:37:59Z</time>
      </trkpt>
      <trkpt lat="46.54646" lon="5.50818">
        <ele>530.8</ele>
        <time>2022-03-07T10:38:00Z</time>
      </trkpt>
      <trkpt lat="46.54643" lon="5.50821">
        <ele>531</ele>
        <time>2022-03-07T10:38:01Z</time>
      </trkpt>
      <trkpt lat="46.54641" lon="5.50823">
        <ele>531</ele>
        <time>2022-03-07T10:38:02Z</time>
      </trkpt>
      <trkpt lat="46.54638" lon="5.50826">
        <ele>531</ele>
        <time>2022-03-07T10:38:03Z</time>
      </trkpt>
      <trkpt lat="46.54635" lon="5.50829">
        <ele>531.4</ele>
        <time>2022-03-07T10:38:04Z</time>
      </trkpt>
      <trkpt lat="46.54632" lon="5.50832">
        <ele>531.4</ele>
        <time>2022-03-07T10:38:05Z</time>
      </trkpt>
      <trkpt lat="46.54629" lon="5.50835">
        <ele>531.4</ele>
        <time>2022-03-07T10:38:06Z</time>
      </trkpt>
      <trkpt lat="46.54626" lon="5.50837">
        <ele>531.4</ele>
        <time>2022-03-07T10:38:07Z</time>
      </trkpt>
      <trkpt lat="46.54623" lon="5.5084">
        <ele>531.6</ele>
        <time>2022-03-07T10:38:08Z</time>
      </trkpt>
      <trkpt lat="46.54621" lon="5.50842">
        <ele>531.6</ele>
        <time>2022-03-07T10:38:09Z</time>
      </trkpt>
      <trkpt lat="46.54618" lon="5.50845">
        <ele>531.6</ele>
        <time>2022-03-07T10:38:10Z</time>
      </trkpt>
      <trkpt lat="46.54615" lon="5.50848">
        <ele>531.6</ele>
        <time>2022-03-07T10:38:11Z</time>
      </trkpt>
      <trkpt lat="46.54613" lon="5.50851">
        <ele>531.6</ele>
        <time>2022-03-07T10:38:12Z</time>
      </trkpt>
      <trkpt lat="46.5461" lon="5.50854">
        <ele>531.8</ele>
        <time>2022-03-07T10:38:13Z</time>
      </trkpt>
      <trkpt lat="46.54608" lon="5.50857">
        <ele>531.8</ele>
        <time>2022-03-07T10:38:14Z</time>
      </trkpt>
      <trkpt lat="46.54606" lon="5.5086">
        <ele>531.8</ele>
        <time>2022-03-07T10:38:15Z</time>
      </trkpt>
      <trkpt lat="46.54603" lon="5.50862">
        <ele>531.8</ele>
        <time>2022-03-07T10:38:16Z</time>
      </trkpt>
      <trkpt lat="46.54601" lon="5.50865">
        <ele>532</ele>
        <time>2022-03-07T10:38:17Z</time>
      </trkpt>
      <trkpt lat="46.54598" lon="5.50867">
        <ele>532</ele>
        <time>2022-03-07T10:38:18Z</time>
      </trkpt>
      <trkpt lat="46.54595" lon="5.5087">
        <ele>532</ele>
        <time>2022-03-07T10:38:19Z</time>
      </trkpt>
      <trkpt lat="46.54593" lon="5.50872">
        <ele>532.4</ele>
        <time>2022-03-07T10:38:20Z</time>
      </trkpt>
      <trkpt lat="46.5459" lon="5.50875">
        <ele>532.4</ele>
        <time>2022-03-07T10:38:21Z</time>
      </trkpt>
      <trkpt lat="46.54588" lon="5.50878">
        <ele>532.4</ele>
        <time>2022-03-07T10:38:22Z</time>
      </trkpt>
      <trkpt lat="46.54586" lon="5.5088">
        <ele>532.4</ele>
        <time>2022-03-07T10:38:23Z</time>
      </trkpt>
      <trkpt lat="46.54584" lon="5.50882">
        <ele>532.6</ele>
        <time>2022-03-07T10:38:24Z</time>
      </trkpt>
      <trkpt lat="46.54581" lon="5.50885">
        <ele>532.6</ele>
        <time>2022-03-07T10:38:25Z</time>
      </trkpt>
      <trkpt lat="46.54579" lon="5.50887">
        <ele>533</ele>
        <time>2022-03-07T10:38:26Z</time>
      </trkpt>
      <trkpt lat="46.54577" lon="5.5089">
        <ele>533</ele>
        <time>2022-03-07T10:38:27Z</time>
      </trkpt>
      <trkpt lat="46.54574" lon="5.50892">
        <ele>533.2</ele>
        <time>2022-03-07T10:38:28Z</time>
      </trkpt>
      <trkpt lat="46.54572" lon="5.50895">
        <ele>533.2</ele>
        <time>2022-03-07T10:38:29Z</time>
      </trkpt>
      <trkpt lat="46.5457" lon="5.50897">
        <ele>533.6</ele>
        <time>2022-03-07T10:38:30Z</time>
      </trkpt>
      <trkpt lat="46.54568" lon="5.509">
        <ele>533.6</ele>
        <time>2022-03-07T10:38:31Z</time>
      </trkpt>
      <trkpt lat="46.54566" lon="5.50902">
        <ele>533.8</ele>
        <time>2022-03-07T10:38:32Z</time>
      </trkpt>
      <trkpt lat="46.54564" lon="5.50904">
        <ele>533.8</ele>
        <time>2022-03-07T10:38:33Z</time>
      </trkpt>
      <trkpt lat="46.54561" lon="5.50906">
        <ele>534</ele>
        <time>2022-03-07T10:38:34Z</time>
      </trkpt>
      <trkpt lat="46.54559" lon="5.50909">
        <ele>534</ele>
        <time>2022-03-07T10:38:35Z</time>
      </trkpt>
      <trkpt lat="46.54556" lon="5.50911">
        <ele>534.2</ele>
        <time>2022-03-07T10:38:36Z</time>
      </trkpt>
      <trkpt lat="46.54554" lon="5.50913">
        <ele>534.2</ele>
        <time>2022-03-07T10:38:37Z</time>
      </trkpt>
      <trkpt lat="46.54551" lon="5.50916">
        <ele>534.6</ele>
        <time>2022-03-07T10:38:38Z</time>
      </trkpt>
      <trkpt lat="46.54549" lon="5.50918">
        <ele>534.6</ele>
        <time>2022-03-07T10:38:39Z</time>
      </trkpt>
      <trkpt lat="46.54546" lon="5.50921">
        <ele>534.6</ele>
        <time>2022-03-07T10:38:40Z</time>
      </trkpt>
      <trkpt lat="46.54544" lon="5.50923">
        <ele>534.8</ele>
        <time>2022-03-07T10:38:41Z</time>
      </trkpt>
      <trkpt lat="46.54541" lon="5.50926">
        <ele>534.8</ele>
        <time>2022-03-07T10:38:42Z</time>
      </trkpt>
      <trkpt lat="46.54539" lon="5.50928">
        <ele>534.8</ele>
        <time>2022-03-07T10:38:43Z</time>
      </trkpt>
      <trkpt lat="46.54537" lon="5.50931">
        <ele>535</ele>
        <time>2022-03-07T10:38:44Z</time>
      </trkpt>
      <trkpt lat="46.54534" lon="5.50933">
        <ele>535</ele>
        <time>2022-03-07T10:38:45Z</time>
      </trkpt>
      <trkpt lat="46.54532" lon="5.50936">
        <ele>535</ele>
        <time>2022-03-07T10:38:46Z</time>
      </trkpt>
      <trkpt lat="46.54529" lon="5.50938">
        <ele>535.4</ele>
        <time>2022-03-07T10:38:47Z</time>
      </trkpt>
      <trkpt lat="46.54526" lon="5.5094">
        <ele>535.4</ele>
        <time>2022-03-07T10:38:48Z</time>
      </trkpt>
      <trkpt lat="46.54524" lon="5.50942">
        <ele>535.4</ele>
        <time>2022-03-07T10:38:49Z</time>
      </trkpt>
      <trkpt lat="46.54521" lon="5.50944">
        <ele>535.4</ele>
        <time>2022-03-07T10:38:50Z</time>
      </trkpt>
      <trkpt lat="46.54519" lon="5.50947">
        <ele>535.6</ele>
        <time>2022-03-07T10:38:51Z</time>
      </trkpt>
      <trkpt lat="46.54516" lon="5.50949">
        <ele>535.6</ele>
        <time>2022-03-07T10:38:52Z</time>
      </trkpt>
      <trkpt lat="46.54514" lon="5.50952">
        <ele>535.6</ele>
        <time>2022-03-07T10:38:53Z</time>
      </trkpt>
      <trkpt lat="46.54511" lon="5.50954">
        <ele>535.6</ele>
        <time>2022-03-07T10:38:54Z</time>
      </trkpt>
      <trkpt lat="46.54508" lon="5.50956">
        <ele>535.6</ele>
        <time>2022-03-07T10:38:55Z</time>
      </trkpt>
      <trkpt lat="46.54505" lon="5.50958">
        <ele>535.8</ele>
        <time>2022-03-07T10:38:56Z</time>
      </trkpt>
      <trkpt lat="46.54502" lon="5.5096">
        <ele>535.8</ele>
        <time>2022-03-07T10:38:57Z</time>
      </trkpt>
      <trkpt lat="46.54499" lon="5.50962">
        <ele>535.8</ele>
        <time>2022-03-07T10:38:58Z</time>
      </trkpt>
      <trkpt lat="46.54496" lon="5.50964">
        <ele>535.8</ele>
        <time>2022-03-07T10:38:59Z</time>
      </trkpt>
      <trkpt lat="46.54493" lon="5.50967">
        <ele>536</ele>
        <time>2022-03-07T10:39:00Z</time>
      </trkpt>
      <trkpt lat="46.54491" lon="5.50969">
        <ele>536</ele>
        <time>2022-03-07T10:39:01Z</time>
      </trkpt>
      <trkpt lat="46.54488" lon="5.50971">
        <ele>536.4</ele>
        <time>2022-03-07T10:39:02Z</time>
      </trkpt>
      <trkpt lat="46.54485" lon="5.50973">
        <ele>536.4</ele>
        <time>2022-03-07T10:39:03Z</time>
      </trkpt>
      <trkpt lat="46.54483" lon="5.50975">
        <ele>536.6</ele>
        <time>2022-03-07T10:39:04Z</time>
      </trkpt>
      <trkpt lat="46.5448" lon="5.50977">
        <ele>536.6</ele>
        <time>2022-03-07T10:39:05Z</time>
      </trkpt>
      <trkpt lat="46.54478" lon="5.50978">
        <ele>536.8</ele>
        <time>2022-03-07T10:39:06Z</time>
      </trkpt>
      <trkpt lat="46.54475" lon="5.5098">
        <ele>536.8</ele>
        <time>2022-03-07T10:39:07Z</time>
      </trkpt>
      <trkpt lat="46.54472" lon="5.50982">
        <ele>536.8</ele>
        <time>2022-03-07T10:39:08Z</time>
      </trkpt>
      <trkpt lat="46.54469" lon="5.50984">
        <ele>537.2</ele>
        <time>2022-03-07T10:39:09Z</time>
      </trkpt>
      <trkpt lat="46.54467" lon="5.50986">
        <ele>537.2</ele>
        <time>2022-03-07T10:39:10Z</time>
      </trkpt>
      <trkpt lat="46.54464" lon="5.50988">
        <ele>537.4</ele>
        <time>2022-03-07T10:39:11Z</time>
      </trkpt>
      <trkpt lat="46.54461" lon="5.5099">
        <ele>537.4</ele>
        <time>2022-03-07T10:39:12Z</time>
      </trkpt>
      <trkpt lat="46.54459" lon="5.50992">
        <ele>537.4</ele>
        <time>2022-03-07T10:39:13Z</time>
      </trkpt>
      <trkpt lat="46.54456" lon="5.50994">
        <ele>537.6</ele>
        <time>2022-03-07T10:39:14Z</time>
      </trkpt>
      <trkpt lat="46.54453" lon="5.50996">
        <ele>537.6</ele>
        <time>2022-03-07T10:39:15Z</time>
      </trkpt>
      <trkpt lat="46.54451" lon="5.50998">
        <ele>537.6</ele>
        <time>2022-03-07T10:39:16Z</time>
      </trkpt>
      <trkpt lat="46.54448" lon="5.51">
        <ele>538</ele>
        <time>2022-03-07T10:39:17Z</time>
      </trkpt>
      <trkpt lat="46.54445" lon="5.51002">
        <ele>538</ele>
        <time>2022-03-07T10:39:18Z</time>
      </trkpt>
      <trkpt lat="46.54443" lon="5.51003">
        <ele>538</ele>
        <time>2022-03-07T10:39:19Z</time>
      </trkpt>
      <trkpt lat="46.5444" lon="5.51005">
        <ele>538.2</ele>
        <time>2022-03-07T10:39:20Z</time>
      </trkpt>
      <trkpt lat="46.54438" lon="5.51006">
        <ele>538.2</ele>
        <time>2022-03-07T10:39:21Z</time>
      </trkpt>
      <trkpt lat="46.54435" lon="5.51008">
        <ele>538.6</ele>
        <time>2022-03-07T10:39:22Z</time>
      </trkpt>
      <trkpt lat="46.54433" lon="5.5101">
        <ele>538.6</ele>
        <time>2022-03-07T10:39:23Z</time>
      </trkpt>
      <trkpt lat="46.5443" lon="5.51012">
        <ele>538.8</ele>
        <time>2022-03-07T10:39:24Z</time>
      </trkpt>
      <trkpt lat="46.54428" lon="5.51014">
        <ele>538.8</ele>
        <time>2022-03-07T10:39:25Z</time>
      </trkpt>
      <trkpt lat="46.54425" lon="5.51016">
        <ele>539.2</ele>
        <time>2022-03-07T10:39:26Z</time>
      </trkpt>
      <trkpt lat="46.54423" lon="5.51017">
        <ele>539.2</ele>
        <time>2022-03-07T10:39:27Z</time>
      </trkpt>
      <trkpt lat="46.5442" lon="5.51019">
        <ele>539.4</ele>
        <time>2022-03-07T10:39:28Z</time>
      </trkpt>
      <trkpt lat="46.54418" lon="5.51021">
        <ele>539.4</ele>
        <time>2022-03-07T10:39:29Z</time>
      </trkpt>
      <trkpt lat="46.54415" lon="5.51023">
        <ele>539.6</ele>
        <time>2022-03-07T10:39:30Z</time>
      </trkpt>
      <trkpt lat="46.54412" lon="5.51024">
        <ele>539.6</ele>
        <time>2022-03-07T10:39:31Z</time>
      </trkpt>
      <trkpt lat="46.5441" lon="5.51026">
        <ele>540</ele>
        <time>2022-03-07T10:39:32Z</time>
      </trkpt>
      <trkpt lat="46.54407" lon="5.51028">
        <ele>540</ele>
        <time>2022-03-07T10:39:33Z</time>
      </trkpt>
      <trkpt lat="46.54405" lon="5.51029">
        <ele>540.2</ele>
        <time>2022-03-07T10:39:34Z</time>
      </trkpt>
      <trkpt lat="46.54402" lon="5.51031">
        <ele>540.2</ele>
        <time>2022-03-07T10:39:35Z</time>
      </trkpt>
      <trkpt lat="46.544" lon="5.51033">
        <ele>540.4</ele>
        <time>2022-03-07T10:39:36Z</time>
      </trkpt>
      <trkpt lat="46.54397" lon="5.51035">
        <ele>540.4</ele>
        <time>2022-03-07T10:39:37Z</time>
      </trkpt>
      <trkpt lat="46.54395" lon="5.51037">
        <ele>540.8</ele>
        <time>2022-03-07T10:39:38Z</time>
      </trkpt>
      <trkpt lat="46.54392" lon="5.51039">
        <ele>540.8</ele>
        <time>2022-03-07T10:39:39Z</time>
      </trkpt>
      <trkpt lat="46.5439" lon="5.51041">
        <ele>541</ele>
        <time>2022-03-07T10:39:40Z</time>
      </trkpt>
      <trkpt lat="46.54387" lon="5.51042">
        <ele>541</ele>
        <time>2022-03-07T10:39:41Z</time>
      </trkpt>
      <trkpt lat="46.54385" lon="5.51044">
        <ele>541</ele>
        <time>2022-03-07T10:39:42Z</time>
      </trkpt>
      <trkpt lat="46.54382" lon="5.51046">
        <ele>541.2</ele>
        <time>2022-03-07T10:39:43Z</time>
      </trkpt>
      <trkpt lat="46.5438" lon="5.51049">
        <ele>541.2</ele>
        <time>2022-03-07T10:39:44Z</time>
      </trkpt>
      <trkpt lat="46.54378" lon="5.51051">
        <ele>541.2</ele>
        <time>2022-03-07T10:39:45Z</time>
      </trkpt>
      <trkpt lat="46.54375" lon="5.51053">
        <ele>541.6</ele>
        <time>2022-03-07T10:39:46Z</time>
      </trkpt>
      <trkpt lat="46.54373" lon="5.51056">
        <ele>541.6</ele>
        <time>2022-03-07T10:39:47Z</time>
      </trkpt>
      <trkpt lat="46.54371" lon="5.51058">
        <ele>541.8</ele>
        <time>2022-03-07T10:39:48Z</time>
      </trkpt>
      <trkpt lat="46.54369" lon="5.51061">
        <ele>541.8</ele>
        <time>2022-03-07T10:39:49Z</time>
      </trkpt>
      <trkpt lat="46.54366" lon="5.51064">
        <ele>541.8</ele>
        <time>2022-03-07T10:39:50Z</time>
      </trkpt>
      <trkpt lat="46.54364" lon="5.51067">
        <ele>542</ele>
        <time>2022-03-07T10:39:51Z</time>
      </trkpt>
      <trkpt lat="46.54362" lon="5.5107">
        <ele>542</ele>
        <time>2022-03-07T10:39:52Z</time>
      </trkpt>
      <trkpt lat="46.54359" lon="5.51072">
        <ele>542</ele>
        <time>2022-03-07T10:39:53Z</time>
      </trkpt>
      <trkpt lat="46.54357" lon="5.51075">
        <ele>542</ele>
        <time>2022-03-07T10:39:54Z</time>
      </trkpt>
      <trkpt lat="46.54355" lon="5.51079">
        <ele>542.2</ele>
        <time>2022-03-07T10:39:55Z</time>
      </trkpt>
      <trkpt lat="46.54352" lon="5.51082">
        <ele>542.2</ele>
        <time>2022-03-07T10:39:56Z</time>
      </trkpt>
      <trkpt lat="46.5435" lon="5.51086">
        <ele>542.2</ele>
        <time>2022-03-07T10:39:57Z</time>
      </trkpt>
      <trkpt lat="46.54348" lon="5.51089">
        <ele>542.6</ele>
        <time>2022-03-07T10:39:58Z</time>
      </trkpt>
      <trkpt lat="46.54346" lon="5.51093">
        <ele>542.6</ele>
        <time>2022-03-07T10:39:59Z</time>
      </trkpt>
      <trkpt lat="46.54344" lon="5.51096">
        <ele>542.6</ele>
        <time>2022-03-07T10:40:00Z</time>
      </trkpt>
      <trkpt lat="46.54342" lon="5.51099">
        <ele>542.8</ele>
        <time>2022-03-07T10:40:01Z</time>
      </trkpt>
      <trkpt lat="46.54341" lon="5.51103">
        <ele>542.8</ele>
        <time>2022-03-07T10:40:02Z</time>
      </trkpt>
      <trkpt lat="46.54339" lon="5.51107">
        <ele>543</ele>
        <time>2022-03-07T10:40:03Z</time>
      </trkpt>
      <trkpt lat="46.54336" lon="5.51111">
        <ele>543</ele>
        <time>2022-03-07T10:40:04Z</time>
      </trkpt>
      <trkpt lat="46.54334" lon="5.51115">
        <ele>543</ele>
        <time>2022-03-07T10:40:05Z</time>
      </trkpt>
      <trkpt lat="46.54332" lon="5.5112">
        <ele>543</ele>
        <time>2022-03-07T10:40:06Z</time>
      </trkpt>
      <trkpt lat="46.54331" lon="5.51124">
        <ele>543.2</ele>
        <time>2022-03-07T10:40:07Z</time>
      </trkpt>
      <trkpt lat="46.54329" lon="5.51129">
        <ele>543.2</ele>
        <time>2022-03-07T10:40:08Z</time>
      </trkpt>
      <trkpt lat="46.54328" lon="5.51133">
        <ele>543.2</ele>
        <time>2022-03-07T10:40:09Z</time>
      </trkpt>
      <trkpt lat="46.54327" lon="5.51138">
        <ele>543.6</ele>
        <time>2022-03-07T10:40:10Z</time>
      </trkpt>
      <trkpt lat="46.54326" lon="5.51143">
        <ele>543.6</ele>
        <time>2022-03-07T10:40:11Z</time>
      </trkpt>
      <trkpt lat="46.54325" lon="5.51149">
        <ele>543.6</ele>
        <time>2022-03-07T10:40:12Z</time>
      </trkpt>
      <trkpt lat="46.54324" lon="5.51154">
        <ele>543.8</ele>
        <time>2022-03-07T10:40:13Z</time>
      </trkpt>
      <trkpt lat="46.54323" lon="5.51159">
        <ele>543.8</ele>
        <time>2022-03-07T10:40:14Z</time>
      </trkpt>
      <trkpt lat="46.54323" lon="5.51165">
        <ele>543.8</ele>
        <time>2022-03-07T10:40:15Z</time>
      </trkpt>
      <trkpt lat="46.54322" lon="5.5117">
        <ele>544</ele>
        <time>2022-03-07T10:40:16Z</time>
      </trkpt>
      <trkpt lat="46.54322" lon="5.51175">
        <ele>544</ele>
        <time>2022-03-07T10:40:17Z</time>
      </trkpt>
      <trkpt lat="46.54322" lon="5.5118">
        <ele>544</ele>
        <time>2022-03-07T10:40:18Z</time>
      </trkpt>
      <trkpt lat="46.54321" lon="5.51186">
        <ele>544.2</ele>
        <time>2022-03-07T10:40:19Z</time>
      </trkpt>
      <trkpt lat="46.5432" lon="5.51191">
        <ele>544.2</ele>
        <time>2022-03-07T10:40:20Z</time>
      </trkpt>
      <trkpt lat="46.54319" lon="5.51197">
        <ele>544.2</ele>
        <time>2022-03-07T10:40:21Z</time>
      </trkpt>
      <trkpt lat="46.54317" lon="5.51202">
        <ele>544.2</ele>
        <time>2022-03-07T10:40:22Z</time>
      </trkpt>
      <trkpt lat="46.54315" lon="5.51207">
        <ele>544.2</ele>
        <time>2022-03-07T10:40:23Z</time>
      </trkpt>
      <trkpt lat="46.54313" lon="5.51212">
        <ele>544.2</ele>
        <time>2022-03-07T10:40:24Z</time>
      </trkpt>
      <trkpt lat="46.54311" lon="5.51216">
        <ele>544.2</ele>
        <time>2022-03-07T10:40:25Z</time>
      </trkpt>
      <trkpt lat="46.54308" lon="5.5122">
        <ele>544.4</ele>
        <time>2022-03-07T10:40:26Z</time>
      </trkpt>
      <trkpt lat="46.54305" lon="5.51224">
        <ele>544.4</ele>
        <time>2022-03-07T10:40:27Z</time>
      </trkpt>
      <trkpt lat="46.54299" lon="5.51231">
        <ele>544.6</ele>
        <time>2022-03-07T10:40:28Z</time>
      </trkpt>
      <trkpt lat="46.54296" lon="5.51234">
        <ele>544.6</ele>
        <time>2022-03-07T10:40:29Z</time>
      </trkpt>
      <trkpt lat="46.54293" lon="5.51237">
        <ele>544.6</ele>
        <time>2022-03-07T10:40:30Z</time>
      </trkpt>
      <trkpt lat="46.5429" lon="5.5124">
        <ele>545</ele>
        <time>2022-03-07T10:40:31Z</time>
      </trkpt>
      <trkpt lat="46.54287" lon="5.51243">
        <ele>545</ele>
        <time>2022-03-07T10:40:32Z</time>
      </trkpt>
      <trkpt lat="46.54283" lon="5.51246">
        <ele>545</ele>
        <time>2022-03-07T10:40:33Z</time>
      </trkpt>
      <trkpt lat="46.5428" lon="5.51249">
        <ele>545</ele>
        <time>2022-03-07T10:40:34Z</time>
      </trkpt>
      <trkpt lat="46.54276" lon="5.51252">
        <ele>545.2</ele>
        <time>2022-03-07T10:40:35Z</time>
      </trkpt>
      <trkpt lat="46.54272" lon="5.51254">
        <ele>545.2</ele>
        <time>2022-03-07T10:40:36Z</time>
      </trkpt>
      <trkpt lat="46.54269" lon="5.51257">
        <ele>545.2</ele>
        <time>2022-03-07T10:40:37Z</time>
      </trkpt>
      <trkpt lat="46.54265" lon="5.51259">
        <ele>545.4</ele>
        <time>2022-03-07T10:40:38Z</time>
      </trkpt>
      <trkpt lat="46.54261" lon="5.51262">
        <ele>545.4</ele>
        <time>2022-03-07T10:40:39Z</time>
      </trkpt>
      <trkpt lat="46.54258" lon="5.51265">
        <ele>545.4</ele>
        <time>2022-03-07T10:40:40Z</time>
      </trkpt>
      <trkpt lat="46.54255" lon="5.51268">
        <ele>545.4</ele>
        <time>2022-03-07T10:40:41Z</time>
      </trkpt>
      <trkpt lat="46.54251" lon="5.51271">
        <ele>545.4</ele>
        <time>2022-03-07T10:40:42Z</time>
      </trkpt>
      <trkpt lat="46.54248" lon="5.51274">
        <ele>545.4</ele>
        <time>2022-03-07T10:40:43Z</time>
      </trkpt>
      <trkpt lat="46.54245" lon="5.51278">
        <ele>545.4</ele>
        <time>2022-03-07T10:40:44Z</time>
      </trkpt>
      <trkpt lat="46.54242" lon="5.51283">
        <ele>545.4</ele>
        <time>2022-03-07T10:40:45Z</time>
      </trkpt>
      <trkpt lat="46.5424" lon="5.51288">
        <ele>545.4</ele>
        <time>2022-03-07T10:40:46Z</time>
      </trkpt>
      <trkpt lat="46.54238" lon="5.51294">
        <ele>545.4</ele>
        <time>2022-03-07T10:40:47Z</time>
      </trkpt>
      <trkpt lat="46.54237" lon="5.513">
        <ele>545.4</ele>
        <time>2022-03-07T10:40:48Z</time>
      </trkpt>
      <trkpt lat="46.54236" lon="5.51306">
        <ele>545.4</ele>
        <time>2022-03-07T10:40:49Z</time>
      </trkpt>
      <trkpt lat="46.54235" lon="5.51314">
        <ele>545.2</ele>
        <time>2022-03-07T10:40:50Z</time>
      </trkpt>
      <trkpt lat="46.54234" lon="5.51321">
        <ele>545.2</ele>
        <time>2022-03-07T10:40:51Z</time>
      </trkpt>
      <trkpt lat="46.54234" lon="5.51329">
        <ele>544.8</ele>
        <time>2022-03-07T10:40:52Z</time>
      </trkpt>
      <trkpt lat="46.54234" lon="5.51337">
        <ele>544.8</ele>
        <time>2022-03-07T10:40:53Z</time>
      </trkpt>
      <trkpt lat="46.54234" lon="5.51345">
        <ele>544.4</ele>
        <time>2022-03-07T10:40:54Z</time>
      </trkpt>
      <trkpt lat="46.54233" lon="5.51354">
        <ele>544.2</ele>
        <time>2022-03-07T10:40:55Z</time>
      </trkpt>
      <trkpt lat="46.54233" lon="5.51362">
        <ele>544.2</ele>
        <time>2022-03-07T10:40:56Z</time>
      </trkpt>
      <trkpt lat="46.54232" lon="5.51371">
        <ele>543.8</ele>
        <time>2022-03-07T10:40:57Z</time>
      </trkpt>
      <trkpt lat="46.54232" lon="5.5138">
        <ele>543.6</ele>
        <time>2022-03-07T10:40:58Z</time>
      </trkpt>
      <trkpt lat="46.5423" lon="5.51389">
        <ele>543.4</ele>
        <time>2022-03-07T10:40:59Z</time>
      </trkpt>
      <trkpt lat="46.54229" lon="5.51399">
        <ele>543</ele>
        <time>2022-03-07T10:41:00Z</time>
      </trkpt>
      <trkpt lat="46.54226" lon="5.51408">
        <ele>542.8</ele>
        <time>2022-03-07T10:41:01Z</time>
      </trkpt>
      <trkpt lat="46.54224" lon="5.51418">
        <ele>542.6</ele>
        <time>2022-03-07T10:41:02Z</time>
      </trkpt>
      <trkpt lat="46.54221" lon="5.51428">
        <ele>542.2</ele>
        <time>2022-03-07T10:41:03Z</time>
      </trkpt>
      <trkpt lat="46.54218" lon="5.51438">
        <ele>542</ele>
        <time>2022-03-07T10:41:04Z</time>
      </trkpt>
      <trkpt lat="46.54215" lon="5.51448">
        <ele>541.6</ele>
        <time>2022-03-07T10:41:05Z</time>
      </trkpt>
      <trkpt lat="46.54211" lon="5.51458">
        <ele>541.2</ele>
        <time>2022-03-07T10:41:06Z</time>
      </trkpt>
      <trkpt lat="46.54206" lon="5.51467">
        <ele>540.6</ele>
        <time>2022-03-07T10:41:07Z</time>
      </trkpt>
      <trkpt lat="46.54201" lon="5.51477">
        <ele>540.2</ele>
        <time>2022-03-07T10:41:08Z</time>
      </trkpt>
      <trkpt lat="46.54195" lon="5.51487">
        <ele>539.8</ele>
        <time>2022-03-07T10:41:09Z</time>
      </trkpt>
      <trkpt lat="46.5419" lon="5.51497">
        <ele>539.4</ele>
        <time>2022-03-07T10:41:10Z</time>
      </trkpt>
      <trkpt lat="46.54185" lon="5.51508">
        <ele>539</ele>
        <time>2022-03-07T10:41:11Z</time>
      </trkpt>
      <trkpt lat="46.54181" lon="5.51518">
        <ele>538.6</ele>
        <time>2022-03-07T10:41:12Z</time>
      </trkpt>
      <trkpt lat="46.54177" lon="5.51529">
        <ele>538.2</ele>
        <time>2022-03-07T10:41:13Z</time>
      </trkpt>
      <trkpt lat="46.54174" lon="5.5154">
        <ele>537.8</ele>
        <time>2022-03-07T10:41:14Z</time>
      </trkpt>
      <trkpt lat="46.54172" lon="5.51551">
        <ele>537.4</ele>
        <time>2022-03-07T10:41:15Z</time>
      </trkpt>
      <trkpt lat="46.54171" lon="5.51563">
        <ele>537.2</ele>
        <time>2022-03-07T10:41:16Z</time>
      </trkpt>
      <trkpt lat="46.54171" lon="5.51574">
        <ele>537</ele>
        <time>2022-03-07T10:41:17Z</time>
      </trkpt>
      <trkpt lat="46.54171" lon="5.51585">
        <ele>536.8</ele>
        <time>2022-03-07T10:41:18Z</time>
      </trkpt>
      <trkpt lat="46.54172" lon="5.51596">
        <ele>536.8</ele>
        <time>2022-03-07T10:41:19Z</time>
      </trkpt>
      <trkpt lat="46.54173" lon="5.51606">
        <ele>536.4</ele>
        <time>2022-03-07T10:41:20Z</time>
      </trkpt>
      <trkpt lat="46.54174" lon="5.51617">
        <ele>536.4</ele>
        <time>2022-03-07T10:41:21Z</time>
      </trkpt>
      <trkpt lat="46.54175" lon="5.51627">
        <ele>536</ele>
        <time>2022-03-07T10:41:22Z</time>
      </trkpt>
      <trkpt lat="46.54176" lon="5.51636">
        <ele>535.8</ele>
        <time>2022-03-07T10:41:23Z</time>
      </trkpt>
      <trkpt lat="46.54176" lon="5.51644">
        <ele>535.6</ele>
        <time>2022-03-07T10:41:24Z</time>
      </trkpt>
      <trkpt lat="46.54176" lon="5.51651">
        <ele>535.4</ele>
        <time>2022-03-07T10:41:25Z</time>
      </trkpt>
      <trkpt lat="46.54177" lon="5.51658">
        <ele>535.4</ele>
        <time>2022-03-07T10:41:26Z</time>
      </trkpt>
      <trkpt lat="46.54178" lon="5.51665">
        <ele>535</ele>
        <time>2022-03-07T10:41:27Z</time>
      </trkpt>
      <trkpt lat="46.5418" lon="5.51672">
        <ele>535</ele>
        <time>2022-03-07T10:41:28Z</time>
      </trkpt>
      <trkpt lat="46.54183" lon="5.51678">
        <ele>534.8</ele>
        <time>2022-03-07T10:41:29Z</time>
      </trkpt>
      <trkpt lat="46.54187" lon="5.51684">
        <ele>534.8</ele>
        <time>2022-03-07T10:41:30Z</time>
      </trkpt>
      <trkpt lat="46.54191" lon="5.5169">
        <ele>534.4</ele>
        <time>2022-03-07T10:41:31Z</time>
      </trkpt>
      <trkpt lat="46.54195" lon="5.51695">
        <ele>534.4</ele>
        <time>2022-03-07T10:41:32Z</time>
      </trkpt>
      <trkpt lat="46.54199" lon="5.51699">
        <ele>534.4</ele>
        <time>2022-03-07T10:41:33Z</time>
      </trkpt>
      <trkpt lat="46.54204" lon="5.51704">
        <ele>534.4</ele>
        <time>2022-03-07T10:41:34Z</time>
      </trkpt>
      <trkpt lat="46.54208" lon="5.51709">
        <ele>534.4</ele>
        <time>2022-03-07T10:41:35Z</time>
      </trkpt>
      <trkpt lat="46.54211" lon="5.51714">
        <ele>534.4</ele>
        <time>2022-03-07T10:41:36Z</time>
      </trkpt>
      <trkpt lat="46.54215" lon="5.51719">
        <ele>534.4</ele>
        <time>2022-03-07T10:41:37Z</time>
      </trkpt>
      <trkpt lat="46.54219" lon="5.51724">
        <ele>534.4</ele>
        <time>2022-03-07T10:41:38Z</time>
      </trkpt>
      <trkpt lat="46.54224" lon="5.51729">
        <ele>534.4</ele>
        <time>2022-03-07T10:41:39Z</time>
      </trkpt>
      <trkpt lat="46.54228" lon="5.51733">
        <ele>534.4</ele>
        <time>2022-03-07T10:41:40Z</time>
      </trkpt>
      <trkpt lat="46.54232" lon="5.51738">
        <ele>534.2</ele>
        <time>2022-03-07T10:41:41Z</time>
      </trkpt>
      <trkpt lat="46.54236" lon="5.51742">
        <ele>534.2</ele>
        <time>2022-03-07T10:41:42Z</time>
      </trkpt>
      <trkpt lat="46.54241" lon="5.51745">
        <ele>534</ele>
        <time>2022-03-07T10:41:43Z</time>
      </trkpt>
      <trkpt lat="46.54246" lon="5.51748">
        <ele>534</ele>
        <time>2022-03-07T10:41:44Z</time>
      </trkpt>
      <trkpt lat="46.54251" lon="5.51752">
        <ele>533.6</ele>
        <time>2022-03-07T10:41:45Z</time>
      </trkpt>
      <trkpt lat="46.54256" lon="5.51756">
        <ele>533.6</ele>
        <time>2022-03-07T10:41:46Z</time>
      </trkpt>
      <trkpt lat="46.54261" lon="5.51759">
        <ele>533.4</ele>
        <time>2022-03-07T10:41:47Z</time>
      </trkpt>
      <trkpt lat="46.54267" lon="5.51762">
        <ele>533.4</ele>
        <time>2022-03-07T10:41:48Z</time>
      </trkpt>
      <trkpt lat="46.54273" lon="5.51764">
        <ele>533.2</ele>
        <time>2022-03-07T10:41:49Z</time>
      </trkpt>
      <trkpt lat="46.54279" lon="5.51766">
        <ele>533</ele>
        <time>2022-03-07T10:41:50Z</time>
      </trkpt>
      <trkpt lat="46.54285" lon="5.51768">
        <ele>532.8</ele>
        <time>2022-03-07T10:41:51Z</time>
      </trkpt>
      <trkpt lat="46.54291" lon="5.5177">
        <ele>532.8</ele>
        <time>2022-03-07T10:41:52Z</time>
      </trkpt>
      <trkpt lat="46.54297" lon="5.51773">
        <ele>532.6</ele>
        <time>2022-03-07T10:41:53Z</time>
      </trkpt>
      <trkpt lat="46.54303" lon="5.51775">
        <ele>532.6</ele>
        <time>2022-03-07T10:41:54Z</time>
      </trkpt>
      <trkpt lat="46.5431" lon="5.51778">
        <ele>532.2</ele>
        <time>2022-03-07T10:41:55Z</time>
      </trkpt>
      <trkpt lat="46.54317" lon="5.5178">
        <ele>532.2</ele>
        <time>2022-03-07T10:41:56Z</time>
      </trkpt>
      <trkpt lat="46.54324" lon="5.51783">
        <ele>532</ele>
        <time>2022-03-07T10:41:57Z</time>
      </trkpt>
      <trkpt lat="46.5433" lon="5.51787">
        <ele>531.8</ele>
        <time>2022-03-07T10:41:58Z</time>
      </trkpt>
      <trkpt lat="46.54337" lon="5.5179">
        <ele>531.8</ele>
        <time>2022-03-07T10:41:59Z</time>
      </trkpt>
      <trkpt lat="46.54344" lon="5.51795">
        <ele>531.8</ele>
        <time>2022-03-07T10:42:00Z</time>
      </trkpt>
      <trkpt lat="46.5435" lon="5.518">
        <ele>531.4</ele>
        <time>2022-03-07T10:42:01Z</time>
      </trkpt>
      <trkpt lat="46.54356" lon="5.51806">
        <ele>531</ele>
        <time>2022-03-07T10:42:02Z</time>
      </trkpt>
      <trkpt lat="46.54362" lon="5.51812">
        <ele>530.8</ele>
        <time>2022-03-07T10:42:03Z</time>
      </trkpt>
      <trkpt lat="46.54368" lon="5.51818">
        <ele>530.4</ele>
        <time>2022-03-07T10:42:04Z</time>
      </trkpt>
      <trkpt lat="46.54374" lon="5.51825">
        <ele>530</ele>
        <time>2022-03-07T10:42:05Z</time>
      </trkpt>
      <trkpt lat="46.5438" lon="5.51832">
        <ele>529.6</ele>
        <time>2022-03-07T10:42:06Z</time>
      </trkpt>
      <trkpt lat="46.54387" lon="5.51838">
        <ele>529.2</ele>
        <time>2022-03-07T10:42:07Z</time>
      </trkpt>
      <trkpt lat="46.54393" lon="5.51845">
        <ele>528.8</ele>
        <time>2022-03-07T10:42:08Z</time>
      </trkpt>
      <trkpt lat="46.54399" lon="5.51851">
        <ele>528.4</ele>
        <time>2022-03-07T10:42:09Z</time>
      </trkpt>
      <trkpt lat="46.54405" lon="5.51858">
        <ele>528</ele>
        <time>2022-03-07T10:42:10Z</time>
      </trkpt>
      <trkpt lat="46.54411" lon="5.51864">
        <ele>527.8</ele>
        <time>2022-03-07T10:42:11Z</time>
      </trkpt>
      <trkpt lat="46.54418" lon="5.51871">
        <ele>527.6</ele>
        <time>2022-03-07T10:42:12Z</time>
      </trkpt>
      <trkpt lat="46.54424" lon="5.51877">
        <ele>527.2</ele>
        <time>2022-03-07T10:42:13Z</time>
      </trkpt>
      <trkpt lat="46.5443" lon="5.51884">
        <ele>527</ele>
        <time>2022-03-07T10:42:14Z</time>
      </trkpt>
      <trkpt lat="46.54435" lon="5.5189">
        <ele>526.8</ele>
        <time>2022-03-07T10:42:15Z</time>
      </trkpt>
      <trkpt lat="46.54441" lon="5.51896">
        <ele>526.4</ele>
        <time>2022-03-07T10:42:16Z</time>
      </trkpt>
      <trkpt lat="46.54447" lon="5.51902">
        <ele>526.2</ele>
        <time>2022-03-07T10:42:17Z</time>
      </trkpt>
      <trkpt lat="46.54452" lon="5.51908">
        <ele>525.8</ele>
        <time>2022-03-07T10:42:18Z</time>
      </trkpt>
      <trkpt lat="46.54457" lon="5.51914">
        <ele>525.8</ele>
        <time>2022-03-07T10:42:19Z</time>
      </trkpt>
      <trkpt lat="46.54462" lon="5.51919">
        <ele>525.6</ele>
        <time>2022-03-07T10:42:20Z</time>
      </trkpt>
      <trkpt lat="46.54467" lon="5.51925">
        <ele>525.6</ele>
        <time>2022-03-07T10:42:21Z</time>
      </trkpt>
      <trkpt lat="46.54472" lon="5.51931">
        <ele>525.2</ele>
        <time>2022-03-07T10:42:22Z</time>
      </trkpt>
      <trkpt lat="46.54477" lon="5.51936">
        <ele>525.2</ele>
        <time>2022-03-07T10:42:23Z</time>
      </trkpt>
      <trkpt lat="46.54481" lon="5.51941">
        <ele>525.2</ele>
        <time>2022-03-07T10:42:24Z</time>
      </trkpt>
      <trkpt lat="46.54486" lon="5.51946">
        <ele>525.2</ele>
        <time>2022-03-07T10:42:25Z</time>
      </trkpt>
      <trkpt lat="46.5449" lon="5.51951">
        <ele>525.2</ele>
        <time>2022-03-07T10:42:26Z</time>
      </trkpt>
      <trkpt lat="46.54494" lon="5.51956">
        <ele>525.2</ele>
        <time>2022-03-07T10:42:27Z</time>
      </trkpt>
      <trkpt lat="46.54498" lon="5.5196">
        <ele>525.2</ele>
        <time>2022-03-07T10:42:28Z</time>
      </trkpt>
      <trkpt lat="46.54501" lon="5.51965">
        <ele>525.2</ele>
        <time>2022-03-07T10:42:29Z</time>
      </trkpt>
      <trkpt lat="46.54505" lon="5.51969">
        <ele>525.2</ele>
        <time>2022-03-07T10:42:30Z</time>
      </trkpt>
      <trkpt lat="46.54509" lon="5.51973">
        <ele>525.2</ele>
        <time>2022-03-07T10:42:31Z</time>
      </trkpt>
      <trkpt lat="46.54512" lon="5.51976">
        <ele>525.2</ele>
        <time>2022-03-07T10:42:32Z</time>
      </trkpt>
      <trkpt lat="46.54516" lon="5.5198">
        <ele>525.2</ele>
        <time>2022-03-07T10:42:33Z</time>
      </trkpt>
      <trkpt lat="46.54519" lon="5.51984">
        <ele>525.2</ele>
        <time>2022-03-07T10:42:34Z</time>
      </trkpt>
      <trkpt lat="46.54523" lon="5.51989">
        <ele>525.2</ele>
        <time>2022-03-07T10:42:35Z</time>
      </trkpt>
      <trkpt lat="46.54526" lon="5.51993">
        <ele>525.2</ele>
        <time>2022-03-07T10:42:36Z</time>
      </trkpt>
      <trkpt lat="46.5453" lon="5.51997">
        <ele>525.2</ele>
        <time>2022-03-07T10:42:37Z</time>
      </trkpt>
      <trkpt lat="46.54534" lon="5.52">
        <ele>525.6</ele>
        <time>2022-03-07T10:42:38Z</time>
      </trkpt>
      <trkpt lat="46.54537" lon="5.52005">
        <ele>525.6</ele>
        <time>2022-03-07T10:42:39Z</time>
      </trkpt>
      <trkpt lat="46.54541" lon="5.52008">
        <ele>525.6</ele>
        <time>2022-03-07T10:42:40Z</time>
      </trkpt>
      <trkpt lat="46.54545" lon="5.52013">
        <ele>525.6</ele>
        <time>2022-03-07T10:42:41Z</time>
      </trkpt>
      <trkpt lat="46.54549" lon="5.52017">
        <ele>525.6</ele>
        <time>2022-03-07T10:42:42Z</time>
      </trkpt>
      <trkpt lat="46.54553" lon="5.52021">
        <ele>525.6</ele>
        <time>2022-03-07T10:42:43Z</time>
      </trkpt>
      <trkpt lat="46.54556" lon="5.52025">
        <ele>525.6</ele>
        <time>2022-03-07T10:42:44Z</time>
      </trkpt>
      <trkpt lat="46.5456" lon="5.5203">
        <ele>525.6</ele>
        <time>2022-03-07T10:42:45Z</time>
      </trkpt>
      <trkpt lat="46.54564" lon="5.52035">
        <ele>525.6</ele>
        <time>2022-03-07T10:42:46Z</time>
      </trkpt>
      <trkpt lat="46.54568" lon="5.52039">
        <ele>525.6</ele>
        <time>2022-03-07T10:42:47Z</time>
      </trkpt>
      <trkpt lat="46.54572" lon="5.52044">
        <ele>525.6</ele>
        <time>2022-03-07T10:42:48Z</time>
      </trkpt>
      <trkpt lat="46.54576" lon="5.52049">
        <ele>525.6</ele>
        <time>2022-03-07T10:42:49Z</time>
      </trkpt>
      <trkpt lat="46.5458" lon="5.52053">
        <ele>525.6</ele>
        <time>2022-03-07T10:42:50Z</time>
      </trkpt>
      <trkpt lat="46.54585" lon="5.52058">
        <ele>525.6</ele>
        <time>2022-03-07T10:42:51Z</time>
      </trkpt>
      <trkpt lat="46.54589" lon="5.52062">
        <ele>525.6</ele>
        <time>2022-03-07T10:42:52Z</time>
      </trkpt>
      <trkpt lat="46.54593" lon="5.52067">
        <ele>525.6</ele>
        <time>2022-03-07T10:42:53Z</time>
      </trkpt>
      <trkpt lat="46.54598" lon="5.52072">
        <ele>525.6</ele>
        <time>2022-03-07T10:42:54Z</time>
      </trkpt>
      <trkpt lat="46.54602" lon="5.52077">
        <ele>525.6</ele>
        <time>2022-03-07T10:42:55Z</time>
      </trkpt>
      <trkpt lat="46.54606" lon="5.52081">
        <ele>525.6</ele>
        <time>2022-03-07T10:42:56Z</time>
      </trkpt>
      <trkpt lat="46.54611" lon="5.52086">
        <ele>525.6</ele>
        <time>2022-03-07T10:42:57Z</time>
      </trkpt>
      <trkpt lat="46.54615" lon="5.52091">
        <ele>525.6</ele>
        <time>2022-03-07T10:42:58Z</time>
      </trkpt>
      <trkpt lat="46.5462" lon="5.52096">
        <ele>525.6</ele>
        <time>2022-03-07T10:42:59Z</time>
      </trkpt>
      <trkpt lat="46.54625" lon="5.521">
        <ele>525.4</ele>
        <time>2022-03-07T10:43:00Z</time>
      </trkpt>
      <trkpt lat="46.5463" lon="5.52105">
        <ele>525.4</ele>
        <time>2022-03-07T10:43:01Z</time>
      </trkpt>
      <trkpt lat="46.54635" lon="5.52109">
        <ele>525</ele>
        <time>2022-03-07T10:43:02Z</time>
      </trkpt>
      <trkpt lat="46.54641" lon="5.52113">
        <ele>525</ele>
        <time>2022-03-07T10:43:03Z</time>
      </trkpt>
      <trkpt lat="46.54647" lon="5.52117">
        <ele>524.4</ele>
        <time>2022-03-07T10:43:04Z</time>
      </trkpt>
      <trkpt lat="46.54653" lon="5.52122">
        <ele>524.2</ele>
        <time>2022-03-07T10:43:05Z</time>
      </trkpt>
      <trkpt lat="46.5466" lon="5.52126">
        <ele>523.8</ele>
        <time>2022-03-07T10:43:06Z</time>
      </trkpt>
      <trkpt lat="46.54667" lon="5.5213">
        <ele>523.6</ele>
        <time>2022-03-07T10:43:07Z</time>
      </trkpt>
      <trkpt lat="46.54674" lon="5.52134">
        <ele>523.4</ele>
        <time>2022-03-07T10:43:08Z</time>
      </trkpt>
      <trkpt lat="46.54681" lon="5.52137">
        <ele>523</ele>
        <time>2022-03-07T10:43:09Z</time>
      </trkpt>
      <trkpt lat="46.54688" lon="5.52141">
        <ele>522.6</ele>
        <time>2022-03-07T10:43:10Z</time>
      </trkpt>
      <trkpt lat="46.54696" lon="5.52144">
        <ele>522.2</ele>
        <time>2022-03-07T10:43:11Z</time>
      </trkpt>
      <trkpt lat="46.54703" lon="5.52146">
        <ele>521.8</ele>
        <time>2022-03-07T10:43:12Z</time>
      </trkpt>
      <trkpt lat="46.54711" lon="5.52148">
        <ele>521.4</ele>
        <time>2022-03-07T10:43:13Z</time>
      </trkpt>
      <trkpt lat="46.54719" lon="5.52151">
        <ele>521.2</ele>
        <time>2022-03-07T10:43:14Z</time>
      </trkpt>
      <trkpt lat="46.54726" lon="5.52153">
        <ele>520.8</ele>
        <time>2022-03-07T10:43:15Z</time>
      </trkpt>
      <trkpt lat="46.54733" lon="5.52156">
        <ele>520.4</ele>
        <time>2022-03-07T10:43:16Z</time>
      </trkpt>
      <trkpt lat="46.54741" lon="5.52159">
        <ele>520</ele>
        <time>2022-03-07T10:43:17Z</time>
      </trkpt>
      <trkpt lat="46.54749" lon="5.52163">
        <ele>519.4</ele>
        <time>2022-03-07T10:43:18Z</time>
      </trkpt>
      <trkpt lat="46.54756" lon="5.52167">
        <ele>519</ele>
        <time>2022-03-07T10:43:19Z</time>
      </trkpt>
      <trkpt lat="46.54764" lon="5.52171">
        <ele>518.4</ele>
        <time>2022-03-07T10:43:20Z</time>
      </trkpt>
      <trkpt lat="46.54771" lon="5.52176">
        <ele>518</ele>
        <time>2022-03-07T10:43:21Z</time>
      </trkpt>
      <trkpt lat="46.54778" lon="5.52182">
        <ele>517.4</ele>
        <time>2022-03-07T10:43:22Z</time>
      </trkpt>
      <trkpt lat="46.54785" lon="5.52187">
        <ele>516.8</ele>
        <time>2022-03-07T10:43:23Z</time>
      </trkpt>
      <trkpt lat="46.54792" lon="5.52193">
        <ele>516.4</ele>
        <time>2022-03-07T10:43:24Z</time>
      </trkpt>
      <trkpt lat="46.54799" lon="5.52199">
        <ele>516</ele>
        <time>2022-03-07T10:43:25Z</time>
      </trkpt>
      <trkpt lat="46.54806" lon="5.52205">
        <ele>515.6</ele>
        <time>2022-03-07T10:43:26Z</time>
      </trkpt>
      <trkpt lat="46.54813" lon="5.52211">
        <ele>515.2</ele>
        <time>2022-03-07T10:43:27Z</time>
      </trkpt>
      <trkpt lat="46.54821" lon="5.52216">
        <ele>514.6</ele>
        <time>2022-03-07T10:43:28Z</time>
      </trkpt>
      <trkpt lat="46.54828" lon="5.52221">
        <ele>514.2</ele>
        <time>2022-03-07T10:43:29Z</time>
      </trkpt>
      <trkpt lat="46.54836" lon="5.52226">
        <ele>513.6</ele>
        <time>2022-03-07T10:43:30Z</time>
      </trkpt>
      <trkpt lat="46.54843" lon="5.5223">
        <ele>513</ele>
        <time>2022-03-07T10:43:31Z</time>
      </trkpt>
      <trkpt lat="46.54851" lon="5.52234">
        <ele>512.4</ele>
        <time>2022-03-07T10:43:32Z</time>
      </trkpt>
      <trkpt lat="46.54859" lon="5.52238">
        <ele>511.8</ele>
        <time>2022-03-07T10:43:33Z</time>
      </trkpt>
      <trkpt lat="46.54867" lon="5.52241">
        <ele>511.4</ele>
        <time>2022-03-07T10:43:34Z</time>
      </trkpt>
      <trkpt lat="46.54875" lon="5.52244">
        <ele>510.8</ele>
        <time>2022-03-07T10:43:35Z</time>
      </trkpt>
      <trkpt lat="46.54883" lon="5.52247">
        <ele>510.4</ele>
        <time>2022-03-07T10:43:36Z</time>
      </trkpt>
      <trkpt lat="46.54891" lon="5.5225">
        <ele>509.8</ele>
        <time>2022-03-07T10:43:37Z</time>
      </trkpt>
      <trkpt lat="46.54899" lon="5.52253">
        <ele>509.4</ele>
        <time>2022-03-07T10:43:38Z</time>
      </trkpt>
      <trkpt lat="46.54907" lon="5.52256">
        <ele>509</ele>
        <time>2022-03-07T10:43:39Z</time>
      </trkpt>
      <trkpt lat="46.54915" lon="5.52258">
        <ele>508.6</ele>
        <time>2022-03-07T10:43:40Z</time>
      </trkpt>
      <trkpt lat="46.54923" lon="5.52261">
        <ele>508</ele>
        <time>2022-03-07T10:43:41Z</time>
      </trkpt>
      <trkpt lat="46.54931" lon="5.52264">
        <ele>507.6</ele>
        <time>2022-03-07T10:43:42Z</time>
      </trkpt>
      <trkpt lat="46.54939" lon="5.52268">
        <ele>507</ele>
        <time>2022-03-07T10:43:43Z</time>
      </trkpt>
      <trkpt lat="46.54947" lon="5.52271">
        <ele>506.4</ele>
        <time>2022-03-07T10:43:44Z</time>
      </trkpt>
      <trkpt lat="46.54955" lon="5.52276">
        <ele>505.8</ele>
        <time>2022-03-07T10:43:45Z</time>
      </trkpt>
      <trkpt lat="46.54963" lon="5.5228">
        <ele>505.4</ele>
        <time>2022-03-07T10:43:46Z</time>
      </trkpt>
      <trkpt lat="46.5497" lon="5.52286">
        <ele>504.8</ele>
        <time>2022-03-07T10:43:47Z</time>
      </trkpt>
      <trkpt lat="46.54978" lon="5.52292">
        <ele>504.4</ele>
        <time>2022-03-07T10:43:48Z</time>
      </trkpt>
      <trkpt lat="46.54985" lon="5.52299">
        <ele>504</ele>
        <time>2022-03-07T10:43:49Z</time>
      </trkpt>
      <trkpt lat="46.54991" lon="5.52307">
        <ele>503.4</ele>
        <time>2022-03-07T10:43:50Z</time>
      </trkpt>
      <trkpt lat="46.54997" lon="5.52316">
        <ele>503</ele>
        <time>2022-03-07T10:43:51Z</time>
      </trkpt>
      <trkpt lat="46.55003" lon="5.52325">
        <ele>502.4</ele>
        <time>2022-03-07T10:43:52Z</time>
      </trkpt>
      <trkpt lat="46.55008" lon="5.52335">
        <ele>501.8</ele>
        <time>2022-03-07T10:43:53Z</time>
      </trkpt>
      <trkpt lat="46.55013" lon="5.52346">
        <ele>501.2</ele>
        <time>2022-03-07T10:43:54Z</time>
      </trkpt>
      <trkpt lat="46.55017" lon="5.52357">
        <ele>500.8</ele>
        <time>2022-03-07T10:43:55Z</time>
      </trkpt>
      <trkpt lat="46.55021" lon="5.52369">
        <ele>500.2</ele>
        <time>2022-03-07T10:43:56Z</time>
      </trkpt>
      <trkpt lat="46.55025" lon="5.5238">
        <ele>499.6</ele>
        <time>2022-03-07T10:43:57Z</time>
      </trkpt>
      <trkpt lat="46.5503" lon="5.52393">
        <ele>499</ele>
        <time>2022-03-07T10:43:58Z</time>
      </trkpt>
      <trkpt lat="46.55033" lon="5.52405">
        <ele>498.4</ele>
        <time>2022-03-07T10:43:59Z</time>
      </trkpt>
      <trkpt lat="46.55036" lon="5.52418">
        <ele>498</ele>
        <time>2022-03-07T10:44:00Z</time>
      </trkpt>
      <trkpt lat="46.5504" lon="5.5243">
        <ele>497.4</ele>
        <time>2022-03-07T10:44:01Z</time>
      </trkpt>
      <trkpt lat="46.55044" lon="5.52442">
        <ele>497</ele>
        <time>2022-03-07T10:44:02Z</time>
      </trkpt>
      <trkpt lat="46.55048" lon="5.52455">
        <ele>496.6</ele>
        <time>2022-03-07T10:44:03Z</time>
      </trkpt>
      <trkpt lat="46.55051" lon="5.52467">
        <ele>496</ele>
        <time>2022-03-07T10:44:04Z</time>
      </trkpt>
      <trkpt lat="46.55055" lon="5.52479">
        <ele>495.6</ele>
        <time>2022-03-07T10:44:05Z</time>
      </trkpt>
      <trkpt lat="46.5506" lon="5.52491">
        <ele>495.2</ele>
        <time>2022-03-07T10:44:06Z</time>
      </trkpt>
      <trkpt lat="46.55063" lon="5.52503">
        <ele>494.6</ele>
        <time>2022-03-07T10:44:07Z</time>
      </trkpt>
      <trkpt lat="46.55068" lon="5.52515">
        <ele>494</ele>
        <time>2022-03-07T10:44:08Z</time>
      </trkpt>
      <trkpt lat="46.55072" lon="5.52527">
        <ele>493.6</ele>
        <time>2022-03-07T10:44:09Z</time>
      </trkpt>
      <trkpt lat="46.55076" lon="5.52539">
        <ele>493</ele>
        <time>2022-03-07T10:44:10Z</time>
      </trkpt>
      <trkpt lat="46.55081" lon="5.52551">
        <ele>492.4</ele>
        <time>2022-03-07T10:44:11Z</time>
      </trkpt>
      <trkpt lat="46.55084" lon="5.52564">
        <ele>491.8</ele>
        <time>2022-03-07T10:44:12Z</time>
      </trkpt>
      <trkpt lat="46.55089" lon="5.52575">
        <ele>491.2</ele>
        <time>2022-03-07T10:44:13Z</time>
      </trkpt>
      <trkpt lat="46.55092" lon="5.52587">
        <ele>490.6</ele>
        <time>2022-03-07T10:44:14Z</time>
      </trkpt>
      <trkpt lat="46.55096" lon="5.52599">
        <ele>490</ele>
        <time>2022-03-07T10:44:15Z</time>
      </trkpt>
      <trkpt lat="46.55098" lon="5.52612">
        <ele>489.4</ele>
        <time>2022-03-07T10:44:16Z</time>
      </trkpt>
      <trkpt lat="46.55098" lon="5.52625">
        <ele>488.6</ele>
        <time>2022-03-07T10:44:17Z</time>
      </trkpt>
      <trkpt lat="46.55097" lon="5.52639">
        <ele>488.2</ele>
        <time>2022-03-07T10:44:18Z</time>
      </trkpt>
      <trkpt lat="46.55094" lon="5.52653">
        <ele>487.6</ele>
        <time>2022-03-07T10:44:19Z</time>
      </trkpt>
      <trkpt lat="46.55091" lon="5.52665">
        <ele>487</ele>
        <time>2022-03-07T10:44:20Z</time>
      </trkpt>
      <trkpt lat="46.55087" lon="5.52676">
        <ele>486.4</ele>
        <time>2022-03-07T10:44:21Z</time>
      </trkpt>
      <trkpt lat="46.55083" lon="5.52686">
        <ele>486</ele>
        <time>2022-03-07T10:44:22Z</time>
      </trkpt>
      <trkpt lat="46.55078" lon="5.52696">
        <ele>485.6</ele>
        <time>2022-03-07T10:44:23Z</time>
      </trkpt>
      <trkpt lat="46.55074" lon="5.52705">
        <ele>485.4</ele>
        <time>2022-03-07T10:44:24Z</time>
      </trkpt>
      <trkpt lat="46.5507" lon="5.52715">
        <ele>485</ele>
        <time>2022-03-07T10:44:25Z</time>
      </trkpt>
      <trkpt lat="46.55066" lon="5.52724">
        <ele>484.8</ele>
        <time>2022-03-07T10:44:26Z</time>
      </trkpt>
      <trkpt lat="46.55063" lon="5.52733">
        <ele>484.8</ele>
        <time>2022-03-07T10:44:27Z</time>
      </trkpt>
      <trkpt lat="46.55058" lon="5.52741">
        <ele>484.4</ele>
        <time>2022-03-07T10:44:28Z</time>
      </trkpt>
      <trkpt lat="46.55055" lon="5.52749">
        <ele>484.4</ele>
        <time>2022-03-07T10:44:29Z</time>
      </trkpt>
      <trkpt lat="46.55051" lon="5.52758">
        <ele>484.4</ele>
        <time>2022-03-07T10:44:30Z</time>
      </trkpt>
      <trkpt lat="46.55046" lon="5.52765">
        <ele>484.4</ele>
        <time>2022-03-07T10:44:31Z</time>
      </trkpt>
      <trkpt lat="46.55043" lon="5.52773">
        <ele>484.4</ele>
        <time>2022-03-07T10:44:32Z</time>
      </trkpt>
      <trkpt lat="46.55039" lon="5.52779">
        <ele>484.4</ele>
        <time>2022-03-07T10:44:33Z</time>
      </trkpt>
      <trkpt lat="46.55035" lon="5.52786">
        <ele>484.4</ele>
        <time>2022-03-07T10:44:34Z</time>
      </trkpt>
      <trkpt lat="46.55031" lon="5.52793">
        <ele>484.4</ele>
        <time>2022-03-07T10:44:35Z</time>
      </trkpt>
      <trkpt lat="46.55027" lon="5.52799">
        <ele>484.8</ele>
        <time>2022-03-07T10:44:36Z</time>
      </trkpt>
      <trkpt lat="46.55023" lon="5.52805">
        <ele>484.8</ele>
        <time>2022-03-07T10:44:37Z</time>
      </trkpt>
      <trkpt lat="46.55019" lon="5.52811">
        <ele>484.8</ele>
        <time>2022-03-07T10:44:38Z</time>
      </trkpt>
      <trkpt lat="46.55015" lon="5.52817">
        <ele>484.8</ele>
        <time>2022-03-07T10:44:39Z</time>
      </trkpt>
      <trkpt lat="46.55011" lon="5.52822">
        <ele>484.8</ele>
        <time>2022-03-07T10:44:40Z</time>
      </trkpt>
      <trkpt lat="46.55006" lon="5.52828">
        <ele>484.8</ele>
        <time>2022-03-07T10:44:41Z</time>
      </trkpt>
      <trkpt lat="46.55001" lon="5.52834">
        <ele>484.8</ele>
        <time>2022-03-07T10:44:42Z</time>
      </trkpt>
      <trkpt lat="46.54997" lon="5.5284">
        <ele>484.8</ele>
        <time>2022-03-07T10:44:43Z</time>
      </trkpt>
      <trkpt lat="46.54993" lon="5.52846">
        <ele>484.8</ele>
        <time>2022-03-07T10:44:44Z</time>
      </trkpt>
      <trkpt lat="46.54989" lon="5.52852">
        <ele>484.8</ele>
        <time>2022-03-07T10:44:45Z</time>
      </trkpt>
      <trkpt lat="46.54985" lon="5.52858">
        <ele>484.8</ele>
        <time>2022-03-07T10:44:46Z</time>
      </trkpt>
      <trkpt lat="46.54981" lon="5.52865">
        <ele>484.8</ele>
        <time>2022-03-07T10:44:47Z</time>
      </trkpt>
      <trkpt lat="46.54977" lon="5.52871">
        <ele>484.8</ele>
        <time>2022-03-07T10:44:48Z</time>
      </trkpt>
      <trkpt lat="46.54974" lon="5.52878">
        <ele>484.8</ele>
        <time>2022-03-07T10:44:49Z</time>
      </trkpt>
      <trkpt lat="46.54971" lon="5.52885">
        <ele>484.8</ele>
        <time>2022-03-07T10:44:50Z</time>
      </trkpt>
      <trkpt lat="46.54968" lon="5.52891">
        <ele>484.8</ele>
        <time>2022-03-07T10:44:51Z</time>
      </trkpt>
      <trkpt lat="46.54965" lon="5.52898">
        <ele>484.8</ele>
        <time>2022-03-07T10:44:52Z</time>
      </trkpt>
      <trkpt lat="46.54963" lon="5.52906">
        <ele>484.8</ele>
        <time>2022-03-07T10:44:53Z</time>
      </trkpt>
      <trkpt lat="46.54961" lon="5.52912">
        <ele>484.8</ele>
        <time>2022-03-07T10:44:54Z</time>
      </trkpt>
      <trkpt lat="46.54959" lon="5.52919">
        <ele>484.8</ele>
        <time>2022-03-07T10:44:55Z</time>
      </trkpt>
      <trkpt lat="46.54957" lon="5.52925">
        <ele>484.8</ele>
        <time>2022-03-07T10:44:56Z</time>
      </trkpt>
      <trkpt lat="46.54956" lon="5.52932">
        <ele>485</ele>
        <time>2022-03-07T10:44:57Z</time>
      </trkpt>
      <trkpt lat="46.54954" lon="5.52938">
        <ele>485</ele>
        <time>2022-03-07T10:44:58Z</time>
      </trkpt>
      <trkpt lat="46.54953" lon="5.52944">
        <ele>485</ele>
        <time>2022-03-07T10:44:59Z</time>
      </trkpt>
      <trkpt lat="46.54952" lon="5.52949">
        <ele>485.2</ele>
        <time>2022-03-07T10:45:00Z</time>
      </trkpt>
      <trkpt lat="46.54951" lon="5.52955">
        <ele>485.2</ele>
        <time>2022-03-07T10:45:01Z</time>
      </trkpt>
      <trkpt lat="46.54949" lon="5.5296">
        <ele>485.6</ele>
        <time>2022-03-07T10:45:02Z</time>
      </trkpt>
      <trkpt lat="46.54948" lon="5.52965">
        <ele>485.6</ele>
        <time>2022-03-07T10:45:03Z</time>
      </trkpt>
      <trkpt lat="46.54947" lon="5.52971">
        <ele>485.8</ele>
        <time>2022-03-07T10:45:04Z</time>
      </trkpt>
      <trkpt lat="46.54946" lon="5.52976">
        <ele>485.8</ele>
        <time>2022-03-07T10:45:05Z</time>
      </trkpt>
      <trkpt lat="46.54945" lon="5.52981">
        <ele>486</ele>
        <time>2022-03-07T10:45:06Z</time>
      </trkpt>
      <trkpt lat="46.54944" lon="5.52986">
        <ele>486</ele>
        <time>2022-03-07T10:45:07Z</time>
      </trkpt>
      <trkpt lat="46.54943" lon="5.5299">
        <ele>486.4</ele>
        <time>2022-03-07T10:45:08Z</time>
      </trkpt>
      <trkpt lat="46.54942" lon="5.52995">
        <ele>486.4</ele>
        <time>2022-03-07T10:45:09Z</time>
      </trkpt>
      <trkpt lat="46.5494" lon="5.52999">
        <ele>486.6</ele>
        <time>2022-03-07T10:45:10Z</time>
      </trkpt>
      <trkpt lat="46.54939" lon="5.53003">
        <ele>486.6</ele>
        <time>2022-03-07T10:45:11Z</time>
      </trkpt>
      <trkpt lat="46.54937" lon="5.53008">
        <ele>486.8</ele>
        <time>2022-03-07T10:45:12Z</time>
      </trkpt>
      <trkpt lat="46.54936" lon="5.53012">
        <ele>487</ele>
        <time>2022-03-07T10:45:13Z</time>
      </trkpt>
      <trkpt lat="46.54934" lon="5.53015">
        <ele>487</ele>
        <time>2022-03-07T10:45:14Z</time>
      </trkpt>
      <trkpt lat="46.54932" lon="5.53019">
        <ele>487.4</ele>
        <time>2022-03-07T10:45:15Z</time>
      </trkpt>
      <trkpt lat="46.54932" lon="5.53019">
        <ele>487.4</ele>
        <time>2022-03-07T10:45:16Z</time>
      </trkpt>
      <trkpt lat="46.5493" lon="5.53023">
        <ele>487.6</ele>
        <time>2022-03-07T10:45:17Z</time>
      </trkpt>
      <trkpt lat="46.54929" lon="5.53026">
        <ele>487.6</ele>
        <time>2022-03-07T10:45:18Z</time>
      </trkpt>
      <trkpt lat="46.54927" lon="5.5303">
        <ele>488</ele>
        <time>2022-03-07T10:45:19Z</time>
      </trkpt>
      <trkpt lat="46.54925" lon="5.53034">
        <ele>488.2</ele>
        <time>2022-03-07T10:45:20Z</time>
      </trkpt>
      <trkpt lat="46.54924" lon="5.53037">
        <ele>488.2</ele>
        <time>2022-03-07T10:45:21Z</time>
      </trkpt>
      <trkpt lat="46.54922" lon="5.53041">
        <ele>488.6</ele>
        <time>2022-03-07T10:45:22Z</time>
      </trkpt>
      <trkpt lat="46.54921" lon="5.53044">
        <ele>488.6</ele>
        <time>2022-03-07T10:45:23Z</time>
      </trkpt>
      <trkpt lat="46.54919" lon="5.53048">
        <ele>488.8</ele>
        <time>2022-03-07T10:45:24Z</time>
      </trkpt>
      <trkpt lat="46.54917" lon="5.53051">
        <ele>488.8</ele>
        <time>2022-03-07T10:45:25Z</time>
      </trkpt>
      <trkpt lat="46.54916" lon="5.53055">
        <ele>489</ele>
        <time>2022-03-07T10:45:26Z</time>
      </trkpt>
      <trkpt lat="46.54914" lon="5.53059">
        <ele>489</ele>
        <time>2022-03-07T10:45:27Z</time>
      </trkpt>
      <trkpt lat="46.54912" lon="5.53062">
        <ele>489.4</ele>
        <time>2022-03-07T10:45:28Z</time>
      </trkpt>
      <trkpt lat="46.5491" lon="5.53066">
        <ele>489.4</ele>
        <time>2022-03-07T10:45:29Z</time>
      </trkpt>
      <trkpt lat="46.54909" lon="5.5307">
        <ele>489.8</ele>
        <time>2022-03-07T10:45:30Z</time>
      </trkpt>
      <trkpt lat="46.54907" lon="5.53073">
        <ele>489.8</ele>
        <time>2022-03-07T10:45:31Z</time>
      </trkpt>
      <trkpt lat="46.54906" lon="5.53076">
        <ele>490</ele>
        <time>2022-03-07T10:45:32Z</time>
      </trkpt>
      <trkpt lat="46.54904" lon="5.5308">
        <ele>490</ele>
        <time>2022-03-07T10:45:33Z</time>
      </trkpt>
      <trkpt lat="46.54903" lon="5.53083">
        <ele>490.4</ele>
        <time>2022-03-07T10:45:34Z</time>
      </trkpt>
      <trkpt lat="46.54902" lon="5.53086">
        <ele>490.4</ele>
        <time>2022-03-07T10:45:35Z</time>
      </trkpt>
      <trkpt lat="46.549" lon="5.5309">
        <ele>490.4</ele>
        <time>2022-03-07T10:45:36Z</time>
      </trkpt>
      <trkpt lat="46.54899" lon="5.53093">
        <ele>490.8</ele>
        <time>2022-03-07T10:45:37Z</time>
      </trkpt>
      <trkpt lat="46.54897" lon="5.53096">
        <ele>490.8</ele>
        <time>2022-03-07T10:45:38Z</time>
      </trkpt>
      <trkpt lat="46.54896" lon="5.53099">
        <ele>490.8</ele>
        <time>2022-03-07T10:45:39Z</time>
      </trkpt>
      <trkpt lat="46.54894" lon="5.53102">
        <ele>491.2</ele>
        <time>2022-03-07T10:45:40Z</time>
      </trkpt>
      <trkpt lat="46.54892" lon="5.53105">
        <ele>491.4</ele>
        <time>2022-03-07T10:45:41Z</time>
      </trkpt>
      <trkpt lat="46.54891" lon="5.53109">
        <ele>491.6</ele>
        <time>2022-03-07T10:45:42Z</time>
      </trkpt>
      <trkpt lat="46.54889" lon="5.53112">
        <ele>492</ele>
        <time>2022-03-07T10:45:43Z</time>
      </trkpt>
      <trkpt lat="46.54887" lon="5.53115">
        <ele>492.2</ele>
        <time>2022-03-07T10:45:44Z</time>
      </trkpt>
      <trkpt lat="46.54885" lon="5.53119">
        <ele>492.2</ele>
        <time>2022-03-07T10:45:45Z</time>
      </trkpt>
      <trkpt lat="46.54883" lon="5.53122">
        <ele>492.4</ele>
        <time>2022-03-07T10:45:46Z</time>
      </trkpt>
      <trkpt lat="46.54881" lon="5.53124">
        <ele>492.4</ele>
        <time>2022-03-07T10:45:47Z</time>
      </trkpt>
      <trkpt lat="46.54879" lon="5.53127">
        <ele>492.8</ele>
        <time>2022-03-07T10:45:48Z</time>
      </trkpt>
      <trkpt lat="46.54877" lon="5.53131">
        <ele>492.8</ele>
        <time>2022-03-07T10:45:49Z</time>
      </trkpt>
      <trkpt lat="46.54875" lon="5.53134">
        <ele>493.2</ele>
        <time>2022-03-07T10:45:50Z</time>
      </trkpt>
      <trkpt lat="46.54872" lon="5.53136">
        <ele>493.2</ele>
        <time>2022-03-07T10:45:51Z</time>
      </trkpt>
      <trkpt lat="46.5487" lon="5.53139">
        <ele>493.4</ele>
        <time>2022-03-07T10:45:52Z</time>
      </trkpt>
      <trkpt lat="46.54867" lon="5.53141">
        <ele>493.4</ele>
        <time>2022-03-07T10:45:53Z</time>
      </trkpt>
      <trkpt lat="46.54865" lon="5.53144">
        <ele>493.6</ele>
        <time>2022-03-07T10:45:54Z</time>
      </trkpt>
      <trkpt lat="46.54862" lon="5.53146">
        <ele>493.6</ele>
        <time>2022-03-07T10:45:55Z</time>
      </trkpt>
      <trkpt lat="46.54859" lon="5.53148">
        <ele>493.6</ele>
        <time>2022-03-07T10:45:56Z</time>
      </trkpt>
      <trkpt lat="46.54857" lon="5.5315">
        <ele>494</ele>
        <time>2022-03-07T10:45:57Z</time>
      </trkpt>
      <trkpt lat="46.54854" lon="5.53152">
        <ele>494</ele>
        <time>2022-03-07T10:45:58Z</time>
      </trkpt>
      <trkpt lat="46.54851" lon="5.53154">
        <ele>494</ele>
        <time>2022-03-07T10:45:59Z</time>
      </trkpt>
      <trkpt lat="46.54848" lon="5.53156">
        <ele>494.2</ele>
        <time>2022-03-07T10:46:00Z</time>
      </trkpt>
      <trkpt lat="46.54845" lon="5.53158">
        <ele>494.2</ele>
        <time>2022-03-07T10:46:01Z</time>
      </trkpt>
      <trkpt lat="46.54841" lon="5.5316">
        <ele>494.2</ele>
        <time>2022-03-07T10:46:02Z</time>
      </trkpt>
      <trkpt lat="46.54838" lon="5.53162">
        <ele>494.4</ele>
        <time>2022-03-07T10:46:03Z</time>
      </trkpt>
      <trkpt lat="46.54835" lon="5.53164">
        <ele>494.4</ele>
        <time>2022-03-07T10:46:04Z</time>
      </trkpt>
      <trkpt lat="46.54832" lon="5.53165">
        <ele>494.4</ele>
        <time>2022-03-07T10:46:05Z</time>
      </trkpt>
      <trkpt lat="46.54828" lon="5.53166">
        <ele>494.6</ele>
        <time>2022-03-07T10:46:06Z</time>
      </trkpt>
      <trkpt lat="46.54825" lon="5.53168">
        <ele>494.6</ele>
        <time>2022-03-07T10:46:07Z</time>
      </trkpt>
      <trkpt lat="46.54822" lon="5.5317">
        <ele>494.6</ele>
        <time>2022-03-07T10:46:08Z</time>
      </trkpt>
      <trkpt lat="46.54819" lon="5.53172">
        <ele>494.8</ele>
        <time>2022-03-07T10:46:09Z</time>
      </trkpt>
      <trkpt lat="46.54816" lon="5.53173">
        <ele>494.8</ele>
        <time>2022-03-07T10:46:10Z</time>
      </trkpt>
      <trkpt lat="46.54812" lon="5.53175">
        <ele>494.8</ele>
        <time>2022-03-07T10:46:11Z</time>
      </trkpt>
      <trkpt lat="46.54809" lon="5.53176">
        <ele>495</ele>
        <time>2022-03-07T10:46:12Z</time>
      </trkpt>
      <trkpt lat="46.54806" lon="5.53178">
        <ele>495</ele>
        <time>2022-03-07T10:46:13Z</time>
      </trkpt>
      <trkpt lat="46.54803" lon="5.53179">
        <ele>495.4</ele>
        <time>2022-03-07T10:46:14Z</time>
      </trkpt>
      <trkpt lat="46.548" lon="5.53181">
        <ele>495.4</ele>
        <time>2022-03-07T10:46:15Z</time>
      </trkpt>
      <trkpt lat="46.54797" lon="5.53182">
        <ele>495.6</ele>
        <time>2022-03-07T10:46:16Z</time>
      </trkpt>
      <trkpt lat="46.54794" lon="5.53184">
        <ele>495.6</ele>
        <time>2022-03-07T10:46:17Z</time>
      </trkpt>
      <trkpt lat="46.54791" lon="5.53186">
        <ele>495.8</ele>
        <time>2022-03-07T10:46:18Z</time>
      </trkpt>
      <trkpt lat="46.54788" lon="5.53187">
        <ele>495.8</ele>
        <time>2022-03-07T10:46:19Z</time>
      </trkpt>
      <trkpt lat="46.54785" lon="5.53189">
        <ele>495.8</ele>
        <time>2022-03-07T10:46:20Z</time>
      </trkpt>
      <trkpt lat="46.54782" lon="5.53191">
        <ele>496.2</ele>
        <time>2022-03-07T10:46:21Z</time>
      </trkpt>
      <trkpt lat="46.54779" lon="5.53191">
        <ele>496.2</ele>
        <time>2022-03-07T10:46:22Z</time>
      </trkpt>
      <trkpt lat="46.54776" lon="5.53192">
        <ele>496.4</ele>
        <time>2022-03-07T10:46:23Z</time>
      </trkpt>
      <trkpt lat="46.54773" lon="5.53193">
        <ele>496.4</ele>
        <time>2022-03-07T10:46:24Z</time>
      </trkpt>
      <trkpt lat="46.5477" lon="5.53195">
        <ele>496.6</ele>
        <time>2022-03-07T10:46:25Z</time>
      </trkpt>
      <trkpt lat="46.54767" lon="5.53196">
        <ele>496.6</ele>
        <time>2022-03-07T10:46:26Z</time>
      </trkpt>
      <trkpt lat="46.54764" lon="5.53196">
        <ele>496.6</ele>
        <time>2022-03-07T10:46:27Z</time>
      </trkpt>
      <trkpt lat="46.54761" lon="5.53198">
        <ele>497</ele>
        <time>2022-03-07T10:46:28Z</time>
      </trkpt>
      <trkpt lat="46.54758" lon="5.53198">
        <ele>497</ele>
        <time>2022-03-07T10:46:29Z</time>
      </trkpt>
      <trkpt lat="46.54755" lon="5.53199">
        <ele>497</ele>
        <time>2022-03-07T10:46:30Z</time>
      </trkpt>
      <trkpt lat="46.54752" lon="5.53199">
        <ele>497.2</ele>
        <time>2022-03-07T10:46:31Z</time>
      </trkpt>
      <trkpt lat="46.54748" lon="5.53199">
        <ele>497.2</ele>
        <time>2022-03-07T10:46:32Z</time>
      </trkpt>
      <trkpt lat="46.54745" lon="5.532">
        <ele>497.6</ele>
        <time>2022-03-07T10:46:33Z</time>
      </trkpt>
      <trkpt lat="46.54742" lon="5.532">
        <ele>497.6</ele>
        <time>2022-03-07T10:46:34Z</time>
      </trkpt>
      <trkpt lat="46.54738" lon="5.532">
        <ele>497.8</ele>
        <time>2022-03-07T10:46:35Z</time>
      </trkpt>
      <trkpt lat="46.54735" lon="5.53199">
        <ele>497.8</ele>
        <time>2022-03-07T10:46:36Z</time>
      </trkpt>
      <trkpt lat="46.54732" lon="5.53199">
        <ele>497.8</ele>
        <time>2022-03-07T10:46:37Z</time>
      </trkpt>
      <trkpt lat="46.54728" lon="5.53199">
        <ele>498</ele>
        <time>2022-03-07T10:46:38Z</time>
      </trkpt>
      <trkpt lat="46.54725" lon="5.53199">
        <ele>498.4</ele>
        <time>2022-03-07T10:46:39Z</time>
      </trkpt>
      <trkpt lat="46.54721" lon="5.53198">
        <ele>498.4</ele>
        <time>2022-03-07T10:46:40Z</time>
      </trkpt>
      <trkpt lat="46.54718" lon="5.53197">
        <ele>498.6</ele>
        <time>2022-03-07T10:46:41Z</time>
      </trkpt>
      <trkpt lat="46.54714" lon="5.53197">
        <ele>498.6</ele>
        <time>2022-03-07T10:46:42Z</time>
      </trkpt>
      <trkpt lat="46.54711" lon="5.53196">
        <ele>499</ele>
        <time>2022-03-07T10:46:43Z</time>
      </trkpt>
      <trkpt lat="46.54707" lon="5.53196">
        <ele>499.2</ele>
        <time>2022-03-07T10:46:44Z</time>
      </trkpt>
      <trkpt lat="46.54704" lon="5.53196">
        <ele>499.4</ele>
        <time>2022-03-07T10:46:45Z</time>
      </trkpt>
      <trkpt lat="46.54701" lon="5.53196">
        <ele>499.6</ele>
        <time>2022-03-07T10:46:46Z</time>
      </trkpt>
      <trkpt lat="46.54697" lon="5.53196">
        <ele>500</ele>
        <time>2022-03-07T10:46:47Z</time>
      </trkpt>
      <trkpt lat="46.54695" lon="5.53195">
        <ele>500.4</ele>
        <time>2022-03-07T10:46:48Z</time>
      </trkpt>
      <trkpt lat="46.54692" lon="5.53194">
        <ele>500.4</ele>
        <time>2022-03-07T10:46:49Z</time>
      </trkpt>
      <trkpt lat="46.54689" lon="5.53193">
        <ele>500.8</ele>
        <time>2022-03-07T10:46:50Z</time>
      </trkpt>
      <trkpt lat="46.54686" lon="5.53193">
        <ele>501</ele>
        <time>2022-03-07T10:46:51Z</time>
      </trkpt>
      <trkpt lat="46.54683" lon="5.53193">
        <ele>501</ele>
        <time>2022-03-07T10:46:52Z</time>
      </trkpt>
      <trkpt lat="46.5468" lon="5.53193">
        <ele>501.4</ele>
        <time>2022-03-07T10:46:53Z</time>
      </trkpt>
      <trkpt lat="46.54677" lon="5.53193">
        <ele>501.6</ele>
        <time>2022-03-07T10:46:54Z</time>
      </trkpt>
      <trkpt lat="46.54674" lon="5.53193">
        <ele>501.8</ele>
        <time>2022-03-07T10:46:55Z</time>
      </trkpt>
      <trkpt lat="46.54671" lon="5.53192">
        <ele>501.8</ele>
        <time>2022-03-07T10:46:56Z</time>
      </trkpt>
      <trkpt lat="46.54669" lon="5.53193">
        <ele>502.2</ele>
        <time>2022-03-07T10:46:57Z</time>
      </trkpt>
      <trkpt lat="46.54666" lon="5.53193">
        <ele>502.2</ele>
        <time>2022-03-07T10:46:58Z</time>
      </trkpt>
      <trkpt lat="46.54663" lon="5.53194">
        <ele>502.6</ele>
        <time>2022-03-07T10:46:59Z</time>
      </trkpt>
      <trkpt lat="46.5466" lon="5.53195">
        <ele>502.6</ele>
        <time>2022-03-07T10:47:00Z</time>
      </trkpt>
      <trkpt lat="46.54657" lon="5.53195">
        <ele>502.8</ele>
        <time>2022-03-07T10:47:01Z</time>
      </trkpt>
      <trkpt lat="46.54655" lon="5.53196">
        <ele>503.2</ele>
        <time>2022-03-07T10:47:02Z</time>
      </trkpt>
      <trkpt lat="46.54652" lon="5.53197">
        <ele>503.2</ele>
        <time>2022-03-07T10:47:03Z</time>
      </trkpt>
      <trkpt lat="46.54649" lon="5.53197">
        <ele>503.4</ele>
        <time>2022-03-07T10:47:04Z</time>
      </trkpt>
      <trkpt lat="46.54647" lon="5.53197">
        <ele>503.4</ele>
        <time>2022-03-07T10:47:05Z</time>
      </trkpt>
      <trkpt lat="46.54644" lon="5.53198">
        <ele>503.8</ele>
        <time>2022-03-07T10:47:06Z</time>
      </trkpt>
      <trkpt lat="46.54641" lon="5.53199">
        <ele>503.8</ele>
        <time>2022-03-07T10:47:07Z</time>
      </trkpt>
      <trkpt lat="46.54638" lon="5.532">
        <ele>504.2</ele>
        <time>2022-03-07T10:47:08Z</time>
      </trkpt>
      <trkpt lat="46.54636" lon="5.53201">
        <ele>504.2</ele>
        <time>2022-03-07T10:47:09Z</time>
      </trkpt>
      <trkpt lat="46.54633" lon="5.53203">
        <ele>504.6</ele>
        <time>2022-03-07T10:47:10Z</time>
      </trkpt>
      <trkpt lat="46.54631" lon="5.53204">
        <ele>504.6</ele>
        <time>2022-03-07T10:47:11Z</time>
      </trkpt>
      <trkpt lat="46.54628" lon="5.53205">
        <ele>505</ele>
        <time>2022-03-07T10:47:12Z</time>
      </trkpt>
      <trkpt lat="46.54625" lon="5.53206">
        <ele>505</ele>
        <time>2022-03-07T10:47:13Z</time>
      </trkpt>
      <trkpt lat="46.54623" lon="5.53207">
        <ele>505.2</ele>
        <time>2022-03-07T10:47:14Z</time>
      </trkpt>
      <trkpt lat="46.5462" lon="5.53208">
        <ele>505.2</ele>
        <time>2022-03-07T10:47:15Z</time>
      </trkpt>
      <trkpt lat="46.54618" lon="5.53209">
        <ele>505.4</ele>
        <time>2022-03-07T10:47:16Z</time>
      </trkpt>
      <trkpt lat="46.54615" lon="5.5321">
        <ele>505.4</ele>
        <time>2022-03-07T10:47:17Z</time>
      </trkpt>
      <trkpt lat="46.54612" lon="5.53211">
        <ele>505.6</ele>
        <time>2022-03-07T10:47:18Z</time>
      </trkpt>
      <trkpt lat="46.5461" lon="5.53212">
        <ele>505.6</ele>
        <time>2022-03-07T10:47:19Z</time>
      </trkpt>
      <trkpt lat="46.54607" lon="5.53213">
        <ele>506</ele>
        <time>2022-03-07T10:47:20Z</time>
      </trkpt>
      <trkpt lat="46.54604" lon="5.53214">
        <ele>506</ele>
        <time>2022-03-07T10:47:21Z</time>
      </trkpt>
      <trkpt lat="46.54601" lon="5.53214">
        <ele>506.2</ele>
        <time>2022-03-07T10:47:22Z</time>
      </trkpt>
      <trkpt lat="46.54599" lon="5.53215">
        <ele>506.2</ele>
        <time>2022-03-07T10:47:23Z</time>
      </trkpt>
      <trkpt lat="46.54596" lon="5.53217">
        <ele>506.6</ele>
        <time>2022-03-07T10:47:24Z</time>
      </trkpt>
      <trkpt lat="46.54594" lon="5.53218">
        <ele>506.6</ele>
        <time>2022-03-07T10:47:25Z</time>
      </trkpt>
      <trkpt lat="46.54591" lon="5.53219">
        <ele>506.8</ele>
        <time>2022-03-07T10:47:26Z</time>
      </trkpt>
      <trkpt lat="46.54588" lon="5.5322">
        <ele>506.8</ele>
        <time>2022-03-07T10:47:27Z</time>
      </trkpt>
      <trkpt lat="46.54586" lon="5.53221">
        <ele>507.2</ele>
        <time>2022-03-07T10:47:28Z</time>
      </trkpt>
      <trkpt lat="46.54583" lon="5.53222">
        <ele>507.2</ele>
        <time>2022-03-07T10:47:29Z</time>
      </trkpt>
      <trkpt lat="46.54581" lon="5.53223">
        <ele>507.4</ele>
        <time>2022-03-07T10:47:30Z</time>
      </trkpt>
      <trkpt lat="46.54578" lon="5.53224">
        <ele>507.4</ele>
        <time>2022-03-07T10:47:31Z</time>
      </trkpt>
      <trkpt lat="46.54575" lon="5.53225">
        <ele>507.6</ele>
        <time>2022-03-07T10:47:32Z</time>
      </trkpt>
      <trkpt lat="46.54573" lon="5.53227">
        <ele>507.6</ele>
        <time>2022-03-07T10:47:33Z</time>
      </trkpt>
      <trkpt lat="46.5457" lon="5.53228">
        <ele>508</ele>
        <time>2022-03-07T10:47:34Z</time>
      </trkpt>
      <trkpt lat="46.54567" lon="5.53228">
        <ele>508.2</ele>
        <time>2022-03-07T10:47:35Z</time>
      </trkpt>
      <trkpt lat="46.54564" lon="5.53229">
        <ele>508.2</ele>
        <time>2022-03-07T10:47:36Z</time>
      </trkpt>
      <trkpt lat="46.54562" lon="5.5323">
        <ele>508.4</ele>
        <time>2022-03-07T10:47:37Z</time>
      </trkpt>
      <trkpt lat="46.54559" lon="5.53231">
        <ele>508.4</ele>
        <time>2022-03-07T10:47:38Z</time>
      </trkpt>
      <trkpt lat="46.54556" lon="5.53232">
        <ele>508.8</ele>
        <time>2022-03-07T10:47:39Z</time>
      </trkpt>
      <trkpt lat="46.54554" lon="5.53232">
        <ele>508.8</ele>
        <time>2022-03-07T10:47:40Z</time>
      </trkpt>
      <trkpt lat="46.54551" lon="5.53232">
        <ele>509.2</ele>
        <time>2022-03-07T10:47:41Z</time>
      </trkpt>
      <trkpt lat="46.54548" lon="5.53233">
        <ele>509.4</ele>
        <time>2022-03-07T10:47:42Z</time>
      </trkpt>
      <trkpt lat="46.54546" lon="5.53234">
        <ele>509.6</ele>
        <time>2022-03-07T10:47:43Z</time>
      </trkpt>
      <trkpt lat="46.54543" lon="5.53234">
        <ele>509.6</ele>
        <time>2022-03-07T10:47:44Z</time>
      </trkpt>
      <trkpt lat="46.5454" lon="5.53235">
        <ele>510</ele>
        <time>2022-03-07T10:47:45Z</time>
      </trkpt>
      <trkpt lat="46.54537" lon="5.53236">
        <ele>510</ele>
        <time>2022-03-07T10:47:46Z</time>
      </trkpt>
      <trkpt lat="46.54535" lon="5.53236">
        <ele>510.4</ele>
        <time>2022-03-07T10:47:47Z</time>
      </trkpt>
      <trkpt lat="46.54532" lon="5.53236">
        <ele>510.4</ele>
        <time>2022-03-07T10:47:48Z</time>
      </trkpt>
      <trkpt lat="46.5453" lon="5.53237">
        <ele>510.6</ele>
        <time>2022-03-07T10:47:49Z</time>
      </trkpt>
      <trkpt lat="46.54528" lon="5.53238">
        <ele>510.8</ele>
        <time>2022-03-07T10:47:50Z</time>
      </trkpt>
      <trkpt lat="46.54526" lon="5.53238">
        <ele>510.8</ele>
        <time>2022-03-07T10:47:51Z</time>
      </trkpt>
      <trkpt lat="46.54523" lon="5.53238">
        <ele>511.2</ele>
        <time>2022-03-07T10:47:52Z</time>
      </trkpt>
      <trkpt lat="46.54521" lon="5.53239">
        <ele>511.2</ele>
        <time>2022-03-07T10:47:53Z</time>
      </trkpt>
      <trkpt lat="46.54518" lon="5.53239">
        <ele>511.4</ele>
        <time>2022-03-07T10:47:54Z</time>
      </trkpt>
      <trkpt lat="46.54516" lon="5.5324">
        <ele>511.4</ele>
        <time>2022-03-07T10:47:55Z</time>
      </trkpt>
      <trkpt lat="46.54514" lon="5.5324">
        <ele>511.8</ele>
        <time>2022-03-07T10:47:56Z</time>
      </trkpt>
      <trkpt lat="46.54511" lon="5.53241">
        <ele>511.8</ele>
        <time>2022-03-07T10:47:57Z</time>
      </trkpt>
      <trkpt lat="46.54509" lon="5.53241">
        <ele>512</ele>
        <time>2022-03-07T10:47:58Z</time>
      </trkpt>
      <trkpt lat="46.54506" lon="5.53241">
        <ele>512</ele>
        <time>2022-03-07T10:47:59Z</time>
      </trkpt>
      <trkpt lat="46.54504" lon="5.53242">
        <ele>512.2</ele>
        <time>2022-03-07T10:48:00Z</time>
      </trkpt>
      <trkpt lat="46.54502" lon="5.53243">
        <ele>512.2</ele>
        <time>2022-03-07T10:48:01Z</time>
      </trkpt>
      <trkpt lat="46.54499" lon="5.53243">
        <ele>512.6</ele>
        <time>2022-03-07T10:48:02Z</time>
      </trkpt>
      <trkpt lat="46.54497" lon="5.53244">
        <ele>512.6</ele>
        <time>2022-03-07T10:48:03Z</time>
      </trkpt>
      <trkpt lat="46.54495" lon="5.53244">
        <ele>512.8</ele>
        <time>2022-03-07T10:48:04Z</time>
      </trkpt>
      <trkpt lat="46.54492" lon="5.53245">
        <ele>512.8</ele>
        <time>2022-03-07T10:48:05Z</time>
      </trkpt>
      <trkpt lat="46.5449" lon="5.53246">
        <ele>513</ele>
        <time>2022-03-07T10:48:06Z</time>
      </trkpt>
      <trkpt lat="46.54488" lon="5.53246">
        <ele>513.4</ele>
        <time>2022-03-07T10:48:07Z</time>
      </trkpt>
      <trkpt lat="46.54485" lon="5.53247">
        <ele>513.4</ele>
        <time>2022-03-07T10:48:08Z</time>
      </trkpt>
      <trkpt lat="46.54483" lon="5.53248">
        <ele>513.6</ele>
        <time>2022-03-07T10:48:09Z</time>
      </trkpt>
      <trkpt lat="46.54481" lon="5.53249">
        <ele>513.6</ele>
        <time>2022-03-07T10:48:10Z</time>
      </trkpt>
      <trkpt lat="46.54479" lon="5.5325">
        <ele>513.8</ele>
        <time>2022-03-07T10:48:11Z</time>
      </trkpt>
      <trkpt lat="46.54477" lon="5.53251">
        <ele>513.8</ele>
        <time>2022-03-07T10:48:12Z</time>
      </trkpt>
      <trkpt lat="46.54475" lon="5.53252">
        <ele>514</ele>
        <time>2022-03-07T10:48:13Z</time>
      </trkpt>
      <trkpt lat="46.54473" lon="5.53252">
        <ele>514</ele>
        <time>2022-03-07T10:48:14Z</time>
      </trkpt>
      <trkpt lat="46.5447" lon="5.53252">
        <ele>514.4</ele>
        <time>2022-03-07T10:48:15Z</time>
      </trkpt>
      <trkpt lat="46.54468" lon="5.53252">
        <ele>514.4</ele>
        <time>2022-03-07T10:48:16Z</time>
      </trkpt>
      <trkpt lat="46.54466" lon="5.53252">
        <ele>514.6</ele>
        <time>2022-03-07T10:48:17Z</time>
      </trkpt>
      <trkpt lat="46.54464" lon="5.53253">
        <ele>514.6</ele>
        <time>2022-03-07T10:48:18Z</time>
      </trkpt>
      <trkpt lat="46.54461" lon="5.53253">
        <ele>514.8</ele>
        <time>2022-03-07T10:48:19Z</time>
      </trkpt>
      <trkpt lat="46.54459" lon="5.53253">
        <ele>514.8</ele>
        <time>2022-03-07T10:48:20Z</time>
      </trkpt>
      <trkpt lat="46.54457" lon="5.53253">
        <ele>515.2</ele>
        <time>2022-03-07T10:48:21Z</time>
      </trkpt>
      <trkpt lat="46.54455" lon="5.53254">
        <ele>515.4</ele>
        <time>2022-03-07T10:48:22Z</time>
      </trkpt>
      <trkpt lat="46.54453" lon="5.53254">
        <ele>515.6</ele>
        <time>2022-03-07T10:48:23Z</time>
      </trkpt>
      <trkpt lat="46.54451" lon="5.53255">
        <ele>515.8</ele>
        <time>2022-03-07T10:48:24Z</time>
      </trkpt>
      <trkpt lat="46.54449" lon="5.53255">
        <ele>515.8</ele>
        <time>2022-03-07T10:48:25Z</time>
      </trkpt>
      <trkpt lat="46.54447" lon="5.53256">
        <ele>516.2</ele>
        <time>2022-03-07T10:48:26Z</time>
      </trkpt>
      <trkpt lat="46.54445" lon="5.53257">
        <ele>516.2</ele>
        <time>2022-03-07T10:48:27Z</time>
      </trkpt>
      <trkpt lat="46.54443" lon="5.53257">
        <ele>516.6</ele>
        <time>2022-03-07T10:48:28Z</time>
      </trkpt>
      <trkpt lat="46.5444" lon="5.53258">
        <ele>516.6</ele>
        <time>2022-03-07T10:48:29Z</time>
      </trkpt>
      <trkpt lat="46.54438" lon="5.53258">
        <ele>516.8</ele>
        <time>2022-03-07T10:48:30Z</time>
      </trkpt>
      <trkpt lat="46.54436" lon="5.53258">
        <ele>516.8</ele>
        <time>2022-03-07T10:48:31Z</time>
      </trkpt>
      <trkpt lat="46.54434" lon="5.53259">
        <ele>517.2</ele>
        <time>2022-03-07T10:48:32Z</time>
      </trkpt>
      <trkpt lat="46.54432" lon="5.5326">
        <ele>517.2</ele>
        <time>2022-03-07T10:48:33Z</time>
      </trkpt>
      <trkpt lat="46.54429" lon="5.5326">
        <ele>517.4</ele>
        <time>2022-03-07T10:48:34Z</time>
      </trkpt>
      <trkpt lat="46.54427" lon="5.5326">
        <ele>517.4</ele>
        <time>2022-03-07T10:48:35Z</time>
      </trkpt>
      <trkpt lat="46.54424" lon="5.5326">
        <ele>517.8</ele>
        <time>2022-03-07T10:48:36Z</time>
      </trkpt>
      <trkpt lat="46.54422" lon="5.53261">
        <ele>518</ele>
        <time>2022-03-07T10:48:37Z</time>
      </trkpt>
      <trkpt lat="46.5442" lon="5.53262">
        <ele>518</ele>
        <time>2022-03-07T10:48:38Z</time>
      </trkpt>
      <trkpt lat="46.54418" lon="5.53262">
        <ele>518.4</ele>
        <time>2022-03-07T10:48:39Z</time>
      </trkpt>
      <trkpt lat="46.54415" lon="5.53263">
        <ele>518.4</ele>
        <time>2022-03-07T10:48:40Z</time>
      </trkpt>
      <trkpt lat="46.54413" lon="5.53264">
        <ele>518.6</ele>
        <time>2022-03-07T10:48:41Z</time>
      </trkpt>
      <trkpt lat="46.54411" lon="5.53265">
        <ele>518.6</ele>
        <time>2022-03-07T10:48:42Z</time>
      </trkpt>
      <trkpt lat="46.54408" lon="5.53266">
        <ele>519</ele>
        <time>2022-03-07T10:48:43Z</time>
      </trkpt>
      <trkpt lat="46.54406" lon="5.53267">
        <ele>519</ele>
        <time>2022-03-07T10:48:44Z</time>
      </trkpt>
      <trkpt lat="46.54403" lon="5.53269">
        <ele>519.4</ele>
        <time>2022-03-07T10:48:45Z</time>
      </trkpt>
      <trkpt lat="46.54401" lon="5.5327">
        <ele>519.4</ele>
        <time>2022-03-07T10:48:46Z</time>
      </trkpt>
      <trkpt lat="46.54399" lon="5.53272">
        <ele>519.6</ele>
        <time>2022-03-07T10:48:47Z</time>
      </trkpt>
      <trkpt lat="46.54397" lon="5.53273">
        <ele>519.6</ele>
        <time>2022-03-07T10:48:48Z</time>
      </trkpt>
      <trkpt lat="46.54394" lon="5.53275">
        <ele>519.6</ele>
        <time>2022-03-07T10:48:49Z</time>
      </trkpt>
      <trkpt lat="46.54392" lon="5.53277">
        <ele>519.8</ele>
        <time>2022-03-07T10:48:50Z</time>
      </trkpt>
      <trkpt lat="46.5439" lon="5.53279">
        <ele>519.8</ele>
        <time>2022-03-07T10:48:51Z</time>
      </trkpt>
      <trkpt lat="46.54388" lon="5.53281">
        <ele>519.8</ele>
        <time>2022-03-07T10:48:52Z</time>
      </trkpt>
      <trkpt lat="46.54386" lon="5.53283">
        <ele>520.2</ele>
        <time>2022-03-07T10:48:53Z</time>
      </trkpt>
      <trkpt lat="46.54384" lon="5.53285">
        <ele>520.2</ele>
        <time>2022-03-07T10:48:54Z</time>
      </trkpt>
      <trkpt lat="46.54382" lon="5.53288">
        <ele>520.2</ele>
        <time>2022-03-07T10:48:55Z</time>
      </trkpt>
      <trkpt lat="46.54381" lon="5.53291">
        <ele>520.4</ele>
        <time>2022-03-07T10:48:56Z</time>
      </trkpt>
      <trkpt lat="46.5438" lon="5.53294">
        <ele>520.4</ele>
        <time>2022-03-07T10:48:57Z</time>
      </trkpt>
      <trkpt lat="46.54378" lon="5.53297">
        <ele>520.4</ele>
        <time>2022-03-07T10:48:58Z</time>
      </trkpt>
      <trkpt lat="46.54376" lon="5.53299">
        <ele>520.8</ele>
        <time>2022-03-07T10:48:59Z</time>
      </trkpt>
      <trkpt lat="46.54375" lon="5.53302">
        <ele>520.8</ele>
        <time>2022-03-07T10:49:00Z</time>
      </trkpt>
      <trkpt lat="46.54373" lon="5.53304">
        <ele>521</ele>
        <time>2022-03-07T10:49:01Z</time>
      </trkpt>
      <trkpt lat="46.54372" lon="5.53307">
        <ele>521</ele>
        <time>2022-03-07T10:49:02Z</time>
      </trkpt>
      <trkpt lat="46.5437" lon="5.5331">
        <ele>521.4</ele>
        <time>2022-03-07T10:49:03Z</time>
      </trkpt>
      <trkpt lat="46.54369" lon="5.53313">
        <ele>521.4</ele>
        <time>2022-03-07T10:49:04Z</time>
      </trkpt>
      <trkpt lat="46.54368" lon="5.53316">
        <ele>521.6</ele>
        <time>2022-03-07T10:49:05Z</time>
      </trkpt>
      <trkpt lat="46.54367" lon="5.53319">
        <ele>521.6</ele>
        <time>2022-03-07T10:49:06Z</time>
      </trkpt>
      <trkpt lat="46.54366" lon="5.53322">
        <ele>522</ele>
        <time>2022-03-07T10:49:07Z</time>
      </trkpt>
      <trkpt lat="46.54365" lon="5.53325">
        <ele>522</ele>
        <time>2022-03-07T10:49:08Z</time>
      </trkpt>
      <trkpt lat="46.54364" lon="5.53329">
        <ele>522</ele>
        <time>2022-03-07T10:49:09Z</time>
      </trkpt>
      <trkpt lat="46.54364" lon="5.53332">
        <ele>522.2</ele>
        <time>2022-03-07T10:49:10Z</time>
      </trkpt>
      <trkpt lat="46.54363" lon="5.53336">
        <ele>522.2</ele>
        <time>2022-03-07T10:49:11Z</time>
      </trkpt>
      <trkpt lat="46.54363" lon="5.53339">
        <ele>522.4</ele>
        <time>2022-03-07T10:49:12Z</time>
      </trkpt>
      <trkpt lat="46.54362" lon="5.53343">
        <ele>522.4</ele>
        <time>2022-03-07T10:49:13Z</time>
      </trkpt>
      <trkpt lat="46.54361" lon="5.53346">
        <ele>522.4</ele>
        <time>2022-03-07T10:49:14Z</time>
      </trkpt>
      <trkpt lat="46.5436" lon="5.5335">
        <ele>522.8</ele>
        <time>2022-03-07T10:49:15Z</time>
      </trkpt>
      <trkpt lat="46.54359" lon="5.53353">
        <ele>522.8</ele>
        <time>2022-03-07T10:49:16Z</time>
      </trkpt>
      <trkpt lat="46.54359" lon="5.53357">
        <ele>522.8</ele>
        <time>2022-03-07T10:49:17Z</time>
      </trkpt>
      <trkpt lat="46.54358" lon="5.53361">
        <ele>522.8</ele>
        <time>2022-03-07T10:49:18Z</time>
      </trkpt>
      <trkpt lat="46.54357" lon="5.53366">
        <ele>522.8</ele>
        <time>2022-03-07T10:49:19Z</time>
      </trkpt>
      <trkpt lat="46.54356" lon="5.53371">
        <ele>523</ele>
        <time>2022-03-07T10:49:20Z</time>
      </trkpt>
      <trkpt lat="46.54355" lon="5.53376">
        <ele>523</ele>
        <time>2022-03-07T10:49:21Z</time>
      </trkpt>
      <trkpt lat="46.54354" lon="5.53381">
        <ele>523</ele>
        <time>2022-03-07T10:49:22Z</time>
      </trkpt>
      <trkpt lat="46.54352" lon="5.53386">
        <ele>523</ele>
        <time>2022-03-07T10:49:23Z</time>
      </trkpt>
      <trkpt lat="46.54351" lon="5.53391">
        <ele>523</ele>
        <time>2022-03-07T10:49:24Z</time>
      </trkpt>
      <trkpt lat="46.54349" lon="5.53396">
        <ele>523.2</ele>
        <time>2022-03-07T10:49:25Z</time>
      </trkpt>
      <trkpt lat="46.54348" lon="5.534">
        <ele>523.2</ele>
        <time>2022-03-07T10:49:26Z</time>
      </trkpt>
      <trkpt lat="46.54346" lon="5.53405">
        <ele>523.4</ele>
        <time>2022-03-07T10:49:27Z</time>
      </trkpt>
      <trkpt lat="46.54344" lon="5.5341">
        <ele>523.4</ele>
        <time>2022-03-07T10:49:28Z</time>
      </trkpt>
      <trkpt lat="46.54342" lon="5.53414">
        <ele>523.4</ele>
        <time>2022-03-07T10:49:29Z</time>
      </trkpt>
      <trkpt lat="46.5434" lon="5.53418">
        <ele>523.8</ele>
        <time>2022-03-07T10:49:30Z</time>
      </trkpt>
      <trkpt lat="46.54338" lon="5.53422">
        <ele>523.8</ele>
        <time>2022-03-07T10:49:31Z</time>
      </trkpt>
      <trkpt lat="46.54335" lon="5.53425">
        <ele>523.8</ele>
        <time>2022-03-07T10:49:32Z</time>
      </trkpt>
      <trkpt lat="46.54333" lon="5.53429">
        <ele>524</ele>
        <time>2022-03-07T10:49:33Z</time>
      </trkpt>
      <trkpt lat="46.5433" lon="5.53432">
        <ele>524</ele>
        <time>2022-03-07T10:49:34Z</time>
      </trkpt>
      <trkpt lat="46.54328" lon="5.53435">
        <ele>524.4</ele>
        <time>2022-03-07T10:49:35Z</time>
      </trkpt>
      <trkpt lat="46.54325" lon="5.53439">
        <ele>524.4</ele>
        <time>2022-03-07T10:49:36Z</time>
      </trkpt>
      <trkpt lat="46.54322" lon="5.53442">
        <ele>524.4</ele>
        <time>2022-03-07T10:49:37Z</time>
      </trkpt>
      <trkpt lat="46.5432" lon="5.53446">
        <ele>524.6</ele>
        <time>2022-03-07T10:49:38Z</time>
      </trkpt>
      <trkpt lat="46.54318" lon="5.53449">
        <ele>524.8</ele>
        <time>2022-03-07T10:49:39Z</time>
      </trkpt>
      <trkpt lat="46.54315" lon="5.53453">
        <ele>524.8</ele>
        <time>2022-03-07T10:49:40Z</time>
      </trkpt>
      <trkpt lat="46.54313" lon="5.53456">
        <ele>525.2</ele>
        <time>2022-03-07T10:49:41Z</time>
      </trkpt>
      <trkpt lat="46.54311" lon="5.53459">
        <ele>525.4</ele>
        <time>2022-03-07T10:49:42Z</time>
      </trkpt>
      <trkpt lat="46.54309" lon="5.53462">
        <ele>525.4</ele>
        <time>2022-03-07T10:49:43Z</time>
      </trkpt>
      <trkpt lat="46.54307" lon="5.53465">
        <ele>525.4</ele>
        <time>2022-03-07T10:49:44Z</time>
      </trkpt>
      <trkpt lat="46.54305" lon="5.53469">
        <ele>525.6</ele>
        <time>2022-03-07T10:49:45Z</time>
      </trkpt>
      <trkpt lat="46.54303" lon="5.53472">
        <ele>525.6</ele>
        <time>2022-03-07T10:49:46Z</time>
      </trkpt>
      <trkpt lat="46.54301" lon="5.53476">
        <ele>525.6</ele>
        <time>2022-03-07T10:49:47Z</time>
      </trkpt>
      <trkpt lat="46.54299" lon="5.53479">
        <ele>525.6</ele>
        <time>2022-03-07T10:49:48Z</time>
      </trkpt>
      <trkpt lat="46.54297" lon="5.53483">
        <ele>525.8</ele>
        <time>2022-03-07T10:49:49Z</time>
      </trkpt>
      <trkpt lat="46.54295" lon="5.53487">
        <ele>525.8</ele>
        <time>2022-03-07T10:49:50Z</time>
      </trkpt>
      <trkpt lat="46.54293" lon="5.53492">
        <ele>525.8</ele>
        <time>2022-03-07T10:49:51Z</time>
      </trkpt>
      <trkpt lat="46.54291" lon="5.53497">
        <ele>525.8</ele>
        <time>2022-03-07T10:49:52Z</time>
      </trkpt>
      <trkpt lat="46.5429" lon="5.53501">
        <ele>525.8</ele>
        <time>2022-03-07T10:49:53Z</time>
      </trkpt>
      <trkpt lat="46.54288" lon="5.53506">
        <ele>525.8</ele>
        <time>2022-03-07T10:49:54Z</time>
      </trkpt>
      <trkpt lat="46.54287" lon="5.53511">
        <ele>525.8</ele>
        <time>2022-03-07T10:49:55Z</time>
      </trkpt>
      <trkpt lat="46.54285" lon="5.53516">
        <ele>525.8</ele>
        <time>2022-03-07T10:49:56Z</time>
      </trkpt>
      <trkpt lat="46.54284" lon="5.53521">
        <ele>525.8</ele>
        <time>2022-03-07T10:49:57Z</time>
      </trkpt>
      <trkpt lat="46.54283" lon="5.53527">
        <ele>525.8</ele>
        <time>2022-03-07T10:49:58Z</time>
      </trkpt>
      <trkpt lat="46.54281" lon="5.53532">
        <ele>525.8</ele>
        <time>2022-03-07T10:49:59Z</time>
      </trkpt>
      <trkpt lat="46.5428" lon="5.53537">
        <ele>525.8</ele>
        <time>2022-03-07T10:50:00Z</time>
      </trkpt>
      <trkpt lat="46.54278" lon="5.53542">
        <ele>525.8</ele>
        <time>2022-03-07T10:50:01Z</time>
      </trkpt>
      <trkpt lat="46.54276" lon="5.53548">
        <ele>525.8</ele>
        <time>2022-03-07T10:50:02Z</time>
      </trkpt>
      <trkpt lat="46.54275" lon="5.53553">
        <ele>525.8</ele>
        <time>2022-03-07T10:50:03Z</time>
      </trkpt>
      <trkpt lat="46.54272" lon="5.53558">
        <ele>525.8</ele>
        <time>2022-03-07T10:50:04Z</time>
      </trkpt>
      <trkpt lat="46.5427" lon="5.53562">
        <ele>525.8</ele>
        <time>2022-03-07T10:50:05Z</time>
      </trkpt>
      <trkpt lat="46.54267" lon="5.53567">
        <ele>525.8</ele>
        <time>2022-03-07T10:50:06Z</time>
      </trkpt>
      <trkpt lat="46.54264" lon="5.53571">
        <ele>526.2</ele>
        <time>2022-03-07T10:50:07Z</time>
      </trkpt>
      <trkpt lat="46.54262" lon="5.53576">
        <ele>526.2</ele>
        <time>2022-03-07T10:50:08Z</time>
      </trkpt>
      <trkpt lat="46.54259" lon="5.5358">
        <ele>526.4</ele>
        <time>2022-03-07T10:50:09Z</time>
      </trkpt>
      <trkpt lat="46.54257" lon="5.53585">
        <ele>526.4</ele>
        <time>2022-03-07T10:50:10Z</time>
      </trkpt>
      <trkpt lat="46.54254" lon="5.5359">
        <ele>526.6</ele>
        <time>2022-03-07T10:50:11Z</time>
      </trkpt>
      <trkpt lat="46.54252" lon="5.53594">
        <ele>526.6</ele>
        <time>2022-03-07T10:50:12Z</time>
      </trkpt>
      <trkpt lat="46.54249" lon="5.53599">
        <ele>526.6</ele>
        <time>2022-03-07T10:50:13Z</time>
      </trkpt>
      <trkpt lat="46.54246" lon="5.53603">
        <ele>527</ele>
        <time>2022-03-07T10:50:14Z</time>
      </trkpt>
      <trkpt lat="46.54244" lon="5.53608">
        <ele>527</ele>
        <time>2022-03-07T10:50:15Z</time>
      </trkpt>
      <trkpt lat="46.54241" lon="5.53612">
        <ele>527</ele>
        <time>2022-03-07T10:50:16Z</time>
      </trkpt>
      <trkpt lat="46.54239" lon="5.53616">
        <ele>527.2</ele>
        <time>2022-03-07T10:50:17Z</time>
      </trkpt>
      <trkpt lat="46.54236" lon="5.53621">
        <ele>527.2</ele>
        <time>2022-03-07T10:50:18Z</time>
      </trkpt>
      <trkpt lat="46.54233" lon="5.53625">
        <ele>527.2</ele>
        <time>2022-03-07T10:50:19Z</time>
      </trkpt>
      <trkpt lat="46.54231" lon="5.5363">
        <ele>527.6</ele>
        <time>2022-03-07T10:50:20Z</time>
      </trkpt>
      <trkpt lat="46.54229" lon="5.53634">
        <ele>527.6</ele>
        <time>2022-03-07T10:50:21Z</time>
      </trkpt>
      <trkpt lat="46.54226" lon="5.53639">
        <ele>527.6</ele>
        <time>2022-03-07T10:50:22Z</time>
      </trkpt>
      <trkpt lat="46.54224" lon="5.53643">
        <ele>527.8</ele>
        <time>2022-03-07T10:50:23Z</time>
      </trkpt>
      <trkpt lat="46.54222" lon="5.53647">
        <ele>527.8</ele>
        <time>2022-03-07T10:50:24Z</time>
      </trkpt>
      <trkpt lat="46.54221" lon="5.53651">
        <ele>528</ele>
        <time>2022-03-07T10:50:25Z</time>
      </trkpt>
      <trkpt lat="46.54219" lon="5.53656">
        <ele>528</ele>
        <time>2022-03-07T10:50:26Z</time>
      </trkpt>
      <trkpt lat="46.54217" lon="5.5366">
        <ele>528</ele>
        <time>2022-03-07T10:50:27Z</time>
      </trkpt>
      <trkpt lat="46.54215" lon="5.53664">
        <ele>528.4</ele>
        <time>2022-03-07T10:50:28Z</time>
      </trkpt>
      <trkpt lat="46.54214" lon="5.53669">
        <ele>528.4</ele>
        <time>2022-03-07T10:50:29Z</time>
      </trkpt>
      <trkpt lat="46.54213" lon="5.53673">
        <ele>528.6</ele>
        <time>2022-03-07T10:50:30Z</time>
      </trkpt>
      <trkpt lat="46.54211" lon="5.53678">
        <ele>528.6</ele>
        <time>2022-03-07T10:50:31Z</time>
      </trkpt>
      <trkpt lat="46.5421" lon="5.53683">
        <ele>528.6</ele>
        <time>2022-03-07T10:50:32Z</time>
      </trkpt>
      <trkpt lat="46.54209" lon="5.53688">
        <ele>529</ele>
        <time>2022-03-07T10:50:33Z</time>
      </trkpt>
      <trkpt lat="46.54208" lon="5.53692">
        <ele>529</ele>
        <time>2022-03-07T10:50:34Z</time>
      </trkpt>
      <trkpt lat="46.54208" lon="5.53697">
        <ele>529</ele>
        <time>2022-03-07T10:50:35Z</time>
      </trkpt>
      <trkpt lat="46.54207" lon="5.53702">
        <ele>529</ele>
        <time>2022-03-07T10:50:36Z</time>
      </trkpt>
      <trkpt lat="46.54207" lon="5.53708">
        <ele>529</ele>
        <time>2022-03-07T10:50:37Z</time>
      </trkpt>
      <trkpt lat="46.54206" lon="5.53713">
        <ele>529</ele>
        <time>2022-03-07T10:50:38Z</time>
      </trkpt>
      <trkpt lat="46.54206" lon="5.53718">
        <ele>529</ele>
        <time>2022-03-07T10:50:39Z</time>
      </trkpt>
      <trkpt lat="46.54206" lon="5.53723">
        <ele>529</ele>
        <time>2022-03-07T10:50:40Z</time>
      </trkpt>
      <trkpt lat="46.54206" lon="5.53729">
        <ele>529</ele>
        <time>2022-03-07T10:50:41Z</time>
      </trkpt>
      <trkpt lat="46.54206" lon="5.53734">
        <ele>529</ele>
        <time>2022-03-07T10:50:42Z</time>
      </trkpt>
      <trkpt lat="46.54206" lon="5.53739">
        <ele>529</ele>
        <time>2022-03-07T10:50:43Z</time>
      </trkpt>
      <trkpt lat="46.54207" lon="5.53744">
        <ele>529.2</ele>
        <time>2022-03-07T10:50:44Z</time>
      </trkpt>
      <trkpt lat="46.54207" lon="5.5375">
        <ele>529.2</ele>
        <time>2022-03-07T10:50:45Z</time>
      </trkpt>
      <trkpt lat="46.54207" lon="5.53755">
        <ele>529.2</ele>
        <time>2022-03-07T10:50:46Z</time>
      </trkpt>
      <trkpt lat="46.54207" lon="5.5376">
        <ele>529.4</ele>
        <time>2022-03-07T10:50:47Z</time>
      </trkpt>
      <trkpt lat="46.54206" lon="5.53765">
        <ele>529.4</ele>
        <time>2022-03-07T10:50:48Z</time>
      </trkpt>
      <trkpt lat="46.54206" lon="5.5377">
        <ele>529.4</ele>
        <time>2022-03-07T10:50:49Z</time>
      </trkpt>
      <trkpt lat="46.54205" lon="5.53775">
        <ele>529.4</ele>
        <time>2022-03-07T10:50:50Z</time>
      </trkpt>
      <trkpt lat="46.54205" lon="5.5378">
        <ele>529.4</ele>
        <time>2022-03-07T10:50:51Z</time>
      </trkpt>
      <trkpt lat="46.54205" lon="5.53786">
        <ele>529.6</ele>
        <time>2022-03-07T10:50:52Z</time>
      </trkpt>
      <trkpt lat="46.54205" lon="5.53791">
        <ele>529.6</ele>
        <time>2022-03-07T10:50:53Z</time>
      </trkpt>
      <trkpt lat="46.54204" lon="5.53796">
        <ele>529.6</ele>
        <time>2022-03-07T10:50:54Z</time>
      </trkpt>
      <trkpt lat="46.54204" lon="5.53802">
        <ele>529.8</ele>
        <time>2022-03-07T10:50:55Z</time>
      </trkpt>
      <trkpt lat="46.54204" lon="5.53807">
        <ele>529.8</ele>
        <time>2022-03-07T10:50:56Z</time>
      </trkpt>
      <trkpt lat="46.54204" lon="5.53813">
        <ele>529.8</ele>
        <time>2022-03-07T10:50:57Z</time>
      </trkpt>
      <trkpt lat="46.54204" lon="5.53818">
        <ele>530</ele>
        <time>2022-03-07T10:50:58Z</time>
      </trkpt>
      <trkpt lat="46.54204" lon="5.53824">
        <ele>530</ele>
        <time>2022-03-07T10:50:59Z</time>
      </trkpt>
      <trkpt lat="46.54205" lon="5.5383">
        <ele>530.2</ele>
        <time>2022-03-07T10:51:00Z</time>
      </trkpt>
      <trkpt lat="46.54205" lon="5.53836">
        <ele>530.2</ele>
        <time>2022-03-07T10:51:01Z</time>
      </trkpt>
      <trkpt lat="46.54205" lon="5.53841">
        <ele>530.4</ele>
        <time>2022-03-07T10:51:02Z</time>
      </trkpt>
      <trkpt lat="46.54204" lon="5.53847">
        <ele>530.4</ele>
        <time>2022-03-07T10:51:03Z</time>
      </trkpt>
      <trkpt lat="46.54204" lon="5.53853">
        <ele>530.4</ele>
        <time>2022-03-07T10:51:04Z</time>
      </trkpt>
      <trkpt lat="46.54205" lon="5.53862">
        <ele>530.4</ele>
        <time>2022-03-07T10:51:05Z</time>
      </trkpt>
      <trkpt lat="46.54205" lon="5.53869">
        <ele>530.4</ele>
        <time>2022-03-07T10:51:06Z</time>
      </trkpt>
      <trkpt lat="46.54205" lon="5.53877">
        <ele>530.4</ele>
        <time>2022-03-07T10:51:07Z</time>
      </trkpt>
      <trkpt lat="46.54206" lon="5.53885">
        <ele>530.4</ele>
        <time>2022-03-07T10:51:08Z</time>
      </trkpt>
      <trkpt lat="46.54206" lon="5.53893">
        <ele>530.4</ele>
        <time>2022-03-07T10:51:09Z</time>
      </trkpt>
      <trkpt lat="46.54206" lon="5.539">
        <ele>530.4</ele>
        <time>2022-03-07T10:51:10Z</time>
      </trkpt>
      <trkpt lat="46.54205" lon="5.53907">
        <ele>530.4</ele>
        <time>2022-03-07T10:51:11Z</time>
      </trkpt>
      <trkpt lat="46.54205" lon="5.53915">
        <ele>530.4</ele>
        <time>2022-03-07T10:51:12Z</time>
      </trkpt>
      <trkpt lat="46.54204" lon="5.53922">
        <ele>530.4</ele>
        <time>2022-03-07T10:51:13Z</time>
      </trkpt>
      <trkpt lat="46.54204" lon="5.53928">
        <ele>530.8</ele>
        <time>2022-03-07T10:51:14Z</time>
      </trkpt>
      <trkpt lat="46.54205" lon="5.53934">
        <ele>530.8</ele>
        <time>2022-03-07T10:51:15Z</time>
      </trkpt>
      <trkpt lat="46.54206" lon="5.5394">
        <ele>530.8</ele>
        <time>2022-03-07T10:51:16Z</time>
      </trkpt>
      <trkpt lat="46.54207" lon="5.53945">
        <ele>530.8</ele>
        <time>2022-03-07T10:51:17Z</time>
      </trkpt>
      <trkpt lat="46.54209" lon="5.5395">
        <ele>530.8</ele>
        <time>2022-03-07T10:51:18Z</time>
      </trkpt>
      <trkpt lat="46.54211" lon="5.53955">
        <ele>530.4</ele>
        <time>2022-03-07T10:51:19Z</time>
      </trkpt>
      <trkpt lat="46.54213" lon="5.53961">
        <ele>530.4</ele>
        <time>2022-03-07T10:51:20Z</time>
      </trkpt>
      <trkpt lat="46.54216" lon="5.53965">
        <ele>530.2</ele>
        <time>2022-03-07T10:51:21Z</time>
      </trkpt>
      <trkpt lat="46.54218" lon="5.5397">
        <ele>530</ele>
        <time>2022-03-07T10:51:22Z</time>
      </trkpt>
      <trkpt lat="46.54221" lon="5.53975">
        <ele>530</ele>
        <time>2022-03-07T10:51:23Z</time>
      </trkpt>
      <trkpt lat="46.54225" lon="5.5398">
        <ele>529.6</ele>
        <time>2022-03-07T10:51:24Z</time>
      </trkpt>
      <trkpt lat="46.54228" lon="5.53985">
        <ele>529.6</ele>
        <time>2022-03-07T10:51:25Z</time>
      </trkpt>
      <trkpt lat="46.54232" lon="5.53991">
        <ele>529.2</ele>
        <time>2022-03-07T10:51:26Z</time>
      </trkpt>
      <trkpt lat="46.54236" lon="5.53998">
        <ele>528.8</ele>
        <time>2022-03-07T10:51:27Z</time>
      </trkpt>
      <trkpt lat="46.54239" lon="5.54006">
        <ele>528.6</ele>
        <time>2022-03-07T10:51:28Z</time>
      </trkpt>
      <trkpt lat="46.5424" lon="5.54015">
        <ele>528.2</ele>
        <time>2022-03-07T10:51:29Z</time>
      </trkpt>
      <trkpt lat="46.54242" lon="5.54025">
        <ele>528</ele>
        <time>2022-03-07T10:51:30Z</time>
      </trkpt>
      <trkpt lat="46.54243" lon="5.54036">
        <ele>527.4</ele>
        <time>2022-03-07T10:51:31Z</time>
      </trkpt>
      <trkpt lat="46.54243" lon="5.54047">
        <ele>527</ele>
        <time>2022-03-07T10:51:32Z</time>
      </trkpt>
      <trkpt lat="46.54243" lon="5.54058">
        <ele>526.6</ele>
        <time>2022-03-07T10:51:33Z</time>
      </trkpt>
      <trkpt lat="46.54243" lon="5.54069">
        <ele>526.4</ele>
        <time>2022-03-07T10:51:34Z</time>
      </trkpt>
      <trkpt lat="46.54243" lon="5.5408">
        <ele>526</ele>
        <time>2022-03-07T10:51:35Z</time>
      </trkpt>
      <trkpt lat="46.54244" lon="5.54091">
        <ele>525.6</ele>
        <time>2022-03-07T10:51:36Z</time>
      </trkpt>
      <trkpt lat="46.54245" lon="5.54102">
        <ele>525</ele>
        <time>2022-03-07T10:51:37Z</time>
      </trkpt>
      <trkpt lat="46.54246" lon="5.54113">
        <ele>524.6</ele>
        <time>2022-03-07T10:51:38Z</time>
      </trkpt>
      <trkpt lat="46.54247" lon="5.54124">
        <ele>524.2</ele>
        <time>2022-03-07T10:51:39Z</time>
      </trkpt>
      <trkpt lat="46.54249" lon="5.54135">
        <ele>523.8</ele>
        <time>2022-03-07T10:51:40Z</time>
      </trkpt>
      <trkpt lat="46.5425" lon="5.54146">
        <ele>523.8</ele>
        <time>2022-03-07T10:51:41Z</time>
      </trkpt>
      <trkpt lat="46.54252" lon="5.54157">
        <ele>523.6</ele>
        <time>2022-03-07T10:51:42Z</time>
      </trkpt>
      <trkpt lat="46.54253" lon="5.54167">
        <ele>523.2</ele>
        <time>2022-03-07T10:51:43Z</time>
      </trkpt>
      <trkpt lat="46.54256" lon="5.54178">
        <ele>523</ele>
        <time>2022-03-07T10:51:44Z</time>
      </trkpt>
      <trkpt lat="46.54259" lon="5.54187">
        <ele>523</ele>
        <time>2022-03-07T10:51:45Z</time>
      </trkpt>
      <trkpt lat="46.54263" lon="5.54196">
        <ele>522.6</ele>
        <time>2022-03-07T10:51:46Z</time>
      </trkpt>
      <trkpt lat="46.54269" lon="5.54203">
        <ele>522.4</ele>
        <time>2022-03-07T10:51:47Z</time>
      </trkpt>
      <trkpt lat="46.54275" lon="5.5421">
        <ele>522</ele>
        <time>2022-03-07T10:51:48Z</time>
      </trkpt>
      <trkpt lat="46.54282" lon="5.54216">
        <ele>522</ele>
        <time>2022-03-07T10:51:49Z</time>
      </trkpt>
      <trkpt lat="46.54288" lon="5.54222">
        <ele>521.8</ele>
        <time>2022-03-07T10:51:50Z</time>
      </trkpt>
      <trkpt lat="46.54295" lon="5.54227">
        <ele>521.8</ele>
        <time>2022-03-07T10:51:51Z</time>
      </trkpt>
      <trkpt lat="46.54301" lon="5.54231">
        <ele>521.4</ele>
        <time>2022-03-07T10:51:52Z</time>
      </trkpt>
      <trkpt lat="46.54308" lon="5.54234">
        <ele>521.4</ele>
        <time>2022-03-07T10:51:53Z</time>
      </trkpt>
      <trkpt lat="46.54315" lon="5.54236">
        <ele>521.2</ele>
        <time>2022-03-07T10:51:54Z</time>
      </trkpt>
      <trkpt lat="46.54321" lon="5.54237">
        <ele>521.2</ele>
        <time>2022-03-07T10:51:55Z</time>
      </trkpt>
      <trkpt lat="46.54326" lon="5.54237">
        <ele>521.2</ele>
        <time>2022-03-07T10:51:56Z</time>
      </trkpt>
      <trkpt lat="46.54332" lon="5.54237">
        <ele>521.2</ele>
        <time>2022-03-07T10:51:57Z</time>
      </trkpt>
      <trkpt lat="46.54337" lon="5.54237">
        <ele>521.2</ele>
        <time>2022-03-07T10:51:58Z</time>
      </trkpt>
      <trkpt lat="46.54342" lon="5.54238">
        <ele>521</ele>
        <time>2022-03-07T10:51:59Z</time>
      </trkpt>
      <trkpt lat="46.54348" lon="5.5424">
        <ele>521</ele>
        <time>2022-03-07T10:52:00Z</time>
      </trkpt>
      <trkpt lat="46.54353" lon="5.54244">
        <ele>521</ele>
        <time>2022-03-07T10:52:01Z</time>
      </trkpt>
      <trkpt lat="46.54358" lon="5.54249">
        <ele>521</ele>
        <time>2022-03-07T10:52:02Z</time>
      </trkpt>
      <trkpt lat="46.54363" lon="5.54254">
        <ele>520.8</ele>
        <time>2022-03-07T10:52:03Z</time>
      </trkpt>
      <trkpt lat="46.54369" lon="5.54259">
        <ele>520.8</ele>
        <time>2022-03-07T10:52:04Z</time>
      </trkpt>
      <trkpt lat="46.54373" lon="5.54264">
        <ele>520.8</ele>
        <time>2022-03-07T10:52:05Z</time>
      </trkpt>
      <trkpt lat="46.54378" lon="5.54269">
        <ele>520.8</ele>
        <time>2022-03-07T10:52:06Z</time>
      </trkpt>
      <trkpt lat="46.54383" lon="5.54274">
        <ele>520.8</ele>
        <time>2022-03-07T10:52:07Z</time>
      </trkpt>
      <trkpt lat="46.54388" lon="5.54279">
        <ele>520.8</ele>
        <time>2022-03-07T10:52:08Z</time>
      </trkpt>
      <trkpt lat="46.54392" lon="5.54285">
        <ele>520.8</ele>
        <time>2022-03-07T10:52:09Z</time>
      </trkpt>
      <trkpt lat="46.54397" lon="5.54289">
        <ele>520.6</ele>
        <time>2022-03-07T10:52:10Z</time>
      </trkpt>
      <trkpt lat="46.54406" lon="5.54298">
        <ele>520.6</ele>
        <time>2022-03-07T10:52:11Z</time>
      </trkpt>
      <trkpt lat="46.54411" lon="5.54302">
        <ele>520.6</ele>
        <time>2022-03-07T10:52:12Z</time>
      </trkpt>
      <trkpt lat="46.54416" lon="5.54306">
        <ele>520.2</ele>
        <time>2022-03-07T10:52:13Z</time>
      </trkpt>
      <trkpt lat="46.54421" lon="5.54309">
        <ele>520.2</ele>
        <time>2022-03-07T10:52:14Z</time>
      </trkpt>
      <trkpt lat="46.54426" lon="5.54312">
        <ele>520.2</ele>
        <time>2022-03-07T10:52:15Z</time>
      </trkpt>
      <trkpt lat="46.5443" lon="5.54315">
        <ele>520.2</ele>
        <time>2022-03-07T10:52:16Z</time>
      </trkpt>
      <trkpt lat="46.54434" lon="5.54316">
        <ele>520.2</ele>
        <time>2022-03-07T10:52:17Z</time>
      </trkpt>
      <trkpt lat="46.54439" lon="5.54319">
        <ele>520.6</ele>
        <time>2022-03-07T10:52:18Z</time>
      </trkpt>
      <trkpt lat="46.54442" lon="5.54321">
        <ele>520.6</ele>
        <time>2022-03-07T10:52:19Z</time>
      </trkpt>
      <trkpt lat="46.54446" lon="5.54323">
        <ele>521</ele>
        <time>2022-03-07T10:52:20Z</time>
      </trkpt>
      <trkpt lat="46.54449" lon="5.54326">
        <ele>521</ele>
        <time>2022-03-07T10:52:21Z</time>
      </trkpt>
      <trkpt lat="46.54451" lon="5.54328">
        <ele>521.2</ele>
        <time>2022-03-07T10:52:22Z</time>
      </trkpt>
      <trkpt lat="46.54454" lon="5.5433">
        <ele>521.2</ele>
        <time>2022-03-07T10:52:23Z</time>
      </trkpt>
      <trkpt lat="46.54457" lon="5.54332">
        <ele>521.6</ele>
        <time>2022-03-07T10:52:24Z</time>
      </trkpt>
      <trkpt lat="46.5446" lon="5.54334">
        <ele>521.8</ele>
        <time>2022-03-07T10:52:25Z</time>
      </trkpt>
      <trkpt lat="46.54462" lon="5.54336">
        <ele>522</ele>
        <time>2022-03-07T10:52:26Z</time>
      </trkpt>
      <trkpt lat="46.54465" lon="5.54337">
        <ele>522</ele>
        <time>2022-03-07T10:52:27Z</time>
      </trkpt>
      <trkpt lat="46.54468" lon="5.5434">
        <ele>522.4</ele>
        <time>2022-03-07T10:52:28Z</time>
      </trkpt>
      <trkpt lat="46.54471" lon="5.54342">
        <ele>522.4</ele>
        <time>2022-03-07T10:52:29Z</time>
      </trkpt>
      <trkpt lat="46.54474" lon="5.54344">
        <ele>522.6</ele>
        <time>2022-03-07T10:52:30Z</time>
      </trkpt>
      <trkpt lat="46.54477" lon="5.54345">
        <ele>522.6</ele>
        <time>2022-03-07T10:52:31Z</time>
      </trkpt>
      <trkpt lat="46.5448" lon="5.54347">
        <ele>522.8</ele>
        <time>2022-03-07T10:52:32Z</time>
      </trkpt>
      <trkpt lat="46.54483" lon="5.54348">
        <ele>522.8</ele>
        <time>2022-03-07T10:52:33Z</time>
      </trkpt>
      <trkpt lat="46.54486" lon="5.5435">
        <ele>522.8</ele>
        <time>2022-03-07T10:52:34Z</time>
      </trkpt>
      <trkpt lat="46.54489" lon="5.54351">
        <ele>522.8</ele>
        <time>2022-03-07T10:52:35Z</time>
      </trkpt>
      <trkpt lat="46.54492" lon="5.54352">
        <ele>523.2</ele>
        <time>2022-03-07T10:52:36Z</time>
      </trkpt>
      <trkpt lat="46.54495" lon="5.54354">
        <ele>523.2</ele>
        <time>2022-03-07T10:52:37Z</time>
      </trkpt>
      <trkpt lat="46.54498" lon="5.54354">
        <ele>523.2</ele>
        <time>2022-03-07T10:52:38Z</time>
      </trkpt>
      <trkpt lat="46.54501" lon="5.54355">
        <ele>523.4</ele>
        <time>2022-03-07T10:52:39Z</time>
      </trkpt>
      <trkpt lat="46.54504" lon="5.54356">
        <ele>523.4</ele>
        <time>2022-03-07T10:52:40Z</time>
      </trkpt>
      <trkpt lat="46.54507" lon="5.54356">
        <ele>523.4</ele>
        <time>2022-03-07T10:52:41Z</time>
      </trkpt>
      <trkpt lat="46.5451" lon="5.54356">
        <ele>523.4</ele>
        <time>2022-03-07T10:52:42Z</time>
      </trkpt>
      <trkpt lat="46.54512" lon="5.54357">
        <ele>523.4</ele>
        <time>2022-03-07T10:52:43Z</time>
      </trkpt>
      <trkpt lat="46.54515" lon="5.54358">
        <ele>523.8</ele>
        <time>2022-03-07T10:52:44Z</time>
      </trkpt>
      <trkpt lat="46.54519" lon="5.5436">
        <ele>523.8</ele>
        <time>2022-03-07T10:52:45Z</time>
      </trkpt>
      <trkpt lat="46.54523" lon="5.5436">
        <ele>523.8</ele>
        <time>2022-03-07T10:52:46Z</time>
      </trkpt>
      <trkpt lat="46.54527" lon="5.54361">
        <ele>523.8</ele>
        <time>2022-03-07T10:52:47Z</time>
      </trkpt>
      <trkpt lat="46.5453" lon="5.54361">
        <ele>523.8</ele>
        <time>2022-03-07T10:52:48Z</time>
      </trkpt>
      <trkpt lat="46.54534" lon="5.54362">
        <ele>523.8</ele>
        <time>2022-03-07T10:52:49Z</time>
      </trkpt>
      <trkpt lat="46.54538" lon="5.54362">
        <ele>523.8</ele>
        <time>2022-03-07T10:52:50Z</time>
      </trkpt>
      <trkpt lat="46.54543" lon="5.54362">
        <ele>523.8</ele>
        <time>2022-03-07T10:52:51Z</time>
      </trkpt>
      <trkpt lat="46.54547" lon="5.54362">
        <ele>523.8</ele>
        <time>2022-03-07T10:52:52Z</time>
      </trkpt>
      <trkpt lat="46.54551" lon="5.54362">
        <ele>523.8</ele>
        <time>2022-03-07T10:52:53Z</time>
      </trkpt>
      <trkpt lat="46.54555" lon="5.54362">
        <ele>523.8</ele>
        <time>2022-03-07T10:52:54Z</time>
      </trkpt>
      <trkpt lat="46.54559" lon="5.54363">
        <ele>523.8</ele>
        <time>2022-03-07T10:52:55Z</time>
      </trkpt>
      <trkpt lat="46.54563" lon="5.54364">
        <ele>523.8</ele>
        <time>2022-03-07T10:52:56Z</time>
      </trkpt>
      <trkpt lat="46.54568" lon="5.54366">
        <ele>524</ele>
        <time>2022-03-07T10:52:57Z</time>
      </trkpt>
      <trkpt lat="46.54572" lon="5.54368">
        <ele>524</ele>
        <time>2022-03-07T10:52:58Z</time>
      </trkpt>
      <trkpt lat="46.54578" lon="5.54373">
        <ele>524</ele>
        <time>2022-03-07T10:52:59Z</time>
      </trkpt>
      <trkpt lat="46.54583" lon="5.54378">
        <ele>524.4</ele>
        <time>2022-03-07T10:53:00Z</time>
      </trkpt>
      <trkpt lat="46.54587" lon="5.54381">
        <ele>524.4</ele>
        <time>2022-03-07T10:53:01Z</time>
      </trkpt>
      <trkpt lat="46.5459" lon="5.54385">
        <ele>524.6</ele>
        <time>2022-03-07T10:53:02Z</time>
      </trkpt>
      <trkpt lat="46.54593" lon="5.54388">
        <ele>524.6</ele>
        <time>2022-03-07T10:53:03Z</time>
      </trkpt>
      <trkpt lat="46.54597" lon="5.54392">
        <ele>524.8</ele>
        <time>2022-03-07T10:53:04Z</time>
      </trkpt>
      <trkpt lat="46.546" lon="5.54395">
        <ele>524.8</ele>
        <time>2022-03-07T10:53:05Z</time>
      </trkpt>
      <trkpt lat="46.54604" lon="5.54398">
        <ele>525.2</ele>
        <time>2022-03-07T10:53:06Z</time>
      </trkpt>
      <trkpt lat="46.54607" lon="5.54401">
        <ele>525.2</ele>
        <time>2022-03-07T10:53:07Z</time>
      </trkpt>
      <trkpt lat="46.54611" lon="5.54404">
        <ele>525.4</ele>
        <time>2022-03-07T10:53:08Z</time>
      </trkpt>
      <trkpt lat="46.54615" lon="5.54407">
        <ele>525.4</ele>
        <time>2022-03-07T10:53:09Z</time>
      </trkpt>
      <trkpt lat="46.54619" lon="5.54411">
        <ele>525.4</ele>
        <time>2022-03-07T10:53:10Z</time>
      </trkpt>
      <trkpt lat="46.54623" lon="5.54414">
        <ele>525.4</ele>
        <time>2022-03-07T10:53:11Z</time>
      </trkpt>
      <trkpt lat="46.54626" lon="5.54416">
        <ele>525.6</ele>
        <time>2022-03-07T10:53:12Z</time>
      </trkpt>
      <trkpt lat="46.5463" lon="5.54419">
        <ele>525.6</ele>
        <time>2022-03-07T10:53:13Z</time>
      </trkpt>
      <trkpt lat="46.54634" lon="5.54421">
        <ele>525.8</ele>
        <time>2022-03-07T10:53:14Z</time>
      </trkpt>
      <trkpt lat="46.54638" lon="5.54423">
        <ele>525.8</ele>
        <time>2022-03-07T10:53:15Z</time>
      </trkpt>
      <trkpt lat="46.54642" lon="5.54424">
        <ele>525.8</ele>
        <time>2022-03-07T10:53:16Z</time>
      </trkpt>
      <trkpt lat="46.54646" lon="5.54426">
        <ele>525.8</ele>
        <time>2022-03-07T10:53:17Z</time>
      </trkpt>
      <trkpt lat="46.54649" lon="5.54427">
        <ele>525.8</ele>
        <time>2022-03-07T10:53:18Z</time>
      </trkpt>
      <trkpt lat="46.54654" lon="5.54428">
        <ele>525.8</ele>
        <time>2022-03-07T10:53:19Z</time>
      </trkpt>
      <trkpt lat="46.54659" lon="5.54429">
        <ele>525.8</ele>
        <time>2022-03-07T10:53:20Z</time>
      </trkpt>
      <trkpt lat="46.54664" lon="5.5443">
        <ele>525.8</ele>
        <time>2022-03-07T10:53:21Z</time>
      </trkpt>
      <trkpt lat="46.54668" lon="5.5443">
        <ele>525.8</ele>
        <time>2022-03-07T10:53:22Z</time>
      </trkpt>
      <trkpt lat="46.54673" lon="5.54431">
        <ele>525.8</ele>
        <time>2022-03-07T10:53:23Z</time>
      </trkpt>
      <trkpt lat="46.54678" lon="5.54432">
        <ele>525.4</ele>
        <time>2022-03-07T10:53:24Z</time>
      </trkpt>
      <trkpt lat="46.54682" lon="5.54433">
        <ele>525.4</ele>
        <time>2022-03-07T10:53:25Z</time>
      </trkpt>
      <trkpt lat="46.54687" lon="5.54434">
        <ele>525.4</ele>
        <time>2022-03-07T10:53:26Z</time>
      </trkpt>
      <trkpt lat="46.54692" lon="5.54434">
        <ele>525.2</ele>
        <time>2022-03-07T10:53:27Z</time>
      </trkpt>
      <trkpt lat="46.54697" lon="5.54435">
        <ele>525.2</ele>
        <time>2022-03-07T10:53:28Z</time>
      </trkpt>
      <trkpt lat="46.54703" lon="5.54437">
        <ele>525.2</ele>
        <time>2022-03-07T10:53:29Z</time>
      </trkpt>
      <trkpt lat="46.54709" lon="5.5444">
        <ele>525</ele>
        <time>2022-03-07T10:53:30Z</time>
      </trkpt>
      <trkpt lat="46.54714" lon="5.54443">
        <ele>525</ele>
        <time>2022-03-07T10:53:31Z</time>
      </trkpt>
      <trkpt lat="46.54719" lon="5.54447">
        <ele>524.8</ele>
        <time>2022-03-07T10:53:32Z</time>
      </trkpt>
      <trkpt lat="46.54723" lon="5.5445">
        <ele>524.8</ele>
        <time>2022-03-07T10:53:33Z</time>
      </trkpt>
      <trkpt lat="46.54727" lon="5.54454">
        <ele>524.6</ele>
        <time>2022-03-07T10:53:34Z</time>
      </trkpt>
      <trkpt lat="46.54732" lon="5.54458">
        <ele>524.6</ele>
        <time>2022-03-07T10:53:35Z</time>
      </trkpt>
      <trkpt lat="46.54737" lon="5.54462">
        <ele>524.2</ele>
        <time>2022-03-07T10:53:36Z</time>
      </trkpt>
      <trkpt lat="46.54742" lon="5.54466">
        <ele>524</ele>
        <time>2022-03-07T10:53:37Z</time>
      </trkpt>
      <trkpt lat="46.54747" lon="5.5447">
        <ele>523.8</ele>
        <time>2022-03-07T10:53:38Z</time>
      </trkpt>
      <trkpt lat="46.54752" lon="5.54474">
        <ele>523.8</ele>
        <time>2022-03-07T10:53:39Z</time>
      </trkpt>
      <trkpt lat="46.54757" lon="5.54477">
        <ele>523.6</ele>
        <time>2022-03-07T10:53:40Z</time>
      </trkpt>
      <trkpt lat="46.54762" lon="5.5448">
        <ele>523.4</ele>
        <time>2022-03-07T10:53:41Z</time>
      </trkpt>
      <trkpt lat="46.54768" lon="5.54482">
        <ele>523</ele>
        <time>2022-03-07T10:53:42Z</time>
      </trkpt>
      <trkpt lat="46.54773" lon="5.54483">
        <ele>522.8</ele>
        <time>2022-03-07T10:53:43Z</time>
      </trkpt>
      <trkpt lat="46.54779" lon="5.54483">
        <ele>522.4</ele>
        <time>2022-03-07T10:53:44Z</time>
      </trkpt>
      <trkpt lat="46.54784" lon="5.54483">
        <ele>522.2</ele>
        <time>2022-03-07T10:53:45Z</time>
      </trkpt>
      <trkpt lat="46.5479" lon="5.54482">
        <ele>521.8</ele>
        <time>2022-03-07T10:53:46Z</time>
      </trkpt>
      <trkpt lat="46.54797" lon="5.54482">
        <ele>521.6</ele>
        <time>2022-03-07T10:53:47Z</time>
      </trkpt>
      <trkpt lat="46.54802" lon="5.54482">
        <ele>521.6</ele>
        <time>2022-03-07T10:53:48Z</time>
      </trkpt>
      <trkpt lat="46.54808" lon="5.54482">
        <ele>521.4</ele>
        <time>2022-03-07T10:53:49Z</time>
      </trkpt>
      <trkpt lat="46.54812" lon="5.54483">
        <ele>521.4</ele>
        <time>2022-03-07T10:53:50Z</time>
      </trkpt>
      <trkpt lat="46.54817" lon="5.54484">
        <ele>521.4</ele>
        <time>2022-03-07T10:53:51Z</time>
      </trkpt>
      <trkpt lat="46.54821" lon="5.54485">
        <ele>521.4</ele>
        <time>2022-03-07T10:53:52Z</time>
      </trkpt>
      <trkpt lat="46.54826" lon="5.54486">
        <ele>521.4</ele>
        <time>2022-03-07T10:53:53Z</time>
      </trkpt>
      <trkpt lat="46.54831" lon="5.54487">
        <ele>521.4</ele>
        <time>2022-03-07T10:53:54Z</time>
      </trkpt>
      <trkpt lat="46.54836" lon="5.54489">
        <ele>521.4</ele>
        <time>2022-03-07T10:53:55Z</time>
      </trkpt>
      <trkpt lat="46.5484" lon="5.5449">
        <ele>521.4</ele>
        <time>2022-03-07T10:53:56Z</time>
      </trkpt>
      <trkpt lat="46.54845" lon="5.54492">
        <ele>521.4</ele>
        <time>2022-03-07T10:53:57Z</time>
      </trkpt>
      <trkpt lat="46.54849" lon="5.54494">
        <ele>521.6</ele>
        <time>2022-03-07T10:53:58Z</time>
      </trkpt>
      <trkpt lat="46.54853" lon="5.54495">
        <ele>521.6</ele>
        <time>2022-03-07T10:53:59Z</time>
      </trkpt>
      <trkpt lat="46.54856" lon="5.54497">
        <ele>521.8</ele>
        <time>2022-03-07T10:54:00Z</time>
      </trkpt>
      <trkpt lat="46.54859" lon="5.54499">
        <ele>521.8</ele>
        <time>2022-03-07T10:54:01Z</time>
      </trkpt>
      <trkpt lat="46.54863" lon="5.54501">
        <ele>522.2</ele>
        <time>2022-03-07T10:54:02Z</time>
      </trkpt>
      <trkpt lat="46.54867" lon="5.54502">
        <ele>522.2</ele>
        <time>2022-03-07T10:54:03Z</time>
      </trkpt>
      <trkpt lat="46.5487" lon="5.54504">
        <ele>522.4</ele>
        <time>2022-03-07T10:54:04Z</time>
      </trkpt>
      <trkpt lat="46.54873" lon="5.54506">
        <ele>522.4</ele>
        <time>2022-03-07T10:54:05Z</time>
      </trkpt>
      <trkpt lat="46.54876" lon="5.54507">
        <ele>522.8</ele>
        <time>2022-03-07T10:54:06Z</time>
      </trkpt>
      <trkpt lat="46.54881" lon="5.54509">
        <ele>523</ele>
        <time>2022-03-07T10:54:07Z</time>
      </trkpt>
      <trkpt lat="46.54885" lon="5.54512">
        <ele>523</ele>
        <time>2022-03-07T10:54:08Z</time>
      </trkpt>
      <trkpt lat="46.5489" lon="5.54515">
        <ele>523</ele>
        <time>2022-03-07T10:54:09Z</time>
      </trkpt>
      <trkpt lat="46.54893" lon="5.54517">
        <ele>523.2</ele>
        <time>2022-03-07T10:54:10Z</time>
      </trkpt>
      <trkpt lat="46.54897" lon="5.5452">
        <ele>523.2</ele>
        <time>2022-03-07T10:54:11Z</time>
      </trkpt>
      <trkpt lat="46.54901" lon="5.54521">
        <ele>523.4</ele>
        <time>2022-03-07T10:54:12Z</time>
      </trkpt>
      <trkpt lat="46.54905" lon="5.54522">
        <ele>523.4</ele>
        <time>2022-03-07T10:54:13Z</time>
      </trkpt>
      <trkpt lat="46.54908" lon="5.54524">
        <ele>523.4</ele>
        <time>2022-03-07T10:54:14Z</time>
      </trkpt>
      <trkpt lat="46.54912" lon="5.54525">
        <ele>523.8</ele>
        <time>2022-03-07T10:54:15Z</time>
      </trkpt>
      <trkpt lat="46.54916" lon="5.54526">
        <ele>523.8</ele>
        <time>2022-03-07T10:54:16Z</time>
      </trkpt>
      <trkpt lat="46.5492" lon="5.54528">
        <ele>524</ele>
        <time>2022-03-07T10:54:17Z</time>
      </trkpt>
      <trkpt lat="46.54925" lon="5.5453">
        <ele>524</ele>
        <time>2022-03-07T10:54:18Z</time>
      </trkpt>
      <trkpt lat="46.5493" lon="5.54533">
        <ele>524.4</ele>
        <time>2022-03-07T10:54:19Z</time>
      </trkpt>
      <trkpt lat="46.54933" lon="5.54534">
        <ele>524.4</ele>
        <time>2022-03-07T10:54:20Z</time>
      </trkpt>
      <trkpt lat="46.54938" lon="5.54536">
        <ele>524.6</ele>
        <time>2022-03-07T10:54:21Z</time>
      </trkpt>
      <trkpt lat="46.54942" lon="5.54538">
        <ele>524.6</ele>
        <time>2022-03-07T10:54:22Z</time>
      </trkpt>
      <trkpt lat="46.54945" lon="5.54539">
        <ele>525</ele>
        <time>2022-03-07T10:54:23Z</time>
      </trkpt>
      <trkpt lat="46.54948" lon="5.54541">
        <ele>525</ele>
        <time>2022-03-07T10:54:24Z</time>
      </trkpt>
      <trkpt lat="46.54951" lon="5.54543">
        <ele>525.2</ele>
        <time>2022-03-07T10:54:25Z</time>
      </trkpt>
      <trkpt lat="46.54954" lon="5.54545">
        <ele>525.2</ele>
        <time>2022-03-07T10:54:26Z</time>
      </trkpt>
      <trkpt lat="46.54957" lon="5.54548">
        <ele>525.4</ele>
        <time>2022-03-07T10:54:27Z</time>
      </trkpt>
      <trkpt lat="46.54961" lon="5.54551">
        <ele>525.4</ele>
        <time>2022-03-07T10:54:28Z</time>
      </trkpt>
      <trkpt lat="46.54965" lon="5.54554">
        <ele>525.6</ele>
        <time>2022-03-07T10:54:29Z</time>
      </trkpt>
      <trkpt lat="46.54968" lon="5.54557">
        <ele>525.6</ele>
        <time>2022-03-07T10:54:30Z</time>
      </trkpt>
      <trkpt lat="46.54972" lon="5.54561">
        <ele>525.6</ele>
        <time>2022-03-07T10:54:31Z</time>
      </trkpt>
      <trkpt lat="46.54975" lon="5.54564">
        <ele>525.6</ele>
        <time>2022-03-07T10:54:32Z</time>
      </trkpt>
      <trkpt lat="46.54979" lon="5.54568">
        <ele>525.6</ele>
        <time>2022-03-07T10:54:33Z</time>
      </trkpt>
      <trkpt lat="46.54982" lon="5.54573">
        <ele>525.6</ele>
        <time>2022-03-07T10:54:34Z</time>
      </trkpt>
      <trkpt lat="46.54985" lon="5.54578">
        <ele>525.6</ele>
        <time>2022-03-07T10:54:35Z</time>
      </trkpt>
      <trkpt lat="46.54987" lon="5.54583">
        <ele>525.6</ele>
        <time>2022-03-07T10:54:36Z</time>
      </trkpt>
      <trkpt lat="46.5499" lon="5.54588">
        <ele>525.6</ele>
        <time>2022-03-07T10:54:37Z</time>
      </trkpt>
      <trkpt lat="46.54994" lon="5.54593">
        <ele>525.6</ele>
        <time>2022-03-07T10:54:38Z</time>
      </trkpt>
      <trkpt lat="46.54998" lon="5.54599">
        <ele>525.4</ele>
        <time>2022-03-07T10:54:39Z</time>
      </trkpt>
      <trkpt lat="46.55002" lon="5.54606">
        <ele>525.4</ele>
        <time>2022-03-07T10:54:40Z</time>
      </trkpt>
      <trkpt lat="46.55006" lon="5.54613">
        <ele>525.2</ele>
        <time>2022-03-07T10:54:41Z</time>
      </trkpt>
      <trkpt lat="46.55011" lon="5.54619">
        <ele>525.2</ele>
        <time>2022-03-07T10:54:42Z</time>
      </trkpt>
      <trkpt lat="46.55015" lon="5.54625">
        <ele>524.8</ele>
        <time>2022-03-07T10:54:43Z</time>
      </trkpt>
      <trkpt lat="46.5502" lon="5.54631">
        <ele>524.8</ele>
        <time>2022-03-07T10:54:44Z</time>
      </trkpt>
      <trkpt lat="46.55025" lon="5.54636">
        <ele>524.4</ele>
        <time>2022-03-07T10:54:45Z</time>
      </trkpt>
      <trkpt lat="46.55031" lon="5.5464">
        <ele>524.4</ele>
        <time>2022-03-07T10:54:46Z</time>
      </trkpt>
      <trkpt lat="46.55036" lon="5.54643">
        <ele>524.2</ele>
        <time>2022-03-07T10:54:47Z</time>
      </trkpt>
      <trkpt lat="46.55042" lon="5.54645">
        <ele>524.2</ele>
        <time>2022-03-07T10:54:48Z</time>
      </trkpt>
      <trkpt lat="46.55047" lon="5.54647">
        <ele>523.8</ele>
        <time>2022-03-07T10:54:49Z</time>
      </trkpt>
      <trkpt lat="46.55052" lon="5.54648">
        <ele>523.8</ele>
        <time>2022-03-07T10:54:50Z</time>
      </trkpt>
      <trkpt lat="46.55057" lon="5.54649">
        <ele>523.8</ele>
        <time>2022-03-07T10:54:51Z</time>
      </trkpt>
      <trkpt lat="46.55062" lon="5.5465">
        <ele>523.8</ele>
        <time>2022-03-07T10:54:52Z</time>
      </trkpt>
      <trkpt lat="46.55066" lon="5.54652">
        <ele>523.8</ele>
        <time>2022-03-07T10:54:53Z</time>
      </trkpt>
      <trkpt lat="46.5507" lon="5.54654">
        <ele>523.8</ele>
        <time>2022-03-07T10:54:54Z</time>
      </trkpt>
      <trkpt lat="46.55073" lon="5.54655">
        <ele>523.8</ele>
        <time>2022-03-07T10:54:55Z</time>
      </trkpt>
      <trkpt lat="46.55077" lon="5.54656">
        <ele>523.8</ele>
        <time>2022-03-07T10:54:56Z</time>
      </trkpt>
      <trkpt lat="46.5508" lon="5.54656">
        <ele>524.2</ele>
        <time>2022-03-07T10:54:57Z</time>
      </trkpt>
      <trkpt lat="46.55084" lon="5.54658">
        <ele>524.2</ele>
        <time>2022-03-07T10:54:58Z</time>
      </trkpt>
      <trkpt lat="46.55087" lon="5.5466">
        <ele>524.6</ele>
        <time>2022-03-07T10:54:59Z</time>
      </trkpt>
      <trkpt lat="46.5509" lon="5.54663">
        <ele>524.8</ele>
        <time>2022-03-07T10:55:00Z</time>
      </trkpt>
      <trkpt lat="46.55093" lon="5.54666">
        <ele>525.2</ele>
        <time>2022-03-07T10:55:01Z</time>
      </trkpt>
      <trkpt lat="46.55096" lon="5.54669">
        <ele>525.4</ele>
        <time>2022-03-07T10:55:02Z</time>
      </trkpt>
      <trkpt lat="46.55099" lon="5.54672">
        <ele>525.6</ele>
        <time>2022-03-07T10:55:03Z</time>
      </trkpt>
      <trkpt lat="46.55102" lon="5.54675">
        <ele>525.6</ele>
        <time>2022-03-07T10:55:04Z</time>
      </trkpt>
      <trkpt lat="46.55105" lon="5.54678">
        <ele>525.8</ele>
        <time>2022-03-07T10:55:05Z</time>
      </trkpt>
      <trkpt lat="46.55108" lon="5.5468">
        <ele>525.8</ele>
        <time>2022-03-07T10:55:06Z</time>
      </trkpt>
      <trkpt lat="46.55111" lon="5.54682">
        <ele>525.8</ele>
        <time>2022-03-07T10:55:07Z</time>
      </trkpt>
      <trkpt lat="46.55114" lon="5.54685">
        <ele>525.8</ele>
        <time>2022-03-07T10:55:08Z</time>
      </trkpt>
      <trkpt lat="46.55117" lon="5.54688">
        <ele>526.2</ele>
        <time>2022-03-07T10:55:09Z</time>
      </trkpt>
      <trkpt lat="46.55119" lon="5.54691">
        <ele>526.2</ele>
        <time>2022-03-07T10:55:10Z</time>
      </trkpt>
      <trkpt lat="46.55121" lon="5.54694">
        <ele>526.6</ele>
        <time>2022-03-07T10:55:11Z</time>
      </trkpt>
      <trkpt lat="46.55124" lon="5.54697">
        <ele>526.6</ele>
        <time>2022-03-07T10:55:12Z</time>
      </trkpt>
      <trkpt lat="46.55126" lon="5.547">
        <ele>527</ele>
        <time>2022-03-07T10:55:13Z</time>
      </trkpt>
      <trkpt lat="46.55128" lon="5.54704">
        <ele>527.2</ele>
        <time>2022-03-07T10:55:14Z</time>
      </trkpt>
      <trkpt lat="46.55131" lon="5.54707">
        <ele>527.2</ele>
        <time>2022-03-07T10:55:15Z</time>
      </trkpt>
      <trkpt lat="46.55134" lon="5.5471">
        <ele>527.4</ele>
        <time>2022-03-07T10:55:16Z</time>
      </trkpt>
      <trkpt lat="46.55136" lon="5.54714">
        <ele>527.4</ele>
        <time>2022-03-07T10:55:17Z</time>
      </trkpt>
      <trkpt lat="46.55139" lon="5.54718">
        <ele>527.6</ele>
        <time>2022-03-07T10:55:18Z</time>
      </trkpt>
      <trkpt lat="46.55142" lon="5.54723">
        <ele>527.6</ele>
        <time>2022-03-07T10:55:19Z</time>
      </trkpt>
      <trkpt lat="46.55144" lon="5.54728">
        <ele>527.6</ele>
        <time>2022-03-07T10:55:20Z</time>
      </trkpt>
      <trkpt lat="46.55147" lon="5.54733">
        <ele>527.6</ele>
        <time>2022-03-07T10:55:21Z</time>
      </trkpt>
      <trkpt lat="46.5515" lon="5.5474">
        <ele>527.4</ele>
        <time>2022-03-07T10:55:22Z</time>
      </trkpt>
      <trkpt lat="46.55153" lon="5.54746">
        <ele>527.4</ele>
        <time>2022-03-07T10:55:23Z</time>
      </trkpt>
      <trkpt lat="46.55156" lon="5.54753">
        <ele>527</ele>
        <time>2022-03-07T10:55:24Z</time>
      </trkpt>
      <trkpt lat="46.5516" lon="5.5476">
        <ele>527</ele>
        <time>2022-03-07T10:55:25Z</time>
      </trkpt>
      <trkpt lat="46.55163" lon="5.54767">
        <ele>526.6</ele>
        <time>2022-03-07T10:55:26Z</time>
      </trkpt>
      <trkpt lat="46.55167" lon="5.54773">
        <ele>526.6</ele>
        <time>2022-03-07T10:55:27Z</time>
      </trkpt>
      <trkpt lat="46.55172" lon="5.54779">
        <ele>526.4</ele>
        <time>2022-03-07T10:55:28Z</time>
      </trkpt>
      <trkpt lat="46.55177" lon="5.54784">
        <ele>526.4</ele>
        <time>2022-03-07T10:55:29Z</time>
      </trkpt>
      <trkpt lat="46.55182" lon="5.54788">
        <ele>526.4</ele>
        <time>2022-03-07T10:55:30Z</time>
      </trkpt>
      <trkpt lat="46.55187" lon="5.54792">
        <ele>526</ele>
        <time>2022-03-07T10:55:31Z</time>
      </trkpt>
      <trkpt lat="46.55193" lon="5.54794">
        <ele>526</ele>
        <time>2022-03-07T10:55:32Z</time>
      </trkpt>
      <trkpt lat="46.55197" lon="5.54797">
        <ele>526</ele>
        <time>2022-03-07T10:55:33Z</time>
      </trkpt>
      <trkpt lat="46.55202" lon="5.548">
        <ele>526</ele>
        <time>2022-03-07T10:55:34Z</time>
      </trkpt>
      <trkpt lat="46.55207" lon="5.54803">
        <ele>526</ele>
        <time>2022-03-07T10:55:35Z</time>
      </trkpt>
      <trkpt lat="46.55211" lon="5.54805">
        <ele>526</ele>
        <time>2022-03-07T10:55:36Z</time>
      </trkpt>
      <trkpt lat="46.55215" lon="5.54808">
        <ele>526</ele>
        <time>2022-03-07T10:55:37Z</time>
      </trkpt>
      <trkpt lat="46.5522" lon="5.54812">
        <ele>526.2</ele>
        <time>2022-03-07T10:55:38Z</time>
      </trkpt>
      <trkpt lat="46.55224" lon="5.54815">
        <ele>526.2</ele>
        <time>2022-03-07T10:55:39Z</time>
      </trkpt>
      <trkpt lat="46.55228" lon="5.54819">
        <ele>526.2</ele>
        <time>2022-03-07T10:55:40Z</time>
      </trkpt>
      <trkpt lat="46.55232" lon="5.54824">
        <ele>526.2</ele>
        <time>2022-03-07T10:55:41Z</time>
      </trkpt>
      <trkpt lat="46.55236" lon="5.5483">
        <ele>526.2</ele>
        <time>2022-03-07T10:55:42Z</time>
      </trkpt>
      <trkpt lat="46.5524" lon="5.54836">
        <ele>526</ele>
        <time>2022-03-07T10:55:43Z</time>
      </trkpt>
      <trkpt lat="46.55244" lon="5.54843">
        <ele>525.8</ele>
        <time>2022-03-07T10:55:44Z</time>
      </trkpt>
      <trkpt lat="46.55248" lon="5.54851">
        <ele>525.8</ele>
        <time>2022-03-07T10:55:45Z</time>
      </trkpt>
      <trkpt lat="46.55251" lon="5.54858">
        <ele>525.4</ele>
        <time>2022-03-07T10:55:46Z</time>
      </trkpt>
      <trkpt lat="46.55255" lon="5.54866">
        <ele>525.4</ele>
        <time>2022-03-07T10:55:47Z</time>
      </trkpt>
      <trkpt lat="46.55259" lon="5.54872">
        <ele>525.2</ele>
        <time>2022-03-07T10:55:48Z</time>
      </trkpt>
      <trkpt lat="46.55264" lon="5.54877">
        <ele>525.2</ele>
        <time>2022-03-07T10:55:49Z</time>
      </trkpt>
      <trkpt lat="46.5527" lon="5.54881">
        <ele>525.2</ele>
        <time>2022-03-07T10:55:50Z</time>
      </trkpt>
      <trkpt lat="46.55276" lon="5.54884">
        <ele>525.2</ele>
        <time>2022-03-07T10:55:51Z</time>
      </trkpt>
      <trkpt lat="46.55282" lon="5.54887">
        <ele>525.2</ele>
        <time>2022-03-07T10:55:52Z</time>
      </trkpt>
      <trkpt lat="46.55288" lon="5.5489">
        <ele>524.8</ele>
        <time>2022-03-07T10:55:53Z</time>
      </trkpt>
      <trkpt lat="46.55293" lon="5.54892">
        <ele>524.8</ele>
        <time>2022-03-07T10:55:54Z</time>
      </trkpt>
      <trkpt lat="46.55299" lon="5.54894">
        <ele>524.8</ele>
        <time>2022-03-07T10:55:55Z</time>
      </trkpt>
      <trkpt lat="46.55305" lon="5.54896">
        <ele>524.8</ele>
        <time>2022-03-07T10:55:56Z</time>
      </trkpt>
      <trkpt lat="46.55311" lon="5.54898">
        <ele>524.6</ele>
        <time>2022-03-07T10:55:57Z</time>
      </trkpt>
      <trkpt lat="46.55317" lon="5.549">
        <ele>524.6</ele>
        <time>2022-03-07T10:55:58Z</time>
      </trkpt>
      <trkpt lat="46.55324" lon="5.54902">
        <ele>524.4</ele>
        <time>2022-03-07T10:55:59Z</time>
      </trkpt>
      <trkpt lat="46.5533" lon="5.54905">
        <ele>524.4</ele>
        <time>2022-03-07T10:56:00Z</time>
      </trkpt>
      <trkpt lat="46.55336" lon="5.54909">
        <ele>524</ele>
        <time>2022-03-07T10:56:01Z</time>
      </trkpt>
      <trkpt lat="46.55341" lon="5.54913">
        <ele>524</ele>
        <time>2022-03-07T10:56:02Z</time>
      </trkpt>
      <trkpt lat="46.55347" lon="5.54917">
        <ele>523.6</ele>
        <time>2022-03-07T10:56:03Z</time>
      </trkpt>
      <trkpt lat="46.55353" lon="5.54921">
        <ele>523.6</ele>
        <time>2022-03-07T10:56:04Z</time>
      </trkpt>
      <trkpt lat="46.55359" lon="5.54925">
        <ele>523.4</ele>
        <time>2022-03-07T10:56:05Z</time>
      </trkpt>
      <trkpt lat="46.55365" lon="5.5493">
        <ele>523.4</ele>
        <time>2022-03-07T10:56:06Z</time>
      </trkpt>
      <trkpt lat="46.5537" lon="5.54935">
        <ele>523.4</ele>
        <time>2022-03-07T10:56:07Z</time>
      </trkpt>
      <trkpt lat="46.55376" lon="5.54939">
        <ele>523.2</ele>
        <time>2022-03-07T10:56:08Z</time>
      </trkpt>
      <trkpt lat="46.55382" lon="5.54943">
        <ele>523.2</ele>
        <time>2022-03-07T10:56:09Z</time>
      </trkpt>
      <trkpt lat="46.55387" lon="5.54947">
        <ele>523.2</ele>
        <time>2022-03-07T10:56:10Z</time>
      </trkpt>
      <trkpt lat="46.55392" lon="5.54952">
        <ele>523.2</ele>
        <time>2022-03-07T10:56:11Z</time>
      </trkpt>
      <trkpt lat="46.55397" lon="5.54956">
        <ele>523.2</ele>
        <time>2022-03-07T10:56:12Z</time>
      </trkpt>
      <trkpt lat="46.55402" lon="5.5496">
        <ele>522.8</ele>
        <time>2022-03-07T10:56:13Z</time>
      </trkpt>
      <trkpt lat="46.55407" lon="5.54963">
        <ele>522.8</ele>
        <time>2022-03-07T10:56:14Z</time>
      </trkpt>
      <trkpt lat="46.55412" lon="5.54967">
        <ele>522.8</ele>
        <time>2022-03-07T10:56:15Z</time>
      </trkpt>
      <trkpt lat="46.55417" lon="5.54971">
        <ele>522.8</ele>
        <time>2022-03-07T10:56:16Z</time>
      </trkpt>
      <trkpt lat="46.55421" lon="5.54975">
        <ele>522.8</ele>
        <time>2022-03-07T10:56:17Z</time>
      </trkpt>
      <trkpt lat="46.55426" lon="5.54979">
        <ele>522.6</ele>
        <time>2022-03-07T10:56:18Z</time>
      </trkpt>
      <trkpt lat="46.55431" lon="5.54982">
        <ele>522.6</ele>
        <time>2022-03-07T10:56:19Z</time>
      </trkpt>
      <trkpt lat="46.55436" lon="5.54986">
        <ele>522.6</ele>
        <time>2022-03-07T10:56:20Z</time>
      </trkpt>
      <trkpt lat="46.55441" lon="5.5499">
        <ele>522.4</ele>
        <time>2022-03-07T10:56:21Z</time>
      </trkpt>
      <trkpt lat="46.55446" lon="5.54993">
        <ele>522.4</ele>
        <time>2022-03-07T10:56:22Z</time>
      </trkpt>
      <trkpt lat="46.55452" lon="5.54997">
        <ele>522.2</ele>
        <time>2022-03-07T10:56:23Z</time>
      </trkpt>
      <trkpt lat="46.55457" lon="5.55">
        <ele>522</ele>
        <time>2022-03-07T10:56:24Z</time>
      </trkpt>
      <trkpt lat="46.55462" lon="5.55004">
        <ele>522</ele>
        <time>2022-03-07T10:56:25Z</time>
      </trkpt>
      <trkpt lat="46.55468" lon="5.55008">
        <ele>521.6</ele>
        <time>2022-03-07T10:56:26Z</time>
      </trkpt>
      <trkpt lat="46.55473" lon="5.55012">
        <ele>521.6</ele>
        <time>2022-03-07T10:56:27Z</time>
      </trkpt>
      <trkpt lat="46.55479" lon="5.55016">
        <ele>521.6</ele>
        <time>2022-03-07T10:56:28Z</time>
      </trkpt>
      <trkpt lat="46.55484" lon="5.5502">
        <ele>521.4</ele>
        <time>2022-03-07T10:56:29Z</time>
      </trkpt>
      <trkpt lat="46.5549" lon="5.55024">
        <ele>521.2</ele>
        <time>2022-03-07T10:56:30Z</time>
      </trkpt>
      <trkpt lat="46.55495" lon="5.55027">
        <ele>521.2</ele>
        <time>2022-03-07T10:56:31Z</time>
      </trkpt>
      <trkpt lat="46.555" lon="5.55031">
        <ele>520.8</ele>
        <time>2022-03-07T10:56:32Z</time>
      </trkpt>
      <trkpt lat="46.55505" lon="5.55035">
        <ele>520.6</ele>
        <time>2022-03-07T10:56:33Z</time>
      </trkpt>
      <trkpt lat="46.55511" lon="5.55039">
        <ele>520.6</ele>
        <time>2022-03-07T10:56:34Z</time>
      </trkpt>
      <trkpt lat="46.55516" lon="5.55043">
        <ele>520.2</ele>
        <time>2022-03-07T10:56:35Z</time>
      </trkpt>
      <trkpt lat="46.55521" lon="5.55046">
        <ele>520.2</ele>
        <time>2022-03-07T10:56:36Z</time>
      </trkpt>
      <trkpt lat="46.55526" lon="5.5505">
        <ele>520</ele>
        <time>2022-03-07T10:56:37Z</time>
      </trkpt>
      <trkpt lat="46.5553" lon="5.55053">
        <ele>520</ele>
        <time>2022-03-07T10:56:38Z</time>
      </trkpt>
      <trkpt lat="46.55535" lon="5.55056">
        <ele>519.6</ele>
        <time>2022-03-07T10:56:39Z</time>
      </trkpt>
      <trkpt lat="46.55539" lon="5.5506">
        <ele>519.6</ele>
        <time>2022-03-07T10:56:40Z</time>
      </trkpt>
      <trkpt lat="46.55543" lon="5.55063">
        <ele>519.4</ele>
        <time>2022-03-07T10:56:41Z</time>
      </trkpt>
      <trkpt lat="46.55548" lon="5.55066">
        <ele>519.4</ele>
        <time>2022-03-07T10:56:42Z</time>
      </trkpt>
      <trkpt lat="46.55552" lon="5.55069">
        <ele>519.4</ele>
        <time>2022-03-07T10:56:43Z</time>
      </trkpt>
      <trkpt lat="46.55557" lon="5.55072">
        <ele>519.4</ele>
        <time>2022-03-07T10:56:44Z</time>
      </trkpt>
      <trkpt lat="46.55561" lon="5.55075">
        <ele>519.2</ele>
        <time>2022-03-07T10:56:45Z</time>
      </trkpt>
      <trkpt lat="46.55565" lon="5.55079">
        <ele>519.2</ele>
        <time>2022-03-07T10:56:46Z</time>
      </trkpt>
      <trkpt lat="46.55569" lon="5.55081">
        <ele>519.2</ele>
        <time>2022-03-07T10:56:47Z</time>
      </trkpt>
      <trkpt lat="46.55573" lon="5.55084">
        <ele>519</ele>
        <time>2022-03-07T10:56:48Z</time>
      </trkpt>
      <trkpt lat="46.55577" lon="5.55087">
        <ele>519</ele>
        <time>2022-03-07T10:56:49Z</time>
      </trkpt>
      <trkpt lat="46.55581" lon="5.5509">
        <ele>518.8</ele>
        <time>2022-03-07T10:56:50Z</time>
      </trkpt>
      <trkpt lat="46.55585" lon="5.55093">
        <ele>518.8</ele>
        <time>2022-03-07T10:56:51Z</time>
      </trkpt>
      <trkpt lat="46.5559" lon="5.55096">
        <ele>518.8</ele>
        <time>2022-03-07T10:56:52Z</time>
      </trkpt>
      <trkpt lat="46.5559" lon="5.55096">
        <ele>518.4</ele>
        <time>2022-03-07T10:56:53Z</time>
      </trkpt>
      <trkpt lat="46.55594" lon="5.55099">
        <ele>518.4</ele>
        <time>2022-03-07T10:56:54Z</time>
      </trkpt>
      <trkpt lat="46.55599" lon="5.55102">
        <ele>518.4</ele>
        <time>2022-03-07T10:56:55Z</time>
      </trkpt>
      <trkpt lat="46.55603" lon="5.55105">
        <ele>518.6</ele>
        <time>2022-03-07T10:56:56Z</time>
      </trkpt>
      <trkpt lat="46.55607" lon="5.55108">
        <ele>518.6</ele>
        <time>2022-03-07T10:56:57Z</time>
      </trkpt>
      <trkpt lat="46.55611" lon="5.55111">
        <ele>518.6</ele>
        <time>2022-03-07T10:56:58Z</time>
      </trkpt>
      <trkpt lat="46.55615" lon="5.55114">
        <ele>518.6</ele>
        <time>2022-03-07T10:56:59Z</time>
      </trkpt>
      <trkpt lat="46.55619" lon="5.55117">
        <ele>518.6</ele>
        <time>2022-03-07T10:57:00Z</time>
      </trkpt>
      <trkpt lat="46.55623" lon="5.55121">
        <ele>518.6</ele>
        <time>2022-03-07T10:57:01Z</time>
      </trkpt>
      <trkpt lat="46.55628" lon="5.55125">
        <ele>518.6</ele>
        <time>2022-03-07T10:57:02Z</time>
      </trkpt>
      <trkpt lat="46.55632" lon="5.55129">
        <ele>518.6</ele>
        <time>2022-03-07T10:57:03Z</time>
      </trkpt>
      <trkpt lat="46.55637" lon="5.55133">
        <ele>518.6</ele>
        <time>2022-03-07T10:57:04Z</time>
      </trkpt>
      <trkpt lat="46.55641" lon="5.55137">
        <ele>518.6</ele>
        <time>2022-03-07T10:57:05Z</time>
      </trkpt>
      <trkpt lat="46.55645" lon="5.55142">
        <ele>518.4</ele>
        <time>2022-03-07T10:57:06Z</time>
      </trkpt>
      <trkpt lat="46.55649" lon="5.55147">
        <ele>518.4</ele>
        <time>2022-03-07T10:57:07Z</time>
      </trkpt>
      <trkpt lat="46.55653" lon="5.55153">
        <ele>518.4</ele>
        <time>2022-03-07T10:57:08Z</time>
      </trkpt>
      <trkpt lat="46.55656" lon="5.5516">
        <ele>518</ele>
        <time>2022-03-07T10:57:09Z</time>
      </trkpt>
      <trkpt lat="46.5566" lon="5.55167">
        <ele>518</ele>
        <time>2022-03-07T10:57:10Z</time>
      </trkpt>
      <trkpt lat="46.55663" lon="5.55175">
        <ele>517.8</ele>
        <time>2022-03-07T10:57:11Z</time>
      </trkpt>
      <trkpt lat="46.55666" lon="5.55183">
        <ele>517.4</ele>
        <time>2022-03-07T10:57:12Z</time>
      </trkpt>
      <trkpt lat="46.55669" lon="5.55192">
        <ele>517.2</ele>
        <time>2022-03-07T10:57:13Z</time>
      </trkpt>
      <trkpt lat="46.55672" lon="5.552">
        <ele>517</ele>
        <time>2022-03-07T10:57:14Z</time>
      </trkpt>
      <trkpt lat="46.55675" lon="5.55209">
        <ele>517</ele>
        <time>2022-03-07T10:57:15Z</time>
      </trkpt>
      <trkpt lat="46.55678" lon="5.55218">
        <ele>516.8</ele>
        <time>2022-03-07T10:57:16Z</time>
      </trkpt>
      <trkpt lat="46.55681" lon="5.55226">
        <ele>516.8</ele>
        <time>2022-03-07T10:57:17Z</time>
      </trkpt>
      <trkpt lat="46.55684" lon="5.55234">
        <ele>516.6</ele>
        <time>2022-03-07T10:57:18Z</time>
      </trkpt>
      <trkpt lat="46.55687" lon="5.55242">
        <ele>516.6</ele>
        <time>2022-03-07T10:57:19Z</time>
      </trkpt>
      <trkpt lat="46.55689" lon="5.55249">
        <ele>516.2</ele>
        <time>2022-03-07T10:57:20Z</time>
      </trkpt>
      <trkpt lat="46.55692" lon="5.55256">
        <ele>516.2</ele>
        <time>2022-03-07T10:57:21Z</time>
      </trkpt>
      <trkpt lat="46.55694" lon="5.55264">
        <ele>515.8</ele>
        <time>2022-03-07T10:57:22Z</time>
      </trkpt>
      <trkpt lat="46.55697" lon="5.55271">
        <ele>515.8</ele>
        <time>2022-03-07T10:57:23Z</time>
      </trkpt>
      <trkpt lat="46.557" lon="5.55278">
        <ele>515.6</ele>
        <time>2022-03-07T10:57:24Z</time>
      </trkpt>
      <trkpt lat="46.55702" lon="5.55285">
        <ele>515.6</ele>
        <time>2022-03-07T10:57:25Z</time>
      </trkpt>
      <trkpt lat="46.55705" lon="5.55292">
        <ele>515.6</ele>
        <time>2022-03-07T10:57:26Z</time>
      </trkpt>
      <trkpt lat="46.55707" lon="5.55299">
        <ele>515.2</ele>
        <time>2022-03-07T10:57:27Z</time>
      </trkpt>
      <trkpt lat="46.55709" lon="5.55306">
        <ele>515.2</ele>
        <time>2022-03-07T10:57:28Z</time>
      </trkpt>
      <trkpt lat="46.55711" lon="5.55313">
        <ele>515.2</ele>
        <time>2022-03-07T10:57:29Z</time>
      </trkpt>
      <trkpt lat="46.55712" lon="5.5532">
        <ele>515</ele>
        <time>2022-03-07T10:57:30Z</time>
      </trkpt>
      <trkpt lat="46.55713" lon="5.55327">
        <ele>515</ele>
        <time>2022-03-07T10:57:31Z</time>
      </trkpt>
      <trkpt lat="46.55713" lon="5.55334">
        <ele>514.8</ele>
        <time>2022-03-07T10:57:32Z</time>
      </trkpt>
      <trkpt lat="46.55713" lon="5.55341">
        <ele>514.8</ele>
        <time>2022-03-07T10:57:33Z</time>
      </trkpt>
      <trkpt lat="46.55712" lon="5.55348">
        <ele>514.8</ele>
        <time>2022-03-07T10:57:34Z</time>
      </trkpt>
      <trkpt lat="46.5571" lon="5.55355">
        <ele>514.8</ele>
        <time>2022-03-07T10:57:35Z</time>
      </trkpt>
      <trkpt lat="46.5571" lon="5.55362">
        <ele>514.8</ele>
        <time>2022-03-07T10:57:36Z</time>
      </trkpt>
      <trkpt lat="46.5571" lon="5.55369">
        <ele>514.8</ele>
        <time>2022-03-07T10:57:37Z</time>
      </trkpt>
      <trkpt lat="46.5571" lon="5.55376">
        <ele>514.6</ele>
        <time>2022-03-07T10:57:38Z</time>
      </trkpt>
      <trkpt lat="46.55712" lon="5.55383">
        <ele>514.6</ele>
        <time>2022-03-07T10:57:39Z</time>
      </trkpt>
      <trkpt lat="46.55714" lon="5.55389">
        <ele>514.2</ele>
        <time>2022-03-07T10:57:40Z</time>
      </trkpt>
      <trkpt lat="46.55717" lon="5.55395">
        <ele>514</ele>
        <time>2022-03-07T10:57:41Z</time>
      </trkpt>
      <trkpt lat="46.55721" lon="5.55399">
        <ele>513.8</ele>
        <time>2022-03-07T10:57:42Z</time>
      </trkpt>
      <trkpt lat="46.55727" lon="5.55403">
        <ele>513.6</ele>
        <time>2022-03-07T10:57:43Z</time>
      </trkpt>
      <trkpt lat="46.55732" lon="5.55405">
        <ele>513.2</ele>
        <time>2022-03-07T10:57:44Z</time>
      </trkpt>
      <trkpt lat="46.55738" lon="5.55407">
        <ele>512.8</ele>
        <time>2022-03-07T10:57:45Z</time>
      </trkpt>
      <trkpt lat="46.55744" lon="5.55408">
        <ele>512.6</ele>
        <time>2022-03-07T10:57:46Z</time>
      </trkpt>
      <trkpt lat="46.5575" lon="5.5541">
        <ele>512.2</ele>
        <time>2022-03-07T10:57:47Z</time>
      </trkpt>
      <trkpt lat="46.55757" lon="5.55412">
        <ele>511.8</ele>
        <time>2022-03-07T10:57:48Z</time>
      </trkpt>
      <trkpt lat="46.55764" lon="5.55413">
        <ele>511.4</ele>
        <time>2022-03-07T10:57:49Z</time>
      </trkpt>
      <trkpt lat="46.5577" lon="5.55415">
        <ele>511</ele>
        <time>2022-03-07T10:57:50Z</time>
      </trkpt>
      <trkpt lat="46.55777" lon="5.55418">
        <ele>510.4</ele>
        <time>2022-03-07T10:57:51Z</time>
      </trkpt>
      <trkpt lat="46.55784" lon="5.55423">
        <ele>510</ele>
        <time>2022-03-07T10:57:52Z</time>
      </trkpt>
      <trkpt lat="46.55789" lon="5.55428">
        <ele>509.4</ele>
        <time>2022-03-07T10:57:53Z</time>
      </trkpt>
      <trkpt lat="46.55794" lon="5.55436">
        <ele>508.8</ele>
        <time>2022-03-07T10:57:54Z</time>
      </trkpt>
      <trkpt lat="46.55798" lon="5.55445">
        <ele>508.4</ele>
        <time>2022-03-07T10:57:55Z</time>
      </trkpt>
      <trkpt lat="46.55802" lon="5.55454">
        <ele>507.8</ele>
        <time>2022-03-07T10:57:56Z</time>
      </trkpt>
      <trkpt lat="46.55806" lon="5.55464">
        <ele>507.2</ele>
        <time>2022-03-07T10:57:57Z</time>
      </trkpt>
      <trkpt lat="46.55809" lon="5.55473">
        <ele>506.8</ele>
        <time>2022-03-07T10:57:58Z</time>
      </trkpt>
      <trkpt lat="46.55812" lon="5.55483">
        <ele>506.4</ele>
        <time>2022-03-07T10:57:59Z</time>
      </trkpt>
      <trkpt lat="46.55815" lon="5.55494">
        <ele>506</ele>
        <time>2022-03-07T10:58:00Z</time>
      </trkpt>
      <trkpt lat="46.55818" lon="5.55504">
        <ele>506</ele>
        <time>2022-03-07T10:58:01Z</time>
      </trkpt>
      <trkpt lat="46.55821" lon="5.55514">
        <ele>505.4</ele>
        <time>2022-03-07T10:58:02Z</time>
      </trkpt>
      <trkpt lat="46.55823" lon="5.55523">
        <ele>505.2</ele>
        <time>2022-03-07T10:58:03Z</time>
      </trkpt>
      <trkpt lat="46.55826" lon="5.55533">
        <ele>504.8</ele>
        <time>2022-03-07T10:58:04Z</time>
      </trkpt>
      <trkpt lat="46.55828" lon="5.55542">
        <ele>504.6</ele>
        <time>2022-03-07T10:58:05Z</time>
      </trkpt>
      <trkpt lat="46.55831" lon="5.55551">
        <ele>504.6</ele>
        <time>2022-03-07T10:58:06Z</time>
      </trkpt>
      <trkpt lat="46.55833" lon="5.55559">
        <ele>504.2</ele>
        <time>2022-03-07T10:58:07Z</time>
      </trkpt>
      <trkpt lat="46.55835" lon="5.55568">
        <ele>504.2</ele>
        <time>2022-03-07T10:58:08Z</time>
      </trkpt>
      <trkpt lat="46.55837" lon="5.55576">
        <ele>504</ele>
        <time>2022-03-07T10:58:09Z</time>
      </trkpt>
      <trkpt lat="46.55839" lon="5.55584">
        <ele>504</ele>
        <time>2022-03-07T10:58:10Z</time>
      </trkpt>
      <trkpt lat="46.55842" lon="5.55591">
        <ele>504</ele>
        <time>2022-03-07T10:58:11Z</time>
      </trkpt>
      <trkpt lat="46.55844" lon="5.55597">
        <ele>504</ele>
        <time>2022-03-07T10:58:12Z</time>
      </trkpt>
      <trkpt lat="46.55847" lon="5.55603">
        <ele>503.8</ele>
        <time>2022-03-07T10:58:13Z</time>
      </trkpt>
      <trkpt lat="46.5585" lon="5.55609">
        <ele>503.8</ele>
        <time>2022-03-07T10:58:14Z</time>
      </trkpt>
      <trkpt lat="46.55853" lon="5.55613">
        <ele>503.8</ele>
        <time>2022-03-07T10:58:15Z</time>
      </trkpt>
      <trkpt lat="46.55856" lon="5.55618">
        <ele>503.8</ele>
        <time>2022-03-07T10:58:16Z</time>
      </trkpt>
      <trkpt lat="46.5586" lon="5.55622">
        <ele>503.8</ele>
        <time>2022-03-07T10:58:17Z</time>
      </trkpt>
      <trkpt lat="46.55863" lon="5.55626">
        <ele>503.8</ele>
        <time>2022-03-07T10:58:18Z</time>
      </trkpt>
      <trkpt lat="46.55866" lon="5.5563">
        <ele>503.8</ele>
        <time>2022-03-07T10:58:19Z</time>
      </trkpt>
      <trkpt lat="46.55869" lon="5.55634">
        <ele>503.8</ele>
        <time>2022-03-07T10:58:20Z</time>
      </trkpt>
      <trkpt lat="46.55873" lon="5.55637">
        <ele>503.8</ele>
        <time>2022-03-07T10:58:21Z</time>
      </trkpt>
      <trkpt lat="46.55876" lon="5.5564">
        <ele>503.8</ele>
        <time>2022-03-07T10:58:22Z</time>
      </trkpt>
      <trkpt lat="46.55879" lon="5.55643">
        <ele>503.8</ele>
        <time>2022-03-07T10:58:23Z</time>
      </trkpt>
      <trkpt lat="46.55881" lon="5.55647">
        <ele>504</ele>
        <time>2022-03-07T10:58:24Z</time>
      </trkpt>
      <trkpt lat="46.55884" lon="5.5565">
        <ele>504.2</ele>
        <time>2022-03-07T10:58:25Z</time>
      </trkpt>
      <trkpt lat="46.55887" lon="5.55652">
        <ele>504.2</ele>
        <time>2022-03-07T10:58:26Z</time>
      </trkpt>
      <trkpt lat="46.5589" lon="5.55655">
        <ele>504.6</ele>
        <time>2022-03-07T10:58:27Z</time>
      </trkpt>
      <trkpt lat="46.55893" lon="5.55657">
        <ele>504.6</ele>
        <time>2022-03-07T10:58:28Z</time>
      </trkpt>
      <trkpt lat="46.55896" lon="5.55659">
        <ele>504.8</ele>
        <time>2022-03-07T10:58:29Z</time>
      </trkpt>
      <trkpt lat="46.55898" lon="5.55661">
        <ele>504.8</ele>
        <time>2022-03-07T10:58:30Z</time>
      </trkpt>
      <trkpt lat="46.55901" lon="5.55663">
        <ele>505.2</ele>
        <time>2022-03-07T10:58:31Z</time>
      </trkpt>
      <trkpt lat="46.55903" lon="5.55666">
        <ele>505.2</ele>
        <time>2022-03-07T10:58:32Z</time>
      </trkpt>
      <trkpt lat="46.55906" lon="5.55668">
        <ele>505.4</ele>
        <time>2022-03-07T10:58:33Z</time>
      </trkpt>
      <trkpt lat="46.55909" lon="5.55669">
        <ele>505.4</ele>
        <time>2022-03-07T10:58:34Z</time>
      </trkpt>
      <trkpt lat="46.55912" lon="5.55671">
        <ele>505.8</ele>
        <time>2022-03-07T10:58:35Z</time>
      </trkpt>
      <trkpt lat="46.55915" lon="5.55672">
        <ele>505.8</ele>
        <time>2022-03-07T10:58:36Z</time>
      </trkpt>
      <trkpt lat="46.55918" lon="5.55674">
        <ele>506.2</ele>
        <time>2022-03-07T10:58:37Z</time>
      </trkpt>
      <trkpt lat="46.5592" lon="5.55676">
        <ele>506.2</ele>
        <time>2022-03-07T10:58:38Z</time>
      </trkpt>
      <trkpt lat="46.55923" lon="5.55678">
        <ele>506.4</ele>
        <time>2022-03-07T10:58:39Z</time>
      </trkpt>
      <trkpt lat="46.55925" lon="5.5568">
        <ele>506.4</ele>
        <time>2022-03-07T10:58:40Z</time>
      </trkpt>
      <trkpt lat="46.55927" lon="5.55683">
        <ele>506.6</ele>
        <time>2022-03-07T10:58:41Z</time>
      </trkpt>
      <trkpt lat="46.5593" lon="5.55685">
        <ele>506.6</ele>
        <time>2022-03-07T10:58:42Z</time>
      </trkpt>
      <trkpt lat="46.55933" lon="5.55688">
        <ele>507</ele>
        <time>2022-03-07T10:58:43Z</time>
      </trkpt>
      <trkpt lat="46.55935" lon="5.55691">
        <ele>507</ele>
        <time>2022-03-07T10:58:44Z</time>
      </trkpt>
      <trkpt lat="46.55938" lon="5.55694">
        <ele>507</ele>
        <time>2022-03-07T10:58:45Z</time>
      </trkpt>
      <trkpt lat="46.5594" lon="5.55698">
        <ele>507</ele>
        <time>2022-03-07T10:58:46Z</time>
      </trkpt>
      <trkpt lat="46.55943" lon="5.557">
        <ele>507</ele>
        <time>2022-03-07T10:58:47Z</time>
      </trkpt>
      <trkpt lat="46.55946" lon="5.55703">
        <ele>507</ele>
        <time>2022-03-07T10:58:48Z</time>
      </trkpt>
      <trkpt lat="46.55949" lon="5.55705">
        <ele>507.2</ele>
        <time>2022-03-07T10:58:49Z</time>
      </trkpt>
      <trkpt lat="46.55951" lon="5.55706">
        <ele>507.2</ele>
        <time>2022-03-07T10:58:50Z</time>
      </trkpt>
      <trkpt lat="46.55954" lon="5.55708">
        <ele>507.4</ele>
        <time>2022-03-07T10:58:51Z</time>
      </trkpt>
      <trkpt lat="46.55957" lon="5.5571">
        <ele>507.4</ele>
        <time>2022-03-07T10:58:52Z</time>
      </trkpt>
      <trkpt lat="46.5596" lon="5.55712">
        <ele>507.8</ele>
        <time>2022-03-07T10:58:53Z</time>
      </trkpt>
      <trkpt lat="46.55963" lon="5.55713">
        <ele>507.8</ele>
        <time>2022-03-07T10:58:54Z</time>
      </trkpt>
      <trkpt lat="46.55967" lon="5.55714">
        <ele>508</ele>
        <time>2022-03-07T10:58:55Z</time>
      </trkpt>
      <trkpt lat="46.5597" lon="5.55714">
        <ele>508</ele>
        <time>2022-03-07T10:58:56Z</time>
      </trkpt>
      <trkpt lat="46.55973" lon="5.55714">
        <ele>508</ele>
        <time>2022-03-07T10:58:57Z</time>
      </trkpt>
      <trkpt lat="46.55976" lon="5.55714">
        <ele>508.2</ele>
        <time>2022-03-07T10:58:58Z</time>
      </trkpt>
      <trkpt lat="46.55979" lon="5.55714">
        <ele>508.2</ele>
        <time>2022-03-07T10:58:59Z</time>
      </trkpt>
      <trkpt lat="46.55982" lon="5.55713">
        <ele>508.2</ele>
        <time>2022-03-07T10:59:00Z</time>
      </trkpt>
      <trkpt lat="46.55985" lon="5.55713">
        <ele>508.4</ele>
        <time>2022-03-07T10:59:01Z</time>
      </trkpt>
      <trkpt lat="46.55988" lon="5.55713">
        <ele>508.4</ele>
        <time>2022-03-07T10:59:02Z</time>
      </trkpt>
      <trkpt lat="46.55992" lon="5.55713">
        <ele>508.4</ele>
        <time>2022-03-07T10:59:03Z</time>
      </trkpt>
      <trkpt lat="46.55995" lon="5.55712">
        <ele>508.8</ele>
        <time>2022-03-07T10:59:04Z</time>
      </trkpt>
      <trkpt lat="46.55998" lon="5.55712">
        <ele>508.8</ele>
        <time>2022-03-07T10:59:05Z</time>
      </trkpt>
      <trkpt lat="46.56002" lon="5.55712">
        <ele>508.8</ele>
        <time>2022-03-07T10:59:06Z</time>
      </trkpt>
      <trkpt lat="46.56005" lon="5.55712">
        <ele>508.8</ele>
        <time>2022-03-07T10:59:07Z</time>
      </trkpt>
      <trkpt lat="46.56009" lon="5.55713">
        <ele>508.8</ele>
        <time>2022-03-07T10:59:08Z</time>
      </trkpt>
      <trkpt lat="46.56013" lon="5.55713">
        <ele>508.8</ele>
        <time>2022-03-07T10:59:09Z</time>
      </trkpt>
      <trkpt lat="46.56017" lon="5.55713">
        <ele>509</ele>
        <time>2022-03-07T10:59:10Z</time>
      </trkpt>
      <trkpt lat="46.56021" lon="5.55713">
        <ele>509</ele>
        <time>2022-03-07T10:59:11Z</time>
      </trkpt>
      <trkpt lat="46.56025" lon="5.55713">
        <ele>509</ele>
        <time>2022-03-07T10:59:12Z</time>
      </trkpt>
      <trkpt lat="46.56028" lon="5.55713">
        <ele>509</ele>
        <time>2022-03-07T10:59:13Z</time>
      </trkpt>
      <trkpt lat="46.56032" lon="5.55714">
        <ele>509</ele>
        <time>2022-03-07T10:59:14Z</time>
      </trkpt>
      <trkpt lat="46.56036" lon="5.55713">
        <ele>509</ele>
        <time>2022-03-07T10:59:15Z</time>
      </trkpt>
      <trkpt lat="46.5604" lon="5.55713">
        <ele>509</ele>
        <time>2022-03-07T10:59:16Z</time>
      </trkpt>
      <trkpt lat="46.56044" lon="5.55712">
        <ele>509</ele>
        <time>2022-03-07T10:59:17Z</time>
      </trkpt>
      <trkpt lat="46.56047" lon="5.55712">
        <ele>509</ele>
        <time>2022-03-07T10:59:18Z</time>
      </trkpt>
      <trkpt lat="46.5605" lon="5.55712">
        <ele>509</ele>
        <time>2022-03-07T10:59:19Z</time>
      </trkpt>
      <trkpt lat="46.56053" lon="5.55712">
        <ele>509.4</ele>
        <time>2022-03-07T10:59:20Z</time>
      </trkpt>
      <trkpt lat="46.56055" lon="5.55711">
        <ele>509.4</ele>
        <time>2022-03-07T10:59:21Z</time>
      </trkpt>
      <trkpt lat="46.56058" lon="5.55711">
        <ele>509.4</ele>
        <time>2022-03-07T10:59:22Z</time>
      </trkpt>
      <trkpt lat="46.56062" lon="5.55711">
        <ele>509.6</ele>
        <time>2022-03-07T10:59:23Z</time>
      </trkpt>
      <trkpt lat="46.56065" lon="5.55711">
        <ele>509.6</ele>
        <time>2022-03-07T10:59:24Z</time>
      </trkpt>
      <trkpt lat="46.56069" lon="5.55711">
        <ele>509.6</ele>
        <time>2022-03-07T10:59:25Z</time>
      </trkpt>
      <trkpt lat="46.56073" lon="5.55711">
        <ele>509.8</ele>
        <time>2022-03-07T10:59:26Z</time>
      </trkpt>
      <trkpt lat="46.56076" lon="5.55711">
        <ele>509.8</ele>
        <time>2022-03-07T10:59:27Z</time>
      </trkpt>
      <trkpt lat="46.56079" lon="5.55711">
        <ele>509.8</ele>
        <time>2022-03-07T10:59:28Z</time>
      </trkpt>
      <trkpt lat="46.56083" lon="5.55711">
        <ele>509.8</ele>
        <time>2022-03-07T10:59:29Z</time>
      </trkpt>
      <trkpt lat="46.56086" lon="5.55711">
        <ele>510</ele>
        <time>2022-03-07T10:59:30Z</time>
      </trkpt>
      <trkpt lat="46.5609" lon="5.55711">
        <ele>510</ele>
        <time>2022-03-07T10:59:31Z</time>
      </trkpt>
      <trkpt lat="46.56093" lon="5.55712">
        <ele>510</ele>
        <time>2022-03-07T10:59:32Z</time>
      </trkpt>
      <trkpt lat="46.56096" lon="5.55713">
        <ele>510</ele>
        <time>2022-03-07T10:59:33Z</time>
      </trkpt>
      <trkpt lat="46.561" lon="5.55714">
        <ele>510</ele>
        <time>2022-03-07T10:59:34Z</time>
      </trkpt>
      <trkpt lat="46.56103" lon="5.55715">
        <ele>510</ele>
        <time>2022-03-07T10:59:35Z</time>
      </trkpt>
      <trkpt lat="46.56107" lon="5.55716">
        <ele>510</ele>
        <time>2022-03-07T10:59:36Z</time>
      </trkpt>
      <trkpt lat="46.5611" lon="5.55717">
        <ele>510</ele>
        <time>2022-03-07T10:59:37Z</time>
      </trkpt>
      <trkpt lat="46.56114" lon="5.55718">
        <ele>510.4</ele>
        <time>2022-03-07T10:59:38Z</time>
      </trkpt>
      <trkpt lat="46.56117" lon="5.5572">
        <ele>510.4</ele>
        <time>2022-03-07T10:59:39Z</time>
      </trkpt>
      <trkpt lat="46.56121" lon="5.55722">
        <ele>510.4</ele>
        <time>2022-03-07T10:59:40Z</time>
      </trkpt>
      <trkpt lat="46.56125" lon="5.55724">
        <ele>510.4</ele>
        <time>2022-03-07T10:59:41Z</time>
      </trkpt>
      <trkpt lat="46.56129" lon="5.55726">
        <ele>510.6</ele>
        <time>2022-03-07T10:59:42Z</time>
      </trkpt>
      <trkpt lat="46.56132" lon="5.55727">
        <ele>510.6</ele>
        <time>2022-03-07T10:59:43Z</time>
      </trkpt>
      <trkpt lat="46.56136" lon="5.5573">
        <ele>510.6</ele>
        <time>2022-03-07T10:59:44Z</time>
      </trkpt>
      <trkpt lat="46.5614" lon="5.55732">
        <ele>510.6</ele>
        <time>2022-03-07T10:59:45Z</time>
      </trkpt>
      <trkpt lat="46.56143" lon="5.55734">
        <ele>510.8</ele>
        <time>2022-03-07T10:59:46Z</time>
      </trkpt>
      <trkpt lat="46.56147" lon="5.55736">
        <ele>510.8</ele>
        <time>2022-03-07T10:59:47Z</time>
      </trkpt>
      <trkpt lat="46.56151" lon="5.55738">
        <ele>510.8</ele>
        <time>2022-03-07T10:59:48Z</time>
      </trkpt>
      <trkpt lat="46.56154" lon="5.5574">
        <ele>510.8</ele>
        <time>2022-03-07T10:59:49Z</time>
      </trkpt>
      <trkpt lat="46.56158" lon="5.55742">
        <ele>511.2</ele>
        <time>2022-03-07T10:59:50Z</time>
      </trkpt>
      <trkpt lat="46.56161" lon="5.55743">
        <ele>511.2</ele>
        <time>2022-03-07T10:59:51Z</time>
      </trkpt>
      <trkpt lat="46.56164" lon="5.55745">
        <ele>511.4</ele>
        <time>2022-03-07T10:59:52Z</time>
      </trkpt>
      <trkpt lat="46.56167" lon="5.55747">
        <ele>511.4</ele>
        <time>2022-03-07T10:59:53Z</time>
      </trkpt>
      <trkpt lat="46.56171" lon="5.55749">
        <ele>511.4</ele>
        <time>2022-03-07T10:59:54Z</time>
      </trkpt>
      <trkpt lat="46.56174" lon="5.55751">
        <ele>511.8</ele>
        <time>2022-03-07T10:59:55Z</time>
      </trkpt>
      <trkpt lat="46.56177" lon="5.55753">
        <ele>511.8</ele>
        <time>2022-03-07T10:59:56Z</time>
      </trkpt>
      <trkpt lat="46.56181" lon="5.55756">
        <ele>511.8</ele>
        <time>2022-03-07T10:59:57Z</time>
      </trkpt>
      <trkpt lat="46.56184" lon="5.55758">
        <ele>512</ele>
        <time>2022-03-07T10:59:58Z</time>
      </trkpt>
      <trkpt lat="46.56188" lon="5.5576">
        <ele>512</ele>
        <time>2022-03-07T10:59:59Z</time>
      </trkpt>
      <trkpt lat="46.56191" lon="5.55762">
        <ele>512</ele>
        <time>2022-03-07T11:00:00Z</time>
      </trkpt>
      <trkpt lat="46.56194" lon="5.55765">
        <ele>512.2</ele>
        <time>2022-03-07T11:00:01Z</time>
      </trkpt>
      <trkpt lat="46.56198" lon="5.55768">
        <ele>512.2</ele>
        <time>2022-03-07T11:00:02Z</time>
      </trkpt>
      <trkpt lat="46.56201" lon="5.55771">
        <ele>512.4</ele>
        <time>2022-03-07T11:00:03Z</time>
      </trkpt>
      <trkpt lat="46.56204" lon="5.55774">
        <ele>512.4</ele>
        <time>2022-03-07T11:00:04Z</time>
      </trkpt>
      <trkpt lat="46.56207" lon="5.55777">
        <ele>512.4</ele>
        <time>2022-03-07T11:00:05Z</time>
      </trkpt>
      <trkpt lat="46.5621" lon="5.55779">
        <ele>512.8</ele>
        <time>2022-03-07T11:00:06Z</time>
      </trkpt>
      <trkpt lat="46.56213" lon="5.55782">
        <ele>512.8</ele>
        <time>2022-03-07T11:00:07Z</time>
      </trkpt>
      <trkpt lat="46.56217" lon="5.55785">
        <ele>512.8</ele>
        <time>2022-03-07T11:00:08Z</time>
      </trkpt>
      <trkpt lat="46.5622" lon="5.55788">
        <ele>512.8</ele>
        <time>2022-03-07T11:00:09Z</time>
      </trkpt>
      <trkpt lat="46.56223" lon="5.5579">
        <ele>513</ele>
        <time>2022-03-07T11:00:10Z</time>
      </trkpt>
      <trkpt lat="46.56226" lon="5.55793">
        <ele>513</ele>
        <time>2022-03-07T11:00:11Z</time>
      </trkpt>
      <trkpt lat="46.56229" lon="5.55796">
        <ele>513.2</ele>
        <time>2022-03-07T11:00:12Z</time>
      </trkpt>
      <trkpt lat="46.56232" lon="5.55799">
        <ele>513.2</ele>
        <time>2022-03-07T11:00:13Z</time>
      </trkpt>
      <trkpt lat="46.56235" lon="5.55802">
        <ele>513.2</ele>
        <time>2022-03-07T11:00:14Z</time>
      </trkpt>
      <trkpt lat="46.56238" lon="5.55805">
        <ele>513.4</ele>
        <time>2022-03-07T11:00:15Z</time>
      </trkpt>
      <trkpt lat="46.56241" lon="5.55808">
        <ele>513.4</ele>
        <time>2022-03-07T11:00:16Z</time>
      </trkpt>
      <trkpt lat="46.56244" lon="5.55811">
        <ele>513.6</ele>
        <time>2022-03-07T11:00:17Z</time>
      </trkpt>
      <trkpt lat="46.56247" lon="5.55814">
        <ele>513.6</ele>
        <time>2022-03-07T11:00:18Z</time>
      </trkpt>
      <trkpt lat="46.5625" lon="5.55816">
        <ele>513.6</ele>
        <time>2022-03-07T11:00:19Z</time>
      </trkpt>
      <trkpt lat="46.56253" lon="5.55819">
        <ele>513.6</ele>
        <time>2022-03-07T11:00:20Z</time>
      </trkpt>
      <trkpt lat="46.56256" lon="5.55822">
        <ele>514</ele>
        <time>2022-03-07T11:00:21Z</time>
      </trkpt>
      <trkpt lat="46.56259" lon="5.55825">
        <ele>514.2</ele>
        <time>2022-03-07T11:00:22Z</time>
      </trkpt>
      <trkpt lat="46.56263" lon="5.55828">
        <ele>514.2</ele>
        <time>2022-03-07T11:00:23Z</time>
      </trkpt>
      <trkpt lat="46.56266" lon="5.55831">
        <ele>514.4</ele>
        <time>2022-03-07T11:00:24Z</time>
      </trkpt>
      <trkpt lat="46.56269" lon="5.55834">
        <ele>514.4</ele>
        <time>2022-03-07T11:00:25Z</time>
      </trkpt>
      <trkpt lat="46.56272" lon="5.55837">
        <ele>514.6</ele>
        <time>2022-03-07T11:00:26Z</time>
      </trkpt>
      <trkpt lat="46.56275" lon="5.5584">
        <ele>514.6</ele>
        <time>2022-03-07T11:00:27Z</time>
      </trkpt>
      <trkpt lat="46.56278" lon="5.55844">
        <ele>515</ele>
        <time>2022-03-07T11:00:28Z</time>
      </trkpt>
      <trkpt lat="46.5628" lon="5.55848">
        <ele>515</ele>
        <time>2022-03-07T11:00:29Z</time>
      </trkpt>
      <trkpt lat="46.56283" lon="5.55851">
        <ele>515.2</ele>
        <time>2022-03-07T11:00:30Z</time>
      </trkpt>
      <trkpt lat="46.56286" lon="5.55855">
        <ele>515.2</ele>
        <time>2022-03-07T11:00:31Z</time>
      </trkpt>
      <trkpt lat="46.56289" lon="5.55859">
        <ele>515.2</ele>
        <time>2022-03-07T11:00:32Z</time>
      </trkpt>
      <trkpt lat="46.56292" lon="5.55863">
        <ele>515.4</ele>
        <time>2022-03-07T11:00:33Z</time>
      </trkpt>
      <trkpt lat="46.56294" lon="5.55867">
        <ele>515.4</ele>
        <time>2022-03-07T11:00:34Z</time>
      </trkpt>
      <trkpt lat="46.56297" lon="5.55871">
        <ele>515.4</ele>
        <time>2022-03-07T11:00:35Z</time>
      </trkpt>
      <trkpt lat="46.563" lon="5.55875">
        <ele>515.4</ele>
        <time>2022-03-07T11:00:36Z</time>
      </trkpt>
      <trkpt lat="46.56303" lon="5.55879">
        <ele>515.6</ele>
        <time>2022-03-07T11:00:37Z</time>
      </trkpt>
      <trkpt lat="46.56306" lon="5.55883">
        <ele>515.6</ele>
        <time>2022-03-07T11:00:38Z</time>
      </trkpt>
      <trkpt lat="46.56309" lon="5.55887">
        <ele>515.6</ele>
        <time>2022-03-07T11:00:39Z</time>
      </trkpt>
      <trkpt lat="46.56312" lon="5.5589">
        <ele>515.6</ele>
        <time>2022-03-07T11:00:40Z</time>
      </trkpt>
      <trkpt lat="46.56316" lon="5.55892">
        <ele>515.8</ele>
        <time>2022-03-07T11:00:41Z</time>
      </trkpt>
      <trkpt lat="46.56319" lon="5.55895">
        <ele>515.8</ele>
        <time>2022-03-07T11:00:42Z</time>
      </trkpt>
      <trkpt lat="46.56323" lon="5.55897">
        <ele>515.8</ele>
        <time>2022-03-07T11:00:43Z</time>
      </trkpt>
      <trkpt lat="46.56326" lon="5.559">
        <ele>516</ele>
        <time>2022-03-07T11:00:44Z</time>
      </trkpt>
      <trkpt lat="46.5633" lon="5.55902">
        <ele>516</ele>
        <time>2022-03-07T11:00:45Z</time>
      </trkpt>
      <trkpt lat="46.56334" lon="5.55903">
        <ele>516</ele>
        <time>2022-03-07T11:00:46Z</time>
      </trkpt>
      <trkpt lat="46.56337" lon="5.55904">
        <ele>516</ele>
        <time>2022-03-07T11:00:47Z</time>
      </trkpt>
      <trkpt lat="46.56341" lon="5.55905">
        <ele>516.4</ele>
        <time>2022-03-07T11:00:48Z</time>
      </trkpt>
      <trkpt lat="46.56345" lon="5.55906">
        <ele>516.4</ele>
        <time>2022-03-07T11:00:49Z</time>
      </trkpt>
      <trkpt lat="46.56348" lon="5.55906">
        <ele>516.6</ele>
        <time>2022-03-07T11:00:50Z</time>
      </trkpt>
      <trkpt lat="46.56352" lon="5.55906">
        <ele>516.6</ele>
        <time>2022-03-07T11:00:51Z</time>
      </trkpt>
      <trkpt lat="46.56356" lon="5.55907">
        <ele>516.6</ele>
        <time>2022-03-07T11:00:52Z</time>
      </trkpt>
      <trkpt lat="46.56359" lon="5.55907">
        <ele>516.6</ele>
        <time>2022-03-07T11:00:53Z</time>
      </trkpt>
      <trkpt lat="46.56363" lon="5.55908">
        <ele>516.6</ele>
        <time>2022-03-07T11:00:54Z</time>
      </trkpt>
      <trkpt lat="46.56367" lon="5.55908">
        <ele>516.8</ele>
        <time>2022-03-07T11:00:55Z</time>
      </trkpt>
      <trkpt lat="46.5637" lon="5.55908">
        <ele>516.8</ele>
        <time>2022-03-07T11:00:56Z</time>
      </trkpt>
      <trkpt lat="46.56374" lon="5.55908">
        <ele>516.8</ele>
        <time>2022-03-07T11:00:57Z</time>
      </trkpt>
      <trkpt lat="46.56377" lon="5.55908">
        <ele>516.8</ele>
        <time>2022-03-07T11:00:58Z</time>
      </trkpt>
      <trkpt lat="46.56381" lon="5.55908">
        <ele>517.2</ele>
        <time>2022-03-07T11:00:59Z</time>
      </trkpt>
      <trkpt lat="46.56385" lon="5.55908">
        <ele>517.2</ele>
        <time>2022-03-07T11:01:00Z</time>
      </trkpt>
      <trkpt lat="46.56388" lon="5.55908">
        <ele>517.4</ele>
        <time>2022-03-07T11:01:01Z</time>
      </trkpt>
      <trkpt lat="46.56392" lon="5.55908">
        <ele>517.4</ele>
        <time>2022-03-07T11:01:02Z</time>
      </trkpt>
      <trkpt lat="46.56396" lon="5.55907">
        <ele>517.4</ele>
        <time>2022-03-07T11:01:03Z</time>
      </trkpt>
      <trkpt lat="46.564" lon="5.55907">
        <ele>517.4</ele>
        <time>2022-03-07T11:01:04Z</time>
      </trkpt>
      <trkpt lat="46.56403" lon="5.55906">
        <ele>517.6</ele>
        <time>2022-03-07T11:01:05Z</time>
      </trkpt>
      <trkpt lat="46.56407" lon="5.55904">
        <ele>517.6</ele>
        <time>2022-03-07T11:01:06Z</time>
      </trkpt>
      <trkpt lat="46.5641" lon="5.55903">
        <ele>517.8</ele>
        <time>2022-03-07T11:01:07Z</time>
      </trkpt>
      <trkpt lat="46.56414" lon="5.55902">
        <ele>517.8</ele>
        <time>2022-03-07T11:01:08Z</time>
      </trkpt>
      <trkpt lat="46.56417" lon="5.55901">
        <ele>517.8</ele>
        <time>2022-03-07T11:01:09Z</time>
      </trkpt>
      <trkpt lat="46.56421" lon="5.55901">
        <ele>517.8</ele>
        <time>2022-03-07T11:01:10Z</time>
      </trkpt>
      <trkpt lat="46.56424" lon="5.559">
        <ele>518</ele>
        <time>2022-03-07T11:01:11Z</time>
      </trkpt>
      <trkpt lat="46.56427" lon="5.559">
        <ele>518</ele>
        <time>2022-03-07T11:01:12Z</time>
      </trkpt>
      <trkpt lat="46.5643" lon="5.55899">
        <ele>518.2</ele>
        <time>2022-03-07T11:01:13Z</time>
      </trkpt>
      <trkpt lat="46.56433" lon="5.55897">
        <ele>518.2</ele>
        <time>2022-03-07T11:01:14Z</time>
      </trkpt>
      <trkpt lat="46.56436" lon="5.55897">
        <ele>518.2</ele>
        <time>2022-03-07T11:01:15Z</time>
      </trkpt>
      <trkpt lat="46.56439" lon="5.55896">
        <ele>518.6</ele>
        <time>2022-03-07T11:01:16Z</time>
      </trkpt>
      <trkpt lat="46.56442" lon="5.55896">
        <ele>518.6</ele>
        <time>2022-03-07T11:01:17Z</time>
      </trkpt>
      <trkpt lat="46.56445" lon="5.55895">
        <ele>518.8</ele>
        <time>2022-03-07T11:01:18Z</time>
      </trkpt>
      <trkpt lat="46.56447" lon="5.55894">
        <ele>518.8</ele>
        <time>2022-03-07T11:01:19Z</time>
      </trkpt>
      <trkpt lat="46.5645" lon="5.55894">
        <ele>519</ele>
        <time>2022-03-07T11:01:20Z</time>
      </trkpt>
      <trkpt lat="46.56453" lon="5.55893">
        <ele>519</ele>
        <time>2022-03-07T11:01:21Z</time>
      </trkpt>
      <trkpt lat="46.56455" lon="5.55893">
        <ele>519.4</ele>
        <time>2022-03-07T11:01:22Z</time>
      </trkpt>
      <trkpt lat="46.56458" lon="5.55893">
        <ele>519.4</ele>
        <time>2022-03-07T11:01:23Z</time>
      </trkpt>
      <trkpt lat="46.56461" lon="5.55893">
        <ele>519.6</ele>
        <time>2022-03-07T11:01:24Z</time>
      </trkpt>
      <trkpt lat="46.56463" lon="5.55893">
        <ele>519.6</ele>
        <time>2022-03-07T11:01:25Z</time>
      </trkpt>
      <trkpt lat="46.56466" lon="5.55892">
        <ele>519.8</ele>
        <time>2022-03-07T11:01:26Z</time>
      </trkpt>
      <trkpt lat="46.56468" lon="5.55892">
        <ele>519.8</ele>
        <time>2022-03-07T11:01:27Z</time>
      </trkpt>
      <trkpt lat="46.5647" lon="5.55892">
        <ele>520</ele>
        <time>2022-03-07T11:01:28Z</time>
      </trkpt>
      <trkpt lat="46.56473" lon="5.55892">
        <ele>520</ele>
        <time>2022-03-07T11:01:29Z</time>
      </trkpt>
      <trkpt lat="46.56475" lon="5.55893">
        <ele>520.4</ele>
        <time>2022-03-07T11:01:30Z</time>
      </trkpt>
      <trkpt lat="46.56476" lon="5.55895">
        <ele>520.4</ele>
        <time>2022-03-07T11:01:31Z</time>
      </trkpt>
      <trkpt lat="46.56478" lon="5.55898">
        <ele>520.8</ele>
        <time>2022-03-07T11:01:32Z</time>
      </trkpt>
      <trkpt lat="46.56479" lon="5.55901">
        <ele>520.8</ele>
        <time>2022-03-07T11:01:33Z</time>
      </trkpt>
      <trkpt lat="46.56479" lon="5.55905">
        <ele>521</ele>
        <time>2022-03-07T11:01:34Z</time>
      </trkpt>
      <trkpt lat="46.56479" lon="5.55908">
        <ele>521.2</ele>
        <time>2022-03-07T11:01:35Z</time>
      </trkpt>
      <trkpt lat="46.56479" lon="5.55912">
        <ele>521.4</ele>
        <time>2022-03-07T11:01:36Z</time>
      </trkpt>
      <trkpt lat="46.56479" lon="5.55915">
        <ele>521.6</ele>
        <time>2022-03-07T11:01:37Z</time>
      </trkpt>
      <trkpt lat="46.56479" lon="5.55918">
        <ele>521.8</ele>
        <time>2022-03-07T11:01:38Z</time>
      </trkpt>
      <trkpt lat="46.5648" lon="5.55921">
        <ele>521.8</ele>
        <time>2022-03-07T11:01:39Z</time>
      </trkpt>
      <trkpt lat="46.5648" lon="5.55925">
        <ele>522.2</ele>
        <time>2022-03-07T11:01:40Z</time>
      </trkpt>
      <trkpt lat="46.5648" lon="5.55928">
        <ele>522.4</ele>
        <time>2022-03-07T11:01:41Z</time>
      </trkpt>
      <trkpt lat="46.5648" lon="5.55931">
        <ele>522.4</ele>
        <time>2022-03-07T11:01:42Z</time>
      </trkpt>
      <trkpt lat="46.5648" lon="5.55934">
        <ele>522.6</ele>
        <time>2022-03-07T11:01:43Z</time>
      </trkpt>
      <trkpt lat="46.56481" lon="5.55937">
        <ele>522.6</ele>
        <time>2022-03-07T11:01:44Z</time>
      </trkpt>
      <trkpt lat="46.56481" lon="5.5594">
        <ele>523</ele>
        <time>2022-03-07T11:01:45Z</time>
      </trkpt>
      <trkpt lat="46.56482" lon="5.55943">
        <ele>523</ele>
        <time>2022-03-07T11:01:46Z</time>
      </trkpt>
      <trkpt lat="46.56482" lon="5.55945">
        <ele>523.2</ele>
        <time>2022-03-07T11:01:47Z</time>
      </trkpt>
      <trkpt lat="46.56483" lon="5.55948">
        <ele>523.2</ele>
        <time>2022-03-07T11:01:48Z</time>
      </trkpt>
      <trkpt lat="46.56483" lon="5.55951">
        <ele>523.2</ele>
        <time>2022-03-07T11:01:49Z</time>
      </trkpt>
      <trkpt lat="46.56484" lon="5.55953">
        <ele>523.4</ele>
        <time>2022-03-07T11:01:50Z</time>
      </trkpt>
      <trkpt lat="46.56485" lon="5.55956">
        <ele>523.4</ele>
        <time>2022-03-07T11:01:51Z</time>
      </trkpt>
      <trkpt lat="46.56486" lon="5.55958">
        <ele>523.4</ele>
        <time>2022-03-07T11:01:52Z</time>
      </trkpt>
      <trkpt lat="46.56487" lon="5.5596">
        <ele>523.6</ele>
        <time>2022-03-07T11:01:53Z</time>
      </trkpt>
      <trkpt lat="46.56489" lon="5.55962">
        <ele>523.6</ele>
        <time>2022-03-07T11:01:54Z</time>
      </trkpt>
      <trkpt lat="46.56491" lon="5.55963">
        <ele>523.8</ele>
        <time>2022-03-07T11:01:55Z</time>
      </trkpt>
      <trkpt lat="46.56493" lon="5.55965">
        <ele>523.8</ele>
        <time>2022-03-07T11:01:56Z</time>
      </trkpt>
      <trkpt lat="46.56495" lon="5.55966">
        <ele>523.8</ele>
        <time>2022-03-07T11:01:57Z</time>
      </trkpt>
      <trkpt lat="46.56496" lon="5.55967">
        <ele>524.2</ele>
        <time>2022-03-07T11:01:58Z</time>
      </trkpt>
      <trkpt lat="46.56498" lon="5.55967">
        <ele>524.2</ele>
        <time>2022-03-07T11:01:59Z</time>
      </trkpt>
      <trkpt lat="46.565" lon="5.55968">
        <ele>524.2</ele>
        <time>2022-03-07T11:02:00Z</time>
      </trkpt>
      <trkpt lat="46.56502" lon="5.55969">
        <ele>524.4</ele>
        <time>2022-03-07T11:02:01Z</time>
      </trkpt>
      <trkpt lat="46.56504" lon="5.5597">
        <ele>524.4</ele>
        <time>2022-03-07T11:02:02Z</time>
      </trkpt>
      <trkpt lat="46.56506" lon="5.5597">
        <ele>524.8</ele>
        <time>2022-03-07T11:02:03Z</time>
      </trkpt>
      <trkpt lat="46.56508" lon="5.55971">
        <ele>524.8</ele>
        <time>2022-03-07T11:02:04Z</time>
      </trkpt>
      <trkpt lat="46.5651" lon="5.55971">
        <ele>524.8</ele>
        <time>2022-03-07T11:02:05Z</time>
      </trkpt>
      <trkpt lat="46.56512" lon="5.55971">
        <ele>524.8</ele>
        <time>2022-03-07T11:02:06Z</time>
      </trkpt>
      <trkpt lat="46.56515" lon="5.55971">
        <ele>525</ele>
        <time>2022-03-07T11:02:07Z</time>
      </trkpt>
      <trkpt lat="46.56517" lon="5.55972">
        <ele>525</ele>
        <time>2022-03-07T11:02:08Z</time>
      </trkpt>
      <trkpt lat="46.56519" lon="5.55973">
        <ele>525.4</ele>
        <time>2022-03-07T11:02:09Z</time>
      </trkpt>
      <trkpt lat="46.56521" lon="5.55973">
        <ele>525.4</ele>
        <time>2022-03-07T11:02:10Z</time>
      </trkpt>
      <trkpt lat="46.56523" lon="5.55974">
        <ele>525.4</ele>
        <time>2022-03-07T11:02:11Z</time>
      </trkpt>
      <trkpt lat="46.56526" lon="5.55975">
        <ele>525.6</ele>
        <time>2022-03-07T11:02:12Z</time>
      </trkpt>
      <trkpt lat="46.56528" lon="5.55975">
        <ele>525.6</ele>
        <time>2022-03-07T11:02:13Z</time>
      </trkpt>
      <trkpt lat="46.5653" lon="5.55975">
        <ele>526</ele>
        <time>2022-03-07T11:02:14Z</time>
      </trkpt>
      <trkpt lat="46.56532" lon="5.55975">
        <ele>526</ele>
        <time>2022-03-07T11:02:15Z</time>
      </trkpt>
      <trkpt lat="46.56533" lon="5.55976">
        <ele>526.4</ele>
        <time>2022-03-07T11:02:16Z</time>
      </trkpt>
      <trkpt lat="46.56536" lon="5.55977">
        <ele>526.4</ele>
        <time>2022-03-07T11:02:17Z</time>
      </trkpt>
      <trkpt lat="46.56538" lon="5.55977">
        <ele>526.8</ele>
        <time>2022-03-07T11:02:18Z</time>
      </trkpt>
      <trkpt lat="46.5654" lon="5.55979">
        <ele>526.8</ele>
        <time>2022-03-07T11:02:19Z</time>
      </trkpt>
      <trkpt lat="46.56542" lon="5.5598">
        <ele>527.2</ele>
        <time>2022-03-07T11:02:20Z</time>
      </trkpt>
      <trkpt lat="46.56543" lon="5.55983">
        <ele>527.2</ele>
        <time>2022-03-07T11:02:21Z</time>
      </trkpt>
      <trkpt lat="46.56545" lon="5.55985">
        <ele>527.4</ele>
        <time>2022-03-07T11:02:22Z</time>
      </trkpt>
      <trkpt lat="46.56546" lon="5.55987">
        <ele>527.4</ele>
        <time>2022-03-07T11:02:23Z</time>
      </trkpt>
      <trkpt lat="46.56546" lon="5.5599">
        <ele>527.6</ele>
        <time>2022-03-07T11:02:24Z</time>
      </trkpt>
      <trkpt lat="46.56546" lon="5.55993">
        <ele>527.8</ele>
        <time>2022-03-07T11:02:25Z</time>
      </trkpt>
      <trkpt lat="46.56546" lon="5.55995">
        <ele>527.8</ele>
        <time>2022-03-07T11:02:26Z</time>
      </trkpt>
      <trkpt lat="46.56545" lon="5.55997">
        <ele>528.2</ele>
        <time>2022-03-07T11:02:27Z</time>
      </trkpt>
      <trkpt lat="46.56544" lon="5.55999">
        <ele>528.4</ele>
        <time>2022-03-07T11:02:28Z</time>
      </trkpt>
      <trkpt lat="46.56543" lon="5.56">
        <ele>528.4</ele>
        <time>2022-03-07T11:02:29Z</time>
      </trkpt>
      <trkpt lat="46.56541" lon="5.56001">
        <ele>528.8</ele>
        <time>2022-03-07T11:02:30Z</time>
      </trkpt>
      <trkpt lat="46.56539" lon="5.56002">
        <ele>528.8</ele>
        <time>2022-03-07T11:02:31Z</time>
      </trkpt>
      <trkpt lat="46.56537" lon="5.56002">
        <ele>529</ele>
        <time>2022-03-07T11:02:32Z</time>
      </trkpt>
      <trkpt lat="46.56535" lon="5.56003">
        <ele>529</ele>
        <time>2022-03-07T11:02:33Z</time>
      </trkpt>
      <trkpt lat="46.56533" lon="5.56004">
        <ele>529</ele>
        <time>2022-03-07T11:02:34Z</time>
      </trkpt>
      <trkpt lat="46.56531" lon="5.56005">
        <ele>529.4</ele>
        <time>2022-03-07T11:02:35Z</time>
      </trkpt>
      <trkpt lat="46.5653" lon="5.56006">
        <ele>529.4</ele>
        <time>2022-03-07T11:02:36Z</time>
      </trkpt>
      <trkpt lat="46.56528" lon="5.56008">
        <ele>529.4</ele>
        <time>2022-03-07T11:02:37Z</time>
      </trkpt>
      <trkpt lat="46.56527" lon="5.5601">
        <ele>529.6</ele>
        <time>2022-03-07T11:02:38Z</time>
      </trkpt>
      <trkpt lat="46.56525" lon="5.56012">
        <ele>529.6</ele>
        <time>2022-03-07T11:02:39Z</time>
      </trkpt>
      <trkpt lat="46.56523" lon="5.56014">
        <ele>529.8</ele>
        <time>2022-03-07T11:02:40Z</time>
      </trkpt>
      <trkpt lat="46.56522" lon="5.56016">
        <ele>529.8</ele>
        <time>2022-03-07T11:02:41Z</time>
      </trkpt>
      <trkpt lat="46.5652" lon="5.56018">
        <ele>529.8</ele>
        <time>2022-03-07T11:02:42Z</time>
      </trkpt>
      <trkpt lat="46.56518" lon="5.56019">
        <ele>530</ele>
        <time>2022-03-07T11:02:43Z</time>
      </trkpt>
      <trkpt lat="46.56517" lon="5.56022">
        <ele>530</ele>
        <time>2022-03-07T11:02:44Z</time>
      </trkpt>
      <trkpt lat="46.56515" lon="5.56023">
        <ele>530.4</ele>
        <time>2022-03-07T11:02:45Z</time>
      </trkpt>
      <trkpt lat="46.56513" lon="5.56025">
        <ele>530.6</ele>
        <time>2022-03-07T11:02:46Z</time>
      </trkpt>
      <trkpt lat="46.56511" lon="5.56026">
        <ele>530.8</ele>
        <time>2022-03-07T11:02:47Z</time>
      </trkpt>
      <trkpt lat="46.5651" lon="5.56028">
        <ele>530.8</ele>
        <time>2022-03-07T11:02:48Z</time>
      </trkpt>
      <trkpt lat="46.56507" lon="5.56029">
        <ele>530.8</ele>
        <time>2022-03-07T11:02:49Z</time>
      </trkpt>
      <trkpt lat="46.56505" lon="5.56031">
        <ele>530.8</ele>
        <time>2022-03-07T11:02:50Z</time>
      </trkpt>
      <trkpt lat="46.56503" lon="5.56033">
        <ele>531</ele>
        <time>2022-03-07T11:02:51Z</time>
      </trkpt>
      <trkpt lat="46.56501" lon="5.56035">
        <ele>531</ele>
        <time>2022-03-07T11:02:52Z</time>
      </trkpt>
      <trkpt lat="46.56499" lon="5.56037">
        <ele>531.4</ele>
        <time>2022-03-07T11:02:53Z</time>
      </trkpt>
      <trkpt lat="46.56496" lon="5.56038">
        <ele>531.4</ele>
        <time>2022-03-07T11:02:54Z</time>
      </trkpt>
      <trkpt lat="46.56494" lon="5.56039">
        <ele>531.4</ele>
        <time>2022-03-07T11:02:55Z</time>
      </trkpt>
      <trkpt lat="46.56492" lon="5.56041">
        <ele>531.6</ele>
        <time>2022-03-07T11:02:56Z</time>
      </trkpt>
      <trkpt lat="46.56489" lon="5.56042">
        <ele>531.6</ele>
        <time>2022-03-07T11:02:57Z</time>
      </trkpt>
      <trkpt lat="46.56487" lon="5.56043">
        <ele>531.6</ele>
        <time>2022-03-07T11:02:58Z</time>
      </trkpt>
      <trkpt lat="46.56485" lon="5.56045">
        <ele>531.6</ele>
        <time>2022-03-07T11:02:59Z</time>
      </trkpt>
      <trkpt lat="46.56482" lon="5.56046">
        <ele>532</ele>
        <time>2022-03-07T11:03:00Z</time>
      </trkpt>
      <trkpt lat="46.5648" lon="5.56047">
        <ele>532</ele>
        <time>2022-03-07T11:03:01Z</time>
      </trkpt>
      <trkpt lat="46.56478" lon="5.56049">
        <ele>532.2</ele>
        <time>2022-03-07T11:03:02Z</time>
      </trkpt>
      <trkpt lat="46.56476" lon="5.5605">
        <ele>532.2</ele>
        <time>2022-03-07T11:03:03Z</time>
      </trkpt>
      <trkpt lat="46.56475" lon="5.56052">
        <ele>532.4</ele>
        <time>2022-03-07T11:03:04Z</time>
      </trkpt>
      <trkpt lat="46.56472" lon="5.56053">
        <ele>532.4</ele>
        <time>2022-03-07T11:03:05Z</time>
      </trkpt>
      <trkpt lat="46.56471" lon="5.56053">
        <ele>532.6</ele>
        <time>2022-03-07T11:03:06Z</time>
      </trkpt>
      <trkpt lat="46.56469" lon="5.56054">
        <ele>532.6</ele>
        <time>2022-03-07T11:03:07Z</time>
      </trkpt>
      <trkpt lat="46.56467" lon="5.56055">
        <ele>533</ele>
        <time>2022-03-07T11:03:08Z</time>
      </trkpt>
      <trkpt lat="46.56465" lon="5.56056">
        <ele>533</ele>
        <time>2022-03-07T11:03:09Z</time>
      </trkpt>
      <trkpt lat="46.56463" lon="5.56057">
        <ele>533.2</ele>
        <time>2022-03-07T11:03:10Z</time>
      </trkpt>
      <trkpt lat="46.56462" lon="5.56058">
        <ele>533.2</ele>
        <time>2022-03-07T11:03:11Z</time>
      </trkpt>
      <trkpt lat="46.5646" lon="5.56059">
        <ele>533.6</ele>
        <time>2022-03-07T11:03:12Z</time>
      </trkpt>
      <trkpt lat="46.56459" lon="5.5606">
        <ele>533.6</ele>
        <time>2022-03-07T11:03:13Z</time>
      </trkpt>
      <trkpt lat="46.56457" lon="5.56061">
        <ele>534</ele>
        <time>2022-03-07T11:03:14Z</time>
      </trkpt>
      <trkpt lat="46.56455" lon="5.56062">
        <ele>534.2</ele>
        <time>2022-03-07T11:03:15Z</time>
      </trkpt>
      <trkpt lat="46.56454" lon="5.56063">
        <ele>534.2</ele>
        <time>2022-03-07T11:03:16Z</time>
      </trkpt>
      <trkpt lat="46.56452" lon="5.56063">
        <ele>534.6</ele>
        <time>2022-03-07T11:03:17Z</time>
      </trkpt>
      <trkpt lat="46.5645" lon="5.56064">
        <ele>534.6</ele>
        <time>2022-03-07T11:03:18Z</time>
      </trkpt>
      <trkpt lat="46.56449" lon="5.56065">
        <ele>535</ele>
        <time>2022-03-07T11:03:19Z</time>
      </trkpt>
      <trkpt lat="46.56448" lon="5.56066">
        <ele>535</ele>
        <time>2022-03-07T11:03:20Z</time>
      </trkpt>
      <trkpt lat="46.56446" lon="5.56068">
        <ele>535.2</ele>
        <time>2022-03-07T11:03:21Z</time>
      </trkpt>
      <trkpt lat="46.56444" lon="5.56069">
        <ele>535.2</ele>
        <time>2022-03-07T11:03:22Z</time>
      </trkpt>
      <trkpt lat="46.56443" lon="5.56071">
        <ele>535.6</ele>
        <time>2022-03-07T11:03:23Z</time>
      </trkpt>
      <trkpt lat="46.56441" lon="5.56073">
        <ele>535.6</ele>
        <time>2022-03-07T11:03:24Z</time>
      </trkpt>
      <trkpt lat="46.56439" lon="5.56075">
        <ele>535.8</ele>
        <time>2022-03-07T11:03:25Z</time>
      </trkpt>
      <trkpt lat="46.56438" lon="5.56076">
        <ele>535.8</ele>
        <time>2022-03-07T11:03:26Z</time>
      </trkpt>
      <trkpt lat="46.56437" lon="5.56078">
        <ele>535.8</ele>
        <time>2022-03-07T11:03:27Z</time>
      </trkpt>
      <trkpt lat="46.56435" lon="5.5608">
        <ele>536</ele>
        <time>2022-03-07T11:03:28Z</time>
      </trkpt>
      <trkpt lat="46.56432" lon="5.56082">
        <ele>536</ele>
        <time>2022-03-07T11:03:29Z</time>
      </trkpt>
      <trkpt lat="46.5643" lon="5.56084">
        <ele>536</ele>
        <time>2022-03-07T11:03:30Z</time>
      </trkpt>
      <trkpt lat="46.56428" lon="5.56086">
        <ele>536.2</ele>
        <time>2022-03-07T11:03:31Z</time>
      </trkpt>
      <trkpt lat="46.56425" lon="5.56085">
        <ele>536.2</ele>
        <time>2022-03-07T11:03:32Z</time>
      </trkpt>
      <trkpt lat="46.56423" lon="5.56085">
        <ele>536.2</ele>
        <time>2022-03-07T11:03:33Z</time>
      </trkpt>
      <trkpt lat="46.5642" lon="5.56085">
        <ele>536.2</ele>
        <time>2022-03-07T11:03:34Z</time>
      </trkpt>
      <trkpt lat="46.56415" lon="5.56087">
        <ele>536.6</ele>
        <time>2022-03-07T11:03:35Z</time>
      </trkpt>
      <trkpt lat="46.56413" lon="5.56089">
        <ele>536.6</ele>
        <time>2022-03-07T11:03:36Z</time>
      </trkpt>
      <trkpt lat="46.56412" lon="5.56091">
        <ele>536.6</ele>
        <time>2022-03-07T11:03:37Z</time>
      </trkpt>
      <trkpt lat="46.5641" lon="5.56093">
        <ele>536.6</ele>
        <time>2022-03-07T11:03:38Z</time>
      </trkpt>
      <trkpt lat="46.56408" lon="5.56094">
        <ele>536.8</ele>
        <time>2022-03-07T11:03:39Z</time>
      </trkpt>
      <trkpt lat="46.56406" lon="5.56096">
        <ele>536.8</ele>
        <time>2022-03-07T11:03:40Z</time>
      </trkpt>
      <trkpt lat="46.56404" lon="5.56097">
        <ele>536.8</ele>
        <time>2022-03-07T11:03:41Z</time>
      </trkpt>
      <trkpt lat="46.56401" lon="5.56099">
        <ele>537</ele>
        <time>2022-03-07T11:03:42Z</time>
      </trkpt>
      <trkpt lat="46.56398" lon="5.561">
        <ele>537</ele>
        <time>2022-03-07T11:03:43Z</time>
      </trkpt>
      <trkpt lat="46.56395" lon="5.56101">
        <ele>537</ele>
        <time>2022-03-07T11:03:44Z</time>
      </trkpt>
      <trkpt lat="46.56393" lon="5.56103">
        <ele>537.2</ele>
        <time>2022-03-07T11:03:45Z</time>
      </trkpt>
      <trkpt lat="46.56391" lon="5.56104">
        <ele>537.2</ele>
        <time>2022-03-07T11:03:46Z</time>
      </trkpt>
      <trkpt lat="46.56388" lon="5.56106">
        <ele>537.2</ele>
        <time>2022-03-07T11:03:47Z</time>
      </trkpt>
      <trkpt lat="46.56385" lon="5.56108">
        <ele>537.6</ele>
        <time>2022-03-07T11:03:48Z</time>
      </trkpt>
      <trkpt lat="46.56382" lon="5.56109">
        <ele>537.6</ele>
        <time>2022-03-07T11:03:49Z</time>
      </trkpt>
      <trkpt lat="46.5638" lon="5.56111">
        <ele>537.8</ele>
        <time>2022-03-07T11:03:50Z</time>
      </trkpt>
      <trkpt lat="46.56378" lon="5.56112">
        <ele>537.8</ele>
        <time>2022-03-07T11:03:51Z</time>
      </trkpt>
      <trkpt lat="46.56376" lon="5.56114">
        <ele>537.8</ele>
        <time>2022-03-07T11:03:52Z</time>
      </trkpt>
      <trkpt lat="46.56374" lon="5.56116">
        <ele>538</ele>
        <time>2022-03-07T11:03:53Z</time>
      </trkpt>
      <trkpt lat="46.56371" lon="5.56117">
        <ele>538</ele>
        <time>2022-03-07T11:03:54Z</time>
      </trkpt>
      <trkpt lat="46.56369" lon="5.56118">
        <ele>538</ele>
        <time>2022-03-07T11:03:55Z</time>
      </trkpt>
      <trkpt lat="46.56366" lon="5.56118">
        <ele>538.4</ele>
        <time>2022-03-07T11:03:56Z</time>
      </trkpt>
      <trkpt lat="46.56364" lon="5.56119">
        <ele>538.6</ele>
        <time>2022-03-07T11:03:57Z</time>
      </trkpt>
      <trkpt lat="46.56361" lon="5.56119">
        <ele>538.6</ele>
        <time>2022-03-07T11:03:58Z</time>
      </trkpt>
      <trkpt lat="46.56358" lon="5.56119">
        <ele>538.8</ele>
        <time>2022-03-07T11:03:59Z</time>
      </trkpt>
      <trkpt lat="46.56355" lon="5.5612">
        <ele>538.8</ele>
        <time>2022-03-07T11:04:00Z</time>
      </trkpt>
      <trkpt lat="46.56353" lon="5.56122">
        <ele>539.2</ele>
        <time>2022-03-07T11:04:01Z</time>
      </trkpt>
      <trkpt lat="46.56351" lon="5.56122">
        <ele>539.2</ele>
        <time>2022-03-07T11:04:02Z</time>
      </trkpt>
      <trkpt lat="46.5635" lon="5.56123">
        <ele>539.4</ele>
        <time>2022-03-07T11:04:03Z</time>
      </trkpt>
      <trkpt lat="46.56347" lon="5.56123">
        <ele>539.4</ele>
        <time>2022-03-07T11:04:04Z</time>
      </trkpt>
      <trkpt lat="46.56345" lon="5.56124">
        <ele>539.8</ele>
        <time>2022-03-07T11:04:05Z</time>
      </trkpt>
      <trkpt lat="46.56342" lon="5.56124">
        <ele>540</ele>
        <time>2022-03-07T11:04:06Z</time>
      </trkpt>
      <trkpt lat="46.56339" lon="5.56124">
        <ele>540</ele>
        <time>2022-03-07T11:04:07Z</time>
      </trkpt>
      <trkpt lat="46.56335" lon="5.56124">
        <ele>540.4</ele>
        <time>2022-03-07T11:04:08Z</time>
      </trkpt>
      <trkpt lat="46.56332" lon="5.56124">
        <ele>540.4</ele>
        <time>2022-03-07T11:04:09Z</time>
      </trkpt>
      <trkpt lat="46.56329" lon="5.56124">
        <ele>540.8</ele>
        <time>2022-03-07T11:04:10Z</time>
      </trkpt>
      <trkpt lat="46.56327" lon="5.56124">
        <ele>540.8</ele>
        <time>2022-03-07T11:04:11Z</time>
      </trkpt>
      <trkpt lat="46.56323" lon="5.56124">
        <ele>541</ele>
        <time>2022-03-07T11:04:12Z</time>
      </trkpt>
      <trkpt lat="46.5632" lon="5.56124">
        <ele>541</ele>
        <time>2022-03-07T11:04:13Z</time>
      </trkpt>
      <trkpt lat="46.56316" lon="5.56124">
        <ele>541.2</ele>
        <time>2022-03-07T11:04:14Z</time>
      </trkpt>
      <trkpt lat="46.56313" lon="5.56124">
        <ele>541.2</ele>
        <time>2022-03-07T11:04:15Z</time>
      </trkpt>
      <trkpt lat="46.5631" lon="5.56124">
        <ele>541.2</ele>
        <time>2022-03-07T11:04:16Z</time>
      </trkpt>
      <trkpt lat="46.56307" lon="5.56123">
        <ele>541.6</ele>
        <time>2022-03-07T11:04:17Z</time>
      </trkpt>
      <trkpt lat="46.56304" lon="5.56123">
        <ele>541.6</ele>
        <time>2022-03-07T11:04:18Z</time>
      </trkpt>
      <trkpt lat="46.56301" lon="5.56123">
        <ele>541.8</ele>
        <time>2022-03-07T11:04:19Z</time>
      </trkpt>
      <trkpt lat="46.56298" lon="5.56123">
        <ele>541.8</ele>
        <time>2022-03-07T11:04:20Z</time>
      </trkpt>
      <trkpt lat="46.56295" lon="5.56123">
        <ele>541.8</ele>
        <time>2022-03-07T11:04:21Z</time>
      </trkpt>
      <trkpt lat="46.56292" lon="5.56123">
        <ele>542</ele>
        <time>2022-03-07T11:04:22Z</time>
      </trkpt>
      <trkpt lat="46.56289" lon="5.56123">
        <ele>542</ele>
        <time>2022-03-07T11:04:23Z</time>
      </trkpt>
      <trkpt lat="46.56286" lon="5.56122">
        <ele>542</ele>
        <time>2022-03-07T11:04:24Z</time>
      </trkpt>
      <trkpt lat="46.56282" lon="5.56121">
        <ele>542</ele>
        <time>2022-03-07T11:04:25Z</time>
      </trkpt>
      <trkpt lat="46.56279" lon="5.5612">
        <ele>542.4</ele>
        <time>2022-03-07T11:04:26Z</time>
      </trkpt>
      <trkpt lat="46.56275" lon="5.56119">
        <ele>542.4</ele>
        <time>2022-03-07T11:04:27Z</time>
      </trkpt>
      <trkpt lat="46.56272" lon="5.56118">
        <ele>542.6</ele>
        <time>2022-03-07T11:04:28Z</time>
      </trkpt>
      <trkpt lat="46.56268" lon="5.56118">
        <ele>542.6</ele>
        <time>2022-03-07T11:04:29Z</time>
      </trkpt>
      <trkpt lat="46.56266" lon="5.56118">
        <ele>542.8</ele>
        <time>2022-03-07T11:04:30Z</time>
      </trkpt>
      <trkpt lat="46.56263" lon="5.56118">
        <ele>542.8</ele>
        <time>2022-03-07T11:04:31Z</time>
      </trkpt>
      <trkpt lat="46.56261" lon="5.56118">
        <ele>543</ele>
        <time>2022-03-07T11:04:32Z</time>
      </trkpt>
      <trkpt lat="46.56257" lon="5.56117">
        <ele>543</ele>
        <time>2022-03-07T11:04:33Z</time>
      </trkpt>
      <trkpt lat="46.56255" lon="5.56118">
        <ele>543.4</ele>
        <time>2022-03-07T11:04:34Z</time>
      </trkpt>
      <trkpt lat="46.56253" lon="5.56118">
        <ele>543.4</ele>
        <time>2022-03-07T11:04:35Z</time>
      </trkpt>
      <trkpt lat="46.5625" lon="5.56118">
        <ele>543.8</ele>
        <time>2022-03-07T11:04:36Z</time>
      </trkpt>
      <trkpt lat="46.56248" lon="5.56117">
        <ele>544</ele>
        <time>2022-03-07T11:04:37Z</time>
      </trkpt>
      <trkpt lat="46.56245" lon="5.56117">
        <ele>544</ele>
        <time>2022-03-07T11:04:38Z</time>
      </trkpt>
      <trkpt lat="46.56243" lon="5.56117">
        <ele>544.2</ele>
        <time>2022-03-07T11:04:39Z</time>
      </trkpt>
      <trkpt lat="46.5624" lon="5.56116">
        <ele>544.2</ele>
        <time>2022-03-07T11:04:40Z</time>
      </trkpt>
      <trkpt lat="46.56237" lon="5.56116">
        <ele>544.4</ele>
        <time>2022-03-07T11:04:41Z</time>
      </trkpt>
      <trkpt lat="46.56234" lon="5.56116">
        <ele>544.4</ele>
        <time>2022-03-07T11:04:42Z</time>
      </trkpt>
      <trkpt lat="46.56231" lon="5.56115">
        <ele>544.4</ele>
        <time>2022-03-07T11:04:43Z</time>
      </trkpt>
      <trkpt lat="46.56227" lon="5.56114">
        <ele>544.6</ele>
        <time>2022-03-07T11:04:44Z</time>
      </trkpt>
      <trkpt lat="46.56224" lon="5.56114">
        <ele>544.6</ele>
        <time>2022-03-07T11:04:45Z</time>
      </trkpt>
      <trkpt lat="46.56222" lon="5.56114">
        <ele>545</ele>
        <time>2022-03-07T11:04:46Z</time>
      </trkpt>
      <trkpt lat="46.56219" lon="5.56113">
        <ele>545</ele>
        <time>2022-03-07T11:04:47Z</time>
      </trkpt>
      <trkpt lat="46.56216" lon="5.56113">
        <ele>545.2</ele>
        <time>2022-03-07T11:04:48Z</time>
      </trkpt>
      <trkpt lat="46.56214" lon="5.56112">
        <ele>545.2</ele>
        <time>2022-03-07T11:04:49Z</time>
      </trkpt>
      <trkpt lat="46.56212" lon="5.56111">
        <ele>545.4</ele>
        <time>2022-03-07T11:04:50Z</time>
      </trkpt>
      <trkpt lat="46.56209" lon="5.56111">
        <ele>545.4</ele>
        <time>2022-03-07T11:04:51Z</time>
      </trkpt>
      <trkpt lat="46.56206" lon="5.5611">
        <ele>545.8</ele>
        <time>2022-03-07T11:04:52Z</time>
      </trkpt>
      <trkpt lat="46.56203" lon="5.56109">
        <ele>545.8</ele>
        <time>2022-03-07T11:04:53Z</time>
      </trkpt>
      <trkpt lat="46.56201" lon="5.56108">
        <ele>546.2</ele>
        <time>2022-03-07T11:04:54Z</time>
      </trkpt>
      <trkpt lat="46.56198" lon="5.56108">
        <ele>546.6</ele>
        <time>2022-03-07T11:04:55Z</time>
      </trkpt>
      <trkpt lat="46.56196" lon="5.56107">
        <ele>546.8</ele>
        <time>2022-03-07T11:04:56Z</time>
      </trkpt>
      <trkpt lat="46.56194" lon="5.56107">
        <ele>547</ele>
        <time>2022-03-07T11:04:57Z</time>
      </trkpt>
      <trkpt lat="46.56192" lon="5.56106">
        <ele>547.4</ele>
        <time>2022-03-07T11:04:58Z</time>
      </trkpt>
      <trkpt lat="46.56189" lon="5.56107">
        <ele>547.6</ele>
        <time>2022-03-07T11:04:59Z</time>
      </trkpt>
      <trkpt lat="46.56187" lon="5.56107">
        <ele>547.8</ele>
        <time>2022-03-07T11:05:00Z</time>
      </trkpt>
      <trkpt lat="46.56185" lon="5.56108">
        <ele>548</ele>
        <time>2022-03-07T11:05:01Z</time>
      </trkpt>
      <trkpt lat="46.56183" lon="5.56108">
        <ele>548.4</ele>
        <time>2022-03-07T11:05:02Z</time>
      </trkpt>
      <trkpt lat="46.5618" lon="5.56109">
        <ele>548.4</ele>
        <time>2022-03-07T11:05:03Z</time>
      </trkpt>
      <trkpt lat="46.56178" lon="5.56109">
        <ele>548.8</ele>
        <time>2022-03-07T11:05:04Z</time>
      </trkpt>
      <trkpt lat="46.56175" lon="5.56111">
        <ele>548.8</ele>
        <time>2022-03-07T11:05:05Z</time>
      </trkpt>
      <trkpt lat="46.56174" lon="5.56113">
        <ele>549.2</ele>
        <time>2022-03-07T11:05:06Z</time>
      </trkpt>
      <trkpt lat="46.56171" lon="5.56114">
        <ele>549.2</ele>
        <time>2022-03-07T11:05:07Z</time>
      </trkpt>
      <trkpt lat="46.56169" lon="5.56116">
        <ele>549.2</ele>
        <time>2022-03-07T11:05:08Z</time>
      </trkpt>
      <trkpt lat="46.56167" lon="5.56118">
        <ele>549.4</ele>
        <time>2022-03-07T11:05:09Z</time>
      </trkpt>
      <trkpt lat="46.56165" lon="5.5612">
        <ele>549.4</ele>
        <time>2022-03-07T11:05:10Z</time>
      </trkpt>
      <trkpt lat="46.56163" lon="5.56122">
        <ele>549.4</ele>
        <time>2022-03-07T11:05:11Z</time>
      </trkpt>
      <trkpt lat="46.56161" lon="5.56124">
        <ele>549.4</ele>
        <time>2022-03-07T11:05:12Z</time>
      </trkpt>
      <trkpt lat="46.56159" lon="5.56125">
        <ele>549.8</ele>
        <time>2022-03-07T11:05:13Z</time>
      </trkpt>
      <trkpt lat="46.56156" lon="5.56126">
        <ele>549.8</ele>
        <time>2022-03-07T11:05:14Z</time>
      </trkpt>
      <trkpt lat="46.56154" lon="5.56128">
        <ele>549.8</ele>
        <time>2022-03-07T11:05:15Z</time>
      </trkpt>
      <trkpt lat="46.56152" lon="5.56129">
        <ele>549.8</ele>
        <time>2022-03-07T11:05:16Z</time>
      </trkpt>
      <trkpt lat="46.5615" lon="5.5613">
        <ele>549.8</ele>
        <time>2022-03-07T11:05:17Z</time>
      </trkpt>
      <trkpt lat="46.56149" lon="5.56131">
        <ele>549.8</ele>
        <time>2022-03-07T11:05:18Z</time>
      </trkpt>
      <trkpt lat="46.56146" lon="5.56131">
        <ele>549.8</ele>
        <time>2022-03-07T11:05:19Z</time>
      </trkpt>
      <trkpt lat="46.56144" lon="5.56131">
        <ele>550</ele>
        <time>2022-03-07T11:05:20Z</time>
      </trkpt>
      <trkpt lat="46.56142" lon="5.56132">
        <ele>550</ele>
        <time>2022-03-07T11:05:21Z</time>
      </trkpt>
      <trkpt lat="46.5614" lon="5.56133">
        <ele>550</ele>
        <time>2022-03-07T11:05:22Z</time>
      </trkpt>
      <trkpt lat="46.56137" lon="5.56133">
        <ele>550</ele>
        <time>2022-03-07T11:05:23Z</time>
      </trkpt>
      <trkpt lat="46.56134" lon="5.56135">
        <ele>550</ele>
        <time>2022-03-07T11:05:24Z</time>
      </trkpt>
      <trkpt lat="46.56131" lon="5.56135">
        <ele>550</ele>
        <time>2022-03-07T11:05:25Z</time>
      </trkpt>
      <trkpt lat="46.56127" lon="5.56136">
        <ele>550</ele>
        <time>2022-03-07T11:05:26Z</time>
      </trkpt>
      <trkpt lat="46.56124" lon="5.56137">
        <ele>549.8</ele>
        <time>2022-03-07T11:05:27Z</time>
      </trkpt>
      <trkpt lat="46.5612" lon="5.56138">
        <ele>549.8</ele>
        <time>2022-03-07T11:05:28Z</time>
      </trkpt>
      <trkpt lat="46.56116" lon="5.56139">
        <ele>549.6</ele>
        <time>2022-03-07T11:05:29Z</time>
      </trkpt>
      <trkpt lat="46.56112" lon="5.5614">
        <ele>549.6</ele>
        <time>2022-03-07T11:05:30Z</time>
      </trkpt>
      <trkpt lat="46.56108" lon="5.5614">
        <ele>549.6</ele>
        <time>2022-03-07T11:05:31Z</time>
      </trkpt>
      <trkpt lat="46.56104" lon="5.56141">
        <ele>549.2</ele>
        <time>2022-03-07T11:05:32Z</time>
      </trkpt>
      <trkpt lat="46.561" lon="5.56142">
        <ele>549.2</ele>
        <time>2022-03-07T11:05:33Z</time>
      </trkpt>
      <trkpt lat="46.56096" lon="5.56143">
        <ele>549.2</ele>
        <time>2022-03-07T11:05:34Z</time>
      </trkpt>
      <trkpt lat="46.56093" lon="5.56145">
        <ele>549.2</ele>
        <time>2022-03-07T11:05:35Z</time>
      </trkpt>
      <trkpt lat="46.5609" lon="5.56148">
        <ele>549.6</ele>
        <time>2022-03-07T11:05:36Z</time>
      </trkpt>
      <trkpt lat="46.56087" lon="5.5615">
        <ele>549.6</ele>
        <time>2022-03-07T11:05:37Z</time>
      </trkpt>
      <trkpt lat="46.56084" lon="5.56153">
        <ele>549.8</ele>
        <time>2022-03-07T11:05:38Z</time>
      </trkpt>
      <trkpt lat="46.56081" lon="5.56154">
        <ele>549.8</ele>
        <time>2022-03-07T11:05:39Z</time>
      </trkpt>
      <trkpt lat="46.56078" lon="5.56157">
        <ele>549.8</ele>
        <time>2022-03-07T11:05:40Z</time>
      </trkpt>
      <trkpt lat="46.56075" lon="5.5616">
        <ele>549.8</ele>
        <time>2022-03-07T11:05:41Z</time>
      </trkpt>
      <trkpt lat="46.56072" lon="5.56164">
        <ele>549.8</ele>
        <time>2022-03-07T11:05:42Z</time>
      </trkpt>
      <trkpt lat="46.5607" lon="5.56169">
        <ele>549.8</ele>
        <time>2022-03-07T11:05:43Z</time>
      </trkpt>
      <trkpt lat="46.56068" lon="5.56174">
        <ele>549.8</ele>
        <time>2022-03-07T11:05:44Z</time>
      </trkpt>
      <trkpt lat="46.56067" lon="5.56179">
        <ele>549.8</ele>
        <time>2022-03-07T11:05:45Z</time>
      </trkpt>
      <trkpt lat="46.56066" lon="5.56184">
        <ele>549.8</ele>
        <time>2022-03-07T11:05:46Z</time>
      </trkpt>
      <trkpt lat="46.56064" lon="5.5619">
        <ele>549.6</ele>
        <time>2022-03-07T11:05:47Z</time>
      </trkpt>
      <trkpt lat="46.56063" lon="5.56196">
        <ele>549.6</ele>
        <time>2022-03-07T11:05:48Z</time>
      </trkpt>
      <trkpt lat="46.56061" lon="5.56201">
        <ele>549.6</ele>
        <time>2022-03-07T11:05:49Z</time>
      </trkpt>
      <trkpt lat="46.56059" lon="5.56206">
        <ele>549.2</ele>
        <time>2022-03-07T11:05:50Z</time>
      </trkpt>
      <trkpt lat="46.56057" lon="5.56211">
        <ele>549.2</ele>
        <time>2022-03-07T11:05:51Z</time>
      </trkpt>
      <trkpt lat="46.56055" lon="5.56215">
        <ele>549.2</ele>
        <time>2022-03-07T11:05:52Z</time>
      </trkpt>
      <trkpt lat="46.56053" lon="5.56219">
        <ele>549</ele>
        <time>2022-03-07T11:05:53Z</time>
      </trkpt>
      <trkpt lat="46.56051" lon="5.56223">
        <ele>549</ele>
        <time>2022-03-07T11:05:54Z</time>
      </trkpt>
      <trkpt lat="46.56049" lon="5.56226">
        <ele>549</ele>
        <time>2022-03-07T11:05:55Z</time>
      </trkpt>
      <trkpt lat="46.56046" lon="5.56228">
        <ele>549</ele>
        <time>2022-03-07T11:05:56Z</time>
      </trkpt>
      <trkpt lat="46.56044" lon="5.56232">
        <ele>548.8</ele>
        <time>2022-03-07T11:05:57Z</time>
      </trkpt>
      <trkpt lat="46.56041" lon="5.56236">
        <ele>548.8</ele>
        <time>2022-03-07T11:05:58Z</time>
      </trkpt>
      <trkpt lat="46.56039" lon="5.5624">
        <ele>548.4</ele>
        <time>2022-03-07T11:05:59Z</time>
      </trkpt>
      <trkpt lat="46.56036" lon="5.56244">
        <ele>548.2</ele>
        <time>2022-03-07T11:06:00Z</time>
      </trkpt>
      <trkpt lat="46.56033" lon="5.56248">
        <ele>547.8</ele>
        <time>2022-03-07T11:06:01Z</time>
      </trkpt>
      <trkpt lat="46.5603" lon="5.56251">
        <ele>547.4</ele>
        <time>2022-03-07T11:06:02Z</time>
      </trkpt>
      <trkpt lat="46.56027" lon="5.56253">
        <ele>547</ele>
        <time>2022-03-07T11:06:03Z</time>
      </trkpt>
      <trkpt lat="46.56025" lon="5.56255">
        <ele>546.8</ele>
        <time>2022-03-07T11:06:04Z</time>
      </trkpt>
      <trkpt lat="46.56023" lon="5.56256">
        <ele>546.4</ele>
        <time>2022-03-07T11:06:05Z</time>
      </trkpt>
      <trkpt lat="46.56023" lon="5.56257">
        <ele>546.2</ele>
        <time>2022-03-07T11:06:06Z</time>
      </trkpt>
      <trkpt lat="46.56022" lon="5.56257">
        <ele>546.2</ele>
        <time>2022-03-07T11:06:07Z</time>
      </trkpt>
      <trkpt lat="46.56022" lon="5.56257">
        <ele>546</ele>
        <time>2022-03-07T11:06:08Z</time>
      </trkpt>
      <trkpt lat="46.56022" lon="5.56258">
        <ele>546</ele>
        <time>2022-03-07T11:06:09Z</time>
      </trkpt>
      <trkpt lat="46.56021" lon="5.56258">
        <ele>546</ele>
        <time>2022-03-07T11:06:10Z</time>
      </trkpt>
      <trkpt lat="46.56021" lon="5.56258">
        <ele>546</ele>
        <time>2022-03-07T11:06:11Z</time>
      </trkpt>
      <trkpt lat="46.5602" lon="5.56258">
        <ele>545.8</ele>
        <time>2022-03-07T11:06:12Z</time>
      </trkpt>
      <trkpt lat="46.5602" lon="5.56259">
        <ele>545.8</ele>
        <time>2022-03-07T11:06:13Z</time>
      </trkpt>
      <trkpt lat="46.5602" lon="5.56259">
        <ele>545.8</ele>
        <time>2022-03-07T11:06:14Z</time>
      </trkpt>
      <trkpt lat="46.56019" lon="5.56259">
        <ele>545.8</ele>
        <time>2022-03-07T11:06:15Z</time>
      </trkpt>
      <trkpt lat="46.56019" lon="5.56259">
        <ele>545.8</ele>
        <time>2022-03-07T11:08:44Z</time>
      </trkpt>
      <trkpt lat="46.56018" lon="5.5626">
        <ele>545.8</ele>
        <time>2022-03-07T11:08:45Z</time>
      </trkpt>
      <trkpt lat="46.56018" lon="5.5626">
        <ele>545.8</ele>
        <time>2022-03-07T11:08:48Z</time>
      </trkpt>
      <trkpt lat="46.56018" lon="5.5626">
        <ele>546</ele>
        <time>2022-03-07T11:08:49Z</time>
      </trkpt>
      <trkpt lat="46.56017" lon="5.5626">
        <ele>546</ele>
        <time>2022-03-07T11:09:00Z</time>
      </trkpt>
      <trkpt lat="46.56017" lon="5.56261">
        <ele>546</ele>
        <time>2022-03-07T11:09:01Z</time>
      </trkpt>
      <trkpt lat="46.56016" lon="5.56261">
        <ele>546</ele>
        <time>2022-03-07T11:09:02Z</time>
      </trkpt>
      <trkpt lat="46.56016" lon="5.56261">
        <ele>546</ele>
        <time>2022-03-07T11:09:03Z</time>
      </trkpt>
      <trkpt lat="46.56016" lon="5.56262">
        <ele>546</ele>
        <time>2022-03-07T11:09:04Z</time>
      </trkpt>
      <trkpt lat="46.56014" lon="5.56264">
        <ele>546</ele>
        <time>2022-03-07T11:09:05Z</time>
      </trkpt>
      <trkpt lat="46.56013" lon="5.56267">
        <ele>546</ele>
        <time>2022-03-07T11:09:06Z</time>
      </trkpt>
      <trkpt lat="46.5601" lon="5.56271">
        <ele>545.8</ele>
        <time>2022-03-07T11:09:07Z</time>
      </trkpt>
      <trkpt lat="46.56008" lon="5.56275">
        <ele>545.6</ele>
        <time>2022-03-07T11:09:08Z</time>
      </trkpt>
      <trkpt lat="46.56005" lon="5.56279">
        <ele>545.2</ele>
        <time>2022-03-07T11:09:09Z</time>
      </trkpt>
      <trkpt lat="46.56002" lon="5.56285">
        <ele>545</ele>
        <time>2022-03-07T11:09:10Z</time>
      </trkpt>
      <trkpt lat="46.56" lon="5.5629">
        <ele>544.8</ele>
        <time>2022-03-07T11:09:11Z</time>
      </trkpt>
      <trkpt lat="46.55997" lon="5.56296">
        <ele>544.6</ele>
        <time>2022-03-07T11:09:12Z</time>
      </trkpt>
      <trkpt lat="46.55994" lon="5.56301">
        <ele>544.4</ele>
        <time>2022-03-07T11:09:13Z</time>
      </trkpt>
      <trkpt lat="46.55992" lon="5.56306">
        <ele>544.4</ele>
        <time>2022-03-07T11:09:14Z</time>
      </trkpt>
      <trkpt lat="46.5599" lon="5.56311">
        <ele>544</ele>
        <time>2022-03-07T11:09:15Z</time>
      </trkpt>
      <trkpt lat="46.55988" lon="5.56316">
        <ele>543.8</ele>
        <time>2022-03-07T11:09:16Z</time>
      </trkpt>
      <trkpt lat="46.55986" lon="5.5632">
        <ele>543.8</ele>
        <time>2022-03-07T11:09:17Z</time>
      </trkpt>
      <trkpt lat="46.55985" lon="5.56325">
        <ele>543.4</ele>
        <time>2022-03-07T11:09:18Z</time>
      </trkpt>
      <trkpt lat="46.55984" lon="5.56329">
        <ele>543.4</ele>
        <time>2022-03-07T11:09:19Z</time>
      </trkpt>
      <trkpt lat="46.55983" lon="5.56332">
        <ele>543.2</ele>
        <time>2022-03-07T11:09:20Z</time>
      </trkpt>
      <trkpt lat="46.55982" lon="5.56335">
        <ele>543.2</ele>
        <time>2022-03-07T11:09:21Z</time>
      </trkpt>
      <trkpt lat="46.55981" lon="5.56338">
        <ele>543</ele>
        <time>2022-03-07T11:09:22Z</time>
      </trkpt>
      <trkpt lat="46.5598" lon="5.56341">
        <ele>543</ele>
        <time>2022-03-07T11:09:23Z</time>
      </trkpt>
      <trkpt lat="46.55979" lon="5.56344">
        <ele>543</ele>
        <time>2022-03-07T11:09:24Z</time>
      </trkpt>
      <trkpt lat="46.55977" lon="5.56346">
        <ele>543</ele>
        <time>2022-03-07T11:09:25Z</time>
      </trkpt>
      <trkpt lat="46.55976" lon="5.56349">
        <ele>542.8</ele>
        <time>2022-03-07T11:09:26Z</time>
      </trkpt>
      <trkpt lat="46.55975" lon="5.5635">
        <ele>542.8</ele>
        <time>2022-03-07T11:09:27Z</time>
      </trkpt>
      <trkpt lat="46.55974" lon="5.56352">
        <ele>542.4</ele>
        <time>2022-03-07T11:09:28Z</time>
      </trkpt>
      <trkpt lat="46.55973" lon="5.56354">
        <ele>542.4</ele>
        <time>2022-03-07T11:09:29Z</time>
      </trkpt>
      <trkpt lat="46.55972" lon="5.56356">
        <ele>542.4</ele>
        <time>2022-03-07T11:09:30Z</time>
      </trkpt>
      <trkpt lat="46.55971" lon="5.56358">
        <ele>542.4</ele>
        <time>2022-03-07T11:09:31Z</time>
      </trkpt>
      <trkpt lat="46.5597" lon="5.56359">
        <ele>542.4</ele>
        <time>2022-03-07T11:09:32Z</time>
      </trkpt>
      <trkpt lat="46.55968" lon="5.56361">
        <ele>542.4</ele>
        <time>2022-03-07T11:09:33Z</time>
      </trkpt>
      <trkpt lat="46.55967" lon="5.56362">
        <ele>542.4</ele>
        <time>2022-03-07T11:09:34Z</time>
      </trkpt>
      <trkpt lat="46.55966" lon="5.56364">
        <ele>542.4</ele>
        <time>2022-03-07T11:09:35Z</time>
      </trkpt>
      <trkpt lat="46.55965" lon="5.56365">
        <ele>542.4</ele>
        <time>2022-03-07T11:09:36Z</time>
      </trkpt>
      <trkpt lat="46.55964" lon="5.56367">
        <ele>542.4</ele>
        <time>2022-03-07T11:09:37Z</time>
      </trkpt>
      <trkpt lat="46.55962" lon="5.56368">
        <ele>542.4</ele>
        <time>2022-03-07T11:09:38Z</time>
      </trkpt>
      <trkpt lat="46.5596" lon="5.5637">
        <ele>542.4</ele>
        <time>2022-03-07T11:09:39Z</time>
      </trkpt>
      <trkpt lat="46.55959" lon="5.56372">
        <ele>542.4</ele>
        <time>2022-03-07T11:09:40Z</time>
      </trkpt>
      <trkpt lat="46.55957" lon="5.56374">
        <ele>542.4</ele>
        <time>2022-03-07T11:09:41Z</time>
      </trkpt>
      <trkpt lat="46.55956" lon="5.56375">
        <ele>542.4</ele>
        <time>2022-03-07T11:09:42Z</time>
      </trkpt>
      <trkpt lat="46.55953" lon="5.56377">
        <ele>542.6</ele>
        <time>2022-03-07T11:09:43Z</time>
      </trkpt>
      <trkpt lat="46.55951" lon="5.56378">
        <ele>542.6</ele>
        <time>2022-03-07T11:09:44Z</time>
      </trkpt>
      <trkpt lat="46.55949" lon="5.5638">
        <ele>542.6</ele>
        <time>2022-03-07T11:09:45Z</time>
      </trkpt>
      <trkpt lat="46.55946" lon="5.56382">
        <ele>542.6</ele>
        <time>2022-03-07T11:09:46Z</time>
      </trkpt>
      <trkpt lat="46.55944" lon="5.56384">
        <ele>542.6</ele>
        <time>2022-03-07T11:09:47Z</time>
      </trkpt>
      <trkpt lat="46.55941" lon="5.56385">
        <ele>542.6</ele>
        <time>2022-03-07T11:09:48Z</time>
      </trkpt>
      <trkpt lat="46.55938" lon="5.56385">
        <ele>542.6</ele>
        <time>2022-03-07T11:09:49Z</time>
      </trkpt>
      <trkpt lat="46.55936" lon="5.56386">
        <ele>542.6</ele>
        <time>2022-03-07T11:09:50Z</time>
      </trkpt>
      <trkpt lat="46.55934" lon="5.56386">
        <ele>543</ele>
        <time>2022-03-07T11:09:51Z</time>
      </trkpt>
      <trkpt lat="46.55931" lon="5.56386">
        <ele>543</ele>
        <time>2022-03-07T11:09:52Z</time>
      </trkpt>
      <trkpt lat="46.55929" lon="5.56386">
        <ele>543</ele>
        <time>2022-03-07T11:09:53Z</time>
      </trkpt>
      <trkpt lat="46.55927" lon="5.56386">
        <ele>543</ele>
        <time>2022-03-07T11:09:54Z</time>
      </trkpt>
      <trkpt lat="46.55924" lon="5.56385">
        <ele>543.2</ele>
        <time>2022-03-07T11:09:55Z</time>
      </trkpt>
      <trkpt lat="46.55922" lon="5.56385">
        <ele>543.2</ele>
        <time>2022-03-07T11:09:56Z</time>
      </trkpt>
      <trkpt lat="46.5592" lon="5.56385">
        <ele>543.2</ele>
        <time>2022-03-07T11:09:57Z</time>
      </trkpt>
      <trkpt lat="46.55918" lon="5.56385">
        <ele>543.2</ele>
        <time>2022-03-07T11:09:58Z</time>
      </trkpt>
      <trkpt lat="46.55916" lon="5.56385">
        <ele>543.2</ele>
        <time>2022-03-07T11:09:59Z</time>
      </trkpt>
      <trkpt lat="46.55913" lon="5.56385">
        <ele>543.4</ele>
        <time>2022-03-07T11:10:00Z</time>
      </trkpt>
      <trkpt lat="46.55911" lon="5.56384">
        <ele>543.4</ele>
        <time>2022-03-07T11:10:01Z</time>
      </trkpt>
      <trkpt lat="46.55909" lon="5.56384">
        <ele>543.4</ele>
        <time>2022-03-07T11:10:02Z</time>
      </trkpt>
      <trkpt lat="46.55907" lon="5.56383">
        <ele>543.4</ele>
        <time>2022-03-07T11:10:03Z</time>
      </trkpt>
      <trkpt lat="46.55905" lon="5.56383">
        <ele>543.4</ele>
        <time>2022-03-07T11:10:04Z</time>
      </trkpt>
      <trkpt lat="46.55903" lon="5.56382">
        <ele>543.4</ele>
        <time>2022-03-07T11:10:05Z</time>
      </trkpt>
      <trkpt lat="46.55901" lon="5.56381">
        <ele>543.4</ele>
        <time>2022-03-07T11:10:06Z</time>
      </trkpt>
      <trkpt lat="46.55899" lon="5.5638">
        <ele>543.4</ele>
        <time>2022-03-07T11:10:07Z</time>
      </trkpt>
      <trkpt lat="46.55898" lon="5.56379">
        <ele>543.4</ele>
        <time>2022-03-07T11:10:08Z</time>
      </trkpt>
      <trkpt lat="46.55896" lon="5.56378">
        <ele>543.4</ele>
        <time>2022-03-07T11:10:09Z</time>
      </trkpt>
      <trkpt lat="46.55893" lon="5.56378">
        <ele>543.4</ele>
        <time>2022-03-07T11:10:10Z</time>
      </trkpt>
      <trkpt lat="46.55891" lon="5.56377">
        <ele>543.4</ele>
        <time>2022-03-07T11:10:11Z</time>
      </trkpt>
      <trkpt lat="46.55889" lon="5.56377">
        <ele>543.4</ele>
        <time>2022-03-07T11:10:12Z</time>
      </trkpt>
      <trkpt lat="46.55887" lon="5.56376">
        <ele>543.4</ele>
        <time>2022-03-07T11:10:13Z</time>
      </trkpt>
      <trkpt lat="46.55885" lon="5.56375">
        <ele>543.4</ele>
        <time>2022-03-07T11:10:14Z</time>
      </trkpt>
      <trkpt lat="46.55883" lon="5.56374">
        <ele>543.4</ele>
        <time>2022-03-07T11:10:15Z</time>
      </trkpt>
      <trkpt lat="46.55881" lon="5.56373">
        <ele>543.6</ele>
        <time>2022-03-07T11:10:16Z</time>
      </trkpt>
      <trkpt lat="46.55879" lon="5.56372">
        <ele>543.8</ele>
        <time>2022-03-07T11:10:17Z</time>
      </trkpt>
      <trkpt lat="46.55877" lon="5.56371">
        <ele>543.8</ele>
        <time>2022-03-07T11:10:18Z</time>
      </trkpt>
      <trkpt lat="46.55874" lon="5.5637">
        <ele>543.8</ele>
        <time>2022-03-07T11:10:19Z</time>
      </trkpt>
      <trkpt lat="46.55872" lon="5.56369">
        <ele>544</ele>
        <time>2022-03-07T11:10:20Z</time>
      </trkpt>
      <trkpt lat="46.5587" lon="5.56369">
        <ele>544</ele>
        <time>2022-03-07T11:10:21Z</time>
      </trkpt>
      <trkpt lat="46.55867" lon="5.56369">
        <ele>544.2</ele>
        <time>2022-03-07T11:10:22Z</time>
      </trkpt>
      <trkpt lat="46.55865" lon="5.56369">
        <ele>544.2</ele>
        <time>2022-03-07T11:10:23Z</time>
      </trkpt>
      <trkpt lat="46.55863" lon="5.56369">
        <ele>544.6</ele>
        <time>2022-03-07T11:10:24Z</time>
      </trkpt>
      <trkpt lat="46.5586" lon="5.56368">
        <ele>544.6</ele>
        <time>2022-03-07T11:10:25Z</time>
      </trkpt>
      <trkpt lat="46.55858" lon="5.56368">
        <ele>544.6</ele>
        <time>2022-03-07T11:10:26Z</time>
      </trkpt>
      <trkpt lat="46.55855" lon="5.56367">
        <ele>544.8</ele>
        <time>2022-03-07T11:10:27Z</time>
      </trkpt>
      <trkpt lat="46.55853" lon="5.56367">
        <ele>544.8</ele>
        <time>2022-03-07T11:10:28Z</time>
      </trkpt>
      <trkpt lat="46.55851" lon="5.56367">
        <ele>544.8</ele>
        <time>2022-03-07T11:10:29Z</time>
      </trkpt>
      <trkpt lat="46.55849" lon="5.56366">
        <ele>545</ele>
        <time>2022-03-07T11:10:30Z</time>
      </trkpt>
      <trkpt lat="46.55846" lon="5.56366">
        <ele>545</ele>
        <time>2022-03-07T11:10:31Z</time>
      </trkpt>
      <trkpt lat="46.55844" lon="5.56366">
        <ele>545.2</ele>
        <time>2022-03-07T11:10:32Z</time>
      </trkpt>
      <trkpt lat="46.55842" lon="5.56366">
        <ele>545.2</ele>
        <time>2022-03-07T11:10:33Z</time>
      </trkpt>
      <trkpt lat="46.5584" lon="5.56366">
        <ele>545.2</ele>
        <time>2022-03-07T11:10:34Z</time>
      </trkpt>
      <trkpt lat="46.55838" lon="5.56366">
        <ele>545.2</ele>
        <time>2022-03-07T11:10:35Z</time>
      </trkpt>
      <trkpt lat="46.55836" lon="5.56366">
        <ele>545.2</ele>
        <time>2022-03-07T11:10:36Z</time>
      </trkpt>
      <trkpt lat="46.55833" lon="5.56366">
        <ele>545.2</ele>
        <time>2022-03-07T11:10:37Z</time>
      </trkpt>
      <trkpt lat="46.55831" lon="5.56366">
        <ele>545.2</ele>
        <time>2022-03-07T11:10:38Z</time>
      </trkpt>
      <trkpt lat="46.55829" lon="5.56366">
        <ele>545.2</ele>
        <time>2022-03-07T11:10:39Z</time>
      </trkpt>
      <trkpt lat="46.55828" lon="5.56366">
        <ele>545.2</ele>
        <time>2022-03-07T11:10:40Z</time>
      </trkpt>
      <trkpt lat="46.55827" lon="5.56365">
        <ele>545.2</ele>
        <time>2022-03-07T11:10:41Z</time>
      </trkpt>
      <trkpt lat="46.55827" lon="5.56365">
        <ele>545.2</ele>
        <time>2022-03-07T11:10:42Z</time>
      </trkpt>
      <trkpt lat="46.55827" lon="5.56365">
        <ele>545.4</ele>
        <time>2022-03-07T11:10:43Z</time>
      </trkpt>
      <trkpt lat="46.55827" lon="5.56365">
        <ele>545.4</ele>
        <time>2022-03-07T11:10:46Z</time>
      </trkpt>
      <trkpt lat="46.55827" lon="5.56365">
        <ele>545.4</ele>
        <time>2022-03-07T11:10:47Z</time>
      </trkpt>
      <trkpt lat="46.55827" lon="5.56365">
        <ele>545.4</ele>
        <time>2022-03-07T11:10:48Z</time>
      </trkpt>
      <trkpt lat="46.55827" lon="5.56365">
        <ele>545.4</ele>
        <time>2022-03-07T11:10:49Z</time>
      </trkpt>
      <trkpt lat="46.55827" lon="5.56365">
        <ele>545.4</ele>
        <time>2022-03-07T11:10:50Z</time>
      </trkpt>
      <trkpt lat="46.55827" lon="5.56365">
        <ele>545.4</ele>
        <time>2022-03-07T11:10:51Z</time>
      </trkpt>
      <trkpt lat="46.55827" lon="5.56365">
        <ele>545.4</ele>
        <time>2022-03-07T11:10:52Z</time>
      </trkpt>
      <trkpt lat="46.55827" lon="5.56365">
        <ele>545.4</ele>
        <time>2022-03-07T11:10:54Z</time>
      </trkpt>
      <trkpt lat="46.55827" lon="5.56365">
        <ele>545.4</ele>
        <time>2022-03-07T11:10:55Z</time>
      </trkpt>
      <trkpt lat="46.55827" lon="5.56365">
        <ele>545.4</ele>
        <time>2022-03-07T11:10:56Z</time>
      </trkpt>
      <trkpt lat="46.55827" lon="5.56365">
        <ele>545.8</ele>
        <time>2022-03-07T11:11:11Z</time>
      </trkpt>
      <trkpt lat="46.55827" lon="5.56365">
        <ele>545.8</ele>
        <time>2022-03-07T11:11:12Z</time>
      </trkpt>
      <trkpt lat="46.55827" lon="5.56365">
        <ele>545.2</ele>
        <time>2022-03-07T11:12:01Z</time>
      </trkpt>
      <trkpt lat="46.55827" lon="5.56365">
        <ele>545.2</ele>
        <time>2022-03-07T11:12:02Z</time>
      </trkpt>
      <trkpt lat="46.55827" lon="5.56365">
        <ele>545.2</ele>
        <time>2022-03-07T11:12:06Z</time>
      </trkpt>
      <trkpt lat="46.55827" lon="5.56365">
        <ele>545.2</ele>
        <time>2022-03-07T11:12:07Z</time>
      </trkpt>
      <trkpt lat="46.55827" lon="5.56365">
        <ele>545.2</ele>
        <time>2022-03-07T11:12:08Z</time>
      </trkpt>
      <trkpt lat="46.55827" lon="5.56365">
        <ele>545.2</ele>
        <time>2022-03-07T11:12:09Z</time>
      </trkpt>
      <trkpt lat="46.55827" lon="5.56365">
        <ele>545.2</ele>
        <time>2022-03-07T11:12:10Z</time>
      </trkpt>
      <trkpt lat="46.55827" lon="5.56365">
        <ele>545.4</ele>
        <time>2022-03-07T11:12:11Z</time>
      </trkpt>
      <trkpt lat="46.55826" lon="5.56363">
        <ele>545.4</ele>
        <time>2022-03-07T11:12:12Z</time>
      </trkpt>
      <trkpt lat="46.55826" lon="5.5636">
        <ele>545.4</ele>
        <time>2022-03-07T11:12:13Z</time>
      </trkpt>
      <trkpt lat="46.55825" lon="5.56357">
        <ele>545.4</ele>
        <time>2022-03-07T11:12:14Z</time>
      </trkpt>
      <trkpt lat="46.55823" lon="5.56354">
        <ele>545.4</ele>
        <time>2022-03-07T11:12:15Z</time>
      </trkpt>
      <trkpt lat="46.55822" lon="5.56351">
        <ele>545.4</ele>
        <time>2022-03-07T11:12:16Z</time>
      </trkpt>
      <trkpt lat="46.5582" lon="5.56349">
        <ele>545.4</ele>
        <time>2022-03-07T11:12:17Z</time>
      </trkpt>
      <trkpt lat="46.55817" lon="5.56347">
        <ele>545.4</ele>
        <time>2022-03-07T11:12:18Z</time>
      </trkpt>
      <trkpt lat="46.55815" lon="5.56347">
        <ele>545.4</ele>
        <time>2022-03-07T11:12:19Z</time>
      </trkpt>
      <trkpt lat="46.55812" lon="5.56347">
        <ele>545.2</ele>
        <time>2022-03-07T11:12:20Z</time>
      </trkpt>
      <trkpt lat="46.55809" lon="5.56347">
        <ele>545.2</ele>
        <time>2022-03-07T11:12:21Z</time>
      </trkpt>
      <trkpt lat="46.55806" lon="5.56347">
        <ele>545.2</ele>
        <time>2022-03-07T11:12:22Z</time>
      </trkpt>
      <trkpt lat="46.55804" lon="5.56348">
        <ele>545.2</ele>
        <time>2022-03-07T11:12:23Z</time>
      </trkpt>
      <trkpt lat="46.55801" lon="5.56348">
        <ele>545</ele>
        <time>2022-03-07T11:12:24Z</time>
      </trkpt>
      <trkpt lat="46.55798" lon="5.56348">
        <ele>545</ele>
        <time>2022-03-07T11:12:25Z</time>
      </trkpt>
      <trkpt lat="46.55795" lon="5.56348">
        <ele>545</ele>
        <time>2022-03-07T11:12:26Z</time>
      </trkpt>
      <trkpt lat="46.55792" lon="5.56348">
        <ele>545</ele>
        <time>2022-03-07T11:12:27Z</time>
      </trkpt>
      <trkpt lat="46.55789" lon="5.56349">
        <ele>544.8</ele>
        <time>2022-03-07T11:12:28Z</time>
      </trkpt>
      <trkpt lat="46.55786" lon="5.5635">
        <ele>544.8</ele>
        <time>2022-03-07T11:12:29Z</time>
      </trkpt>
      <trkpt lat="46.55783" lon="5.56351">
        <ele>544.6</ele>
        <time>2022-03-07T11:12:30Z</time>
      </trkpt>
      <trkpt lat="46.5578" lon="5.56352">
        <ele>544.6</ele>
        <time>2022-03-07T11:12:31Z</time>
      </trkpt>
      <trkpt lat="46.55777" lon="5.56354">
        <ele>544.6</ele>
        <time>2022-03-07T11:12:32Z</time>
      </trkpt>
      <trkpt lat="46.55774" lon="5.56355">
        <ele>544.6</ele>
        <time>2022-03-07T11:12:33Z</time>
      </trkpt>
      <trkpt lat="46.55771" lon="5.56357">
        <ele>544.6</ele>
        <time>2022-03-07T11:12:34Z</time>
      </trkpt>
      <trkpt lat="46.55768" lon="5.56358">
        <ele>544.4</ele>
        <time>2022-03-07T11:12:35Z</time>
      </trkpt>
      <trkpt lat="46.55766" lon="5.5636">
        <ele>544.4</ele>
        <time>2022-03-07T11:12:36Z</time>
      </trkpt>
      <trkpt lat="46.55763" lon="5.56362">
        <ele>544.4</ele>
        <time>2022-03-07T11:12:37Z</time>
      </trkpt>
      <trkpt lat="46.5576" lon="5.56363">
        <ele>544</ele>
        <time>2022-03-07T11:12:38Z</time>
      </trkpt>
      <trkpt lat="46.55757" lon="5.56365">
        <ele>544</ele>
        <time>2022-03-07T11:12:39Z</time>
      </trkpt>
      <trkpt lat="46.55754" lon="5.56366">
        <ele>544</ele>
        <time>2022-03-07T11:12:40Z</time>
      </trkpt>
      <trkpt lat="46.55752" lon="5.56367">
        <ele>543.8</ele>
        <time>2022-03-07T11:12:41Z</time>
      </trkpt>
      <trkpt lat="46.55749" lon="5.56368">
        <ele>543.8</ele>
        <time>2022-03-07T11:12:42Z</time>
      </trkpt>
      <trkpt lat="46.55746" lon="5.56369">
        <ele>543.8</ele>
        <time>2022-03-07T11:12:43Z</time>
      </trkpt>
      <trkpt lat="46.55743" lon="5.56371">
        <ele>543.6</ele>
        <time>2022-03-07T11:12:44Z</time>
      </trkpt>
      <trkpt lat="46.5574" lon="5.56372">
        <ele>543.6</ele>
        <time>2022-03-07T11:12:45Z</time>
      </trkpt>
      <trkpt lat="46.55738" lon="5.56373">
        <ele>543.4</ele>
        <time>2022-03-07T11:12:46Z</time>
      </trkpt>
      <trkpt lat="46.55735" lon="5.56375">
        <ele>543.4</ele>
        <time>2022-03-07T11:12:47Z</time>
      </trkpt>
      <trkpt lat="46.55732" lon="5.56376">
        <ele>543.2</ele>
        <time>2022-03-07T11:12:48Z</time>
      </trkpt>
      <trkpt lat="46.55729" lon="5.56377">
        <ele>543.2</ele>
        <time>2022-03-07T11:12:49Z</time>
      </trkpt>
      <trkpt lat="46.55726" lon="5.56379">
        <ele>543.2</ele>
        <time>2022-03-07T11:12:50Z</time>
      </trkpt>
      <trkpt lat="46.55724" lon="5.5638">
        <ele>543</ele>
        <time>2022-03-07T11:12:51Z</time>
      </trkpt>
      <trkpt lat="46.55721" lon="5.56382">
        <ele>543</ele>
        <time>2022-03-07T11:12:52Z</time>
      </trkpt>
      <trkpt lat="46.55719" lon="5.56383">
        <ele>542.8</ele>
        <time>2022-03-07T11:12:53Z</time>
      </trkpt>
      <trkpt lat="46.55716" lon="5.56384">
        <ele>542.8</ele>
        <time>2022-03-07T11:12:54Z</time>
      </trkpt>
      <trkpt lat="46.55714" lon="5.56385">
        <ele>542.8</ele>
        <time>2022-03-07T11:12:55Z</time>
      </trkpt>
      <trkpt lat="46.55712" lon="5.56386">
        <ele>542.8</ele>
        <time>2022-03-07T11:12:56Z</time>
      </trkpt>
      <trkpt lat="46.5571" lon="5.56388">
        <ele>542.8</ele>
        <time>2022-03-07T11:12:57Z</time>
      </trkpt>
      <trkpt lat="46.55708" lon="5.56389">
        <ele>542.8</ele>
        <time>2022-03-07T11:12:58Z</time>
      </trkpt>
      <trkpt lat="46.55706" lon="5.56391">
        <ele>542.8</ele>
        <time>2022-03-07T11:12:59Z</time>
      </trkpt>
      <trkpt lat="46.55704" lon="5.56392">
        <ele>543</ele>
        <time>2022-03-07T11:13:00Z</time>
      </trkpt>
      <trkpt lat="46.55702" lon="5.56393">
        <ele>543.2</ele>
        <time>2022-03-07T11:13:01Z</time>
      </trkpt>
      <trkpt lat="46.557" lon="5.56395">
        <ele>543.4</ele>
        <time>2022-03-07T11:13:02Z</time>
      </trkpt>
      <trkpt lat="46.55698" lon="5.56396">
        <ele>543.8</ele>
        <time>2022-03-07T11:13:03Z</time>
      </trkpt>
      <trkpt lat="46.55696" lon="5.56397">
        <ele>544</ele>
        <time>2022-03-07T11:13:04Z</time>
      </trkpt>
      <trkpt lat="46.55694" lon="5.56397">
        <ele>544.2</ele>
        <time>2022-03-07T11:13:05Z</time>
      </trkpt>
      <trkpt lat="46.55692" lon="5.56398">
        <ele>544.4</ele>
        <time>2022-03-07T11:13:06Z</time>
      </trkpt>
      <trkpt lat="46.5569" lon="5.56399">
        <ele>544.8</ele>
        <time>2022-03-07T11:13:07Z</time>
      </trkpt>
      <trkpt lat="46.55688" lon="5.564">
        <ele>544.8</ele>
        <time>2022-03-07T11:13:08Z</time>
      </trkpt>
      <trkpt lat="46.55686" lon="5.564">
        <ele>545.2</ele>
        <time>2022-03-07T11:13:09Z</time>
      </trkpt>
      <trkpt lat="46.55684" lon="5.56401">
        <ele>545.2</ele>
        <time>2022-03-07T11:13:10Z</time>
      </trkpt>
      <trkpt lat="46.55682" lon="5.56402">
        <ele>545.4</ele>
        <time>2022-03-07T11:13:11Z</time>
      </trkpt>
      <trkpt lat="46.5568" lon="5.56403">
        <ele>545.4</ele>
        <time>2022-03-07T11:13:12Z</time>
      </trkpt>
      <trkpt lat="46.55677" lon="5.56404">
        <ele>545.8</ele>
        <time>2022-03-07T11:13:13Z</time>
      </trkpt>
      <trkpt lat="46.55676" lon="5.56405">
        <ele>545.8</ele>
        <time>2022-03-07T11:13:14Z</time>
      </trkpt>
      <trkpt lat="46.55674" lon="5.56405">
        <ele>545.8</ele>
        <time>2022-03-07T11:13:15Z</time>
      </trkpt>
      <trkpt lat="46.55672" lon="5.56405">
        <ele>546</ele>
        <time>2022-03-07T11:13:16Z</time>
      </trkpt>
      <trkpt lat="46.5567" lon="5.56405">
        <ele>546</ele>
        <time>2022-03-07T11:13:17Z</time>
      </trkpt>
      <trkpt lat="46.55668" lon="5.56406">
        <ele>546</ele>
        <time>2022-03-07T11:13:18Z</time>
      </trkpt>
      <trkpt lat="46.55666" lon="5.56407">
        <ele>546.4</ele>
        <time>2022-03-07T11:13:19Z</time>
      </trkpt>
      <trkpt lat="46.55665" lon="5.56408">
        <ele>546.4</ele>
        <time>2022-03-07T11:13:20Z</time>
      </trkpt>
      <trkpt lat="46.55663" lon="5.56409">
        <ele>546.4</ele>
        <time>2022-03-07T11:13:21Z</time>
      </trkpt>
      <trkpt lat="46.55661" lon="5.5641">
        <ele>546.6</ele>
        <time>2022-03-07T11:13:22Z</time>
      </trkpt>
      <trkpt lat="46.5566" lon="5.56412">
        <ele>546.6</ele>
        <time>2022-03-07T11:13:23Z</time>
      </trkpt>
      <trkpt lat="46.55658" lon="5.56412">
        <ele>546.6</ele>
        <time>2022-03-07T11:13:24Z</time>
      </trkpt>
      <trkpt lat="46.55656" lon="5.56413">
        <ele>546.8</ele>
        <time>2022-03-07T11:13:25Z</time>
      </trkpt>
      <trkpt lat="46.55655" lon="5.56414">
        <ele>546.8</ele>
        <time>2022-03-07T11:13:26Z</time>
      </trkpt>
      <trkpt lat="46.55653" lon="5.56416">
        <ele>546.8</ele>
        <time>2022-03-07T11:13:27Z</time>
      </trkpt>
      <trkpt lat="46.55652" lon="5.56417">
        <ele>547</ele>
        <time>2022-03-07T11:13:28Z</time>
      </trkpt>
      <trkpt lat="46.5565" lon="5.56418">
        <ele>547</ele>
        <time>2022-03-07T11:13:29Z</time>
      </trkpt>
      <trkpt lat="46.55648" lon="5.56419">
        <ele>547</ele>
        <time>2022-03-07T11:13:30Z</time>
      </trkpt>
      <trkpt lat="46.55647" lon="5.5642">
        <ele>547.2</ele>
        <time>2022-03-07T11:13:31Z</time>
      </trkpt>
      <trkpt lat="46.55645" lon="5.56422">
        <ele>547.2</ele>
        <time>2022-03-07T11:13:32Z</time>
      </trkpt>
      <trkpt lat="46.55644" lon="5.56423">
        <ele>547.2</ele>
        <time>2022-03-07T11:13:33Z</time>
      </trkpt>
      <trkpt lat="46.55642" lon="5.56425">
        <ele>547.2</ele>
        <time>2022-03-07T11:13:34Z</time>
      </trkpt>
      <trkpt lat="46.55641" lon="5.56426">
        <ele>547.2</ele>
        <time>2022-03-07T11:13:35Z</time>
      </trkpt>
      <trkpt lat="46.5564" lon="5.56427">
        <ele>547.2</ele>
        <time>2022-03-07T11:13:36Z</time>
      </trkpt>
      <trkpt lat="46.55638" lon="5.56428">
        <ele>547.4</ele>
        <time>2022-03-07T11:13:37Z</time>
      </trkpt>
      <trkpt lat="46.55636" lon="5.56429">
        <ele>547.4</ele>
        <time>2022-03-07T11:13:38Z</time>
      </trkpt>
      <trkpt lat="46.55634" lon="5.5643">
        <ele>547.4</ele>
        <time>2022-03-07T11:13:39Z</time>
      </trkpt>
      <trkpt lat="46.55632" lon="5.56431">
        <ele>547.4</ele>
        <time>2022-03-07T11:13:40Z</time>
      </trkpt>
      <trkpt lat="46.5563" lon="5.56432">
        <ele>547.4</ele>
        <time>2022-03-07T11:13:41Z</time>
      </trkpt>
      <trkpt lat="46.55628" lon="5.56431">
        <ele>547.4</ele>
        <time>2022-03-07T11:13:42Z</time>
      </trkpt>
      <trkpt lat="46.55625" lon="5.56431">
        <ele>547.4</ele>
        <time>2022-03-07T11:13:43Z</time>
      </trkpt>
      <trkpt lat="46.55622" lon="5.56432">
        <ele>547.4</ele>
        <time>2022-03-07T11:13:44Z</time>
      </trkpt>
      <trkpt lat="46.5562" lon="5.56432">
        <ele>547.2</ele>
        <time>2022-03-07T11:13:45Z</time>
      </trkpt>
      <trkpt lat="46.55617" lon="5.56433">
        <ele>546.8</ele>
        <time>2022-03-07T11:13:46Z</time>
      </trkpt>
      <trkpt lat="46.55614" lon="5.56434">
        <ele>546.8</ele>
        <time>2022-03-07T11:13:47Z</time>
      </trkpt>
      <trkpt lat="46.55612" lon="5.56435">
        <ele>546.6</ele>
        <time>2022-03-07T11:13:48Z</time>
      </trkpt>
      <trkpt lat="46.55609" lon="5.56436">
        <ele>546.6</ele>
        <time>2022-03-07T11:13:49Z</time>
      </trkpt>
      <trkpt lat="46.55607" lon="5.56437">
        <ele>546.4</ele>
        <time>2022-03-07T11:13:50Z</time>
      </trkpt>
      <trkpt lat="46.55605" lon="5.56439">
        <ele>546.4</ele>
        <time>2022-03-07T11:13:51Z</time>
      </trkpt>
      <trkpt lat="46.55602" lon="5.5644">
        <ele>546.4</ele>
        <time>2022-03-07T11:13:52Z</time>
      </trkpt>
      <trkpt lat="46.556" lon="5.56441">
        <ele>546.2</ele>
        <time>2022-03-07T11:13:53Z</time>
      </trkpt>
      <trkpt lat="46.55598" lon="5.56442">
        <ele>546.2</ele>
        <time>2022-03-07T11:13:54Z</time>
      </trkpt>
      <trkpt lat="46.55595" lon="5.56442">
        <ele>546</ele>
        <time>2022-03-07T11:13:55Z</time>
      </trkpt>
      <trkpt lat="46.55593" lon="5.56443">
        <ele>546</ele>
        <time>2022-03-07T11:13:56Z</time>
      </trkpt>
      <trkpt lat="46.55591" lon="5.56443">
        <ele>546</ele>
        <time>2022-03-07T11:13:57Z</time>
      </trkpt>
      <trkpt lat="46.55589" lon="5.56444">
        <ele>546</ele>
        <time>2022-03-07T11:13:58Z</time>
      </trkpt>
      <trkpt lat="46.55587" lon="5.56444">
        <ele>546</ele>
        <time>2022-03-07T11:13:59Z</time>
      </trkpt>
      <trkpt lat="46.55584" lon="5.56445">
        <ele>546</ele>
        <time>2022-03-07T11:14:00Z</time>
      </trkpt>
      <trkpt lat="46.55582" lon="5.56446">
        <ele>546</ele>
        <time>2022-03-07T11:14:01Z</time>
      </trkpt>
      <trkpt lat="46.5558" lon="5.56446">
        <ele>546</ele>
        <time>2022-03-07T11:14:02Z</time>
      </trkpt>
      <trkpt lat="46.55578" lon="5.56447">
        <ele>546</ele>
        <time>2022-03-07T11:14:03Z</time>
      </trkpt>
      <trkpt lat="46.55576" lon="5.56448">
        <ele>546</ele>
        <time>2022-03-07T11:14:04Z</time>
      </trkpt>
      <trkpt lat="46.55575" lon="5.56451">
        <ele>546</ele>
        <time>2022-03-07T11:14:05Z</time>
      </trkpt>
      <trkpt lat="46.55575" lon="5.56453">
        <ele>546</ele>
        <time>2022-03-07T11:14:06Z</time>
      </trkpt>
      <trkpt lat="46.55575" lon="5.56454">
        <ele>546</ele>
        <time>2022-03-07T11:14:07Z</time>
      </trkpt>
      <trkpt lat="46.55575" lon="5.56456">
        <ele>546</ele>
        <time>2022-03-07T11:14:08Z</time>
      </trkpt>
      <trkpt lat="46.55575" lon="5.56457">
        <ele>546</ele>
        <time>2022-03-07T11:14:09Z</time>
      </trkpt>
      <trkpt lat="46.55575" lon="5.56459">
        <ele>546.4</ele>
        <time>2022-03-07T11:14:21Z</time>
      </trkpt>
      <trkpt lat="46.55575" lon="5.5646">
        <ele>546.4</ele>
        <time>2022-03-07T11:14:22Z</time>
      </trkpt>
      <trkpt lat="46.55575" lon="5.56462">
        <ele>546.4</ele>
        <time>2022-03-07T11:14:23Z</time>
      </trkpt>
      <trkpt lat="46.55576" lon="5.56464">
        <ele>546.8</ele>
        <time>2022-03-07T11:14:24Z</time>
      </trkpt>
      <trkpt lat="46.55575" lon="5.56465">
        <ele>546.8</ele>
        <time>2022-03-07T11:14:25Z</time>
      </trkpt>
      <trkpt lat="46.55576" lon="5.56466">
        <ele>546.8</ele>
        <time>2022-03-07T11:14:26Z</time>
      </trkpt>
      <trkpt lat="46.55576" lon="5.56468">
        <ele>546.8</ele>
        <time>2022-03-07T11:14:27Z</time>
      </trkpt>
      <trkpt lat="46.55576" lon="5.56469">
        <ele>546.8</ele>
        <time>2022-03-07T11:14:28Z</time>
      </trkpt>
      <trkpt lat="46.55576" lon="5.56471">
        <ele>547</ele>
        <time>2022-03-07T11:14:29Z</time>
      </trkpt>
      <trkpt lat="46.55576" lon="5.56471">
        <ele>547</ele>
        <time>2022-03-07T11:14:30Z</time>
      </trkpt>
      <trkpt lat="46.55576" lon="5.56471">
        <ele>547</ele>
        <time>2022-03-07T11:14:31Z</time>
      </trkpt>
      <trkpt lat="46.55576" lon="5.56471">
        <ele>547.2</ele>
        <time>2022-03-07T11:14:32Z</time>
      </trkpt>
      <trkpt lat="46.55576" lon="5.56471">
        <ele>547.2</ele>
        <time>2022-03-07T11:14:34Z</time>
      </trkpt>
      <trkpt lat="46.55576" lon="5.56471">
        <ele>547.2</ele>
        <time>2022-03-07T11:14:35Z</time>
      </trkpt>
      <trkpt lat="46.55576" lon="5.56471">
        <ele>547.2</ele>
        <time>2022-03-07T11:14:36Z</time>
      </trkpt>
      <trkpt lat="46.55576" lon="5.56471">
        <ele>547.2</ele>
        <time>2022-03-07T11:14:37Z</time>
      </trkpt>
      <trkpt lat="46.55576" lon="5.56471">
        <ele>547.2</ele>
        <time>2022-03-07T11:14:40Z</time>
      </trkpt>
      <trkpt lat="46.55576" lon="5.56471">
        <ele>547.2</ele>
        <time>2022-03-07T11:14:41Z</time>
      </trkpt>
      <trkpt lat="46.55576" lon="5.56471">
        <ele>547.2</ele>
        <time>2022-03-07T11:14:42Z</time>
      </trkpt>
      <trkpt lat="46.55576" lon="5.56471">
        <ele>547.2</ele>
        <time>2022-03-07T11:14:43Z</time>
      </trkpt>
      <trkpt lat="46.55576" lon="5.56471">
        <ele>547.2</ele>
        <time>2022-03-07T11:14:44Z</time>
      </trkpt>
      <trkpt lat="46.55576" lon="5.56471">
        <ele>547.2</ele>
        <time>2022-03-07T11:14:45Z</time>
      </trkpt>
      <trkpt lat="46.55576" lon="5.56471">
        <ele>547.2</ele>
        <time>2022-03-07T11:14:46Z</time>
      </trkpt>
      <trkpt lat="46.55576" lon="5.56471">
        <ele>547.2</ele>
        <time>2022-03-07T11:14:47Z</time>
      </trkpt>
      <trkpt lat="46.55576" lon="5.56471">
        <ele>547.2</ele>
        <time>2022-03-07T11:14:48Z</time>
      </trkpt>
      <trkpt lat="46.55576" lon="5.56471">
        <ele>547.2</ele>
        <time>2022-03-07T11:14:49Z</time>
      </trkpt>
      <trkpt lat="46.55576" lon="5.56471">
        <ele>547.2</ele>
        <time>2022-03-07T11:14:51Z</time>
      </trkpt>
      <trkpt lat="46.55576" lon="5.56471">
        <ele>547.2</ele>
        <time>2022-03-07T11:14:52Z</time>
      </trkpt>
      <trkpt lat="46.55576" lon="5.56471">
        <ele>547.2</ele>
        <time>2022-03-07T11:14:53Z</time>
      </trkpt>
      <trkpt lat="46.55576" lon="5.56471">
        <ele>547.2</ele>
        <time>2022-03-07T11:14:54Z</time>
      </trkpt>
      <trkpt lat="46.55576" lon="5.56471">
        <ele>547.2</ele>
        <time>2022-03-07T11:14:56Z</time>
      </trkpt>
      <trkpt lat="46.55576" lon="5.56471">
        <ele>547.2</ele>
        <time>2022-03-07T11:14:57Z</time>
      </trkpt>
      <trkpt lat="46.55576" lon="5.56471">
        <ele>547.2</ele>
        <time>2022-03-07T11:15:07Z</time>
      </trkpt>
      <trkpt lat="46.55576" lon="5.56471">
        <ele>547.2</ele>
        <time>2022-03-07T11:15:08Z</time>
      </trkpt>
      <trkpt lat="46.55576" lon="5.56471">
        <ele>547.2</ele>
        <time>2022-03-07T11:15:09Z</time>
      </trkpt>
      <trkpt lat="46.55576" lon="5.56471">
        <ele>547.2</ele>
        <time>2022-03-07T11:15:10Z</time>
      </trkpt>
      <trkpt lat="46.55576" lon="5.56471">
        <ele>547.2</ele>
        <time>2022-03-07T11:15:11Z</time>
      </trkpt>
      <trkpt lat="46.55576" lon="5.56471">
        <ele>547.2</ele>
        <time>2022-03-07T11:15:15Z</time>
      </trkpt>
      <trkpt lat="46.55576" lon="5.56471">
        <ele>547.2</ele>
        <time>2022-03-07T11:15:16Z</time>
      </trkpt>
      <trkpt lat="46.55576" lon="5.56471">
        <ele>547.2</ele>
        <time>2022-03-07T11:15:17Z</time>
      </trkpt>
      <trkpt lat="46.55576" lon="5.56471">
        <ele>547.2</ele>
        <time>2022-03-07T11:15:19Z</time>
      </trkpt>
      <trkpt lat="46.55576" lon="5.56471">
        <ele>547.2</ele>
        <time>2022-03-07T11:15:20Z</time>
      </trkpt>
      <trkpt lat="46.55576" lon="5.56471">
        <ele>547.2</ele>
        <time>2022-03-07T11:15:21Z</time>
      </trkpt>
      <trkpt lat="46.55576" lon="5.56471">
        <ele>547.2</ele>
        <time>2022-03-07T11:15:22Z</time>
      </trkpt>
      <trkpt lat="46.55576" lon="5.56471">
        <ele>547.2</ele>
        <time>2022-03-07T11:15:23Z</time>
      </trkpt>
      <trkpt lat="46.55576" lon="5.56471">
        <ele>547.2</ele>
        <time>2022-03-07T11:15:24Z</time>
      </trkpt>
      <trkpt lat="46.55574" lon="5.56473">
        <ele>547.2</ele>
        <time>2022-03-07T11:15:25Z</time>
      </trkpt>
      <trkpt lat="46.55574" lon="5.56474">
        <ele>547.2</ele>
        <time>2022-03-07T11:15:26Z</time>
      </trkpt>
      <trkpt lat="46.55574" lon="5.56474">
        <ele>547.2</ele>
        <time>2022-03-07T11:15:27Z</time>
      </trkpt>
      <trkpt lat="46.55574" lon="5.56475">
        <ele>547.2</ele>
        <time>2022-03-07T11:15:28Z</time>
      </trkpt>
      <trkpt lat="46.55574" lon="5.56475">
        <ele>547.2</ele>
        <time>2022-03-07T11:15:29Z</time>
      </trkpt>
      <trkpt lat="46.55574" lon="5.56475">
        <ele>547.2</ele>
        <time>2022-03-07T11:15:30Z</time>
      </trkpt>
      <trkpt lat="46.55574" lon="5.56475">
        <ele>547.2</ele>
        <time>2022-03-07T11:15:31Z</time>
      </trkpt>
      <trkpt lat="46.55574" lon="5.56476">
        <ele>547.2</ele>
        <time>2022-03-07T11:15:32Z</time>
      </trkpt>
      <trkpt lat="46.55574" lon="5.56476">
        <ele>547.2</ele>
        <time>2022-03-07T11:15:33Z</time>
      </trkpt>
      <trkpt lat="46.55574" lon="5.56476">
        <ele>547.6</ele>
        <time>2022-03-07T11:15:35Z</time>
      </trkpt>
      <trkpt lat="46.55574" lon="5.56476">
        <ele>547.6</ele>
        <time>2022-03-07T11:15:36Z</time>
      </trkpt>
      <trkpt lat="46.55574" lon="5.56477">
        <ele>548</ele>
        <time>2022-03-07T11:15:37Z</time>
      </trkpt>
      <trkpt lat="46.55574" lon="5.56477">
        <ele>548</ele>
        <time>2022-03-07T11:15:38Z</time>
      </trkpt>
      <trkpt lat="46.55574" lon="5.56477">
        <ele>548.2</ele>
        <time>2022-03-07T11:15:39Z</time>
      </trkpt>
      <trkpt lat="46.55574" lon="5.56477">
        <ele>548.2</ele>
        <time>2022-03-07T11:15:40Z</time>
      </trkpt>
      <trkpt lat="46.55574" lon="5.56478">
        <ele>548.2</ele>
        <time>2022-03-07T11:15:41Z</time>
      </trkpt>
      <trkpt lat="46.55574" lon="5.56478">
        <ele>548.2</ele>
        <time>2022-03-07T11:15:42Z</time>
      </trkpt>
      <trkpt lat="46.55574" lon="5.56478">
        <ele>548.2</ele>
        <time>2022-03-07T11:15:43Z</time>
      </trkpt>
      <trkpt lat="46.55574" lon="5.56478">
        <ele>548.2</ele>
        <time>2022-03-07T11:15:44Z</time>
      </trkpt>
      <trkpt lat="46.55574" lon="5.56479">
        <ele>548.2</ele>
        <time>2022-03-07T11:15:45Z</time>
      </trkpt>
      <trkpt lat="46.55574" lon="5.56479">
        <ele>548.2</ele>
        <time>2022-03-07T11:15:49Z</time>
      </trkpt>
      <trkpt lat="46.55574" lon="5.56479">
        <ele>548.2</ele>
        <time>2022-03-07T11:15:50Z</time>
      </trkpt>
      <trkpt lat="46.55574" lon="5.56479">
        <ele>548.2</ele>
        <time>2022-03-07T11:15:54Z</time>
      </trkpt>
      <trkpt lat="46.55574" lon="5.5648">
        <ele>548.2</ele>
        <time>2022-03-07T11:15:55Z</time>
      </trkpt>
      <trkpt lat="46.55574" lon="5.5648">
        <ele>548.2</ele>
        <time>2022-03-07T11:15:58Z</time>
      </trkpt>
      <trkpt lat="46.55574" lon="5.5648">
        <ele>548.2</ele>
        <time>2022-03-07T11:15:59Z</time>
      </trkpt>
      <trkpt lat="46.55574" lon="5.5648">
        <ele>548</ele>
        <time>2022-03-07T11:16:00Z</time>
      </trkpt>
      <trkpt lat="46.55574" lon="5.56481">
        <ele>548</ele>
        <time>2022-03-07T11:16:01Z</time>
      </trkpt>
      <trkpt lat="46.55574" lon="5.56481">
        <ele>548</ele>
        <time>2022-03-07T11:16:02Z</time>
      </trkpt>
      <trkpt lat="46.55574" lon="5.56481">
        <ele>548</ele>
        <time>2022-03-07T11:16:03Z</time>
      </trkpt>
      <trkpt lat="46.55574" lon="5.56481">
        <ele>548</ele>
        <time>2022-03-07T11:16:04Z</time>
      </trkpt>
      <trkpt lat="46.55574" lon="5.56482">
        <ele>547.6</ele>
        <time>2022-03-07T11:16:08Z</time>
      </trkpt>
      <trkpt lat="46.55574" lon="5.56482">
        <ele>547.4</ele>
        <time>2022-03-07T11:16:09Z</time>
      </trkpt>
      <trkpt lat="46.55575" lon="5.56482">
        <ele>547.4</ele>
        <time>2022-03-07T11:16:10Z</time>
      </trkpt>
      <trkpt lat="46.55575" lon="5.56482">
        <ele>547.4</ele>
        <time>2022-03-07T11:16:11Z</time>
      </trkpt>
      <trkpt lat="46.55575" lon="5.56482">
        <ele>547.4</ele>
        <time>2022-03-07T11:16:12Z</time>
      </trkpt>
      <trkpt lat="46.55575" lon="5.56483">
        <ele>547.2</ele>
        <time>2022-03-07T11:16:39Z</time>
      </trkpt>
      <trkpt lat="46.55575" lon="5.56483">
        <ele>547.2</ele>
        <time>2022-03-07T11:16:40Z</time>
      </trkpt>
      <trkpt lat="46.55575" lon="5.56483">
        <ele>547.2</ele>
        <time>2022-03-07T11:16:41Z</time>
      </trkpt>
      <trkpt lat="46.55575" lon="5.56483">
        <ele>547.2</ele>
        <time>2022-03-07T11:16:42Z</time>
      </trkpt>
      <trkpt lat="46.55575" lon="5.56484">
        <ele>547.4</ele>
        <time>2022-03-07T11:16:43Z</time>
      </trkpt>
      <trkpt lat="46.55575" lon="5.56484">
        <ele>547.4</ele>
        <time>2022-03-07T11:16:44Z</time>
      </trkpt>
      <trkpt lat="46.55575" lon="5.56484">
        <ele>547.4</ele>
        <time>2022-03-07T11:16:45Z</time>
      </trkpt>
      <trkpt lat="46.55575" lon="5.56484">
        <ele>547.6</ele>
        <time>2022-03-07T11:16:46Z</time>
      </trkpt>
      <trkpt lat="46.55575" lon="5.56485">
        <ele>547.6</ele>
        <time>2022-03-07T11:16:47Z</time>
      </trkpt>
      <trkpt lat="46.55575" lon="5.56485">
        <ele>547.6</ele>
        <time>2022-03-07T11:16:48Z</time>
      </trkpt>
      <trkpt lat="46.55575" lon="5.56485">
        <ele>547.6</ele>
        <time>2022-03-07T11:16:49Z</time>
      </trkpt>
      <trkpt lat="46.55575" lon="5.56485">
        <ele>547.6</ele>
        <time>2022-03-07T11:16:50Z</time>
      </trkpt>
      <trkpt lat="46.55575" lon="5.56486">
        <ele>547.8</ele>
        <time>2022-03-07T11:17:00Z</time>
      </trkpt>
      <trkpt lat="46.55575" lon="5.56486">
        <ele>547.8</ele>
        <time>2022-03-07T11:17:01Z</time>
      </trkpt>
      <trkpt lat="46.55575" lon="5.56486">
        <ele>547.8</ele>
        <time>2022-03-07T11:17:03Z</time>
      </trkpt>
      <trkpt lat="46.55575" lon="5.56486">
        <ele>548</ele>
        <time>2022-03-07T11:17:04Z</time>
      </trkpt>
      <trkpt lat="46.55575" lon="5.56487">
        <ele>548</ele>
        <time>2022-03-07T11:17:13Z</time>
      </trkpt>
      <trkpt lat="46.55575" lon="5.56487">
        <ele>548</ele>
        <time>2022-03-07T11:17:14Z</time>
      </trkpt>
      <trkpt lat="46.55575" lon="5.56487">
        <ele>548</ele>
        <time>2022-03-07T11:17:15Z</time>
      </trkpt>
      <trkpt lat="46.55575" lon="5.56487">
        <ele>548</ele>
        <time>2022-03-07T11:17:26Z</time>
      </trkpt>
      <trkpt lat="46.55575" lon="5.56488">
        <ele>548</ele>
        <time>2022-03-07T11:17:27Z</time>
      </trkpt>
      <trkpt lat="46.55575" lon="5.56488">
        <ele>548.2</ele>
        <time>2022-03-07T11:17:28Z</time>
      </trkpt>
      <trkpt lat="46.55575" lon="5.56488">
        <ele>548.2</ele>
        <time>2022-03-07T11:17:29Z</time>
      </trkpt>
      <trkpt lat="46.55575" lon="5.56488">
        <ele>548.2</ele>
        <time>2022-03-07T11:17:30Z</time>
      </trkpt>
      <trkpt lat="46.55575" lon="5.56489">
        <ele>548.2</ele>
        <time>2022-03-07T11:17:31Z</time>
      </trkpt>
      <trkpt lat="46.55575" lon="5.56489">
        <ele>548.2</ele>
        <time>2022-03-07T11:17:32Z</time>
      </trkpt>
      <trkpt lat="46.55575" lon="5.56489">
        <ele>548.2</ele>
        <time>2022-03-07T11:17:33Z</time>
      </trkpt>
      <trkpt lat="46.55575" lon="5.56489">
        <ele>548.2</ele>
        <time>2022-03-07T11:17:34Z</time>
      </trkpt>
      <trkpt lat="46.55576" lon="5.5649">
        <ele>548.4</ele>
        <time>2022-03-07T11:17:35Z</time>
      </trkpt>
      <trkpt lat="46.55576" lon="5.56491">
        <ele>548.4</ele>
        <time>2022-03-07T11:17:36Z</time>
      </trkpt>
      <trkpt lat="46.55577" lon="5.56491">
        <ele>548.4</ele>
        <time>2022-03-07T11:17:37Z</time>
      </trkpt>
      <trkpt lat="46.55577" lon="5.56491">
        <ele>548.4</ele>
        <time>2022-03-07T11:17:38Z</time>
      </trkpt>
      <trkpt lat="46.55577" lon="5.56491">
        <ele>548.4</ele>
        <time>2022-03-07T11:17:39Z</time>
      </trkpt>
      <trkpt lat="46.55577" lon="5.56491">
        <ele>548.4</ele>
        <time>2022-03-07T11:17:40Z</time>
      </trkpt>
      <trkpt lat="46.55577" lon="5.56491">
        <ele>548.4</ele>
        <time>2022-03-07T11:17:42Z</time>
      </trkpt>
      <trkpt lat="46.55577" lon="5.56491">
        <ele>548.4</ele>
        <time>2022-03-07T11:17:43Z</time>
      </trkpt>
      <trkpt lat="46.55577" lon="5.56491">
        <ele>548.8</ele>
        <time>2022-03-07T11:17:44Z</time>
      </trkpt>
      <trkpt lat="46.55577" lon="5.56491">
        <ele>548.8</ele>
        <time>2022-03-07T11:17:45Z</time>
      </trkpt>
      <trkpt lat="46.55577" lon="5.56491">
        <ele>548.8</ele>
        <time>2022-03-07T11:17:46Z</time>
      </trkpt>
      <trkpt lat="46.55577" lon="5.56491">
        <ele>548.8</ele>
        <time>2022-03-07T11:17:47Z</time>
      </trkpt>
      <trkpt lat="46.55577" lon="5.56491">
        <ele>549</ele>
        <time>2022-03-07T11:17:48Z</time>
      </trkpt>
      <trkpt lat="46.55577" lon="5.56491">
        <ele>549</ele>
        <time>2022-03-07T11:17:49Z</time>
      </trkpt>
      <trkpt lat="46.55577" lon="5.56491">
        <ele>549.2</ele>
        <time>2022-03-07T11:17:50Z</time>
      </trkpt>
      <trkpt lat="46.55577" lon="5.56491">
        <ele>549.2</ele>
        <time>2022-03-07T11:17:51Z</time>
      </trkpt>
      <trkpt lat="46.55577" lon="5.56491">
        <ele>549.4</ele>
        <time>2022-03-07T11:17:52Z</time>
      </trkpt>
      <trkpt lat="46.55577" lon="5.56491">
        <ele>549.4</ele>
        <time>2022-03-07T11:17:53Z</time>
      </trkpt>
      <trkpt lat="46.55577" lon="5.56491">
        <ele>549.4</ele>
        <time>2022-03-07T11:17:54Z</time>
      </trkpt>
      <trkpt lat="46.55577" lon="5.56491">
        <ele>549.4</ele>
        <time>2022-03-07T11:17:55Z</time>
      </trkpt>
      <trkpt lat="46.55577" lon="5.56491">
        <ele>549.4</ele>
        <time>2022-03-07T11:17:56Z</time>
      </trkpt>
      <trkpt lat="46.55577" lon="5.56491">
        <ele>549.8</ele>
        <time>2022-03-07T11:17:57Z</time>
      </trkpt>
      <trkpt lat="46.55578" lon="5.56505">
        <ele>550</ele>
        <time>2022-03-07T11:17:59Z</time>
      </trkpt>
      <trkpt lat="46.55578" lon="5.56506">
        <ele>550</ele>
        <time>2022-03-07T11:18:00Z</time>
      </trkpt>
      <trkpt lat="46.55578" lon="5.56507">
        <ele>550.2</ele>
        <time>2022-03-07T11:18:01Z</time>
      </trkpt>
      <trkpt lat="46.55578" lon="5.56507">
        <ele>550.2</ele>
        <time>2022-03-07T11:18:02Z</time>
      </trkpt>
      <trkpt lat="46.55578" lon="5.56508">
        <ele>550.6</ele>
        <time>2022-03-07T11:18:03Z</time>
      </trkpt>
      <trkpt lat="46.55578" lon="5.56508">
        <ele>550.6</ele>
        <time>2022-03-07T11:18:04Z</time>
      </trkpt>
      <trkpt lat="46.55578" lon="5.56509">
        <ele>550.6</ele>
        <time>2022-03-07T11:18:05Z</time>
      </trkpt>
      <trkpt lat="46.55578" lon="5.56509">
        <ele>550.6</ele>
        <time>2022-03-07T11:18:06Z</time>
      </trkpt>
      <trkpt lat="46.55578" lon="5.5651">
        <ele>550.8</ele>
        <time>2022-03-07T11:18:07Z</time>
      </trkpt>
      <trkpt lat="46.55578" lon="5.56511">
        <ele>550.8</ele>
        <time>2022-03-07T11:18:08Z</time>
      </trkpt>
      <trkpt lat="46.55578" lon="5.56511">
        <ele>550.8</ele>
        <time>2022-03-07T11:18:09Z</time>
      </trkpt>
      <trkpt lat="46.55578" lon="5.56512">
        <ele>550.8</ele>
        <time>2022-03-07T11:18:10Z</time>
      </trkpt>
      <trkpt lat="46.55578" lon="5.56512">
        <ele>550.8</ele>
        <time>2022-03-07T11:18:11Z</time>
      </trkpt>
      <trkpt lat="46.55578" lon="5.56513">
        <ele>551</ele>
        <time>2022-03-07T11:18:12Z</time>
      </trkpt>
      <trkpt lat="46.55578" lon="5.56513">
        <ele>551</ele>
        <time>2022-03-07T11:18:13Z</time>
      </trkpt>
      <trkpt lat="46.55578" lon="5.56514">
        <ele>551.4</ele>
        <time>2022-03-07T11:18:14Z</time>
      </trkpt>
      <trkpt lat="46.55578" lon="5.56514">
        <ele>551.4</ele>
        <time>2022-03-07T11:18:15Z</time>
      </trkpt>
      <trkpt lat="46.55578" lon="5.56515">
        <ele>551.6</ele>
        <time>2022-03-07T11:18:17Z</time>
      </trkpt>
      <trkpt lat="46.55578" lon="5.56515">
        <ele>551.6</ele>
        <time>2022-03-07T11:18:18Z</time>
      </trkpt>
      <trkpt lat="46.55579" lon="5.56523">
        <ele>551.6</ele>
        <time>2022-03-07T11:18:19Z</time>
      </trkpt>
      <trkpt lat="46.55579" lon="5.56525">
        <ele>551.8</ele>
        <time>2022-03-07T11:18:20Z</time>
      </trkpt>
      <trkpt lat="46.55579" lon="5.56527">
        <ele>551.8</ele>
        <time>2022-03-07T11:18:21Z</time>
      </trkpt>
      <trkpt lat="46.55579" lon="5.56527">
        <ele>551.8</ele>
        <time>2022-03-07T11:18:22Z</time>
      </trkpt>
      <trkpt lat="46.55579" lon="5.56527">
        <ele>551.8</ele>
        <time>2022-03-07T11:18:23Z</time>
      </trkpt>
      <trkpt lat="46.55579" lon="5.56527">
        <ele>552.2</ele>
        <time>2022-03-07T11:18:27Z</time>
      </trkpt>
      <trkpt lat="46.55579" lon="5.56527">
        <ele>552.2</ele>
        <time>2022-03-07T11:18:28Z</time>
      </trkpt>
      <trkpt lat="46.55577" lon="5.56539">
        <ele>552.4</ele>
        <time>2022-03-07T11:18:31Z</time>
      </trkpt>
      <trkpt lat="46.55577" lon="5.56542">
        <ele>552.6</ele>
        <time>2022-03-07T11:18:32Z</time>
      </trkpt>
      <trkpt lat="46.55577" lon="5.56543">
        <ele>552.6</ele>
        <time>2022-03-07T11:18:33Z</time>
      </trkpt>
      <trkpt lat="46.55578" lon="5.56544">
        <ele>552.6</ele>
        <time>2022-03-07T11:18:34Z</time>
      </trkpt>
      <trkpt lat="46.55578" lon="5.56546">
        <ele>552.8</ele>
        <time>2022-03-07T11:18:35Z</time>
      </trkpt>
      <trkpt lat="46.55579" lon="5.56547">
        <ele>552.8</ele>
        <time>2022-03-07T11:18:36Z</time>
      </trkpt>
      <trkpt lat="46.55579" lon="5.56548">
        <ele>553.4</ele>
        <time>2022-03-07T11:18:43Z</time>
      </trkpt>
      <trkpt lat="46.5558" lon="5.56549">
        <ele>553.6</ele>
        <time>2022-03-07T11:18:44Z</time>
      </trkpt>
      <trkpt lat="46.5558" lon="5.5655">
        <ele>553.6</ele>
        <time>2022-03-07T11:18:45Z</time>
      </trkpt>
      <trkpt lat="46.55581" lon="5.56551">
        <ele>553.6</ele>
        <time>2022-03-07T11:18:46Z</time>
      </trkpt>
      <trkpt lat="46.55581" lon="5.56553">
        <ele>553.8</ele>
        <time>2022-03-07T11:18:47Z</time>
      </trkpt>
      <trkpt lat="46.55582" lon="5.56554">
        <ele>553.8</ele>
        <time>2022-03-07T11:18:48Z</time>
      </trkpt>
      <trkpt lat="46.55582" lon="5.56555">
        <ele>553.8</ele>
        <time>2022-03-07T11:18:49Z</time>
      </trkpt>
      <trkpt lat="46.55583" lon="5.56556">
        <ele>554.2</ele>
        <time>2022-03-07T11:18:50Z</time>
      </trkpt>
      <trkpt lat="46.55583" lon="5.56557">
        <ele>554.2</ele>
        <time>2022-03-07T11:18:51Z</time>
      </trkpt>
      <trkpt lat="46.55584" lon="5.56558">
        <ele>554.4</ele>
        <time>2022-03-07T11:18:52Z</time>
      </trkpt>
      <trkpt lat="46.55584" lon="5.5656">
        <ele>554.4</ele>
        <time>2022-03-07T11:18:53Z</time>
      </trkpt>
      <trkpt lat="46.55585" lon="5.56561">
        <ele>554.4</ele>
        <time>2022-03-07T11:18:55Z</time>
      </trkpt>
      <trkpt lat="46.55585" lon="5.56562">
        <ele>554.4</ele>
        <time>2022-03-07T11:18:56Z</time>
      </trkpt>
      <trkpt lat="46.55586" lon="5.56563">
        <ele>554.6</ele>
        <time>2022-03-07T11:18:57Z</time>
      </trkpt>
      <trkpt lat="46.55587" lon="5.56564">
        <ele>554.6</ele>
        <time>2022-03-07T11:18:58Z</time>
      </trkpt>
      <trkpt lat="46.55587" lon="5.56565">
        <ele>554.6</ele>
        <time>2022-03-07T11:18:59Z</time>
      </trkpt>
      <trkpt lat="46.55588" lon="5.56567">
        <ele>555.4</ele>
        <time>2022-03-07T11:19:07Z</time>
      </trkpt>
      <trkpt lat="46.55588" lon="5.56568">
        <ele>555.4</ele>
        <time>2022-03-07T11:19:08Z</time>
      </trkpt>
      <trkpt lat="46.55589" lon="5.56569">
        <ele>555.4</ele>
        <time>2022-03-07T11:19:09Z</time>
      </trkpt>
      <trkpt lat="46.55589" lon="5.5657">
        <ele>555.4</ele>
        <time>2022-03-07T11:19:10Z</time>
      </trkpt>
      <trkpt lat="46.5559" lon="5.56571">
        <ele>555.6</ele>
        <time>2022-03-07T11:19:11Z</time>
      </trkpt>
      <trkpt lat="46.5559" lon="5.56572">
        <ele>555.6</ele>
        <time>2022-03-07T11:19:14Z</time>
      </trkpt>
      <trkpt lat="46.55591" lon="5.56574">
        <ele>555.6</ele>
        <time>2022-03-07T11:19:15Z</time>
      </trkpt>
      <trkpt lat="46.55591" lon="5.56575">
        <ele>555.8</ele>
        <time>2022-03-07T11:19:22Z</time>
      </trkpt>
      <trkpt lat="46.55592" lon="5.56576">
        <ele>555.8</ele>
        <time>2022-03-07T11:19:23Z</time>
      </trkpt>
      <trkpt lat="46.55592" lon="5.56577">
        <ele>556</ele>
        <time>2022-03-07T11:19:24Z</time>
      </trkpt>
      <trkpt lat="46.55593" lon="5.56578">
        <ele>556</ele>
        <time>2022-03-07T11:19:25Z</time>
      </trkpt>
      <trkpt lat="46.55593" lon="5.56579">
        <ele>556</ele>
        <time>2022-03-07T11:19:26Z</time>
      </trkpt>
      <trkpt lat="46.55594" lon="5.56581">
        <ele>556</ele>
        <time>2022-03-07T11:19:27Z</time>
      </trkpt>
      <trkpt lat="46.55594" lon="5.56582">
        <ele>556</ele>
        <time>2022-03-07T11:19:28Z</time>
      </trkpt>
      <trkpt lat="46.55595" lon="5.56583">
        <ele>556</ele>
        <time>2022-03-07T11:19:29Z</time>
      </trkpt>
      <trkpt lat="46.55595" lon="5.56584">
        <ele>556</ele>
        <time>2022-03-07T11:19:30Z</time>
      </trkpt>
      <trkpt lat="46.55596" lon="5.56585">
        <ele>556</ele>
        <time>2022-03-07T11:19:31Z</time>
      </trkpt>
      <trkpt lat="46.55596" lon="5.56587">
        <ele>556</ele>
        <time>2022-03-07T11:19:32Z</time>
      </trkpt>
      <trkpt lat="46.55597" lon="5.56588">
        <ele>556</ele>
        <time>2022-03-07T11:19:33Z</time>
      </trkpt>
      <trkpt lat="46.55597" lon="5.56589">
        <ele>556</ele>
        <time>2022-03-07T11:19:34Z</time>
      </trkpt>
      <trkpt lat="46.55598" lon="5.5659">
        <ele>556</ele>
        <time>2022-03-07T11:19:37Z</time>
      </trkpt>
      <trkpt lat="46.55598" lon="5.56591">
        <ele>556</ele>
        <time>2022-03-07T11:19:38Z</time>
      </trkpt>
      <trkpt lat="46.55599" lon="5.56592">
        <ele>556</ele>
        <time>2022-03-07T11:19:39Z</time>
      </trkpt>
      <trkpt lat="46.55599" lon="5.56594">
        <ele>556</ele>
        <time>2022-03-07T11:19:40Z</time>
      </trkpt>
      <trkpt lat="46.556" lon="5.56595">
        <ele>556</ele>
        <time>2022-03-07T11:19:41Z</time>
      </trkpt>
      <trkpt lat="46.556" lon="5.56596">
        <ele>556</ele>
        <time>2022-03-07T11:19:42Z</time>
      </trkpt>
      <trkpt lat="46.55601" lon="5.56597">
        <ele>556</ele>
        <time>2022-03-07T11:19:43Z</time>
      </trkpt>
      <trkpt lat="46.55601" lon="5.56598">
        <ele>556</ele>
        <time>2022-03-07T11:19:44Z</time>
      </trkpt>
      <trkpt lat="46.55602" lon="5.56599">
        <ele>556</ele>
        <time>2022-03-07T11:19:45Z</time>
      </trkpt>
      <trkpt lat="46.55602" lon="5.56601">
        <ele>556</ele>
        <time>2022-03-07T11:19:46Z</time>
      </trkpt>
      <trkpt lat="46.55603" lon="5.56602">
        <ele>556</ele>
        <time>2022-03-07T11:19:47Z</time>
      </trkpt>
      <trkpt lat="46.55603" lon="5.56603">
        <ele>556</ele>
        <time>2022-03-07T11:19:48Z</time>
      </trkpt>
      <trkpt lat="46.55604" lon="5.56605">
        <ele>555.8</ele>
        <time>2022-03-07T11:19:49Z</time>
      </trkpt>
      <trkpt lat="46.55604" lon="5.56606">
        <ele>555.8</ele>
        <time>2022-03-07T11:19:50Z</time>
      </trkpt>
      <trkpt lat="46.55604" lon="5.56607">
        <ele>555.8</ele>
        <time>2022-03-07T11:19:51Z</time>
      </trkpt>
      <trkpt lat="46.55604" lon="5.56607">
        <ele>555.8</ele>
        <time>2022-03-07T11:19:52Z</time>
      </trkpt>
      <trkpt lat="46.55604" lon="5.56608">
        <ele>555.8</ele>
        <time>2022-03-07T11:19:53Z</time>
      </trkpt>
      <trkpt lat="46.55604" lon="5.56609">
        <ele>555.4</ele>
        <time>2022-03-07T11:19:54Z</time>
      </trkpt>
      <trkpt lat="46.55605" lon="5.5661">
        <ele>554.2</ele>
        <time>2022-03-07T11:20:05Z</time>
      </trkpt>
      <trkpt lat="46.55605" lon="5.5661">
        <ele>554.2</ele>
        <time>2022-03-07T11:20:06Z</time>
      </trkpt>
      <trkpt lat="46.55605" lon="5.56611">
        <ele>554</ele>
        <time>2022-03-07T11:20:07Z</time>
      </trkpt>
      <trkpt lat="46.55605" lon="5.56612">
        <ele>554</ele>
        <time>2022-03-07T11:20:08Z</time>
      </trkpt>
      <trkpt lat="46.55605" lon="5.56613">
        <ele>554</ele>
        <time>2022-03-07T11:20:09Z</time>
      </trkpt>
      <trkpt lat="46.55606" lon="5.56613">
        <ele>554</ele>
        <time>2022-03-07T11:20:10Z</time>
      </trkpt>
      <trkpt lat="46.55606" lon="5.56614">
        <ele>553.8</ele>
        <time>2022-03-07T11:20:11Z</time>
      </trkpt>
      <trkpt lat="46.55606" lon="5.56615">
        <ele>553.8</ele>
        <time>2022-03-07T11:20:12Z</time>
      </trkpt>
      <trkpt lat="46.55606" lon="5.56616">
        <ele>553.8</ele>
        <time>2022-03-07T11:20:13Z</time>
      </trkpt>
      <trkpt lat="46.55606" lon="5.56616">
        <ele>553.6</ele>
        <time>2022-03-07T11:20:17Z</time>
      </trkpt>
      <trkpt lat="46.55606" lon="5.56617">
        <ele>553.6</ele>
        <time>2022-03-07T11:20:18Z</time>
      </trkpt>
      <trkpt lat="46.55607" lon="5.56618">
        <ele>553.6</ele>
        <time>2022-03-07T11:20:19Z</time>
      </trkpt>
      <trkpt lat="46.55607" lon="5.56619">
        <ele>553.6</ele>
        <time>2022-03-07T11:20:20Z</time>
      </trkpt>
      <trkpt lat="46.55607" lon="5.56619">
        <ele>553.6</ele>
        <time>2022-03-07T11:20:21Z</time>
      </trkpt>
      <trkpt lat="46.55607" lon="5.5662">
        <ele>553.2</ele>
        <time>2022-03-07T11:20:22Z</time>
      </trkpt>
      <trkpt lat="46.55607" lon="5.56621">
        <ele>553.2</ele>
        <time>2022-03-07T11:20:23Z</time>
      </trkpt>
      <trkpt lat="46.55608" lon="5.56622">
        <ele>553.2</ele>
        <time>2022-03-07T11:20:24Z</time>
      </trkpt>
      <trkpt lat="46.55608" lon="5.56622">
        <ele>553</ele>
        <time>2022-03-07T11:20:25Z</time>
      </trkpt>
      <trkpt lat="46.55608" lon="5.56623">
        <ele>553</ele>
        <time>2022-03-07T11:20:26Z</time>
      </trkpt>
      <trkpt lat="46.55608" lon="5.56624">
        <ele>552.8</ele>
        <time>2022-03-07T11:20:28Z</time>
      </trkpt>
      <trkpt lat="46.55608" lon="5.56625">
        <ele>552.8</ele>
        <time>2022-03-07T11:20:29Z</time>
      </trkpt>
      <trkpt lat="46.55609" lon="5.56625">
        <ele>552.4</ele>
        <time>2022-03-07T11:20:30Z</time>
      </trkpt>
      <trkpt lat="46.55609" lon="5.56626">
        <ele>552.4</ele>
        <time>2022-03-07T11:20:31Z</time>
      </trkpt>
      <trkpt lat="46.55609" lon="5.56627">
        <ele>552.2</ele>
        <time>2022-03-07T11:20:32Z</time>
      </trkpt>
      <trkpt lat="46.55609" lon="5.56628">
        <ele>552.2</ele>
        <time>2022-03-07T11:20:33Z</time>
      </trkpt>
      <trkpt lat="46.55609" lon="5.56628">
        <ele>551.6</ele>
        <time>2022-03-07T11:20:35Z</time>
      </trkpt>
      <trkpt lat="46.55609" lon="5.56629">
        <ele>551.6</ele>
        <time>2022-03-07T11:20:36Z</time>
      </trkpt>
      <trkpt lat="46.5561" lon="5.5663">
        <ele>551.4</ele>
        <time>2022-03-07T11:20:37Z</time>
      </trkpt>
      <trkpt lat="46.5561" lon="5.56631">
        <ele>551.4</ele>
        <time>2022-03-07T11:20:38Z</time>
      </trkpt>
      <trkpt lat="46.5561" lon="5.56631">
        <ele>551.4</ele>
        <time>2022-03-07T11:20:39Z</time>
      </trkpt>
      <trkpt lat="46.5561" lon="5.56632">
        <ele>551</ele>
        <time>2022-03-07T11:20:40Z</time>
      </trkpt>
      <trkpt lat="46.5561" lon="5.56633">
        <ele>551</ele>
        <time>2022-03-07T11:20:41Z</time>
      </trkpt>
      <trkpt lat="46.55611" lon="5.56634">
        <ele>550.8</ele>
        <time>2022-03-07T11:20:42Z</time>
      </trkpt>
      <trkpt lat="46.55611" lon="5.56634">
        <ele>550.8</ele>
        <time>2022-03-07T11:20:43Z</time>
      </trkpt>
      <trkpt lat="46.55611" lon="5.56637">
        <ele>550.8</ele>
        <time>2022-03-07T11:20:44Z</time>
      </trkpt>
      <trkpt lat="46.55611" lon="5.5664">
        <ele>550.6</ele>
        <time>2022-03-07T11:20:45Z</time>
      </trkpt>
      <trkpt lat="46.55611" lon="5.56642">
        <ele>550.6</ele>
        <time>2022-03-07T11:20:46Z</time>
      </trkpt>
      <trkpt lat="46.5561" lon="5.56644">
        <ele>550.2</ele>
        <time>2022-03-07T11:20:47Z</time>
      </trkpt>
      <trkpt lat="46.5561" lon="5.56647">
        <ele>550.2</ele>
        <time>2022-03-07T11:20:48Z</time>
      </trkpt>
      <trkpt lat="46.5561" lon="5.56649">
        <ele>549.8</ele>
        <time>2022-03-07T11:20:51Z</time>
      </trkpt>
      <trkpt lat="46.5561" lon="5.56651">
        <ele>549.8</ele>
        <time>2022-03-07T11:20:52Z</time>
      </trkpt>
      <trkpt lat="46.5561" lon="5.56654">
        <ele>549.4</ele>
        <time>2022-03-07T11:20:58Z</time>
      </trkpt>
      <trkpt lat="46.5561" lon="5.56656">
        <ele>549.4</ele>
        <time>2022-03-07T11:20:59Z</time>
      </trkpt>
      <trkpt lat="46.5561" lon="5.56658">
        <ele>549.4</ele>
        <time>2022-03-07T11:21:00Z</time>
      </trkpt>
      <trkpt lat="46.5561" lon="5.56661">
        <ele>549.4</ele>
        <time>2022-03-07T11:21:01Z</time>
      </trkpt>
      <trkpt lat="46.5561" lon="5.56663">
        <ele>549.2</ele>
        <time>2022-03-07T11:21:02Z</time>
      </trkpt>
      <trkpt lat="46.5561" lon="5.56665">
        <ele>549.2</ele>
        <time>2022-03-07T11:21:12Z</time>
      </trkpt>
      <trkpt lat="46.5561" lon="5.56668">
        <ele>549.2</ele>
        <time>2022-03-07T11:21:13Z</time>
      </trkpt>
      <trkpt lat="46.55611" lon="5.56671">
        <ele>549.2</ele>
        <time>2022-03-07T11:21:14Z</time>
      </trkpt>
      <trkpt lat="46.55611" lon="5.56674">
        <ele>549.2</ele>
        <time>2022-03-07T11:21:15Z</time>
      </trkpt>
      <trkpt lat="46.55612" lon="5.56676">
        <ele>549.2</ele>
        <time>2022-03-07T11:21:16Z</time>
      </trkpt>
      <trkpt lat="46.55612" lon="5.56678">
        <ele>549.2</ele>
        <time>2022-03-07T11:21:17Z</time>
      </trkpt>
      <trkpt lat="46.55613" lon="5.56681">
        <ele>550</ele>
        <time>2022-03-07T11:21:26Z</time>
      </trkpt>
      <trkpt lat="46.55613" lon="5.56683">
        <ele>550</ele>
        <time>2022-03-07T11:21:27Z</time>
      </trkpt>
      <trkpt lat="46.55614" lon="5.56686">
        <ele>550.2</ele>
        <time>2022-03-07T11:21:28Z</time>
      </trkpt>
      <trkpt lat="46.55614" lon="5.56688">
        <ele>550.2</ele>
        <time>2022-03-07T11:21:29Z</time>
      </trkpt>
      <trkpt lat="46.55615" lon="5.56691">
        <ele>550.2</ele>
        <time>2022-03-07T11:21:30Z</time>
      </trkpt>
      <trkpt lat="46.55615" lon="5.56693">
        <ele>551</ele>
        <time>2022-03-07T11:21:36Z</time>
      </trkpt>
      <trkpt lat="46.55616" lon="5.56695">
        <ele>551</ele>
        <time>2022-03-07T11:21:37Z</time>
      </trkpt>
      <trkpt lat="46.55617" lon="5.56698">
        <ele>551.2</ele>
        <time>2022-03-07T11:21:39Z</time>
      </trkpt>
      <trkpt lat="46.55617" lon="5.567">
        <ele>551.6</ele>
        <time>2022-03-07T11:21:40Z</time>
      </trkpt>
      <trkpt lat="46.55618" lon="5.56701">
        <ele>551.6</ele>
        <time>2022-03-07T11:21:41Z</time>
      </trkpt>
      <trkpt lat="46.55618" lon="5.56702">
        <ele>551.8</ele>
        <time>2022-03-07T11:21:42Z</time>
      </trkpt>
      <trkpt lat="46.55618" lon="5.56702">
        <ele>551.8</ele>
        <time>2022-03-07T11:21:43Z</time>
      </trkpt>
      <trkpt lat="46.55618" lon="5.56702">
        <ele>552.2</ele>
        <time>2022-03-07T11:21:44Z</time>
      </trkpt>
      <trkpt lat="46.55618" lon="5.56703">
        <ele>552.4</ele>
        <time>2022-03-07T11:21:47Z</time>
      </trkpt>
      <trkpt lat="46.55619" lon="5.56703">
        <ele>552.8</ele>
        <time>2022-03-07T11:21:48Z</time>
      </trkpt>
      <trkpt lat="46.55619" lon="5.56703">
        <ele>552.8</ele>
        <time>2022-03-07T11:21:49Z</time>
      </trkpt>
      <trkpt lat="46.55619" lon="5.56704">
        <ele>553</ele>
        <time>2022-03-07T11:21:50Z</time>
      </trkpt>
      <trkpt lat="46.55619" lon="5.56704">
        <ele>553</ele>
        <time>2022-03-07T11:21:51Z</time>
      </trkpt>
      <trkpt lat="46.5562" lon="5.56704">
        <ele>553</ele>
        <time>2022-03-07T11:21:52Z</time>
      </trkpt>
      <trkpt lat="46.5562" lon="5.56705">
        <ele>553.2</ele>
        <time>2022-03-07T11:21:56Z</time>
      </trkpt>
      <trkpt lat="46.5562" lon="5.56705">
        <ele>553.2</ele>
        <time>2022-03-07T11:21:57Z</time>
      </trkpt>
      <trkpt lat="46.5562" lon="5.56705">
        <ele>553.2</ele>
        <time>2022-03-07T11:21:58Z</time>
      </trkpt>
      <trkpt lat="46.5562" lon="5.56706">
        <ele>553.2</ele>
        <time>2022-03-07T11:22:03Z</time>
      </trkpt>
      <trkpt lat="46.55621" lon="5.56706">
        <ele>553.2</ele>
        <time>2022-03-07T11:22:04Z</time>
      </trkpt>
      <trkpt lat="46.55621" lon="5.56707">
        <ele>553.2</ele>
        <time>2022-03-07T11:22:05Z</time>
      </trkpt>
      <trkpt lat="46.55621" lon="5.56707">
        <ele>553.2</ele>
        <time>2022-03-07T11:22:06Z</time>
      </trkpt>
      <trkpt lat="46.55621" lon="5.56707">
        <ele>553.2</ele>
        <time>2022-03-07T11:22:11Z</time>
      </trkpt>
      <trkpt lat="46.55621" lon="5.56708">
        <ele>553.2</ele>
        <time>2022-03-07T11:22:12Z</time>
      </trkpt>
      <trkpt lat="46.55622" lon="5.56708">
        <ele>553.2</ele>
        <time>2022-03-07T11:22:13Z</time>
      </trkpt>
      <trkpt lat="46.55622" lon="5.56708">
        <ele>553.2</ele>
        <time>2022-03-07T11:22:31Z</time>
      </trkpt>
      <trkpt lat="46.55622" lon="5.56709">
        <ele>553.2</ele>
        <time>2022-03-07T11:22:32Z</time>
      </trkpt>
      <trkpt lat="46.55622" lon="5.56709">
        <ele>553.2</ele>
        <time>2022-03-07T11:22:33Z</time>
      </trkpt>
      <trkpt lat="46.55623" lon="5.56709">
        <ele>553.2</ele>
        <time>2022-03-07T11:22:34Z</time>
      </trkpt>
      <trkpt lat="46.55623" lon="5.5671">
        <ele>553.2</ele>
        <time>2022-03-07T11:22:36Z</time>
      </trkpt>
      <trkpt lat="46.55623" lon="5.5671">
        <ele>553.2</ele>
        <time>2022-03-07T11:22:37Z</time>
      </trkpt>
      <trkpt lat="46.55623" lon="5.5671">
        <ele>553.2</ele>
        <time>2022-03-07T11:22:38Z</time>
      </trkpt>
      <trkpt lat="46.55623" lon="5.56711">
        <ele>553.2</ele>
        <time>2022-03-07T11:22:39Z</time>
      </trkpt>
      <trkpt lat="46.55624" lon="5.56711">
        <ele>553.2</ele>
        <time>2022-03-07T11:22:40Z</time>
      </trkpt>
      <trkpt lat="46.55624" lon="5.56712">
        <ele>553.2</ele>
        <time>2022-03-07T11:22:41Z</time>
      </trkpt>
      <trkpt lat="46.55624" lon="5.56712">
        <ele>553.2</ele>
        <time>2022-03-07T11:22:42Z</time>
      </trkpt>
      <trkpt lat="46.55624" lon="5.56712">
        <ele>553.2</ele>
        <time>2022-03-07T11:22:43Z</time>
      </trkpt>
      <trkpt lat="46.55625" lon="5.56713">
        <ele>553.2</ele>
        <time>2022-03-07T11:22:44Z</time>
      </trkpt>
      <trkpt lat="46.55625" lon="5.56714">
        <ele>553.2</ele>
        <time>2022-03-07T11:22:45Z</time>
      </trkpt>
      <trkpt lat="46.55625" lon="5.56714">
        <ele>553.4</ele>
        <time>2022-03-07T11:22:46Z</time>
      </trkpt>
      <trkpt lat="46.55625" lon="5.56714">
        <ele>553.4</ele>
        <time>2022-03-07T11:22:47Z</time>
      </trkpt>
      <trkpt lat="46.55625" lon="5.56714">
        <ele>553.4</ele>
        <time>2022-03-07T11:22:48Z</time>
      </trkpt>
      <trkpt lat="46.55625" lon="5.56714">
        <ele>553.4</ele>
        <time>2022-03-07T11:22:49Z</time>
      </trkpt>
      <trkpt lat="46.55625" lon="5.56714">
        <ele>553.6</ele>
        <time>2022-03-07T11:22:51Z</time>
      </trkpt>
      <trkpt lat="46.55625" lon="5.56714">
        <ele>554</ele>
        <time>2022-03-07T11:22:52Z</time>
      </trkpt>
      <trkpt lat="46.55625" lon="5.56714">
        <ele>554</ele>
        <time>2022-03-07T11:22:53Z</time>
      </trkpt>
      <trkpt lat="46.55625" lon="5.56714">
        <ele>554.2</ele>
        <time>2022-03-07T11:22:54Z</time>
      </trkpt>
      <trkpt lat="46.55625" lon="5.56727">
        <ele>554.4</ele>
        <time>2022-03-07T11:22:57Z</time>
      </trkpt>
      <trkpt lat="46.55625" lon="5.56729">
        <ele>554.4</ele>
        <time>2022-03-07T11:22:58Z</time>
      </trkpt>
      <trkpt lat="46.55625" lon="5.5673">
        <ele>554.6</ele>
        <time>2022-03-07T11:22:59Z</time>
      </trkpt>
      <trkpt lat="46.55625" lon="5.5673">
        <ele>554.6</ele>
        <time>2022-03-07T11:23:00Z</time>
      </trkpt>
      <trkpt lat="46.55626" lon="5.56731">
        <ele>554.6</ele>
        <time>2022-03-07T11:23:01Z</time>
      </trkpt>
      <trkpt lat="46.55626" lon="5.56732">
        <ele>555</ele>
        <time>2022-03-07T11:23:06Z</time>
      </trkpt>
      <trkpt lat="46.55626" lon="5.56733">
        <ele>555.2</ele>
        <time>2022-03-07T11:23:07Z</time>
      </trkpt>
      <trkpt lat="46.55626" lon="5.56734">
        <ele>555.2</ele>
        <time>2022-03-07T11:23:08Z</time>
      </trkpt>
      <trkpt lat="46.55627" lon="5.56735">
        <ele>555.2</ele>
        <time>2022-03-07T11:23:09Z</time>
      </trkpt>
      <trkpt lat="46.55627" lon="5.56736">
        <ele>555.2</ele>
        <time>2022-03-07T11:23:10Z</time>
      </trkpt>
      <trkpt lat="46.55627" lon="5.56736">
        <ele>555.2</ele>
        <time>2022-03-07T11:23:11Z</time>
      </trkpt>
      <trkpt lat="46.55627" lon="5.56737">
        <ele>555.2</ele>
        <time>2022-03-07T11:23:12Z</time>
      </trkpt>
      <trkpt lat="46.55627" lon="5.56738">
        <ele>555.2</ele>
        <time>2022-03-07T11:23:13Z</time>
      </trkpt>
      <trkpt lat="46.55628" lon="5.56739">
        <ele>555.2</ele>
        <time>2022-03-07T11:23:14Z</time>
      </trkpt>
      <trkpt lat="46.55628" lon="5.5674">
        <ele>555.6</ele>
        <time>2022-03-07T11:23:15Z</time>
      </trkpt>
      <trkpt lat="46.55628" lon="5.56741">
        <ele>555.6</ele>
        <time>2022-03-07T11:23:16Z</time>
      </trkpt>
      <trkpt lat="46.55628" lon="5.56742">
        <ele>555.6</ele>
        <time>2022-03-07T11:23:17Z</time>
      </trkpt>
      <trkpt lat="46.55628" lon="5.56742">
        <ele>555.6</ele>
        <time>2022-03-07T11:23:18Z</time>
      </trkpt>
      <trkpt lat="46.55628" lon="5.56745">
        <ele>555.6</ele>
        <time>2022-03-07T11:23:19Z</time>
      </trkpt>
      <trkpt lat="46.55628" lon="5.56746">
        <ele>555.6</ele>
        <time>2022-03-07T11:23:20Z</time>
      </trkpt>
      <trkpt lat="46.55628" lon="5.56747">
        <ele>555.6</ele>
        <time>2022-03-07T11:23:21Z</time>
      </trkpt>
      <trkpt lat="46.55628" lon="5.56748">
        <ele>555.8</ele>
        <time>2022-03-07T11:23:22Z</time>
      </trkpt>
      <trkpt lat="46.55628" lon="5.56749">
        <ele>555.8</ele>
        <time>2022-03-07T11:23:23Z</time>
      </trkpt>
      <trkpt lat="46.55628" lon="5.5675">
        <ele>555.8</ele>
        <time>2022-03-07T11:23:24Z</time>
      </trkpt>
      <trkpt lat="46.55628" lon="5.56752">
        <ele>555.8</ele>
        <time>2022-03-07T11:23:25Z</time>
      </trkpt>
      <trkpt lat="46.55628" lon="5.56753">
        <ele>556</ele>
        <time>2022-03-07T11:23:27Z</time>
      </trkpt>
      <trkpt lat="46.55628" lon="5.56754">
        <ele>556</ele>
        <time>2022-03-07T11:23:28Z</time>
      </trkpt>
      <trkpt lat="46.55628" lon="5.56755">
        <ele>556</ele>
        <time>2022-03-07T11:23:31Z</time>
      </trkpt>
      <trkpt lat="46.55628" lon="5.56756">
        <ele>556</ele>
        <time>2022-03-07T11:23:32Z</time>
      </trkpt>
      <trkpt lat="46.55628" lon="5.56757">
        <ele>556</ele>
        <time>2022-03-07T11:23:35Z</time>
      </trkpt>
      <trkpt lat="46.55628" lon="5.56758">
        <ele>556</ele>
        <time>2022-03-07T11:23:36Z</time>
      </trkpt>
      <trkpt lat="46.55628" lon="5.5676">
        <ele>556</ele>
        <time>2022-03-07T11:23:37Z</time>
      </trkpt>
      <trkpt lat="46.55628" lon="5.56761">
        <ele>556</ele>
        <time>2022-03-07T11:23:38Z</time>
      </trkpt>
      <trkpt lat="46.55628" lon="5.56762">
        <ele>556</ele>
        <time>2022-03-07T11:23:39Z</time>
      </trkpt>
      <trkpt lat="46.55628" lon="5.56762">
        <ele>556</ele>
        <time>2022-03-07T11:23:40Z</time>
      </trkpt>
      <trkpt lat="46.55628" lon="5.56762">
        <ele>556</ele>
        <time>2022-03-07T11:23:44Z</time>
      </trkpt>
      <trkpt lat="46.55628" lon="5.56762">
        <ele>556</ele>
        <time>2022-03-07T11:23:45Z</time>
      </trkpt>
      <trkpt lat="46.55631" lon="5.56776">
        <ele>556.2</ele>
        <time>2022-03-07T11:23:52Z</time>
      </trkpt>
      <trkpt lat="46.55631" lon="5.56777">
        <ele>556.4</ele>
        <time>2022-03-07T11:23:53Z</time>
      </trkpt>
      <trkpt lat="46.55631" lon="5.56778">
        <ele>556.4</ele>
        <time>2022-03-07T11:23:54Z</time>
      </trkpt>
      <trkpt lat="46.55631" lon="5.5678">
        <ele>556.4</ele>
        <time>2022-03-07T11:23:55Z</time>
      </trkpt>
      <trkpt lat="46.55631" lon="5.5678">
        <ele>556.4</ele>
        <time>2022-03-07T11:23:56Z</time>
      </trkpt>
      <trkpt lat="46.55631" lon="5.5678">
        <ele>556.6</ele>
        <time>2022-03-07T11:23:58Z</time>
      </trkpt>
      <trkpt lat="46.55631" lon="5.5678">
        <ele>556.6</ele>
        <time>2022-03-07T11:23:59Z</time>
      </trkpt>
      <trkpt lat="46.55631" lon="5.5678">
        <ele>556.6</ele>
        <time>2022-03-07T11:24:00Z</time>
      </trkpt>
      <trkpt lat="46.55631" lon="5.5678">
        <ele>556.8</ele>
        <time>2022-03-07T11:24:01Z</time>
      </trkpt>
      <trkpt lat="46.55636" lon="5.56788">
        <ele>556.8</ele>
        <time>2022-03-07T11:24:04Z</time>
      </trkpt>
      <trkpt lat="46.55637" lon="5.56789">
        <ele>556.8</ele>
        <time>2022-03-07T11:24:05Z</time>
      </trkpt>
      <trkpt lat="46.55637" lon="5.5679">
        <ele>556.8</ele>
        <time>2022-03-07T11:24:06Z</time>
      </trkpt>
      <trkpt lat="46.55638" lon="5.5679">
        <ele>556.8</ele>
        <time>2022-03-07T11:24:07Z</time>
      </trkpt>
      <trkpt lat="46.55638" lon="5.56791">
        <ele>556.8</ele>
        <time>2022-03-07T11:24:08Z</time>
      </trkpt>
      <trkpt lat="46.55638" lon="5.56792">
        <ele>556.8</ele>
        <time>2022-03-07T11:24:09Z</time>
      </trkpt>
      <trkpt lat="46.55638" lon="5.56793">
        <ele>556.8</ele>
        <time>2022-03-07T11:24:10Z</time>
      </trkpt>
      <trkpt lat="46.55638" lon="5.56793">
        <ele>557</ele>
        <time>2022-03-07T11:24:11Z</time>
      </trkpt>
      <trkpt lat="46.55639" lon="5.56794">
        <ele>557</ele>
        <time>2022-03-07T11:24:12Z</time>
      </trkpt>
      <trkpt lat="46.55639" lon="5.56795">
        <ele>557</ele>
        <time>2022-03-07T11:24:13Z</time>
      </trkpt>
      <trkpt lat="46.55639" lon="5.56795">
        <ele>557</ele>
        <time>2022-03-07T11:24:14Z</time>
      </trkpt>
      <trkpt lat="46.55639" lon="5.56796">
        <ele>557</ele>
        <time>2022-03-07T11:24:15Z</time>
      </trkpt>
      <trkpt lat="46.55639" lon="5.56797">
        <ele>557</ele>
        <time>2022-03-07T11:24:16Z</time>
      </trkpt>
      <trkpt lat="46.55639" lon="5.56797">
        <ele>557</ele>
        <time>2022-03-07T11:24:17Z</time>
      </trkpt>
      <trkpt lat="46.5564" lon="5.56798">
        <ele>557.4</ele>
        <time>2022-03-07T11:24:18Z</time>
      </trkpt>
      <trkpt lat="46.5564" lon="5.56799">
        <ele>557.4</ele>
        <time>2022-03-07T11:24:19Z</time>
      </trkpt>
      <trkpt lat="46.5564" lon="5.56799">
        <ele>557.6</ele>
        <time>2022-03-07T11:24:20Z</time>
      </trkpt>
      <trkpt lat="46.5564" lon="5.568">
        <ele>557.6</ele>
        <time>2022-03-07T11:24:21Z</time>
      </trkpt>
      <trkpt lat="46.5564" lon="5.56801">
        <ele>557.6</ele>
        <time>2022-03-07T11:24:22Z</time>
      </trkpt>
      <trkpt lat="46.55641" lon="5.56801">
        <ele>557.6</ele>
        <time>2022-03-07T11:24:23Z</time>
      </trkpt>
      <trkpt lat="46.55641" lon="5.56802">
        <ele>557.6</ele>
        <time>2022-03-07T11:24:24Z</time>
      </trkpt>
      <trkpt lat="46.55641" lon="5.56803">
        <ele>557.6</ele>
        <time>2022-03-07T11:24:25Z</time>
      </trkpt>
      <trkpt lat="46.55641" lon="5.56804">
        <ele>557.6</ele>
        <time>2022-03-07T11:24:26Z</time>
      </trkpt>
      <trkpt lat="46.55641" lon="5.56805">
        <ele>557.8</ele>
        <time>2022-03-07T11:24:27Z</time>
      </trkpt>
      <trkpt lat="46.55641" lon="5.56806">
        <ele>557.8</ele>
        <time>2022-03-07T11:24:28Z</time>
      </trkpt>
      <trkpt lat="46.55641" lon="5.56806">
        <ele>557.8</ele>
        <time>2022-03-07T11:24:29Z</time>
      </trkpt>
      <trkpt lat="46.55639" lon="5.56812">
        <ele>558</ele>
        <time>2022-03-07T11:24:32Z</time>
      </trkpt>
      <trkpt lat="46.55639" lon="5.56814">
        <ele>558</ele>
        <time>2022-03-07T11:24:33Z</time>
      </trkpt>
      <trkpt lat="46.55638" lon="5.56816">
        <ele>558</ele>
        <time>2022-03-07T11:24:34Z</time>
      </trkpt>
      <trkpt lat="46.55638" lon="5.56818">
        <ele>558</ele>
        <time>2022-03-07T11:24:35Z</time>
      </trkpt>
      <trkpt lat="46.55638" lon="5.56819">
        <ele>558</ele>
        <time>2022-03-07T11:24:36Z</time>
      </trkpt>
      <trkpt lat="46.55638" lon="5.5682">
        <ele>558</ele>
        <time>2022-03-07T11:24:37Z</time>
      </trkpt>
      <trkpt lat="46.55638" lon="5.56821">
        <ele>558</ele>
        <time>2022-03-07T11:24:38Z</time>
      </trkpt>
      <trkpt lat="46.55638" lon="5.56821">
        <ele>558</ele>
        <time>2022-03-07T11:24:39Z</time>
      </trkpt>
      <trkpt lat="46.55636" lon="5.56835">
        <ele>558</ele>
        <time>2022-03-07T11:24:47Z</time>
      </trkpt>
      <trkpt lat="46.55636" lon="5.56837">
        <ele>558</ele>
        <time>2022-03-07T11:24:48Z</time>
      </trkpt>
      <trkpt lat="46.55635" lon="5.56839">
        <ele>558</ele>
        <time>2022-03-07T11:24:49Z</time>
      </trkpt>
      <trkpt lat="46.55635" lon="5.56841">
        <ele>558</ele>
        <time>2022-03-07T11:24:50Z</time>
      </trkpt>
      <trkpt lat="46.55634" lon="5.56843">
        <ele>558</ele>
        <time>2022-03-07T11:24:51Z</time>
      </trkpt>
      <trkpt lat="46.55634" lon="5.56845">
        <ele>558</ele>
        <time>2022-03-07T11:24:52Z</time>
      </trkpt>
      <trkpt lat="46.55634" lon="5.56847">
        <ele>558</ele>
        <time>2022-03-07T11:24:53Z</time>
      </trkpt>
      <trkpt lat="46.55634" lon="5.56849">
        <ele>558</ele>
        <time>2022-03-07T11:24:54Z</time>
      </trkpt>
      <trkpt lat="46.55634" lon="5.56851">
        <ele>558</ele>
        <time>2022-03-07T11:24:55Z</time>
      </trkpt>
      <trkpt lat="46.55634" lon="5.56853">
        <ele>558</ele>
        <time>2022-03-07T11:24:56Z</time>
      </trkpt>
      <trkpt lat="46.55634" lon="5.56856">
        <ele>558</ele>
        <time>2022-03-07T11:24:57Z</time>
      </trkpt>
      <trkpt lat="46.55634" lon="5.56858">
        <ele>558</ele>
        <time>2022-03-07T11:24:58Z</time>
      </trkpt>
      <trkpt lat="46.55634" lon="5.5686">
        <ele>558.2</ele>
        <time>2022-03-07T11:24:59Z</time>
      </trkpt>
      <trkpt lat="46.55634" lon="5.56862">
        <ele>558.2</ele>
        <time>2022-03-07T11:25:00Z</time>
      </trkpt>
      <trkpt lat="46.55634" lon="5.56864">
        <ele>558.2</ele>
        <time>2022-03-07T11:25:01Z</time>
      </trkpt>
      <trkpt lat="46.55634" lon="5.56865">
        <ele>558.4</ele>
        <time>2022-03-07T11:25:02Z</time>
      </trkpt>
      <trkpt lat="46.55634" lon="5.56868">
        <ele>558.4</ele>
        <time>2022-03-07T11:25:03Z</time>
      </trkpt>
      <trkpt lat="46.55634" lon="5.56871">
        <ele>558.4</ele>
        <time>2022-03-07T11:25:04Z</time>
      </trkpt>
      <trkpt lat="46.55634" lon="5.56874">
        <ele>558.4</ele>
        <time>2022-03-07T11:25:05Z</time>
      </trkpt>
      <trkpt lat="46.55634" lon="5.56877">
        <ele>558.8</ele>
        <time>2022-03-07T11:25:06Z</time>
      </trkpt>
      <trkpt lat="46.55634" lon="5.56879">
        <ele>558.8</ele>
        <time>2022-03-07T11:25:07Z</time>
      </trkpt>
      <trkpt lat="46.55634" lon="5.56882">
        <ele>558.8</ele>
        <time>2022-03-07T11:25:08Z</time>
      </trkpt>
      <trkpt lat="46.55634" lon="5.56885">
        <ele>558.8</ele>
        <time>2022-03-07T11:25:09Z</time>
      </trkpt>
      <trkpt lat="46.55634" lon="5.56888">
        <ele>558.8</ele>
        <time>2022-03-07T11:25:10Z</time>
      </trkpt>
      <trkpt lat="46.55633" lon="5.5689">
        <ele>558.8</ele>
        <time>2022-03-07T11:25:11Z</time>
      </trkpt>
      <trkpt lat="46.55633" lon="5.56893">
        <ele>558.8</ele>
        <time>2022-03-07T11:25:12Z</time>
      </trkpt>
      <trkpt lat="46.55633" lon="5.56897">
        <ele>558.8</ele>
        <time>2022-03-07T11:25:13Z</time>
      </trkpt>
      <trkpt lat="46.55633" lon="5.56899">
        <ele>558.8</ele>
        <time>2022-03-07T11:25:14Z</time>
      </trkpt>
      <trkpt lat="46.55633" lon="5.56902">
        <ele>558.6</ele>
        <time>2022-03-07T11:25:15Z</time>
      </trkpt>
      <trkpt lat="46.55632" lon="5.56905">
        <ele>558.6</ele>
        <time>2022-03-07T11:25:16Z</time>
      </trkpt>
      <trkpt lat="46.55632" lon="5.56908">
        <ele>558.6</ele>
        <time>2022-03-07T11:25:17Z</time>
      </trkpt>
      <trkpt lat="46.55632" lon="5.56911">
        <ele>558.6</ele>
        <time>2022-03-07T11:25:18Z</time>
      </trkpt>
      <trkpt lat="46.55632" lon="5.56914">
        <ele>558.6</ele>
        <time>2022-03-07T11:25:19Z</time>
      </trkpt>
      <trkpt lat="46.55633" lon="5.56916">
        <ele>558.6</ele>
        <time>2022-03-07T11:25:20Z</time>
      </trkpt>
      <trkpt lat="46.55633" lon="5.56919">
        <ele>558.6</ele>
        <time>2022-03-07T11:25:21Z</time>
      </trkpt>
      <trkpt lat="46.55634" lon="5.56921">
        <ele>558.6</ele>
        <time>2022-03-07T11:25:22Z</time>
      </trkpt>
      <trkpt lat="46.55634" lon="5.56924">
        <ele>558.6</ele>
        <time>2022-03-07T11:25:23Z</time>
      </trkpt>
      <trkpt lat="46.55634" lon="5.56926">
        <ele>558.6</ele>
        <time>2022-03-07T11:25:24Z</time>
      </trkpt>
      <trkpt lat="46.55634" lon="5.56929">
        <ele>558.6</ele>
        <time>2022-03-07T11:25:25Z</time>
      </trkpt>
      <trkpt lat="46.55634" lon="5.56931">
        <ele>558.6</ele>
        <time>2022-03-07T11:25:26Z</time>
      </trkpt>
      <trkpt lat="46.55635" lon="5.56933">
        <ele>558.6</ele>
        <time>2022-03-07T11:25:27Z</time>
      </trkpt>
      <trkpt lat="46.55636" lon="5.56936">
        <ele>558.2</ele>
        <time>2022-03-07T11:25:28Z</time>
      </trkpt>
      <trkpt lat="46.55637" lon="5.56938">
        <ele>558.2</ele>
        <time>2022-03-07T11:25:29Z</time>
      </trkpt>
      <trkpt lat="46.55637" lon="5.5694">
        <ele>558.2</ele>
        <time>2022-03-07T11:25:30Z</time>
      </trkpt>
      <trkpt lat="46.55638" lon="5.56942">
        <ele>558.2</ele>
        <time>2022-03-07T11:25:31Z</time>
      </trkpt>
      <trkpt lat="46.55638" lon="5.56944">
        <ele>558.2</ele>
        <time>2022-03-07T11:25:32Z</time>
      </trkpt>
      <trkpt lat="46.55638" lon="5.56947">
        <ele>558.2</ele>
        <time>2022-03-07T11:25:33Z</time>
      </trkpt>
      <trkpt lat="46.55638" lon="5.56948">
        <ele>558.6</ele>
        <time>2022-03-07T11:25:34Z</time>
      </trkpt>
      <trkpt lat="46.55638" lon="5.5695">
        <ele>558.6</ele>
        <time>2022-03-07T11:25:35Z</time>
      </trkpt>
      <trkpt lat="46.55638" lon="5.56951">
        <ele>558.6</ele>
        <time>2022-03-07T11:25:36Z</time>
      </trkpt>
      <trkpt lat="46.55638" lon="5.56951">
        <ele>558.8</ele>
        <time>2022-03-07T11:25:37Z</time>
      </trkpt>
      <trkpt lat="46.55638" lon="5.56951">
        <ele>558.8</ele>
        <time>2022-03-07T11:25:41Z</time>
      </trkpt>
      <trkpt lat="46.55638" lon="5.56951">
        <ele>558.8</ele>
        <time>2022-03-07T11:25:42Z</time>
      </trkpt>
      <trkpt lat="46.55638" lon="5.56951">
        <ele>558.8</ele>
        <time>2022-03-07T11:25:43Z</time>
      </trkpt>
      <trkpt lat="46.55638" lon="5.56951">
        <ele>558.8</ele>
        <time>2022-03-07T11:25:44Z</time>
      </trkpt>
      <trkpt lat="46.55641" lon="5.56963">
        <ele>558.8</ele>
        <time>2022-03-07T11:25:46Z</time>
      </trkpt>
      <trkpt lat="46.55642" lon="5.56965">
        <ele>558.8</ele>
        <time>2022-03-07T11:25:47Z</time>
      </trkpt>
      <trkpt lat="46.55642" lon="5.56965">
        <ele>558.8</ele>
        <time>2022-03-07T11:25:48Z</time>
      </trkpt>
      <trkpt lat="46.55642" lon="5.56966">
        <ele>558.8</ele>
        <time>2022-03-07T11:25:49Z</time>
      </trkpt>
      <trkpt lat="46.55642" lon="5.56966">
        <ele>558.8</ele>
        <time>2022-03-07T11:25:50Z</time>
      </trkpt>
      <trkpt lat="46.55642" lon="5.56967">
        <ele>558.8</ele>
        <time>2022-03-07T11:25:51Z</time>
      </trkpt>
      <trkpt lat="46.55642" lon="5.56968">
        <ele>558.8</ele>
        <time>2022-03-07T11:25:52Z</time>
      </trkpt>
      <trkpt lat="46.55642" lon="5.56968">
        <ele>558.8</ele>
        <time>2022-03-07T11:25:53Z</time>
      </trkpt>
      <trkpt lat="46.55642" lon="5.56969">
        <ele>558.8</ele>
        <time>2022-03-07T11:25:54Z</time>
      </trkpt>
      <trkpt lat="46.55642" lon="5.56969">
        <ele>558.8</ele>
        <time>2022-03-07T11:25:55Z</time>
      </trkpt>
      <trkpt lat="46.55642" lon="5.5697">
        <ele>558.8</ele>
        <time>2022-03-07T11:25:56Z</time>
      </trkpt>
      <trkpt lat="46.55642" lon="5.56971">
        <ele>558.8</ele>
        <time>2022-03-07T11:25:57Z</time>
      </trkpt>
      <trkpt lat="46.55643" lon="5.56971">
        <ele>558.8</ele>
        <time>2022-03-07T11:25:58Z</time>
      </trkpt>
      <trkpt lat="46.55643" lon="5.56972">
        <ele>558.8</ele>
        <time>2022-03-07T11:25:59Z</time>
      </trkpt>
      <trkpt lat="46.55643" lon="5.56972">
        <ele>559</ele>
        <time>2022-03-07T11:26:00Z</time>
      </trkpt>
      <trkpt lat="46.55643" lon="5.56973">
        <ele>559</ele>
        <time>2022-03-07T11:26:02Z</time>
      </trkpt>
      <trkpt lat="46.55643" lon="5.56974">
        <ele>559</ele>
        <time>2022-03-07T11:26:03Z</time>
      </trkpt>
      <trkpt lat="46.55643" lon="5.56974">
        <ele>559</ele>
        <time>2022-03-07T11:26:04Z</time>
      </trkpt>
      <trkpt lat="46.55643" lon="5.56975">
        <ele>559</ele>
        <time>2022-03-07T11:26:05Z</time>
      </trkpt>
      <trkpt lat="46.55643" lon="5.56975">
        <ele>559</ele>
        <time>2022-03-07T11:26:06Z</time>
      </trkpt>
      <trkpt lat="46.55643" lon="5.56976">
        <ele>559</ele>
        <time>2022-03-07T11:26:07Z</time>
      </trkpt>
      <trkpt lat="46.55643" lon="5.56977">
        <ele>559</ele>
        <time>2022-03-07T11:26:08Z</time>
      </trkpt>
      <trkpt lat="46.55643" lon="5.56977">
        <ele>559</ele>
        <time>2022-03-07T11:26:09Z</time>
      </trkpt>
      <trkpt lat="46.55644" lon="5.56978">
        <ele>559</ele>
        <time>2022-03-07T11:26:10Z</time>
      </trkpt>
      <trkpt lat="46.55644" lon="5.56978">
        <ele>559</ele>
        <time>2022-03-07T11:26:11Z</time>
      </trkpt>
      <trkpt lat="46.55644" lon="5.56979">
        <ele>559.2</ele>
        <time>2022-03-07T11:26:12Z</time>
      </trkpt>
      <trkpt lat="46.55644" lon="5.56981">
        <ele>559.2</ele>
        <time>2022-03-07T11:26:13Z</time>
      </trkpt>
      <trkpt lat="46.55644" lon="5.56982">
        <ele>559.4</ele>
        <time>2022-03-07T11:26:14Z</time>
      </trkpt>
      <trkpt lat="46.55644" lon="5.56984">
        <ele>559.4</ele>
        <time>2022-03-07T11:26:15Z</time>
      </trkpt>
      <trkpt lat="46.55645" lon="5.56986">
        <ele>559.4</ele>
        <time>2022-03-07T11:26:16Z</time>
      </trkpt>
      <trkpt lat="46.55645" lon="5.56988">
        <ele>559.4</ele>
        <time>2022-03-07T11:26:17Z</time>
      </trkpt>
      <trkpt lat="46.55646" lon="5.5699">
        <ele>559.4</ele>
        <time>2022-03-07T11:26:18Z</time>
      </trkpt>
      <trkpt lat="46.55646" lon="5.56991">
        <ele>559.4</ele>
        <time>2022-03-07T11:26:19Z</time>
      </trkpt>
      <trkpt lat="46.55646" lon="5.56992">
        <ele>559.6</ele>
        <time>2022-03-07T11:26:20Z</time>
      </trkpt>
      <trkpt lat="46.55646" lon="5.56993">
        <ele>559.6</ele>
        <time>2022-03-07T11:26:21Z</time>
      </trkpt>
      <trkpt lat="46.55646" lon="5.56993">
        <ele>559.6</ele>
        <time>2022-03-07T11:26:22Z</time>
      </trkpt>
      <trkpt lat="46.55646" lon="5.56993">
        <ele>559.6</ele>
        <time>2022-03-07T11:26:23Z</time>
      </trkpt>
      <trkpt lat="46.55646" lon="5.56993">
        <ele>559.8</ele>
        <time>2022-03-07T11:26:24Z</time>
      </trkpt>
      <trkpt lat="46.55646" lon="5.56993">
        <ele>559.8</ele>
        <time>2022-03-07T11:26:25Z</time>
      </trkpt>
      <trkpt lat="46.55647" lon="5.57007">
        <ele>559.8</ele>
        <time>2022-03-07T11:26:30Z</time>
      </trkpt>
      <trkpt lat="46.55648" lon="5.57011">
        <ele>560</ele>
        <time>2022-03-07T11:26:31Z</time>
      </trkpt>
      <trkpt lat="46.55648" lon="5.57013">
        <ele>560</ele>
        <time>2022-03-07T11:26:32Z</time>
      </trkpt>
      <trkpt lat="46.55648" lon="5.57015">
        <ele>560</ele>
        <time>2022-03-07T11:26:33Z</time>
      </trkpt>
      <trkpt lat="46.55649" lon="5.57017">
        <ele>560.4</ele>
        <time>2022-03-07T11:26:34Z</time>
      </trkpt>
      <trkpt lat="46.55649" lon="5.57019">
        <ele>560.4</ele>
        <time>2022-03-07T11:26:35Z</time>
      </trkpt>
      <trkpt lat="46.55649" lon="5.57021">
        <ele>560.4</ele>
        <time>2022-03-07T11:26:36Z</time>
      </trkpt>
      <trkpt lat="46.5565" lon="5.57023">
        <ele>560.6</ele>
        <time>2022-03-07T11:26:37Z</time>
      </trkpt>
      <trkpt lat="46.55649" lon="5.57027">
        <ele>560.6</ele>
        <time>2022-03-07T11:26:38Z</time>
      </trkpt>
      <trkpt lat="46.55649" lon="5.57029">
        <ele>560.6</ele>
        <time>2022-03-07T11:26:39Z</time>
      </trkpt>
      <trkpt lat="46.55648" lon="5.57032">
        <ele>560.6</ele>
        <time>2022-03-07T11:26:40Z</time>
      </trkpt>
      <trkpt lat="46.55648" lon="5.57035">
        <ele>560.8</ele>
        <time>2022-03-07T11:26:41Z</time>
      </trkpt>
      <trkpt lat="46.55648" lon="5.57036">
        <ele>560.8</ele>
        <time>2022-03-07T11:26:42Z</time>
      </trkpt>
      <trkpt lat="46.55648" lon="5.57036">
        <ele>560.8</ele>
        <time>2022-03-07T11:26:43Z</time>
      </trkpt>
      <trkpt lat="46.55648" lon="5.57037">
        <ele>560.8</ele>
        <time>2022-03-07T11:26:44Z</time>
      </trkpt>
      <trkpt lat="46.55648" lon="5.57038">
        <ele>561</ele>
        <time>2022-03-07T11:26:45Z</time>
      </trkpt>
      <trkpt lat="46.55648" lon="5.57039">
        <ele>561</ele>
        <time>2022-03-07T11:26:46Z</time>
      </trkpt>
      <trkpt lat="46.55648" lon="5.5704">
        <ele>561.4</ele>
        <time>2022-03-07T11:26:47Z</time>
      </trkpt>
      <trkpt lat="46.55648" lon="5.57041">
        <ele>561.4</ele>
        <time>2022-03-07T11:26:48Z</time>
      </trkpt>
      <trkpt lat="46.55648" lon="5.57041">
        <ele>561.4</ele>
        <time>2022-03-07T11:26:49Z</time>
      </trkpt>
      <trkpt lat="46.55648" lon="5.57042">
        <ele>561.4</ele>
        <time>2022-03-07T11:26:50Z</time>
      </trkpt>
      <trkpt lat="46.55648" lon="5.57043">
        <ele>561.4</ele>
        <time>2022-03-07T11:26:51Z</time>
      </trkpt>
      <trkpt lat="46.55648" lon="5.57044">
        <ele>561.4</ele>
        <time>2022-03-07T11:26:52Z</time>
      </trkpt>
      <trkpt lat="46.55648" lon="5.57045">
        <ele>561.6</ele>
        <time>2022-03-07T11:26:53Z</time>
      </trkpt>
      <trkpt lat="46.55648" lon="5.57045">
        <ele>561.6</ele>
        <time>2022-03-07T11:26:54Z</time>
      </trkpt>
      <trkpt lat="46.55648" lon="5.57046">
        <ele>561.6</ele>
        <time>2022-03-07T11:26:55Z</time>
      </trkpt>
      <trkpt lat="46.55648" lon="5.57047">
        <ele>561.6</ele>
        <time>2022-03-07T11:26:56Z</time>
      </trkpt>
      <trkpt lat="46.55648" lon="5.57048">
        <ele>561.6</ele>
        <time>2022-03-07T11:26:59Z</time>
      </trkpt>
      <trkpt lat="46.55648" lon="5.57049">
        <ele>561.6</ele>
        <time>2022-03-07T11:27:00Z</time>
      </trkpt>
      <trkpt lat="46.55648" lon="5.5705">
        <ele>561.6</ele>
        <time>2022-03-07T11:27:01Z</time>
      </trkpt>
      <trkpt lat="46.55648" lon="5.5705">
        <ele>561.6</ele>
        <time>2022-03-07T11:27:02Z</time>
      </trkpt>
      <trkpt lat="46.55648" lon="5.57051">
        <ele>561.6</ele>
        <time>2022-03-07T11:27:03Z</time>
      </trkpt>
      <trkpt lat="46.55648" lon="5.57052">
        <ele>561.6</ele>
        <time>2022-03-07T11:27:04Z</time>
      </trkpt>
      <trkpt lat="46.55648" lon="5.57053">
        <ele>561.6</ele>
        <time>2022-03-07T11:27:05Z</time>
      </trkpt>
      <trkpt lat="46.55648" lon="5.57054">
        <ele>561.6</ele>
        <time>2022-03-07T11:27:06Z</time>
      </trkpt>
      <trkpt lat="46.55648" lon="5.57054">
        <ele>561.6</ele>
        <time>2022-03-07T11:27:07Z</time>
      </trkpt>
      <trkpt lat="46.55648" lon="5.57055">
        <ele>561.8</ele>
        <time>2022-03-07T11:27:08Z</time>
      </trkpt>
      <trkpt lat="46.55648" lon="5.57056">
        <ele>561.8</ele>
        <time>2022-03-07T11:27:09Z</time>
      </trkpt>
      <trkpt lat="46.55648" lon="5.57057">
        <ele>561.8</ele>
        <time>2022-03-07T11:27:10Z</time>
      </trkpt>
      <trkpt lat="46.55648" lon="5.57058">
        <ele>562.2</ele>
        <time>2022-03-07T11:27:11Z</time>
      </trkpt>
      <trkpt lat="46.55648" lon="5.57059">
        <ele>562.2</ele>
        <time>2022-03-07T11:27:12Z</time>
      </trkpt>
      <trkpt lat="46.55648" lon="5.57059">
        <ele>562.4</ele>
        <time>2022-03-07T11:27:13Z</time>
      </trkpt>
      <trkpt lat="46.55648" lon="5.57061">
        <ele>562.6</ele>
        <time>2022-03-07T11:27:14Z</time>
      </trkpt>
      <trkpt lat="46.55649" lon="5.57063">
        <ele>562.6</ele>
        <time>2022-03-07T11:27:15Z</time>
      </trkpt>
      <trkpt lat="46.5565" lon="5.57067">
        <ele>563</ele>
        <time>2022-03-07T11:27:16Z</time>
      </trkpt>
      <trkpt lat="46.5565" lon="5.57069">
        <ele>563</ele>
        <time>2022-03-07T11:27:17Z</time>
      </trkpt>
      <trkpt lat="46.5565" lon="5.5707">
        <ele>563.4</ele>
        <time>2022-03-07T11:27:18Z</time>
      </trkpt>
      <trkpt lat="46.5565" lon="5.57072">
        <ele>563.4</ele>
        <time>2022-03-07T11:27:19Z</time>
      </trkpt>
      <trkpt lat="46.5565" lon="5.57074">
        <ele>563.8</ele>
        <time>2022-03-07T11:27:20Z</time>
      </trkpt>
      <trkpt lat="46.5565" lon="5.57076">
        <ele>563.8</ele>
        <time>2022-03-07T11:27:21Z</time>
      </trkpt>
      <trkpt lat="46.5565" lon="5.57077">
        <ele>563.8</ele>
        <time>2022-03-07T11:27:22Z</time>
      </trkpt>
      <trkpt lat="46.5565" lon="5.57079">
        <ele>564</ele>
        <time>2022-03-07T11:27:23Z</time>
      </trkpt>
      <trkpt lat="46.5565" lon="5.57081">
        <ele>564</ele>
        <time>2022-03-07T11:27:24Z</time>
      </trkpt>
      <trkpt lat="46.5565" lon="5.57083">
        <ele>564.4</ele>
        <time>2022-03-07T11:27:25Z</time>
      </trkpt>
      <trkpt lat="46.5565" lon="5.57084">
        <ele>564.4</ele>
        <time>2022-03-07T11:27:26Z</time>
      </trkpt>
      <trkpt lat="46.5565" lon="5.57086">
        <ele>564.6</ele>
        <time>2022-03-07T11:27:27Z</time>
      </trkpt>
      <trkpt lat="46.5565" lon="5.57088">
        <ele>564.6</ele>
        <time>2022-03-07T11:27:28Z</time>
      </trkpt>
      <trkpt lat="46.5565" lon="5.5709">
        <ele>565.2</ele>
        <time>2022-03-07T11:27:32Z</time>
      </trkpt>
      <trkpt lat="46.5565" lon="5.57092">
        <ele>565.4</ele>
        <time>2022-03-07T11:27:33Z</time>
      </trkpt>
      <trkpt lat="46.5565" lon="5.57093">
        <ele>565.6</ele>
        <time>2022-03-07T11:27:36Z</time>
      </trkpt>
      <trkpt lat="46.55651" lon="5.57095">
        <ele>566</ele>
        <time>2022-03-07T11:27:37Z</time>
      </trkpt>
      <trkpt lat="46.5565" lon="5.57098">
        <ele>566</ele>
        <time>2022-03-07T11:27:38Z</time>
      </trkpt>
      <trkpt lat="46.55649" lon="5.571">
        <ele>566.4</ele>
        <time>2022-03-07T11:27:39Z</time>
      </trkpt>
      <trkpt lat="46.55649" lon="5.57102">
        <ele>566.4</ele>
        <time>2022-03-07T11:27:40Z</time>
      </trkpt>
      <trkpt lat="46.55648" lon="5.57104">
        <ele>566.8</ele>
        <time>2022-03-07T11:27:41Z</time>
      </trkpt>
      <trkpt lat="46.55648" lon="5.57106">
        <ele>567</ele>
        <time>2022-03-07T11:27:46Z</time>
      </trkpt>
      <trkpt lat="46.55647" lon="5.57108">
        <ele>567</ele>
        <time>2022-03-07T11:27:47Z</time>
      </trkpt>
      <trkpt lat="46.55647" lon="5.5711">
        <ele>567</ele>
        <time>2022-03-07T11:27:49Z</time>
      </trkpt>
      <trkpt lat="46.55647" lon="5.57112">
        <ele>567.2</ele>
        <time>2022-03-07T11:27:50Z</time>
      </trkpt>
      <trkpt lat="46.55645" lon="5.57114">
        <ele>567.2</ele>
        <time>2022-03-07T11:27:51Z</time>
      </trkpt>
      <trkpt lat="46.55644" lon="5.57115">
        <ele>567.2</ele>
        <time>2022-03-07T11:27:52Z</time>
      </trkpt>
      <trkpt lat="46.55642" lon="5.57117">
        <ele>567.2</ele>
        <time>2022-03-07T11:27:53Z</time>
      </trkpt>
      <trkpt lat="46.55641" lon="5.57118">
        <ele>567.2</ele>
        <time>2022-03-07T11:27:54Z</time>
      </trkpt>
      <trkpt lat="46.55639" lon="5.57119">
        <ele>567.2</ele>
        <time>2022-03-07T11:27:55Z</time>
      </trkpt>
      <trkpt lat="46.55637" lon="5.57121">
        <ele>567.2</ele>
        <time>2022-03-07T11:27:56Z</time>
      </trkpt>
      <trkpt lat="46.55635" lon="5.57122">
        <ele>567.2</ele>
        <time>2022-03-07T11:27:57Z</time>
      </trkpt>
      <trkpt lat="46.55634" lon="5.57124">
        <ele>567.2</ele>
        <time>2022-03-07T11:27:58Z</time>
      </trkpt>
      <trkpt lat="46.55633" lon="5.57126">
        <ele>567.2</ele>
        <time>2022-03-07T11:27:59Z</time>
      </trkpt>
      <trkpt lat="46.55632" lon="5.57127">
        <ele>567.2</ele>
        <time>2022-03-07T11:28:00Z</time>
      </trkpt>
      <trkpt lat="46.5563" lon="5.57129">
        <ele>567.4</ele>
        <time>2022-03-07T11:28:01Z</time>
      </trkpt>
      <trkpt lat="46.55628" lon="5.57131">
        <ele>567.4</ele>
        <time>2022-03-07T11:28:02Z</time>
      </trkpt>
      <trkpt lat="46.55626" lon="5.57132">
        <ele>567.4</ele>
        <time>2022-03-07T11:28:03Z</time>
      </trkpt>
      <trkpt lat="46.55624" lon="5.57134">
        <ele>567.2</ele>
        <time>2022-03-07T11:28:04Z</time>
      </trkpt>
      <trkpt lat="46.55622" lon="5.57136">
        <ele>567.2</ele>
        <time>2022-03-07T11:28:05Z</time>
      </trkpt>
      <trkpt lat="46.5562" lon="5.57138">
        <ele>566.8</ele>
        <time>2022-03-07T11:28:06Z</time>
      </trkpt>
      <trkpt lat="46.55618" lon="5.5714">
        <ele>566.8</ele>
        <time>2022-03-07T11:28:07Z</time>
      </trkpt>
      <trkpt lat="46.55616" lon="5.57141">
        <ele>566.6</ele>
        <time>2022-03-07T11:28:08Z</time>
      </trkpt>
      <trkpt lat="46.55614" lon="5.57143">
        <ele>566.6</ele>
        <time>2022-03-07T11:28:09Z</time>
      </trkpt>
      <trkpt lat="46.55611" lon="5.57144">
        <ele>566.2</ele>
        <time>2022-03-07T11:28:10Z</time>
      </trkpt>
      <trkpt lat="46.55608" lon="5.57146">
        <ele>566</ele>
        <time>2022-03-07T11:28:11Z</time>
      </trkpt>
      <trkpt lat="46.55604" lon="5.57147">
        <ele>565.6</ele>
        <time>2022-03-07T11:28:12Z</time>
      </trkpt>
      <trkpt lat="46.55599" lon="5.57148">
        <ele>565.4</ele>
        <time>2022-03-07T11:28:13Z</time>
      </trkpt>
      <trkpt lat="46.55596" lon="5.57149">
        <ele>565.2</ele>
        <time>2022-03-07T11:28:14Z</time>
      </trkpt>
      <trkpt lat="46.55592" lon="5.5715">
        <ele>564.8</ele>
        <time>2022-03-07T11:28:15Z</time>
      </trkpt>
      <trkpt lat="46.55586" lon="5.57152">
        <ele>564.6</ele>
        <time>2022-03-07T11:28:16Z</time>
      </trkpt>
      <trkpt lat="46.55581" lon="5.57154">
        <ele>564.4</ele>
        <time>2022-03-07T11:28:17Z</time>
      </trkpt>
      <trkpt lat="46.55576" lon="5.57155">
        <ele>564.4</ele>
        <time>2022-03-07T11:28:18Z</time>
      </trkpt>
      <trkpt lat="46.55572" lon="5.57156">
        <ele>564</ele>
        <time>2022-03-07T11:28:19Z</time>
      </trkpt>
      <trkpt lat="46.55568" lon="5.57157">
        <ele>563.8</ele>
        <time>2022-03-07T11:28:20Z</time>
      </trkpt>
      <trkpt lat="46.55564" lon="5.57159">
        <ele>563.6</ele>
        <time>2022-03-07T11:28:21Z</time>
      </trkpt>
      <trkpt lat="46.55559" lon="5.5716">
        <ele>563.4</ele>
        <time>2022-03-07T11:28:22Z</time>
      </trkpt>
      <trkpt lat="46.55555" lon="5.57162">
        <ele>563.4</ele>
        <time>2022-03-07T11:28:23Z</time>
      </trkpt>
      <trkpt lat="46.55551" lon="5.57164">
        <ele>562.8</ele>
        <time>2022-03-07T11:28:24Z</time>
      </trkpt>
      <trkpt lat="46.55548" lon="5.57165">
        <ele>562.6</ele>
        <time>2022-03-07T11:28:25Z</time>
      </trkpt>
      <trkpt lat="46.55544" lon="5.57167">
        <ele>562.4</ele>
        <time>2022-03-07T11:28:26Z</time>
      </trkpt>
      <trkpt lat="46.5554" lon="5.57168">
        <ele>562.2</ele>
        <time>2022-03-07T11:28:27Z</time>
      </trkpt>
      <trkpt lat="46.55535" lon="5.5717">
        <ele>561.8</ele>
        <time>2022-03-07T11:28:28Z</time>
      </trkpt>
      <trkpt lat="46.5553" lon="5.57172">
        <ele>561.6</ele>
        <time>2022-03-07T11:28:29Z</time>
      </trkpt>
      <trkpt lat="46.55526" lon="5.57174">
        <ele>561.4</ele>
        <time>2022-03-07T11:28:30Z</time>
      </trkpt>
      <trkpt lat="46.5552" lon="5.57175">
        <ele>561.2</ele>
        <time>2022-03-07T11:28:31Z</time>
      </trkpt>
      <trkpt lat="46.55515" lon="5.57177">
        <ele>561.2</ele>
        <time>2022-03-07T11:28:32Z</time>
      </trkpt>
      <trkpt lat="46.55509" lon="5.57178">
        <ele>561.2</ele>
        <time>2022-03-07T11:28:33Z</time>
      </trkpt>
      <trkpt lat="46.55504" lon="5.5718">
        <ele>560.8</ele>
        <time>2022-03-07T11:28:34Z</time>
      </trkpt>
      <trkpt lat="46.555" lon="5.5718">
        <ele>560.8</ele>
        <time>2022-03-07T11:28:35Z</time>
      </trkpt>
      <trkpt lat="46.55496" lon="5.57181">
        <ele>560.8</ele>
        <time>2022-03-07T11:28:36Z</time>
      </trkpt>
      <trkpt lat="46.55492" lon="5.57182">
        <ele>560.8</ele>
        <time>2022-03-07T11:28:37Z</time>
      </trkpt>
      <trkpt lat="46.55488" lon="5.57183">
        <ele>560.6</ele>
        <time>2022-03-07T11:28:38Z</time>
      </trkpt>
      <trkpt lat="46.55483" lon="5.57184">
        <ele>560.6</ele>
        <time>2022-03-07T11:28:39Z</time>
      </trkpt>
      <trkpt lat="46.55473" lon="5.57184">
        <ele>560.6</ele>
        <time>2022-03-07T11:28:40Z</time>
      </trkpt>
      <trkpt lat="46.55469" lon="5.57186">
        <ele>560.6</ele>
        <time>2022-03-07T11:28:41Z</time>
      </trkpt>
      <trkpt lat="46.55465" lon="5.57186">
        <ele>560.6</ele>
        <time>2022-03-07T11:28:42Z</time>
      </trkpt>
      <trkpt lat="46.55461" lon="5.57187">
        <ele>560.6</ele>
        <time>2022-03-07T11:28:43Z</time>
      </trkpt>
      <trkpt lat="46.55457" lon="5.57188">
        <ele>560.6</ele>
        <time>2022-03-07T11:28:44Z</time>
      </trkpt>
      <trkpt lat="46.55452" lon="5.57188">
        <ele>560.6</ele>
        <time>2022-03-07T11:28:45Z</time>
      </trkpt>
      <trkpt lat="46.55447" lon="5.57189">
        <ele>560.6</ele>
        <time>2022-03-07T11:28:46Z</time>
      </trkpt>
      <trkpt lat="46.55441" lon="5.57191">
        <ele>560.6</ele>
        <time>2022-03-07T11:28:47Z</time>
      </trkpt>
      <trkpt lat="46.55433" lon="5.57192">
        <ele>560.6</ele>
        <time>2022-03-07T11:28:48Z</time>
      </trkpt>
      <trkpt lat="46.55427" lon="5.57192">
        <ele>560.6</ele>
        <time>2022-03-07T11:28:49Z</time>
      </trkpt>
      <trkpt lat="46.55421" lon="5.57192">
        <ele>560.6</ele>
        <time>2022-03-07T11:28:50Z</time>
      </trkpt>
      <trkpt lat="46.55415" lon="5.57193">
        <ele>560.6</ele>
        <time>2022-03-07T11:28:51Z</time>
      </trkpt>
      <trkpt lat="46.55411" lon="5.57194">
        <ele>560.6</ele>
        <time>2022-03-07T11:28:52Z</time>
      </trkpt>
      <trkpt lat="46.55404" lon="5.57195">
        <ele>560.2</ele>
        <time>2022-03-07T11:28:53Z</time>
      </trkpt>
      <trkpt lat="46.55397" lon="5.57197">
        <ele>560.2</ele>
        <time>2022-03-07T11:28:54Z</time>
      </trkpt>
      <trkpt lat="46.5539" lon="5.57199">
        <ele>560.2</ele>
        <time>2022-03-07T11:28:55Z</time>
      </trkpt>
      <trkpt lat="46.55383" lon="5.57202">
        <ele>560</ele>
        <time>2022-03-07T11:28:56Z</time>
      </trkpt>
      <trkpt lat="46.55376" lon="5.57205">
        <ele>560</ele>
        <time>2022-03-07T11:28:57Z</time>
      </trkpt>
      <trkpt lat="46.55369" lon="5.57208">
        <ele>560</ele>
        <time>2022-03-07T11:28:58Z</time>
      </trkpt>
      <trkpt lat="46.55364" lon="5.5721">
        <ele>559.8</ele>
        <time>2022-03-07T11:28:59Z</time>
      </trkpt>
      <trkpt lat="46.55358" lon="5.57212">
        <ele>559.8</ele>
        <time>2022-03-07T11:29:00Z</time>
      </trkpt>
      <trkpt lat="46.55352" lon="5.57215">
        <ele>559.8</ele>
        <time>2022-03-07T11:29:01Z</time>
      </trkpt>
      <trkpt lat="46.55348" lon="5.57217">
        <ele>559.8</ele>
        <time>2022-03-07T11:29:02Z</time>
      </trkpt>
      <trkpt lat="46.55342" lon="5.5722">
        <ele>559.8</ele>
        <time>2022-03-07T11:29:03Z</time>
      </trkpt>
      <trkpt lat="46.55337" lon="5.57223">
        <ele>559.8</ele>
        <time>2022-03-07T11:29:04Z</time>
      </trkpt>
      <trkpt lat="46.55331" lon="5.57225">
        <ele>559.6</ele>
        <time>2022-03-07T11:29:05Z</time>
      </trkpt>
      <trkpt lat="46.55327" lon="5.57227">
        <ele>559.6</ele>
        <time>2022-03-07T11:29:06Z</time>
      </trkpt>
      <trkpt lat="46.55323" lon="5.57229">
        <ele>559.6</ele>
        <time>2022-03-07T11:29:07Z</time>
      </trkpt>
      <trkpt lat="46.5532" lon="5.57231">
        <ele>559.6</ele>
        <time>2022-03-07T11:29:08Z</time>
      </trkpt>
      <trkpt lat="46.55316" lon="5.57234">
        <ele>559.4</ele>
        <time>2022-03-07T11:29:09Z</time>
      </trkpt>
      <trkpt lat="46.55311" lon="5.57236">
        <ele>559.4</ele>
        <time>2022-03-07T11:29:10Z</time>
      </trkpt>
      <trkpt lat="46.55307" lon="5.57239">
        <ele>559.4</ele>
        <time>2022-03-07T11:29:11Z</time>
      </trkpt>
      <trkpt lat="46.55303" lon="5.57241">
        <ele>559</ele>
        <time>2022-03-07T11:29:12Z</time>
      </trkpt>
      <trkpt lat="46.55299" lon="5.57243">
        <ele>559</ele>
        <time>2022-03-07T11:29:13Z</time>
      </trkpt>
      <trkpt lat="46.55294" lon="5.57245">
        <ele>559</ele>
        <time>2022-03-07T11:29:14Z</time>
      </trkpt>
      <trkpt lat="46.5529" lon="5.57245">
        <ele>559</ele>
        <time>2022-03-07T11:29:15Z</time>
      </trkpt>
      <trkpt lat="46.55285" lon="5.57245">
        <ele>558.8</ele>
        <time>2022-03-07T11:29:16Z</time>
      </trkpt>
      <trkpt lat="46.5528" lon="5.57244">
        <ele>558.8</ele>
        <time>2022-03-07T11:29:17Z</time>
      </trkpt>
      <trkpt lat="46.55277" lon="5.57244">
        <ele>558.6</ele>
        <time>2022-03-07T11:29:18Z</time>
      </trkpt>
      <trkpt lat="46.55273" lon="5.57243">
        <ele>558.6</ele>
        <time>2022-03-07T11:29:19Z</time>
      </trkpt>
      <trkpt lat="46.55271" lon="5.57243">
        <ele>558.6</ele>
        <time>2022-03-07T11:29:20Z</time>
      </trkpt>
      <trkpt lat="46.55269" lon="5.57241">
        <ele>558.6</ele>
        <time>2022-03-07T11:29:21Z</time>
      </trkpt>
      <trkpt lat="46.55263" lon="5.5724">
        <ele>558.6</ele>
        <time>2022-03-07T11:29:22Z</time>
      </trkpt>
      <trkpt lat="46.55258" lon="5.57238">
        <ele>558.6</ele>
        <time>2022-03-07T11:29:23Z</time>
      </trkpt>
      <trkpt lat="46.55256" lon="5.57237">
        <ele>558.6</ele>
        <time>2022-03-07T11:29:24Z</time>
      </trkpt>
      <trkpt lat="46.55253" lon="5.57236">
        <ele>558.6</ele>
        <time>2022-03-07T11:29:25Z</time>
      </trkpt>
      <trkpt lat="46.55249" lon="5.57234">
        <ele>558.6</ele>
        <time>2022-03-07T11:29:26Z</time>
      </trkpt>
      <trkpt lat="46.55246" lon="5.57233">
        <ele>558.6</ele>
        <time>2022-03-07T11:29:27Z</time>
      </trkpt>
      <trkpt lat="46.55243" lon="5.5723">
        <ele>558.4</ele>
        <time>2022-03-07T11:29:28Z</time>
      </trkpt>
      <trkpt lat="46.5524" lon="5.57228">
        <ele>558.4</ele>
        <time>2022-03-07T11:29:29Z</time>
      </trkpt>
      <trkpt lat="46.55237" lon="5.57226">
        <ele>558</ele>
        <time>2022-03-07T11:29:30Z</time>
      </trkpt>
      <trkpt lat="46.55234" lon="5.57223">
        <ele>558</ele>
        <time>2022-03-07T11:29:31Z</time>
      </trkpt>
      <trkpt lat="46.55231" lon="5.5722">
        <ele>558</ele>
        <time>2022-03-07T11:29:32Z</time>
      </trkpt>
      <trkpt lat="46.55227" lon="5.57217">
        <ele>557.8</ele>
        <time>2022-03-07T11:29:33Z</time>
      </trkpt>
      <trkpt lat="46.55224" lon="5.57214">
        <ele>557.8</ele>
        <time>2022-03-07T11:29:34Z</time>
      </trkpt>
      <trkpt lat="46.55219" lon="5.57211">
        <ele>557.6</ele>
        <time>2022-03-07T11:29:35Z</time>
      </trkpt>
      <trkpt lat="46.55216" lon="5.57209">
        <ele>557.6</ele>
        <time>2022-03-07T11:29:36Z</time>
      </trkpt>
      <trkpt lat="46.55211" lon="5.57206">
        <ele>557.4</ele>
        <time>2022-03-07T11:29:37Z</time>
      </trkpt>
      <trkpt lat="46.55206" lon="5.57204">
        <ele>557.4</ele>
        <time>2022-03-07T11:29:38Z</time>
      </trkpt>
      <trkpt lat="46.55202" lon="5.57202">
        <ele>557.4</ele>
        <time>2022-03-07T11:29:39Z</time>
      </trkpt>
      <trkpt lat="46.55197" lon="5.57199">
        <ele>557.4</ele>
        <time>2022-03-07T11:29:40Z</time>
      </trkpt>
      <trkpt lat="46.55193" lon="5.57197">
        <ele>557.4</ele>
        <time>2022-03-07T11:29:41Z</time>
      </trkpt>
      <trkpt lat="46.55188" lon="5.57195">
        <ele>557</ele>
        <time>2022-03-07T11:29:42Z</time>
      </trkpt>
      <trkpt lat="46.55184" lon="5.57192">
        <ele>557</ele>
        <time>2022-03-07T11:29:43Z</time>
      </trkpt>
      <trkpt lat="46.55178" lon="5.5719">
        <ele>557</ele>
        <time>2022-03-07T11:29:44Z</time>
      </trkpt>
      <trkpt lat="46.55172" lon="5.57188">
        <ele>556.8</ele>
        <time>2022-03-07T11:29:45Z</time>
      </trkpt>
      <trkpt lat="46.55165" lon="5.57184">
        <ele>556.8</ele>
        <time>2022-03-07T11:29:46Z</time>
      </trkpt>
      <trkpt lat="46.55159" lon="5.57182">
        <ele>556.4</ele>
        <time>2022-03-07T11:29:47Z</time>
      </trkpt>
      <trkpt lat="46.55152" lon="5.57179">
        <ele>556.4</ele>
        <time>2022-03-07T11:29:48Z</time>
      </trkpt>
      <trkpt lat="46.55145" lon="5.57175">
        <ele>556.2</ele>
        <time>2022-03-07T11:29:49Z</time>
      </trkpt>
      <trkpt lat="46.5514" lon="5.57172">
        <ele>556.2</ele>
        <time>2022-03-07T11:29:50Z</time>
      </trkpt>
      <trkpt lat="46.55134" lon="5.57169">
        <ele>555.8</ele>
        <time>2022-03-07T11:29:51Z</time>
      </trkpt>
      <trkpt lat="46.55127" lon="5.57165">
        <ele>555.6</ele>
        <time>2022-03-07T11:29:52Z</time>
      </trkpt>
      <trkpt lat="46.55122" lon="5.57162">
        <ele>555.6</ele>
        <time>2022-03-07T11:29:53Z</time>
      </trkpt>
      <trkpt lat="46.55115" lon="5.57158">
        <ele>555.2</ele>
        <time>2022-03-07T11:29:54Z</time>
      </trkpt>
      <trkpt lat="46.55109" lon="5.57155">
        <ele>555.2</ele>
        <time>2022-03-07T11:29:55Z</time>
      </trkpt>
      <trkpt lat="46.55103" lon="5.57152">
        <ele>554.8</ele>
        <time>2022-03-07T11:29:56Z</time>
      </trkpt>
      <trkpt lat="46.55097" lon="5.57147">
        <ele>554.6</ele>
        <time>2022-03-07T11:29:57Z</time>
      </trkpt>
      <trkpt lat="46.55091" lon="5.57144">
        <ele>554.4</ele>
        <time>2022-03-07T11:29:58Z</time>
      </trkpt>
      <trkpt lat="46.55085" lon="5.57142">
        <ele>554</ele>
        <time>2022-03-07T11:29:59Z</time>
      </trkpt>
      <trkpt lat="46.55079" lon="5.5714">
        <ele>553.8</ele>
        <time>2022-03-07T11:30:00Z</time>
      </trkpt>
      <trkpt lat="46.55074" lon="5.57139">
        <ele>553.6</ele>
        <time>2022-03-07T11:30:01Z</time>
      </trkpt>
      <trkpt lat="46.55068" lon="5.57139">
        <ele>553.6</ele>
        <time>2022-03-07T11:30:02Z</time>
      </trkpt>
      <trkpt lat="46.55063" lon="5.5714">
        <ele>553.4</ele>
        <time>2022-03-07T11:30:03Z</time>
      </trkpt>
      <trkpt lat="46.55058" lon="5.57142">
        <ele>553.4</ele>
        <time>2022-03-07T11:30:04Z</time>
      </trkpt>
      <trkpt lat="46.55054" lon="5.57145">
        <ele>553.4</ele>
        <time>2022-03-07T11:30:05Z</time>
      </trkpt>
      <trkpt lat="46.5505" lon="5.57149">
        <ele>553.2</ele>
        <time>2022-03-07T11:30:06Z</time>
      </trkpt>
      <trkpt lat="46.55048" lon="5.57154">
        <ele>553.2</ele>
        <time>2022-03-07T11:30:07Z</time>
      </trkpt>
      <trkpt lat="46.55045" lon="5.57158">
        <ele>553.2</ele>
        <time>2022-03-07T11:30:08Z</time>
      </trkpt>
      <trkpt lat="46.55043" lon="5.57162">
        <ele>553.2</ele>
        <time>2022-03-07T11:30:09Z</time>
      </trkpt>
      <trkpt lat="46.55042" lon="5.57167">
        <ele>553.4</ele>
        <time>2022-03-07T11:30:10Z</time>
      </trkpt>
      <trkpt lat="46.55041" lon="5.57171">
        <ele>553.4</ele>
        <time>2022-03-07T11:30:11Z</time>
      </trkpt>
      <trkpt lat="46.55039" lon="5.57174">
        <ele>553.8</ele>
        <time>2022-03-07T11:30:12Z</time>
      </trkpt>
      <trkpt lat="46.55038" lon="5.57177">
        <ele>553.8</ele>
        <time>2022-03-07T11:30:13Z</time>
      </trkpt>
      <trkpt lat="46.55037" lon="5.5718">
        <ele>554.2</ele>
        <time>2022-03-07T11:30:14Z</time>
      </trkpt>
      <trkpt lat="46.55036" lon="5.57183">
        <ele>554.2</ele>
        <time>2022-03-07T11:30:15Z</time>
      </trkpt>
      <trkpt lat="46.55035" lon="5.57186">
        <ele>554.6</ele>
        <time>2022-03-07T11:30:16Z</time>
      </trkpt>
      <trkpt lat="46.55033" lon="5.57188">
        <ele>554.6</ele>
        <time>2022-03-07T11:30:17Z</time>
      </trkpt>
      <trkpt lat="46.55031" lon="5.57191">
        <ele>555</ele>
        <time>2022-03-07T11:30:18Z</time>
      </trkpt>
      <trkpt lat="46.55031" lon="5.57194">
        <ele>555.2</ele>
        <time>2022-03-07T11:30:19Z</time>
      </trkpt>
      <trkpt lat="46.55029" lon="5.57196">
        <ele>555.4</ele>
        <time>2022-03-07T11:30:20Z</time>
      </trkpt>
      <trkpt lat="46.55029" lon="5.57199">
        <ele>555.6</ele>
        <time>2022-03-07T11:30:21Z</time>
      </trkpt>
      <trkpt lat="46.55028" lon="5.57203">
        <ele>556</ele>
        <time>2022-03-07T11:30:22Z</time>
      </trkpt>
      <trkpt lat="46.55028" lon="5.57205">
        <ele>556.2</ele>
        <time>2022-03-07T11:30:23Z</time>
      </trkpt>
      <trkpt lat="46.55027" lon="5.57208">
        <ele>556.4</ele>
        <time>2022-03-07T11:30:24Z</time>
      </trkpt>
      <trkpt lat="46.55026" lon="5.5721">
        <ele>556.6</ele>
        <time>2022-03-07T11:30:25Z</time>
      </trkpt>
      <trkpt lat="46.55026" lon="5.57213">
        <ele>556.8</ele>
        <time>2022-03-07T11:30:26Z</time>
      </trkpt>
      <trkpt lat="46.55025" lon="5.57215">
        <ele>557</ele>
        <time>2022-03-07T11:30:27Z</time>
      </trkpt>
      <trkpt lat="46.55025" lon="5.57218">
        <ele>557.2</ele>
        <time>2022-03-07T11:30:28Z</time>
      </trkpt>
      <trkpt lat="46.55025" lon="5.57221">
        <ele>557.6</ele>
        <time>2022-03-07T11:30:29Z</time>
      </trkpt>
      <trkpt lat="46.55024" lon="5.57224">
        <ele>557.8</ele>
        <time>2022-03-07T11:30:30Z</time>
      </trkpt>
      <trkpt lat="46.55024" lon="5.57227">
        <ele>558</ele>
        <time>2022-03-07T11:30:31Z</time>
      </trkpt>
      <trkpt lat="46.55024" lon="5.57229">
        <ele>558.2</ele>
        <time>2022-03-07T11:30:32Z</time>
      </trkpt>
      <trkpt lat="46.55023" lon="5.57232">
        <ele>558.6</ele>
        <time>2022-03-07T11:30:33Z</time>
      </trkpt>
      <trkpt lat="46.55023" lon="5.57234">
        <ele>558.8</ele>
        <time>2022-03-07T11:30:34Z</time>
      </trkpt>
      <trkpt lat="46.55022" lon="5.57237">
        <ele>559.2</ele>
        <time>2022-03-07T11:30:35Z</time>
      </trkpt>
      <trkpt lat="46.55022" lon="5.5724">
        <ele>559.4</ele>
        <time>2022-03-07T11:30:36Z</time>
      </trkpt>
      <trkpt lat="46.55021" lon="5.57243">
        <ele>559.8</ele>
        <time>2022-03-07T11:30:37Z</time>
      </trkpt>
      <trkpt lat="46.5502" lon="5.57245">
        <ele>560</ele>
        <time>2022-03-07T11:30:38Z</time>
      </trkpt>
      <trkpt lat="46.55019" lon="5.57248">
        <ele>560.4</ele>
        <time>2022-03-07T11:30:39Z</time>
      </trkpt>
      <trkpt lat="46.55018" lon="5.57251">
        <ele>560.6</ele>
        <time>2022-03-07T11:30:40Z</time>
      </trkpt>
      <trkpt lat="46.55017" lon="5.57254">
        <ele>560.8</ele>
        <time>2022-03-07T11:30:41Z</time>
      </trkpt>
      <trkpt lat="46.55016" lon="5.57256">
        <ele>561.2</ele>
        <time>2022-03-07T11:30:42Z</time>
      </trkpt>
      <trkpt lat="46.55016" lon="5.57259">
        <ele>561.4</ele>
        <time>2022-03-07T11:30:43Z</time>
      </trkpt>
      <trkpt lat="46.55015" lon="5.57262">
        <ele>561.8</ele>
        <time>2022-03-07T11:30:44Z</time>
      </trkpt>
      <trkpt lat="46.55015" lon="5.57265">
        <ele>562</ele>
        <time>2022-03-07T11:30:45Z</time>
      </trkpt>
      <trkpt lat="46.55014" lon="5.57267">
        <ele>562.2</ele>
        <time>2022-03-07T11:30:46Z</time>
      </trkpt>
      <trkpt lat="46.55014" lon="5.5727">
        <ele>562.4</ele>
        <time>2022-03-07T11:30:47Z</time>
      </trkpt>
      <trkpt lat="46.55013" lon="5.57273">
        <ele>562.8</ele>
        <time>2022-03-07T11:30:48Z</time>
      </trkpt>
      <trkpt lat="46.55012" lon="5.57276">
        <ele>563</ele>
        <time>2022-03-07T11:30:49Z</time>
      </trkpt>
      <trkpt lat="46.55012" lon="5.57279">
        <ele>563</ele>
        <time>2022-03-07T11:30:50Z</time>
      </trkpt>
      <trkpt lat="46.55011" lon="5.57282">
        <ele>563.4</ele>
        <time>2022-03-07T11:30:51Z</time>
      </trkpt>
      <trkpt lat="46.55011" lon="5.57285">
        <ele>563.6</ele>
        <time>2022-03-07T11:30:52Z</time>
      </trkpt>
      <trkpt lat="46.55011" lon="5.57288">
        <ele>563.6</ele>
        <time>2022-03-07T11:30:53Z</time>
      </trkpt>
      <trkpt lat="46.5501" lon="5.57292">
        <ele>563.8</ele>
        <time>2022-03-07T11:30:54Z</time>
      </trkpt>
      <trkpt lat="46.55009" lon="5.57295">
        <ele>564.2</ele>
        <time>2022-03-07T11:30:55Z</time>
      </trkpt>
      <trkpt lat="46.55009" lon="5.57298">
        <ele>564.4</ele>
        <time>2022-03-07T11:30:56Z</time>
      </trkpt>
      <trkpt lat="46.55008" lon="5.573">
        <ele>564.6</ele>
        <time>2022-03-07T11:30:57Z</time>
      </trkpt>
      <trkpt lat="46.55007" lon="5.57303">
        <ele>564.8</ele>
        <time>2022-03-07T11:30:58Z</time>
      </trkpt>
      <trkpt lat="46.55006" lon="5.57305">
        <ele>565.2</ele>
        <time>2022-03-07T11:30:59Z</time>
      </trkpt>
      <trkpt lat="46.55005" lon="5.57307">
        <ele>565.4</ele>
        <time>2022-03-07T11:31:00Z</time>
      </trkpt>
      <trkpt lat="46.55004" lon="5.57311">
        <ele>565.6</ele>
        <time>2022-03-07T11:31:01Z</time>
      </trkpt>
      <trkpt lat="46.55004" lon="5.57313">
        <ele>565.6</ele>
        <time>2022-03-07T11:31:02Z</time>
      </trkpt>
      <trkpt lat="46.55003" lon="5.57316">
        <ele>565.8</ele>
        <time>2022-03-07T11:31:03Z</time>
      </trkpt>
      <trkpt lat="46.55002" lon="5.57318">
        <ele>565.8</ele>
        <time>2022-03-07T11:31:04Z</time>
      </trkpt>
      <trkpt lat="46.55002" lon="5.57321">
        <ele>566</ele>
        <time>2022-03-07T11:31:05Z</time>
      </trkpt>
      <trkpt lat="46.55001" lon="5.57323">
        <ele>566</ele>
        <time>2022-03-07T11:31:06Z</time>
      </trkpt>
      <trkpt lat="46.55" lon="5.57326">
        <ele>566.4</ele>
        <time>2022-03-07T11:31:07Z</time>
      </trkpt>
      <trkpt lat="46.55" lon="5.57329">
        <ele>566.4</ele>
        <time>2022-03-07T11:31:08Z</time>
      </trkpt>
      <trkpt lat="46.54999" lon="5.57332">
        <ele>566.8</ele>
        <time>2022-03-07T11:31:09Z</time>
      </trkpt>
      <trkpt lat="46.54998" lon="5.57335">
        <ele>567</ele>
        <time>2022-03-07T11:31:10Z</time>
      </trkpt>
      <trkpt lat="46.54998" lon="5.57337">
        <ele>567.2</ele>
        <time>2022-03-07T11:31:11Z</time>
      </trkpt>
      <trkpt lat="46.54997" lon="5.5734">
        <ele>567.2</ele>
        <time>2022-03-07T11:31:12Z</time>
      </trkpt>
      <trkpt lat="46.54997" lon="5.57343">
        <ele>567.6</ele>
        <time>2022-03-07T11:31:13Z</time>
      </trkpt>
      <trkpt lat="46.54997" lon="5.57345">
        <ele>567.6</ele>
        <time>2022-03-07T11:31:14Z</time>
      </trkpt>
      <trkpt lat="46.54997" lon="5.57349">
        <ele>567.8</ele>
        <time>2022-03-07T11:31:15Z</time>
      </trkpt>
      <trkpt lat="46.54997" lon="5.57352">
        <ele>567.8</ele>
        <time>2022-03-07T11:31:16Z</time>
      </trkpt>
      <trkpt lat="46.54996" lon="5.57355">
        <ele>568.2</ele>
        <time>2022-03-07T11:31:17Z</time>
      </trkpt>
      <trkpt lat="46.54996" lon="5.57357">
        <ele>568.2</ele>
        <time>2022-03-07T11:31:18Z</time>
      </trkpt>
      <trkpt lat="46.54996" lon="5.5736">
        <ele>568.6</ele>
        <time>2022-03-07T11:31:19Z</time>
      </trkpt>
      <trkpt lat="46.54996" lon="5.57363">
        <ele>568.6</ele>
        <time>2022-03-07T11:31:20Z</time>
      </trkpt>
      <trkpt lat="46.54996" lon="5.57366">
        <ele>569</ele>
        <time>2022-03-07T11:31:21Z</time>
      </trkpt>
      <trkpt lat="46.54996" lon="5.57369">
        <ele>569</ele>
        <time>2022-03-07T11:31:22Z</time>
      </trkpt>
      <trkpt lat="46.54995" lon="5.57372">
        <ele>569.4</ele>
        <time>2022-03-07T11:31:23Z</time>
      </trkpt>
      <trkpt lat="46.54995" lon="5.57375">
        <ele>569.4</ele>
        <time>2022-03-07T11:31:24Z</time>
      </trkpt>
      <trkpt lat="46.54995" lon="5.57378">
        <ele>569.8</ele>
        <time>2022-03-07T11:31:25Z</time>
      </trkpt>
      <trkpt lat="46.54995" lon="5.57381">
        <ele>569.8</ele>
        <time>2022-03-07T11:31:26Z</time>
      </trkpt>
      <trkpt lat="46.54994" lon="5.57383">
        <ele>570</ele>
        <time>2022-03-07T11:31:27Z</time>
      </trkpt>
      <trkpt lat="46.54994" lon="5.57386">
        <ele>570</ele>
        <time>2022-03-07T11:31:28Z</time>
      </trkpt>
      <trkpt lat="46.54993" lon="5.57389">
        <ele>570.4</ele>
        <time>2022-03-07T11:31:29Z</time>
      </trkpt>
      <trkpt lat="46.54993" lon="5.57392">
        <ele>570.4</ele>
        <time>2022-03-07T11:31:30Z</time>
      </trkpt>
      <trkpt lat="46.54993" lon="5.57395">
        <ele>570.6</ele>
        <time>2022-03-07T11:31:31Z</time>
      </trkpt>
      <trkpt lat="46.54992" lon="5.57398">
        <ele>570.6</ele>
        <time>2022-03-07T11:31:32Z</time>
      </trkpt>
      <trkpt lat="46.54992" lon="5.574">
        <ele>571</ele>
        <time>2022-03-07T11:31:33Z</time>
      </trkpt>
      <trkpt lat="46.54991" lon="5.57403">
        <ele>571</ele>
        <time>2022-03-07T11:31:34Z</time>
      </trkpt>
      <trkpt lat="46.54991" lon="5.57406">
        <ele>571.4</ele>
        <time>2022-03-07T11:31:35Z</time>
      </trkpt>
      <trkpt lat="46.54991" lon="5.57409">
        <ele>571.4</ele>
        <time>2022-03-07T11:31:36Z</time>
      </trkpt>
      <trkpt lat="46.5499" lon="5.57412">
        <ele>571.4</ele>
        <time>2022-03-07T11:31:37Z</time>
      </trkpt>
      <trkpt lat="46.5499" lon="5.57415">
        <ele>571.6</ele>
        <time>2022-03-07T11:31:38Z</time>
      </trkpt>
      <trkpt lat="46.54989" lon="5.57418">
        <ele>572</ele>
        <time>2022-03-07T11:31:39Z</time>
      </trkpt>
      <trkpt lat="46.54989" lon="5.57421">
        <ele>572.2</ele>
        <time>2022-03-07T11:31:40Z</time>
      </trkpt>
      <trkpt lat="46.54989" lon="5.57424">
        <ele>572.2</ele>
        <time>2022-03-07T11:31:41Z</time>
      </trkpt>
      <trkpt lat="46.54989" lon="5.57426">
        <ele>572.4</ele>
        <time>2022-03-07T11:31:42Z</time>
      </trkpt>
      <trkpt lat="46.54988" lon="5.57429">
        <ele>572.4</ele>
        <time>2022-03-07T11:31:43Z</time>
      </trkpt>
      <trkpt lat="46.54988" lon="5.57432">
        <ele>572.8</ele>
        <time>2022-03-07T11:31:44Z</time>
      </trkpt>
      <trkpt lat="46.54987" lon="5.57435">
        <ele>572.8</ele>
        <time>2022-03-07T11:31:45Z</time>
      </trkpt>
      <trkpt lat="46.54987" lon="5.57438">
        <ele>573</ele>
        <time>2022-03-07T11:31:46Z</time>
      </trkpt>
      <trkpt lat="46.54987" lon="5.57441">
        <ele>573</ele>
        <time>2022-03-07T11:31:47Z</time>
      </trkpt>
      <trkpt lat="46.54986" lon="5.57445">
        <ele>573.2</ele>
        <time>2022-03-07T11:31:48Z</time>
      </trkpt>
      <trkpt lat="46.54986" lon="5.57448">
        <ele>573.2</ele>
        <time>2022-03-07T11:31:49Z</time>
      </trkpt>
      <trkpt lat="46.54986" lon="5.57448">
        <ele>573.2</ele>
        <time>2022-03-07T11:31:50Z</time>
      </trkpt>
      <trkpt lat="46.54985" lon="5.57451">
        <ele>573.2</ele>
        <time>2022-03-07T11:31:51Z</time>
      </trkpt>
      <trkpt lat="46.54985" lon="5.57454">
        <ele>573.4</ele>
        <time>2022-03-07T11:31:52Z</time>
      </trkpt>
      <trkpt lat="46.54984" lon="5.57457">
        <ele>573.4</ele>
        <time>2022-03-07T11:31:53Z</time>
      </trkpt>
      <trkpt lat="46.54984" lon="5.57461">
        <ele>573.8</ele>
        <time>2022-03-07T11:31:54Z</time>
      </trkpt>
      <trkpt lat="46.54983" lon="5.57464">
        <ele>573.8</ele>
        <time>2022-03-07T11:31:55Z</time>
      </trkpt>
      <trkpt lat="46.54983" lon="5.57467">
        <ele>574</ele>
        <time>2022-03-07T11:31:56Z</time>
      </trkpt>
      <trkpt lat="46.54983" lon="5.57469">
        <ele>574</ele>
        <time>2022-03-07T11:31:57Z</time>
      </trkpt>
      <trkpt lat="46.54982" lon="5.57472">
        <ele>574</ele>
        <time>2022-03-07T11:31:58Z</time>
      </trkpt>
      <trkpt lat="46.54982" lon="5.57475">
        <ele>574.2</ele>
        <time>2022-03-07T11:31:59Z</time>
      </trkpt>
      <trkpt lat="46.54981" lon="5.57478">
        <ele>574.2</ele>
        <time>2022-03-07T11:32:00Z</time>
      </trkpt>
      <trkpt lat="46.5498" lon="5.57481">
        <ele>574.2</ele>
        <time>2022-03-07T11:32:01Z</time>
      </trkpt>
      <trkpt lat="46.5498" lon="5.57484">
        <ele>574.4</ele>
        <time>2022-03-07T11:32:02Z</time>
      </trkpt>
      <trkpt lat="46.54979" lon="5.57488">
        <ele>574.4</ele>
        <time>2022-03-07T11:32:03Z</time>
      </trkpt>
      <trkpt lat="46.54978" lon="5.57493">
        <ele>574.6</ele>
        <time>2022-03-07T11:32:04Z</time>
      </trkpt>
      <trkpt lat="46.54978" lon="5.57497">
        <ele>574.6</ele>
        <time>2022-03-07T11:32:05Z</time>
      </trkpt>
      <trkpt lat="46.54977" lon="5.57501">
        <ele>574.6</ele>
        <time>2022-03-07T11:32:06Z</time>
      </trkpt>
      <trkpt lat="46.54977" lon="5.57505">
        <ele>574.6</ele>
        <time>2022-03-07T11:32:07Z</time>
      </trkpt>
      <trkpt lat="46.54976" lon="5.57509">
        <ele>574.8</ele>
        <time>2022-03-07T11:32:08Z</time>
      </trkpt>
      <trkpt lat="46.54975" lon="5.57514">
        <ele>574.8</ele>
        <time>2022-03-07T11:32:09Z</time>
      </trkpt>
      <trkpt lat="46.54975" lon="5.57519">
        <ele>574.8</ele>
        <time>2022-03-07T11:32:10Z</time>
      </trkpt>
      <trkpt lat="46.54974" lon="5.57524">
        <ele>575.2</ele>
        <time>2022-03-07T11:32:11Z</time>
      </trkpt>
      <trkpt lat="46.54974" lon="5.57529">
        <ele>575.2</ele>
        <time>2022-03-07T11:32:12Z</time>
      </trkpt>
      <trkpt lat="46.54973" lon="5.57534">
        <ele>575.2</ele>
        <time>2022-03-07T11:32:13Z</time>
      </trkpt>
      <trkpt lat="46.54972" lon="5.57539">
        <ele>575.4</ele>
        <time>2022-03-07T11:32:14Z</time>
      </trkpt>
      <trkpt lat="46.54972" lon="5.57544">
        <ele>575.4</ele>
        <time>2022-03-07T11:32:15Z</time>
      </trkpt>
      <trkpt lat="46.54972" lon="5.57548">
        <ele>575.4</ele>
        <time>2022-03-07T11:32:16Z</time>
      </trkpt>
      <trkpt lat="46.54972" lon="5.57553">
        <ele>575.6</ele>
        <time>2022-03-07T11:32:17Z</time>
      </trkpt>
      <trkpt lat="46.54971" lon="5.57558">
        <ele>575.6</ele>
        <time>2022-03-07T11:32:18Z</time>
      </trkpt>
      <trkpt lat="46.54971" lon="5.57562">
        <ele>575.6</ele>
        <time>2022-03-07T11:32:19Z</time>
      </trkpt>
      <trkpt lat="46.54971" lon="5.57567">
        <ele>575.8</ele>
        <time>2022-03-07T11:32:20Z</time>
      </trkpt>
      <trkpt lat="46.5497" lon="5.57571">
        <ele>575.8</ele>
        <time>2022-03-07T11:32:21Z</time>
      </trkpt>
      <trkpt lat="46.5497" lon="5.57575">
        <ele>576.2</ele>
        <time>2022-03-07T11:32:22Z</time>
      </trkpt>
      <trkpt lat="46.54969" lon="5.57579">
        <ele>576.2</ele>
        <time>2022-03-07T11:32:23Z</time>
      </trkpt>
      <trkpt lat="46.54968" lon="5.57583">
        <ele>576.4</ele>
        <time>2022-03-07T11:32:24Z</time>
      </trkpt>
      <trkpt lat="46.54968" lon="5.57587">
        <ele>576.4</ele>
        <time>2022-03-07T11:32:25Z</time>
      </trkpt>
      <trkpt lat="46.54968" lon="5.5759">
        <ele>576.8</ele>
        <time>2022-03-07T11:32:26Z</time>
      </trkpt>
      <trkpt lat="46.54968" lon="5.57594">
        <ele>576.8</ele>
        <time>2022-03-07T11:32:27Z</time>
      </trkpt>
      <trkpt lat="46.54967" lon="5.57597">
        <ele>577</ele>
        <time>2022-03-07T11:32:28Z</time>
      </trkpt>
      <trkpt lat="46.54967" lon="5.57597">
        <ele>577</ele>
        <time>2022-03-07T11:32:29Z</time>
      </trkpt>
      <trkpt lat="46.54967" lon="5.57597">
        <ele>577</ele>
        <time>2022-03-07T11:32:30Z</time>
      </trkpt>
      <trkpt lat="46.54967" lon="5.57598">
        <ele>577</ele>
        <time>2022-03-07T11:32:31Z</time>
      </trkpt>
      <trkpt lat="46.54967" lon="5.57598">
        <ele>577</ele>
        <time>2022-03-07T11:32:32Z</time>
      </trkpt>
      <trkpt lat="46.54967" lon="5.57598">
        <ele>577.2</ele>
        <time>2022-03-07T11:32:33Z</time>
      </trkpt>
      <trkpt lat="46.54967" lon="5.57599">
        <ele>577.2</ele>
        <time>2022-03-07T11:32:34Z</time>
      </trkpt>
      <trkpt lat="46.54967" lon="5.57599">
        <ele>577.2</ele>
        <time>2022-03-07T11:32:35Z</time>
      </trkpt>
      <trkpt lat="46.54967" lon="5.57599">
        <ele>577.2</ele>
        <time>2022-03-07T11:32:36Z</time>
      </trkpt>
      <trkpt lat="46.54967" lon="5.576">
        <ele>577.2</ele>
        <time>2022-03-07T11:32:37Z</time>
      </trkpt>
      <trkpt lat="46.54967" lon="5.576">
        <ele>577.2</ele>
        <time>2022-03-07T11:32:38Z</time>
      </trkpt>
      <trkpt lat="46.54967" lon="5.576">
        <ele>577.2</ele>
        <time>2022-03-07T11:32:39Z</time>
      </trkpt>
      <trkpt lat="46.54967" lon="5.57601">
        <ele>577.2</ele>
        <time>2022-03-07T11:32:40Z</time>
      </trkpt>
      <trkpt lat="46.54967" lon="5.57601">
        <ele>577.2</ele>
        <time>2022-03-07T11:32:41Z</time>
      </trkpt>
      <trkpt lat="46.54967" lon="5.57601">
        <ele>577.2</ele>
        <time>2022-03-07T11:32:42Z</time>
      </trkpt>
      <trkpt lat="46.54967" lon="5.57602">
        <ele>577.2</ele>
        <time>2022-03-07T11:32:43Z</time>
      </trkpt>
      <trkpt lat="46.54967" lon="5.57602">
        <ele>577.2</ele>
        <time>2022-03-07T11:32:44Z</time>
      </trkpt>
      <trkpt lat="46.54966" lon="5.57602">
        <ele>577.2</ele>
        <time>2022-03-07T11:32:45Z</time>
      </trkpt>
      <trkpt lat="46.54966" lon="5.57603">
        <ele>577.2</ele>
        <time>2022-03-07T11:32:46Z</time>
      </trkpt>
      <trkpt lat="46.54966" lon="5.57603">
        <ele>577.2</ele>
        <time>2022-03-07T11:32:47Z</time>
      </trkpt>
      <trkpt lat="46.54966" lon="5.57603">
        <ele>577.2</ele>
        <time>2022-03-07T11:32:48Z</time>
      </trkpt>
      <trkpt lat="46.54966" lon="5.57604">
        <ele>577.2</ele>
        <time>2022-03-07T11:32:49Z</time>
      </trkpt>
      <trkpt lat="46.54966" lon="5.57604">
        <ele>577.2</ele>
        <time>2022-03-07T11:32:50Z</time>
      </trkpt>
      <trkpt lat="46.54966" lon="5.57604">
        <ele>577.2</ele>
        <time>2022-03-07T11:32:51Z</time>
      </trkpt>
      <trkpt lat="46.54966" lon="5.57605">
        <ele>577.2</ele>
        <time>2022-03-07T11:32:52Z</time>
      </trkpt>
      <trkpt lat="46.54966" lon="5.57605">
        <ele>577.2</ele>
        <time>2022-03-07T11:32:53Z</time>
      </trkpt>
      <trkpt lat="46.54966" lon="5.57605">
        <ele>577.2</ele>
        <time>2022-03-07T11:32:54Z</time>
      </trkpt>
      <trkpt lat="46.54966" lon="5.57605">
        <ele>577.2</ele>
        <time>2022-03-07T11:32:55Z</time>
      </trkpt>
      <trkpt lat="46.54966" lon="5.57606">
        <ele>577.2</ele>
        <time>2022-03-07T11:32:57Z</time>
      </trkpt>
      <trkpt lat="46.54966" lon="5.57606">
        <ele>577.2</ele>
        <time>2022-03-07T11:32:58Z</time>
      </trkpt>
      <trkpt lat="46.54966" lon="5.57606">
        <ele>577.2</ele>
        <time>2022-03-07T11:32:59Z</time>
      </trkpt>
      <trkpt lat="46.54966" lon="5.57607">
        <ele>577.2</ele>
        <time>2022-03-07T11:33:00Z</time>
      </trkpt>
      <trkpt lat="46.54966" lon="5.57607">
        <ele>577.2</ele>
        <time>2022-03-07T11:33:01Z</time>
      </trkpt>
      <trkpt lat="46.54965" lon="5.57607">
        <ele>577.2</ele>
        <time>2022-03-07T11:33:02Z</time>
      </trkpt>
      <trkpt lat="46.54965" lon="5.57608">
        <ele>577.2</ele>
        <time>2022-03-07T11:33:03Z</time>
      </trkpt>
      <trkpt lat="46.54965" lon="5.57608">
        <ele>577.2</ele>
        <time>2022-03-07T11:33:06Z</time>
      </trkpt>
      <trkpt lat="46.54965" lon="5.57608">
        <ele>577.2</ele>
        <time>2022-03-07T11:33:07Z</time>
      </trkpt>
      <trkpt lat="46.54965" lon="5.57609">
        <ele>577.2</ele>
        <time>2022-03-07T11:33:08Z</time>
      </trkpt>
      <trkpt lat="46.54965" lon="5.57609">
        <ele>577.2</ele>
        <time>2022-03-07T11:33:09Z</time>
      </trkpt>
      <trkpt lat="46.54965" lon="5.57609">
        <ele>577.2</ele>
        <time>2022-03-07T11:33:10Z</time>
      </trkpt>
      <trkpt lat="46.54965" lon="5.5761">
        <ele>577.2</ele>
        <time>2022-03-07T11:33:11Z</time>
      </trkpt>
      <trkpt lat="46.54965" lon="5.57613">
        <ele>577.2</ele>
        <time>2022-03-07T11:33:12Z</time>
      </trkpt>
      <trkpt lat="46.54964" lon="5.57616">
        <ele>577.2</ele>
        <time>2022-03-07T11:33:13Z</time>
      </trkpt>
      <trkpt lat="46.54964" lon="5.57619">
        <ele>577.2</ele>
        <time>2022-03-07T11:33:14Z</time>
      </trkpt>
      <trkpt lat="46.54964" lon="5.57623">
        <ele>577.2</ele>
        <time>2022-03-07T11:33:15Z</time>
      </trkpt>
      <trkpt lat="46.54964" lon="5.57628">
        <ele>577.2</ele>
        <time>2022-03-07T11:33:16Z</time>
      </trkpt>
      <trkpt lat="46.54963" lon="5.57633">
        <ele>577.4</ele>
        <time>2022-03-07T11:33:17Z</time>
      </trkpt>
      <trkpt lat="46.54963" lon="5.57638">
        <ele>577.4</ele>
        <time>2022-03-07T11:33:18Z</time>
      </trkpt>
      <trkpt lat="46.54963" lon="5.57643">
        <ele>577.4</ele>
        <time>2022-03-07T11:33:19Z</time>
      </trkpt>
      <trkpt lat="46.54962" lon="5.57649">
        <ele>577.4</ele>
        <time>2022-03-07T11:33:20Z</time>
      </trkpt>
      <trkpt lat="46.54961" lon="5.57655">
        <ele>577.4</ele>
        <time>2022-03-07T11:33:21Z</time>
      </trkpt>
      <trkpt lat="46.5496" lon="5.57661">
        <ele>577.4</ele>
        <time>2022-03-07T11:33:22Z</time>
      </trkpt>
      <trkpt lat="46.54959" lon="5.57668">
        <ele>577.4</ele>
        <time>2022-03-07T11:33:23Z</time>
      </trkpt>
      <trkpt lat="46.54957" lon="5.57675">
        <ele>577.4</ele>
        <time>2022-03-07T11:33:24Z</time>
      </trkpt>
      <trkpt lat="46.54956" lon="5.57682">
        <ele>577.2</ele>
        <time>2022-03-07T11:33:25Z</time>
      </trkpt>
      <trkpt lat="46.54954" lon="5.57689">
        <ele>577.2</ele>
        <time>2022-03-07T11:33:26Z</time>
      </trkpt>
      <trkpt lat="46.54953" lon="5.57697">
        <ele>577</ele>
        <time>2022-03-07T11:33:27Z</time>
      </trkpt>
      <trkpt lat="46.54953" lon="5.57704">
        <ele>577</ele>
        <time>2022-03-07T11:33:28Z</time>
      </trkpt>
      <trkpt lat="46.54952" lon="5.57712">
        <ele>576.6</ele>
        <time>2022-03-07T11:33:29Z</time>
      </trkpt>
      <trkpt lat="46.54951" lon="5.57719">
        <ele>576.6</ele>
        <time>2022-03-07T11:33:30Z</time>
      </trkpt>
      <trkpt lat="46.54949" lon="5.57726">
        <ele>576.6</ele>
        <time>2022-03-07T11:33:31Z</time>
      </trkpt>
      <trkpt lat="46.54949" lon="5.57733">
        <ele>576.6</ele>
        <time>2022-03-07T11:33:32Z</time>
      </trkpt>
      <trkpt lat="46.54948" lon="5.5774">
        <ele>576.6</ele>
        <time>2022-03-07T11:33:33Z</time>
      </trkpt>
      <trkpt lat="46.54947" lon="5.57747">
        <ele>576.6</ele>
        <time>2022-03-07T11:33:34Z</time>
      </trkpt>
      <trkpt lat="46.54946" lon="5.57754">
        <ele>576.6</ele>
        <time>2022-03-07T11:33:35Z</time>
      </trkpt>
      <trkpt lat="46.54946" lon="5.5776">
        <ele>576.6</ele>
        <time>2022-03-07T11:33:36Z</time>
      </trkpt>
      <trkpt lat="46.54945" lon="5.57766">
        <ele>576.6</ele>
        <time>2022-03-07T11:33:37Z</time>
      </trkpt>
      <trkpt lat="46.54944" lon="5.57771">
        <ele>576.6</ele>
        <time>2022-03-07T11:33:38Z</time>
      </trkpt>
      <trkpt lat="46.54943" lon="5.57776">
        <ele>577</ele>
        <time>2022-03-07T11:33:39Z</time>
      </trkpt>
      <trkpt lat="46.54942" lon="5.57782">
        <ele>577</ele>
        <time>2022-03-07T11:33:40Z</time>
      </trkpt>
      <trkpt lat="46.54942" lon="5.57787">
        <ele>577.2</ele>
        <time>2022-03-07T11:33:41Z</time>
      </trkpt>
      <trkpt lat="46.54941" lon="5.57793">
        <ele>577.2</ele>
        <time>2022-03-07T11:33:42Z</time>
      </trkpt>
      <trkpt lat="46.5494" lon="5.57798">
        <ele>577.4</ele>
        <time>2022-03-07T11:33:43Z</time>
      </trkpt>
      <trkpt lat="46.54939" lon="5.57804">
        <ele>577.4</ele>
        <time>2022-03-07T11:33:44Z</time>
      </trkpt>
      <trkpt lat="46.54939" lon="5.57809">
        <ele>577.8</ele>
        <time>2022-03-07T11:33:45Z</time>
      </trkpt>
      <trkpt lat="46.54938" lon="5.57814">
        <ele>577.8</ele>
        <time>2022-03-07T11:33:46Z</time>
      </trkpt>
      <trkpt lat="46.54937" lon="5.57819">
        <ele>577.8</ele>
        <time>2022-03-07T11:33:47Z</time>
      </trkpt>
      <trkpt lat="46.54935" lon="5.57825">
        <ele>577.8</ele>
        <time>2022-03-07T11:33:48Z</time>
      </trkpt>
      <trkpt lat="46.54934" lon="5.57832">
        <ele>577.8</ele>
        <time>2022-03-07T11:33:49Z</time>
      </trkpt>
      <trkpt lat="46.54933" lon="5.57839">
        <ele>577.8</ele>
        <time>2022-03-07T11:33:50Z</time>
      </trkpt>
      <trkpt lat="46.54931" lon="5.57846">
        <ele>577.8</ele>
        <time>2022-03-07T11:33:51Z</time>
      </trkpt>
      <trkpt lat="46.5493" lon="5.57854">
        <ele>577.8</ele>
        <time>2022-03-07T11:33:52Z</time>
      </trkpt>
      <trkpt lat="46.54929" lon="5.57861">
        <ele>577.8</ele>
        <time>2022-03-07T11:33:53Z</time>
      </trkpt>
      <trkpt lat="46.54928" lon="5.57868">
        <ele>577.6</ele>
        <time>2022-03-07T11:33:54Z</time>
      </trkpt>
      <trkpt lat="46.54927" lon="5.57875">
        <ele>577.6</ele>
        <time>2022-03-07T11:33:55Z</time>
      </trkpt>
      <trkpt lat="46.54926" lon="5.57882">
        <ele>577.6</ele>
        <time>2022-03-07T11:33:56Z</time>
      </trkpt>
      <trkpt lat="46.54925" lon="5.57888">
        <ele>577.6</ele>
        <time>2022-03-07T11:33:57Z</time>
      </trkpt>
      <trkpt lat="46.54924" lon="5.57895">
        <ele>577.6</ele>
        <time>2022-03-07T11:33:58Z</time>
      </trkpt>
      <trkpt lat="46.54922" lon="5.57902">
        <ele>577.6</ele>
        <time>2022-03-07T11:33:59Z</time>
      </trkpt>
      <trkpt lat="46.54921" lon="5.57909">
        <ele>577.6</ele>
        <time>2022-03-07T11:34:00Z</time>
      </trkpt>
      <trkpt lat="46.54919" lon="5.57915">
        <ele>577.6</ele>
        <time>2022-03-07T11:34:01Z</time>
      </trkpt>
      <trkpt lat="46.54918" lon="5.57921">
        <ele>577.6</ele>
        <time>2022-03-07T11:34:02Z</time>
      </trkpt>
      <trkpt lat="46.54917" lon="5.57926">
        <ele>577.6</ele>
        <time>2022-03-07T11:34:03Z</time>
      </trkpt>
      <trkpt lat="46.54917" lon="5.57932">
        <ele>577.6</ele>
        <time>2022-03-07T11:34:04Z</time>
      </trkpt>
      <trkpt lat="46.54915" lon="5.57937">
        <ele>577.6</ele>
        <time>2022-03-07T11:34:05Z</time>
      </trkpt>
      <trkpt lat="46.54915" lon="5.57942">
        <ele>577.6</ele>
        <time>2022-03-07T11:34:06Z</time>
      </trkpt>
      <trkpt lat="46.54914" lon="5.57947">
        <ele>577.8</ele>
        <time>2022-03-07T11:34:07Z</time>
      </trkpt>
      <trkpt lat="46.54914" lon="5.57952">
        <ele>577.8</ele>
        <time>2022-03-07T11:34:08Z</time>
      </trkpt>
      <trkpt lat="46.54914" lon="5.57956">
        <ele>578</ele>
        <time>2022-03-07T11:34:09Z</time>
      </trkpt>
      <trkpt lat="46.54912" lon="5.57962">
        <ele>578</ele>
        <time>2022-03-07T11:34:10Z</time>
      </trkpt>
      <trkpt lat="46.54911" lon="5.57967">
        <ele>578</ele>
        <time>2022-03-07T11:34:11Z</time>
      </trkpt>
      <trkpt lat="46.5491" lon="5.57972">
        <ele>578</ele>
        <time>2022-03-07T11:34:12Z</time>
      </trkpt>
      <trkpt lat="46.54909" lon="5.57977">
        <ele>578</ele>
        <time>2022-03-07T11:34:13Z</time>
      </trkpt>
      <trkpt lat="46.54907" lon="5.57983">
        <ele>578</ele>
        <time>2022-03-07T11:34:14Z</time>
      </trkpt>
      <trkpt lat="46.54906" lon="5.57989">
        <ele>578</ele>
        <time>2022-03-07T11:34:15Z</time>
      </trkpt>
      <trkpt lat="46.54906" lon="5.57994">
        <ele>578</ele>
        <time>2022-03-07T11:34:16Z</time>
      </trkpt>
      <trkpt lat="46.54904" lon="5.58">
        <ele>578</ele>
        <time>2022-03-07T11:34:17Z</time>
      </trkpt>
      <trkpt lat="46.54903" lon="5.58006">
        <ele>578</ele>
        <time>2022-03-07T11:34:18Z</time>
      </trkpt>
      <trkpt lat="46.54902" lon="5.58011">
        <ele>578</ele>
        <time>2022-03-07T11:34:19Z</time>
      </trkpt>
      <trkpt lat="46.54901" lon="5.58017">
        <ele>578</ele>
        <time>2022-03-07T11:34:20Z</time>
      </trkpt>
      <trkpt lat="46.54899" lon="5.58023">
        <ele>577.8</ele>
        <time>2022-03-07T11:34:21Z</time>
      </trkpt>
      <trkpt lat="46.54898" lon="5.5803">
        <ele>577.8</ele>
        <time>2022-03-07T11:34:22Z</time>
      </trkpt>
      <trkpt lat="46.54898" lon="5.58036">
        <ele>577.8</ele>
        <time>2022-03-07T11:34:23Z</time>
      </trkpt>
      <trkpt lat="46.54897" lon="5.58043">
        <ele>577.8</ele>
        <time>2022-03-07T11:34:24Z</time>
      </trkpt>
      <trkpt lat="46.54896" lon="5.58049">
        <ele>577.8</ele>
        <time>2022-03-07T11:34:25Z</time>
      </trkpt>
      <trkpt lat="46.54895" lon="5.58055">
        <ele>577.6</ele>
        <time>2022-03-07T11:34:26Z</time>
      </trkpt>
      <trkpt lat="46.54894" lon="5.58062">
        <ele>577.6</ele>
        <time>2022-03-07T11:34:27Z</time>
      </trkpt>
      <trkpt lat="46.54894" lon="5.58068">
        <ele>577.4</ele>
        <time>2022-03-07T11:34:28Z</time>
      </trkpt>
      <trkpt lat="46.54893" lon="5.58075">
        <ele>577.2</ele>
        <time>2022-03-07T11:34:29Z</time>
      </trkpt>
      <trkpt lat="46.54893" lon="5.58081">
        <ele>576.8</ele>
        <time>2022-03-07T11:34:30Z</time>
      </trkpt>
      <trkpt lat="46.54891" lon="5.58088">
        <ele>576.2</ele>
        <time>2022-03-07T11:34:31Z</time>
      </trkpt>
      <trkpt lat="46.54889" lon="5.58095">
        <ele>575.8</ele>
        <time>2022-03-07T11:34:32Z</time>
      </trkpt>
      <trkpt lat="46.54886" lon="5.58102">
        <ele>575.2</ele>
        <time>2022-03-07T11:34:33Z</time>
      </trkpt>
      <trkpt lat="46.54882" lon="5.58108">
        <ele>574.8</ele>
        <time>2022-03-07T11:34:34Z</time>
      </trkpt>
      <trkpt lat="46.54877" lon="5.58113">
        <ele>574.4</ele>
        <time>2022-03-07T11:34:35Z</time>
      </trkpt>
      <trkpt lat="46.54872" lon="5.58118">
        <ele>573.8</ele>
        <time>2022-03-07T11:34:36Z</time>
      </trkpt>
      <trkpt lat="46.54866" lon="5.58123">
        <ele>573.2</ele>
        <time>2022-03-07T11:34:37Z</time>
      </trkpt>
      <trkpt lat="46.54859" lon="5.58128">
        <ele>572.6</ele>
        <time>2022-03-07T11:34:38Z</time>
      </trkpt>
      <trkpt lat="46.54851" lon="5.58133">
        <ele>572</ele>
        <time>2022-03-07T11:34:39Z</time>
      </trkpt>
      <trkpt lat="46.5484" lon="5.58136">
        <ele>571.2</ele>
        <time>2022-03-07T11:34:40Z</time>
      </trkpt>
      <trkpt lat="46.5483" lon="5.58139">
        <ele>570.4</ele>
        <time>2022-03-07T11:34:41Z</time>
      </trkpt>
      <trkpt lat="46.5482" lon="5.58143">
        <ele>569.6</ele>
        <time>2022-03-07T11:34:42Z</time>
      </trkpt>
      <trkpt lat="46.54807" lon="5.58144">
        <ele>568.6</ele>
        <time>2022-03-07T11:34:43Z</time>
      </trkpt>
      <trkpt lat="46.54794" lon="5.58144">
        <ele>567.8</ele>
        <time>2022-03-07T11:34:44Z</time>
      </trkpt>
      <trkpt lat="46.5478" lon="5.58144">
        <ele>566.6</ele>
        <time>2022-03-07T11:34:45Z</time>
      </trkpt>
      <trkpt lat="46.54767" lon="5.58144">
        <ele>565.4</ele>
        <time>2022-03-07T11:34:46Z</time>
      </trkpt>
      <trkpt lat="46.54754" lon="5.58144">
        <ele>563.8</ele>
        <time>2022-03-07T11:34:47Z</time>
      </trkpt>
      <trkpt lat="46.54741" lon="5.58143">
        <ele>562.2</ele>
        <time>2022-03-07T11:34:48Z</time>
      </trkpt>
      <trkpt lat="46.5473" lon="5.58143">
        <ele>560.4</ele>
        <time>2022-03-07T11:34:49Z</time>
      </trkpt>
      <trkpt lat="46.54717" lon="5.58143">
        <ele>558.4</ele>
        <time>2022-03-07T11:34:50Z</time>
      </trkpt>
      <trkpt lat="46.54704" lon="5.58143">
        <ele>556.4</ele>
        <time>2022-03-07T11:34:51Z</time>
      </trkpt>
      <trkpt lat="46.54692" lon="5.58145">
        <ele>554.2</ele>
        <time>2022-03-07T11:34:52Z</time>
      </trkpt>
      <trkpt lat="46.54679" lon="5.5815">
        <ele>552.4</ele>
        <time>2022-03-07T11:34:53Z</time>
      </trkpt>
      <trkpt lat="46.54669" lon="5.58155">
        <ele>550.2</ele>
        <time>2022-03-07T11:34:54Z</time>
      </trkpt>
      <trkpt lat="46.54658" lon="5.58159">
        <ele>548.4</ele>
        <time>2022-03-07T11:34:55Z</time>
      </trkpt>
      <trkpt lat="46.54649" lon="5.58164">
        <ele>546.6</ele>
        <time>2022-03-07T11:34:56Z</time>
      </trkpt>
      <trkpt lat="46.5464" lon="5.58168">
        <ele>544.6</ele>
        <time>2022-03-07T11:34:57Z</time>
      </trkpt>
      <trkpt lat="46.54632" lon="5.58171">
        <ele>543</ele>
        <time>2022-03-07T11:34:58Z</time>
      </trkpt>
      <trkpt lat="46.54625" lon="5.58174">
        <ele>541.4</ele>
        <time>2022-03-07T11:34:59Z</time>
      </trkpt>
      <trkpt lat="46.54619" lon="5.58179">
        <ele>540</ele>
        <time>2022-03-07T11:35:00Z</time>
      </trkpt>
      <trkpt lat="46.54615" lon="5.58185">
        <ele>538.6</ele>
        <time>2022-03-07T11:35:01Z</time>
      </trkpt>
      <trkpt lat="46.54612" lon="5.58194">
        <ele>537.6</ele>
        <time>2022-03-07T11:35:02Z</time>
      </trkpt>
      <trkpt lat="46.54609" lon="5.58205">
        <ele>536.4</ele>
        <time>2022-03-07T11:35:03Z</time>
      </trkpt>
      <trkpt lat="46.54608" lon="5.58219">
        <ele>535.4</ele>
        <time>2022-03-07T11:35:04Z</time>
      </trkpt>
      <trkpt lat="46.54604" lon="5.58233">
        <ele>534.4</ele>
        <time>2022-03-07T11:35:05Z</time>
      </trkpt>
      <trkpt lat="46.54601" lon="5.58246">
        <ele>533.4</ele>
        <time>2022-03-07T11:35:06Z</time>
      </trkpt>
      <trkpt lat="46.54596" lon="5.58258">
        <ele>532.4</ele>
        <time>2022-03-07T11:35:07Z</time>
      </trkpt>
      <trkpt lat="46.5459" lon="5.58269">
        <ele>531.4</ele>
        <time>2022-03-07T11:35:08Z</time>
      </trkpt>
      <trkpt lat="46.54584" lon="5.58278">
        <ele>530.4</ele>
        <time>2022-03-07T11:35:09Z</time>
      </trkpt>
      <trkpt lat="46.54577" lon="5.58288">
        <ele>529.6</ele>
        <time>2022-03-07T11:35:10Z</time>
      </trkpt>
      <trkpt lat="46.54569" lon="5.58298">
        <ele>528.6</ele>
        <time>2022-03-07T11:35:11Z</time>
      </trkpt>
      <trkpt lat="46.54561" lon="5.58309">
        <ele>527.8</ele>
        <time>2022-03-07T11:35:12Z</time>
      </trkpt>
      <trkpt lat="46.54554" lon="5.5832">
        <ele>526.8</ele>
        <time>2022-03-07T11:35:13Z</time>
      </trkpt>
      <trkpt lat="46.54549" lon="5.58331">
        <ele>525.8</ele>
        <time>2022-03-07T11:35:14Z</time>
      </trkpt>
      <trkpt lat="46.54544" lon="5.58344">
        <ele>524.6</ele>
        <time>2022-03-07T11:35:15Z</time>
      </trkpt>
      <trkpt lat="46.5454" lon="5.58356">
        <ele>523.4</ele>
        <time>2022-03-07T11:35:16Z</time>
      </trkpt>
      <trkpt lat="46.54537" lon="5.58368">
        <ele>522.2</ele>
        <time>2022-03-07T11:35:17Z</time>
      </trkpt>
      <trkpt lat="46.54535" lon="5.58381">
        <ele>521.2</ele>
        <time>2022-03-07T11:35:18Z</time>
      </trkpt>
      <trkpt lat="46.54534" lon="5.58393">
        <ele>520.2</ele>
        <time>2022-03-07T11:35:19Z</time>
      </trkpt>
      <trkpt lat="46.54533" lon="5.58405">
        <ele>519.2</ele>
        <time>2022-03-07T11:35:20Z</time>
      </trkpt>
      <trkpt lat="46.54534" lon="5.58417">
        <ele>518.2</ele>
        <time>2022-03-07T11:35:21Z</time>
      </trkpt>
      <trkpt lat="46.54535" lon="5.58429">
        <ele>517.4</ele>
        <time>2022-03-07T11:35:22Z</time>
      </trkpt>
      <trkpt lat="46.54537" lon="5.58441">
        <ele>516.8</ele>
        <time>2022-03-07T11:35:23Z</time>
      </trkpt>
      <trkpt lat="46.54539" lon="5.58452">
        <ele>516.2</ele>
        <time>2022-03-07T11:35:24Z</time>
      </trkpt>
      <trkpt lat="46.54541" lon="5.58464">
        <ele>515.6</ele>
        <time>2022-03-07T11:35:25Z</time>
      </trkpt>
      <trkpt lat="46.54541" lon="5.58476">
        <ele>515.2</ele>
        <time>2022-03-07T11:35:26Z</time>
      </trkpt>
      <trkpt lat="46.54541" lon="5.58488">
        <ele>514.8</ele>
        <time>2022-03-07T11:35:27Z</time>
      </trkpt>
      <trkpt lat="46.5454" lon="5.585">
        <ele>514.2</ele>
        <time>2022-03-07T11:35:28Z</time>
      </trkpt>
      <trkpt lat="46.5454" lon="5.58512">
        <ele>513</ele>
        <time>2022-03-07T11:35:29Z</time>
      </trkpt>
      <trkpt lat="46.54539" lon="5.58524">
        <ele>512.6</ele>
        <time>2022-03-07T11:35:30Z</time>
      </trkpt>
      <trkpt lat="46.54538" lon="5.58535">
        <ele>512.2</ele>
        <time>2022-03-07T11:35:31Z</time>
      </trkpt>
      <trkpt lat="46.54537" lon="5.58546">
        <ele>511.8</ele>
        <time>2022-03-07T11:35:32Z</time>
      </trkpt>
      <trkpt lat="46.54535" lon="5.58557">
        <ele>511.6</ele>
        <time>2022-03-07T11:35:33Z</time>
      </trkpt>
      <trkpt lat="46.54534" lon="5.58567">
        <ele>511.6</ele>
        <time>2022-03-07T11:35:34Z</time>
      </trkpt>
      <trkpt lat="46.54533" lon="5.58578">
        <ele>511.2</ele>
        <time>2022-03-07T11:35:35Z</time>
      </trkpt>
      <trkpt lat="46.54531" lon="5.58587">
        <ele>511.2</ele>
        <time>2022-03-07T11:35:36Z</time>
      </trkpt>
      <trkpt lat="46.5453" lon="5.58597">
        <ele>511.2</ele>
        <time>2022-03-07T11:35:37Z</time>
      </trkpt>
      <trkpt lat="46.54529" lon="5.58606">
        <ele>510.8</ele>
        <time>2022-03-07T11:35:38Z</time>
      </trkpt>
      <trkpt lat="46.54528" lon="5.58615">
        <ele>510.8</ele>
        <time>2022-03-07T11:35:39Z</time>
      </trkpt>
      <trkpt lat="46.54528" lon="5.58624">
        <ele>510.6</ele>
        <time>2022-03-07T11:35:40Z</time>
      </trkpt>
      <trkpt lat="46.54527" lon="5.58633">
        <ele>510.6</ele>
        <time>2022-03-07T11:35:41Z</time>
      </trkpt>
      <trkpt lat="46.54526" lon="5.58641">
        <ele>510.6</ele>
        <time>2022-03-07T11:35:42Z</time>
      </trkpt>
      <trkpt lat="46.54524" lon="5.5865">
        <ele>510.6</ele>
        <time>2022-03-07T11:35:43Z</time>
      </trkpt>
      <trkpt lat="46.54523" lon="5.58658">
        <ele>510.6</ele>
        <time>2022-03-07T11:35:45Z</time>
      </trkpt>
      <trkpt lat="46.54523" lon="5.58666">
        <ele>510.4</ele>
        <time>2022-03-07T11:35:46Z</time>
      </trkpt>
      <trkpt lat="46.54521" lon="5.58675">
        <ele>510.4</ele>
        <time>2022-03-07T11:35:47Z</time>
      </trkpt>
      <trkpt lat="46.5452" lon="5.58682">
        <ele>510.4</ele>
        <time>2022-03-07T11:35:48Z</time>
      </trkpt>
      <trkpt lat="46.54519" lon="5.5869">
        <ele>510.6</ele>
        <time>2022-03-07T11:35:49Z</time>
      </trkpt>
      <trkpt lat="46.54518" lon="5.58698">
        <ele>510.6</ele>
        <time>2022-03-07T11:35:50Z</time>
      </trkpt>
      <trkpt lat="46.54518" lon="5.58705">
        <ele>510.6</ele>
        <time>2022-03-07T11:35:51Z</time>
      </trkpt>
      <trkpt lat="46.54518" lon="5.58713">
        <ele>510.6</ele>
        <time>2022-03-07T11:35:52Z</time>
      </trkpt>
      <trkpt lat="46.54517" lon="5.58721">
        <ele>510.6</ele>
        <time>2022-03-07T11:35:53Z</time>
      </trkpt>
      <trkpt lat="46.54516" lon="5.58729">
        <ele>510.6</ele>
        <time>2022-03-07T11:35:54Z</time>
      </trkpt>
      <trkpt lat="46.54516" lon="5.58737">
        <ele>510.6</ele>
        <time>2022-03-07T11:35:55Z</time>
      </trkpt>
      <trkpt lat="46.54515" lon="5.58746">
        <ele>510.6</ele>
        <time>2022-03-07T11:35:56Z</time>
      </trkpt>
      <trkpt lat="46.54515" lon="5.58754">
        <ele>510.6</ele>
        <time>2022-03-07T11:35:57Z</time>
      </trkpt>
      <trkpt lat="46.54515" lon="5.58764">
        <ele>510.6</ele>
        <time>2022-03-07T11:35:58Z</time>
      </trkpt>
      <trkpt lat="46.54515" lon="5.58773">
        <ele>510.2</ele>
        <time>2022-03-07T11:35:59Z</time>
      </trkpt>
      <trkpt lat="46.54514" lon="5.58783">
        <ele>510.2</ele>
        <time>2022-03-07T11:36:00Z</time>
      </trkpt>
      <trkpt lat="46.54514" lon="5.58793">
        <ele>509.8</ele>
        <time>2022-03-07T11:36:01Z</time>
      </trkpt>
      <trkpt lat="46.54514" lon="5.58802">
        <ele>509.8</ele>
        <time>2022-03-07T11:36:02Z</time>
      </trkpt>
      <trkpt lat="46.54514" lon="5.58812">
        <ele>509.6</ele>
        <time>2022-03-07T11:36:03Z</time>
      </trkpt>
      <trkpt lat="46.54514" lon="5.58822">
        <ele>509.6</ele>
        <time>2022-03-07T11:36:04Z</time>
      </trkpt>
      <trkpt lat="46.54514" lon="5.58832">
        <ele>509.2</ele>
        <time>2022-03-07T11:36:05Z</time>
      </trkpt>
      <trkpt lat="46.54513" lon="5.58841">
        <ele>509.2</ele>
        <time>2022-03-07T11:36:06Z</time>
      </trkpt>
      <trkpt lat="46.54513" lon="5.58851">
        <ele>509.2</ele>
        <time>2022-03-07T11:36:07Z</time>
      </trkpt>
      <trkpt lat="46.54513" lon="5.58861">
        <ele>509</ele>
        <time>2022-03-07T11:36:08Z</time>
      </trkpt>
      <trkpt lat="46.54512" lon="5.5887">
        <ele>509</ele>
        <time>2022-03-07T11:36:09Z</time>
      </trkpt>
      <trkpt lat="46.54512" lon="5.58879">
        <ele>509</ele>
        <time>2022-03-07T11:36:10Z</time>
      </trkpt>
      <trkpt lat="46.54512" lon="5.58888">
        <ele>509</ele>
        <time>2022-03-07T11:36:11Z</time>
      </trkpt>
      <trkpt lat="46.54512" lon="5.58897">
        <ele>508.8</ele>
        <time>2022-03-07T11:36:12Z</time>
      </trkpt>
      <trkpt lat="46.54512" lon="5.58906">
        <ele>508.8</ele>
        <time>2022-03-07T11:36:13Z</time>
      </trkpt>
      <trkpt lat="46.54511" lon="5.58915">
        <ele>508.8</ele>
        <time>2022-03-07T11:36:14Z</time>
      </trkpt>
      <trkpt lat="46.54511" lon="5.58924">
        <ele>508.8</ele>
        <time>2022-03-07T11:36:15Z</time>
      </trkpt>
      <trkpt lat="46.54511" lon="5.58933">
        <ele>508.8</ele>
        <time>2022-03-07T11:36:16Z</time>
      </trkpt>
      <trkpt lat="46.54511" lon="5.58941">
        <ele>508.8</ele>
        <time>2022-03-07T11:36:17Z</time>
      </trkpt>
      <trkpt lat="46.54511" lon="5.58949">
        <ele>508.8</ele>
        <time>2022-03-07T11:36:18Z</time>
      </trkpt>
      <trkpt lat="46.5451" lon="5.58958">
        <ele>508.8</ele>
        <time>2022-03-07T11:36:19Z</time>
      </trkpt>
      <trkpt lat="46.5451" lon="5.58966">
        <ele>508.8</ele>
        <time>2022-03-07T11:36:20Z</time>
      </trkpt>
      <trkpt lat="46.5451" lon="5.58974">
        <ele>508.8</ele>
        <time>2022-03-07T11:36:21Z</time>
      </trkpt>
      <trkpt lat="46.5451" lon="5.58981">
        <ele>509.2</ele>
        <time>2022-03-07T11:36:22Z</time>
      </trkpt>
      <trkpt lat="46.5451" lon="5.58989">
        <ele>509.2</ele>
        <time>2022-03-07T11:36:23Z</time>
      </trkpt>
      <trkpt lat="46.5451" lon="5.58997">
        <ele>509.2</ele>
        <time>2022-03-07T11:36:24Z</time>
      </trkpt>
      <trkpt lat="46.54509" lon="5.59004">
        <ele>509.4</ele>
        <time>2022-03-07T11:36:25Z</time>
      </trkpt>
      <trkpt lat="46.54509" lon="5.59011">
        <ele>509.4</ele>
        <time>2022-03-07T11:36:26Z</time>
      </trkpt>
      <trkpt lat="46.54509" lon="5.59019">
        <ele>509.4</ele>
        <time>2022-03-07T11:36:27Z</time>
      </trkpt>
      <trkpt lat="46.54508" lon="5.59026">
        <ele>509.6</ele>
        <time>2022-03-07T11:36:28Z</time>
      </trkpt>
      <trkpt lat="46.54508" lon="5.59034">
        <ele>509.6</ele>
        <time>2022-03-07T11:36:29Z</time>
      </trkpt>
      <trkpt lat="46.54508" lon="5.59041">
        <ele>509.6</ele>
        <time>2022-03-07T11:36:30Z</time>
      </trkpt>
      <trkpt lat="46.54507" lon="5.59049">
        <ele>509.6</ele>
        <time>2022-03-07T11:36:31Z</time>
      </trkpt>
      <trkpt lat="46.54507" lon="5.59057">
        <ele>509.6</ele>
        <time>2022-03-07T11:36:32Z</time>
      </trkpt>
      <trkpt lat="46.54506" lon="5.59066">
        <ele>509.2</ele>
        <time>2022-03-07T11:36:33Z</time>
      </trkpt>
      <trkpt lat="46.54506" lon="5.59075">
        <ele>509.2</ele>
        <time>2022-03-07T11:36:34Z</time>
      </trkpt>
      <trkpt lat="46.54505" lon="5.59084">
        <ele>509</ele>
        <time>2022-03-07T11:36:35Z</time>
      </trkpt>
      <trkpt lat="46.54504" lon="5.59093">
        <ele>509</ele>
        <time>2022-03-07T11:36:36Z</time>
      </trkpt>
      <trkpt lat="46.54503" lon="5.59103">
        <ele>508.6</ele>
        <time>2022-03-07T11:36:37Z</time>
      </trkpt>
      <trkpt lat="46.54502" lon="5.59113">
        <ele>508.4</ele>
        <time>2022-03-07T11:36:38Z</time>
      </trkpt>
      <trkpt lat="46.54501" lon="5.59123">
        <ele>508.4</ele>
        <time>2022-03-07T11:36:39Z</time>
      </trkpt>
      <trkpt lat="46.54499" lon="5.59145">
        <ele>508</ele>
        <time>2022-03-07T11:36:40Z</time>
      </trkpt>
      <trkpt lat="46.54497" lon="5.59155">
        <ele>507.8</ele>
        <time>2022-03-07T11:36:41Z</time>
      </trkpt>
      <trkpt lat="46.54496" lon="5.59166">
        <ele>507.6</ele>
        <time>2022-03-07T11:36:42Z</time>
      </trkpt>
      <trkpt lat="46.54495" lon="5.59177">
        <ele>507.4</ele>
        <time>2022-03-07T11:36:43Z</time>
      </trkpt>
      <trkpt lat="46.54495" lon="5.59187">
        <ele>507</ele>
        <time>2022-03-07T11:36:44Z</time>
      </trkpt>
      <trkpt lat="46.54494" lon="5.59198">
        <ele>506.6</ele>
        <time>2022-03-07T11:36:45Z</time>
      </trkpt>
      <trkpt lat="46.54493" lon="5.59208">
        <ele>506.6</ele>
        <time>2022-03-07T11:36:46Z</time>
      </trkpt>
      <trkpt lat="46.54493" lon="5.59217">
        <ele>506.4</ele>
        <time>2022-03-07T11:36:47Z</time>
      </trkpt>
      <trkpt lat="46.54492" lon="5.59227">
        <ele>506.4</ele>
        <time>2022-03-07T11:36:48Z</time>
      </trkpt>
      <trkpt lat="46.54492" lon="5.59236">
        <ele>506.4</ele>
        <time>2022-03-07T11:36:49Z</time>
      </trkpt>
      <trkpt lat="46.54491" lon="5.59244">
        <ele>506.4</ele>
        <time>2022-03-07T11:36:50Z</time>
      </trkpt>
      <trkpt lat="46.5449" lon="5.59253">
        <ele>506.4</ele>
        <time>2022-03-07T11:36:51Z</time>
      </trkpt>
      <trkpt lat="46.54488" lon="5.59261">
        <ele>506.4</ele>
        <time>2022-03-07T11:36:52Z</time>
      </trkpt>
      <trkpt lat="46.54485" lon="5.59268">
        <ele>506.4</ele>
        <time>2022-03-07T11:36:53Z</time>
      </trkpt>
      <trkpt lat="46.54482" lon="5.59275">
        <ele>506.4</ele>
        <time>2022-03-07T11:36:54Z</time>
      </trkpt>
      <trkpt lat="46.54479" lon="5.59281">
        <ele>506.4</ele>
        <time>2022-03-07T11:36:55Z</time>
      </trkpt>
      <trkpt lat="46.54475" lon="5.59288">
        <ele>506.4</ele>
        <time>2022-03-07T11:36:56Z</time>
      </trkpt>
      <trkpt lat="46.54472" lon="5.59295">
        <ele>506.2</ele>
        <time>2022-03-07T11:36:57Z</time>
      </trkpt>
      <trkpt lat="46.54469" lon="5.59302">
        <ele>506.2</ele>
        <time>2022-03-07T11:36:58Z</time>
      </trkpt>
      <trkpt lat="46.54466" lon="5.59309">
        <ele>505.8</ele>
        <time>2022-03-07T11:36:59Z</time>
      </trkpt>
      <trkpt lat="46.54463" lon="5.59316">
        <ele>505.8</ele>
        <time>2022-03-07T11:37:00Z</time>
      </trkpt>
      <trkpt lat="46.54461" lon="5.59324">
        <ele>505.8</ele>
        <time>2022-03-07T11:37:01Z</time>
      </trkpt>
      <trkpt lat="46.54459" lon="5.59332">
        <ele>505.6</ele>
        <time>2022-03-07T11:37:02Z</time>
      </trkpt>
      <trkpt lat="46.54457" lon="5.5934">
        <ele>505.6</ele>
        <time>2022-03-07T11:37:03Z</time>
      </trkpt>
      <trkpt lat="46.54455" lon="5.59349">
        <ele>505.4</ele>
        <time>2022-03-07T11:37:04Z</time>
      </trkpt>
      <trkpt lat="46.54454" lon="5.59358">
        <ele>505.2</ele>
        <time>2022-03-07T11:37:05Z</time>
      </trkpt>
      <trkpt lat="46.54453" lon="5.59367">
        <ele>504.8</ele>
        <time>2022-03-07T11:37:06Z</time>
      </trkpt>
      <trkpt lat="46.54452" lon="5.59377">
        <ele>504.8</ele>
        <time>2022-03-07T11:37:07Z</time>
      </trkpt>
      <trkpt lat="46.54451" lon="5.59387">
        <ele>504.6</ele>
        <time>2022-03-07T11:37:08Z</time>
      </trkpt>
      <trkpt lat="46.54449" lon="5.59396">
        <ele>504.4</ele>
        <time>2022-03-07T11:37:09Z</time>
      </trkpt>
      <trkpt lat="46.54448" lon="5.59406">
        <ele>504</ele>
        <time>2022-03-07T11:37:10Z</time>
      </trkpt>
      <trkpt lat="46.54446" lon="5.59416">
        <ele>503.8</ele>
        <time>2022-03-07T11:37:11Z</time>
      </trkpt>
      <trkpt lat="46.54445" lon="5.59426">
        <ele>503.4</ele>
        <time>2022-03-07T11:37:12Z</time>
      </trkpt>
      <trkpt lat="46.54444" lon="5.59437">
        <ele>503.2</ele>
        <time>2022-03-07T11:37:13Z</time>
      </trkpt>
      <trkpt lat="46.54443" lon="5.59447">
        <ele>503</ele>
        <time>2022-03-07T11:37:14Z</time>
      </trkpt>
      <trkpt lat="46.54441" lon="5.59457">
        <ele>503</ele>
        <time>2022-03-07T11:37:15Z</time>
      </trkpt>
      <trkpt lat="46.5444" lon="5.59468">
        <ele>502.6</ele>
        <time>2022-03-07T11:37:16Z</time>
      </trkpt>
      <trkpt lat="46.54439" lon="5.59478">
        <ele>502.4</ele>
        <time>2022-03-07T11:37:17Z</time>
      </trkpt>
      <trkpt lat="46.54438" lon="5.59489">
        <ele>502.2</ele>
        <time>2022-03-07T11:37:18Z</time>
      </trkpt>
      <trkpt lat="46.54437" lon="5.59499">
        <ele>502.2</ele>
        <time>2022-03-07T11:37:19Z</time>
      </trkpt>
      <trkpt lat="46.54436" lon="5.5951">
        <ele>501.8</ele>
        <time>2022-03-07T11:37:20Z</time>
      </trkpt>
      <trkpt lat="46.54434" lon="5.5952">
        <ele>501.8</ele>
        <time>2022-03-07T11:37:21Z</time>
      </trkpt>
      <trkpt lat="46.54433" lon="5.59531">
        <ele>501.4</ele>
        <time>2022-03-07T11:37:22Z</time>
      </trkpt>
      <trkpt lat="46.54432" lon="5.59541">
        <ele>501.2</ele>
        <time>2022-03-07T11:37:23Z</time>
      </trkpt>
      <trkpt lat="46.54431" lon="5.59552">
        <ele>501</ele>
        <time>2022-03-07T11:37:24Z</time>
      </trkpt>
      <trkpt lat="46.5443" lon="5.59564">
        <ele>500.8</ele>
        <time>2022-03-07T11:37:25Z</time>
      </trkpt>
      <trkpt lat="46.54429" lon="5.59576">
        <ele>500.4</ele>
        <time>2022-03-07T11:37:26Z</time>
      </trkpt>
      <trkpt lat="46.54427" lon="5.59588">
        <ele>500</ele>
        <time>2022-03-07T11:37:27Z</time>
      </trkpt>
      <trkpt lat="46.54426" lon="5.596">
        <ele>499.8</ele>
        <time>2022-03-07T11:37:28Z</time>
      </trkpt>
      <trkpt lat="46.54424" lon="5.59612">
        <ele>499.6</ele>
        <time>2022-03-07T11:37:29Z</time>
      </trkpt>
      <trkpt lat="46.54423" lon="5.59624">
        <ele>499.4</ele>
        <time>2022-03-07T11:37:30Z</time>
      </trkpt>
      <trkpt lat="46.54422" lon="5.59636">
        <ele>499</ele>
        <time>2022-03-07T11:37:31Z</time>
      </trkpt>
      <trkpt lat="46.5442" lon="5.59648">
        <ele>498.8</ele>
        <time>2022-03-07T11:37:32Z</time>
      </trkpt>
      <trkpt lat="46.54419" lon="5.5966">
        <ele>498.6</ele>
        <time>2022-03-07T11:37:33Z</time>
      </trkpt>
      <trkpt lat="46.54417" lon="5.59672">
        <ele>498.4</ele>
        <time>2022-03-07T11:37:34Z</time>
      </trkpt>
      <trkpt lat="46.54416" lon="5.59684">
        <ele>498</ele>
        <time>2022-03-07T11:37:35Z</time>
      </trkpt>
      <trkpt lat="46.54414" lon="5.59696">
        <ele>497.8</ele>
        <time>2022-03-07T11:37:36Z</time>
      </trkpt>
      <trkpt lat="46.54413" lon="5.59707">
        <ele>497.8</ele>
        <time>2022-03-07T11:37:37Z</time>
      </trkpt>
      <trkpt lat="46.54412" lon="5.59719">
        <ele>497.6</ele>
        <time>2022-03-07T11:37:38Z</time>
      </trkpt>
      <trkpt lat="46.5441" lon="5.59731">
        <ele>497.6</ele>
        <time>2022-03-07T11:37:39Z</time>
      </trkpt>
      <trkpt lat="46.54409" lon="5.59742">
        <ele>497.2</ele>
        <time>2022-03-07T11:37:40Z</time>
      </trkpt>
      <trkpt lat="46.54408" lon="5.59753">
        <ele>497.2</ele>
        <time>2022-03-07T11:37:41Z</time>
      </trkpt>
      <trkpt lat="46.54406" lon="5.59764">
        <ele>497</ele>
        <time>2022-03-07T11:37:42Z</time>
      </trkpt>
      <trkpt lat="46.54405" lon="5.59775">
        <ele>497</ele>
        <time>2022-03-07T11:37:43Z</time>
      </trkpt>
      <trkpt lat="46.54404" lon="5.59786">
        <ele>497</ele>
        <time>2022-03-07T11:37:44Z</time>
      </trkpt>
      <trkpt lat="46.54403" lon="5.59797">
        <ele>496.8</ele>
        <time>2022-03-07T11:37:45Z</time>
      </trkpt>
      <trkpt lat="46.54402" lon="5.59807">
        <ele>496.8</ele>
        <time>2022-03-07T11:37:46Z</time>
      </trkpt>
      <trkpt lat="46.544" lon="5.59818">
        <ele>496.4</ele>
        <time>2022-03-07T11:37:47Z</time>
      </trkpt>
      <trkpt lat="46.54399" lon="5.59828">
        <ele>496.4</ele>
        <time>2022-03-07T11:37:48Z</time>
      </trkpt>
      <trkpt lat="46.54398" lon="5.59838">
        <ele>496.4</ele>
        <time>2022-03-07T11:37:49Z</time>
      </trkpt>
      <trkpt lat="46.54397" lon="5.59848">
        <ele>496.2</ele>
        <time>2022-03-07T11:37:50Z</time>
      </trkpt>
      <trkpt lat="46.54396" lon="5.59858">
        <ele>496.2</ele>
        <time>2022-03-07T11:37:51Z</time>
      </trkpt>
      <trkpt lat="46.54394" lon="5.59867">
        <ele>496.2</ele>
        <time>2022-03-07T11:37:52Z</time>
      </trkpt>
      <trkpt lat="46.54393" lon="5.59876">
        <ele>495.8</ele>
        <time>2022-03-07T11:37:53Z</time>
      </trkpt>
      <trkpt lat="46.54392" lon="5.59885">
        <ele>495.8</ele>
        <time>2022-03-07T11:37:54Z</time>
      </trkpt>
      <trkpt lat="46.54392" lon="5.59885">
        <ele>495.6</ele>
        <time>2022-03-07T11:37:55Z</time>
      </trkpt>
      <trkpt lat="46.5439" lon="5.59893">
        <ele>495.6</ele>
        <time>2022-03-07T11:37:56Z</time>
      </trkpt>
      <trkpt lat="46.5439" lon="5.599">
        <ele>495.6</ele>
        <time>2022-03-07T11:37:57Z</time>
      </trkpt>
      <trkpt lat="46.54389" lon="5.59907">
        <ele>495.8</ele>
        <time>2022-03-07T11:37:58Z</time>
      </trkpt>
      <trkpt lat="46.54389" lon="5.59913">
        <ele>495.8</ele>
        <time>2022-03-07T11:37:59Z</time>
      </trkpt>
      <trkpt lat="46.54389" lon="5.59918">
        <ele>496.2</ele>
        <time>2022-03-07T11:38:00Z</time>
      </trkpt>
      <trkpt lat="46.54389" lon="5.59922">
        <ele>496.2</ele>
        <time>2022-03-07T11:38:01Z</time>
      </trkpt>
      <trkpt lat="46.5439" lon="5.59924">
        <ele>496.2</ele>
        <time>2022-03-07T11:38:02Z</time>
      </trkpt>
      <trkpt lat="46.54391" lon="5.59925">
        <ele>496.2</ele>
        <time>2022-03-07T11:38:03Z</time>
      </trkpt>
      <trkpt lat="46.54391" lon="5.59925">
        <ele>496.2</ele>
        <time>2022-03-07T11:38:04Z</time>
      </trkpt>
      <trkpt lat="46.54391" lon="5.59925">
        <ele>496.2</ele>
        <time>2022-03-07T11:38:05Z</time>
      </trkpt>
      <trkpt lat="46.54392" lon="5.59928">
        <ele>496.4</ele>
        <time>2022-03-07T11:38:07Z</time>
      </trkpt>
      <trkpt lat="46.54393" lon="5.5993">
        <ele>496.4</ele>
        <time>2022-03-07T11:38:08Z</time>
      </trkpt>
      <trkpt lat="46.54394" lon="5.59933">
        <ele>496.4</ele>
        <time>2022-03-07T11:38:09Z</time>
      </trkpt>
      <trkpt lat="46.54396" lon="5.59936">
        <ele>496.4</ele>
        <time>2022-03-07T11:38:10Z</time>
      </trkpt>
      <trkpt lat="46.54398" lon="5.59939">
        <ele>496.4</ele>
        <time>2022-03-07T11:38:11Z</time>
      </trkpt>
      <trkpt lat="46.54401" lon="5.5994">
        <ele>496.4</ele>
        <time>2022-03-07T11:38:12Z</time>
      </trkpt>
      <trkpt lat="46.54405" lon="5.59941">
        <ele>496.4</ele>
        <time>2022-03-07T11:38:13Z</time>
      </trkpt>
      <trkpt lat="46.54408" lon="5.59942">
        <ele>496.4</ele>
        <time>2022-03-07T11:38:14Z</time>
      </trkpt>
      <trkpt lat="46.54412" lon="5.59942">
        <ele>496.4</ele>
        <time>2022-03-07T11:38:15Z</time>
      </trkpt>
      <trkpt lat="46.54416" lon="5.59943">
        <ele>496.4</ele>
        <time>2022-03-07T11:38:16Z</time>
      </trkpt>
      <trkpt lat="46.5442" lon="5.59945">
        <ele>496.4</ele>
        <time>2022-03-07T11:38:17Z</time>
      </trkpt>
      <trkpt lat="46.54424" lon="5.59946">
        <ele>496.4</ele>
        <time>2022-03-07T11:38:18Z</time>
      </trkpt>
      <trkpt lat="46.54429" lon="5.59948">
        <ele>496.4</ele>
        <time>2022-03-07T11:38:19Z</time>
      </trkpt>
      <trkpt lat="46.54433" lon="5.59949">
        <ele>496.4</ele>
        <time>2022-03-07T11:38:20Z</time>
      </trkpt>
      <trkpt lat="46.54438" lon="5.59951">
        <ele>496.4</ele>
        <time>2022-03-07T11:38:21Z</time>
      </trkpt>
      <trkpt lat="46.54442" lon="5.59952">
        <ele>496.8</ele>
        <time>2022-03-07T11:38:22Z</time>
      </trkpt>
      <trkpt lat="46.54447" lon="5.59954">
        <ele>496.8</ele>
        <time>2022-03-07T11:38:23Z</time>
      </trkpt>
      <trkpt lat="46.54452" lon="5.59955">
        <ele>496.8</ele>
        <time>2022-03-07T11:38:24Z</time>
      </trkpt>
      <trkpt lat="46.54456" lon="5.59957">
        <ele>496.8</ele>
        <time>2022-03-07T11:38:25Z</time>
      </trkpt>
      <trkpt lat="46.54461" lon="5.59957">
        <ele>496.8</ele>
        <time>2022-03-07T11:38:26Z</time>
      </trkpt>
      <trkpt lat="46.54465" lon="5.59958">
        <ele>496.8</ele>
        <time>2022-03-07T11:38:27Z</time>
      </trkpt>
      <trkpt lat="46.5447" lon="5.5996">
        <ele>496.8</ele>
        <time>2022-03-07T11:38:28Z</time>
      </trkpt>
      <trkpt lat="46.54474" lon="5.59961">
        <ele>497</ele>
        <time>2022-03-07T11:38:29Z</time>
      </trkpt>
      <trkpt lat="46.54478" lon="5.59962">
        <ele>497</ele>
        <time>2022-03-07T11:38:30Z</time>
      </trkpt>
      <trkpt lat="46.54482" lon="5.59962">
        <ele>497</ele>
        <time>2022-03-07T11:38:31Z</time>
      </trkpt>
      <trkpt lat="46.54486" lon="5.59963">
        <ele>497.2</ele>
        <time>2022-03-07T11:38:32Z</time>
      </trkpt>
      <trkpt lat="46.5449" lon="5.59964">
        <ele>497.2</ele>
        <time>2022-03-07T11:38:33Z</time>
      </trkpt>
      <trkpt lat="46.54494" lon="5.59966">
        <ele>497.4</ele>
        <time>2022-03-07T11:38:34Z</time>
      </trkpt>
      <trkpt lat="46.54498" lon="5.59967">
        <ele>497.4</ele>
        <time>2022-03-07T11:38:35Z</time>
      </trkpt>
      <trkpt lat="46.54502" lon="5.59969">
        <ele>497.6</ele>
        <time>2022-03-07T11:38:36Z</time>
      </trkpt>
      <trkpt lat="46.54506" lon="5.5997">
        <ele>498</ele>
        <time>2022-03-07T11:38:37Z</time>
      </trkpt>
      <trkpt lat="46.54509" lon="5.59971">
        <ele>498</ele>
        <time>2022-03-07T11:38:38Z</time>
      </trkpt>
      <trkpt lat="46.54513" lon="5.59972">
        <ele>498.2</ele>
        <time>2022-03-07T11:38:39Z</time>
      </trkpt>
      <trkpt lat="46.54516" lon="5.59973">
        <ele>498.2</ele>
        <time>2022-03-07T11:38:40Z</time>
      </trkpt>
      <trkpt lat="46.5452" lon="5.59974">
        <ele>498.2</ele>
        <time>2022-03-07T11:38:41Z</time>
      </trkpt>
      <trkpt lat="46.54523" lon="5.59975">
        <ele>498.2</ele>
        <time>2022-03-07T11:38:42Z</time>
      </trkpt>
      <trkpt lat="46.54526" lon="5.59975">
        <ele>498.4</ele>
        <time>2022-03-07T11:38:43Z</time>
      </trkpt>
      <trkpt lat="46.5453" lon="5.59976">
        <ele>498.4</ele>
        <time>2022-03-07T11:38:44Z</time>
      </trkpt>
      <trkpt lat="46.54533" lon="5.59977">
        <ele>498.4</ele>
        <time>2022-03-07T11:38:45Z</time>
      </trkpt>
      <trkpt lat="46.54536" lon="5.59979">
        <ele>498.6</ele>
        <time>2022-03-07T11:38:46Z</time>
      </trkpt>
      <trkpt lat="46.5454" lon="5.5998">
        <ele>498.6</ele>
        <time>2022-03-07T11:38:47Z</time>
      </trkpt>
      <trkpt lat="46.54544" lon="5.59981">
        <ele>498.8</ele>
        <time>2022-03-07T11:38:48Z</time>
      </trkpt>
      <trkpt lat="46.54548" lon="5.59982">
        <ele>499</ele>
        <time>2022-03-07T11:38:49Z</time>
      </trkpt>
      <trkpt lat="46.54552" lon="5.59983">
        <ele>499.4</ele>
        <time>2022-03-07T11:38:50Z</time>
      </trkpt>
      <trkpt lat="46.54556" lon="5.59984">
        <ele>499.4</ele>
        <time>2022-03-07T11:38:51Z</time>
      </trkpt>
      <trkpt lat="46.5456" lon="5.59985">
        <ele>499.8</ele>
        <time>2022-03-07T11:38:52Z</time>
      </trkpt>
      <trkpt lat="46.54563" lon="5.59985">
        <ele>499.8</ele>
        <time>2022-03-07T11:38:53Z</time>
      </trkpt>
      <trkpt lat="46.54567" lon="5.59986">
        <ele>499.8</ele>
        <time>2022-03-07T11:38:54Z</time>
      </trkpt>
      <trkpt lat="46.54571" lon="5.59986">
        <ele>499.8</ele>
        <time>2022-03-07T11:38:55Z</time>
      </trkpt>
      <trkpt lat="46.54574" lon="5.59986">
        <ele>499.8</ele>
        <time>2022-03-07T11:38:56Z</time>
      </trkpt>
      <trkpt lat="46.54578" lon="5.59987">
        <ele>499.8</ele>
        <time>2022-03-07T11:38:57Z</time>
      </trkpt>
      <trkpt lat="46.54581" lon="5.59987">
        <ele>500.2</ele>
        <time>2022-03-07T11:38:58Z</time>
      </trkpt>
      <trkpt lat="46.54584" lon="5.59986">
        <ele>500.2</ele>
        <time>2022-03-07T11:38:59Z</time>
      </trkpt>
      <trkpt lat="46.54588" lon="5.59986">
        <ele>500.4</ele>
        <time>2022-03-07T11:39:00Z</time>
      </trkpt>
      <trkpt lat="46.54592" lon="5.59986">
        <ele>500.4</ele>
        <time>2022-03-07T11:39:01Z</time>
      </trkpt>
      <trkpt lat="46.54595" lon="5.59985">
        <ele>500.4</ele>
        <time>2022-03-07T11:39:02Z</time>
      </trkpt>
      <trkpt lat="46.54599" lon="5.59985">
        <ele>500.4</ele>
        <time>2022-03-07T11:39:03Z</time>
      </trkpt>
      <trkpt lat="46.54603" lon="5.59984">
        <ele>500.4</ele>
        <time>2022-03-07T11:39:04Z</time>
      </trkpt>
      <trkpt lat="46.54608" lon="5.59984">
        <ele>500.4</ele>
        <time>2022-03-07T11:39:05Z</time>
      </trkpt>
      <trkpt lat="46.54612" lon="5.59983">
        <ele>500.6</ele>
        <time>2022-03-07T11:39:06Z</time>
      </trkpt>
      <trkpt lat="46.54616" lon="5.59983">
        <ele>500.6</ele>
        <time>2022-03-07T11:39:07Z</time>
      </trkpt>
      <trkpt lat="46.5462" lon="5.59982">
        <ele>500.6</ele>
        <time>2022-03-07T11:39:08Z</time>
      </trkpt>
      <trkpt lat="46.54624" lon="5.59981">
        <ele>500.6</ele>
        <time>2022-03-07T11:39:09Z</time>
      </trkpt>
      <trkpt lat="46.54628" lon="5.59979">
        <ele>500.8</ele>
        <time>2022-03-07T11:39:10Z</time>
      </trkpt>
      <trkpt lat="46.54632" lon="5.59978">
        <ele>500.8</ele>
        <time>2022-03-07T11:39:11Z</time>
      </trkpt>
      <trkpt lat="46.54636" lon="5.59976">
        <ele>500.8</ele>
        <time>2022-03-07T11:39:12Z</time>
      </trkpt>
      <trkpt lat="46.5464" lon="5.59973">
        <ele>500.8</ele>
        <time>2022-03-07T11:39:13Z</time>
      </trkpt>
      <trkpt lat="46.54644" lon="5.59971">
        <ele>500.8</ele>
        <time>2022-03-07T11:39:14Z</time>
      </trkpt>
      <trkpt lat="46.54648" lon="5.59969">
        <ele>500.8</ele>
        <time>2022-03-07T11:39:15Z</time>
      </trkpt>
      <trkpt lat="46.54652" lon="5.59967">
        <ele>500.8</ele>
        <time>2022-03-07T11:39:16Z</time>
      </trkpt>
      <trkpt lat="46.54656" lon="5.59965">
        <ele>500.8</ele>
        <time>2022-03-07T11:39:17Z</time>
      </trkpt>
      <trkpt lat="46.54661" lon="5.59962">
        <ele>500.8</ele>
        <time>2022-03-07T11:39:18Z</time>
      </trkpt>
      <trkpt lat="46.54665" lon="5.5996">
        <ele>500.8</ele>
        <time>2022-03-07T11:39:19Z</time>
      </trkpt>
      <trkpt lat="46.54669" lon="5.59957">
        <ele>500.8</ele>
        <time>2022-03-07T11:39:20Z</time>
      </trkpt>
      <trkpt lat="46.54673" lon="5.59955">
        <ele>500.8</ele>
        <time>2022-03-07T11:39:21Z</time>
      </trkpt>
      <trkpt lat="46.54677" lon="5.59952">
        <ele>500.8</ele>
        <time>2022-03-07T11:39:22Z</time>
      </trkpt>
      <trkpt lat="46.54681" lon="5.59949">
        <ele>500.8</ele>
        <time>2022-03-07T11:39:23Z</time>
      </trkpt>
      <trkpt lat="46.54685" lon="5.59947">
        <ele>501</ele>
        <time>2022-03-07T11:39:24Z</time>
      </trkpt>
      <trkpt lat="46.54689" lon="5.59945">
        <ele>501</ele>
        <time>2022-03-07T11:39:25Z</time>
      </trkpt>
      <trkpt lat="46.54694" lon="5.59943">
        <ele>501</ele>
        <time>2022-03-07T11:39:26Z</time>
      </trkpt>
      <trkpt lat="46.54698" lon="5.59941">
        <ele>501</ele>
        <time>2022-03-07T11:39:27Z</time>
      </trkpt>
      <trkpt lat="46.54703" lon="5.59939">
        <ele>501.4</ele>
        <time>2022-03-07T11:39:28Z</time>
      </trkpt>
      <trkpt lat="46.54707" lon="5.59938">
        <ele>501.4</ele>
        <time>2022-03-07T11:39:29Z</time>
      </trkpt>
      <trkpt lat="46.54712" lon="5.59936">
        <ele>501.6</ele>
        <time>2022-03-07T11:39:30Z</time>
      </trkpt>
      <trkpt lat="46.54717" lon="5.59936">
        <ele>501.6</ele>
        <time>2022-03-07T11:39:31Z</time>
      </trkpt>
      <trkpt lat="46.54722" lon="5.59936">
        <ele>501.6</ele>
        <time>2022-03-07T11:39:32Z</time>
      </trkpt>
      <trkpt lat="46.54728" lon="5.59936">
        <ele>501.6</ele>
        <time>2022-03-07T11:39:33Z</time>
      </trkpt>
      <trkpt lat="46.54732" lon="5.59938">
        <ele>501.6</ele>
        <time>2022-03-07T11:39:34Z</time>
      </trkpt>
      <trkpt lat="46.54737" lon="5.5994">
        <ele>501.6</ele>
        <time>2022-03-07T11:39:35Z</time>
      </trkpt>
      <trkpt lat="46.54741" lon="5.59942">
        <ele>501.6</ele>
        <time>2022-03-07T11:39:36Z</time>
      </trkpt>
      <trkpt lat="46.54746" lon="5.59944">
        <ele>501.6</ele>
        <time>2022-03-07T11:39:37Z</time>
      </trkpt>
      <trkpt lat="46.5475" lon="5.59947">
        <ele>501.6</ele>
        <time>2022-03-07T11:39:38Z</time>
      </trkpt>
      <trkpt lat="46.54753" lon="5.59951">
        <ele>501.6</ele>
        <time>2022-03-07T11:39:39Z</time>
      </trkpt>
      <trkpt lat="46.54757" lon="5.59955">
        <ele>501.6</ele>
        <time>2022-03-07T11:39:40Z</time>
      </trkpt>
      <trkpt lat="46.5476" lon="5.59958">
        <ele>501.6</ele>
        <time>2022-03-07T11:39:41Z</time>
      </trkpt>
      <trkpt lat="46.54763" lon="5.59962">
        <ele>501.6</ele>
        <time>2022-03-07T11:39:42Z</time>
      </trkpt>
      <trkpt lat="46.54765" lon="5.59967">
        <ele>502</ele>
        <time>2022-03-07T11:39:43Z</time>
      </trkpt>
      <trkpt lat="46.54768" lon="5.59971">
        <ele>502</ele>
        <time>2022-03-07T11:39:44Z</time>
      </trkpt>
      <trkpt lat="46.54771" lon="5.59975">
        <ele>502.2</ele>
        <time>2022-03-07T11:39:45Z</time>
      </trkpt>
      <trkpt lat="46.54773" lon="5.59979">
        <ele>502.2</ele>
        <time>2022-03-07T11:39:46Z</time>
      </trkpt>
      <trkpt lat="46.54776" lon="5.59983">
        <ele>502.2</ele>
        <time>2022-03-07T11:39:47Z</time>
      </trkpt>
      <trkpt lat="46.54779" lon="5.59987">
        <ele>502.2</ele>
        <time>2022-03-07T11:39:48Z</time>
      </trkpt>
      <trkpt lat="46.54781" lon="5.59992">
        <ele>502.4</ele>
        <time>2022-03-07T11:39:49Z</time>
      </trkpt>
      <trkpt lat="46.54784" lon="5.59996">
        <ele>502.4</ele>
        <time>2022-03-07T11:39:50Z</time>
      </trkpt>
      <trkpt lat="46.54786" lon="5.6">
        <ele>502.6</ele>
        <time>2022-03-07T11:39:51Z</time>
      </trkpt>
      <trkpt lat="46.54789" lon="5.60004">
        <ele>502.6</ele>
        <time>2022-03-07T11:39:52Z</time>
      </trkpt>
      <trkpt lat="46.54792" lon="5.60008">
        <ele>502.6</ele>
        <time>2022-03-07T11:39:53Z</time>
      </trkpt>
      <trkpt lat="46.54795" lon="5.60012">
        <ele>502.6</ele>
        <time>2022-03-07T11:39:54Z</time>
      </trkpt>
      <trkpt lat="46.54798" lon="5.60015">
        <ele>502.6</ele>
        <time>2022-03-07T11:39:55Z</time>
      </trkpt>
      <trkpt lat="46.54801" lon="5.60019">
        <ele>503</ele>
        <time>2022-03-07T11:39:56Z</time>
      </trkpt>
      <trkpt lat="46.54805" lon="5.60022">
        <ele>503</ele>
        <time>2022-03-07T11:39:57Z</time>
      </trkpt>
      <trkpt lat="46.54808" lon="5.60025">
        <ele>503</ele>
        <time>2022-03-07T11:39:58Z</time>
      </trkpt>
      <trkpt lat="46.54811" lon="5.60028">
        <ele>503</ele>
        <time>2022-03-07T11:39:59Z</time>
      </trkpt>
      <trkpt lat="46.54815" lon="5.6003">
        <ele>503</ele>
        <time>2022-03-07T11:40:00Z</time>
      </trkpt>
      <trkpt lat="46.54818" lon="5.60032">
        <ele>503.2</ele>
        <time>2022-03-07T11:40:01Z</time>
      </trkpt>
      <trkpt lat="46.54822" lon="5.60034">
        <ele>503.2</ele>
        <time>2022-03-07T11:40:02Z</time>
      </trkpt>
      <trkpt lat="46.54826" lon="5.60036">
        <ele>503.2</ele>
        <time>2022-03-07T11:40:03Z</time>
      </trkpt>
      <trkpt lat="46.54829" lon="5.60037">
        <ele>503.2</ele>
        <time>2022-03-07T11:40:04Z</time>
      </trkpt>
      <trkpt lat="46.54833" lon="5.60038">
        <ele>503.2</ele>
        <time>2022-03-07T11:40:05Z</time>
      </trkpt>
      <trkpt lat="46.54837" lon="5.60039">
        <ele>503.4</ele>
        <time>2022-03-07T11:40:06Z</time>
      </trkpt>
      <trkpt lat="46.54841" lon="5.6004">
        <ele>503.4</ele>
        <time>2022-03-07T11:40:07Z</time>
      </trkpt>
      <trkpt lat="46.54845" lon="5.60041">
        <ele>503.4</ele>
        <time>2022-03-07T11:40:08Z</time>
      </trkpt>
      <trkpt lat="46.54849" lon="5.60043">
        <ele>503.4</ele>
        <time>2022-03-07T11:40:09Z</time>
      </trkpt>
      <trkpt lat="46.54853" lon="5.60044">
        <ele>503.4</ele>
        <time>2022-03-07T11:40:10Z</time>
      </trkpt>
      <trkpt lat="46.54857" lon="5.60045">
        <ele>503.6</ele>
        <time>2022-03-07T11:40:11Z</time>
      </trkpt>
      <trkpt lat="46.54861" lon="5.60047">
        <ele>503.6</ele>
        <time>2022-03-07T11:40:12Z</time>
      </trkpt>
      <trkpt lat="46.54865" lon="5.60048">
        <ele>503.6</ele>
        <time>2022-03-07T11:40:13Z</time>
      </trkpt>
      <trkpt lat="46.54869" lon="5.6005">
        <ele>503.6</ele>
        <time>2022-03-07T11:40:14Z</time>
      </trkpt>
      <trkpt lat="46.54873" lon="5.60051">
        <ele>503.6</ele>
        <time>2022-03-07T11:40:15Z</time>
      </trkpt>
      <trkpt lat="46.54878" lon="5.60052">
        <ele>504</ele>
        <time>2022-03-07T11:40:16Z</time>
      </trkpt>
      <trkpt lat="46.54882" lon="5.60054">
        <ele>504</ele>
        <time>2022-03-07T11:40:17Z</time>
      </trkpt>
      <trkpt lat="46.54886" lon="5.60055">
        <ele>504</ele>
        <time>2022-03-07T11:40:18Z</time>
      </trkpt>
      <trkpt lat="46.5489" lon="5.60057">
        <ele>504</ele>
        <time>2022-03-07T11:40:19Z</time>
      </trkpt>
      <trkpt lat="46.54894" lon="5.60058">
        <ele>504.2</ele>
        <time>2022-03-07T11:40:20Z</time>
      </trkpt>
      <trkpt lat="46.54897" lon="5.60061">
        <ele>504.2</ele>
        <time>2022-03-07T11:40:21Z</time>
      </trkpt>
      <trkpt lat="46.54901" lon="5.60063">
        <ele>504.2</ele>
        <time>2022-03-07T11:40:22Z</time>
      </trkpt>
      <trkpt lat="46.54904" lon="5.60065">
        <ele>504.2</ele>
        <time>2022-03-07T11:40:23Z</time>
      </trkpt>
      <trkpt lat="46.54908" lon="5.60068">
        <ele>504.2</ele>
        <time>2022-03-07T11:40:24Z</time>
      </trkpt>
      <trkpt lat="46.54911" lon="5.60071">
        <ele>504.2</ele>
        <time>2022-03-07T11:40:25Z</time>
      </trkpt>
      <trkpt lat="46.54915" lon="5.60075">
        <ele>504.4</ele>
        <time>2022-03-07T11:40:26Z</time>
      </trkpt>
      <trkpt lat="46.54919" lon="5.60078">
        <ele>504.4</ele>
        <time>2022-03-07T11:40:27Z</time>
      </trkpt>
      <trkpt lat="46.54922" lon="5.60082">
        <ele>504.4</ele>
        <time>2022-03-07T11:40:28Z</time>
      </trkpt>
      <trkpt lat="46.54926" lon="5.60086">
        <ele>504.4</ele>
        <time>2022-03-07T11:40:29Z</time>
      </trkpt>
      <trkpt lat="46.54929" lon="5.60089">
        <ele>504.4</ele>
        <time>2022-03-07T11:40:30Z</time>
      </trkpt>
      <trkpt lat="46.54933" lon="5.60093">
        <ele>504.4</ele>
        <time>2022-03-07T11:40:31Z</time>
      </trkpt>
      <trkpt lat="46.54936" lon="5.60097">
        <ele>504.4</ele>
        <time>2022-03-07T11:40:32Z</time>
      </trkpt>
      <trkpt lat="46.5494" lon="5.60101">
        <ele>504.4</ele>
        <time>2022-03-07T11:40:33Z</time>
      </trkpt>
      <trkpt lat="46.54943" lon="5.60105">
        <ele>504.4</ele>
        <time>2022-03-07T11:40:34Z</time>
      </trkpt>
      <trkpt lat="46.54946" lon="5.60109">
        <ele>504.6</ele>
        <time>2022-03-07T11:40:35Z</time>
      </trkpt>
      <trkpt lat="46.5495" lon="5.60112">
        <ele>504.6</ele>
        <time>2022-03-07T11:40:36Z</time>
      </trkpt>
      <trkpt lat="46.54953" lon="5.60116">
        <ele>504.6</ele>
        <time>2022-03-07T11:40:37Z</time>
      </trkpt>
      <trkpt lat="46.54957" lon="5.6012">
        <ele>504.6</ele>
        <time>2022-03-07T11:40:38Z</time>
      </trkpt>
      <trkpt lat="46.5496" lon="5.60123">
        <ele>504.6</ele>
        <time>2022-03-07T11:40:39Z</time>
      </trkpt>
      <trkpt lat="46.54964" lon="5.60127">
        <ele>505</ele>
        <time>2022-03-07T11:40:40Z</time>
      </trkpt>
      <trkpt lat="46.54967" lon="5.6013">
        <ele>505</ele>
        <time>2022-03-07T11:40:41Z</time>
      </trkpt>
      <trkpt lat="46.54971" lon="5.60133">
        <ele>505.2</ele>
        <time>2022-03-07T11:40:42Z</time>
      </trkpt>
      <trkpt lat="46.54975" lon="5.60136">
        <ele>505.2</ele>
        <time>2022-03-07T11:40:43Z</time>
      </trkpt>
      <trkpt lat="46.54979" lon="5.60139">
        <ele>505.4</ele>
        <time>2022-03-07T11:40:44Z</time>
      </trkpt>
      <trkpt lat="46.54983" lon="5.60141">
        <ele>505.4</ele>
        <time>2022-03-07T11:40:45Z</time>
      </trkpt>
      <trkpt lat="46.54987" lon="5.60144">
        <ele>505.4</ele>
        <time>2022-03-07T11:40:46Z</time>
      </trkpt>
      <trkpt lat="46.54991" lon="5.60146">
        <ele>505.4</ele>
        <time>2022-03-07T11:40:47Z</time>
      </trkpt>
      <trkpt lat="46.54996" lon="5.60149">
        <ele>505.6</ele>
        <time>2022-03-07T11:40:48Z</time>
      </trkpt>
      <trkpt lat="46.55" lon="5.60151">
        <ele>505.6</ele>
        <time>2022-03-07T11:40:49Z</time>
      </trkpt>
      <trkpt lat="46.55004" lon="5.60154">
        <ele>505.6</ele>
        <time>2022-03-07T11:40:50Z</time>
      </trkpt>
      <trkpt lat="46.55008" lon="5.60157">
        <ele>505.6</ele>
        <time>2022-03-07T11:40:51Z</time>
      </trkpt>
      <trkpt lat="46.55012" lon="5.60159">
        <ele>505.6</ele>
        <time>2022-03-07T11:40:52Z</time>
      </trkpt>
      <trkpt lat="46.55016" lon="5.60162">
        <ele>505.6</ele>
        <time>2022-03-07T11:40:53Z</time>
      </trkpt>
      <trkpt lat="46.55021" lon="5.60164">
        <ele>505.8</ele>
        <time>2022-03-07T11:40:54Z</time>
      </trkpt>
      <trkpt lat="46.55025" lon="5.60167">
        <ele>505.8</ele>
        <time>2022-03-07T11:40:55Z</time>
      </trkpt>
      <trkpt lat="46.55029" lon="5.60169">
        <ele>505.8</ele>
        <time>2022-03-07T11:40:56Z</time>
      </trkpt>
      <trkpt lat="46.55033" lon="5.60172">
        <ele>505.8</ele>
        <time>2022-03-07T11:40:57Z</time>
      </trkpt>
      <trkpt lat="46.55037" lon="5.60175">
        <ele>505.8</ele>
        <time>2022-03-07T11:40:58Z</time>
      </trkpt>
      <trkpt lat="46.55041" lon="5.60178">
        <ele>505.8</ele>
        <time>2022-03-07T11:40:59Z</time>
      </trkpt>
      <trkpt lat="46.55045" lon="5.60181">
        <ele>505.8</ele>
        <time>2022-03-07T11:41:00Z</time>
      </trkpt>
      <trkpt lat="46.55049" lon="5.60184">
        <ele>505.8</ele>
        <time>2022-03-07T11:41:01Z</time>
      </trkpt>
      <trkpt lat="46.55052" lon="5.60187">
        <ele>505.8</ele>
        <time>2022-03-07T11:41:02Z</time>
      </trkpt>
      <trkpt lat="46.55055" lon="5.6019">
        <ele>506</ele>
        <time>2022-03-07T11:41:03Z</time>
      </trkpt>
      <trkpt lat="46.55059" lon="5.60194">
        <ele>506</ele>
        <time>2022-03-07T11:41:04Z</time>
      </trkpt>
      <trkpt lat="46.55062" lon="5.60198">
        <ele>506</ele>
        <time>2022-03-07T11:41:05Z</time>
      </trkpt>
      <trkpt lat="46.55065" lon="5.60201">
        <ele>506</ele>
        <time>2022-03-07T11:41:06Z</time>
      </trkpt>
      <trkpt lat="46.55068" lon="5.60205">
        <ele>506</ele>
        <time>2022-03-07T11:41:07Z</time>
      </trkpt>
      <trkpt lat="46.55071" lon="5.6021">
        <ele>506</ele>
        <time>2022-03-07T11:41:08Z</time>
      </trkpt>
      <trkpt lat="46.55074" lon="5.60214">
        <ele>506.2</ele>
        <time>2022-03-07T11:41:09Z</time>
      </trkpt>
      <trkpt lat="46.55077" lon="5.60217">
        <ele>506.2</ele>
        <time>2022-03-07T11:41:10Z</time>
      </trkpt>
      <trkpt lat="46.5508" lon="5.60221">
        <ele>506.2</ele>
        <time>2022-03-07T11:41:11Z</time>
      </trkpt>
      <trkpt lat="46.55082" lon="5.60226">
        <ele>506.2</ele>
        <time>2022-03-07T11:41:12Z</time>
      </trkpt>
      <trkpt lat="46.55085" lon="5.6023">
        <ele>506.6</ele>
        <time>2022-03-07T11:41:13Z</time>
      </trkpt>
      <trkpt lat="46.55087" lon="5.60235">
        <ele>506.6</ele>
        <time>2022-03-07T11:41:14Z</time>
      </trkpt>
      <trkpt lat="46.55089" lon="5.6024">
        <ele>506.6</ele>
        <time>2022-03-07T11:41:15Z</time>
      </trkpt>
      <trkpt lat="46.55092" lon="5.60245">
        <ele>506.8</ele>
        <time>2022-03-07T11:41:16Z</time>
      </trkpt>
      <trkpt lat="46.55095" lon="5.60249">
        <ele>506.8</ele>
        <time>2022-03-07T11:41:17Z</time>
      </trkpt>
      <trkpt lat="46.55097" lon="5.60254">
        <ele>506.8</ele>
        <time>2022-03-07T11:41:18Z</time>
      </trkpt>
      <trkpt lat="46.551" lon="5.60258">
        <ele>507</ele>
        <time>2022-03-07T11:41:19Z</time>
      </trkpt>
      <trkpt lat="46.55102" lon="5.60263">
        <ele>507</ele>
        <time>2022-03-07T11:41:20Z</time>
      </trkpt>
      <trkpt lat="46.55105" lon="5.60267">
        <ele>507</ele>
        <time>2022-03-07T11:41:21Z</time>
      </trkpt>
      <trkpt lat="46.55107" lon="5.60271">
        <ele>507</ele>
        <time>2022-03-07T11:41:22Z</time>
      </trkpt>
      <trkpt lat="46.55109" lon="5.60276">
        <ele>507.2</ele>
        <time>2022-03-07T11:41:23Z</time>
      </trkpt>
      <trkpt lat="46.55112" lon="5.60281">
        <ele>507.2</ele>
        <time>2022-03-07T11:41:24Z</time>
      </trkpt>
      <trkpt lat="46.55115" lon="5.60285">
        <ele>507.2</ele>
        <time>2022-03-07T11:41:25Z</time>
      </trkpt>
      <trkpt lat="46.55117" lon="5.60289">
        <ele>507.2</ele>
        <time>2022-03-07T11:41:26Z</time>
      </trkpt>
      <trkpt lat="46.5512" lon="5.60293">
        <ele>507.2</ele>
        <time>2022-03-07T11:41:27Z</time>
      </trkpt>
      <trkpt lat="46.55123" lon="5.60297">
        <ele>507.2</ele>
        <time>2022-03-07T11:41:28Z</time>
      </trkpt>
      <trkpt lat="46.55127" lon="5.60301">
        <ele>507.2</ele>
        <time>2022-03-07T11:41:29Z</time>
      </trkpt>
      <trkpt lat="46.5513" lon="5.60305">
        <ele>507.2</ele>
        <time>2022-03-07T11:41:30Z</time>
      </trkpt>
      <trkpt lat="46.55133" lon="5.60308">
        <ele>507.2</ele>
        <time>2022-03-07T11:41:31Z</time>
      </trkpt>
      <trkpt lat="46.55137" lon="5.60311">
        <ele>507.2</ele>
        <time>2022-03-07T11:41:32Z</time>
      </trkpt>
      <trkpt lat="46.55141" lon="5.60314">
        <ele>507.2</ele>
        <time>2022-03-07T11:41:33Z</time>
      </trkpt>
      <trkpt lat="46.55144" lon="5.60317">
        <ele>507.2</ele>
        <time>2022-03-07T11:41:34Z</time>
      </trkpt>
      <trkpt lat="46.55148" lon="5.6032">
        <ele>507.4</ele>
        <time>2022-03-07T11:41:35Z</time>
      </trkpt>
      <trkpt lat="46.55152" lon="5.60322">
        <ele>507.4</ele>
        <time>2022-03-07T11:41:36Z</time>
      </trkpt>
      <trkpt lat="46.55156" lon="5.60324">
        <ele>507.4</ele>
        <time>2022-03-07T11:41:37Z</time>
      </trkpt>
      <trkpt lat="46.5516" lon="5.60325">
        <ele>507.4</ele>
        <time>2022-03-07T11:41:38Z</time>
      </trkpt>
      <trkpt lat="46.55165" lon="5.60326">
        <ele>507.6</ele>
        <time>2022-03-07T11:41:39Z</time>
      </trkpt>
      <trkpt lat="46.55169" lon="5.60327">
        <ele>507.6</ele>
        <time>2022-03-07T11:41:40Z</time>
      </trkpt>
      <trkpt lat="46.55173" lon="5.60328">
        <ele>507.6</ele>
        <time>2022-03-07T11:41:41Z</time>
      </trkpt>
      <trkpt lat="46.55177" lon="5.60329">
        <ele>507.6</ele>
        <time>2022-03-07T11:41:42Z</time>
      </trkpt>
      <trkpt lat="46.55181" lon="5.6033">
        <ele>507.8</ele>
        <time>2022-03-07T11:41:43Z</time>
      </trkpt>
      <trkpt lat="46.55185" lon="5.6033">
        <ele>507.8</ele>
        <time>2022-03-07T11:41:44Z</time>
      </trkpt>
      <trkpt lat="46.55189" lon="5.6033">
        <ele>507.8</ele>
        <time>2022-03-07T11:41:45Z</time>
      </trkpt>
      <trkpt lat="46.55193" lon="5.6033">
        <ele>507.8</ele>
        <time>2022-03-07T11:41:46Z</time>
      </trkpt>
      <trkpt lat="46.55197" lon="5.60329">
        <ele>508.2</ele>
        <time>2022-03-07T11:41:47Z</time>
      </trkpt>
      <trkpt lat="46.55201" lon="5.60328">
        <ele>508.2</ele>
        <time>2022-03-07T11:41:48Z</time>
      </trkpt>
      <trkpt lat="46.55206" lon="5.60327">
        <ele>508.2</ele>
        <time>2022-03-07T11:41:49Z</time>
      </trkpt>
      <trkpt lat="46.5521" lon="5.60326">
        <ele>508.4</ele>
        <time>2022-03-07T11:41:50Z</time>
      </trkpt>
      <trkpt lat="46.55214" lon="5.60324">
        <ele>508.4</ele>
        <time>2022-03-07T11:41:51Z</time>
      </trkpt>
      <trkpt lat="46.55218" lon="5.60323">
        <ele>508.8</ele>
        <time>2022-03-07T11:41:52Z</time>
      </trkpt>
      <trkpt lat="46.55222" lon="5.60321">
        <ele>508.8</ele>
        <time>2022-03-07T11:41:53Z</time>
      </trkpt>
      <trkpt lat="46.55225" lon="5.60319">
        <ele>508.8</ele>
        <time>2022-03-07T11:41:54Z</time>
      </trkpt>
      <trkpt lat="46.55229" lon="5.60317">
        <ele>508.8</ele>
        <time>2022-03-07T11:41:55Z</time>
      </trkpt>
      <trkpt lat="46.55233" lon="5.60316">
        <ele>508.8</ele>
        <time>2022-03-07T11:41:56Z</time>
      </trkpt>
      <trkpt lat="46.55237" lon="5.60314">
        <ele>508.8</ele>
        <time>2022-03-07T11:41:57Z</time>
      </trkpt>
      <trkpt lat="46.55241" lon="5.60312">
        <ele>509</ele>
        <time>2022-03-07T11:41:58Z</time>
      </trkpt>
      <trkpt lat="46.55245" lon="5.6031">
        <ele>509</ele>
        <time>2022-03-07T11:41:59Z</time>
      </trkpt>
      <trkpt lat="46.55249" lon="5.60309">
        <ele>509</ele>
        <time>2022-03-07T11:42:00Z</time>
      </trkpt>
      <trkpt lat="46.55253" lon="5.60307">
        <ele>509</ele>
        <time>2022-03-07T11:42:01Z</time>
      </trkpt>
      <trkpt lat="46.55257" lon="5.60305">
        <ele>509</ele>
        <time>2022-03-07T11:42:02Z</time>
      </trkpt>
      <trkpt lat="46.55261" lon="5.60303">
        <ele>509</ele>
        <time>2022-03-07T11:42:03Z</time>
      </trkpt>
      <trkpt lat="46.55265" lon="5.60301">
        <ele>509</ele>
        <time>2022-03-07T11:42:04Z</time>
      </trkpt>
      <trkpt lat="46.55269" lon="5.603">
        <ele>509</ele>
        <time>2022-03-07T11:42:05Z</time>
      </trkpt>
      <trkpt lat="46.55273" lon="5.60298">
        <ele>509</ele>
        <time>2022-03-07T11:42:06Z</time>
      </trkpt>
      <trkpt lat="46.55277" lon="5.60296">
        <ele>509</ele>
        <time>2022-03-07T11:42:07Z</time>
      </trkpt>
      <trkpt lat="46.55281" lon="5.60295">
        <ele>509.2</ele>
        <time>2022-03-07T11:42:08Z</time>
      </trkpt>
      <trkpt lat="46.55286" lon="5.60293">
        <ele>509.2</ele>
        <time>2022-03-07T11:42:09Z</time>
      </trkpt>
      <trkpt lat="46.5529" lon="5.60291">
        <ele>509.2</ele>
        <time>2022-03-07T11:42:10Z</time>
      </trkpt>
      <trkpt lat="46.55294" lon="5.6029">
        <ele>509.2</ele>
        <time>2022-03-07T11:42:11Z</time>
      </trkpt>
      <trkpt lat="46.55298" lon="5.60288">
        <ele>509.2</ele>
        <time>2022-03-07T11:42:12Z</time>
      </trkpt>
      <trkpt lat="46.55303" lon="5.60286">
        <ele>509.4</ele>
        <time>2022-03-07T11:42:13Z</time>
      </trkpt>
      <trkpt lat="46.55307" lon="5.60285">
        <ele>509.4</ele>
        <time>2022-03-07T11:42:14Z</time>
      </trkpt>
      <trkpt lat="46.55311" lon="5.60284">
        <ele>509.4</ele>
        <time>2022-03-07T11:42:15Z</time>
      </trkpt>
      <trkpt lat="46.55316" lon="5.60284">
        <ele>509.6</ele>
        <time>2022-03-07T11:42:16Z</time>
      </trkpt>
      <trkpt lat="46.5532" lon="5.60284">
        <ele>509.6</ele>
        <time>2022-03-07T11:42:17Z</time>
      </trkpt>
      <trkpt lat="46.55325" lon="5.60284">
        <ele>509.6</ele>
        <time>2022-03-07T11:42:18Z</time>
      </trkpt>
      <trkpt lat="46.55329" lon="5.60284">
        <ele>509.6</ele>
        <time>2022-03-07T11:42:19Z</time>
      </trkpt>
      <trkpt lat="46.55334" lon="5.60284">
        <ele>510</ele>
        <time>2022-03-07T11:42:20Z</time>
      </trkpt>
      <trkpt lat="46.55338" lon="5.60285">
        <ele>510</ele>
        <time>2022-03-07T11:42:21Z</time>
      </trkpt>
      <trkpt lat="46.55342" lon="5.60286">
        <ele>510</ele>
        <time>2022-03-07T11:42:22Z</time>
      </trkpt>
      <trkpt lat="46.55347" lon="5.60287">
        <ele>510</ele>
        <time>2022-03-07T11:42:23Z</time>
      </trkpt>
      <trkpt lat="46.55351" lon="5.60287">
        <ele>510.2</ele>
        <time>2022-03-07T11:42:24Z</time>
      </trkpt>
      <trkpt lat="46.55355" lon="5.60288">
        <ele>510.2</ele>
        <time>2022-03-07T11:42:25Z</time>
      </trkpt>
      <trkpt lat="46.55359" lon="5.60289">
        <ele>510.2</ele>
        <time>2022-03-07T11:42:26Z</time>
      </trkpt>
      <trkpt lat="46.55363" lon="5.6029">
        <ele>510.2</ele>
        <time>2022-03-07T11:42:27Z</time>
      </trkpt>
      <trkpt lat="46.55367" lon="5.60292">
        <ele>510.4</ele>
        <time>2022-03-07T11:42:28Z</time>
      </trkpt>
      <trkpt lat="46.55371" lon="5.60293">
        <ele>510.4</ele>
        <time>2022-03-07T11:42:29Z</time>
      </trkpt>
      <trkpt lat="46.55376" lon="5.60295">
        <ele>510.4</ele>
        <time>2022-03-07T11:42:30Z</time>
      </trkpt>
      <trkpt lat="46.5538" lon="5.60296">
        <ele>510.4</ele>
        <time>2022-03-07T11:42:31Z</time>
      </trkpt>
      <trkpt lat="46.55384" lon="5.60298">
        <ele>510.6</ele>
        <time>2022-03-07T11:42:32Z</time>
      </trkpt>
      <trkpt lat="46.55388" lon="5.603">
        <ele>510.6</ele>
        <time>2022-03-07T11:42:33Z</time>
      </trkpt>
      <trkpt lat="46.55393" lon="5.60301">
        <ele>510.6</ele>
        <time>2022-03-07T11:42:34Z</time>
      </trkpt>
      <trkpt lat="46.55397" lon="5.60303">
        <ele>510.8</ele>
        <time>2022-03-07T11:42:35Z</time>
      </trkpt>
      <trkpt lat="46.55401" lon="5.60304">
        <ele>510.8</ele>
        <time>2022-03-07T11:42:36Z</time>
      </trkpt>
      <trkpt lat="46.55406" lon="5.60305">
        <ele>510.8</ele>
        <time>2022-03-07T11:42:37Z</time>
      </trkpt>
      <trkpt lat="46.5541" lon="5.60307">
        <ele>510.8</ele>
        <time>2022-03-07T11:42:38Z</time>
      </trkpt>
      <trkpt lat="46.55415" lon="5.60308">
        <ele>511.2</ele>
        <time>2022-03-07T11:42:39Z</time>
      </trkpt>
      <trkpt lat="46.5542" lon="5.60309">
        <ele>511.2</ele>
        <time>2022-03-07T11:42:40Z</time>
      </trkpt>
      <trkpt lat="46.55424" lon="5.60311">
        <ele>511.2</ele>
        <time>2022-03-07T11:42:41Z</time>
      </trkpt>
      <trkpt lat="46.55429" lon="5.60313">
        <ele>511.2</ele>
        <time>2022-03-07T11:42:42Z</time>
      </trkpt>
      <trkpt lat="46.55433" lon="5.60315">
        <ele>511.2</ele>
        <time>2022-03-07T11:42:43Z</time>
      </trkpt>
      <trkpt lat="46.55438" lon="5.60316">
        <ele>511.2</ele>
        <time>2022-03-07T11:42:44Z</time>
      </trkpt>
      <trkpt lat="46.55442" lon="5.60318">
        <ele>511.2</ele>
        <time>2022-03-07T11:42:45Z</time>
      </trkpt>
      <trkpt lat="46.55446" lon="5.60319">
        <ele>511.2</ele>
        <time>2022-03-07T11:42:46Z</time>
      </trkpt>
      <trkpt lat="46.5545" lon="5.60321">
        <ele>511.2</ele>
        <time>2022-03-07T11:42:47Z</time>
      </trkpt>
      <trkpt lat="46.55453" lon="5.60323">
        <ele>511.4</ele>
        <time>2022-03-07T11:42:48Z</time>
      </trkpt>
      <trkpt lat="46.55457" lon="5.60324">
        <ele>511.4</ele>
        <time>2022-03-07T11:42:49Z</time>
      </trkpt>
      <trkpt lat="46.55461" lon="5.60326">
        <ele>511.6</ele>
        <time>2022-03-07T11:42:50Z</time>
      </trkpt>
      <trkpt lat="46.55465" lon="5.60327">
        <ele>511.6</ele>
        <time>2022-03-07T11:42:51Z</time>
      </trkpt>
      <trkpt lat="46.55468" lon="5.60328">
        <ele>511.8</ele>
        <time>2022-03-07T11:42:52Z</time>
      </trkpt>
      <trkpt lat="46.55472" lon="5.6033">
        <ele>511.8</ele>
        <time>2022-03-07T11:42:53Z</time>
      </trkpt>
      <trkpt lat="46.55476" lon="5.60331">
        <ele>511.8</ele>
        <time>2022-03-07T11:42:54Z</time>
      </trkpt>
      <trkpt lat="46.5548" lon="5.60333">
        <ele>512.2</ele>
        <time>2022-03-07T11:42:55Z</time>
      </trkpt>
      <trkpt lat="46.55484" lon="5.60335">
        <ele>512.2</ele>
        <time>2022-03-07T11:42:56Z</time>
      </trkpt>
      <trkpt lat="46.55487" lon="5.60336">
        <ele>512.2</ele>
        <time>2022-03-07T11:42:57Z</time>
      </trkpt>
      <trkpt lat="46.55491" lon="5.60337">
        <ele>512.2</ele>
        <time>2022-03-07T11:42:58Z</time>
      </trkpt>
      <trkpt lat="46.55494" lon="5.60338">
        <ele>512.4</ele>
        <time>2022-03-07T11:42:59Z</time>
      </trkpt>
      <trkpt lat="46.55498" lon="5.60339">
        <ele>512.4</ele>
        <time>2022-03-07T11:43:00Z</time>
      </trkpt>
      <trkpt lat="46.55502" lon="5.6034">
        <ele>512.6</ele>
        <time>2022-03-07T11:43:01Z</time>
      </trkpt>
      <trkpt lat="46.55505" lon="5.60341">
        <ele>512.6</ele>
        <time>2022-03-07T11:43:02Z</time>
      </trkpt>
      <trkpt lat="46.55509" lon="5.60342">
        <ele>512.6</ele>
        <time>2022-03-07T11:43:03Z</time>
      </trkpt>
      <trkpt lat="46.55513" lon="5.60343">
        <ele>512.6</ele>
        <time>2022-03-07T11:43:04Z</time>
      </trkpt>
      <trkpt lat="46.55517" lon="5.60344">
        <ele>512.6</ele>
        <time>2022-03-07T11:43:05Z</time>
      </trkpt>
      <trkpt lat="46.5552" lon="5.60345">
        <ele>513</ele>
        <time>2022-03-07T11:43:06Z</time>
      </trkpt>
      <trkpt lat="46.55524" lon="5.60346">
        <ele>513</ele>
        <time>2022-03-07T11:43:07Z</time>
      </trkpt>
      <trkpt lat="46.55527" lon="5.60347">
        <ele>513.2</ele>
        <time>2022-03-07T11:43:08Z</time>
      </trkpt>
      <trkpt lat="46.55531" lon="5.60348">
        <ele>513.2</ele>
        <time>2022-03-07T11:43:09Z</time>
      </trkpt>
      <trkpt lat="46.55535" lon="5.60348">
        <ele>513.2</ele>
        <time>2022-03-07T11:43:10Z</time>
      </trkpt>
      <trkpt lat="46.55539" lon="5.60348">
        <ele>513.4</ele>
        <time>2022-03-07T11:43:11Z</time>
      </trkpt>
      <trkpt lat="46.55543" lon="5.60348">
        <ele>513.4</ele>
        <time>2022-03-07T11:43:12Z</time>
      </trkpt>
      <trkpt lat="46.55547" lon="5.60349">
        <ele>513.4</ele>
        <time>2022-03-07T11:43:13Z</time>
      </trkpt>
      <trkpt lat="46.5555" lon="5.60349">
        <ele>513.6</ele>
        <time>2022-03-07T11:43:14Z</time>
      </trkpt>
      <trkpt lat="46.55554" lon="5.6035">
        <ele>513.6</ele>
        <time>2022-03-07T11:43:15Z</time>
      </trkpt>
      <trkpt lat="46.55558" lon="5.6035">
        <ele>513.6</ele>
        <time>2022-03-07T11:43:16Z</time>
      </trkpt>
      <trkpt lat="46.55562" lon="5.6035">
        <ele>514</ele>
        <time>2022-03-07T11:43:17Z</time>
      </trkpt>
      <trkpt lat="46.55566" lon="5.60351">
        <ele>514</ele>
        <time>2022-03-07T11:43:18Z</time>
      </trkpt>
      <trkpt lat="46.5557" lon="5.60351">
        <ele>514.2</ele>
        <time>2022-03-07T11:43:19Z</time>
      </trkpt>
      <trkpt lat="46.55574" lon="5.60351">
        <ele>514.2</ele>
        <time>2022-03-07T11:43:20Z</time>
      </trkpt>
      <trkpt lat="46.55577" lon="5.60352">
        <ele>514.2</ele>
        <time>2022-03-07T11:43:21Z</time>
      </trkpt>
      <trkpt lat="46.55581" lon="5.60352">
        <ele>514.2</ele>
        <time>2022-03-07T11:43:22Z</time>
      </trkpt>
      <trkpt lat="46.55585" lon="5.60352">
        <ele>514.4</ele>
        <time>2022-03-07T11:43:23Z</time>
      </trkpt>
      <trkpt lat="46.55588" lon="5.60352">
        <ele>514.4</ele>
        <time>2022-03-07T11:43:24Z</time>
      </trkpt>
      <trkpt lat="46.55592" lon="5.60352">
        <ele>514.4</ele>
        <time>2022-03-07T11:43:25Z</time>
      </trkpt>
      <trkpt lat="46.55596" lon="5.60352">
        <ele>514.4</ele>
        <time>2022-03-07T11:43:26Z</time>
      </trkpt>
      <trkpt lat="46.55599" lon="5.60353">
        <ele>514.6</ele>
        <time>2022-03-07T11:43:27Z</time>
      </trkpt>
      <trkpt lat="46.55603" lon="5.60353">
        <ele>514.6</ele>
        <time>2022-03-07T11:43:28Z</time>
      </trkpt>
      <trkpt lat="46.55607" lon="5.60353">
        <ele>514.6</ele>
        <time>2022-03-07T11:43:29Z</time>
      </trkpt>
      <trkpt lat="46.55611" lon="5.60354">
        <ele>514.6</ele>
        <time>2022-03-07T11:43:30Z</time>
      </trkpt>
      <trkpt lat="46.55614" lon="5.60354">
        <ele>514.8</ele>
        <time>2022-03-07T11:43:31Z</time>
      </trkpt>
      <trkpt lat="46.55618" lon="5.60355">
        <ele>514.8</ele>
        <time>2022-03-07T11:43:32Z</time>
      </trkpt>
      <trkpt lat="46.55621" lon="5.60355">
        <ele>514.8</ele>
        <time>2022-03-07T11:43:33Z</time>
      </trkpt>
      <trkpt lat="46.55625" lon="5.60355">
        <ele>514.8</ele>
        <time>2022-03-07T11:43:34Z</time>
      </trkpt>
      <trkpt lat="46.55629" lon="5.60355">
        <ele>514.8</ele>
        <time>2022-03-07T11:43:35Z</time>
      </trkpt>
      <trkpt lat="46.55632" lon="5.60355">
        <ele>515.2</ele>
        <time>2022-03-07T11:43:36Z</time>
      </trkpt>
      <trkpt lat="46.55635" lon="5.60356">
        <ele>515.2</ele>
        <time>2022-03-07T11:43:37Z</time>
      </trkpt>
      <trkpt lat="46.55639" lon="5.60357">
        <ele>515.4</ele>
        <time>2022-03-07T11:43:38Z</time>
      </trkpt>
      <trkpt lat="46.55642" lon="5.60358">
        <ele>515.4</ele>
        <time>2022-03-07T11:43:39Z</time>
      </trkpt>
      <trkpt lat="46.55646" lon="5.6036">
        <ele>515.4</ele>
        <time>2022-03-07T11:43:40Z</time>
      </trkpt>
      <trkpt lat="46.5565" lon="5.60361">
        <ele>515.6</ele>
        <time>2022-03-07T11:43:41Z</time>
      </trkpt>
      <trkpt lat="46.55653" lon="5.60363">
        <ele>515.6</ele>
        <time>2022-03-07T11:43:42Z</time>
      </trkpt>
      <trkpt lat="46.55656" lon="5.60366">
        <ele>515.6</ele>
        <time>2022-03-07T11:43:43Z</time>
      </trkpt>
      <trkpt lat="46.55659" lon="5.60369">
        <ele>515.8</ele>
        <time>2022-03-07T11:43:44Z</time>
      </trkpt>
      <trkpt lat="46.55663" lon="5.60372">
        <ele>515.8</ele>
        <time>2022-03-07T11:43:45Z</time>
      </trkpt>
      <trkpt lat="46.55666" lon="5.60375">
        <ele>516.2</ele>
        <time>2022-03-07T11:43:46Z</time>
      </trkpt>
      <trkpt lat="46.55669" lon="5.60378">
        <ele>516.2</ele>
        <time>2022-03-07T11:43:47Z</time>
      </trkpt>
      <trkpt lat="46.55672" lon="5.60381">
        <ele>516.4</ele>
        <time>2022-03-07T11:43:48Z</time>
      </trkpt>
      <trkpt lat="46.55675" lon="5.60384">
        <ele>516.4</ele>
        <time>2022-03-07T11:43:49Z</time>
      </trkpt>
      <trkpt lat="46.55678" lon="5.60388">
        <ele>516.4</ele>
        <time>2022-03-07T11:43:50Z</time>
      </trkpt>
      <trkpt lat="46.55681" lon="5.60391">
        <ele>516.4</ele>
        <time>2022-03-07T11:43:51Z</time>
      </trkpt>
      <trkpt lat="46.55683" lon="5.60394">
        <ele>516.8</ele>
        <time>2022-03-07T11:43:52Z</time>
      </trkpt>
      <trkpt lat="46.55686" lon="5.60398">
        <ele>516.8</ele>
        <time>2022-03-07T11:43:53Z</time>
      </trkpt>
      <trkpt lat="46.55688" lon="5.60402">
        <ele>517</ele>
        <time>2022-03-07T11:43:54Z</time>
      </trkpt>
      <trkpt lat="46.5569" lon="5.60406">
        <ele>517</ele>
        <time>2022-03-07T11:43:55Z</time>
      </trkpt>
      <trkpt lat="46.55693" lon="5.60411">
        <ele>517</ele>
        <time>2022-03-07T11:43:56Z</time>
      </trkpt>
      <trkpt lat="46.55695" lon="5.60415">
        <ele>517</ele>
        <time>2022-03-07T11:43:57Z</time>
      </trkpt>
      <trkpt lat="46.55697" lon="5.60419">
        <ele>517</ele>
        <time>2022-03-07T11:43:58Z</time>
      </trkpt>
      <trkpt lat="46.55699" lon="5.60423">
        <ele>517.2</ele>
        <time>2022-03-07T11:43:59Z</time>
      </trkpt>
      <trkpt lat="46.557" lon="5.60428">
        <ele>517.2</ele>
        <time>2022-03-07T11:44:00Z</time>
      </trkpt>
      <trkpt lat="46.55702" lon="5.60432">
        <ele>517.2</ele>
        <time>2022-03-07T11:44:01Z</time>
      </trkpt>
      <trkpt lat="46.55704" lon="5.60437">
        <ele>517.4</ele>
        <time>2022-03-07T11:44:02Z</time>
      </trkpt>
      <trkpt lat="46.55706" lon="5.60441">
        <ele>517.4</ele>
        <time>2022-03-07T11:44:03Z</time>
      </trkpt>
      <trkpt lat="46.55708" lon="5.60446">
        <ele>517.8</ele>
        <time>2022-03-07T11:44:04Z</time>
      </trkpt>
      <trkpt lat="46.5571" lon="5.60451">
        <ele>517.8</ele>
        <time>2022-03-07T11:44:05Z</time>
      </trkpt>
      <trkpt lat="46.55712" lon="5.60455">
        <ele>518</ele>
        <time>2022-03-07T11:44:06Z</time>
      </trkpt>
      <trkpt lat="46.55714" lon="5.60459">
        <ele>518.2</ele>
        <time>2022-03-07T11:44:07Z</time>
      </trkpt>
      <trkpt lat="46.55716" lon="5.60464">
        <ele>518.2</ele>
        <time>2022-03-07T11:44:08Z</time>
      </trkpt>
      <trkpt lat="46.55718" lon="5.60468">
        <ele>518.2</ele>
        <time>2022-03-07T11:44:09Z</time>
      </trkpt>
      <trkpt lat="46.5572" lon="5.60472">
        <ele>518.6</ele>
        <time>2022-03-07T11:44:10Z</time>
      </trkpt>
      <trkpt lat="46.55722" lon="5.60476">
        <ele>518.6</ele>
        <time>2022-03-07T11:44:11Z</time>
      </trkpt>
      <trkpt lat="46.55724" lon="5.6048">
        <ele>518.8</ele>
        <time>2022-03-07T11:44:12Z</time>
      </trkpt>
      <trkpt lat="46.55726" lon="5.60484">
        <ele>518.8</ele>
        <time>2022-03-07T11:44:13Z</time>
      </trkpt>
      <trkpt lat="46.55728" lon="5.60487">
        <ele>519</ele>
        <time>2022-03-07T11:44:14Z</time>
      </trkpt>
      <trkpt lat="46.5573" lon="5.60491">
        <ele>519</ele>
        <time>2022-03-07T11:44:15Z</time>
      </trkpt>
      <trkpt lat="46.55733" lon="5.60495">
        <ele>519.2</ele>
        <time>2022-03-07T11:44:16Z</time>
      </trkpt>
      <trkpt lat="46.55735" lon="5.60499">
        <ele>519.2</ele>
        <time>2022-03-07T11:44:17Z</time>
      </trkpt>
      <trkpt lat="46.55737" lon="5.60502">
        <ele>519.2</ele>
        <time>2022-03-07T11:44:18Z</time>
      </trkpt>
      <trkpt lat="46.5574" lon="5.60505">
        <ele>519.2</ele>
        <time>2022-03-07T11:44:19Z</time>
      </trkpt>
      <trkpt lat="46.55743" lon="5.60509">
        <ele>519.6</ele>
        <time>2022-03-07T11:44:20Z</time>
      </trkpt>
      <trkpt lat="46.55745" lon="5.60511">
        <ele>519.6</ele>
        <time>2022-03-07T11:44:21Z</time>
      </trkpt>
      <trkpt lat="46.55748" lon="5.60514">
        <ele>519.6</ele>
        <time>2022-03-07T11:44:22Z</time>
      </trkpt>
      <trkpt lat="46.55751" lon="5.60516">
        <ele>519.8</ele>
        <time>2022-03-07T11:44:23Z</time>
      </trkpt>
      <trkpt lat="46.55755" lon="5.60518">
        <ele>519.8</ele>
        <time>2022-03-07T11:44:24Z</time>
      </trkpt>
      <trkpt lat="46.55758" lon="5.6052">
        <ele>520</ele>
        <time>2022-03-07T11:44:25Z</time>
      </trkpt>
      <trkpt lat="46.5576" lon="5.60522">
        <ele>520</ele>
        <time>2022-03-07T11:44:26Z</time>
      </trkpt>
      <trkpt lat="46.55764" lon="5.60523">
        <ele>520.2</ele>
        <time>2022-03-07T11:44:27Z</time>
      </trkpt>
      <trkpt lat="46.55767" lon="5.60524">
        <ele>520.2</ele>
        <time>2022-03-07T11:44:28Z</time>
      </trkpt>
      <trkpt lat="46.5577" lon="5.60526">
        <ele>520.2</ele>
        <time>2022-03-07T11:44:29Z</time>
      </trkpt>
      <trkpt lat="46.55773" lon="5.60527">
        <ele>520.6</ele>
        <time>2022-03-07T11:44:30Z</time>
      </trkpt>
      <trkpt lat="46.55777" lon="5.60529">
        <ele>520.6</ele>
        <time>2022-03-07T11:44:31Z</time>
      </trkpt>
      <trkpt lat="46.5578" lon="5.6053">
        <ele>520.6</ele>
        <time>2022-03-07T11:44:32Z</time>
      </trkpt>
      <trkpt lat="46.55783" lon="5.60531">
        <ele>520.6</ele>
        <time>2022-03-07T11:44:33Z</time>
      </trkpt>
      <trkpt lat="46.55786" lon="5.60532">
        <ele>520.8</ele>
        <time>2022-03-07T11:44:34Z</time>
      </trkpt>
      <trkpt lat="46.5579" lon="5.60532">
        <ele>520.8</ele>
        <time>2022-03-07T11:44:35Z</time>
      </trkpt>
      <trkpt lat="46.55793" lon="5.60533">
        <ele>521</ele>
        <time>2022-03-07T11:44:36Z</time>
      </trkpt>
      <trkpt lat="46.55796" lon="5.60534">
        <ele>521</ele>
        <time>2022-03-07T11:44:37Z</time>
      </trkpt>
      <trkpt lat="46.558" lon="5.60534">
        <ele>521</ele>
        <time>2022-03-07T11:44:38Z</time>
      </trkpt>
      <trkpt lat="46.55803" lon="5.60535">
        <ele>521</ele>
        <time>2022-03-07T11:44:39Z</time>
      </trkpt>
      <trkpt lat="46.55806" lon="5.60536">
        <ele>520.8</ele>
        <time>2022-03-07T11:44:40Z</time>
      </trkpt>
      <trkpt lat="46.55809" lon="5.60536">
        <ele>520.8</ele>
        <time>2022-03-07T11:44:41Z</time>
      </trkpt>
      <trkpt lat="46.55812" lon="5.60536">
        <ele>520.8</ele>
        <time>2022-03-07T11:44:42Z</time>
      </trkpt>
      <trkpt lat="46.55816" lon="5.60537">
        <ele>520.8</ele>
        <time>2022-03-07T11:44:43Z</time>
      </trkpt>
      <trkpt lat="46.55819" lon="5.60538">
        <ele>520.8</ele>
        <time>2022-03-07T11:44:44Z</time>
      </trkpt>
      <trkpt lat="46.55822" lon="5.6054">
        <ele>521.2</ele>
        <time>2022-03-07T11:44:45Z</time>
      </trkpt>
      <trkpt lat="46.55826" lon="5.60541">
        <ele>521.2</ele>
        <time>2022-03-07T11:44:46Z</time>
      </trkpt>
      <trkpt lat="46.55829" lon="5.60542">
        <ele>521.2</ele>
        <time>2022-03-07T11:44:47Z</time>
      </trkpt>
      <trkpt lat="46.55832" lon="5.60543">
        <ele>521.2</ele>
        <time>2022-03-07T11:44:48Z</time>
      </trkpt>
      <trkpt lat="46.55836" lon="5.60544">
        <ele>521.2</ele>
        <time>2022-03-07T11:44:49Z</time>
      </trkpt>
      <trkpt lat="46.55839" lon="5.60545">
        <ele>521.4</ele>
        <time>2022-03-07T11:44:50Z</time>
      </trkpt>
      <trkpt lat="46.55842" lon="5.60546">
        <ele>521.4</ele>
        <time>2022-03-07T11:44:51Z</time>
      </trkpt>
      <trkpt lat="46.55845" lon="5.60548">
        <ele>521.6</ele>
        <time>2022-03-07T11:44:52Z</time>
      </trkpt>
      <trkpt lat="46.55848" lon="5.6055">
        <ele>521.6</ele>
        <time>2022-03-07T11:44:53Z</time>
      </trkpt>
      <trkpt lat="46.55851" lon="5.60551">
        <ele>521.8</ele>
        <time>2022-03-07T11:44:54Z</time>
      </trkpt>
      <trkpt lat="46.55854" lon="5.60553">
        <ele>521.8</ele>
        <time>2022-03-07T11:44:55Z</time>
      </trkpt>
      <trkpt lat="46.55857" lon="5.60555">
        <ele>521.8</ele>
        <time>2022-03-07T11:44:56Z</time>
      </trkpt>
      <trkpt lat="46.5586" lon="5.60558">
        <ele>522.2</ele>
        <time>2022-03-07T11:44:57Z</time>
      </trkpt>
      <trkpt lat="46.55862" lon="5.6056">
        <ele>522.2</ele>
        <time>2022-03-07T11:44:58Z</time>
      </trkpt>
      <trkpt lat="46.55865" lon="5.60562">
        <ele>522.4</ele>
        <time>2022-03-07T11:44:59Z</time>
      </trkpt>
      <trkpt lat="46.55867" lon="5.60565">
        <ele>522.4</ele>
        <time>2022-03-07T11:45:00Z</time>
      </trkpt>
      <trkpt lat="46.55867" lon="5.60565">
        <ele>522.4</ele>
        <time>2022-03-07T11:45:01Z</time>
      </trkpt>
      <trkpt lat="46.5587" lon="5.60568">
        <ele>522.4</ele>
        <time>2022-03-07T11:45:02Z</time>
      </trkpt>
      <trkpt lat="46.55872" lon="5.60571">
        <ele>522.4</ele>
        <time>2022-03-07T11:45:03Z</time>
      </trkpt>
      <trkpt lat="46.55875" lon="5.60574">
        <ele>522.6</ele>
        <time>2022-03-07T11:45:04Z</time>
      </trkpt>
      <trkpt lat="46.55877" lon="5.60578">
        <ele>522.6</ele>
        <time>2022-03-07T11:45:05Z</time>
      </trkpt>
      <trkpt lat="46.55879" lon="5.60582">
        <ele>522.6</ele>
        <time>2022-03-07T11:45:06Z</time>
      </trkpt>
      <trkpt lat="46.55881" lon="5.60586">
        <ele>522.6</ele>
        <time>2022-03-07T11:45:07Z</time>
      </trkpt>
      <trkpt lat="46.55883" lon="5.6059">
        <ele>522.8</ele>
        <time>2022-03-07T11:45:08Z</time>
      </trkpt>
      <trkpt lat="46.55885" lon="5.60594">
        <ele>522.8</ele>
        <time>2022-03-07T11:45:09Z</time>
      </trkpt>
      <trkpt lat="46.55887" lon="5.60598">
        <ele>523.2</ele>
        <time>2022-03-07T11:45:10Z</time>
      </trkpt>
      <trkpt lat="46.55888" lon="5.60603">
        <ele>523.2</ele>
        <time>2022-03-07T11:45:11Z</time>
      </trkpt>
      <trkpt lat="46.5589" lon="5.60607">
        <ele>523.4</ele>
        <time>2022-03-07T11:45:12Z</time>
      </trkpt>
      <trkpt lat="46.55891" lon="5.60612">
        <ele>523.4</ele>
        <time>2022-03-07T11:45:13Z</time>
      </trkpt>
      <trkpt lat="46.55892" lon="5.60617">
        <ele>523.4</ele>
        <time>2022-03-07T11:45:14Z</time>
      </trkpt>
      <trkpt lat="46.55893" lon="5.60622">
        <ele>523.6</ele>
        <time>2022-03-07T11:45:15Z</time>
      </trkpt>
      <trkpt lat="46.55894" lon="5.60627">
        <ele>523.6</ele>
        <time>2022-03-07T11:45:16Z</time>
      </trkpt>
      <trkpt lat="46.55896" lon="5.60632">
        <ele>523.6</ele>
        <time>2022-03-07T11:45:17Z</time>
      </trkpt>
      <trkpt lat="46.55897" lon="5.60637">
        <ele>523.8</ele>
        <time>2022-03-07T11:45:18Z</time>
      </trkpt>
      <trkpt lat="46.55898" lon="5.60641">
        <ele>523.8</ele>
        <time>2022-03-07T11:45:19Z</time>
      </trkpt>
      <trkpt lat="46.55899" lon="5.60646">
        <ele>524</ele>
        <time>2022-03-07T11:45:20Z</time>
      </trkpt>
      <trkpt lat="46.559" lon="5.60651">
        <ele>524</ele>
        <time>2022-03-07T11:45:21Z</time>
      </trkpt>
      <trkpt lat="46.55901" lon="5.60656">
        <ele>524.2</ele>
        <time>2022-03-07T11:45:22Z</time>
      </trkpt>
      <trkpt lat="46.55902" lon="5.60661">
        <ele>524.2</ele>
        <time>2022-03-07T11:45:23Z</time>
      </trkpt>
      <trkpt lat="46.55904" lon="5.60666">
        <ele>524.2</ele>
        <time>2022-03-07T11:45:24Z</time>
      </trkpt>
      <trkpt lat="46.55905" lon="5.60671">
        <ele>524.4</ele>
        <time>2022-03-07T11:45:25Z</time>
      </trkpt>
      <trkpt lat="46.55906" lon="5.60676">
        <ele>524.4</ele>
        <time>2022-03-07T11:45:26Z</time>
      </trkpt>
      <trkpt lat="46.55906" lon="5.60681">
        <ele>524.4</ele>
        <time>2022-03-07T11:45:27Z</time>
      </trkpt>
      <trkpt lat="46.55908" lon="5.60685">
        <ele>524.8</ele>
        <time>2022-03-07T11:45:28Z</time>
      </trkpt>
      <trkpt lat="46.55909" lon="5.60691">
        <ele>524.8</ele>
        <time>2022-03-07T11:45:29Z</time>
      </trkpt>
      <trkpt lat="46.5591" lon="5.60696">
        <ele>525</ele>
        <time>2022-03-07T11:45:30Z</time>
      </trkpt>
      <trkpt lat="46.55911" lon="5.60701">
        <ele>525</ele>
        <time>2022-03-07T11:45:31Z</time>
      </trkpt>
      <trkpt lat="46.55912" lon="5.60706">
        <ele>525</ele>
        <time>2022-03-07T11:45:32Z</time>
      </trkpt>
      <trkpt lat="46.55914" lon="5.6071">
        <ele>525.2</ele>
        <time>2022-03-07T11:45:33Z</time>
      </trkpt>
      <trkpt lat="46.55915" lon="5.60715">
        <ele>525.2</ele>
        <time>2022-03-07T11:45:34Z</time>
      </trkpt>
      <trkpt lat="46.55916" lon="5.6072">
        <ele>525.2</ele>
        <time>2022-03-07T11:45:35Z</time>
      </trkpt>
      <trkpt lat="46.55917" lon="5.60725">
        <ele>525.6</ele>
        <time>2022-03-07T11:45:36Z</time>
      </trkpt>
      <trkpt lat="46.55918" lon="5.6073">
        <ele>525.6</ele>
        <time>2022-03-07T11:45:37Z</time>
      </trkpt>
      <trkpt lat="46.55919" lon="5.60734">
        <ele>525.6</ele>
        <time>2022-03-07T11:45:38Z</time>
      </trkpt>
      <trkpt lat="46.5592" lon="5.60739">
        <ele>525.8</ele>
        <time>2022-03-07T11:45:39Z</time>
      </trkpt>
      <trkpt lat="46.55921" lon="5.60744">
        <ele>525.8</ele>
        <time>2022-03-07T11:45:40Z</time>
      </trkpt>
      <trkpt lat="46.55922" lon="5.60749">
        <ele>525.8</ele>
        <time>2022-03-07T11:45:41Z</time>
      </trkpt>
      <trkpt lat="46.55923" lon="5.60754">
        <ele>526</ele>
        <time>2022-03-07T11:45:42Z</time>
      </trkpt>
      <trkpt lat="46.55924" lon="5.60759">
        <ele>526</ele>
        <time>2022-03-07T11:45:43Z</time>
      </trkpt>
      <trkpt lat="46.55924" lon="5.60764">
        <ele>526</ele>
        <time>2022-03-07T11:45:44Z</time>
      </trkpt>
      <trkpt lat="46.55925" lon="5.60769">
        <ele>526</ele>
        <time>2022-03-07T11:45:45Z</time>
      </trkpt>
      <trkpt lat="46.55925" lon="5.60774">
        <ele>526</ele>
        <time>2022-03-07T11:45:46Z</time>
      </trkpt>
      <trkpt lat="46.55926" lon="5.60779">
        <ele>526.2</ele>
        <time>2022-03-07T11:45:47Z</time>
      </trkpt>
      <trkpt lat="46.55926" lon="5.60784">
        <ele>526.2</ele>
        <time>2022-03-07T11:45:48Z</time>
      </trkpt>
      <trkpt lat="46.55927" lon="5.6079">
        <ele>526.2</ele>
        <time>2022-03-07T11:45:49Z</time>
      </trkpt>
      <trkpt lat="46.55927" lon="5.60795">
        <ele>526.2</ele>
        <time>2022-03-07T11:45:50Z</time>
      </trkpt>
      <trkpt lat="46.55927" lon="5.60801">
        <ele>526.6</ele>
        <time>2022-03-07T11:45:51Z</time>
      </trkpt>
      <trkpt lat="46.55928" lon="5.60807">
        <ele>526.6</ele>
        <time>2022-03-07T11:45:52Z</time>
      </trkpt>
      <trkpt lat="46.55928" lon="5.60812">
        <ele>526.6</ele>
        <time>2022-03-07T11:45:53Z</time>
      </trkpt>
      <trkpt lat="46.55929" lon="5.60818">
        <ele>526.6</ele>
        <time>2022-03-07T11:45:54Z</time>
      </trkpt>
      <trkpt lat="46.55929" lon="5.60824">
        <ele>526.8</ele>
        <time>2022-03-07T11:45:55Z</time>
      </trkpt>
      <trkpt lat="46.5593" lon="5.6083">
        <ele>526.8</ele>
        <time>2022-03-07T11:45:56Z</time>
      </trkpt>
      <trkpt lat="46.5593" lon="5.60836">
        <ele>526.8</ele>
        <time>2022-03-07T11:45:57Z</time>
      </trkpt>
      <trkpt lat="46.5593" lon="5.60842">
        <ele>527</ele>
        <time>2022-03-07T11:45:58Z</time>
      </trkpt>
      <trkpt lat="46.5593" lon="5.60848">
        <ele>527</ele>
        <time>2022-03-07T11:45:59Z</time>
      </trkpt>
      <trkpt lat="46.55931" lon="5.60855">
        <ele>527</ele>
        <time>2022-03-07T11:46:00Z</time>
      </trkpt>
      <trkpt lat="46.55931" lon="5.60861">
        <ele>527</ele>
        <time>2022-03-07T11:46:01Z</time>
      </trkpt>
      <trkpt lat="46.55931" lon="5.60868">
        <ele>527</ele>
        <time>2022-03-07T11:46:02Z</time>
      </trkpt>
      <trkpt lat="46.55932" lon="5.60874">
        <ele>527</ele>
        <time>2022-03-07T11:46:03Z</time>
      </trkpt>
      <trkpt lat="46.55933" lon="5.60881">
        <ele>527</ele>
        <time>2022-03-07T11:46:04Z</time>
      </trkpt>
      <trkpt lat="46.55934" lon="5.60888">
        <ele>527</ele>
        <time>2022-03-07T11:46:05Z</time>
      </trkpt>
      <trkpt lat="46.55935" lon="5.60895">
        <ele>526.8</ele>
        <time>2022-03-07T11:46:06Z</time>
      </trkpt>
      <trkpt lat="46.55936" lon="5.60902">
        <ele>526.8</ele>
        <time>2022-03-07T11:46:07Z</time>
      </trkpt>
      <trkpt lat="46.55938" lon="5.60909">
        <ele>526.8</ele>
        <time>2022-03-07T11:46:08Z</time>
      </trkpt>
      <trkpt lat="46.55939" lon="5.60916">
        <ele>526.8</ele>
        <time>2022-03-07T11:46:09Z</time>
      </trkpt>
      <trkpt lat="46.55941" lon="5.60923">
        <ele>526.4</ele>
        <time>2022-03-07T11:46:10Z</time>
      </trkpt>
      <trkpt lat="46.55942" lon="5.6093">
        <ele>526.4</ele>
        <time>2022-03-07T11:46:11Z</time>
      </trkpt>
      <trkpt lat="46.55944" lon="5.60937">
        <ele>526.4</ele>
        <time>2022-03-07T11:46:12Z</time>
      </trkpt>
      <trkpt lat="46.55946" lon="5.60944">
        <ele>526.4</ele>
        <time>2022-03-07T11:46:13Z</time>
      </trkpt>
      <trkpt lat="46.55948" lon="5.6095">
        <ele>526.2</ele>
        <time>2022-03-07T11:46:14Z</time>
      </trkpt>
      <trkpt lat="46.5595" lon="5.60957">
        <ele>526.2</ele>
        <time>2022-03-07T11:46:15Z</time>
      </trkpt>
      <trkpt lat="46.55951" lon="5.60964">
        <ele>526</ele>
        <time>2022-03-07T11:46:16Z</time>
      </trkpt>
      <trkpt lat="46.55953" lon="5.60971">
        <ele>526</ele>
        <time>2022-03-07T11:46:17Z</time>
      </trkpt>
      <trkpt lat="46.55954" lon="5.60978">
        <ele>525.8</ele>
        <time>2022-03-07T11:46:18Z</time>
      </trkpt>
      <trkpt lat="46.55956" lon="5.60986">
        <ele>525.8</ele>
        <time>2022-03-07T11:46:19Z</time>
      </trkpt>
      <trkpt lat="46.55958" lon="5.60993">
        <ele>525.8</ele>
        <time>2022-03-07T11:46:20Z</time>
      </trkpt>
      <trkpt lat="46.55959" lon="5.61">
        <ele>525.6</ele>
        <time>2022-03-07T11:46:21Z</time>
      </trkpt>
      <trkpt lat="46.55961" lon="5.61008">
        <ele>525.6</ele>
        <time>2022-03-07T11:46:22Z</time>
      </trkpt>
      <trkpt lat="46.55963" lon="5.61015">
        <ele>525.6</ele>
        <time>2022-03-07T11:46:23Z</time>
      </trkpt>
      <trkpt lat="46.55965" lon="5.61022">
        <ele>525.6</ele>
        <time>2022-03-07T11:46:24Z</time>
      </trkpt>
      <trkpt lat="46.55967" lon="5.61029">
        <ele>525.6</ele>
        <time>2022-03-07T11:46:25Z</time>
      </trkpt>
      <trkpt lat="46.55969" lon="5.61036">
        <ele>525.6</ele>
        <time>2022-03-07T11:46:26Z</time>
      </trkpt>
      <trkpt lat="46.55971" lon="5.61043">
        <ele>525.6</ele>
        <time>2022-03-07T11:46:27Z</time>
      </trkpt>
      <trkpt lat="46.55973" lon="5.6105">
        <ele>525.6</ele>
        <time>2022-03-07T11:46:28Z</time>
      </trkpt>
      <trkpt lat="46.55974" lon="5.61057">
        <ele>525.6</ele>
        <time>2022-03-07T11:46:29Z</time>
      </trkpt>
      <trkpt lat="46.55976" lon="5.61063">
        <ele>525.6</ele>
        <time>2022-03-07T11:46:30Z</time>
      </trkpt>
      <trkpt lat="46.55978" lon="5.61069">
        <ele>525.6</ele>
        <time>2022-03-07T11:46:31Z</time>
      </trkpt>
      <trkpt lat="46.5598" lon="5.61074">
        <ele>525.6</ele>
        <time>2022-03-07T11:46:32Z</time>
      </trkpt>
      <trkpt lat="46.55982" lon="5.6108">
        <ele>525.6</ele>
        <time>2022-03-07T11:46:33Z</time>
      </trkpt>
      <trkpt lat="46.55984" lon="5.61085">
        <ele>525.6</ele>
        <time>2022-03-07T11:46:34Z</time>
      </trkpt>
      <trkpt lat="46.55986" lon="5.61091">
        <ele>525.6</ele>
        <time>2022-03-07T11:46:35Z</time>
      </trkpt>
      <trkpt lat="46.55989" lon="5.61096">
        <ele>525.6</ele>
        <time>2022-03-07T11:46:36Z</time>
      </trkpt>
      <trkpt lat="46.55991" lon="5.61102">
        <ele>525.6</ele>
        <time>2022-03-07T11:46:37Z</time>
      </trkpt>
      <trkpt lat="46.55993" lon="5.61108">
        <ele>525.6</ele>
        <time>2022-03-07T11:46:38Z</time>
      </trkpt>
      <trkpt lat="46.55996" lon="5.61114">
        <ele>525.6</ele>
        <time>2022-03-07T11:46:39Z</time>
      </trkpt>
      <trkpt lat="46.55999" lon="5.6112">
        <ele>525.6</ele>
        <time>2022-03-07T11:46:40Z</time>
      </trkpt>
      <trkpt lat="46.56002" lon="5.61125">
        <ele>525.6</ele>
        <time>2022-03-07T11:46:41Z</time>
      </trkpt>
      <trkpt lat="46.56005" lon="5.61131">
        <ele>525.2</ele>
        <time>2022-03-07T11:46:42Z</time>
      </trkpt>
      <trkpt lat="46.56008" lon="5.61137">
        <ele>525.2</ele>
        <time>2022-03-07T11:46:43Z</time>
      </trkpt>
      <trkpt lat="46.56011" lon="5.61144">
        <ele>525</ele>
        <time>2022-03-07T11:46:44Z</time>
      </trkpt>
      <trkpt lat="46.56014" lon="5.6115">
        <ele>525</ele>
        <time>2022-03-07T11:46:45Z</time>
      </trkpt>
      <trkpt lat="46.56017" lon="5.61156">
        <ele>524.6</ele>
        <time>2022-03-07T11:46:46Z</time>
      </trkpt>
      <trkpt lat="46.5602" lon="5.61163">
        <ele>524.6</ele>
        <time>2022-03-07T11:46:47Z</time>
      </trkpt>
      <trkpt lat="46.56023" lon="5.61169">
        <ele>524.6</ele>
        <time>2022-03-07T11:46:48Z</time>
      </trkpt>
      <trkpt lat="46.56026" lon="5.61176">
        <ele>524.4</ele>
        <time>2022-03-07T11:46:49Z</time>
      </trkpt>
      <trkpt lat="46.5603" lon="5.61183">
        <ele>524.4</ele>
        <time>2022-03-07T11:46:50Z</time>
      </trkpt>
      <trkpt lat="46.56033" lon="5.6119">
        <ele>524.4</ele>
        <time>2022-03-07T11:46:51Z</time>
      </trkpt>
      <trkpt lat="46.56037" lon="5.61197">
        <ele>524.4</ele>
        <time>2022-03-07T11:46:52Z</time>
      </trkpt>
      <trkpt lat="46.5604" lon="5.61204">
        <ele>524</ele>
        <time>2022-03-07T11:46:53Z</time>
      </trkpt>
      <trkpt lat="46.56044" lon="5.61211">
        <ele>524</ele>
        <time>2022-03-07T11:46:54Z</time>
      </trkpt>
      <trkpt lat="46.56047" lon="5.61218">
        <ele>524</ele>
        <time>2022-03-07T11:46:55Z</time>
      </trkpt>
      <trkpt lat="46.56051" lon="5.61226">
        <ele>524</ele>
        <time>2022-03-07T11:46:56Z</time>
      </trkpt>
      <trkpt lat="46.56054" lon="5.61233">
        <ele>523.8</ele>
        <time>2022-03-07T11:46:57Z</time>
      </trkpt>
      <trkpt lat="46.56058" lon="5.6124">
        <ele>523.6</ele>
        <time>2022-03-07T11:46:58Z</time>
      </trkpt>
      <trkpt lat="46.56062" lon="5.61247">
        <ele>523.6</ele>
        <time>2022-03-07T11:46:59Z</time>
      </trkpt>
      <trkpt lat="46.56066" lon="5.61255">
        <ele>523.2</ele>
        <time>2022-03-07T11:47:00Z</time>
      </trkpt>
      <trkpt lat="46.5607" lon="5.61262">
        <ele>523</ele>
        <time>2022-03-07T11:47:01Z</time>
      </trkpt>
      <trkpt lat="46.56073" lon="5.6127">
        <ele>523</ele>
        <time>2022-03-07T11:47:02Z</time>
      </trkpt>
      <trkpt lat="46.56077" lon="5.61278">
        <ele>523</ele>
        <time>2022-03-07T11:47:03Z</time>
      </trkpt>
      <trkpt lat="46.56081" lon="5.61285">
        <ele>522.8</ele>
        <time>2022-03-07T11:47:04Z</time>
      </trkpt>
      <trkpt lat="46.56084" lon="5.61293">
        <ele>522.8</ele>
        <time>2022-03-07T11:47:05Z</time>
      </trkpt>
      <trkpt lat="46.56088" lon="5.61301">
        <ele>522.6</ele>
        <time>2022-03-07T11:47:06Z</time>
      </trkpt>
      <trkpt lat="46.56091" lon="5.61308">
        <ele>522.6</ele>
        <time>2022-03-07T11:47:07Z</time>
      </trkpt>
      <trkpt lat="46.56095" lon="5.61316">
        <ele>522.4</ele>
        <time>2022-03-07T11:47:08Z</time>
      </trkpt>
      <trkpt lat="46.56099" lon="5.61324">
        <ele>522.4</ele>
        <time>2022-03-07T11:47:09Z</time>
      </trkpt>
      <trkpt lat="46.56103" lon="5.61331">
        <ele>522.4</ele>
        <time>2022-03-07T11:47:10Z</time>
      </trkpt>
      <trkpt lat="46.56107" lon="5.61339">
        <ele>522</ele>
        <time>2022-03-07T11:47:11Z</time>
      </trkpt>
      <trkpt lat="46.5611" lon="5.61346">
        <ele>522</ele>
        <time>2022-03-07T11:47:12Z</time>
      </trkpt>
      <trkpt lat="46.56114" lon="5.61354">
        <ele>522</ele>
        <time>2022-03-07T11:47:13Z</time>
      </trkpt>
      <trkpt lat="46.56117" lon="5.61361">
        <ele>521.8</ele>
        <time>2022-03-07T11:47:14Z</time>
      </trkpt>
      <trkpt lat="46.56121" lon="5.61368">
        <ele>521.8</ele>
        <time>2022-03-07T11:47:15Z</time>
      </trkpt>
      <trkpt lat="46.56124" lon="5.61375">
        <ele>521.8</ele>
        <time>2022-03-07T11:47:16Z</time>
      </trkpt>
      <trkpt lat="46.56128" lon="5.61382">
        <ele>521.6</ele>
        <time>2022-03-07T11:47:17Z</time>
      </trkpt>
      <trkpt lat="46.56131" lon="5.61389">
        <ele>521.6</ele>
        <time>2022-03-07T11:47:18Z</time>
      </trkpt>
      <trkpt lat="46.56135" lon="5.61396">
        <ele>521.6</ele>
        <time>2022-03-07T11:47:19Z</time>
      </trkpt>
      <trkpt lat="46.56139" lon="5.61403">
        <ele>521.4</ele>
        <time>2022-03-07T11:47:20Z</time>
      </trkpt>
      <trkpt lat="46.56142" lon="5.61409">
        <ele>521.4</ele>
        <time>2022-03-07T11:47:21Z</time>
      </trkpt>
      <trkpt lat="46.56146" lon="5.61416">
        <ele>521.4</ele>
        <time>2022-03-07T11:47:22Z</time>
      </trkpt>
      <trkpt lat="46.56149" lon="5.61423">
        <ele>521.4</ele>
        <time>2022-03-07T11:47:23Z</time>
      </trkpt>
      <trkpt lat="46.56152" lon="5.61429">
        <ele>521.4</ele>
        <time>2022-03-07T11:47:24Z</time>
      </trkpt>
      <trkpt lat="46.56154" lon="5.61436">
        <ele>521.4</ele>
        <time>2022-03-07T11:47:25Z</time>
      </trkpt>
      <trkpt lat="46.56157" lon="5.61442">
        <ele>521.4</ele>
        <time>2022-03-07T11:47:26Z</time>
      </trkpt>
      <trkpt lat="46.5616" lon="5.61448">
        <ele>521.4</ele>
        <time>2022-03-07T11:47:27Z</time>
      </trkpt>
      <trkpt lat="46.56163" lon="5.61455">
        <ele>521.4</ele>
        <time>2022-03-07T11:47:28Z</time>
      </trkpt>
      <trkpt lat="46.56166" lon="5.61461">
        <ele>521.4</ele>
        <time>2022-03-07T11:47:29Z</time>
      </trkpt>
      <trkpt lat="46.56169" lon="5.61467">
        <ele>521.4</ele>
        <time>2022-03-07T11:47:30Z</time>
      </trkpt>
      <trkpt lat="46.56172" lon="5.61473">
        <ele>521.4</ele>
        <time>2022-03-07T11:47:31Z</time>
      </trkpt>
      <trkpt lat="46.56175" lon="5.61479">
        <ele>521.4</ele>
        <time>2022-03-07T11:47:32Z</time>
      </trkpt>
      <trkpt lat="46.56178" lon="5.61485">
        <ele>521.4</ele>
        <time>2022-03-07T11:47:33Z</time>
      </trkpt>
      <trkpt lat="46.56181" lon="5.61491">
        <ele>521.4</ele>
        <time>2022-03-07T11:47:34Z</time>
      </trkpt>
      <trkpt lat="46.56183" lon="5.61497">
        <ele>521.4</ele>
        <time>2022-03-07T11:47:35Z</time>
      </trkpt>
      <trkpt lat="46.56186" lon="5.61502">
        <ele>521.4</ele>
        <time>2022-03-07T11:47:36Z</time>
      </trkpt>
      <trkpt lat="46.56189" lon="5.61508">
        <ele>521.4</ele>
        <time>2022-03-07T11:47:37Z</time>
      </trkpt>
      <trkpt lat="46.56192" lon="5.61514">
        <ele>521.4</ele>
        <time>2022-03-07T11:47:38Z</time>
      </trkpt>
      <trkpt lat="46.56195" lon="5.6152">
        <ele>521.2</ele>
        <time>2022-03-07T11:47:39Z</time>
      </trkpt>
      <trkpt lat="46.56198" lon="5.61526">
        <ele>521.2</ele>
        <time>2022-03-07T11:47:40Z</time>
      </trkpt>
      <trkpt lat="46.56201" lon="5.61532">
        <ele>521.2</ele>
        <time>2022-03-07T11:47:41Z</time>
      </trkpt>
      <trkpt lat="46.56204" lon="5.61538">
        <ele>521.2</ele>
        <time>2022-03-07T11:47:42Z</time>
      </trkpt>
      <trkpt lat="46.56206" lon="5.61544">
        <ele>521.2</ele>
        <time>2022-03-07T11:47:43Z</time>
      </trkpt>
      <trkpt lat="46.56209" lon="5.6155">
        <ele>521.4</ele>
        <time>2022-03-07T11:47:44Z</time>
      </trkpt>
      <trkpt lat="46.56213" lon="5.61556">
        <ele>521.4</ele>
        <time>2022-03-07T11:47:45Z</time>
      </trkpt>
      <trkpt lat="46.56216" lon="5.61562">
        <ele>521.4</ele>
        <time>2022-03-07T11:47:46Z</time>
      </trkpt>
      <trkpt lat="46.56219" lon="5.61568">
        <ele>521.4</ele>
        <time>2022-03-07T11:47:47Z</time>
      </trkpt>
      <trkpt lat="46.56222" lon="5.61574">
        <ele>521.4</ele>
        <time>2022-03-07T11:47:48Z</time>
      </trkpt>
      <trkpt lat="46.56225" lon="5.61579">
        <ele>521.4</ele>
        <time>2022-03-07T11:47:49Z</time>
      </trkpt>
      <trkpt lat="46.56228" lon="5.61585">
        <ele>521.4</ele>
        <time>2022-03-07T11:47:50Z</time>
      </trkpt>
      <trkpt lat="46.56232" lon="5.61591">
        <ele>521.6</ele>
        <time>2022-03-07T11:47:51Z</time>
      </trkpt>
      <trkpt lat="46.56235" lon="5.61597">
        <ele>521.6</ele>
        <time>2022-03-07T11:47:52Z</time>
      </trkpt>
      <trkpt lat="46.56239" lon="5.61603">
        <ele>521.6</ele>
        <time>2022-03-07T11:47:53Z</time>
      </trkpt>
      <trkpt lat="46.56242" lon="5.61608">
        <ele>521.6</ele>
        <time>2022-03-07T11:47:54Z</time>
      </trkpt>
      <trkpt lat="46.56246" lon="5.61614">
        <ele>521.6</ele>
        <time>2022-03-07T11:47:55Z</time>
      </trkpt>
      <trkpt lat="46.56249" lon="5.6162">
        <ele>521.6</ele>
        <time>2022-03-07T11:47:56Z</time>
      </trkpt>
      <trkpt lat="46.56253" lon="5.61626">
        <ele>521.6</ele>
        <time>2022-03-07T11:47:57Z</time>
      </trkpt>
      <trkpt lat="46.56256" lon="5.61631">
        <ele>521.6</ele>
        <time>2022-03-07T11:47:58Z</time>
      </trkpt>
      <trkpt lat="46.5626" lon="5.61637">
        <ele>521.6</ele>
        <time>2022-03-07T11:47:59Z</time>
      </trkpt>
      <trkpt lat="46.56264" lon="5.61642">
        <ele>521.4</ele>
        <time>2022-03-07T11:48:00Z</time>
      </trkpt>
      <trkpt lat="46.56268" lon="5.61648">
        <ele>521.4</ele>
        <time>2022-03-07T11:48:01Z</time>
      </trkpt>
      <trkpt lat="46.56272" lon="5.61653">
        <ele>521.4</ele>
        <time>2022-03-07T11:48:02Z</time>
      </trkpt>
      <trkpt lat="46.56276" lon="5.61659">
        <ele>521.4</ele>
        <time>2022-03-07T11:48:03Z</time>
      </trkpt>
      <trkpt lat="46.56281" lon="5.61664">
        <ele>521.4</ele>
        <time>2022-03-07T11:48:04Z</time>
      </trkpt>
      <trkpt lat="46.56285" lon="5.61669">
        <ele>521.4</ele>
        <time>2022-03-07T11:48:05Z</time>
      </trkpt>
      <trkpt lat="46.56289" lon="5.61674">
        <ele>521.4</ele>
        <time>2022-03-07T11:48:06Z</time>
      </trkpt>
      <trkpt lat="46.56293" lon="5.61679">
        <ele>521.2</ele>
        <time>2022-03-07T11:48:07Z</time>
      </trkpt>
      <trkpt lat="46.56297" lon="5.61684">
        <ele>521.2</ele>
        <time>2022-03-07T11:48:08Z</time>
      </trkpt>
      <trkpt lat="46.56301" lon="5.61689">
        <ele>521.2</ele>
        <time>2022-03-07T11:48:09Z</time>
      </trkpt>
      <trkpt lat="46.56305" lon="5.61695">
        <ele>521.2</ele>
        <time>2022-03-07T11:48:10Z</time>
      </trkpt>
      <trkpt lat="46.56309" lon="5.617">
        <ele>521</ele>
        <time>2022-03-07T11:48:11Z</time>
      </trkpt>
      <trkpt lat="46.56313" lon="5.61705">
        <ele>521</ele>
        <time>2022-03-07T11:48:12Z</time>
      </trkpt>
      <trkpt lat="46.56317" lon="5.6171">
        <ele>521</ele>
        <time>2022-03-07T11:48:13Z</time>
      </trkpt>
      <trkpt lat="46.56321" lon="5.61715">
        <ele>521</ele>
        <time>2022-03-07T11:48:14Z</time>
      </trkpt>
      <trkpt lat="46.56325" lon="5.61721">
        <ele>521</ele>
        <time>2022-03-07T11:48:15Z</time>
      </trkpt>
      <trkpt lat="46.56329" lon="5.61726">
        <ele>521</ele>
        <time>2022-03-07T11:48:16Z</time>
      </trkpt>
      <trkpt lat="46.56334" lon="5.61731">
        <ele>521</ele>
        <time>2022-03-07T11:48:17Z</time>
      </trkpt>
      <trkpt lat="46.56338" lon="5.61737">
        <ele>521</ele>
        <time>2022-03-07T11:48:18Z</time>
      </trkpt>
      <trkpt lat="46.56342" lon="5.61742">
        <ele>520.6</ele>
        <time>2022-03-07T11:48:19Z</time>
      </trkpt>
      <trkpt lat="46.56346" lon="5.61747">
        <ele>520.6</ele>
        <time>2022-03-07T11:48:20Z</time>
      </trkpt>
      <trkpt lat="46.5635" lon="5.61752">
        <ele>520.6</ele>
        <time>2022-03-07T11:48:21Z</time>
      </trkpt>
      <trkpt lat="46.56354" lon="5.61757">
        <ele>520.6</ele>
        <time>2022-03-07T11:48:22Z</time>
      </trkpt>
      <trkpt lat="46.56358" lon="5.61762">
        <ele>520.6</ele>
        <time>2022-03-07T11:48:23Z</time>
      </trkpt>
      <trkpt lat="46.56361" lon="5.61769">
        <ele>520.4</ele>
        <time>2022-03-07T11:48:24Z</time>
      </trkpt>
      <trkpt lat="46.56363" lon="5.61776">
        <ele>520.4</ele>
        <time>2022-03-07T11:48:25Z</time>
      </trkpt>
      <trkpt lat="46.56364" lon="5.61784">
        <ele>520</ele>
        <time>2022-03-07T11:48:26Z</time>
      </trkpt>
      <trkpt lat="46.56365" lon="5.61793">
        <ele>519.6</ele>
        <time>2022-03-07T11:48:27Z</time>
      </trkpt>
      <trkpt lat="46.56365" lon="5.61802">
        <ele>519.4</ele>
        <time>2022-03-07T11:48:28Z</time>
      </trkpt>
      <trkpt lat="46.56365" lon="5.61812">
        <ele>519.2</ele>
        <time>2022-03-07T11:48:29Z</time>
      </trkpt>
      <trkpt lat="46.56365" lon="5.61822">
        <ele>519</ele>
        <time>2022-03-07T11:48:30Z</time>
      </trkpt>
      <trkpt lat="46.56364" lon="5.61832">
        <ele>518.6</ele>
        <time>2022-03-07T11:48:31Z</time>
      </trkpt>
      <trkpt lat="46.56363" lon="5.61842">
        <ele>518.4</ele>
        <time>2022-03-07T11:48:32Z</time>
      </trkpt>
      <trkpt lat="46.56362" lon="5.61852">
        <ele>518</ele>
        <time>2022-03-07T11:48:33Z</time>
      </trkpt>
      <trkpt lat="46.5636" lon="5.61862">
        <ele>517.8</ele>
        <time>2022-03-07T11:48:34Z</time>
      </trkpt>
      <trkpt lat="46.56359" lon="5.61873">
        <ele>517.6</ele>
        <time>2022-03-07T11:48:35Z</time>
      </trkpt>
      <trkpt lat="46.56358" lon="5.61883">
        <ele>517.6</ele>
        <time>2022-03-07T11:48:36Z</time>
      </trkpt>
      <trkpt lat="46.56358" lon="5.61894">
        <ele>517</ele>
        <time>2022-03-07T11:48:37Z</time>
      </trkpt>
      <trkpt lat="46.56358" lon="5.61905">
        <ele>516.6</ele>
        <time>2022-03-07T11:48:38Z</time>
      </trkpt>
      <trkpt lat="46.56358" lon="5.61915">
        <ele>516.4</ele>
        <time>2022-03-07T11:48:39Z</time>
      </trkpt>
      <trkpt lat="46.56358" lon="5.61926">
        <ele>516.2</ele>
        <time>2022-03-07T11:48:40Z</time>
      </trkpt>
      <trkpt lat="46.56359" lon="5.61937">
        <ele>515.8</ele>
        <time>2022-03-07T11:48:41Z</time>
      </trkpt>
      <trkpt lat="46.56359" lon="5.61947">
        <ele>515.6</ele>
        <time>2022-03-07T11:48:42Z</time>
      </trkpt>
      <trkpt lat="46.5636" lon="5.61958">
        <ele>515.2</ele>
        <time>2022-03-07T11:48:43Z</time>
      </trkpt>
      <trkpt lat="46.5636" lon="5.61969">
        <ele>515</ele>
        <time>2022-03-07T11:48:44Z</time>
      </trkpt>
      <trkpt lat="46.56361" lon="5.61979">
        <ele>514.8</ele>
        <time>2022-03-07T11:48:45Z</time>
      </trkpt>
      <trkpt lat="46.56363" lon="5.6199">
        <ele>514.8</ele>
        <time>2022-03-07T11:48:46Z</time>
      </trkpt>
      <trkpt lat="46.56364" lon="5.62">
        <ele>514.4</ele>
        <time>2022-03-07T11:48:47Z</time>
      </trkpt>
      <trkpt lat="46.56367" lon="5.6201">
        <ele>514.4</ele>
        <time>2022-03-07T11:48:48Z</time>
      </trkpt>
      <trkpt lat="46.56369" lon="5.6202">
        <ele>514.2</ele>
        <time>2022-03-07T11:48:49Z</time>
      </trkpt>
      <trkpt lat="46.56371" lon="5.62029">
        <ele>514.2</ele>
        <time>2022-03-07T11:48:50Z</time>
      </trkpt>
      <trkpt lat="46.56373" lon="5.62038">
        <ele>513.8</ele>
        <time>2022-03-07T11:48:51Z</time>
      </trkpt>
      <trkpt lat="46.56376" lon="5.62047">
        <ele>513.8</ele>
        <time>2022-03-07T11:48:52Z</time>
      </trkpt>
      <trkpt lat="46.56377" lon="5.62056">
        <ele>513.6</ele>
        <time>2022-03-07T11:48:53Z</time>
      </trkpt>
      <trkpt lat="46.56379" lon="5.62065">
        <ele>513.6</ele>
        <time>2022-03-07T11:48:54Z</time>
      </trkpt>
      <trkpt lat="46.56381" lon="5.62074">
        <ele>513.6</ele>
        <time>2022-03-07T11:48:55Z</time>
      </trkpt>
      <trkpt lat="46.56383" lon="5.62083">
        <ele>513.6</ele>
        <time>2022-03-07T11:48:56Z</time>
      </trkpt>
      <trkpt lat="46.56386" lon="5.62091">
        <ele>513.4</ele>
        <time>2022-03-07T11:48:57Z</time>
      </trkpt>
      <trkpt lat="46.56388" lon="5.621">
        <ele>513.4</ele>
        <time>2022-03-07T11:48:58Z</time>
      </trkpt>
      <trkpt lat="46.5639" lon="5.62108">
        <ele>513.4</ele>
        <time>2022-03-07T11:48:59Z</time>
      </trkpt>
      <trkpt lat="46.56392" lon="5.62116">
        <ele>513.4</ele>
        <time>2022-03-07T11:49:00Z</time>
      </trkpt>
      <trkpt lat="46.56394" lon="5.62123">
        <ele>513.4</ele>
        <time>2022-03-07T11:49:01Z</time>
      </trkpt>
      <trkpt lat="46.56396" lon="5.62131">
        <ele>513.4</ele>
        <time>2022-03-07T11:49:02Z</time>
      </trkpt>
      <trkpt lat="46.56398" lon="5.62139">
        <ele>513.4</ele>
        <time>2022-03-07T11:49:03Z</time>
      </trkpt>
      <trkpt lat="46.564" lon="5.62147">
        <ele>513.2</ele>
        <time>2022-03-07T11:49:04Z</time>
      </trkpt>
      <trkpt lat="46.56402" lon="5.62154">
        <ele>513.2</ele>
        <time>2022-03-07T11:49:05Z</time>
      </trkpt>
      <trkpt lat="46.56403" lon="5.62162">
        <ele>513.2</ele>
        <time>2022-03-07T11:49:06Z</time>
      </trkpt>
      <trkpt lat="46.56405" lon="5.62171">
        <ele>512.8</ele>
        <time>2022-03-07T11:49:07Z</time>
      </trkpt>
      <trkpt lat="46.56407" lon="5.62179">
        <ele>512.8</ele>
        <time>2022-03-07T11:49:08Z</time>
      </trkpt>
      <trkpt lat="46.56409" lon="5.62187">
        <ele>512.8</ele>
        <time>2022-03-07T11:49:09Z</time>
      </trkpt>
      <trkpt lat="46.56411" lon="5.62196">
        <ele>512.6</ele>
        <time>2022-03-07T11:49:10Z</time>
      </trkpt>
      <trkpt lat="46.56414" lon="5.62205">
        <ele>512.6</ele>
        <time>2022-03-07T11:49:11Z</time>
      </trkpt>
      <trkpt lat="46.56416" lon="5.62214">
        <ele>512.4</ele>
        <time>2022-03-07T11:49:12Z</time>
      </trkpt>
      <trkpt lat="46.56418" lon="5.62222">
        <ele>512.4</ele>
        <time>2022-03-07T11:49:13Z</time>
      </trkpt>
      <trkpt lat="46.56421" lon="5.62231">
        <ele>512</ele>
        <time>2022-03-07T11:49:14Z</time>
      </trkpt>
      <trkpt lat="46.56423" lon="5.62239">
        <ele>512</ele>
        <time>2022-03-07T11:49:15Z</time>
      </trkpt>
      <trkpt lat="46.56426" lon="5.62247">
        <ele>512</ele>
        <time>2022-03-07T11:49:16Z</time>
      </trkpt>
      <trkpt lat="46.56428" lon="5.62255">
        <ele>512</ele>
        <time>2022-03-07T11:49:17Z</time>
      </trkpt>
      <trkpt lat="46.5643" lon="5.62263">
        <ele>511.8</ele>
        <time>2022-03-07T11:49:18Z</time>
      </trkpt>
      <trkpt lat="46.56432" lon="5.62271">
        <ele>511.8</ele>
        <time>2022-03-07T11:49:19Z</time>
      </trkpt>
      <trkpt lat="46.56434" lon="5.62279">
        <ele>511.8</ele>
        <time>2022-03-07T11:49:20Z</time>
      </trkpt>
      <trkpt lat="46.56436" lon="5.62287">
        <ele>511.8</ele>
        <time>2022-03-07T11:49:21Z</time>
      </trkpt>
      <trkpt lat="46.56438" lon="5.62294">
        <ele>512</ele>
        <time>2022-03-07T11:49:22Z</time>
      </trkpt>
      <trkpt lat="46.5644" lon="5.62301">
        <ele>512</ele>
        <time>2022-03-07T11:49:23Z</time>
      </trkpt>
      <trkpt lat="46.56441" lon="5.62307">
        <ele>512</ele>
        <time>2022-03-07T11:49:24Z</time>
      </trkpt>
      <trkpt lat="46.56443" lon="5.62313">
        <ele>512.4</ele>
        <time>2022-03-07T11:49:25Z</time>
      </trkpt>
      <trkpt lat="46.56445" lon="5.62319">
        <ele>512.4</ele>
        <time>2022-03-07T11:49:26Z</time>
      </trkpt>
      <trkpt lat="46.56446" lon="5.62325">
        <ele>512.6</ele>
        <time>2022-03-07T11:49:27Z</time>
      </trkpt>
      <trkpt lat="46.56447" lon="5.6233">
        <ele>512.6</ele>
        <time>2022-03-07T11:49:28Z</time>
      </trkpt>
      <trkpt lat="46.56448" lon="5.62336">
        <ele>512.8</ele>
        <time>2022-03-07T11:49:29Z</time>
      </trkpt>
      <trkpt lat="46.56449" lon="5.62341">
        <ele>512.8</ele>
        <time>2022-03-07T11:49:30Z</time>
      </trkpt>
      <trkpt lat="46.5645" lon="5.62346">
        <ele>512.8</ele>
        <time>2022-03-07T11:49:31Z</time>
      </trkpt>
      <trkpt lat="46.56452" lon="5.62352">
        <ele>513</ele>
        <time>2022-03-07T11:49:32Z</time>
      </trkpt>
      <trkpt lat="46.56453" lon="5.62357">
        <ele>513</ele>
        <time>2022-03-07T11:49:33Z</time>
      </trkpt>
      <trkpt lat="46.56453" lon="5.62362">
        <ele>513.4</ele>
        <time>2022-03-07T11:49:34Z</time>
      </trkpt>
      <trkpt lat="46.56454" lon="5.62367">
        <ele>513.4</ele>
        <time>2022-03-07T11:49:35Z</time>
      </trkpt>
      <trkpt lat="46.56454" lon="5.62372">
        <ele>513.4</ele>
        <time>2022-03-07T11:49:36Z</time>
      </trkpt>
      <trkpt lat="46.56455" lon="5.62378">
        <ele>513.4</ele>
        <time>2022-03-07T11:49:37Z</time>
      </trkpt>
      <trkpt lat="46.56455" lon="5.62388">
        <ele>513.6</ele>
        <time>2022-03-07T11:49:38Z</time>
      </trkpt>
      <trkpt lat="46.56455" lon="5.62393">
        <ele>513.6</ele>
        <time>2022-03-07T11:49:39Z</time>
      </trkpt>
      <trkpt lat="46.56455" lon="5.62398">
        <ele>513.6</ele>
        <time>2022-03-07T11:49:40Z</time>
      </trkpt>
      <trkpt lat="46.56454" lon="5.62404">
        <ele>513.6</ele>
        <time>2022-03-07T11:49:41Z</time>
      </trkpt>
      <trkpt lat="46.56453" lon="5.62409">
        <ele>513.6</ele>
        <time>2022-03-07T11:49:42Z</time>
      </trkpt>
      <trkpt lat="46.56453" lon="5.62415">
        <ele>513.8</ele>
        <time>2022-03-07T11:49:43Z</time>
      </trkpt>
      <trkpt lat="46.56452" lon="5.6242">
        <ele>513.8</ele>
        <time>2022-03-07T11:49:44Z</time>
      </trkpt>
      <trkpt lat="46.56451" lon="5.62425">
        <ele>514</ele>
        <time>2022-03-07T11:49:45Z</time>
      </trkpt>
      <trkpt lat="46.5645" lon="5.62431">
        <ele>514.2</ele>
        <time>2022-03-07T11:49:46Z</time>
      </trkpt>
      <trkpt lat="46.56449" lon="5.62436">
        <ele>514.2</ele>
        <time>2022-03-07T11:49:47Z</time>
      </trkpt>
      <trkpt lat="46.56448" lon="5.62442">
        <ele>514.2</ele>
        <time>2022-03-07T11:49:48Z</time>
      </trkpt>
      <trkpt lat="46.56447" lon="5.62447">
        <ele>514.6</ele>
        <time>2022-03-07T11:49:49Z</time>
      </trkpt>
      <trkpt lat="46.56446" lon="5.62452">
        <ele>514.6</ele>
        <time>2022-03-07T11:49:50Z</time>
      </trkpt>
      <trkpt lat="46.56444" lon="5.62457">
        <ele>514.6</ele>
        <time>2022-03-07T11:49:51Z</time>
      </trkpt>
      <trkpt lat="46.56443" lon="5.62463">
        <ele>514.6</ele>
        <time>2022-03-07T11:49:52Z</time>
      </trkpt>
      <trkpt lat="46.56442" lon="5.62468">
        <ele>514.6</ele>
        <time>2022-03-07T11:49:53Z</time>
      </trkpt>
      <trkpt lat="46.56441" lon="5.62473">
        <ele>514.6</ele>
        <time>2022-03-07T11:49:54Z</time>
      </trkpt>
      <trkpt lat="46.5644" lon="5.62478">
        <ele>514.8</ele>
        <time>2022-03-07T11:49:55Z</time>
      </trkpt>
      <trkpt lat="46.56439" lon="5.62484">
        <ele>514.8</ele>
        <time>2022-03-07T11:49:56Z</time>
      </trkpt>
      <trkpt lat="46.56438" lon="5.62489">
        <ele>514.8</ele>
        <time>2022-03-07T11:49:57Z</time>
      </trkpt>
      <trkpt lat="46.56437" lon="5.62494">
        <ele>514.8</ele>
        <time>2022-03-07T11:49:58Z</time>
      </trkpt>
      <trkpt lat="46.56436" lon="5.62497">
        <ele>515</ele>
        <time>2022-03-07T11:49:59Z</time>
      </trkpt>
      <trkpt lat="46.56436" lon="5.62499">
        <ele>515</ele>
        <time>2022-03-07T11:50:00Z</time>
      </trkpt>
      <trkpt lat="46.56434" lon="5.6251">
        <ele>515.2</ele>
        <time>2022-03-07T11:50:01Z</time>
      </trkpt>
      <trkpt lat="46.56433" lon="5.62515">
        <ele>515.2</ele>
        <time>2022-03-07T11:50:02Z</time>
      </trkpt>
      <trkpt lat="46.56432" lon="5.62521">
        <ele>515.2</ele>
        <time>2022-03-07T11:50:03Z</time>
      </trkpt>
      <trkpt lat="46.56431" lon="5.62526">
        <ele>515.2</ele>
        <time>2022-03-07T11:50:04Z</time>
      </trkpt>
      <trkpt lat="46.56429" lon="5.62531">
        <ele>515.6</ele>
        <time>2022-03-07T11:50:05Z</time>
      </trkpt>
      <trkpt lat="46.56428" lon="5.62536">
        <ele>515.6</ele>
        <time>2022-03-07T11:50:06Z</time>
      </trkpt>
      <trkpt lat="46.56427" lon="5.62541">
        <ele>515.6</ele>
        <time>2022-03-07T11:50:07Z</time>
      </trkpt>
      <trkpt lat="46.56426" lon="5.62546">
        <ele>515.6</ele>
        <time>2022-03-07T11:50:08Z</time>
      </trkpt>
      <trkpt lat="46.56425" lon="5.62552">
        <ele>515.8</ele>
        <time>2022-03-07T11:50:09Z</time>
      </trkpt>
      <trkpt lat="46.56425" lon="5.62557">
        <ele>515.8</ele>
        <time>2022-03-07T11:50:10Z</time>
      </trkpt>
      <trkpt lat="46.56423" lon="5.62562">
        <ele>516</ele>
        <time>2022-03-07T11:50:11Z</time>
      </trkpt>
      <trkpt lat="46.56422" lon="5.62568">
        <ele>516.2</ele>
        <time>2022-03-07T11:50:12Z</time>
      </trkpt>
      <trkpt lat="46.56421" lon="5.62573">
        <ele>516.2</ele>
        <time>2022-03-07T11:50:13Z</time>
      </trkpt>
      <trkpt lat="46.5642" lon="5.62579">
        <ele>516.6</ele>
        <time>2022-03-07T11:50:14Z</time>
      </trkpt>
      <trkpt lat="46.56419" lon="5.62585">
        <ele>516.6</ele>
        <time>2022-03-07T11:50:15Z</time>
      </trkpt>
      <trkpt lat="46.56419" lon="5.6259">
        <ele>516.6</ele>
        <time>2022-03-07T11:50:16Z</time>
      </trkpt>
      <trkpt lat="46.56418" lon="5.62596">
        <ele>516.6</ele>
        <time>2022-03-07T11:50:17Z</time>
      </trkpt>
      <trkpt lat="46.56418" lon="5.62602">
        <ele>516.6</ele>
        <time>2022-03-07T11:50:18Z</time>
      </trkpt>
      <trkpt lat="46.56418" lon="5.62608">
        <ele>517</ele>
        <time>2022-03-07T11:50:19Z</time>
      </trkpt>
      <trkpt lat="46.56418" lon="5.62614">
        <ele>517</ele>
        <time>2022-03-07T11:50:20Z</time>
      </trkpt>
      <trkpt lat="46.56418" lon="5.6262">
        <ele>517</ele>
        <time>2022-03-07T11:50:21Z</time>
      </trkpt>
      <trkpt lat="46.56418" lon="5.62625">
        <ele>517</ele>
        <time>2022-03-07T11:50:22Z</time>
      </trkpt>
      <trkpt lat="46.56418" lon="5.62631">
        <ele>517</ele>
        <time>2022-03-07T11:50:23Z</time>
      </trkpt>
      <trkpt lat="46.56419" lon="5.62637">
        <ele>517</ele>
        <time>2022-03-07T11:50:24Z</time>
      </trkpt>
      <trkpt lat="46.56419" lon="5.62642">
        <ele>517.2</ele>
        <time>2022-03-07T11:50:25Z</time>
      </trkpt>
      <trkpt lat="46.5642" lon="5.62647">
        <ele>517.2</ele>
        <time>2022-03-07T11:50:26Z</time>
      </trkpt>
      <trkpt lat="46.56421" lon="5.62651">
        <ele>517.4</ele>
        <time>2022-03-07T11:50:27Z</time>
      </trkpt>
      <trkpt lat="46.56421" lon="5.62656">
        <ele>517.4</ele>
        <time>2022-03-07T11:50:28Z</time>
      </trkpt>
      <trkpt lat="46.56422" lon="5.62661">
        <ele>517.8</ele>
        <time>2022-03-07T11:50:29Z</time>
      </trkpt>
      <trkpt lat="46.56424" lon="5.62665">
        <ele>517.8</ele>
        <time>2022-03-07T11:50:30Z</time>
      </trkpt>
      <trkpt lat="46.56425" lon="5.62669">
        <ele>518</ele>
        <time>2022-03-07T11:50:31Z</time>
      </trkpt>
      <trkpt lat="46.56427" lon="5.62672">
        <ele>518</ele>
        <time>2022-03-07T11:50:32Z</time>
      </trkpt>
      <trkpt lat="46.56429" lon="5.62675">
        <ele>518.4</ele>
        <time>2022-03-07T11:50:33Z</time>
      </trkpt>
      <trkpt lat="46.56431" lon="5.62678">
        <ele>518.4</ele>
        <time>2022-03-07T11:50:34Z</time>
      </trkpt>
      <trkpt lat="46.56432" lon="5.62681">
        <ele>518.6</ele>
        <time>2022-03-07T11:50:35Z</time>
      </trkpt>
      <trkpt lat="46.56434" lon="5.62683">
        <ele>518.6</ele>
        <time>2022-03-07T11:50:36Z</time>
      </trkpt>
      <trkpt lat="46.56435" lon="5.62687">
        <ele>518.6</ele>
        <time>2022-03-07T11:50:37Z</time>
      </trkpt>
      <trkpt lat="46.56437" lon="5.62691">
        <ele>519</ele>
        <time>2022-03-07T11:50:38Z</time>
      </trkpt>
      <trkpt lat="46.56438" lon="5.62695">
        <ele>519</ele>
        <time>2022-03-07T11:50:39Z</time>
      </trkpt>
      <trkpt lat="46.5644" lon="5.62699">
        <ele>519</ele>
        <time>2022-03-07T11:50:40Z</time>
      </trkpt>
      <trkpt lat="46.56442" lon="5.62703">
        <ele>519</ele>
        <time>2022-03-07T11:50:41Z</time>
      </trkpt>
      <trkpt lat="46.56444" lon="5.62706">
        <ele>519</ele>
        <time>2022-03-07T11:50:42Z</time>
      </trkpt>
      <trkpt lat="46.56446" lon="5.6271">
        <ele>519.2</ele>
        <time>2022-03-07T11:50:43Z</time>
      </trkpt>
      <trkpt lat="46.56448" lon="5.62714">
        <ele>519.2</ele>
        <time>2022-03-07T11:50:44Z</time>
      </trkpt>
      <trkpt lat="46.5645" lon="5.62717">
        <ele>519.2</ele>
        <time>2022-03-07T11:50:45Z</time>
      </trkpt>
      <trkpt lat="46.56453" lon="5.6272">
        <ele>519.2</ele>
        <time>2022-03-07T11:50:46Z</time>
      </trkpt>
      <trkpt lat="46.56457" lon="5.62724">
        <ele>519.2</ele>
        <time>2022-03-07T11:50:47Z</time>
      </trkpt>
      <trkpt lat="46.5646" lon="5.62727">
        <ele>519.4</ele>
        <time>2022-03-07T11:50:48Z</time>
      </trkpt>
      <trkpt lat="46.56463" lon="5.6273">
        <ele>519.4</ele>
        <time>2022-03-07T11:50:49Z</time>
      </trkpt>
      <trkpt lat="46.56466" lon="5.62733">
        <ele>519.4</ele>
        <time>2022-03-07T11:50:50Z</time>
      </trkpt>
      <trkpt lat="46.56469" lon="5.62736">
        <ele>519.4</ele>
        <time>2022-03-07T11:50:51Z</time>
      </trkpt>
      <trkpt lat="46.56472" lon="5.62739">
        <ele>519.4</ele>
        <time>2022-03-07T11:50:52Z</time>
      </trkpt>
      <trkpt lat="46.56475" lon="5.62742">
        <ele>519.4</ele>
        <time>2022-03-07T11:50:53Z</time>
      </trkpt>
      <trkpt lat="46.56478" lon="5.62746">
        <ele>519.8</ele>
        <time>2022-03-07T11:50:54Z</time>
      </trkpt>
      <trkpt lat="46.56482" lon="5.62749">
        <ele>519.8</ele>
        <time>2022-03-07T11:50:55Z</time>
      </trkpt>
      <trkpt lat="46.56485" lon="5.62753">
        <ele>519.8</ele>
        <time>2022-03-07T11:50:56Z</time>
      </trkpt>
      <trkpt lat="46.56488" lon="5.62756">
        <ele>519.8</ele>
        <time>2022-03-07T11:50:57Z</time>
      </trkpt>
      <trkpt lat="46.56491" lon="5.62759">
        <ele>520</ele>
        <time>2022-03-07T11:50:58Z</time>
      </trkpt>
      <trkpt lat="46.56495" lon="5.62761">
        <ele>520</ele>
        <time>2022-03-07T11:50:59Z</time>
      </trkpt>
      <trkpt lat="46.56498" lon="5.62764">
        <ele>520</ele>
        <time>2022-03-07T11:51:00Z</time>
      </trkpt>
      <trkpt lat="46.56502" lon="5.62767">
        <ele>520</ele>
        <time>2022-03-07T11:51:01Z</time>
      </trkpt>
      <trkpt lat="46.56505" lon="5.6277">
        <ele>520.4</ele>
        <time>2022-03-07T11:51:02Z</time>
      </trkpt>
      <trkpt lat="46.56508" lon="5.62774">
        <ele>520.4</ele>
        <time>2022-03-07T11:51:03Z</time>
      </trkpt>
      <trkpt lat="46.56511" lon="5.62777">
        <ele>520.4</ele>
        <time>2022-03-07T11:51:04Z</time>
      </trkpt>
      <trkpt lat="46.56515" lon="5.6278">
        <ele>520.6</ele>
        <time>2022-03-07T11:51:05Z</time>
      </trkpt>
      <trkpt lat="46.56519" lon="5.62783">
        <ele>520.6</ele>
        <time>2022-03-07T11:51:06Z</time>
      </trkpt>
      <trkpt lat="46.56523" lon="5.62785">
        <ele>520.8</ele>
        <time>2022-03-07T11:51:07Z</time>
      </trkpt>
      <trkpt lat="46.56526" lon="5.62788">
        <ele>520.8</ele>
        <time>2022-03-07T11:51:08Z</time>
      </trkpt>
      <trkpt lat="46.5653" lon="5.62792">
        <ele>520.8</ele>
        <time>2022-03-07T11:51:09Z</time>
      </trkpt>
      <trkpt lat="46.56533" lon="5.62794">
        <ele>521</ele>
        <time>2022-03-07T11:51:10Z</time>
      </trkpt>
      <trkpt lat="46.56536" lon="5.62798">
        <ele>521</ele>
        <time>2022-03-07T11:51:11Z</time>
      </trkpt>
      <trkpt lat="46.56538" lon="5.62801">
        <ele>521</ele>
        <time>2022-03-07T11:51:12Z</time>
      </trkpt>
      <trkpt lat="46.56541" lon="5.62804">
        <ele>521</ele>
        <time>2022-03-07T11:51:13Z</time>
      </trkpt>
      <trkpt lat="46.56545" lon="5.62808">
        <ele>521.4</ele>
        <time>2022-03-07T11:51:14Z</time>
      </trkpt>
      <trkpt lat="46.56548" lon="5.62811">
        <ele>521.4</ele>
        <time>2022-03-07T11:51:15Z</time>
      </trkpt>
      <trkpt lat="46.56551" lon="5.62814">
        <ele>521.6</ele>
        <time>2022-03-07T11:51:16Z</time>
      </trkpt>
      <trkpt lat="46.56554" lon="5.62817">
        <ele>521.6</ele>
        <time>2022-03-07T11:51:17Z</time>
      </trkpt>
      <trkpt lat="46.56557" lon="5.6282">
        <ele>521.6</ele>
        <time>2022-03-07T11:51:18Z</time>
      </trkpt>
      <trkpt lat="46.5656" lon="5.62823">
        <ele>522</ele>
        <time>2022-03-07T11:51:19Z</time>
      </trkpt>
      <trkpt lat="46.56562" lon="5.62826">
        <ele>522</ele>
        <time>2022-03-07T11:51:20Z</time>
      </trkpt>
      <trkpt lat="46.56565" lon="5.62829">
        <ele>522.2</ele>
        <time>2022-03-07T11:51:21Z</time>
      </trkpt>
      <trkpt lat="46.56567" lon="5.62832">
        <ele>522.2</ele>
        <time>2022-03-07T11:51:22Z</time>
      </trkpt>
      <trkpt lat="46.5657" lon="5.62835">
        <ele>522.4</ele>
        <time>2022-03-07T11:51:23Z</time>
      </trkpt>
      <trkpt lat="46.56572" lon="5.62838">
        <ele>522.4</ele>
        <time>2022-03-07T11:51:24Z</time>
      </trkpt>
      <trkpt lat="46.56574" lon="5.62841">
        <ele>522.8</ele>
        <time>2022-03-07T11:51:25Z</time>
      </trkpt>
      <trkpt lat="46.56576" lon="5.62844">
        <ele>522.8</ele>
        <time>2022-03-07T11:51:26Z</time>
      </trkpt>
      <trkpt lat="46.56579" lon="5.62848">
        <ele>523</ele>
        <time>2022-03-07T11:51:27Z</time>
      </trkpt>
      <trkpt lat="46.56581" lon="5.62852">
        <ele>523</ele>
        <time>2022-03-07T11:51:28Z</time>
      </trkpt>
      <trkpt lat="46.56583" lon="5.62856">
        <ele>523</ele>
        <time>2022-03-07T11:51:29Z</time>
      </trkpt>
      <trkpt lat="46.56585" lon="5.6286">
        <ele>523.2</ele>
        <time>2022-03-07T11:51:30Z</time>
      </trkpt>
      <trkpt lat="46.56587" lon="5.62864">
        <ele>523.2</ele>
        <time>2022-03-07T11:51:31Z</time>
      </trkpt>
      <trkpt lat="46.5659" lon="5.62867">
        <ele>523.4</ele>
        <time>2022-03-07T11:51:32Z</time>
      </trkpt>
      <trkpt lat="46.56593" lon="5.6287">
        <ele>523.4</ele>
        <time>2022-03-07T11:51:33Z</time>
      </trkpt>
      <trkpt lat="46.56595" lon="5.62873">
        <ele>523.4</ele>
        <time>2022-03-07T11:51:34Z</time>
      </trkpt>
      <trkpt lat="46.56598" lon="5.62877">
        <ele>523.4</ele>
        <time>2022-03-07T11:51:35Z</time>
      </trkpt>
      <trkpt lat="46.566" lon="5.6288">
        <ele>523.8</ele>
        <time>2022-03-07T11:51:36Z</time>
      </trkpt>
      <trkpt lat="46.56603" lon="5.62884">
        <ele>523.8</ele>
        <time>2022-03-07T11:51:37Z</time>
      </trkpt>
      <trkpt lat="46.56606" lon="5.62888">
        <ele>523.8</ele>
        <time>2022-03-07T11:51:38Z</time>
      </trkpt>
      <trkpt lat="46.5661" lon="5.62893">
        <ele>523.8</ele>
        <time>2022-03-07T11:51:39Z</time>
      </trkpt>
      <trkpt lat="46.56613" lon="5.62897">
        <ele>524</ele>
        <time>2022-03-07T11:51:40Z</time>
      </trkpt>
      <trkpt lat="46.56616" lon="5.62903">
        <ele>524</ele>
        <time>2022-03-07T11:51:41Z</time>
      </trkpt>
      <trkpt lat="46.5662" lon="5.62908">
        <ele>524.2</ele>
        <time>2022-03-07T11:51:42Z</time>
      </trkpt>
      <trkpt lat="46.56624" lon="5.62913">
        <ele>524.2</ele>
        <time>2022-03-07T11:51:43Z</time>
      </trkpt>
      <trkpt lat="46.56626" lon="5.62918">
        <ele>524.2</ele>
        <time>2022-03-07T11:51:44Z</time>
      </trkpt>
      <trkpt lat="46.5663" lon="5.62922">
        <ele>524.2</ele>
        <time>2022-03-07T11:51:45Z</time>
      </trkpt>
      <trkpt lat="46.56633" lon="5.62927">
        <ele>524.2</ele>
        <time>2022-03-07T11:51:46Z</time>
      </trkpt>
      <trkpt lat="46.56637" lon="5.62931">
        <ele>524.2</ele>
        <time>2022-03-07T11:51:47Z</time>
      </trkpt>
      <trkpt lat="46.5664" lon="5.62935">
        <ele>524.2</ele>
        <time>2022-03-07T11:51:48Z</time>
      </trkpt>
      <trkpt lat="46.56643" lon="5.62939">
        <ele>524.4</ele>
        <time>2022-03-07T11:51:49Z</time>
      </trkpt>
      <trkpt lat="46.56645" lon="5.62944">
        <ele>524.4</ele>
        <time>2022-03-07T11:51:50Z</time>
      </trkpt>
      <trkpt lat="46.56647" lon="5.62947">
        <ele>524.4</ele>
        <time>2022-03-07T11:51:51Z</time>
      </trkpt>
      <trkpt lat="46.5665" lon="5.62952">
        <ele>524.4</ele>
        <time>2022-03-07T11:51:52Z</time>
      </trkpt>
      <trkpt lat="46.56652" lon="5.62956">
        <ele>524.4</ele>
        <time>2022-03-07T11:51:53Z</time>
      </trkpt>
      <trkpt lat="46.56654" lon="5.6296">
        <ele>524.4</ele>
        <time>2022-03-07T11:51:54Z</time>
      </trkpt>
      <trkpt lat="46.56656" lon="5.62966">
        <ele>524.4</ele>
        <time>2022-03-07T11:51:55Z</time>
      </trkpt>
      <trkpt lat="46.56657" lon="5.62972">
        <ele>524.8</ele>
        <time>2022-03-07T11:51:56Z</time>
      </trkpt>
      <trkpt lat="46.56659" lon="5.62977">
        <ele>524.8</ele>
        <time>2022-03-07T11:51:57Z</time>
      </trkpt>
      <trkpt lat="46.5666" lon="5.62982">
        <ele>524.8</ele>
        <time>2022-03-07T11:51:58Z</time>
      </trkpt>
      <trkpt lat="46.56662" lon="5.62987">
        <ele>525</ele>
        <time>2022-03-07T11:51:59Z</time>
      </trkpt>
      <trkpt lat="46.56663" lon="5.62992">
        <ele>525</ele>
        <time>2022-03-07T11:52:00Z</time>
      </trkpt>
      <trkpt lat="46.56664" lon="5.62997">
        <ele>525</ele>
        <time>2022-03-07T11:52:01Z</time>
      </trkpt>
      <trkpt lat="46.56666" lon="5.63002">
        <ele>525.2</ele>
        <time>2022-03-07T11:52:02Z</time>
      </trkpt>
      <trkpt lat="46.56667" lon="5.63006">
        <ele>525.2</ele>
        <time>2022-03-07T11:52:03Z</time>
      </trkpt>
      <trkpt lat="46.56668" lon="5.63011">
        <ele>525.2</ele>
        <time>2022-03-07T11:52:04Z</time>
      </trkpt>
      <trkpt lat="46.5667" lon="5.63016">
        <ele>525.4</ele>
        <time>2022-03-07T11:52:05Z</time>
      </trkpt>
      <trkpt lat="46.56671" lon="5.63021">
        <ele>525.4</ele>
        <time>2022-03-07T11:52:06Z</time>
      </trkpt>
      <trkpt lat="46.56673" lon="5.63026">
        <ele>525.4</ele>
        <time>2022-03-07T11:52:07Z</time>
      </trkpt>
      <trkpt lat="46.56675" lon="5.63031">
        <ele>525.4</ele>
        <time>2022-03-07T11:52:08Z</time>
      </trkpt>
      <trkpt lat="46.56676" lon="5.63037">
        <ele>525.4</ele>
        <time>2022-03-07T11:52:09Z</time>
      </trkpt>
      <trkpt lat="46.56677" lon="5.63041">
        <ele>525.6</ele>
        <time>2022-03-07T11:52:10Z</time>
      </trkpt>
      <trkpt lat="46.56679" lon="5.63046">
        <ele>525.6</ele>
        <time>2022-03-07T11:52:11Z</time>
      </trkpt>
      <trkpt lat="46.5668" lon="5.63051">
        <ele>525.6</ele>
        <time>2022-03-07T11:52:13Z</time>
      </trkpt>
      <trkpt lat="46.5668" lon="5.63056">
        <ele>525.6</ele>
        <time>2022-03-07T11:52:14Z</time>
      </trkpt>
      <trkpt lat="46.56681" lon="5.63061">
        <ele>526</ele>
        <time>2022-03-07T11:52:15Z</time>
      </trkpt>
      <trkpt lat="46.56682" lon="5.63065">
        <ele>526</ele>
        <time>2022-03-07T11:52:16Z</time>
      </trkpt>
      <trkpt lat="46.56683" lon="5.6307">
        <ele>526</ele>
        <time>2022-03-07T11:52:17Z</time>
      </trkpt>
      <trkpt lat="46.56683" lon="5.63075">
        <ele>526</ele>
        <time>2022-03-07T11:52:18Z</time>
      </trkpt>
      <trkpt lat="46.56684" lon="5.63079">
        <ele>526.2</ele>
        <time>2022-03-07T11:52:19Z</time>
      </trkpt>
      <trkpt lat="46.56684" lon="5.63084">
        <ele>526.2</ele>
        <time>2022-03-07T11:52:20Z</time>
      </trkpt>
      <trkpt lat="46.56684" lon="5.63089">
        <ele>526.4</ele>
        <time>2022-03-07T11:52:21Z</time>
      </trkpt>
      <trkpt lat="46.56685" lon="5.63094">
        <ele>526.4</ele>
        <time>2022-03-07T11:52:22Z</time>
      </trkpt>
      <trkpt lat="46.56685" lon="5.63098">
        <ele>526.8</ele>
        <time>2022-03-07T11:52:23Z</time>
      </trkpt>
      <trkpt lat="46.56685" lon="5.63103">
        <ele>526.8</ele>
        <time>2022-03-07T11:52:24Z</time>
      </trkpt>
      <trkpt lat="46.56685" lon="5.63107">
        <ele>527.2</ele>
        <time>2022-03-07T11:52:25Z</time>
      </trkpt>
      <trkpt lat="46.56685" lon="5.63111">
        <ele>527.4</ele>
        <time>2022-03-07T11:52:26Z</time>
      </trkpt>
      <trkpt lat="46.56684" lon="5.63116">
        <ele>527.4</ele>
        <time>2022-03-07T11:52:27Z</time>
      </trkpt>
      <trkpt lat="46.56683" lon="5.6312">
        <ele>527.4</ele>
        <time>2022-03-07T11:52:28Z</time>
      </trkpt>
      <trkpt lat="46.56682" lon="5.63125">
        <ele>527.8</ele>
        <time>2022-03-07T11:52:29Z</time>
      </trkpt>
      <trkpt lat="46.56681" lon="5.63129">
        <ele>527.8</ele>
        <time>2022-03-07T11:52:30Z</time>
      </trkpt>
      <trkpt lat="46.5668" lon="5.63133">
        <ele>528</ele>
        <time>2022-03-07T11:52:31Z</time>
      </trkpt>
      <trkpt lat="46.56679" lon="5.63137">
        <ele>528</ele>
        <time>2022-03-07T11:52:32Z</time>
      </trkpt>
      <trkpt lat="46.56678" lon="5.63142">
        <ele>528.4</ele>
        <time>2022-03-07T11:52:33Z</time>
      </trkpt>
      <trkpt lat="46.56677" lon="5.63146">
        <ele>528.8</ele>
        <time>2022-03-07T11:52:34Z</time>
      </trkpt>
      <trkpt lat="46.56676" lon="5.63151">
        <ele>529</ele>
        <time>2022-03-07T11:52:35Z</time>
      </trkpt>
      <trkpt lat="46.56676" lon="5.63155">
        <ele>529.2</ele>
        <time>2022-03-07T11:52:36Z</time>
      </trkpt>
      <trkpt lat="46.56676" lon="5.63159">
        <ele>529.6</ele>
        <time>2022-03-07T11:52:37Z</time>
      </trkpt>
      <trkpt lat="46.56675" lon="5.63164">
        <ele>529.6</ele>
        <time>2022-03-07T11:52:38Z</time>
      </trkpt>
      <trkpt lat="46.56675" lon="5.63168">
        <ele>530</ele>
        <time>2022-03-07T11:52:39Z</time>
      </trkpt>
      <trkpt lat="46.56674" lon="5.63172">
        <ele>530.2</ele>
        <time>2022-03-07T11:52:40Z</time>
      </trkpt>
      <trkpt lat="46.56674" lon="5.63176">
        <ele>530.2</ele>
        <time>2022-03-07T11:52:41Z</time>
      </trkpt>
      <trkpt lat="46.56674" lon="5.6318">
        <ele>530.2</ele>
        <time>2022-03-07T11:52:42Z</time>
      </trkpt>
      <trkpt lat="46.56673" lon="5.63183">
        <ele>530.6</ele>
        <time>2022-03-07T11:52:43Z</time>
      </trkpt>
      <trkpt lat="46.56673" lon="5.63187">
        <ele>530.6</ele>
        <time>2022-03-07T11:52:44Z</time>
      </trkpt>
      <trkpt lat="46.56673" lon="5.63191">
        <ele>530.8</ele>
        <time>2022-03-07T11:52:45Z</time>
      </trkpt>
      <trkpt lat="46.56673" lon="5.63195">
        <ele>530.8</ele>
        <time>2022-03-07T11:52:46Z</time>
      </trkpt>
      <trkpt lat="46.56673" lon="5.63198">
        <ele>531.2</ele>
        <time>2022-03-07T11:52:47Z</time>
      </trkpt>
      <trkpt lat="46.56673" lon="5.63202">
        <ele>531.2</ele>
        <time>2022-03-07T11:52:48Z</time>
      </trkpt>
      <trkpt lat="46.56673" lon="5.63205">
        <ele>531.4</ele>
        <time>2022-03-07T11:52:49Z</time>
      </trkpt>
      <trkpt lat="46.56673" lon="5.63209">
        <ele>531.4</ele>
        <time>2022-03-07T11:52:50Z</time>
      </trkpt>
      <trkpt lat="46.56672" lon="5.63212">
        <ele>531.4</ele>
        <time>2022-03-07T11:52:51Z</time>
      </trkpt>
      <trkpt lat="46.56672" lon="5.63216">
        <ele>531.8</ele>
        <time>2022-03-07T11:52:52Z</time>
      </trkpt>
      <trkpt lat="46.56673" lon="5.6322">
        <ele>531.8</ele>
        <time>2022-03-07T11:52:53Z</time>
      </trkpt>
      <trkpt lat="46.56673" lon="5.63223">
        <ele>531.8</ele>
        <time>2022-03-07T11:52:54Z</time>
      </trkpt>
      <trkpt lat="46.56674" lon="5.63227">
        <ele>532</ele>
        <time>2022-03-07T11:52:55Z</time>
      </trkpt>
      <trkpt lat="46.56674" lon="5.63231">
        <ele>532</ele>
        <time>2022-03-07T11:52:56Z</time>
      </trkpt>
      <trkpt lat="46.56675" lon="5.63235">
        <ele>532.2</ele>
        <time>2022-03-07T11:52:57Z</time>
      </trkpt>
      <trkpt lat="46.56676" lon="5.63238">
        <ele>532.2</ele>
        <time>2022-03-07T11:52:58Z</time>
      </trkpt>
      <trkpt lat="46.56677" lon="5.63242">
        <ele>532.2</ele>
        <time>2022-03-07T11:52:59Z</time>
      </trkpt>
      <trkpt lat="46.5668" lon="5.63248">
        <ele>532.6</ele>
        <time>2022-03-07T11:53:00Z</time>
      </trkpt>
      <trkpt lat="46.56682" lon="5.63251">
        <ele>532.6</ele>
        <time>2022-03-07T11:53:01Z</time>
      </trkpt>
      <trkpt lat="46.56684" lon="5.63254">
        <ele>532.8</ele>
        <time>2022-03-07T11:53:02Z</time>
      </trkpt>
      <trkpt lat="46.56686" lon="5.63257">
        <ele>532.8</ele>
        <time>2022-03-07T11:53:03Z</time>
      </trkpt>
      <trkpt lat="46.56688" lon="5.63259">
        <ele>533.2</ele>
        <time>2022-03-07T11:53:04Z</time>
      </trkpt>
      <trkpt lat="46.56691" lon="5.63261">
        <ele>533.2</ele>
        <time>2022-03-07T11:53:05Z</time>
      </trkpt>
      <trkpt lat="46.56694" lon="5.63263">
        <ele>533.2</ele>
        <time>2022-03-07T11:53:06Z</time>
      </trkpt>
      <trkpt lat="46.56697" lon="5.63265">
        <ele>533.4</ele>
        <time>2022-03-07T11:53:07Z</time>
      </trkpt>
      <trkpt lat="46.567" lon="5.63266">
        <ele>533.4</ele>
        <time>2022-03-07T11:53:08Z</time>
      </trkpt>
      <trkpt lat="46.56704" lon="5.63268">
        <ele>533.4</ele>
        <time>2022-03-07T11:53:09Z</time>
      </trkpt>
      <trkpt lat="46.56707" lon="5.6327">
        <ele>533.4</ele>
        <time>2022-03-07T11:53:10Z</time>
      </trkpt>
      <trkpt lat="46.56711" lon="5.63271">
        <ele>533.4</ele>
        <time>2022-03-07T11:53:11Z</time>
      </trkpt>
      <trkpt lat="46.56715" lon="5.63272">
        <ele>533.4</ele>
        <time>2022-03-07T11:53:12Z</time>
      </trkpt>
      <trkpt lat="46.56719" lon="5.63274">
        <ele>533.4</ele>
        <time>2022-03-07T11:53:13Z</time>
      </trkpt>
      <trkpt lat="46.56723" lon="5.63275">
        <ele>533.4</ele>
        <time>2022-03-07T11:53:14Z</time>
      </trkpt>
      <trkpt lat="46.56726" lon="5.63276">
        <ele>533.6</ele>
        <time>2022-03-07T11:53:15Z</time>
      </trkpt>
      <trkpt lat="46.5673" lon="5.63278">
        <ele>533.6</ele>
        <time>2022-03-07T11:53:16Z</time>
      </trkpt>
      <trkpt lat="46.56734" lon="5.63279">
        <ele>533.6</ele>
        <time>2022-03-07T11:53:17Z</time>
      </trkpt>
      <trkpt lat="46.56738" lon="5.6328">
        <ele>533.6</ele>
        <time>2022-03-07T11:53:18Z</time>
      </trkpt>
      <trkpt lat="46.56742" lon="5.63282">
        <ele>533.6</ele>
        <time>2022-03-07T11:53:19Z</time>
      </trkpt>
      <trkpt lat="46.56746" lon="5.63283">
        <ele>533.6</ele>
        <time>2022-03-07T11:53:20Z</time>
      </trkpt>
      <trkpt lat="46.5675" lon="5.63284">
        <ele>533.6</ele>
        <time>2022-03-07T11:53:21Z</time>
      </trkpt>
      <trkpt lat="46.56754" lon="5.63286">
        <ele>533.6</ele>
        <time>2022-03-07T11:53:22Z</time>
      </trkpt>
      <trkpt lat="46.56758" lon="5.63288">
        <ele>533.6</ele>
        <time>2022-03-07T11:53:23Z</time>
      </trkpt>
      <trkpt lat="46.56762" lon="5.63289">
        <ele>533.6</ele>
        <time>2022-03-07T11:53:24Z</time>
      </trkpt>
      <trkpt lat="46.56766" lon="5.63291">
        <ele>533.6</ele>
        <time>2022-03-07T11:53:25Z</time>
      </trkpt>
      <trkpt lat="46.5677" lon="5.63293">
        <ele>533.6</ele>
        <time>2022-03-07T11:53:26Z</time>
      </trkpt>
      <trkpt lat="46.56774" lon="5.63295">
        <ele>533.6</ele>
        <time>2022-03-07T11:53:27Z</time>
      </trkpt>
      <trkpt lat="46.56778" lon="5.63297">
        <ele>533.4</ele>
        <time>2022-03-07T11:53:28Z</time>
      </trkpt>
      <trkpt lat="46.56782" lon="5.63298">
        <ele>533.4</ele>
        <time>2022-03-07T11:53:29Z</time>
      </trkpt>
      <trkpt lat="46.56785" lon="5.633">
        <ele>533.4</ele>
        <time>2022-03-07T11:53:30Z</time>
      </trkpt>
      <trkpt lat="46.56789" lon="5.63302">
        <ele>533.4</ele>
        <time>2022-03-07T11:53:31Z</time>
      </trkpt>
      <trkpt lat="46.56793" lon="5.63303">
        <ele>533.2</ele>
        <time>2022-03-07T11:53:32Z</time>
      </trkpt>
      <trkpt lat="46.56797" lon="5.63305">
        <ele>533.2</ele>
        <time>2022-03-07T11:53:33Z</time>
      </trkpt>
      <trkpt lat="46.56801" lon="5.63307">
        <ele>533.2</ele>
        <time>2022-03-07T11:53:34Z</time>
      </trkpt>
      <trkpt lat="46.56805" lon="5.63309">
        <ele>533.2</ele>
        <time>2022-03-07T11:53:35Z</time>
      </trkpt>
      <trkpt lat="46.56809" lon="5.63311">
        <ele>533.2</ele>
        <time>2022-03-07T11:53:36Z</time>
      </trkpt>
      <trkpt lat="46.56813" lon="5.63313">
        <ele>533.2</ele>
        <time>2022-03-07T11:53:37Z</time>
      </trkpt>
      <trkpt lat="46.56816" lon="5.63315">
        <ele>533.2</ele>
        <time>2022-03-07T11:53:38Z</time>
      </trkpt>
      <trkpt lat="46.5682" lon="5.63317">
        <ele>533.2</ele>
        <time>2022-03-07T11:53:39Z</time>
      </trkpt>
      <trkpt lat="46.56823" lon="5.6332">
        <ele>533.2</ele>
        <time>2022-03-07T11:53:40Z</time>
      </trkpt>
      <trkpt lat="46.56827" lon="5.63323">
        <ele>533.2</ele>
        <time>2022-03-07T11:53:41Z</time>
      </trkpt>
      <trkpt lat="46.5683" lon="5.63325">
        <ele>533.2</ele>
        <time>2022-03-07T11:53:42Z</time>
      </trkpt>
      <trkpt lat="46.56834" lon="5.63328">
        <ele>533.2</ele>
        <time>2022-03-07T11:53:43Z</time>
      </trkpt>
      <trkpt lat="46.56837" lon="5.63331">
        <ele>533.2</ele>
        <time>2022-03-07T11:53:44Z</time>
      </trkpt>
      <trkpt lat="46.5684" lon="5.63334">
        <ele>533.2</ele>
        <time>2022-03-07T11:53:45Z</time>
      </trkpt>
      <trkpt lat="46.56843" lon="5.63338">
        <ele>533.2</ele>
        <time>2022-03-07T11:53:46Z</time>
      </trkpt>
      <trkpt lat="46.56846" lon="5.63341">
        <ele>533.4</ele>
        <time>2022-03-07T11:53:47Z</time>
      </trkpt>
      <trkpt lat="46.56849" lon="5.63345">
        <ele>533.4</ele>
        <time>2022-03-07T11:53:48Z</time>
      </trkpt>
      <trkpt lat="46.56852" lon="5.63348">
        <ele>533.4</ele>
        <time>2022-03-07T11:53:49Z</time>
      </trkpt>
      <trkpt lat="46.56856" lon="5.63351">
        <ele>533.4</ele>
        <time>2022-03-07T11:53:50Z</time>
      </trkpt>
      <trkpt lat="46.56859" lon="5.63355">
        <ele>533.4</ele>
        <time>2022-03-07T11:53:51Z</time>
      </trkpt>
      <trkpt lat="46.56862" lon="5.63358">
        <ele>533.4</ele>
        <time>2022-03-07T11:53:52Z</time>
      </trkpt>
      <trkpt lat="46.56865" lon="5.63362">
        <ele>533.4</ele>
        <time>2022-03-07T11:53:53Z</time>
      </trkpt>
      <trkpt lat="46.56867" lon="5.63366">
        <ele>533.4</ele>
        <time>2022-03-07T11:53:54Z</time>
      </trkpt>
      <trkpt lat="46.5687" lon="5.6337">
        <ele>533.4</ele>
        <time>2022-03-07T11:53:55Z</time>
      </trkpt>
      <trkpt lat="46.56873" lon="5.63373">
        <ele>533.4</ele>
        <time>2022-03-07T11:53:56Z</time>
      </trkpt>
      <trkpt lat="46.56876" lon="5.63377">
        <ele>533.4</ele>
        <time>2022-03-07T11:53:57Z</time>
      </trkpt>
      <trkpt lat="46.56879" lon="5.6338">
        <ele>533.4</ele>
        <time>2022-03-07T11:53:58Z</time>
      </trkpt>
      <trkpt lat="46.56882" lon="5.63383">
        <ele>533.4</ele>
        <time>2022-03-07T11:53:59Z</time>
      </trkpt>
      <trkpt lat="46.56885" lon="5.63387">
        <ele>533.4</ele>
        <time>2022-03-07T11:54:00Z</time>
      </trkpt>
      <trkpt lat="46.56888" lon="5.6339">
        <ele>533.4</ele>
        <time>2022-03-07T11:54:01Z</time>
      </trkpt>
      <trkpt lat="46.5689" lon="5.63395">
        <ele>533.4</ele>
        <time>2022-03-07T11:54:02Z</time>
      </trkpt>
      <trkpt lat="46.56893" lon="5.63399">
        <ele>533.4</ele>
        <time>2022-03-07T11:54:03Z</time>
      </trkpt>
      <trkpt lat="46.56896" lon="5.63402">
        <ele>533.4</ele>
        <time>2022-03-07T11:54:04Z</time>
      </trkpt>
      <trkpt lat="46.56899" lon="5.63406">
        <ele>533.6</ele>
        <time>2022-03-07T11:54:05Z</time>
      </trkpt>
      <trkpt lat="46.56902" lon="5.63409">
        <ele>533.6</ele>
        <time>2022-03-07T11:54:06Z</time>
      </trkpt>
      <trkpt lat="46.56905" lon="5.63413">
        <ele>533.6</ele>
        <time>2022-03-07T11:54:07Z</time>
      </trkpt>
      <trkpt lat="46.56907" lon="5.63416">
        <ele>534</ele>
        <time>2022-03-07T11:54:08Z</time>
      </trkpt>
      <trkpt lat="46.5691" lon="5.63419">
        <ele>534</ele>
        <time>2022-03-07T11:54:09Z</time>
      </trkpt>
      <trkpt lat="46.56913" lon="5.63423">
        <ele>534</ele>
        <time>2022-03-07T11:54:10Z</time>
      </trkpt>
      <trkpt lat="46.56916" lon="5.63427">
        <ele>534</ele>
        <time>2022-03-07T11:54:11Z</time>
      </trkpt>
      <trkpt lat="46.56918" lon="5.6343">
        <ele>534.2</ele>
        <time>2022-03-07T11:54:12Z</time>
      </trkpt>
      <trkpt lat="46.56921" lon="5.63434">
        <ele>534.2</ele>
        <time>2022-03-07T11:54:13Z</time>
      </trkpt>
      <trkpt lat="46.56925" lon="5.63437">
        <ele>534.2</ele>
        <time>2022-03-07T11:54:14Z</time>
      </trkpt>
      <trkpt lat="46.56928" lon="5.6344">
        <ele>534.2</ele>
        <time>2022-03-07T11:54:15Z</time>
      </trkpt>
      <trkpt lat="46.56931" lon="5.63443">
        <ele>534.2</ele>
        <time>2022-03-07T11:54:16Z</time>
      </trkpt>
      <trkpt lat="46.56935" lon="5.63446">
        <ele>534.2</ele>
        <time>2022-03-07T11:54:17Z</time>
      </trkpt>
      <trkpt lat="46.56938" lon="5.63449">
        <ele>534.2</ele>
        <time>2022-03-07T11:54:18Z</time>
      </trkpt>
      <trkpt lat="46.56941" lon="5.63453">
        <ele>534.4</ele>
        <time>2022-03-07T11:54:19Z</time>
      </trkpt>
      <trkpt lat="46.56945" lon="5.63456">
        <ele>534.4</ele>
        <time>2022-03-07T11:54:20Z</time>
      </trkpt>
      <trkpt lat="46.56948" lon="5.63459">
        <ele>534.4</ele>
        <time>2022-03-07T11:54:21Z</time>
      </trkpt>
      <trkpt lat="46.56952" lon="5.63462">
        <ele>534.4</ele>
        <time>2022-03-07T11:54:22Z</time>
      </trkpt>
      <trkpt lat="46.56956" lon="5.63465">
        <ele>534.4</ele>
        <time>2022-03-07T11:54:23Z</time>
      </trkpt>
      <trkpt lat="46.56959" lon="5.63468">
        <ele>534.4</ele>
        <time>2022-03-07T11:54:24Z</time>
      </trkpt>
      <trkpt lat="46.56963" lon="5.6347">
        <ele>534.4</ele>
        <time>2022-03-07T11:54:25Z</time>
      </trkpt>
      <trkpt lat="46.56967" lon="5.63473">
        <ele>534.4</ele>
        <time>2022-03-07T11:54:26Z</time>
      </trkpt>
      <trkpt lat="46.56971" lon="5.63476">
        <ele>534.4</ele>
        <time>2022-03-07T11:54:27Z</time>
      </trkpt>
      <trkpt lat="46.56975" lon="5.63478">
        <ele>534.4</ele>
        <time>2022-03-07T11:54:28Z</time>
      </trkpt>
      <trkpt lat="46.56979" lon="5.63481">
        <ele>534.4</ele>
        <time>2022-03-07T11:54:29Z</time>
      </trkpt>
      <trkpt lat="46.56983" lon="5.63483">
        <ele>534.4</ele>
        <time>2022-03-07T11:54:30Z</time>
      </trkpt>
      <trkpt lat="46.56988" lon="5.63486">
        <ele>534.2</ele>
        <time>2022-03-07T11:54:31Z</time>
      </trkpt>
      <trkpt lat="46.56992" lon="5.63489">
        <ele>534.2</ele>
        <time>2022-03-07T11:54:32Z</time>
      </trkpt>
      <trkpt lat="46.56996" lon="5.63492">
        <ele>534</ele>
        <time>2022-03-07T11:54:33Z</time>
      </trkpt>
      <trkpt lat="46.57" lon="5.63494">
        <ele>534</ele>
        <time>2022-03-07T11:54:34Z</time>
      </trkpt>
      <trkpt lat="46.57004" lon="5.63497">
        <ele>534</ele>
        <time>2022-03-07T11:54:35Z</time>
      </trkpt>
      <trkpt lat="46.57008" lon="5.63499">
        <ele>534</ele>
        <time>2022-03-07T11:54:36Z</time>
      </trkpt>
      <trkpt lat="46.57012" lon="5.63502">
        <ele>534</ele>
        <time>2022-03-07T11:54:37Z</time>
      </trkpt>
      <trkpt lat="46.57016" lon="5.63504">
        <ele>534</ele>
        <time>2022-03-07T11:54:38Z</time>
      </trkpt>
      <trkpt lat="46.57019" lon="5.63507">
        <ele>533.8</ele>
        <time>2022-03-07T11:54:39Z</time>
      </trkpt>
      <trkpt lat="46.57023" lon="5.6351">
        <ele>533.8</ele>
        <time>2022-03-07T11:54:40Z</time>
      </trkpt>
      <trkpt lat="46.57027" lon="5.63513">
        <ele>533.6</ele>
        <time>2022-03-07T11:54:41Z</time>
      </trkpt>
      <trkpt lat="46.57031" lon="5.63516">
        <ele>533.6</ele>
        <time>2022-03-07T11:54:42Z</time>
      </trkpt>
      <trkpt lat="46.57035" lon="5.63519">
        <ele>533.4</ele>
        <time>2022-03-07T11:54:43Z</time>
      </trkpt>
      <trkpt lat="46.57039" lon="5.63522">
        <ele>533.4</ele>
        <time>2022-03-07T11:54:44Z</time>
      </trkpt>
      <trkpt lat="46.57042" lon="5.63525">
        <ele>533.4</ele>
        <time>2022-03-07T11:54:45Z</time>
      </trkpt>
      <trkpt lat="46.57046" lon="5.63528">
        <ele>533</ele>
        <time>2022-03-07T11:54:46Z</time>
      </trkpt>
      <trkpt lat="46.57049" lon="5.63531">
        <ele>533</ele>
        <time>2022-03-07T11:54:47Z</time>
      </trkpt>
      <trkpt lat="46.57053" lon="5.63534">
        <ele>533</ele>
        <time>2022-03-07T11:54:48Z</time>
      </trkpt>
      <trkpt lat="46.57056" lon="5.63537">
        <ele>533</ele>
        <time>2022-03-07T11:54:49Z</time>
      </trkpt>
      <trkpt lat="46.5706" lon="5.63541">
        <ele>533</ele>
        <time>2022-03-07T11:54:50Z</time>
      </trkpt>
      <trkpt lat="46.57063" lon="5.63544">
        <ele>533</ele>
        <time>2022-03-07T11:54:51Z</time>
      </trkpt>
      <trkpt lat="46.57067" lon="5.63546">
        <ele>533</ele>
        <time>2022-03-07T11:54:52Z</time>
      </trkpt>
      <trkpt lat="46.5707" lon="5.63549">
        <ele>533</ele>
        <time>2022-03-07T11:54:53Z</time>
      </trkpt>
      <trkpt lat="46.57073" lon="5.63552">
        <ele>533</ele>
        <time>2022-03-07T11:54:54Z</time>
      </trkpt>
      <trkpt lat="46.57077" lon="5.63555">
        <ele>533</ele>
        <time>2022-03-07T11:54:55Z</time>
      </trkpt>
      <trkpt lat="46.5708" lon="5.63557">
        <ele>533</ele>
        <time>2022-03-07T11:54:56Z</time>
      </trkpt>
      <trkpt lat="46.57084" lon="5.63559">
        <ele>533.4</ele>
        <time>2022-03-07T11:54:57Z</time>
      </trkpt>
      <trkpt lat="46.57088" lon="5.63562">
        <ele>533.4</ele>
        <time>2022-03-07T11:54:58Z</time>
      </trkpt>
      <trkpt lat="46.57091" lon="5.63563">
        <ele>533.4</ele>
        <time>2022-03-07T11:54:59Z</time>
      </trkpt>
      <trkpt lat="46.57095" lon="5.63565">
        <ele>533.4</ele>
        <time>2022-03-07T11:55:00Z</time>
      </trkpt>
      <trkpt lat="46.57098" lon="5.63567">
        <ele>533.4</ele>
        <time>2022-03-07T11:55:01Z</time>
      </trkpt>
      <trkpt lat="46.57102" lon="5.63569">
        <ele>533.4</ele>
        <time>2022-03-07T11:55:02Z</time>
      </trkpt>
      <trkpt lat="46.57105" lon="5.6357">
        <ele>533.4</ele>
        <time>2022-03-07T11:55:03Z</time>
      </trkpt>
      <trkpt lat="46.57109" lon="5.63572">
        <ele>533.4</ele>
        <time>2022-03-07T11:55:04Z</time>
      </trkpt>
      <trkpt lat="46.57112" lon="5.63574">
        <ele>533.4</ele>
        <time>2022-03-07T11:55:05Z</time>
      </trkpt>
      <trkpt lat="46.57116" lon="5.63576">
        <ele>533.6</ele>
        <time>2022-03-07T11:55:06Z</time>
      </trkpt>
      <trkpt lat="46.5712" lon="5.63577">
        <ele>533.6</ele>
        <time>2022-03-07T11:55:07Z</time>
      </trkpt>
      <trkpt lat="46.57124" lon="5.63579">
        <ele>533.6</ele>
        <time>2022-03-07T11:55:08Z</time>
      </trkpt>
      <trkpt lat="46.57128" lon="5.6358">
        <ele>533.6</ele>
        <time>2022-03-07T11:55:09Z</time>
      </trkpt>
      <trkpt lat="46.57132" lon="5.63582">
        <ele>533.6</ele>
        <time>2022-03-07T11:55:10Z</time>
      </trkpt>
      <trkpt lat="46.57136" lon="5.63583">
        <ele>533.6</ele>
        <time>2022-03-07T11:55:11Z</time>
      </trkpt>
      <trkpt lat="46.57141" lon="5.63585">
        <ele>533.4</ele>
        <time>2022-03-07T11:55:12Z</time>
      </trkpt>
      <trkpt lat="46.57146" lon="5.63585">
        <ele>533.4</ele>
        <time>2022-03-07T11:55:13Z</time>
      </trkpt>
      <trkpt lat="46.5715" lon="5.63586">
        <ele>533</ele>
        <time>2022-03-07T11:55:14Z</time>
      </trkpt>
      <trkpt lat="46.57155" lon="5.63586">
        <ele>533</ele>
        <time>2022-03-07T11:55:15Z</time>
      </trkpt>
      <trkpt lat="46.57159" lon="5.63586">
        <ele>532.8</ele>
        <time>2022-03-07T11:55:16Z</time>
      </trkpt>
      <trkpt lat="46.57164" lon="5.63586">
        <ele>532.8</ele>
        <time>2022-03-07T11:55:17Z</time>
      </trkpt>
      <trkpt lat="46.57169" lon="5.63586">
        <ele>532.6</ele>
        <time>2022-03-07T11:55:18Z</time>
      </trkpt>
      <trkpt lat="46.57173" lon="5.63586">
        <ele>532.6</ele>
        <time>2022-03-07T11:55:19Z</time>
      </trkpt>
      <trkpt lat="46.57178" lon="5.63586">
        <ele>532.6</ele>
        <time>2022-03-07T11:55:20Z</time>
      </trkpt>
      <trkpt lat="46.57182" lon="5.63586">
        <ele>532.4</ele>
        <time>2022-03-07T11:55:21Z</time>
      </trkpt>
      <trkpt lat="46.57187" lon="5.63585">
        <ele>532.4</ele>
        <time>2022-03-07T11:55:22Z</time>
      </trkpt>
      <trkpt lat="46.57192" lon="5.63584">
        <ele>532.4</ele>
        <time>2022-03-07T11:55:23Z</time>
      </trkpt>
      <trkpt lat="46.57197" lon="5.63584">
        <ele>532.4</ele>
        <time>2022-03-07T11:55:24Z</time>
      </trkpt>
      <trkpt lat="46.57201" lon="5.63583">
        <ele>532</ele>
        <time>2022-03-07T11:55:25Z</time>
      </trkpt>
      <trkpt lat="46.57206" lon="5.63583">
        <ele>532</ele>
        <time>2022-03-07T11:55:26Z</time>
      </trkpt>
      <trkpt lat="46.57211" lon="5.63583">
        <ele>532</ele>
        <time>2022-03-07T11:55:27Z</time>
      </trkpt>
      <trkpt lat="46.57215" lon="5.63583">
        <ele>532</ele>
        <time>2022-03-07T11:55:28Z</time>
      </trkpt>
      <trkpt lat="46.5722" lon="5.63584">
        <ele>532</ele>
        <time>2022-03-07T11:55:29Z</time>
      </trkpt>
      <trkpt lat="46.57225" lon="5.63585">
        <ele>532</ele>
        <time>2022-03-07T11:55:30Z</time>
      </trkpt>
      <trkpt lat="46.57229" lon="5.63586">
        <ele>532</ele>
        <time>2022-03-07T11:55:31Z</time>
      </trkpt>
      <trkpt lat="46.57233" lon="5.63588">
        <ele>531.8</ele>
        <time>2022-03-07T11:55:32Z</time>
      </trkpt>
      <trkpt lat="46.57237" lon="5.6359">
        <ele>531.8</ele>
        <time>2022-03-07T11:55:33Z</time>
      </trkpt>
      <trkpt lat="46.57241" lon="5.63592">
        <ele>531.8</ele>
        <time>2022-03-07T11:55:34Z</time>
      </trkpt>
      <trkpt lat="46.57245" lon="5.63594">
        <ele>531.8</ele>
        <time>2022-03-07T11:55:35Z</time>
      </trkpt>
      <trkpt lat="46.57249" lon="5.63596">
        <ele>531.8</ele>
        <time>2022-03-07T11:55:36Z</time>
      </trkpt>
      <trkpt lat="46.57253" lon="5.63597">
        <ele>531.8</ele>
        <time>2022-03-07T11:55:37Z</time>
      </trkpt>
      <trkpt lat="46.57256" lon="5.63598">
        <ele>531.8</ele>
        <time>2022-03-07T11:55:38Z</time>
      </trkpt>
      <trkpt lat="46.5726" lon="5.636">
        <ele>531.8</ele>
        <time>2022-03-07T11:55:39Z</time>
      </trkpt>
      <trkpt lat="46.57264" lon="5.63602">
        <ele>531.8</ele>
        <time>2022-03-07T11:55:40Z</time>
      </trkpt>
      <trkpt lat="46.57268" lon="5.63603">
        <ele>531.8</ele>
        <time>2022-03-07T11:55:41Z</time>
      </trkpt>
      <trkpt lat="46.57272" lon="5.63605">
        <ele>531.8</ele>
        <time>2022-03-07T11:55:42Z</time>
      </trkpt>
      <trkpt lat="46.57276" lon="5.63606">
        <ele>531.8</ele>
        <time>2022-03-07T11:55:43Z</time>
      </trkpt>
      <trkpt lat="46.5728" lon="5.63608">
        <ele>531.8</ele>
        <time>2022-03-07T11:55:44Z</time>
      </trkpt>
      <trkpt lat="46.57283" lon="5.63609">
        <ele>532</ele>
        <time>2022-03-07T11:55:45Z</time>
      </trkpt>
      <trkpt lat="46.57287" lon="5.63611">
        <ele>532</ele>
        <time>2022-03-07T11:55:46Z</time>
      </trkpt>
      <trkpt lat="46.57291" lon="5.63612">
        <ele>532</ele>
        <time>2022-03-07T11:55:47Z</time>
      </trkpt>
      <trkpt lat="46.57295" lon="5.63612">
        <ele>532.2</ele>
        <time>2022-03-07T11:55:48Z</time>
      </trkpt>
      <trkpt lat="46.57298" lon="5.63613">
        <ele>532.2</ele>
        <time>2022-03-07T11:55:49Z</time>
      </trkpt>
      <trkpt lat="46.57302" lon="5.63613">
        <ele>532.2</ele>
        <time>2022-03-07T11:55:50Z</time>
      </trkpt>
      <trkpt lat="46.57305" lon="5.63613">
        <ele>532.2</ele>
        <time>2022-03-07T11:55:51Z</time>
      </trkpt>
      <trkpt lat="46.57308" lon="5.63614">
        <ele>532.2</ele>
        <time>2022-03-07T11:55:52Z</time>
      </trkpt>
      <trkpt lat="46.57312" lon="5.63615">
        <ele>532.2</ele>
        <time>2022-03-07T11:55:53Z</time>
      </trkpt>
      <trkpt lat="46.57315" lon="5.63615">
        <ele>532.6</ele>
        <time>2022-03-07T11:55:54Z</time>
      </trkpt>
      <trkpt lat="46.57319" lon="5.63616">
        <ele>532.6</ele>
        <time>2022-03-07T11:55:55Z</time>
      </trkpt>
      <trkpt lat="46.57323" lon="5.63616">
        <ele>532.6</ele>
        <time>2022-03-07T11:55:56Z</time>
      </trkpt>
      <trkpt lat="46.57327" lon="5.63617">
        <ele>532.6</ele>
        <time>2022-03-07T11:55:57Z</time>
      </trkpt>
      <trkpt lat="46.57332" lon="5.63618">
        <ele>532.6</ele>
        <time>2022-03-07T11:55:58Z</time>
      </trkpt>
      <trkpt lat="46.57336" lon="5.6362">
        <ele>532.6</ele>
        <time>2022-03-07T11:55:59Z</time>
      </trkpt>
      <trkpt lat="46.5734" lon="5.63623">
        <ele>532.6</ele>
        <time>2022-03-07T11:56:00Z</time>
      </trkpt>
      <trkpt lat="46.57343" lon="5.63627">
        <ele>532.6</ele>
        <time>2022-03-07T11:56:01Z</time>
      </trkpt>
      <trkpt lat="46.57345" lon="5.63632">
        <ele>532.6</ele>
        <time>2022-03-07T11:56:02Z</time>
      </trkpt>
      <trkpt lat="46.57347" lon="5.63637">
        <ele>532.6</ele>
        <time>2022-03-07T11:56:03Z</time>
      </trkpt>
      <trkpt lat="46.57349" lon="5.63643">
        <ele>532.6</ele>
        <time>2022-03-07T11:56:04Z</time>
      </trkpt>
      <trkpt lat="46.5735" lon="5.63648">
        <ele>532.6</ele>
        <time>2022-03-07T11:56:05Z</time>
      </trkpt>
      <trkpt lat="46.57352" lon="5.63654">
        <ele>532.6</ele>
        <time>2022-03-07T11:56:06Z</time>
      </trkpt>
      <trkpt lat="46.57353" lon="5.63659">
        <ele>532.6</ele>
        <time>2022-03-07T11:56:07Z</time>
      </trkpt>
      <trkpt lat="46.57355" lon="5.63665">
        <ele>532.6</ele>
        <time>2022-03-07T11:56:08Z</time>
      </trkpt>
      <trkpt lat="46.57356" lon="5.6367">
        <ele>532.6</ele>
        <time>2022-03-07T11:56:09Z</time>
      </trkpt>
      <trkpt lat="46.57358" lon="5.63675">
        <ele>532.6</ele>
        <time>2022-03-07T11:56:10Z</time>
      </trkpt>
      <trkpt lat="46.57359" lon="5.6368">
        <ele>532.6</ele>
        <time>2022-03-07T11:56:11Z</time>
      </trkpt>
      <trkpt lat="46.57361" lon="5.63685">
        <ele>532.6</ele>
        <time>2022-03-07T11:56:12Z</time>
      </trkpt>
      <trkpt lat="46.57362" lon="5.6369">
        <ele>532.6</ele>
        <time>2022-03-07T11:56:13Z</time>
      </trkpt>
      <trkpt lat="46.57363" lon="5.63695">
        <ele>532.6</ele>
        <time>2022-03-07T11:56:14Z</time>
      </trkpt>
      <trkpt lat="46.57364" lon="5.637">
        <ele>532.6</ele>
        <time>2022-03-07T11:56:15Z</time>
      </trkpt>
      <trkpt lat="46.57366" lon="5.63705">
        <ele>532.8</ele>
        <time>2022-03-07T11:56:16Z</time>
      </trkpt>
      <trkpt lat="46.57367" lon="5.6371">
        <ele>532.8</ele>
        <time>2022-03-07T11:56:17Z</time>
      </trkpt>
      <trkpt lat="46.57369" lon="5.63715">
        <ele>532.8</ele>
        <time>2022-03-07T11:56:18Z</time>
      </trkpt>
      <trkpt lat="46.5737" lon="5.6372">
        <ele>532.8</ele>
        <time>2022-03-07T11:56:19Z</time>
      </trkpt>
      <trkpt lat="46.57372" lon="5.63725">
        <ele>532.8</ele>
        <time>2022-03-07T11:56:20Z</time>
      </trkpt>
      <trkpt lat="46.57373" lon="5.6373">
        <ele>532.8</ele>
        <time>2022-03-07T11:56:21Z</time>
      </trkpt>
      <trkpt lat="46.57375" lon="5.63735">
        <ele>532.8</ele>
        <time>2022-03-07T11:56:22Z</time>
      </trkpt>
      <trkpt lat="46.57376" lon="5.6374">
        <ele>532.8</ele>
        <time>2022-03-07T11:56:23Z</time>
      </trkpt>
      <trkpt lat="46.57378" lon="5.63745">
        <ele>532.8</ele>
        <time>2022-03-07T11:56:24Z</time>
      </trkpt>
      <trkpt lat="46.57379" lon="5.6375">
        <ele>532.8</ele>
        <time>2022-03-07T11:56:25Z</time>
      </trkpt>
      <trkpt lat="46.57381" lon="5.63755">
        <ele>532.8</ele>
        <time>2022-03-07T11:56:26Z</time>
      </trkpt>
      <trkpt lat="46.57382" lon="5.6376">
        <ele>532.8</ele>
        <time>2022-03-07T11:56:27Z</time>
      </trkpt>
      <trkpt lat="46.57384" lon="5.63765">
        <ele>533</ele>
        <time>2022-03-07T11:56:28Z</time>
      </trkpt>
      <trkpt lat="46.57385" lon="5.63771">
        <ele>533</ele>
        <time>2022-03-07T11:56:29Z</time>
      </trkpt>
      <trkpt lat="46.57387" lon="5.63776">
        <ele>533</ele>
        <time>2022-03-07T11:56:30Z</time>
      </trkpt>
      <trkpt lat="46.57388" lon="5.63781">
        <ele>533</ele>
        <time>2022-03-07T11:56:31Z</time>
      </trkpt>
      <trkpt lat="46.5739" lon="5.63786">
        <ele>533.2</ele>
        <time>2022-03-07T11:56:32Z</time>
      </trkpt>
      <trkpt lat="46.57391" lon="5.63791">
        <ele>533.2</ele>
        <time>2022-03-07T11:56:33Z</time>
      </trkpt>
      <trkpt lat="46.57392" lon="5.63796">
        <ele>533.2</ele>
        <time>2022-03-07T11:56:34Z</time>
      </trkpt>
      <trkpt lat="46.57394" lon="5.63801">
        <ele>533.2</ele>
        <time>2022-03-07T11:56:35Z</time>
      </trkpt>
      <trkpt lat="46.57395" lon="5.63806">
        <ele>533.4</ele>
        <time>2022-03-07T11:56:36Z</time>
      </trkpt>
      <trkpt lat="46.57397" lon="5.63811">
        <ele>533.4</ele>
        <time>2022-03-07T11:56:37Z</time>
      </trkpt>
      <trkpt lat="46.57398" lon="5.63816">
        <ele>533.4</ele>
        <time>2022-03-07T11:56:38Z</time>
      </trkpt>
      <trkpt lat="46.57399" lon="5.63821">
        <ele>533.4</ele>
        <time>2022-03-07T11:56:39Z</time>
      </trkpt>
      <trkpt lat="46.57401" lon="5.63826">
        <ele>533.8</ele>
        <time>2022-03-07T11:56:40Z</time>
      </trkpt>
      <trkpt lat="46.57402" lon="5.63831">
        <ele>533.8</ele>
        <time>2022-03-07T11:56:41Z</time>
      </trkpt>
      <trkpt lat="46.57404" lon="5.63836">
        <ele>533.8</ele>
        <time>2022-03-07T11:56:42Z</time>
      </trkpt>
      <trkpt lat="46.57405" lon="5.63841">
        <ele>533.8</ele>
        <time>2022-03-07T11:56:43Z</time>
      </trkpt>
      <trkpt lat="46.57407" lon="5.63845">
        <ele>533.8</ele>
        <time>2022-03-07T11:56:44Z</time>
      </trkpt>
      <trkpt lat="46.57409" lon="5.63849">
        <ele>534</ele>
        <time>2022-03-07T11:56:45Z</time>
      </trkpt>
      <trkpt lat="46.57411" lon="5.63853">
        <ele>534</ele>
        <time>2022-03-07T11:56:46Z</time>
      </trkpt>
      <trkpt lat="46.57413" lon="5.63857">
        <ele>534</ele>
        <time>2022-03-07T11:56:47Z</time>
      </trkpt>
      <trkpt lat="46.57415" lon="5.63862">
        <ele>534</ele>
        <time>2022-03-07T11:56:48Z</time>
      </trkpt>
      <trkpt lat="46.57418" lon="5.63866">
        <ele>534</ele>
        <time>2022-03-07T11:56:49Z</time>
      </trkpt>
      <trkpt lat="46.5742" lon="5.63869">
        <ele>534.2</ele>
        <time>2022-03-07T11:56:50Z</time>
      </trkpt>
      <trkpt lat="46.57422" lon="5.63873">
        <ele>534.2</ele>
        <time>2022-03-07T11:56:51Z</time>
      </trkpt>
      <trkpt lat="46.57424" lon="5.63877">
        <ele>534.2</ele>
        <time>2022-03-07T11:56:52Z</time>
      </trkpt>
      <trkpt lat="46.57427" lon="5.6388">
        <ele>534.2</ele>
        <time>2022-03-07T11:56:53Z</time>
      </trkpt>
      <trkpt lat="46.5743" lon="5.63884">
        <ele>534.2</ele>
        <time>2022-03-07T11:56:54Z</time>
      </trkpt>
      <trkpt lat="46.57433" lon="5.63887">
        <ele>534.4</ele>
        <time>2022-03-07T11:56:55Z</time>
      </trkpt>
      <trkpt lat="46.57435" lon="5.63891">
        <ele>534.4</ele>
        <time>2022-03-07T11:56:56Z</time>
      </trkpt>
      <trkpt lat="46.57438" lon="5.63895">
        <ele>534.4</ele>
        <time>2022-03-07T11:56:57Z</time>
      </trkpt>
      <trkpt lat="46.57441" lon="5.63899">
        <ele>534.4</ele>
        <time>2022-03-07T11:56:58Z</time>
      </trkpt>
      <trkpt lat="46.57444" lon="5.63902">
        <ele>534.4</ele>
        <time>2022-03-07T11:56:59Z</time>
      </trkpt>
      <trkpt lat="46.57447" lon="5.63906">
        <ele>534.4</ele>
        <time>2022-03-07T11:57:00Z</time>
      </trkpt>
      <trkpt lat="46.57449" lon="5.6391">
        <ele>534.6</ele>
        <time>2022-03-07T11:57:01Z</time>
      </trkpt>
      <trkpt lat="46.57452" lon="5.63913">
        <ele>534.6</ele>
        <time>2022-03-07T11:57:02Z</time>
      </trkpt>
      <trkpt lat="46.57456" lon="5.63917">
        <ele>534.6</ele>
        <time>2022-03-07T11:57:03Z</time>
      </trkpt>
      <trkpt lat="46.57459" lon="5.63921">
        <ele>534.6</ele>
        <time>2022-03-07T11:57:04Z</time>
      </trkpt>
      <trkpt lat="46.57462" lon="5.63925">
        <ele>534.6</ele>
        <time>2022-03-07T11:57:05Z</time>
      </trkpt>
      <trkpt lat="46.57465" lon="5.63928">
        <ele>534.6</ele>
        <time>2022-03-07T11:57:06Z</time>
      </trkpt>
      <trkpt lat="46.57469" lon="5.63932">
        <ele>534.6</ele>
        <time>2022-03-07T11:57:07Z</time>
      </trkpt>
      <trkpt lat="46.57472" lon="5.63935">
        <ele>534.6</ele>
        <time>2022-03-07T11:57:08Z</time>
      </trkpt>
      <trkpt lat="46.57475" lon="5.63939">
        <ele>535</ele>
        <time>2022-03-07T11:57:09Z</time>
      </trkpt>
      <trkpt lat="46.57478" lon="5.63942">
        <ele>535</ele>
        <time>2022-03-07T11:57:10Z</time>
      </trkpt>
      <trkpt lat="46.57481" lon="5.63945">
        <ele>535</ele>
        <time>2022-03-07T11:57:11Z</time>
      </trkpt>
      <trkpt lat="46.57484" lon="5.63948">
        <ele>535</ele>
        <time>2022-03-07T11:57:12Z</time>
      </trkpt>
      <trkpt lat="46.57487" lon="5.63951">
        <ele>535.2</ele>
        <time>2022-03-07T11:57:13Z</time>
      </trkpt>
      <trkpt lat="46.5749" lon="5.63954">
        <ele>535.2</ele>
        <time>2022-03-07T11:57:14Z</time>
      </trkpt>
      <trkpt lat="46.5749" lon="5.63954">
        <ele>535.2</ele>
        <time>2022-03-07T11:57:15Z</time>
      </trkpt>
      <trkpt lat="46.57493" lon="5.63958">
        <ele>535.2</ele>
        <time>2022-03-07T11:57:16Z</time>
      </trkpt>
      <trkpt lat="46.57496" lon="5.63961">
        <ele>535.2</ele>
        <time>2022-03-07T11:57:17Z</time>
      </trkpt>
      <trkpt lat="46.57498" lon="5.63965">
        <ele>535.2</ele>
        <time>2022-03-07T11:57:18Z</time>
      </trkpt>
      <trkpt lat="46.57499" lon="5.63969">
        <ele>535.2</ele>
        <time>2022-03-07T11:57:19Z</time>
      </trkpt>
      <trkpt lat="46.57499" lon="5.63974">
        <ele>535.2</ele>
        <time>2022-03-07T11:57:20Z</time>
      </trkpt>
      <trkpt lat="46.57498" lon="5.63979">
        <ele>535.2</ele>
        <time>2022-03-07T11:57:21Z</time>
      </trkpt>
      <trkpt lat="46.57497" lon="5.63983">
        <ele>535.2</ele>
        <time>2022-03-07T11:57:22Z</time>
      </trkpt>
      <trkpt lat="46.57495" lon="5.63988">
        <ele>535.2</ele>
        <time>2022-03-07T11:57:23Z</time>
      </trkpt>
      <trkpt lat="46.57493" lon="5.63992">
        <ele>535.4</ele>
        <time>2022-03-07T11:57:24Z</time>
      </trkpt>
      <trkpt lat="46.57491" lon="5.63996">
        <ele>535.4</ele>
        <time>2022-03-07T11:57:25Z</time>
      </trkpt>
      <trkpt lat="46.5749" lon="5.64001">
        <ele>535.4</ele>
        <time>2022-03-07T11:57:26Z</time>
      </trkpt>
      <trkpt lat="46.5749" lon="5.64005">
        <ele>535.4</ele>
        <time>2022-03-07T11:57:27Z</time>
      </trkpt>
      <trkpt lat="46.57491" lon="5.64009">
        <ele>535.4</ele>
        <time>2022-03-07T11:57:28Z</time>
      </trkpt>
      <trkpt lat="46.57493" lon="5.64013">
        <ele>535.4</ele>
        <time>2022-03-07T11:57:29Z</time>
      </trkpt>
      <trkpt lat="46.57495" lon="5.64016">
        <ele>535.4</ele>
        <time>2022-03-07T11:57:30Z</time>
      </trkpt>
      <trkpt lat="46.57498" lon="5.6402">
        <ele>535.4</ele>
        <time>2022-03-07T11:57:31Z</time>
      </trkpt>
      <trkpt lat="46.57501" lon="5.64023">
        <ele>535.6</ele>
        <time>2022-03-07T11:57:32Z</time>
      </trkpt>
      <trkpt lat="46.57504" lon="5.64027">
        <ele>535.6</ele>
        <time>2022-03-07T11:57:33Z</time>
      </trkpt>
      <trkpt lat="46.57506" lon="5.64031">
        <ele>535.6</ele>
        <time>2022-03-07T11:57:34Z</time>
      </trkpt>
      <trkpt lat="46.57509" lon="5.64035">
        <ele>535.6</ele>
        <time>2022-03-07T11:57:35Z</time>
      </trkpt>
      <trkpt lat="46.57511" lon="5.6404">
        <ele>535.6</ele>
        <time>2022-03-07T11:57:36Z</time>
      </trkpt>
      <trkpt lat="46.57513" lon="5.64044">
        <ele>535.6</ele>
        <time>2022-03-07T11:57:37Z</time>
      </trkpt>
      <trkpt lat="46.57515" lon="5.64049">
        <ele>535.6</ele>
        <time>2022-03-07T11:57:38Z</time>
      </trkpt>
      <trkpt lat="46.57517" lon="5.64053">
        <ele>535.6</ele>
        <time>2022-03-07T11:57:39Z</time>
      </trkpt>
      <trkpt lat="46.5752" lon="5.64057">
        <ele>536</ele>
        <time>2022-03-07T11:57:40Z</time>
      </trkpt>
      <trkpt lat="46.57523" lon="5.64061">
        <ele>536</ele>
        <time>2022-03-07T11:57:41Z</time>
      </trkpt>
      <trkpt lat="46.57525" lon="5.64066">
        <ele>536</ele>
        <time>2022-03-07T11:57:42Z</time>
      </trkpt>
      <trkpt lat="46.57527" lon="5.6407">
        <ele>536</ele>
        <time>2022-03-07T11:57:43Z</time>
      </trkpt>
      <trkpt lat="46.5753" lon="5.64073">
        <ele>536.2</ele>
        <time>2022-03-07T11:57:44Z</time>
      </trkpt>
      <trkpt lat="46.57533" lon="5.64076">
        <ele>536.2</ele>
        <time>2022-03-07T11:57:45Z</time>
      </trkpt>
      <trkpt lat="46.57536" lon="5.64077">
        <ele>536.2</ele>
        <time>2022-03-07T11:57:46Z</time>
      </trkpt>
      <trkpt lat="46.5754" lon="5.64079">
        <ele>536.4</ele>
        <time>2022-03-07T11:57:47Z</time>
      </trkpt>
      <trkpt lat="46.57543" lon="5.6408">
        <ele>536.4</ele>
        <time>2022-03-07T11:57:48Z</time>
      </trkpt>
      <trkpt lat="46.57547" lon="5.64082">
        <ele>536.4</ele>
        <time>2022-03-07T11:57:49Z</time>
      </trkpt>
      <trkpt lat="46.57551" lon="5.64084">
        <ele>536.4</ele>
        <time>2022-03-07T11:57:50Z</time>
      </trkpt>
      <trkpt lat="46.57555" lon="5.64085">
        <ele>536.4</ele>
        <time>2022-03-07T11:57:51Z</time>
      </trkpt>
      <trkpt lat="46.57559" lon="5.64086">
        <ele>536.6</ele>
        <time>2022-03-07T11:57:52Z</time>
      </trkpt>
      <trkpt lat="46.57563" lon="5.64086">
        <ele>536.6</ele>
        <time>2022-03-07T11:57:53Z</time>
      </trkpt>
      <trkpt lat="46.57567" lon="5.64087">
        <ele>536.6</ele>
        <time>2022-03-07T11:57:54Z</time>
      </trkpt>
      <trkpt lat="46.57571" lon="5.64087">
        <ele>536.6</ele>
        <time>2022-03-07T11:57:55Z</time>
      </trkpt>
      <trkpt lat="46.57575" lon="5.64087">
        <ele>536.6</ele>
        <time>2022-03-07T11:57:56Z</time>
      </trkpt>
      <trkpt lat="46.5758" lon="5.64087">
        <ele>536.6</ele>
        <time>2022-03-07T11:57:57Z</time>
      </trkpt>
      <trkpt lat="46.57584" lon="5.64088">
        <ele>536.6</ele>
        <time>2022-03-07T11:57:58Z</time>
      </trkpt>
      <trkpt lat="46.57588" lon="5.6409">
        <ele>536.6</ele>
        <time>2022-03-07T11:57:59Z</time>
      </trkpt>
      <trkpt lat="46.57592" lon="5.64092">
        <ele>536.6</ele>
        <time>2022-03-07T11:58:00Z</time>
      </trkpt>
      <trkpt lat="46.57596" lon="5.64095">
        <ele>536.6</ele>
        <time>2022-03-07T11:58:01Z</time>
      </trkpt>
      <trkpt lat="46.576" lon="5.64098">
        <ele>536.6</ele>
        <time>2022-03-07T11:58:02Z</time>
      </trkpt>
      <trkpt lat="46.57604" lon="5.64101">
        <ele>536.6</ele>
        <time>2022-03-07T11:58:03Z</time>
      </trkpt>
      <trkpt lat="46.57608" lon="5.64103">
        <ele>536.6</ele>
        <time>2022-03-07T11:58:04Z</time>
      </trkpt>
      <trkpt lat="46.57612" lon="5.64106">
        <ele>536.6</ele>
        <time>2022-03-07T11:58:05Z</time>
      </trkpt>
      <trkpt lat="46.57615" lon="5.64109">
        <ele>536.6</ele>
        <time>2022-03-07T11:58:06Z</time>
      </trkpt>
      <trkpt lat="46.57619" lon="5.64112">
        <ele>536.6</ele>
        <time>2022-03-07T11:58:07Z</time>
      </trkpt>
      <trkpt lat="46.57623" lon="5.64115">
        <ele>536.6</ele>
        <time>2022-03-07T11:58:08Z</time>
      </trkpt>
      <trkpt lat="46.57627" lon="5.64118">
        <ele>536.6</ele>
        <time>2022-03-07T11:58:09Z</time>
      </trkpt>
      <trkpt lat="46.57631" lon="5.64121">
        <ele>536.6</ele>
        <time>2022-03-07T11:58:10Z</time>
      </trkpt>
      <trkpt lat="46.57635" lon="5.64123">
        <ele>536.8</ele>
        <time>2022-03-07T11:58:11Z</time>
      </trkpt>
      <trkpt lat="46.57638" lon="5.64126">
        <ele>536.8</ele>
        <time>2022-03-07T11:58:12Z</time>
      </trkpt>
      <trkpt lat="46.57642" lon="5.64129">
        <ele>536.8</ele>
        <time>2022-03-07T11:58:13Z</time>
      </trkpt>
      <trkpt lat="46.57645" lon="5.64132">
        <ele>537</ele>
        <time>2022-03-07T11:58:14Z</time>
      </trkpt>
      <trkpt lat="46.57649" lon="5.64134">
        <ele>537</ele>
        <time>2022-03-07T11:58:15Z</time>
      </trkpt>
      <trkpt lat="46.57653" lon="5.64137">
        <ele>537</ele>
        <time>2022-03-07T11:58:16Z</time>
      </trkpt>
      <trkpt lat="46.57657" lon="5.64139">
        <ele>537</ele>
        <time>2022-03-07T11:58:17Z</time>
      </trkpt>
      <trkpt lat="46.5766" lon="5.64142">
        <ele>537</ele>
        <time>2022-03-07T11:58:18Z</time>
      </trkpt>
      <trkpt lat="46.57664" lon="5.64144">
        <ele>537</ele>
        <time>2022-03-07T11:58:19Z</time>
      </trkpt>
      <trkpt lat="46.57668" lon="5.64147">
        <ele>537.2</ele>
        <time>2022-03-07T11:58:20Z</time>
      </trkpt>
      <trkpt lat="46.57671" lon="5.6415">
        <ele>537.2</ele>
        <time>2022-03-07T11:58:21Z</time>
      </trkpt>
      <trkpt lat="46.57675" lon="5.64152">
        <ele>537.2</ele>
        <time>2022-03-07T11:58:22Z</time>
      </trkpt>
      <trkpt lat="46.57679" lon="5.64155">
        <ele>537.2</ele>
        <time>2022-03-07T11:58:23Z</time>
      </trkpt>
      <trkpt lat="46.57683" lon="5.64158">
        <ele>537.2</ele>
        <time>2022-03-07T11:58:24Z</time>
      </trkpt>
      <trkpt lat="46.57687" lon="5.6416">
        <ele>537.2</ele>
        <time>2022-03-07T11:58:25Z</time>
      </trkpt>
      <trkpt lat="46.57691" lon="5.64163">
        <ele>537.2</ele>
        <time>2022-03-07T11:58:26Z</time>
      </trkpt>
      <trkpt lat="46.57695" lon="5.64165">
        <ele>537.2</ele>
        <time>2022-03-07T11:58:27Z</time>
      </trkpt>
      <trkpt lat="46.57699" lon="5.64168">
        <ele>537.2</ele>
        <time>2022-03-07T11:58:28Z</time>
      </trkpt>
      <trkpt lat="46.57703" lon="5.64171">
        <ele>537.2</ele>
        <time>2022-03-07T11:58:29Z</time>
      </trkpt>
      <trkpt lat="46.57707" lon="5.64174">
        <ele>537.2</ele>
        <time>2022-03-07T11:58:30Z</time>
      </trkpt>
      <trkpt lat="46.57711" lon="5.64176">
        <ele>537.2</ele>
        <time>2022-03-07T11:58:31Z</time>
      </trkpt>
      <trkpt lat="46.57715" lon="5.64179">
        <ele>537.6</ele>
        <time>2022-03-07T11:58:32Z</time>
      </trkpt>
      <trkpt lat="46.57719" lon="5.64182">
        <ele>537.6</ele>
        <time>2022-03-07T11:58:33Z</time>
      </trkpt>
      <trkpt lat="46.57723" lon="5.64184">
        <ele>537.6</ele>
        <time>2022-03-07T11:58:34Z</time>
      </trkpt>
      <trkpt lat="46.57727" lon="5.64187">
        <ele>537.6</ele>
        <time>2022-03-07T11:58:35Z</time>
      </trkpt>
      <trkpt lat="46.57731" lon="5.64189">
        <ele>537.6</ele>
        <time>2022-03-07T11:58:36Z</time>
      </trkpt>
      <trkpt lat="46.57735" lon="5.64191">
        <ele>537.6</ele>
        <time>2022-03-07T11:58:37Z</time>
      </trkpt>
      <trkpt lat="46.57739" lon="5.64193">
        <ele>537.6</ele>
        <time>2022-03-07T11:58:38Z</time>
      </trkpt>
      <trkpt lat="46.57743" lon="5.64194">
        <ele>537.6</ele>
        <time>2022-03-07T11:58:39Z</time>
      </trkpt>
      <trkpt lat="46.57747" lon="5.64195">
        <ele>537.8</ele>
        <time>2022-03-07T11:58:40Z</time>
      </trkpt>
      <trkpt lat="46.57751" lon="5.64197">
        <ele>537.8</ele>
        <time>2022-03-07T11:58:41Z</time>
      </trkpt>
      <trkpt lat="46.57754" lon="5.64198">
        <ele>537.8</ele>
        <time>2022-03-07T11:58:42Z</time>
      </trkpt>
      <trkpt lat="46.57758" lon="5.642">
        <ele>537.8</ele>
        <time>2022-03-07T11:58:43Z</time>
      </trkpt>
      <trkpt lat="46.57762" lon="5.64202">
        <ele>537.8</ele>
        <time>2022-03-07T11:58:44Z</time>
      </trkpt>
      <trkpt lat="46.57765" lon="5.64204">
        <ele>538</ele>
        <time>2022-03-07T11:58:45Z</time>
      </trkpt>
      <trkpt lat="46.57769" lon="5.64205">
        <ele>538</ele>
        <time>2022-03-07T11:58:46Z</time>
      </trkpt>
      <trkpt lat="46.57772" lon="5.64207">
        <ele>538</ele>
        <time>2022-03-07T11:58:47Z</time>
      </trkpt>
      <trkpt lat="46.57775" lon="5.64209">
        <ele>538.2</ele>
        <time>2022-03-07T11:58:48Z</time>
      </trkpt>
      <trkpt lat="46.57778" lon="5.64211">
        <ele>538.2</ele>
        <time>2022-03-07T11:58:49Z</time>
      </trkpt>
      <trkpt lat="46.57782" lon="5.64214">
        <ele>538.4</ele>
        <time>2022-03-07T11:58:50Z</time>
      </trkpt>
      <trkpt lat="46.57785" lon="5.64215">
        <ele>538.4</ele>
        <time>2022-03-07T11:58:51Z</time>
      </trkpt>
      <trkpt lat="46.57789" lon="5.64217">
        <ele>538.4</ele>
        <time>2022-03-07T11:58:52Z</time>
      </trkpt>
      <trkpt lat="46.57792" lon="5.64219">
        <ele>538.6</ele>
        <time>2022-03-07T11:58:53Z</time>
      </trkpt>
      <trkpt lat="46.57796" lon="5.64221">
        <ele>538.6</ele>
        <time>2022-03-07T11:58:54Z</time>
      </trkpt>
      <trkpt lat="46.57799" lon="5.64223">
        <ele>538.6</ele>
        <time>2022-03-07T11:58:55Z</time>
      </trkpt>
      <trkpt lat="46.57803" lon="5.64225">
        <ele>539</ele>
        <time>2022-03-07T11:58:56Z</time>
      </trkpt>
      <trkpt lat="46.57806" lon="5.64227">
        <ele>539</ele>
        <time>2022-03-07T11:58:57Z</time>
      </trkpt>
      <trkpt lat="46.5781" lon="5.64229">
        <ele>539</ele>
        <time>2022-03-07T11:58:58Z</time>
      </trkpt>
      <trkpt lat="46.57813" lon="5.64231">
        <ele>539.2</ele>
        <time>2022-03-07T11:58:59Z</time>
      </trkpt>
      <trkpt lat="46.57816" lon="5.64233">
        <ele>539.2</ele>
        <time>2022-03-07T11:59:00Z</time>
      </trkpt>
      <trkpt lat="46.5782" lon="5.64234">
        <ele>539.2</ele>
        <time>2022-03-07T11:59:01Z</time>
      </trkpt>
      <trkpt lat="46.57823" lon="5.64236">
        <ele>539.4</ele>
        <time>2022-03-07T11:59:02Z</time>
      </trkpt>
      <trkpt lat="46.57826" lon="5.64238">
        <ele>539.4</ele>
        <time>2022-03-07T11:59:03Z</time>
      </trkpt>
      <trkpt lat="46.57829" lon="5.6424">
        <ele>539.8</ele>
        <time>2022-03-07T11:59:04Z</time>
      </trkpt>
      <trkpt lat="46.57832" lon="5.64241">
        <ele>539.8</ele>
        <time>2022-03-07T11:59:05Z</time>
      </trkpt>
      <trkpt lat="46.57836" lon="5.64243">
        <ele>540</ele>
        <time>2022-03-07T11:59:06Z</time>
      </trkpt>
      <trkpt lat="46.57839" lon="5.64245">
        <ele>540</ele>
        <time>2022-03-07T11:59:07Z</time>
      </trkpt>
      <trkpt lat="46.57842" lon="5.64247">
        <ele>540.2</ele>
        <time>2022-03-07T11:59:08Z</time>
      </trkpt>
      <trkpt lat="46.57845" lon="5.64248">
        <ele>540.2</ele>
        <time>2022-03-07T11:59:09Z</time>
      </trkpt>
      <trkpt lat="46.57849" lon="5.6425">
        <ele>540.2</ele>
        <time>2022-03-07T11:59:10Z</time>
      </trkpt>
      <trkpt lat="46.57852" lon="5.64251">
        <ele>540.2</ele>
        <time>2022-03-07T11:59:11Z</time>
      </trkpt>
      <trkpt lat="46.57855" lon="5.64253">
        <ele>540.4</ele>
        <time>2022-03-07T11:59:12Z</time>
      </trkpt>
      <trkpt lat="46.57858" lon="5.64255">
        <ele>540.4</ele>
        <time>2022-03-07T11:59:13Z</time>
      </trkpt>
      <trkpt lat="46.57862" lon="5.64257">
        <ele>540.4</ele>
        <time>2022-03-07T11:59:14Z</time>
      </trkpt>
      <trkpt lat="46.57865" lon="5.64259">
        <ele>540.4</ele>
        <time>2022-03-07T11:59:15Z</time>
      </trkpt>
      <trkpt lat="46.57868" lon="5.64261">
        <ele>540.8</ele>
        <time>2022-03-07T11:59:16Z</time>
      </trkpt>
      <trkpt lat="46.57872" lon="5.64263">
        <ele>540.8</ele>
        <time>2022-03-07T11:59:17Z</time>
      </trkpt>
      <trkpt lat="46.57875" lon="5.64265">
        <ele>540.8</ele>
        <time>2022-03-07T11:59:18Z</time>
      </trkpt>
      <trkpt lat="46.57878" lon="5.64266">
        <ele>541</ele>
        <time>2022-03-07T11:59:19Z</time>
      </trkpt>
      <trkpt lat="46.57882" lon="5.64268">
        <ele>541</ele>
        <time>2022-03-07T11:59:20Z</time>
      </trkpt>
      <trkpt lat="46.57885" lon="5.6427">
        <ele>541.2</ele>
        <time>2022-03-07T11:59:21Z</time>
      </trkpt>
      <trkpt lat="46.57888" lon="5.64272">
        <ele>541.2</ele>
        <time>2022-03-07T11:59:22Z</time>
      </trkpt>
      <trkpt lat="46.57891" lon="5.64274">
        <ele>541.2</ele>
        <time>2022-03-07T11:59:23Z</time>
      </trkpt>
      <trkpt lat="46.57895" lon="5.64276">
        <ele>541.2</ele>
        <time>2022-03-07T11:59:24Z</time>
      </trkpt>
      <trkpt lat="46.57898" lon="5.64277">
        <ele>541.2</ele>
        <time>2022-03-07T11:59:25Z</time>
      </trkpt>
      <trkpt lat="46.57901" lon="5.64279">
        <ele>541.4</ele>
        <time>2022-03-07T11:59:26Z</time>
      </trkpt>
      <trkpt lat="46.57904" lon="5.64281">
        <ele>541.4</ele>
        <time>2022-03-07T11:59:27Z</time>
      </trkpt>
      <trkpt lat="46.57908" lon="5.64282">
        <ele>541.6</ele>
        <time>2022-03-07T11:59:28Z</time>
      </trkpt>
      <trkpt lat="46.57911" lon="5.64284">
        <ele>541.6</ele>
        <time>2022-03-07T11:59:29Z</time>
      </trkpt>
      <trkpt lat="46.57914" lon="5.64285">
        <ele>542</ele>
        <time>2022-03-07T11:59:30Z</time>
      </trkpt>
      <trkpt lat="46.57917" lon="5.64288">
        <ele>542</ele>
        <time>2022-03-07T11:59:31Z</time>
      </trkpt>
      <trkpt lat="46.5792" lon="5.6429">
        <ele>542.4</ele>
        <time>2022-03-07T11:59:32Z</time>
      </trkpt>
      <trkpt lat="46.57923" lon="5.64292">
        <ele>542.4</ele>
        <time>2022-03-07T11:59:33Z</time>
      </trkpt>
      <trkpt lat="46.57926" lon="5.64294">
        <ele>542.8</ele>
        <time>2022-03-07T11:59:34Z</time>
      </trkpt>
      <trkpt lat="46.57929" lon="5.64296">
        <ele>542.8</ele>
        <time>2022-03-07T11:59:35Z</time>
      </trkpt>
      <trkpt lat="46.57932" lon="5.64297">
        <ele>543</ele>
        <time>2022-03-07T11:59:36Z</time>
      </trkpt>
      <trkpt lat="46.57935" lon="5.64299">
        <ele>543</ele>
        <time>2022-03-07T11:59:37Z</time>
      </trkpt>
      <trkpt lat="46.57939" lon="5.64301">
        <ele>543</ele>
        <time>2022-03-07T11:59:38Z</time>
      </trkpt>
      <trkpt lat="46.57941" lon="5.64303">
        <ele>543.2</ele>
        <time>2022-03-07T11:59:39Z</time>
      </trkpt>
      <trkpt lat="46.57944" lon="5.64305">
        <ele>543.2</ele>
        <time>2022-03-07T11:59:40Z</time>
      </trkpt>
      <trkpt lat="46.57948" lon="5.64307">
        <ele>543.2</ele>
        <time>2022-03-07T11:59:41Z</time>
      </trkpt>
      <trkpt lat="46.5795" lon="5.64309">
        <ele>543.4</ele>
        <time>2022-03-07T11:59:42Z</time>
      </trkpt>
      <trkpt lat="46.57953" lon="5.64311">
        <ele>543.4</ele>
        <time>2022-03-07T11:59:43Z</time>
      </trkpt>
      <trkpt lat="46.57956" lon="5.64312">
        <ele>543.4</ele>
        <time>2022-03-07T11:59:44Z</time>
      </trkpt>
      <trkpt lat="46.57959" lon="5.64314">
        <ele>543.8</ele>
        <time>2022-03-07T11:59:45Z</time>
      </trkpt>
      <trkpt lat="46.57962" lon="5.64316">
        <ele>543.8</ele>
        <time>2022-03-07T11:59:46Z</time>
      </trkpt>
      <trkpt lat="46.57965" lon="5.64317">
        <ele>543.8</ele>
        <time>2022-03-07T11:59:47Z</time>
      </trkpt>
      <trkpt lat="46.57968" lon="5.64319">
        <ele>543.8</ele>
        <time>2022-03-07T11:59:48Z</time>
      </trkpt>
      <trkpt lat="46.57971" lon="5.64321">
        <ele>543.8</ele>
        <time>2022-03-07T11:59:49Z</time>
      </trkpt>
      <trkpt lat="46.57974" lon="5.64322">
        <ele>544</ele>
        <time>2022-03-07T11:59:50Z</time>
      </trkpt>
      <trkpt lat="46.57977" lon="5.64324">
        <ele>544</ele>
        <time>2022-03-07T11:59:51Z</time>
      </trkpt>
      <trkpt lat="46.5798" lon="5.64325">
        <ele>544</ele>
        <time>2022-03-07T11:59:52Z</time>
      </trkpt>
      <trkpt lat="46.57983" lon="5.64328">
        <ele>544.4</ele>
        <time>2022-03-07T11:59:53Z</time>
      </trkpt>
      <trkpt lat="46.57986" lon="5.6433">
        <ele>544.4</ele>
        <time>2022-03-07T11:59:54Z</time>
      </trkpt>
      <trkpt lat="46.57989" lon="5.64332">
        <ele>544.4</ele>
        <time>2022-03-07T11:59:55Z</time>
      </trkpt>
      <trkpt lat="46.57992" lon="5.64335">
        <ele>544.6</ele>
        <time>2022-03-07T11:59:56Z</time>
      </trkpt>
      <trkpt lat="46.57995" lon="5.64337">
        <ele>544.6</ele>
        <time>2022-03-07T11:59:57Z</time>
      </trkpt>
      <trkpt lat="46.57998" lon="5.64338">
        <ele>544.8</ele>
        <time>2022-03-07T11:59:58Z</time>
      </trkpt>
      <trkpt lat="46.58001" lon="5.6434">
        <ele>544.8</ele>
        <time>2022-03-07T11:59:59Z</time>
      </trkpt>
      <trkpt lat="46.58005" lon="5.64341">
        <ele>544.8</ele>
        <time>2022-03-07T12:00:00Z</time>
      </trkpt>
      <trkpt lat="46.58008" lon="5.64343">
        <ele>545.2</ele>
        <time>2022-03-07T12:00:01Z</time>
      </trkpt>
      <trkpt lat="46.58011" lon="5.64345">
        <ele>545.2</ele>
        <time>2022-03-07T12:00:02Z</time>
      </trkpt>
      <trkpt lat="46.58014" lon="5.64347">
        <ele>545.2</ele>
        <time>2022-03-07T12:00:03Z</time>
      </trkpt>
      <trkpt lat="46.58017" lon="5.64348">
        <ele>545.4</ele>
        <time>2022-03-07T12:00:04Z</time>
      </trkpt>
      <trkpt lat="46.58021" lon="5.6435">
        <ele>545.4</ele>
        <time>2022-03-07T12:00:05Z</time>
      </trkpt>
      <trkpt lat="46.58024" lon="5.64352">
        <ele>545.4</ele>
        <time>2022-03-07T12:00:06Z</time>
      </trkpt>
      <trkpt lat="46.58027" lon="5.64354">
        <ele>545.4</ele>
        <time>2022-03-07T12:00:07Z</time>
      </trkpt>
      <trkpt lat="46.5803" lon="5.64356">
        <ele>545.4</ele>
        <time>2022-03-07T12:00:08Z</time>
      </trkpt>
      <trkpt lat="46.58033" lon="5.64358">
        <ele>545.6</ele>
        <time>2022-03-07T12:00:09Z</time>
      </trkpt>
      <trkpt lat="46.58037" lon="5.6436">
        <ele>545.6</ele>
        <time>2022-03-07T12:00:10Z</time>
      </trkpt>
      <trkpt lat="46.5804" lon="5.64362">
        <ele>545.8</ele>
        <time>2022-03-07T12:00:11Z</time>
      </trkpt>
      <trkpt lat="46.58044" lon="5.64364">
        <ele>545.8</ele>
        <time>2022-03-07T12:00:12Z</time>
      </trkpt>
      <trkpt lat="46.58047" lon="5.64366">
        <ele>545.8</ele>
        <time>2022-03-07T12:00:13Z</time>
      </trkpt>
      <trkpt lat="46.5805" lon="5.64369">
        <ele>545.8</ele>
        <time>2022-03-07T12:00:14Z</time>
      </trkpt>
      <trkpt lat="46.58053" lon="5.64371">
        <ele>546.2</ele>
        <time>2022-03-07T12:00:15Z</time>
      </trkpt>
      <trkpt lat="46.58057" lon="5.64372">
        <ele>546.2</ele>
        <time>2022-03-07T12:00:16Z</time>
      </trkpt>
      <trkpt lat="46.5806" lon="5.64374">
        <ele>546.2</ele>
        <time>2022-03-07T12:00:17Z</time>
      </trkpt>
      <trkpt lat="46.58063" lon="5.64376">
        <ele>546.4</ele>
        <time>2022-03-07T12:00:18Z</time>
      </trkpt>
      <trkpt lat="46.58067" lon="5.64378">
        <ele>546.4</ele>
        <time>2022-03-07T12:00:19Z</time>
      </trkpt>
      <trkpt lat="46.5807" lon="5.6438">
        <ele>546.4</ele>
        <time>2022-03-07T12:00:20Z</time>
      </trkpt>
      <trkpt lat="46.58073" lon="5.64382">
        <ele>546.6</ele>
        <time>2022-03-07T12:00:21Z</time>
      </trkpt>
      <trkpt lat="46.58076" lon="5.64384">
        <ele>546.6</ele>
        <time>2022-03-07T12:00:22Z</time>
      </trkpt>
      <trkpt lat="46.58079" lon="5.64386">
        <ele>546.8</ele>
        <time>2022-03-07T12:00:23Z</time>
      </trkpt>
      <trkpt lat="46.58082" lon="5.64388">
        <ele>547</ele>
        <time>2022-03-07T12:00:24Z</time>
      </trkpt>
      <trkpt lat="46.58085" lon="5.6439">
        <ele>547.4</ele>
        <time>2022-03-07T12:00:25Z</time>
      </trkpt>
      <trkpt lat="46.58088" lon="5.64392">
        <ele>547.4</ele>
        <time>2022-03-07T12:00:26Z</time>
      </trkpt>
      <trkpt lat="46.58091" lon="5.64394">
        <ele>547.6</ele>
        <time>2022-03-07T12:00:27Z</time>
      </trkpt>
      <trkpt lat="46.58093" lon="5.64396">
        <ele>547.6</ele>
        <time>2022-03-07T12:00:28Z</time>
      </trkpt>
      <trkpt lat="46.58096" lon="5.64398">
        <ele>547.8</ele>
        <time>2022-03-07T12:00:29Z</time>
      </trkpt>
      <trkpt lat="46.58099" lon="5.644">
        <ele>547.8</ele>
        <time>2022-03-07T12:00:30Z</time>
      </trkpt>
      <trkpt lat="46.58103" lon="5.64401">
        <ele>547.8</ele>
        <time>2022-03-07T12:00:31Z</time>
      </trkpt>
      <trkpt lat="46.58106" lon="5.64402">
        <ele>547.8</ele>
        <time>2022-03-07T12:00:32Z</time>
      </trkpt>
      <trkpt lat="46.58109" lon="5.64404">
        <ele>547.8</ele>
        <time>2022-03-07T12:00:33Z</time>
      </trkpt>
      <trkpt lat="46.58112" lon="5.64406">
        <ele>547.8</ele>
        <time>2022-03-07T12:00:34Z</time>
      </trkpt>
      <trkpt lat="46.58115" lon="5.64408">
        <ele>547.8</ele>
        <time>2022-03-07T12:00:35Z</time>
      </trkpt>
      <trkpt lat="46.58118" lon="5.6441">
        <ele>547.8</ele>
        <time>2022-03-07T12:00:36Z</time>
      </trkpt>
      <trkpt lat="46.58122" lon="5.64412">
        <ele>548.2</ele>
        <time>2022-03-07T12:00:37Z</time>
      </trkpt>
      <trkpt lat="46.58125" lon="5.64414">
        <ele>548.2</ele>
        <time>2022-03-07T12:00:38Z</time>
      </trkpt>
      <trkpt lat="46.58128" lon="5.64416">
        <ele>548.2</ele>
        <time>2022-03-07T12:00:39Z</time>
      </trkpt>
      <trkpt lat="46.58131" lon="5.64418">
        <ele>548.4</ele>
        <time>2022-03-07T12:00:40Z</time>
      </trkpt>
      <trkpt lat="46.58134" lon="5.6442">
        <ele>548.4</ele>
        <time>2022-03-07T12:00:41Z</time>
      </trkpt>
      <trkpt lat="46.58137" lon="5.64422">
        <ele>548.4</ele>
        <time>2022-03-07T12:00:42Z</time>
      </trkpt>
      <trkpt lat="46.5814" lon="5.64424">
        <ele>548.6</ele>
        <time>2022-03-07T12:00:43Z</time>
      </trkpt>
      <trkpt lat="46.58143" lon="5.64426">
        <ele>548.8</ele>
        <time>2022-03-07T12:00:44Z</time>
      </trkpt>
      <trkpt lat="46.58146" lon="5.64428">
        <ele>548.8</ele>
        <time>2022-03-07T12:00:45Z</time>
      </trkpt>
      <trkpt lat="46.5815" lon="5.6443">
        <ele>548.8</ele>
        <time>2022-03-07T12:00:46Z</time>
      </trkpt>
      <trkpt lat="46.58153" lon="5.64431">
        <ele>549.2</ele>
        <time>2022-03-07T12:00:47Z</time>
      </trkpt>
      <trkpt lat="46.58156" lon="5.64433">
        <ele>549.2</ele>
        <time>2022-03-07T12:00:48Z</time>
      </trkpt>
      <trkpt lat="46.58159" lon="5.64435">
        <ele>549.4</ele>
        <time>2022-03-07T12:00:49Z</time>
      </trkpt>
      <trkpt lat="46.58162" lon="5.64437">
        <ele>549.8</ele>
        <time>2022-03-07T12:00:50Z</time>
      </trkpt>
      <trkpt lat="46.58165" lon="5.64438">
        <ele>549.8</ele>
        <time>2022-03-07T12:00:51Z</time>
      </trkpt>
      <trkpt lat="46.58168" lon="5.6444">
        <ele>550</ele>
        <time>2022-03-07T12:00:52Z</time>
      </trkpt>
      <trkpt lat="46.58171" lon="5.64442">
        <ele>550.2</ele>
        <time>2022-03-07T12:00:53Z</time>
      </trkpt>
      <trkpt lat="46.58174" lon="5.64444">
        <ele>550.6</ele>
        <time>2022-03-07T12:00:54Z</time>
      </trkpt>
      <trkpt lat="46.58177" lon="5.64446">
        <ele>550.6</ele>
        <time>2022-03-07T12:00:55Z</time>
      </trkpt>
      <trkpt lat="46.5818" lon="5.64448">
        <ele>550.8</ele>
        <time>2022-03-07T12:00:56Z</time>
      </trkpt>
      <trkpt lat="46.58184" lon="5.64449">
        <ele>550.8</ele>
        <time>2022-03-07T12:00:57Z</time>
      </trkpt>
      <trkpt lat="46.58187" lon="5.64451">
        <ele>550.8</ele>
        <time>2022-03-07T12:00:58Z</time>
      </trkpt>
      <trkpt lat="46.5819" lon="5.64454">
        <ele>551</ele>
        <time>2022-03-07T12:00:59Z</time>
      </trkpt>
      <trkpt lat="46.58193" lon="5.64457">
        <ele>551</ele>
        <time>2022-03-07T12:01:00Z</time>
      </trkpt>
      <trkpt lat="46.58196" lon="5.64459">
        <ele>551</ele>
        <time>2022-03-07T12:01:01Z</time>
      </trkpt>
      <trkpt lat="46.58199" lon="5.64462">
        <ele>551.4</ele>
        <time>2022-03-07T12:01:02Z</time>
      </trkpt>
      <trkpt lat="46.58202" lon="5.64465">
        <ele>551.4</ele>
        <time>2022-03-07T12:01:03Z</time>
      </trkpt>
      <trkpt lat="46.58204" lon="5.64468">
        <ele>551.6</ele>
        <time>2022-03-07T12:01:04Z</time>
      </trkpt>
      <trkpt lat="46.58207" lon="5.64471">
        <ele>551.6</ele>
        <time>2022-03-07T12:01:05Z</time>
      </trkpt>
      <trkpt lat="46.58209" lon="5.64474">
        <ele>551.8</ele>
        <time>2022-03-07T12:01:06Z</time>
      </trkpt>
      <trkpt lat="46.58211" lon="5.64477">
        <ele>551.8</ele>
        <time>2022-03-07T12:01:07Z</time>
      </trkpt>
      <trkpt lat="46.58214" lon="5.6448">
        <ele>552</ele>
        <time>2022-03-07T12:01:08Z</time>
      </trkpt>
      <trkpt lat="46.58216" lon="5.64483">
        <ele>552</ele>
        <time>2022-03-07T12:01:09Z</time>
      </trkpt>
      <trkpt lat="46.58218" lon="5.64487">
        <ele>552</ele>
        <time>2022-03-07T12:01:10Z</time>
      </trkpt>
      <trkpt lat="46.58221" lon="5.6449">
        <ele>552.4</ele>
        <time>2022-03-07T12:01:11Z</time>
      </trkpt>
      <trkpt lat="46.58223" lon="5.64494">
        <ele>552.4</ele>
        <time>2022-03-07T12:01:12Z</time>
      </trkpt>
      <trkpt lat="46.58225" lon="5.64497">
        <ele>552.4</ele>
        <time>2022-03-07T12:01:13Z</time>
      </trkpt>
      <trkpt lat="46.58228" lon="5.64501">
        <ele>552.6</ele>
        <time>2022-03-07T12:01:14Z</time>
      </trkpt>
      <trkpt lat="46.5823" lon="5.64505">
        <ele>552.6</ele>
        <time>2022-03-07T12:01:15Z</time>
      </trkpt>
      <trkpt lat="46.58232" lon="5.64509">
        <ele>552.6</ele>
        <time>2022-03-07T12:01:16Z</time>
      </trkpt>
      <trkpt lat="46.58235" lon="5.64514">
        <ele>552.8</ele>
        <time>2022-03-07T12:01:17Z</time>
      </trkpt>
      <trkpt lat="46.58237" lon="5.64518">
        <ele>552.8</ele>
        <time>2022-03-07T12:01:18Z</time>
      </trkpt>
      <trkpt lat="46.5824" lon="5.64522">
        <ele>552.8</ele>
        <time>2022-03-07T12:01:19Z</time>
      </trkpt>
      <trkpt lat="46.58242" lon="5.64526">
        <ele>553</ele>
        <time>2022-03-07T12:01:20Z</time>
      </trkpt>
      <trkpt lat="46.58245" lon="5.6453">
        <ele>553</ele>
        <time>2022-03-07T12:01:21Z</time>
      </trkpt>
      <trkpt lat="46.58248" lon="5.64534">
        <ele>553.2</ele>
        <time>2022-03-07T12:01:22Z</time>
      </trkpt>
      <trkpt lat="46.58251" lon="5.64537">
        <ele>553.2</ele>
        <time>2022-03-07T12:01:23Z</time>
      </trkpt>
      <trkpt lat="46.58253" lon="5.64541">
        <ele>553.2</ele>
        <time>2022-03-07T12:01:24Z</time>
      </trkpt>
      <trkpt lat="46.58256" lon="5.64544">
        <ele>553.2</ele>
        <time>2022-03-07T12:01:25Z</time>
      </trkpt>
      <trkpt lat="46.58259" lon="5.64548">
        <ele>553.2</ele>
        <time>2022-03-07T12:01:26Z</time>
      </trkpt>
      <trkpt lat="46.58262" lon="5.64551">
        <ele>553.2</ele>
        <time>2022-03-07T12:01:27Z</time>
      </trkpt>
      <trkpt lat="46.58265" lon="5.64554">
        <ele>553.4</ele>
        <time>2022-03-07T12:01:28Z</time>
      </trkpt>
      <trkpt lat="46.58267" lon="5.64558">
        <ele>553.4</ele>
        <time>2022-03-07T12:01:29Z</time>
      </trkpt>
      <trkpt lat="46.5827" lon="5.64561">
        <ele>553.4</ele>
        <time>2022-03-07T12:01:30Z</time>
      </trkpt>
      <trkpt lat="46.58273" lon="5.64564">
        <ele>553.4</ele>
        <time>2022-03-07T12:01:31Z</time>
      </trkpt>
      <trkpt lat="46.58276" lon="5.64567">
        <ele>553.6</ele>
        <time>2022-03-07T12:01:32Z</time>
      </trkpt>
      <trkpt lat="46.58279" lon="5.6457">
        <ele>553.6</ele>
        <time>2022-03-07T12:01:33Z</time>
      </trkpt>
      <trkpt lat="46.58282" lon="5.64573">
        <ele>554</ele>
        <time>2022-03-07T12:01:34Z</time>
      </trkpt>
      <trkpt lat="46.58285" lon="5.64576">
        <ele>554</ele>
        <time>2022-03-07T12:01:35Z</time>
      </trkpt>
      <trkpt lat="46.58288" lon="5.64578">
        <ele>554</ele>
        <time>2022-03-07T12:01:36Z</time>
      </trkpt>
      <trkpt lat="46.5829" lon="5.64581">
        <ele>554.2</ele>
        <time>2022-03-07T12:01:37Z</time>
      </trkpt>
      <trkpt lat="46.58293" lon="5.64584">
        <ele>554.2</ele>
        <time>2022-03-07T12:01:38Z</time>
      </trkpt>
      <trkpt lat="46.58296" lon="5.64586">
        <ele>554.2</ele>
        <time>2022-03-07T12:01:39Z</time>
      </trkpt>
      <trkpt lat="46.58298" lon="5.64589">
        <ele>554.2</ele>
        <time>2022-03-07T12:01:40Z</time>
      </trkpt>
      <trkpt lat="46.58301" lon="5.64591">
        <ele>554.4</ele>
        <time>2022-03-07T12:01:41Z</time>
      </trkpt>
      <trkpt lat="46.58304" lon="5.64594">
        <ele>554.4</ele>
        <time>2022-03-07T12:01:42Z</time>
      </trkpt>
      <trkpt lat="46.58307" lon="5.64596">
        <ele>554.6</ele>
        <time>2022-03-07T12:01:43Z</time>
      </trkpt>
      <trkpt lat="46.5831" lon="5.64599">
        <ele>554.6</ele>
        <time>2022-03-07T12:01:44Z</time>
      </trkpt>
      <trkpt lat="46.58313" lon="5.64602">
        <ele>554.8</ele>
        <time>2022-03-07T12:01:45Z</time>
      </trkpt>
      <trkpt lat="46.58316" lon="5.64605">
        <ele>554.8</ele>
        <time>2022-03-07T12:01:46Z</time>
      </trkpt>
      <trkpt lat="46.58319" lon="5.64608">
        <ele>555.2</ele>
        <time>2022-03-07T12:01:47Z</time>
      </trkpt>
      <trkpt lat="46.58322" lon="5.6461">
        <ele>555.2</ele>
        <time>2022-03-07T12:01:48Z</time>
      </trkpt>
      <trkpt lat="46.58325" lon="5.64613">
        <ele>555.4</ele>
        <time>2022-03-07T12:01:49Z</time>
      </trkpt>
      <trkpt lat="46.58328" lon="5.64615">
        <ele>555.4</ele>
        <time>2022-03-07T12:01:50Z</time>
      </trkpt>
      <trkpt lat="46.58331" lon="5.64618">
        <ele>555.6</ele>
        <time>2022-03-07T12:01:51Z</time>
      </trkpt>
      <trkpt lat="46.58334" lon="5.64621">
        <ele>555.6</ele>
        <time>2022-03-07T12:01:52Z</time>
      </trkpt>
      <trkpt lat="46.58337" lon="5.64624">
        <ele>555.8</ele>
        <time>2022-03-07T12:01:53Z</time>
      </trkpt>
      <trkpt lat="46.5834" lon="5.64626">
        <ele>555.8</ele>
        <time>2022-03-07T12:01:54Z</time>
      </trkpt>
      <trkpt lat="46.58342" lon="5.64629">
        <ele>556.2</ele>
        <time>2022-03-07T12:01:55Z</time>
      </trkpt>
      <trkpt lat="46.58345" lon="5.64631">
        <ele>556.2</ele>
        <time>2022-03-07T12:01:56Z</time>
      </trkpt>
      <trkpt lat="46.58348" lon="5.64634">
        <ele>556.2</ele>
        <time>2022-03-07T12:01:57Z</time>
      </trkpt>
      <trkpt lat="46.58351" lon="5.64636">
        <ele>556.2</ele>
        <time>2022-03-07T12:01:58Z</time>
      </trkpt>
      <trkpt lat="46.58353" lon="5.64639">
        <ele>556.4</ele>
        <time>2022-03-07T12:01:59Z</time>
      </trkpt>
      <trkpt lat="46.58356" lon="5.64642">
        <ele>556.4</ele>
        <time>2022-03-07T12:02:00Z</time>
      </trkpt>
      <trkpt lat="46.58359" lon="5.64644">
        <ele>556.4</ele>
        <time>2022-03-07T12:02:01Z</time>
      </trkpt>
      <trkpt lat="46.58362" lon="5.64646">
        <ele>556.8</ele>
        <time>2022-03-07T12:02:02Z</time>
      </trkpt>
      <trkpt lat="46.58364" lon="5.64649">
        <ele>556.8</ele>
        <time>2022-03-07T12:02:03Z</time>
      </trkpt>
      <trkpt lat="46.58367" lon="5.64651">
        <ele>557</ele>
        <time>2022-03-07T12:02:04Z</time>
      </trkpt>
      <trkpt lat="46.5837" lon="5.64654">
        <ele>557</ele>
        <time>2022-03-07T12:02:05Z</time>
      </trkpt>
      <trkpt lat="46.58372" lon="5.64656">
        <ele>557.4</ele>
        <time>2022-03-07T12:02:06Z</time>
      </trkpt>
      <trkpt lat="46.58375" lon="5.64658">
        <ele>557.4</ele>
        <time>2022-03-07T12:02:07Z</time>
      </trkpt>
      <trkpt lat="46.58378" lon="5.64661">
        <ele>557.4</ele>
        <time>2022-03-07T12:02:08Z</time>
      </trkpt>
      <trkpt lat="46.58381" lon="5.64663">
        <ele>557.6</ele>
        <time>2022-03-07T12:02:09Z</time>
      </trkpt>
      <trkpt lat="46.58383" lon="5.64665">
        <ele>557.6</ele>
        <time>2022-03-07T12:02:10Z</time>
      </trkpt>
      <trkpt lat="46.58386" lon="5.64667">
        <ele>558</ele>
        <time>2022-03-07T12:02:11Z</time>
      </trkpt>
      <trkpt lat="46.58388" lon="5.64669">
        <ele>558</ele>
        <time>2022-03-07T12:02:12Z</time>
      </trkpt>
      <trkpt lat="46.58391" lon="5.64671">
        <ele>558.4</ele>
        <time>2022-03-07T12:02:13Z</time>
      </trkpt>
      <trkpt lat="46.58394" lon="5.64672">
        <ele>558.4</ele>
        <time>2022-03-07T12:02:14Z</time>
      </trkpt>
      <trkpt lat="46.58396" lon="5.64674">
        <ele>558.8</ele>
        <time>2022-03-07T12:02:15Z</time>
      </trkpt>
      <trkpt lat="46.58399" lon="5.64676">
        <ele>558.8</ele>
        <time>2022-03-07T12:02:16Z</time>
      </trkpt>
      <trkpt lat="46.58402" lon="5.64678">
        <ele>559</ele>
        <time>2022-03-07T12:02:17Z</time>
      </trkpt>
      <trkpt lat="46.58404" lon="5.64681">
        <ele>559</ele>
        <time>2022-03-07T12:02:18Z</time>
      </trkpt>
      <trkpt lat="46.58407" lon="5.64683">
        <ele>559.2</ele>
        <time>2022-03-07T12:02:19Z</time>
      </trkpt>
      <trkpt lat="46.5841" lon="5.64684">
        <ele>559.2</ele>
        <time>2022-03-07T12:02:20Z</time>
      </trkpt>
      <trkpt lat="46.58413" lon="5.64686">
        <ele>559.4</ele>
        <time>2022-03-07T12:02:21Z</time>
      </trkpt>
      <trkpt lat="46.58416" lon="5.64687">
        <ele>559.4</ele>
        <time>2022-03-07T12:02:22Z</time>
      </trkpt>
      <trkpt lat="46.58419" lon="5.64689">
        <ele>559.6</ele>
        <time>2022-03-07T12:02:23Z</time>
      </trkpt>
      <trkpt lat="46.58421" lon="5.64691">
        <ele>559.6</ele>
        <time>2022-03-07T12:02:24Z</time>
      </trkpt>
      <trkpt lat="46.58424" lon="5.64693">
        <ele>560</ele>
        <time>2022-03-07T12:02:25Z</time>
      </trkpt>
      <trkpt lat="46.58427" lon="5.64695">
        <ele>560</ele>
        <time>2022-03-07T12:02:26Z</time>
      </trkpt>
      <trkpt lat="46.5843" lon="5.64697">
        <ele>560.2</ele>
        <time>2022-03-07T12:02:27Z</time>
      </trkpt>
      <trkpt lat="46.58433" lon="5.647">
        <ele>560.2</ele>
        <time>2022-03-07T12:02:28Z</time>
      </trkpt>
      <trkpt lat="46.58436" lon="5.64701">
        <ele>560.2</ele>
        <time>2022-03-07T12:02:29Z</time>
      </trkpt>
      <trkpt lat="46.58439" lon="5.64703">
        <ele>560.6</ele>
        <time>2022-03-07T12:02:30Z</time>
      </trkpt>
      <trkpt lat="46.58442" lon="5.64705">
        <ele>560.6</ele>
        <time>2022-03-07T12:02:31Z</time>
      </trkpt>
      <trkpt lat="46.58445" lon="5.64706">
        <ele>560.8</ele>
        <time>2022-03-07T12:02:32Z</time>
      </trkpt>
      <trkpt lat="46.58448" lon="5.64708">
        <ele>560.8</ele>
        <time>2022-03-07T12:02:33Z</time>
      </trkpt>
      <trkpt lat="46.58451" lon="5.6471">
        <ele>560.8</ele>
        <time>2022-03-07T12:02:34Z</time>
      </trkpt>
      <trkpt lat="46.58455" lon="5.64712">
        <ele>560.8</ele>
        <time>2022-03-07T12:02:35Z</time>
      </trkpt>
      <trkpt lat="46.58458" lon="5.64715">
        <ele>560.6</ele>
        <time>2022-03-07T12:02:36Z</time>
      </trkpt>
      <trkpt lat="46.58462" lon="5.64717">
        <ele>560.6</ele>
        <time>2022-03-07T12:02:37Z</time>
      </trkpt>
      <trkpt lat="46.58467" lon="5.6472">
        <ele>560.6</ele>
        <time>2022-03-07T12:02:38Z</time>
      </trkpt>
      <trkpt lat="46.58471" lon="5.64723">
        <ele>560.6</ele>
        <time>2022-03-07T12:02:39Z</time>
      </trkpt>
      <trkpt lat="46.58475" lon="5.64726">
        <ele>560.6</ele>
        <time>2022-03-07T12:02:40Z</time>
      </trkpt>
      <trkpt lat="46.5848" lon="5.6473">
        <ele>560.2</ele>
        <time>2022-03-07T12:02:41Z</time>
      </trkpt>
      <trkpt lat="46.58484" lon="5.64733">
        <ele>560.2</ele>
        <time>2022-03-07T12:02:42Z</time>
      </trkpt>
      <trkpt lat="46.58488" lon="5.64737">
        <ele>560</ele>
        <time>2022-03-07T12:02:43Z</time>
      </trkpt>
      <trkpt lat="46.58493" lon="5.64741">
        <ele>560</ele>
        <time>2022-03-07T12:02:44Z</time>
      </trkpt>
      <trkpt lat="46.58497" lon="5.64745">
        <ele>560</ele>
        <time>2022-03-07T12:02:45Z</time>
      </trkpt>
      <trkpt lat="46.58501" lon="5.64749">
        <ele>559.8</ele>
        <time>2022-03-07T12:02:46Z</time>
      </trkpt>
      <trkpt lat="46.58505" lon="5.64753">
        <ele>559.8</ele>
        <time>2022-03-07T12:02:47Z</time>
      </trkpt>
      <trkpt lat="46.5851" lon="5.64756">
        <ele>559.8</ele>
        <time>2022-03-07T12:02:48Z</time>
      </trkpt>
      <trkpt lat="46.58514" lon="5.64759">
        <ele>559.8</ele>
        <time>2022-03-07T12:02:49Z</time>
      </trkpt>
      <trkpt lat="46.58518" lon="5.64761">
        <ele>559.6</ele>
        <time>2022-03-07T12:02:50Z</time>
      </trkpt>
      <trkpt lat="46.58523" lon="5.64762">
        <ele>559.6</ele>
        <time>2022-03-07T12:02:51Z</time>
      </trkpt>
      <trkpt lat="46.58528" lon="5.64762">
        <ele>559.6</ele>
        <time>2022-03-07T12:02:52Z</time>
      </trkpt>
      <trkpt lat="46.58533" lon="5.64762">
        <ele>559.6</ele>
        <time>2022-03-07T12:02:53Z</time>
      </trkpt>
      <trkpt lat="46.58538" lon="5.64761">
        <ele>559.6</ele>
        <time>2022-03-07T12:02:54Z</time>
      </trkpt>
      <trkpt lat="46.58543" lon="5.6476">
        <ele>559.6</ele>
        <time>2022-03-07T12:02:55Z</time>
      </trkpt>
      <trkpt lat="46.58547" lon="5.64759">
        <ele>559.6</ele>
        <time>2022-03-07T12:02:56Z</time>
      </trkpt>
      <trkpt lat="46.58552" lon="5.64758">
        <ele>559.6</ele>
        <time>2022-03-07T12:02:57Z</time>
      </trkpt>
      <trkpt lat="46.58557" lon="5.64757">
        <ele>559.6</ele>
        <time>2022-03-07T12:02:58Z</time>
      </trkpt>
      <trkpt lat="46.58561" lon="5.64756">
        <ele>559.6</ele>
        <time>2022-03-07T12:02:59Z</time>
      </trkpt>
      <trkpt lat="46.58566" lon="5.64755">
        <ele>559.6</ele>
        <time>2022-03-07T12:03:00Z</time>
      </trkpt>
      <trkpt lat="46.58571" lon="5.64754">
        <ele>559.6</ele>
        <time>2022-03-07T12:03:01Z</time>
      </trkpt>
      <trkpt lat="46.58575" lon="5.64754">
        <ele>559.6</ele>
        <time>2022-03-07T12:03:02Z</time>
      </trkpt>
      <trkpt lat="46.5858" lon="5.64754">
        <ele>559.6</ele>
        <time>2022-03-07T12:03:03Z</time>
      </trkpt>
      <trkpt lat="46.58584" lon="5.64755">
        <ele>559.6</ele>
        <time>2022-03-07T12:03:04Z</time>
      </trkpt>
      <trkpt lat="46.58589" lon="5.64756">
        <ele>559.6</ele>
        <time>2022-03-07T12:03:05Z</time>
      </trkpt>
      <trkpt lat="46.58593" lon="5.64757">
        <ele>559.6</ele>
        <time>2022-03-07T12:03:06Z</time>
      </trkpt>
      <trkpt lat="46.58598" lon="5.64757">
        <ele>559.6</ele>
        <time>2022-03-07T12:03:07Z</time>
      </trkpt>
      <trkpt lat="46.58602" lon="5.64758">
        <ele>559.6</ele>
        <time>2022-03-07T12:03:08Z</time>
      </trkpt>
      <trkpt lat="46.58606" lon="5.64759">
        <ele>559.8</ele>
        <time>2022-03-07T12:03:09Z</time>
      </trkpt>
      <trkpt lat="46.5861" lon="5.6476">
        <ele>559.8</ele>
        <time>2022-03-07T12:03:10Z</time>
      </trkpt>
      <trkpt lat="46.58613" lon="5.64761">
        <ele>560.2</ele>
        <time>2022-03-07T12:03:11Z</time>
      </trkpt>
      <trkpt lat="46.58617" lon="5.64761">
        <ele>560.2</ele>
        <time>2022-03-07T12:03:12Z</time>
      </trkpt>
      <trkpt lat="46.58621" lon="5.64761">
        <ele>560.4</ele>
        <time>2022-03-07T12:03:13Z</time>
      </trkpt>
      <trkpt lat="46.58624" lon="5.64761">
        <ele>560.4</ele>
        <time>2022-03-07T12:03:14Z</time>
      </trkpt>
      <trkpt lat="46.58628" lon="5.64761">
        <ele>560.8</ele>
        <time>2022-03-07T12:03:15Z</time>
      </trkpt>
      <trkpt lat="46.58631" lon="5.64761">
        <ele>560.8</ele>
        <time>2022-03-07T12:03:16Z</time>
      </trkpt>
      <trkpt lat="46.58634" lon="5.6476">
        <ele>561</ele>
        <time>2022-03-07T12:03:17Z</time>
      </trkpt>
      <trkpt lat="46.58637" lon="5.64759">
        <ele>561</ele>
        <time>2022-03-07T12:03:18Z</time>
      </trkpt>
      <trkpt lat="46.58641" lon="5.64758">
        <ele>561</ele>
        <time>2022-03-07T12:03:19Z</time>
      </trkpt>
      <trkpt lat="46.58644" lon="5.64757">
        <ele>561.4</ele>
        <time>2022-03-07T12:03:20Z</time>
      </trkpt>
      <trkpt lat="46.58648" lon="5.64757">
        <ele>561.4</ele>
        <time>2022-03-07T12:03:21Z</time>
      </trkpt>
      <trkpt lat="46.58652" lon="5.64757">
        <ele>561.4</ele>
        <time>2022-03-07T12:03:22Z</time>
      </trkpt>
      <trkpt lat="46.58656" lon="5.64757">
        <ele>561.4</ele>
        <time>2022-03-07T12:03:23Z</time>
      </trkpt>
      <trkpt lat="46.5866" lon="5.64758">
        <ele>561.4</ele>
        <time>2022-03-07T12:03:24Z</time>
      </trkpt>
      <trkpt lat="46.58664" lon="5.64759">
        <ele>561.4</ele>
        <time>2022-03-07T12:03:25Z</time>
      </trkpt>
      <trkpt lat="46.58668" lon="5.64761">
        <ele>561.4</ele>
        <time>2022-03-07T12:03:26Z</time>
      </trkpt>
      <trkpt lat="46.58673" lon="5.64763">
        <ele>561</ele>
        <time>2022-03-07T12:03:27Z</time>
      </trkpt>
      <trkpt lat="46.58678" lon="5.64766">
        <ele>561</ele>
        <time>2022-03-07T12:03:28Z</time>
      </trkpt>
      <trkpt lat="46.58683" lon="5.64769">
        <ele>560.6</ele>
        <time>2022-03-07T12:03:29Z</time>
      </trkpt>
      <trkpt lat="46.58688" lon="5.64772">
        <ele>560.6</ele>
        <time>2022-03-07T12:03:30Z</time>
      </trkpt>
      <trkpt lat="46.58692" lon="5.64775">
        <ele>560.2</ele>
        <time>2022-03-07T12:03:31Z</time>
      </trkpt>
      <trkpt lat="46.58698" lon="5.64778">
        <ele>560.2</ele>
        <time>2022-03-07T12:03:32Z</time>
      </trkpt>
      <trkpt lat="46.58703" lon="5.64781">
        <ele>559.8</ele>
        <time>2022-03-07T12:03:33Z</time>
      </trkpt>
      <trkpt lat="46.58708" lon="5.64784">
        <ele>559.8</ele>
        <time>2022-03-07T12:03:34Z</time>
      </trkpt>
      <trkpt lat="46.58713" lon="5.64787">
        <ele>559.6</ele>
        <time>2022-03-07T12:03:35Z</time>
      </trkpt>
      <trkpt lat="46.58718" lon="5.6479">
        <ele>559.6</ele>
        <time>2022-03-07T12:03:36Z</time>
      </trkpt>
      <trkpt lat="46.58722" lon="5.64791">
        <ele>559.4</ele>
        <time>2022-03-07T12:03:37Z</time>
      </trkpt>
      <trkpt lat="46.58727" lon="5.64793">
        <ele>559.4</ele>
        <time>2022-03-07T12:03:38Z</time>
      </trkpt>
      <trkpt lat="46.58731" lon="5.64794">
        <ele>559.4</ele>
        <time>2022-03-07T12:03:39Z</time>
      </trkpt>
      <trkpt lat="46.58735" lon="5.64795">
        <ele>559.4</ele>
        <time>2022-03-07T12:03:40Z</time>
      </trkpt>
      <trkpt lat="46.58739" lon="5.64795">
        <ele>559.4</ele>
        <time>2022-03-07T12:03:41Z</time>
      </trkpt>
      <trkpt lat="46.58744" lon="5.64794">
        <ele>559.4</ele>
        <time>2022-03-07T12:03:42Z</time>
      </trkpt>
      <trkpt lat="46.58748" lon="5.64793">
        <ele>559.4</ele>
        <time>2022-03-07T12:03:43Z</time>
      </trkpt>
      <trkpt lat="46.58753" lon="5.64792">
        <ele>559.4</ele>
        <time>2022-03-07T12:03:44Z</time>
      </trkpt>
      <trkpt lat="46.58757" lon="5.64791">
        <ele>559.4</ele>
        <time>2022-03-07T12:03:45Z</time>
      </trkpt>
      <trkpt lat="46.58761" lon="5.6479">
        <ele>559.6</ele>
        <time>2022-03-07T12:03:46Z</time>
      </trkpt>
      <trkpt lat="46.58765" lon="5.64788">
        <ele>559.6</ele>
        <time>2022-03-07T12:03:47Z</time>
      </trkpt>
      <trkpt lat="46.58769" lon="5.64786">
        <ele>559.6</ele>
        <time>2022-03-07T12:03:48Z</time>
      </trkpt>
      <trkpt lat="46.58772" lon="5.64784">
        <ele>559.6</ele>
        <time>2022-03-07T12:03:49Z</time>
      </trkpt>
      <trkpt lat="46.58776" lon="5.64783">
        <ele>559.6</ele>
        <time>2022-03-07T12:03:50Z</time>
      </trkpt>
      <trkpt lat="46.5878" lon="5.64782">
        <ele>559.6</ele>
        <time>2022-03-07T12:03:51Z</time>
      </trkpt>
      <trkpt lat="46.58785" lon="5.64781">
        <ele>559.6</ele>
        <time>2022-03-07T12:03:52Z</time>
      </trkpt>
      <trkpt lat="46.5879" lon="5.64778">
        <ele>559.2</ele>
        <time>2022-03-07T12:03:53Z</time>
      </trkpt>
      <trkpt lat="46.58795" lon="5.64776">
        <ele>559.2</ele>
        <time>2022-03-07T12:03:54Z</time>
      </trkpt>
      <trkpt lat="46.588" lon="5.64773">
        <ele>559</ele>
        <time>2022-03-07T12:03:55Z</time>
      </trkpt>
      <trkpt lat="46.58805" lon="5.64771">
        <ele>559</ele>
        <time>2022-03-07T12:03:56Z</time>
      </trkpt>
      <trkpt lat="46.5881" lon="5.64769">
        <ele>558.6</ele>
        <time>2022-03-07T12:03:57Z</time>
      </trkpt>
      <trkpt lat="46.58815" lon="5.64767">
        <ele>558.6</ele>
        <time>2022-03-07T12:03:58Z</time>
      </trkpt>
      <trkpt lat="46.58821" lon="5.64765">
        <ele>558.2</ele>
        <time>2022-03-07T12:03:59Z</time>
      </trkpt>
      <trkpt lat="46.58827" lon="5.64763">
        <ele>558.2</ele>
        <time>2022-03-07T12:04:00Z</time>
      </trkpt>
      <trkpt lat="46.58832" lon="5.6476">
        <ele>558</ele>
        <time>2022-03-07T12:04:01Z</time>
      </trkpt>
      <trkpt lat="46.58837" lon="5.64757">
        <ele>558</ele>
        <time>2022-03-07T12:04:02Z</time>
      </trkpt>
      <trkpt lat="46.58842" lon="5.64754">
        <ele>557.6</ele>
        <time>2022-03-07T12:04:03Z</time>
      </trkpt>
      <trkpt lat="46.58847" lon="5.64751">
        <ele>557.6</ele>
        <time>2022-03-07T12:04:04Z</time>
      </trkpt>
      <trkpt lat="46.58852" lon="5.64747">
        <ele>557.2</ele>
        <time>2022-03-07T12:04:05Z</time>
      </trkpt>
      <trkpt lat="46.58857" lon="5.64744">
        <ele>557.2</ele>
        <time>2022-03-07T12:04:06Z</time>
      </trkpt>
      <trkpt lat="46.58862" lon="5.6474">
        <ele>556.8</ele>
        <time>2022-03-07T12:04:07Z</time>
      </trkpt>
      <trkpt lat="46.58868" lon="5.64737">
        <ele>556.6</ele>
        <time>2022-03-07T12:04:08Z</time>
      </trkpt>
      <trkpt lat="46.58874" lon="5.64736">
        <ele>556.6</ele>
        <time>2022-03-07T12:04:09Z</time>
      </trkpt>
      <trkpt lat="46.58881" lon="5.64735">
        <ele>556.4</ele>
        <time>2022-03-07T12:04:10Z</time>
      </trkpt>
      <trkpt lat="46.58887" lon="5.64736">
        <ele>556.4</ele>
        <time>2022-03-07T12:04:11Z</time>
      </trkpt>
      <trkpt lat="46.58894" lon="5.64738">
        <ele>556.4</ele>
        <time>2022-03-07T12:04:12Z</time>
      </trkpt>
      <trkpt lat="46.589" lon="5.64741">
        <ele>556.2</ele>
        <time>2022-03-07T12:04:13Z</time>
      </trkpt>
      <trkpt lat="46.58906" lon="5.64744">
        <ele>556.2</ele>
        <time>2022-03-07T12:04:14Z</time>
      </trkpt>
      <trkpt lat="46.58911" lon="5.64748">
        <ele>556.2</ele>
        <time>2022-03-07T12:04:15Z</time>
      </trkpt>
      <trkpt lat="46.58917" lon="5.64752">
        <ele>556</ele>
        <time>2022-03-07T12:04:16Z</time>
      </trkpt>
      <trkpt lat="46.58922" lon="5.64756">
        <ele>556</ele>
        <time>2022-03-07T12:04:17Z</time>
      </trkpt>
      <trkpt lat="46.58929" lon="5.64759">
        <ele>555.6</ele>
        <time>2022-03-07T12:04:18Z</time>
      </trkpt>
      <trkpt lat="46.58935" lon="5.64761">
        <ele>555.6</ele>
        <time>2022-03-07T12:04:19Z</time>
      </trkpt>
      <trkpt lat="46.58941" lon="5.64762">
        <ele>555.4</ele>
        <time>2022-03-07T12:04:20Z</time>
      </trkpt>
      <trkpt lat="46.58947" lon="5.64762">
        <ele>555.4</ele>
        <time>2022-03-07T12:04:21Z</time>
      </trkpt>
      <trkpt lat="46.58954" lon="5.64762">
        <ele>555.2</ele>
        <time>2022-03-07T12:04:22Z</time>
      </trkpt>
      <trkpt lat="46.58965" lon="5.6476">
        <ele>555.2</ele>
        <time>2022-03-07T12:04:23Z</time>
      </trkpt>
      <trkpt lat="46.58971" lon="5.64757">
        <ele>555</ele>
        <time>2022-03-07T12:04:24Z</time>
      </trkpt>
      <trkpt lat="46.58976" lon="5.64754">
        <ele>555</ele>
        <time>2022-03-07T12:04:25Z</time>
      </trkpt>
      <trkpt lat="46.58981" lon="5.64751">
        <ele>555</ele>
        <time>2022-03-07T12:04:26Z</time>
      </trkpt>
      <trkpt lat="46.58987" lon="5.64748">
        <ele>554.6</ele>
        <time>2022-03-07T12:04:27Z</time>
      </trkpt>
      <trkpt lat="46.58992" lon="5.64744">
        <ele>554.6</ele>
        <time>2022-03-07T12:04:28Z</time>
      </trkpt>
      <trkpt lat="46.58997" lon="5.64739">
        <ele>554.6</ele>
        <time>2022-03-07T12:04:29Z</time>
      </trkpt>
      <trkpt lat="46.59002" lon="5.64735">
        <ele>554.6</ele>
        <time>2022-03-07T12:04:30Z</time>
      </trkpt>
      <trkpt lat="46.59006" lon="5.64731">
        <ele>554.6</ele>
        <time>2022-03-07T12:04:31Z</time>
      </trkpt>
      <trkpt lat="46.59011" lon="5.64727">
        <ele>554.6</ele>
        <time>2022-03-07T12:04:32Z</time>
      </trkpt>
      <trkpt lat="46.59015" lon="5.64723">
        <ele>554.6</ele>
        <time>2022-03-07T12:04:33Z</time>
      </trkpt>
      <trkpt lat="46.59019" lon="5.64719">
        <ele>554.8</ele>
        <time>2022-03-07T12:04:34Z</time>
      </trkpt>
      <trkpt lat="46.59023" lon="5.64716">
        <ele>554.8</ele>
        <time>2022-03-07T12:04:35Z</time>
      </trkpt>
      <trkpt lat="46.59028" lon="5.64712">
        <ele>554.8</ele>
        <time>2022-03-07T12:04:36Z</time>
      </trkpt>
      <trkpt lat="46.59032" lon="5.64709">
        <ele>554.8</ele>
        <time>2022-03-07T12:04:37Z</time>
      </trkpt>
      <trkpt lat="46.59036" lon="5.64705">
        <ele>554.8</ele>
        <time>2022-03-07T12:04:38Z</time>
      </trkpt>
      <trkpt lat="46.5904" lon="5.64702">
        <ele>554.8</ele>
        <time>2022-03-07T12:04:39Z</time>
      </trkpt>
      <trkpt lat="46.59044" lon="5.64698">
        <ele>554.8</ele>
        <time>2022-03-07T12:04:40Z</time>
      </trkpt>
      <trkpt lat="46.59047" lon="5.64695">
        <ele>554.8</ele>
        <time>2022-03-07T12:04:41Z</time>
      </trkpt>
      <trkpt lat="46.59051" lon="5.64692">
        <ele>554.8</ele>
        <time>2022-03-07T12:04:42Z</time>
      </trkpt>
      <trkpt lat="46.59055" lon="5.64689">
        <ele>554.8</ele>
        <time>2022-03-07T12:04:43Z</time>
      </trkpt>
      <trkpt lat="46.59059" lon="5.64686">
        <ele>555.2</ele>
        <time>2022-03-07T12:04:44Z</time>
      </trkpt>
      <trkpt lat="46.59063" lon="5.64683">
        <ele>555.2</ele>
        <time>2022-03-07T12:04:45Z</time>
      </trkpt>
      <trkpt lat="46.59067" lon="5.6468">
        <ele>555.2</ele>
        <time>2022-03-07T12:04:46Z</time>
      </trkpt>
      <trkpt lat="46.5907" lon="5.64677">
        <ele>555.2</ele>
        <time>2022-03-07T12:04:47Z</time>
      </trkpt>
      <trkpt lat="46.59074" lon="5.64674">
        <ele>555.2</ele>
        <time>2022-03-07T12:04:48Z</time>
      </trkpt>
      <trkpt lat="46.59078" lon="5.64672">
        <ele>555.4</ele>
        <time>2022-03-07T12:04:49Z</time>
      </trkpt>
      <trkpt lat="46.59082" lon="5.6467">
        <ele>555.4</ele>
        <time>2022-03-07T12:04:50Z</time>
      </trkpt>
      <trkpt lat="46.59086" lon="5.64667">
        <ele>555.6</ele>
        <time>2022-03-07T12:04:51Z</time>
      </trkpt>
      <trkpt lat="46.59089" lon="5.64665">
        <ele>555.6</ele>
        <time>2022-03-07T12:04:52Z</time>
      </trkpt>
      <trkpt lat="46.59092" lon="5.64662">
        <ele>556</ele>
        <time>2022-03-07T12:04:53Z</time>
      </trkpt>
      <trkpt lat="46.59096" lon="5.6466">
        <ele>556</ele>
        <time>2022-03-07T12:04:54Z</time>
      </trkpt>
      <trkpt lat="46.59099" lon="5.64658">
        <ele>556.2</ele>
        <time>2022-03-07T12:04:55Z</time>
      </trkpt>
      <trkpt lat="46.59102" lon="5.64656">
        <ele>556.2</ele>
        <time>2022-03-07T12:04:56Z</time>
      </trkpt>
      <trkpt lat="46.59106" lon="5.64654">
        <ele>556.6</ele>
        <time>2022-03-07T12:04:57Z</time>
      </trkpt>
      <trkpt lat="46.59109" lon="5.64652">
        <ele>556.6</ele>
        <time>2022-03-07T12:04:58Z</time>
      </trkpt>
      <trkpt lat="46.59112" lon="5.64649">
        <ele>557</ele>
        <time>2022-03-07T12:04:59Z</time>
      </trkpt>
      <trkpt lat="46.59115" lon="5.64647">
        <ele>557</ele>
        <time>2022-03-07T12:05:00Z</time>
      </trkpt>
      <trkpt lat="46.59119" lon="5.64645">
        <ele>557.4</ele>
        <time>2022-03-07T12:05:01Z</time>
      </trkpt>
      <trkpt lat="46.59122" lon="5.64643">
        <ele>557.4</ele>
        <time>2022-03-07T12:05:02Z</time>
      </trkpt>
      <trkpt lat="46.59126" lon="5.64641">
        <ele>557.6</ele>
        <time>2022-03-07T12:05:03Z</time>
      </trkpt>
      <trkpt lat="46.59129" lon="5.64639">
        <ele>557.6</ele>
        <time>2022-03-07T12:05:04Z</time>
      </trkpt>
      <trkpt lat="46.59132" lon="5.64637">
        <ele>558</ele>
        <time>2022-03-07T12:05:05Z</time>
      </trkpt>
      <trkpt lat="46.59135" lon="5.64634">
        <ele>558</ele>
        <time>2022-03-07T12:05:06Z</time>
      </trkpt>
      <trkpt lat="46.59138" lon="5.64632">
        <ele>558.2</ele>
        <time>2022-03-07T12:05:07Z</time>
      </trkpt>
      <trkpt lat="46.59142" lon="5.6463">
        <ele>558.2</ele>
        <time>2022-03-07T12:05:08Z</time>
      </trkpt>
      <trkpt lat="46.59145" lon="5.64628">
        <ele>558.2</ele>
        <time>2022-03-07T12:05:09Z</time>
      </trkpt>
      <trkpt lat="46.59148" lon="5.64627">
        <ele>558.4</ele>
        <time>2022-03-07T12:05:10Z</time>
      </trkpt>
      <trkpt lat="46.59151" lon="5.64625">
        <ele>558.4</ele>
        <time>2022-03-07T12:05:11Z</time>
      </trkpt>
      <trkpt lat="46.59154" lon="5.64624">
        <ele>558.4</ele>
        <time>2022-03-07T12:05:12Z</time>
      </trkpt>
      <trkpt lat="46.59157" lon="5.64622">
        <ele>558.8</ele>
        <time>2022-03-07T12:05:13Z</time>
      </trkpt>
      <trkpt lat="46.5916" lon="5.6462">
        <ele>558.8</ele>
        <time>2022-03-07T12:05:14Z</time>
      </trkpt>
      <trkpt lat="46.59163" lon="5.64618">
        <ele>559</ele>
        <time>2022-03-07T12:05:15Z</time>
      </trkpt>
      <trkpt lat="46.59166" lon="5.64616">
        <ele>559</ele>
        <time>2022-03-07T12:05:16Z</time>
      </trkpt>
      <trkpt lat="46.59168" lon="5.64613">
        <ele>559</ele>
        <time>2022-03-07T12:05:17Z</time>
      </trkpt>
      <trkpt lat="46.59171" lon="5.64611">
        <ele>559.4</ele>
        <time>2022-03-07T12:05:18Z</time>
      </trkpt>
      <trkpt lat="46.59174" lon="5.64609">
        <ele>559.4</ele>
        <time>2022-03-07T12:05:19Z</time>
      </trkpt>
      <trkpt lat="46.59176" lon="5.64606">
        <ele>559.6</ele>
        <time>2022-03-07T12:05:20Z</time>
      </trkpt>
      <trkpt lat="46.59179" lon="5.64604">
        <ele>559.6</ele>
        <time>2022-03-07T12:05:21Z</time>
      </trkpt>
      <trkpt lat="46.59182" lon="5.64601">
        <ele>559.6</ele>
        <time>2022-03-07T12:05:22Z</time>
      </trkpt>
      <trkpt lat="46.59186" lon="5.64599">
        <ele>559.6</ele>
        <time>2022-03-07T12:05:23Z</time>
      </trkpt>
      <trkpt lat="46.59189" lon="5.64596">
        <ele>559.8</ele>
        <time>2022-03-07T12:05:24Z</time>
      </trkpt>
      <trkpt lat="46.59192" lon="5.64595">
        <ele>559.8</ele>
        <time>2022-03-07T12:05:25Z</time>
      </trkpt>
      <trkpt lat="46.59195" lon="5.64594">
        <ele>560.2</ele>
        <time>2022-03-07T12:05:26Z</time>
      </trkpt>
      <trkpt lat="46.59198" lon="5.64593">
        <ele>560.2</ele>
        <time>2022-03-07T12:05:27Z</time>
      </trkpt>
      <trkpt lat="46.59201" lon="5.64592">
        <ele>560.4</ele>
        <time>2022-03-07T12:05:28Z</time>
      </trkpt>
      <trkpt lat="46.59204" lon="5.64592">
        <ele>560.4</ele>
        <time>2022-03-07T12:05:29Z</time>
      </trkpt>
      <trkpt lat="46.59207" lon="5.64592">
        <ele>560.6</ele>
        <time>2022-03-07T12:05:30Z</time>
      </trkpt>
      <trkpt lat="46.59211" lon="5.64592">
        <ele>560.6</ele>
        <time>2022-03-07T12:05:31Z</time>
      </trkpt>
      <trkpt lat="46.59215" lon="5.64592">
        <ele>561</ele>
        <time>2022-03-07T12:05:32Z</time>
      </trkpt>
      <trkpt lat="46.59218" lon="5.64592">
        <ele>561.2</ele>
        <time>2022-03-07T12:05:33Z</time>
      </trkpt>
      <trkpt lat="46.59222" lon="5.64592">
        <ele>561.2</ele>
        <time>2022-03-07T12:05:34Z</time>
      </trkpt>
      <trkpt lat="46.59226" lon="5.64593">
        <ele>561.6</ele>
        <time>2022-03-07T12:05:35Z</time>
      </trkpt>
      <trkpt lat="46.59229" lon="5.64593">
        <ele>561.6</ele>
        <time>2022-03-07T12:05:36Z</time>
      </trkpt>
      <trkpt lat="46.59232" lon="5.64593">
        <ele>561.8</ele>
        <time>2022-03-07T12:05:37Z</time>
      </trkpt>
      <trkpt lat="46.59236" lon="5.64592">
        <ele>561.8</ele>
        <time>2022-03-07T12:05:38Z</time>
      </trkpt>
      <trkpt lat="46.59239" lon="5.64592">
        <ele>561.8</ele>
        <time>2022-03-07T12:05:39Z</time>
      </trkpt>
      <trkpt lat="46.59242" lon="5.64591">
        <ele>562</ele>
        <time>2022-03-07T12:05:40Z</time>
      </trkpt>
      <trkpt lat="46.59245" lon="5.6459">
        <ele>562</ele>
        <time>2022-03-07T12:05:41Z</time>
      </trkpt>
      <trkpt lat="46.59248" lon="5.64589">
        <ele>562</ele>
        <time>2022-03-07T12:05:42Z</time>
      </trkpt>
      <trkpt lat="46.59251" lon="5.64588">
        <ele>562</ele>
        <time>2022-03-07T12:05:43Z</time>
      </trkpt>
      <trkpt lat="46.59254" lon="5.64586">
        <ele>562.4</ele>
        <time>2022-03-07T12:05:44Z</time>
      </trkpt>
      <trkpt lat="46.59257" lon="5.64585">
        <ele>562.4</ele>
        <time>2022-03-07T12:05:45Z</time>
      </trkpt>
      <trkpt lat="46.5926" lon="5.64584">
        <ele>562.4</ele>
        <time>2022-03-07T12:05:46Z</time>
      </trkpt>
      <trkpt lat="46.59264" lon="5.64583">
        <ele>562.4</ele>
        <time>2022-03-07T12:05:47Z</time>
      </trkpt>
      <trkpt lat="46.59267" lon="5.64582">
        <ele>562.4</ele>
        <time>2022-03-07T12:05:48Z</time>
      </trkpt>
      <trkpt lat="46.5927" lon="5.64581">
        <ele>562.4</ele>
        <time>2022-03-07T12:05:49Z</time>
      </trkpt>
      <trkpt lat="46.59273" lon="5.6458">
        <ele>562.6</ele>
        <time>2022-03-07T12:05:50Z</time>
      </trkpt>
      <trkpt lat="46.59277" lon="5.64578">
        <ele>562.6</ele>
        <time>2022-03-07T12:05:51Z</time>
      </trkpt>
      <trkpt lat="46.5928" lon="5.64577">
        <ele>562.6</ele>
        <time>2022-03-07T12:05:52Z</time>
      </trkpt>
      <trkpt lat="46.59284" lon="5.64575">
        <ele>563</ele>
        <time>2022-03-07T12:05:53Z</time>
      </trkpt>
      <trkpt lat="46.59287" lon="5.64573">
        <ele>563</ele>
        <time>2022-03-07T12:05:54Z</time>
      </trkpt>
      <trkpt lat="46.5929" lon="5.64572">
        <ele>563</ele>
        <time>2022-03-07T12:05:55Z</time>
      </trkpt>
      <trkpt lat="46.59294" lon="5.64571">
        <ele>563.2</ele>
        <time>2022-03-07T12:05:56Z</time>
      </trkpt>
      <trkpt lat="46.59297" lon="5.6457">
        <ele>563.2</ele>
        <time>2022-03-07T12:05:57Z</time>
      </trkpt>
      <trkpt lat="46.593" lon="5.64568">
        <ele>563.2</ele>
        <time>2022-03-07T12:05:58Z</time>
      </trkpt>
      <trkpt lat="46.59303" lon="5.64567">
        <ele>563.2</ele>
        <time>2022-03-07T12:05:59Z</time>
      </trkpt>
      <trkpt lat="46.59307" lon="5.64567">
        <ele>563.2</ele>
        <time>2022-03-07T12:06:00Z</time>
      </trkpt>
      <trkpt lat="46.5931" lon="5.64566">
        <ele>563.4</ele>
        <time>2022-03-07T12:06:01Z</time>
      </trkpt>
      <trkpt lat="46.59313" lon="5.64565">
        <ele>563.4</ele>
        <time>2022-03-07T12:06:02Z</time>
      </trkpt>
      <trkpt lat="46.59317" lon="5.64563">
        <ele>563.4</ele>
        <time>2022-03-07T12:06:03Z</time>
      </trkpt>
      <trkpt lat="46.5932" lon="5.64562">
        <ele>563.4</ele>
        <time>2022-03-07T12:06:04Z</time>
      </trkpt>
      <trkpt lat="46.59324" lon="5.64562">
        <ele>563.4</ele>
        <time>2022-03-07T12:06:05Z</time>
      </trkpt>
      <trkpt lat="46.59328" lon="5.64561">
        <ele>563.6</ele>
        <time>2022-03-07T12:06:06Z</time>
      </trkpt>
      <trkpt lat="46.59331" lon="5.6456">
        <ele>563.6</ele>
        <time>2022-03-07T12:06:07Z</time>
      </trkpt>
      <trkpt lat="46.59335" lon="5.6456">
        <ele>563.6</ele>
        <time>2022-03-07T12:06:08Z</time>
      </trkpt>
      <trkpt lat="46.59339" lon="5.6456">
        <ele>563.6</ele>
        <time>2022-03-07T12:06:09Z</time>
      </trkpt>
      <trkpt lat="46.59342" lon="5.6456">
        <ele>564</ele>
        <time>2022-03-07T12:06:10Z</time>
      </trkpt>
      <trkpt lat="46.59345" lon="5.64561">
        <ele>564</ele>
        <time>2022-03-07T12:06:11Z</time>
      </trkpt>
      <trkpt lat="46.59349" lon="5.64561">
        <ele>564.2</ele>
        <time>2022-03-07T12:06:12Z</time>
      </trkpt>
      <trkpt lat="46.59352" lon="5.64562">
        <ele>564.2</ele>
        <time>2022-03-07T12:06:13Z</time>
      </trkpt>
      <trkpt lat="46.59356" lon="5.64563">
        <ele>564.2</ele>
        <time>2022-03-07T12:06:14Z</time>
      </trkpt>
      <trkpt lat="46.59359" lon="5.64564">
        <ele>564.4</ele>
        <time>2022-03-07T12:06:15Z</time>
      </trkpt>
      <trkpt lat="46.59363" lon="5.64564">
        <ele>564.4</ele>
        <time>2022-03-07T12:06:16Z</time>
      </trkpt>
      <trkpt lat="46.59366" lon="5.64564">
        <ele>564.8</ele>
        <time>2022-03-07T12:06:17Z</time>
      </trkpt>
      <trkpt lat="46.5937" lon="5.64566">
        <ele>564.8</ele>
        <time>2022-03-07T12:06:18Z</time>
      </trkpt>
      <trkpt lat="46.59373" lon="5.64567">
        <ele>565</ele>
        <time>2022-03-07T12:06:19Z</time>
      </trkpt>
      <trkpt lat="46.59376" lon="5.64568">
        <ele>565</ele>
        <time>2022-03-07T12:06:20Z</time>
      </trkpt>
      <trkpt lat="46.59379" lon="5.64568">
        <ele>565.4</ele>
        <time>2022-03-07T12:06:21Z</time>
      </trkpt>
      <trkpt lat="46.59383" lon="5.64569">
        <ele>565.4</ele>
        <time>2022-03-07T12:06:22Z</time>
      </trkpt>
      <trkpt lat="46.59386" lon="5.64571">
        <ele>565.6</ele>
        <time>2022-03-07T12:06:23Z</time>
      </trkpt>
      <trkpt lat="46.59389" lon="5.64572">
        <ele>565.6</ele>
        <time>2022-03-07T12:06:24Z</time>
      </trkpt>
      <trkpt lat="46.59392" lon="5.64573">
        <ele>566</ele>
        <time>2022-03-07T12:06:25Z</time>
      </trkpt>
      <trkpt lat="46.59395" lon="5.64574">
        <ele>566</ele>
        <time>2022-03-07T12:06:26Z</time>
      </trkpt>
      <trkpt lat="46.59399" lon="5.64575">
        <ele>566.2</ele>
        <time>2022-03-07T12:06:27Z</time>
      </trkpt>
      <trkpt lat="46.59402" lon="5.64576">
        <ele>566.2</ele>
        <time>2022-03-07T12:06:28Z</time>
      </trkpt>
      <trkpt lat="46.59405" lon="5.64576">
        <ele>566.4</ele>
        <time>2022-03-07T12:06:29Z</time>
      </trkpt>
      <trkpt lat="46.59408" lon="5.64577">
        <ele>566.4</ele>
        <time>2022-03-07T12:06:30Z</time>
      </trkpt>
      <trkpt lat="46.59411" lon="5.64578">
        <ele>566.8</ele>
        <time>2022-03-07T12:06:31Z</time>
      </trkpt>
      <trkpt lat="46.59414" lon="5.64579">
        <ele>566.8</ele>
        <time>2022-03-07T12:06:32Z</time>
      </trkpt>
      <trkpt lat="46.59416" lon="5.64581">
        <ele>567</ele>
        <time>2022-03-07T12:06:33Z</time>
      </trkpt>
      <trkpt lat="46.5942" lon="5.64582">
        <ele>567</ele>
        <time>2022-03-07T12:06:34Z</time>
      </trkpt>
      <trkpt lat="46.59423" lon="5.64583">
        <ele>567.2</ele>
        <time>2022-03-07T12:06:35Z</time>
      </trkpt>
      <trkpt lat="46.59426" lon="5.64584">
        <ele>567.2</ele>
        <time>2022-03-07T12:06:36Z</time>
      </trkpt>
      <trkpt lat="46.59429" lon="5.64585">
        <ele>567.4</ele>
        <time>2022-03-07T12:06:37Z</time>
      </trkpt>
      <trkpt lat="46.59432" lon="5.64586">
        <ele>567.4</ele>
        <time>2022-03-07T12:06:38Z</time>
      </trkpt>
      <trkpt lat="46.59435" lon="5.64587">
        <ele>567.8</ele>
        <time>2022-03-07T12:06:39Z</time>
      </trkpt>
      <trkpt lat="46.59438" lon="5.64588">
        <ele>567.8</ele>
        <time>2022-03-07T12:06:40Z</time>
      </trkpt>
      <trkpt lat="46.59441" lon="5.64589">
        <ele>567.8</ele>
        <time>2022-03-07T12:06:41Z</time>
      </trkpt>
      <trkpt lat="46.59444" lon="5.6459">
        <ele>568</ele>
        <time>2022-03-07T12:06:42Z</time>
      </trkpt>
      <trkpt lat="46.59447" lon="5.6459">
        <ele>568</ele>
        <time>2022-03-07T12:06:43Z</time>
      </trkpt>
      <trkpt lat="46.5945" lon="5.64592">
        <ele>568</ele>
        <time>2022-03-07T12:06:44Z</time>
      </trkpt>
      <trkpt lat="46.59453" lon="5.64593">
        <ele>568</ele>
        <time>2022-03-07T12:06:45Z</time>
      </trkpt>
      <trkpt lat="46.59456" lon="5.64594">
        <ele>568</ele>
        <time>2022-03-07T12:06:46Z</time>
      </trkpt>
      <trkpt lat="46.59459" lon="5.64595">
        <ele>568</ele>
        <time>2022-03-07T12:06:47Z</time>
      </trkpt>
      <trkpt lat="46.59462" lon="5.64596">
        <ele>568</ele>
        <time>2022-03-07T12:06:48Z</time>
      </trkpt>
      <trkpt lat="46.59466" lon="5.64597">
        <ele>568</ele>
        <time>2022-03-07T12:06:49Z</time>
      </trkpt>
      <trkpt lat="46.59469" lon="5.64598">
        <ele>568</ele>
        <time>2022-03-07T12:06:50Z</time>
      </trkpt>
      <trkpt lat="46.59473" lon="5.64598">
        <ele>568</ele>
        <time>2022-03-07T12:06:51Z</time>
      </trkpt>
      <trkpt lat="46.59477" lon="5.64599">
        <ele>568</ele>
        <time>2022-03-07T12:06:52Z</time>
      </trkpt>
      <trkpt lat="46.59481" lon="5.646">
        <ele>568</ele>
        <time>2022-03-07T12:06:53Z</time>
      </trkpt>
      <trkpt lat="46.59485" lon="5.64601">
        <ele>568</ele>
        <time>2022-03-07T12:06:54Z</time>
      </trkpt>
      <trkpt lat="46.59489" lon="5.64602">
        <ele>568.4</ele>
        <time>2022-03-07T12:06:55Z</time>
      </trkpt>
      <trkpt lat="46.59493" lon="5.64603">
        <ele>568.4</ele>
        <time>2022-03-07T12:06:56Z</time>
      </trkpt>
      <trkpt lat="46.59497" lon="5.64604">
        <ele>568.4</ele>
        <time>2022-03-07T12:06:57Z</time>
      </trkpt>
      <trkpt lat="46.59502" lon="5.64605">
        <ele>568.4</ele>
        <time>2022-03-07T12:06:58Z</time>
      </trkpt>
      <trkpt lat="46.59506" lon="5.64606">
        <ele>568.4</ele>
        <time>2022-03-07T12:06:59Z</time>
      </trkpt>
      <trkpt lat="46.59511" lon="5.64608">
        <ele>568.4</ele>
        <time>2022-03-07T12:07:00Z</time>
      </trkpt>
      <trkpt lat="46.59515" lon="5.64609">
        <ele>568.4</ele>
        <time>2022-03-07T12:07:01Z</time>
      </trkpt>
      <trkpt lat="46.5952" lon="5.6461">
        <ele>568.4</ele>
        <time>2022-03-07T12:07:02Z</time>
      </trkpt>
      <trkpt lat="46.59524" lon="5.6461">
        <ele>568.4</ele>
        <time>2022-03-07T12:07:03Z</time>
      </trkpt>
      <trkpt lat="46.59529" lon="5.64611">
        <ele>568.4</ele>
        <time>2022-03-07T12:07:04Z</time>
      </trkpt>
      <trkpt lat="46.59534" lon="5.64613">
        <ele>568.4</ele>
        <time>2022-03-07T12:07:05Z</time>
      </trkpt>
      <trkpt lat="46.59539" lon="5.64614">
        <ele>568</ele>
        <time>2022-03-07T12:07:06Z</time>
      </trkpt>
      <trkpt lat="46.59544" lon="5.64615">
        <ele>568</ele>
        <time>2022-03-07T12:07:07Z</time>
      </trkpt>
      <trkpt lat="46.59548" lon="5.64616">
        <ele>568</ele>
        <time>2022-03-07T12:07:08Z</time>
      </trkpt>
      <trkpt lat="46.59553" lon="5.64618">
        <ele>568</ele>
        <time>2022-03-07T12:07:09Z</time>
      </trkpt>
      <trkpt lat="46.59557" lon="5.64619">
        <ele>568</ele>
        <time>2022-03-07T12:07:10Z</time>
      </trkpt>
      <trkpt lat="46.59562" lon="5.64621">
        <ele>568</ele>
        <time>2022-03-07T12:07:11Z</time>
      </trkpt>
      <trkpt lat="46.59566" lon="5.64623">
        <ele>567.8</ele>
        <time>2022-03-07T12:07:12Z</time>
      </trkpt>
      <trkpt lat="46.5957" lon="5.64624">
        <ele>567.8</ele>
        <time>2022-03-07T12:07:13Z</time>
      </trkpt>
      <trkpt lat="46.59574" lon="5.64625">
        <ele>567.8</ele>
        <time>2022-03-07T12:07:14Z</time>
      </trkpt>
      <trkpt lat="46.59577" lon="5.64626">
        <ele>567.8</ele>
        <time>2022-03-07T12:07:15Z</time>
      </trkpt>
      <trkpt lat="46.59582" lon="5.64627">
        <ele>568</ele>
        <time>2022-03-07T12:07:16Z</time>
      </trkpt>
      <trkpt lat="46.59585" lon="5.64628">
        <ele>568</ele>
        <time>2022-03-07T12:07:17Z</time>
      </trkpt>
      <trkpt lat="46.59589" lon="5.6463">
        <ele>568.2</ele>
        <time>2022-03-07T12:07:18Z</time>
      </trkpt>
      <trkpt lat="46.59593" lon="5.64631">
        <ele>568.2</ele>
        <time>2022-03-07T12:07:19Z</time>
      </trkpt>
      <trkpt lat="46.59596" lon="5.64632">
        <ele>568.2</ele>
        <time>2022-03-07T12:07:20Z</time>
      </trkpt>
      <trkpt lat="46.596" lon="5.64634">
        <ele>568.6</ele>
        <time>2022-03-07T12:07:21Z</time>
      </trkpt>
      <trkpt lat="46.59603" lon="5.64635">
        <ele>568.6</ele>
        <time>2022-03-07T12:07:22Z</time>
      </trkpt>
      <trkpt lat="46.59607" lon="5.64637">
        <ele>569</ele>
        <time>2022-03-07T12:07:23Z</time>
      </trkpt>
      <trkpt lat="46.59611" lon="5.64638">
        <ele>569</ele>
        <time>2022-03-07T12:07:24Z</time>
      </trkpt>
      <trkpt lat="46.59615" lon="5.64639">
        <ele>569.2</ele>
        <time>2022-03-07T12:07:25Z</time>
      </trkpt>
      <trkpt lat="46.59619" lon="5.6464">
        <ele>569.4</ele>
        <time>2022-03-07T12:07:26Z</time>
      </trkpt>
      <trkpt lat="46.59622" lon="5.64641">
        <ele>569.4</ele>
        <time>2022-03-07T12:07:27Z</time>
      </trkpt>
      <trkpt lat="46.59626" lon="5.64641">
        <ele>569.8</ele>
        <time>2022-03-07T12:07:28Z</time>
      </trkpt>
      <trkpt lat="46.5963" lon="5.64642">
        <ele>569.8</ele>
        <time>2022-03-07T12:07:29Z</time>
      </trkpt>
      <trkpt lat="46.59633" lon="5.64642">
        <ele>570</ele>
        <time>2022-03-07T12:07:30Z</time>
      </trkpt>
      <trkpt lat="46.59637" lon="5.64642">
        <ele>570</ele>
        <time>2022-03-07T12:07:31Z</time>
      </trkpt>
      <trkpt lat="46.5964" lon="5.64641">
        <ele>570.4</ele>
        <time>2022-03-07T12:07:32Z</time>
      </trkpt>
      <trkpt lat="46.59644" lon="5.6464">
        <ele>570.4</ele>
        <time>2022-03-07T12:07:33Z</time>
      </trkpt>
      <trkpt lat="46.59647" lon="5.64639">
        <ele>570.4</ele>
        <time>2022-03-07T12:07:34Z</time>
      </trkpt>
      <trkpt lat="46.59651" lon="5.64638">
        <ele>570.6</ele>
        <time>2022-03-07T12:07:35Z</time>
      </trkpt>
      <trkpt lat="46.59655" lon="5.64636">
        <ele>570.6</ele>
        <time>2022-03-07T12:07:36Z</time>
      </trkpt>
      <trkpt lat="46.59658" lon="5.64635">
        <ele>570.6</ele>
        <time>2022-03-07T12:07:37Z</time>
      </trkpt>
      <trkpt lat="46.59662" lon="5.64633">
        <ele>570.8</ele>
        <time>2022-03-07T12:07:38Z</time>
      </trkpt>
      <trkpt lat="46.59665" lon="5.64631">
        <ele>570.8</ele>
        <time>2022-03-07T12:07:39Z</time>
      </trkpt>
      <trkpt lat="46.59669" lon="5.64629">
        <ele>571</ele>
        <time>2022-03-07T12:07:40Z</time>
      </trkpt>
      <trkpt lat="46.59672" lon="5.64627">
        <ele>571</ele>
        <time>2022-03-07T12:07:41Z</time>
      </trkpt>
      <trkpt lat="46.59675" lon="5.64624">
        <ele>571</ele>
        <time>2022-03-07T12:07:42Z</time>
      </trkpt>
      <trkpt lat="46.59678" lon="5.64622">
        <ele>571</ele>
        <time>2022-03-07T12:07:43Z</time>
      </trkpt>
      <trkpt lat="46.59681" lon="5.64619">
        <ele>571.2</ele>
        <time>2022-03-07T12:07:44Z</time>
      </trkpt>
      <trkpt lat="46.59683" lon="5.64617">
        <ele>571.2</ele>
        <time>2022-03-07T12:07:45Z</time>
      </trkpt>
      <trkpt lat="46.59686" lon="5.64615">
        <ele>571.6</ele>
        <time>2022-03-07T12:07:46Z</time>
      </trkpt>
      <trkpt lat="46.59689" lon="5.64612">
        <ele>571.6</ele>
        <time>2022-03-07T12:07:47Z</time>
      </trkpt>
      <trkpt lat="46.59692" lon="5.64609">
        <ele>571.8</ele>
        <time>2022-03-07T12:07:48Z</time>
      </trkpt>
      <trkpt lat="46.59694" lon="5.64606">
        <ele>571.8</ele>
        <time>2022-03-07T12:07:49Z</time>
      </trkpt>
      <trkpt lat="46.59697" lon="5.64603">
        <ele>572.2</ele>
        <time>2022-03-07T12:07:50Z</time>
      </trkpt>
      <trkpt lat="46.597" lon="5.646">
        <ele>572.2</ele>
        <time>2022-03-07T12:07:51Z</time>
      </trkpt>
      <trkpt lat="46.59703" lon="5.64598">
        <ele>572.4</ele>
        <time>2022-03-07T12:07:52Z</time>
      </trkpt>
      <trkpt lat="46.59705" lon="5.64595">
        <ele>572.4</ele>
        <time>2022-03-07T12:07:53Z</time>
      </trkpt>
      <trkpt lat="46.59708" lon="5.64592">
        <ele>572.8</ele>
        <time>2022-03-07T12:07:54Z</time>
      </trkpt>
      <trkpt lat="46.5971" lon="5.6459">
        <ele>572.8</ele>
        <time>2022-03-07T12:07:55Z</time>
      </trkpt>
      <trkpt lat="46.59713" lon="5.64588">
        <ele>573.2</ele>
        <time>2022-03-07T12:07:56Z</time>
      </trkpt>
      <trkpt lat="46.59716" lon="5.64586">
        <ele>573.2</ele>
        <time>2022-03-07T12:07:57Z</time>
      </trkpt>
      <trkpt lat="46.59719" lon="5.64585">
        <ele>573.4</ele>
        <time>2022-03-07T12:07:58Z</time>
      </trkpt>
      <trkpt lat="46.59722" lon="5.64586">
        <ele>573.8</ele>
        <time>2022-03-07T12:07:59Z</time>
      </trkpt>
      <trkpt lat="46.59724" lon="5.64588">
        <ele>573.8</ele>
        <time>2022-03-07T12:08:00Z</time>
      </trkpt>
      <trkpt lat="46.59727" lon="5.64591">
        <ele>574</ele>
        <time>2022-03-07T12:08:01Z</time>
      </trkpt>
      <trkpt lat="46.59729" lon="5.64595">
        <ele>574</ele>
        <time>2022-03-07T12:08:02Z</time>
      </trkpt>
      <trkpt lat="46.5973" lon="5.64601">
        <ele>574</ele>
        <time>2022-03-07T12:08:03Z</time>
      </trkpt>
      <trkpt lat="46.5973" lon="5.64606">
        <ele>574</ele>
        <time>2022-03-07T12:08:04Z</time>
      </trkpt>
      <trkpt lat="46.5973" lon="5.64612">
        <ele>574</ele>
        <time>2022-03-07T12:08:05Z</time>
      </trkpt>
      <trkpt lat="46.59731" lon="5.64618">
        <ele>574</ele>
        <time>2022-03-07T12:08:06Z</time>
      </trkpt>
      <trkpt lat="46.59732" lon="5.64625">
        <ele>574</ele>
        <time>2022-03-07T12:08:07Z</time>
      </trkpt>
      <trkpt lat="46.59732" lon="5.64631">
        <ele>574</ele>
        <time>2022-03-07T12:08:08Z</time>
      </trkpt>
      <trkpt lat="46.59733" lon="5.64638">
        <ele>573.8</ele>
        <time>2022-03-07T12:08:09Z</time>
      </trkpt>
      <trkpt lat="46.59734" lon="5.64646">
        <ele>573.8</ele>
        <time>2022-03-07T12:08:10Z</time>
      </trkpt>
      <trkpt lat="46.59736" lon="5.64653">
        <ele>573.8</ele>
        <time>2022-03-07T12:08:11Z</time>
      </trkpt>
      <trkpt lat="46.59738" lon="5.64661">
        <ele>573.4</ele>
        <time>2022-03-07T12:08:12Z</time>
      </trkpt>
      <trkpt lat="46.5974" lon="5.64668">
        <ele>573.4</ele>
        <time>2022-03-07T12:08:13Z</time>
      </trkpt>
      <trkpt lat="46.59743" lon="5.64676">
        <ele>573</ele>
        <time>2022-03-07T12:08:14Z</time>
      </trkpt>
      <trkpt lat="46.59745" lon="5.64684">
        <ele>573</ele>
        <time>2022-03-07T12:08:15Z</time>
      </trkpt>
      <trkpt lat="46.59748" lon="5.64691">
        <ele>572.8</ele>
        <time>2022-03-07T12:08:16Z</time>
      </trkpt>
      <trkpt lat="46.59752" lon="5.64699">
        <ele>572.8</ele>
        <time>2022-03-07T12:08:17Z</time>
      </trkpt>
      <trkpt lat="46.59755" lon="5.64706">
        <ele>572.2</ele>
        <time>2022-03-07T12:08:18Z</time>
      </trkpt>
      <trkpt lat="46.59759" lon="5.64714">
        <ele>572</ele>
        <time>2022-03-07T12:08:19Z</time>
      </trkpt>
      <trkpt lat="46.59764" lon="5.64721">
        <ele>571.8</ele>
        <time>2022-03-07T12:08:20Z</time>
      </trkpt>
      <trkpt lat="46.59768" lon="5.64729">
        <ele>571.4</ele>
        <time>2022-03-07T12:08:21Z</time>
      </trkpt>
      <trkpt lat="46.59773" lon="5.64737">
        <ele>571.2</ele>
        <time>2022-03-07T12:08:22Z</time>
      </trkpt>
      <trkpt lat="46.59778" lon="5.64744">
        <ele>570.8</ele>
        <time>2022-03-07T12:08:23Z</time>
      </trkpt>
      <trkpt lat="46.59783" lon="5.64752">
        <ele>570.6</ele>
        <time>2022-03-07T12:08:24Z</time>
      </trkpt>
      <trkpt lat="46.59789" lon="5.6476">
        <ele>570.2</ele>
        <time>2022-03-07T12:08:25Z</time>
      </trkpt>
      <trkpt lat="46.59794" lon="5.64768">
        <ele>570</ele>
        <time>2022-03-07T12:08:26Z</time>
      </trkpt>
      <trkpt lat="46.598" lon="5.64776">
        <ele>569.6</ele>
        <time>2022-03-07T12:08:27Z</time>
      </trkpt>
      <trkpt lat="46.59806" lon="5.64785">
        <ele>569.2</ele>
        <time>2022-03-07T12:08:28Z</time>
      </trkpt>
      <trkpt lat="46.59812" lon="5.64793">
        <ele>568.8</ele>
        <time>2022-03-07T12:08:29Z</time>
      </trkpt>
      <trkpt lat="46.59817" lon="5.64802">
        <ele>568.4</ele>
        <time>2022-03-07T12:08:30Z</time>
      </trkpt>
      <trkpt lat="46.59823" lon="5.64811">
        <ele>568</ele>
        <time>2022-03-07T12:08:31Z</time>
      </trkpt>
      <trkpt lat="46.59823" lon="5.64811">
        <ele>567.6</ele>
        <time>2022-03-07T12:08:32Z</time>
      </trkpt>
      <trkpt lat="46.59829" lon="5.6482">
        <ele>567.2</ele>
        <time>2022-03-07T12:08:33Z</time>
      </trkpt>
      <trkpt lat="46.59834" lon="5.64829">
        <ele>566.8</ele>
        <time>2022-03-07T12:08:34Z</time>
      </trkpt>
      <trkpt lat="46.5984" lon="5.64839">
        <ele>566.2</ele>
        <time>2022-03-07T12:08:35Z</time>
      </trkpt>
      <trkpt lat="46.59845" lon="5.64849">
        <ele>565.8</ele>
        <time>2022-03-07T12:08:36Z</time>
      </trkpt>
      <trkpt lat="46.59851" lon="5.6486">
        <ele>565.4</ele>
        <time>2022-03-07T12:08:37Z</time>
      </trkpt>
      <trkpt lat="46.59857" lon="5.64872">
        <ele>564.8</ele>
        <time>2022-03-07T12:08:38Z</time>
      </trkpt>
      <trkpt lat="46.59863" lon="5.64883">
        <ele>564.4</ele>
        <time>2022-03-07T12:08:39Z</time>
      </trkpt>
      <trkpt lat="46.59868" lon="5.64895">
        <ele>563.8</ele>
        <time>2022-03-07T12:08:40Z</time>
      </trkpt>
      <trkpt lat="46.59873" lon="5.64907">
        <ele>563.4</ele>
        <time>2022-03-07T12:08:41Z</time>
      </trkpt>
      <trkpt lat="46.59878" lon="5.64919">
        <ele>562.8</ele>
        <time>2022-03-07T12:08:42Z</time>
      </trkpt>
      <trkpt lat="46.59883" lon="5.6493">
        <ele>562.4</ele>
        <time>2022-03-07T12:08:43Z</time>
      </trkpt>
      <trkpt lat="46.59889" lon="5.64941">
        <ele>561.8</ele>
        <time>2022-03-07T12:08:44Z</time>
      </trkpt>
      <trkpt lat="46.59893" lon="5.64952">
        <ele>561.4</ele>
        <time>2022-03-07T12:08:45Z</time>
      </trkpt>
      <trkpt lat="46.59898" lon="5.64965">
        <ele>560.8</ele>
        <time>2022-03-07T12:08:46Z</time>
      </trkpt>
      <trkpt lat="46.59902" lon="5.64977">
        <ele>560.4</ele>
        <time>2022-03-07T12:08:47Z</time>
      </trkpt>
      <trkpt lat="46.59907" lon="5.64989">
        <ele>560</ele>
        <time>2022-03-07T12:08:48Z</time>
      </trkpt>
      <trkpt lat="46.59911" lon="5.65">
        <ele>559.6</ele>
        <time>2022-03-07T12:08:49Z</time>
      </trkpt>
      <trkpt lat="46.59915" lon="5.65012">
        <ele>559</ele>
        <time>2022-03-07T12:08:50Z</time>
      </trkpt>
      <trkpt lat="46.5992" lon="5.65023">
        <ele>558.6</ele>
        <time>2022-03-07T12:08:51Z</time>
      </trkpt>
      <trkpt lat="46.59925" lon="5.65035">
        <ele>558</ele>
        <time>2022-03-07T12:08:52Z</time>
      </trkpt>
      <trkpt lat="46.5993" lon="5.65047">
        <ele>557.4</ele>
        <time>2022-03-07T12:08:53Z</time>
      </trkpt>
      <trkpt lat="46.59934" lon="5.65058">
        <ele>557</ele>
        <time>2022-03-07T12:08:54Z</time>
      </trkpt>
      <trkpt lat="46.59939" lon="5.6507">
        <ele>556.4</ele>
        <time>2022-03-07T12:08:55Z</time>
      </trkpt>
      <trkpt lat="46.59944" lon="5.65081">
        <ele>555.8</ele>
        <time>2022-03-07T12:08:56Z</time>
      </trkpt>
      <trkpt lat="46.59949" lon="5.65094">
        <ele>555.4</ele>
        <time>2022-03-07T12:08:57Z</time>
      </trkpt>
      <trkpt lat="46.59955" lon="5.65105">
        <ele>555</ele>
        <time>2022-03-07T12:08:58Z</time>
      </trkpt>
      <trkpt lat="46.5996" lon="5.65117">
        <ele>554.4</ele>
        <time>2022-03-07T12:08:59Z</time>
      </trkpt>
      <trkpt lat="46.59965" lon="5.65128">
        <ele>553.6</ele>
        <time>2022-03-07T12:09:00Z</time>
      </trkpt>
      <trkpt lat="46.59971" lon="5.6514">
        <ele>552.8</ele>
        <time>2022-03-07T12:09:01Z</time>
      </trkpt>
      <trkpt lat="46.59977" lon="5.65151">
        <ele>552.2</ele>
        <time>2022-03-07T12:09:02Z</time>
      </trkpt>
      <trkpt lat="46.59982" lon="5.65161">
        <ele>551.8</ele>
        <time>2022-03-07T12:09:03Z</time>
      </trkpt>
      <trkpt lat="46.59987" lon="5.65173">
        <ele>551.2</ele>
        <time>2022-03-07T12:09:04Z</time>
      </trkpt>
      <trkpt lat="46.59991" lon="5.65185">
        <ele>550.8</ele>
        <time>2022-03-07T12:09:05Z</time>
      </trkpt>
      <trkpt lat="46.59995" lon="5.65197">
        <ele>550</ele>
        <time>2022-03-07T12:09:06Z</time>
      </trkpt>
      <trkpt lat="46.59999" lon="5.6521">
        <ele>549.4</ele>
        <time>2022-03-07T12:09:07Z</time>
      </trkpt>
      <trkpt lat="46.60003" lon="5.65222">
        <ele>548.8</ele>
        <time>2022-03-07T12:09:08Z</time>
      </trkpt>
      <trkpt lat="46.60008" lon="5.65235">
        <ele>548.2</ele>
        <time>2022-03-07T12:09:09Z</time>
      </trkpt>
      <trkpt lat="46.60012" lon="5.65247">
        <ele>547.4</ele>
        <time>2022-03-07T12:09:10Z</time>
      </trkpt>
      <trkpt lat="46.60015" lon="5.65261">
        <ele>546.8</ele>
        <time>2022-03-07T12:09:11Z</time>
      </trkpt>
      <trkpt lat="46.60018" lon="5.65276">
        <ele>546.2</ele>
        <time>2022-03-07T12:09:12Z</time>
      </trkpt>
      <trkpt lat="46.60019" lon="5.65291">
        <ele>545.6</ele>
        <time>2022-03-07T12:09:13Z</time>
      </trkpt>
      <trkpt lat="46.60021" lon="5.65305">
        <ele>545</ele>
        <time>2022-03-07T12:09:14Z</time>
      </trkpt>
      <trkpt lat="46.60021" lon="5.6532">
        <ele>544.6</ele>
        <time>2022-03-07T12:09:15Z</time>
      </trkpt>
      <trkpt lat="46.6002" lon="5.65335">
        <ele>544.2</ele>
        <time>2022-03-07T12:09:16Z</time>
      </trkpt>
      <trkpt lat="46.60019" lon="5.6535">
        <ele>543.6</ele>
        <time>2022-03-07T12:09:17Z</time>
      </trkpt>
      <trkpt lat="46.60018" lon="5.65365">
        <ele>543</ele>
        <time>2022-03-07T12:09:18Z</time>
      </trkpt>
      <trkpt lat="46.60018" lon="5.6538">
        <ele>542.4</ele>
        <time>2022-03-07T12:09:19Z</time>
      </trkpt>
      <trkpt lat="46.60017" lon="5.65395">
        <ele>541.8</ele>
        <time>2022-03-07T12:09:20Z</time>
      </trkpt>
      <trkpt lat="46.60016" lon="5.6541">
        <ele>541.4</ele>
        <time>2022-03-07T12:09:21Z</time>
      </trkpt>
      <trkpt lat="46.60015" lon="5.65425">
        <ele>540.8</ele>
        <time>2022-03-07T12:09:22Z</time>
      </trkpt>
      <trkpt lat="46.60014" lon="5.65439">
        <ele>540.4</ele>
        <time>2022-03-07T12:09:23Z</time>
      </trkpt>
      <trkpt lat="46.60013" lon="5.65453">
        <ele>540</ele>
        <time>2022-03-07T12:09:24Z</time>
      </trkpt>
      <trkpt lat="46.60013" lon="5.65468">
        <ele>539.6</ele>
        <time>2022-03-07T12:09:25Z</time>
      </trkpt>
      <trkpt lat="46.60013" lon="5.65482">
        <ele>539</ele>
        <time>2022-03-07T12:09:26Z</time>
      </trkpt>
      <trkpt lat="46.60013" lon="5.65496">
        <ele>538.6</ele>
        <time>2022-03-07T12:09:27Z</time>
      </trkpt>
      <trkpt lat="46.60013" lon="5.6551">
        <ele>538.2</ele>
        <time>2022-03-07T12:09:28Z</time>
      </trkpt>
      <trkpt lat="46.60012" lon="5.65523">
        <ele>537.8</ele>
        <time>2022-03-07T12:09:29Z</time>
      </trkpt>
      <trkpt lat="46.60012" lon="5.65537">
        <ele>537.6</ele>
        <time>2022-03-07T12:09:30Z</time>
      </trkpt>
      <trkpt lat="46.60011" lon="5.65549">
        <ele>537.6</ele>
        <time>2022-03-07T12:09:31Z</time>
      </trkpt>
      <trkpt lat="46.6001" lon="5.65562">
        <ele>537.4</ele>
        <time>2022-03-07T12:09:32Z</time>
      </trkpt>
      <trkpt lat="46.60008" lon="5.65574">
        <ele>537.4</ele>
        <time>2022-03-07T12:09:33Z</time>
      </trkpt>
      <trkpt lat="46.60008" lon="5.65586">
        <ele>537.4</ele>
        <time>2022-03-07T12:09:34Z</time>
      </trkpt>
      <trkpt lat="46.60006" lon="5.65598">
        <ele>537</ele>
        <time>2022-03-07T12:09:35Z</time>
      </trkpt>
      <trkpt lat="46.60005" lon="5.65608">
        <ele>537</ele>
        <time>2022-03-07T12:09:36Z</time>
      </trkpt>
      <trkpt lat="46.60004" lon="5.65619">
        <ele>537</ele>
        <time>2022-03-07T12:09:37Z</time>
      </trkpt>
      <trkpt lat="46.60004" lon="5.65628">
        <ele>536.8</ele>
        <time>2022-03-07T12:09:38Z</time>
      </trkpt>
      <trkpt lat="46.60003" lon="5.65638">
        <ele>536.8</ele>
        <time>2022-03-07T12:09:39Z</time>
      </trkpt>
      <trkpt lat="46.60002" lon="5.65648">
        <ele>536.8</ele>
        <time>2022-03-07T12:09:40Z</time>
      </trkpt>
      <trkpt lat="46.60002" lon="5.65658">
        <ele>536.8</ele>
        <time>2022-03-07T12:09:41Z</time>
      </trkpt>
      <trkpt lat="46.60001" lon="5.65667">
        <ele>536.8</ele>
        <time>2022-03-07T12:09:42Z</time>
      </trkpt>
      <trkpt lat="46.60001" lon="5.65676">
        <ele>536.6</ele>
        <time>2022-03-07T12:09:43Z</time>
      </trkpt>
      <trkpt lat="46.60001" lon="5.65686">
        <ele>536.4</ele>
        <time>2022-03-07T12:09:44Z</time>
      </trkpt>
      <trkpt lat="46.60001" lon="5.65696">
        <ele>536</ele>
        <time>2022-03-07T12:09:45Z</time>
      </trkpt>
      <trkpt lat="46.6" lon="5.65707">
        <ele>535.8</ele>
        <time>2022-03-07T12:09:46Z</time>
      </trkpt>
      <trkpt lat="46.6" lon="5.65718">
        <ele>535.4</ele>
        <time>2022-03-07T12:09:47Z</time>
      </trkpt>
      <trkpt lat="46.6" lon="5.65729">
        <ele>535</ele>
        <time>2022-03-07T12:09:48Z</time>
      </trkpt>
      <trkpt lat="46.59999" lon="5.6574">
        <ele>534.6</ele>
        <time>2022-03-07T12:09:49Z</time>
      </trkpt>
      <trkpt lat="46.59999" lon="5.65751">
        <ele>534.2</ele>
        <time>2022-03-07T12:09:50Z</time>
      </trkpt>
      <trkpt lat="46.59998" lon="5.65762">
        <ele>533.8</ele>
        <time>2022-03-07T12:09:51Z</time>
      </trkpt>
      <trkpt lat="46.59998" lon="5.65773">
        <ele>533.4</ele>
        <time>2022-03-07T12:09:52Z</time>
      </trkpt>
      <trkpt lat="46.59997" lon="5.65785">
        <ele>533.2</ele>
        <time>2022-03-07T12:09:53Z</time>
      </trkpt>
      <trkpt lat="46.59996" lon="5.65797">
        <ele>532.8</ele>
        <time>2022-03-07T12:09:54Z</time>
      </trkpt>
      <trkpt lat="46.59995" lon="5.65809">
        <ele>532.2</ele>
        <time>2022-03-07T12:09:55Z</time>
      </trkpt>
      <trkpt lat="46.59995" lon="5.65821">
        <ele>531.8</ele>
        <time>2022-03-07T12:09:56Z</time>
      </trkpt>
      <trkpt lat="46.59994" lon="5.65833">
        <ele>531.4</ele>
        <time>2022-03-07T12:09:57Z</time>
      </trkpt>
      <trkpt lat="46.59993" lon="5.65845">
        <ele>531</ele>
        <time>2022-03-07T12:09:58Z</time>
      </trkpt>
      <trkpt lat="46.59992" lon="5.65857">
        <ele>530.4</ele>
        <time>2022-03-07T12:09:59Z</time>
      </trkpt>
      <trkpt lat="46.59992" lon="5.6587">
        <ele>530</ele>
        <time>2022-03-07T12:10:00Z</time>
      </trkpt>
      <trkpt lat="46.5999" lon="5.65882">
        <ele>529.8</ele>
        <time>2022-03-07T12:10:01Z</time>
      </trkpt>
      <trkpt lat="46.59988" lon="5.65894">
        <ele>529.4</ele>
        <time>2022-03-07T12:10:02Z</time>
      </trkpt>
      <trkpt lat="46.59986" lon="5.65905">
        <ele>529</ele>
        <time>2022-03-07T12:10:03Z</time>
      </trkpt>
      <trkpt lat="46.59983" lon="5.65917">
        <ele>528.6</ele>
        <time>2022-03-07T12:10:04Z</time>
      </trkpt>
      <trkpt lat="46.5998" lon="5.65928">
        <ele>528.2</ele>
        <time>2022-03-07T12:10:05Z</time>
      </trkpt>
      <trkpt lat="46.59978" lon="5.6594">
        <ele>527.8</ele>
        <time>2022-03-07T12:10:06Z</time>
      </trkpt>
      <trkpt lat="46.59975" lon="5.65952">
        <ele>527.2</ele>
        <time>2022-03-07T12:10:07Z</time>
      </trkpt>
      <trkpt lat="46.59971" lon="5.65963">
        <ele>526.8</ele>
        <time>2022-03-07T12:10:08Z</time>
      </trkpt>
      <trkpt lat="46.59968" lon="5.65974">
        <ele>526.4</ele>
        <time>2022-03-07T12:10:09Z</time>
      </trkpt>
      <trkpt lat="46.59965" lon="5.65985">
        <ele>525.8</ele>
        <time>2022-03-07T12:10:10Z</time>
      </trkpt>
      <trkpt lat="46.59963" lon="5.65996">
        <ele>525.4</ele>
        <time>2022-03-07T12:10:11Z</time>
      </trkpt>
      <trkpt lat="46.5996" lon="5.66007">
        <ele>525</ele>
        <time>2022-03-07T12:10:12Z</time>
      </trkpt>
      <trkpt lat="46.59956" lon="5.66018">
        <ele>524.4</ele>
        <time>2022-03-07T12:10:13Z</time>
      </trkpt>
      <trkpt lat="46.59954" lon="5.66029">
        <ele>523.8</ele>
        <time>2022-03-07T12:10:14Z</time>
      </trkpt>
      <trkpt lat="46.59952" lon="5.6604">
        <ele>523.2</ele>
        <time>2022-03-07T12:10:15Z</time>
      </trkpt>
      <trkpt lat="46.5995" lon="5.6605">
        <ele>522.6</ele>
        <time>2022-03-07T12:10:16Z</time>
      </trkpt>
      <trkpt lat="46.59947" lon="5.66061">
        <ele>522.2</ele>
        <time>2022-03-07T12:10:17Z</time>
      </trkpt>
      <trkpt lat="46.59943" lon="5.66072">
        <ele>521.8</ele>
        <time>2022-03-07T12:10:18Z</time>
      </trkpt>
      <trkpt lat="46.59938" lon="5.66083">
        <ele>521.2</ele>
        <time>2022-03-07T12:10:19Z</time>
      </trkpt>
      <trkpt lat="46.59934" lon="5.66094">
        <ele>520.8</ele>
        <time>2022-03-07T12:10:20Z</time>
      </trkpt>
      <trkpt lat="46.59929" lon="5.66105">
        <ele>520.2</ele>
        <time>2022-03-07T12:10:21Z</time>
      </trkpt>
      <trkpt lat="46.59923" lon="5.66116">
        <ele>519.8</ele>
        <time>2022-03-07T12:10:22Z</time>
      </trkpt>
      <trkpt lat="46.59917" lon="5.66129">
        <ele>519.4</ele>
        <time>2022-03-07T12:10:23Z</time>
      </trkpt>
      <trkpt lat="46.59912" lon="5.66142">
        <ele>519</ele>
        <time>2022-03-07T12:10:24Z</time>
      </trkpt>
      <trkpt lat="46.59906" lon="5.66156">
        <ele>518.6</ele>
        <time>2022-03-07T12:10:25Z</time>
      </trkpt>
      <trkpt lat="46.59901" lon="5.66169">
        <ele>518</ele>
        <time>2022-03-07T12:10:26Z</time>
      </trkpt>
      <trkpt lat="46.59896" lon="5.66183">
        <ele>517.6</ele>
        <time>2022-03-07T12:10:27Z</time>
      </trkpt>
      <trkpt lat="46.59892" lon="5.66197">
        <ele>517.2</ele>
        <time>2022-03-07T12:10:28Z</time>
      </trkpt>
      <trkpt lat="46.59889" lon="5.66212">
        <ele>516.8</ele>
        <time>2022-03-07T12:10:29Z</time>
      </trkpt>
      <trkpt lat="46.59886" lon="5.66227">
        <ele>516.4</ele>
        <time>2022-03-07T12:10:30Z</time>
      </trkpt>
      <trkpt lat="46.59883" lon="5.66242">
        <ele>516</ele>
        <time>2022-03-07T12:10:31Z</time>
      </trkpt>
      <trkpt lat="46.5988" lon="5.66258">
        <ele>515.6</ele>
        <time>2022-03-07T12:10:32Z</time>
      </trkpt>
      <trkpt lat="46.59878" lon="5.66273">
        <ele>514.8</ele>
        <time>2022-03-07T12:10:33Z</time>
      </trkpt>
      <trkpt lat="46.59877" lon="5.66289">
        <ele>514.2</ele>
        <time>2022-03-07T12:10:34Z</time>
      </trkpt>
      <trkpt lat="46.59876" lon="5.66305">
        <ele>513.6</ele>
        <time>2022-03-07T12:10:35Z</time>
      </trkpt>
      <trkpt lat="46.59875" lon="5.66321">
        <ele>513</ele>
        <time>2022-03-07T12:10:36Z</time>
      </trkpt>
      <trkpt lat="46.59875" lon="5.66337">
        <ele>512.2</ele>
        <time>2022-03-07T12:10:37Z</time>
      </trkpt>
      <trkpt lat="46.59875" lon="5.66354">
        <ele>511.6</ele>
        <time>2022-03-07T12:10:38Z</time>
      </trkpt>
      <trkpt lat="46.59873" lon="5.6637">
        <ele>511</ele>
        <time>2022-03-07T12:10:39Z</time>
      </trkpt>
      <trkpt lat="46.5987" lon="5.66385">
        <ele>510.4</ele>
        <time>2022-03-07T12:10:40Z</time>
      </trkpt>
      <trkpt lat="46.59865" lon="5.66401">
        <ele>510</ele>
        <time>2022-03-07T12:10:41Z</time>
      </trkpt>
      <trkpt lat="46.5986" lon="5.66416">
        <ele>509.4</ele>
        <time>2022-03-07T12:10:42Z</time>
      </trkpt>
      <trkpt lat="46.59854" lon="5.6643">
        <ele>508.6</ele>
        <time>2022-03-07T12:10:43Z</time>
      </trkpt>
      <trkpt lat="46.59849" lon="5.66444">
        <ele>508.2</ele>
        <time>2022-03-07T12:10:44Z</time>
      </trkpt>
      <trkpt lat="46.59842" lon="5.66457">
        <ele>507.6</ele>
        <time>2022-03-07T12:10:45Z</time>
      </trkpt>
      <trkpt lat="46.59836" lon="5.6647">
        <ele>507</ele>
        <time>2022-03-07T12:10:46Z</time>
      </trkpt>
      <trkpt lat="46.59829" lon="5.66483">
        <ele>506.4</ele>
        <time>2022-03-07T12:10:47Z</time>
      </trkpt>
      <trkpt lat="46.59822" lon="5.66496">
        <ele>506</ele>
        <time>2022-03-07T12:10:48Z</time>
      </trkpt>
      <trkpt lat="46.59815" lon="5.66509">
        <ele>505.4</ele>
        <time>2022-03-07T12:10:49Z</time>
      </trkpt>
      <trkpt lat="46.59808" lon="5.66522">
        <ele>504.8</ele>
        <time>2022-03-07T12:10:50Z</time>
      </trkpt>
      <trkpt lat="46.598" lon="5.66534">
        <ele>504.4</ele>
        <time>2022-03-07T12:10:51Z</time>
      </trkpt>
      <trkpt lat="46.59791" lon="5.66546">
        <ele>503.8</ele>
        <time>2022-03-07T12:10:52Z</time>
      </trkpt>
      <trkpt lat="46.59782" lon="5.66557">
        <ele>503.2</ele>
        <time>2022-03-07T12:10:53Z</time>
      </trkpt>
      <trkpt lat="46.59772" lon="5.66567">
        <ele>502.6</ele>
        <time>2022-03-07T12:10:54Z</time>
      </trkpt>
      <trkpt lat="46.59762" lon="5.66576">
        <ele>502</ele>
        <time>2022-03-07T12:10:55Z</time>
      </trkpt>
      <trkpt lat="46.59753" lon="5.66584">
        <ele>501.6</ele>
        <time>2022-03-07T12:10:56Z</time>
      </trkpt>
      <trkpt lat="46.59743" lon="5.66591">
        <ele>501</ele>
        <time>2022-03-07T12:10:57Z</time>
      </trkpt>
      <trkpt lat="46.59732" lon="5.66598">
        <ele>500.6</ele>
        <time>2022-03-07T12:10:58Z</time>
      </trkpt>
      <trkpt lat="46.59722" lon="5.66604">
        <ele>500.2</ele>
        <time>2022-03-07T12:10:59Z</time>
      </trkpt>
      <trkpt lat="46.59712" lon="5.6661">
        <ele>499.6</ele>
        <time>2022-03-07T12:11:00Z</time>
      </trkpt>
      <trkpt lat="46.59701" lon="5.66617">
        <ele>499.2</ele>
        <time>2022-03-07T12:11:01Z</time>
      </trkpt>
      <trkpt lat="46.59691" lon="5.66623">
        <ele>498.8</ele>
        <time>2022-03-07T12:11:02Z</time>
      </trkpt>
      <trkpt lat="46.59681" lon="5.6663">
        <ele>498.2</ele>
        <time>2022-03-07T12:11:03Z</time>
      </trkpt>
      <trkpt lat="46.59671" lon="5.66636">
        <ele>497.8</ele>
        <time>2022-03-07T12:11:04Z</time>
      </trkpt>
      <trkpt lat="46.5966" lon="5.66642">
        <ele>497.4</ele>
        <time>2022-03-07T12:11:05Z</time>
      </trkpt>
      <trkpt lat="46.5965" lon="5.66648">
        <ele>497</ele>
        <time>2022-03-07T12:11:06Z</time>
      </trkpt>
      <trkpt lat="46.5964" lon="5.66654">
        <ele>496.6</ele>
        <time>2022-03-07T12:11:07Z</time>
      </trkpt>
      <trkpt lat="46.5963" lon="5.6666">
        <ele>496.2</ele>
        <time>2022-03-07T12:11:08Z</time>
      </trkpt>
      <trkpt lat="46.59621" lon="5.66665">
        <ele>495.8</ele>
        <time>2022-03-07T12:11:09Z</time>
      </trkpt>
      <trkpt lat="46.59611" lon="5.66672">
        <ele>495.4</ele>
        <time>2022-03-07T12:11:10Z</time>
      </trkpt>
      <trkpt lat="46.59601" lon="5.66678">
        <ele>495</ele>
        <time>2022-03-07T12:11:11Z</time>
      </trkpt>
      <trkpt lat="46.59591" lon="5.66683">
        <ele>494.4</ele>
        <time>2022-03-07T12:11:12Z</time>
      </trkpt>
      <trkpt lat="46.59582" lon="5.66689">
        <ele>494</ele>
        <time>2022-03-07T12:11:13Z</time>
      </trkpt>
      <trkpt lat="46.59572" lon="5.66696">
        <ele>493.4</ele>
        <time>2022-03-07T12:11:14Z</time>
      </trkpt>
      <trkpt lat="46.59562" lon="5.66702">
        <ele>492.8</ele>
        <time>2022-03-07T12:11:15Z</time>
      </trkpt>
      <trkpt lat="46.59552" lon="5.66708">
        <ele>492.4</ele>
        <time>2022-03-07T12:11:16Z</time>
      </trkpt>
      <trkpt lat="46.59542" lon="5.66713">
        <ele>492</ele>
        <time>2022-03-07T12:11:17Z</time>
      </trkpt>
      <trkpt lat="46.59532" lon="5.66718">
        <ele>491.4</ele>
        <time>2022-03-07T12:11:18Z</time>
      </trkpt>
      <trkpt lat="46.59522" lon="5.66724">
        <ele>490.8</ele>
        <time>2022-03-07T12:11:19Z</time>
      </trkpt>
      <trkpt lat="46.59512" lon="5.6673">
        <ele>490.2</ele>
        <time>2022-03-07T12:11:20Z</time>
      </trkpt>
      <trkpt lat="46.59501" lon="5.66736">
        <ele>489.8</ele>
        <time>2022-03-07T12:11:21Z</time>
      </trkpt>
      <trkpt lat="46.59492" lon="5.66742">
        <ele>489.2</ele>
        <time>2022-03-07T12:11:22Z</time>
      </trkpt>
      <trkpt lat="46.59482" lon="5.6675">
        <ele>488.8</ele>
        <time>2022-03-07T12:11:23Z</time>
      </trkpt>
      <trkpt lat="46.59473" lon="5.66758">
        <ele>488.2</ele>
        <time>2022-03-07T12:11:24Z</time>
      </trkpt>
      <trkpt lat="46.59464" lon="5.66767">
        <ele>487.6</ele>
        <time>2022-03-07T12:11:25Z</time>
      </trkpt>
      <trkpt lat="46.59456" lon="5.66776">
        <ele>487</ele>
        <time>2022-03-07T12:11:26Z</time>
      </trkpt>
      <trkpt lat="46.59448" lon="5.66787">
        <ele>486.4</ele>
        <time>2022-03-07T12:11:27Z</time>
      </trkpt>
      <trkpt lat="46.5944" lon="5.66798">
        <ele>485.8</ele>
        <time>2022-03-07T12:11:28Z</time>
      </trkpt>
      <trkpt lat="46.59433" lon="5.66809">
        <ele>485.2</ele>
        <time>2022-03-07T12:11:29Z</time>
      </trkpt>
      <trkpt lat="46.59426" lon="5.66819">
        <ele>484.6</ele>
        <time>2022-03-07T12:11:30Z</time>
      </trkpt>
      <trkpt lat="46.59419" lon="5.6683">
        <ele>484.2</ele>
        <time>2022-03-07T12:11:31Z</time>
      </trkpt>
      <trkpt lat="46.59412" lon="5.66841">
        <ele>483.8</ele>
        <time>2022-03-07T12:11:32Z</time>
      </trkpt>
      <trkpt lat="46.59405" lon="5.66852">
        <ele>483.4</ele>
        <time>2022-03-07T12:11:33Z</time>
      </trkpt>
      <trkpt lat="46.59398" lon="5.66863">
        <ele>483</ele>
        <time>2022-03-07T12:11:34Z</time>
      </trkpt>
      <trkpt lat="46.59392" lon="5.66874">
        <ele>482.6</ele>
        <time>2022-03-07T12:11:35Z</time>
      </trkpt>
      <trkpt lat="46.59386" lon="5.66886">
        <ele>482.2</ele>
        <time>2022-03-07T12:11:36Z</time>
      </trkpt>
      <trkpt lat="46.59382" lon="5.66898">
        <ele>482</ele>
        <time>2022-03-07T12:11:37Z</time>
      </trkpt>
      <trkpt lat="46.59378" lon="5.66911">
        <ele>481.8</ele>
        <time>2022-03-07T12:11:38Z</time>
      </trkpt>
      <trkpt lat="46.59375" lon="5.66923">
        <ele>481.4</ele>
        <time>2022-03-07T12:11:39Z</time>
      </trkpt>
      <trkpt lat="46.59373" lon="5.66936">
        <ele>481.2</ele>
        <time>2022-03-07T12:11:40Z</time>
      </trkpt>
      <trkpt lat="46.59372" lon="5.66949">
        <ele>480.8</ele>
        <time>2022-03-07T12:11:41Z</time>
      </trkpt>
      <trkpt lat="46.59371" lon="5.66961">
        <ele>480.4</ele>
        <time>2022-03-07T12:11:42Z</time>
      </trkpt>
      <trkpt lat="46.59371" lon="5.66973">
        <ele>480.2</ele>
        <time>2022-03-07T12:11:43Z</time>
      </trkpt>
      <trkpt lat="46.59372" lon="5.66986">
        <ele>480</ele>
        <time>2022-03-07T12:11:44Z</time>
      </trkpt>
      <trkpt lat="46.59372" lon="5.66998">
        <ele>479.6</ele>
        <time>2022-03-07T12:11:45Z</time>
      </trkpt>
      <trkpt lat="46.59372" lon="5.6701">
        <ele>479.2</ele>
        <time>2022-03-07T12:11:46Z</time>
      </trkpt>
      <trkpt lat="46.59373" lon="5.67022">
        <ele>479</ele>
        <time>2022-03-07T12:11:47Z</time>
      </trkpt>
      <trkpt lat="46.59373" lon="5.67035">
        <ele>478.8</ele>
        <time>2022-03-07T12:11:48Z</time>
      </trkpt>
      <trkpt lat="46.59373" lon="5.67047">
        <ele>478.4</ele>
        <time>2022-03-07T12:11:49Z</time>
      </trkpt>
      <trkpt lat="46.59373" lon="5.6706">
        <ele>478</ele>
        <time>2022-03-07T12:11:50Z</time>
      </trkpt>
      <trkpt lat="46.59374" lon="5.67072">
        <ele>477.6</ele>
        <time>2022-03-07T12:11:51Z</time>
      </trkpt>
      <trkpt lat="46.59374" lon="5.67084">
        <ele>477.4</ele>
        <time>2022-03-07T12:11:52Z</time>
      </trkpt>
      <trkpt lat="46.59374" lon="5.67097">
        <ele>477.2</ele>
        <time>2022-03-07T12:11:53Z</time>
      </trkpt>
      <trkpt lat="46.59375" lon="5.67109">
        <ele>476.8</ele>
        <time>2022-03-07T12:11:54Z</time>
      </trkpt>
      <trkpt lat="46.59375" lon="5.67121">
        <ele>476.6</ele>
        <time>2022-03-07T12:11:55Z</time>
      </trkpt>
      <trkpt lat="46.59375" lon="5.67133">
        <ele>476.6</ele>
        <time>2022-03-07T12:11:56Z</time>
      </trkpt>
      <trkpt lat="46.59375" lon="5.67145">
        <ele>476.2</ele>
        <time>2022-03-07T12:11:57Z</time>
      </trkpt>
      <trkpt lat="46.59376" lon="5.67157">
        <ele>476.2</ele>
        <time>2022-03-07T12:11:58Z</time>
      </trkpt>
      <trkpt lat="46.59376" lon="5.67169">
        <ele>475.8</ele>
        <time>2022-03-07T12:11:59Z</time>
      </trkpt>
      <trkpt lat="46.59376" lon="5.6718">
        <ele>475.8</ele>
        <time>2022-03-07T12:12:00Z</time>
      </trkpt>
      <trkpt lat="46.59376" lon="5.67191">
        <ele>475.4</ele>
        <time>2022-03-07T12:12:01Z</time>
      </trkpt>
      <trkpt lat="46.59375" lon="5.67203">
        <ele>475.4</ele>
        <time>2022-03-07T12:12:02Z</time>
      </trkpt>
      <trkpt lat="46.59374" lon="5.67214">
        <ele>475.2</ele>
        <time>2022-03-07T12:12:03Z</time>
      </trkpt>
      <trkpt lat="46.59373" lon="5.67225">
        <ele>475.2</ele>
        <time>2022-03-07T12:12:04Z</time>
      </trkpt>
      <trkpt lat="46.59371" lon="5.67236">
        <ele>475.2</ele>
        <time>2022-03-07T12:12:05Z</time>
      </trkpt>
      <trkpt lat="46.5937" lon="5.67247">
        <ele>475.2</ele>
        <time>2022-03-07T12:12:06Z</time>
      </trkpt>
      <trkpt lat="46.59367" lon="5.67257">
        <ele>475.2</ele>
        <time>2022-03-07T12:12:07Z</time>
      </trkpt>
      <trkpt lat="46.59365" lon="5.67267">
        <ele>475.2</ele>
        <time>2022-03-07T12:12:08Z</time>
      </trkpt>
      <trkpt lat="46.59362" lon="5.67277">
        <ele>475.2</ele>
        <time>2022-03-07T12:12:09Z</time>
      </trkpt>
      <trkpt lat="46.59359" lon="5.67286">
        <ele>475.2</ele>
        <time>2022-03-07T12:12:10Z</time>
      </trkpt>
      <trkpt lat="46.59356" lon="5.67295">
        <ele>475.2</ele>
        <time>2022-03-07T12:12:11Z</time>
      </trkpt>
      <trkpt lat="46.59354" lon="5.67303">
        <ele>475.4</ele>
        <time>2022-03-07T12:12:12Z</time>
      </trkpt>
      <trkpt lat="46.59351" lon="5.67311">
        <ele>475.4</ele>
        <time>2022-03-07T12:12:13Z</time>
      </trkpt>
      <trkpt lat="46.59348" lon="5.67319">
        <ele>475.8</ele>
        <time>2022-03-07T12:12:14Z</time>
      </trkpt>
      <trkpt lat="46.59345" lon="5.67326">
        <ele>475.8</ele>
        <time>2022-03-07T12:12:15Z</time>
      </trkpt>
      <trkpt lat="46.59342" lon="5.67334">
        <ele>476.2</ele>
        <time>2022-03-07T12:12:16Z</time>
      </trkpt>
      <trkpt lat="46.59339" lon="5.67341">
        <ele>476.2</ele>
        <time>2022-03-07T12:12:17Z</time>
      </trkpt>
      <trkpt lat="46.59337" lon="5.67348">
        <ele>476.4</ele>
        <time>2022-03-07T12:12:18Z</time>
      </trkpt>
      <trkpt lat="46.59334" lon="5.67355">
        <ele>476.4</ele>
        <time>2022-03-07T12:12:19Z</time>
      </trkpt>
      <trkpt lat="46.59331" lon="5.67362">
        <ele>476.4</ele>
        <time>2022-03-07T12:12:20Z</time>
      </trkpt>
      <trkpt lat="46.59329" lon="5.67369">
        <ele>476.8</ele>
        <time>2022-03-07T12:12:21Z</time>
      </trkpt>
      <trkpt lat="46.59327" lon="5.67376">
        <ele>476.8</ele>
        <time>2022-03-07T12:12:22Z</time>
      </trkpt>
      <trkpt lat="46.59325" lon="5.67382">
        <ele>476.8</ele>
        <time>2022-03-07T12:12:23Z</time>
      </trkpt>
      <trkpt lat="46.59323" lon="5.6739">
        <ele>477</ele>
        <time>2022-03-07T12:12:24Z</time>
      </trkpt>
      <trkpt lat="46.5932" lon="5.67397">
        <ele>477</ele>
        <time>2022-03-07T12:12:25Z</time>
      </trkpt>
      <trkpt lat="46.59318" lon="5.67404">
        <ele>477.2</ele>
        <time>2022-03-07T12:12:26Z</time>
      </trkpt>
      <trkpt lat="46.59316" lon="5.67411">
        <ele>477.2</ele>
        <time>2022-03-07T12:12:27Z</time>
      </trkpt>
      <trkpt lat="46.59314" lon="5.67418">
        <ele>477.2</ele>
        <time>2022-03-07T12:12:28Z</time>
      </trkpt>
      <trkpt lat="46.59312" lon="5.67425">
        <ele>477.2</ele>
        <time>2022-03-07T12:12:29Z</time>
      </trkpt>
      <trkpt lat="46.59311" lon="5.67432">
        <ele>477.2</ele>
        <time>2022-03-07T12:12:30Z</time>
      </trkpt>
      <trkpt lat="46.59309" lon="5.6744">
        <ele>477.2</ele>
        <time>2022-03-07T12:12:31Z</time>
      </trkpt>
      <trkpt lat="46.59308" lon="5.67447">
        <ele>477.2</ele>
        <time>2022-03-07T12:12:32Z</time>
      </trkpt>
      <trkpt lat="46.59307" lon="5.67454">
        <ele>477.2</ele>
        <time>2022-03-07T12:12:33Z</time>
      </trkpt>
      <trkpt lat="46.59306" lon="5.67462">
        <ele>477.2</ele>
        <time>2022-03-07T12:12:34Z</time>
      </trkpt>
      <trkpt lat="46.59305" lon="5.67471">
        <ele>477.2</ele>
        <time>2022-03-07T12:12:35Z</time>
      </trkpt>
      <trkpt lat="46.59304" lon="5.67479">
        <ele>477.2</ele>
        <time>2022-03-07T12:12:36Z</time>
      </trkpt>
      <trkpt lat="46.59303" lon="5.67488">
        <ele>477.2</ele>
        <time>2022-03-07T12:12:37Z</time>
      </trkpt>
      <trkpt lat="46.59302" lon="5.67497">
        <ele>477.2</ele>
        <time>2022-03-07T12:12:38Z</time>
      </trkpt>
      <trkpt lat="46.59301" lon="5.67505">
        <ele>477.2</ele>
        <time>2022-03-07T12:12:39Z</time>
      </trkpt>
      <trkpt lat="46.593" lon="5.67515">
        <ele>477.2</ele>
        <time>2022-03-07T12:12:40Z</time>
      </trkpt>
      <trkpt lat="46.59299" lon="5.67524">
        <ele>477</ele>
        <time>2022-03-07T12:12:41Z</time>
      </trkpt>
      <trkpt lat="46.59298" lon="5.67533">
        <ele>477</ele>
        <time>2022-03-07T12:12:42Z</time>
      </trkpt>
      <trkpt lat="46.59298" lon="5.67543">
        <ele>476.8</ele>
        <time>2022-03-07T12:12:43Z</time>
      </trkpt>
      <trkpt lat="46.59297" lon="5.67552">
        <ele>476.8</ele>
        <time>2022-03-07T12:12:44Z</time>
      </trkpt>
      <trkpt lat="46.59296" lon="5.67562">
        <ele>476.8</ele>
        <time>2022-03-07T12:12:45Z</time>
      </trkpt>
      <trkpt lat="46.59294" lon="5.67572">
        <ele>476.6</ele>
        <time>2022-03-07T12:12:46Z</time>
      </trkpt>
      <trkpt lat="46.59293" lon="5.67583">
        <ele>476.4</ele>
        <time>2022-03-07T12:12:47Z</time>
      </trkpt>
      <trkpt lat="46.59291" lon="5.67593">
        <ele>476</ele>
        <time>2022-03-07T12:12:48Z</time>
      </trkpt>
      <trkpt lat="46.59289" lon="5.67604">
        <ele>475.8</ele>
        <time>2022-03-07T12:12:49Z</time>
      </trkpt>
      <trkpt lat="46.59286" lon="5.67614">
        <ele>475.4</ele>
        <time>2022-03-07T12:12:50Z</time>
      </trkpt>
      <trkpt lat="46.59284" lon="5.67625">
        <ele>475.2</ele>
        <time>2022-03-07T12:12:51Z</time>
      </trkpt>
      <trkpt lat="46.59281" lon="5.67636">
        <ele>475</ele>
        <time>2022-03-07T12:12:52Z</time>
      </trkpt>
      <trkpt lat="46.59278" lon="5.67647">
        <ele>474.8</ele>
        <time>2022-03-07T12:12:53Z</time>
      </trkpt>
      <trkpt lat="46.59276" lon="5.67659">
        <ele>474.6</ele>
        <time>2022-03-07T12:12:54Z</time>
      </trkpt>
      <trkpt lat="46.59273" lon="5.6767">
        <ele>474.2</ele>
        <time>2022-03-07T12:12:55Z</time>
      </trkpt>
      <trkpt lat="46.5927" lon="5.67681">
        <ele>473.8</ele>
        <time>2022-03-07T12:12:56Z</time>
      </trkpt>
      <trkpt lat="46.59268" lon="5.67693">
        <ele>473.6</ele>
        <time>2022-03-07T12:12:57Z</time>
      </trkpt>
      <trkpt lat="46.59265" lon="5.67704">
        <ele>473.6</ele>
        <time>2022-03-07T12:12:58Z</time>
      </trkpt>
      <trkpt lat="46.59262" lon="5.67716">
        <ele>473.2</ele>
        <time>2022-03-07T12:12:59Z</time>
      </trkpt>
      <trkpt lat="46.59259" lon="5.67727">
        <ele>473</ele>
        <time>2022-03-07T12:13:00Z</time>
      </trkpt>
      <trkpt lat="46.59257" lon="5.67738">
        <ele>472.8</ele>
        <time>2022-03-07T12:13:01Z</time>
      </trkpt>
      <trkpt lat="46.59254" lon="5.67749">
        <ele>472.6</ele>
        <time>2022-03-07T12:13:02Z</time>
      </trkpt>
      <trkpt lat="46.59251" lon="5.67759">
        <ele>472.6</ele>
        <time>2022-03-07T12:13:03Z</time>
      </trkpt>
      <trkpt lat="46.59248" lon="5.67769">
        <ele>472.2</ele>
        <time>2022-03-07T12:13:04Z</time>
      </trkpt>
      <trkpt lat="46.59246" lon="5.67779">
        <ele>472.2</ele>
        <time>2022-03-07T12:13:05Z</time>
      </trkpt>
      <trkpt lat="46.59243" lon="5.67789">
        <ele>472.2</ele>
        <time>2022-03-07T12:13:06Z</time>
      </trkpt>
      <trkpt lat="46.59241" lon="5.67799">
        <ele>472.2</ele>
        <time>2022-03-07T12:13:07Z</time>
      </trkpt>
      <trkpt lat="46.59238" lon="5.67808">
        <ele>472</ele>
        <time>2022-03-07T12:13:08Z</time>
      </trkpt>
      <trkpt lat="46.59235" lon="5.67817">
        <ele>472</ele>
        <time>2022-03-07T12:13:09Z</time>
      </trkpt>
      <trkpt lat="46.59232" lon="5.67826">
        <ele>472</ele>
        <time>2022-03-07T12:13:10Z</time>
      </trkpt>
      <trkpt lat="46.59229" lon="5.67835">
        <ele>472</ele>
        <time>2022-03-07T12:13:11Z</time>
      </trkpt>
      <trkpt lat="46.59225" lon="5.67843">
        <ele>471.8</ele>
        <time>2022-03-07T12:13:12Z</time>
      </trkpt>
      <trkpt lat="46.59221" lon="5.67851">
        <ele>471.8</ele>
        <time>2022-03-07T12:13:13Z</time>
      </trkpt>
      <trkpt lat="46.59217" lon="5.67859">
        <ele>471.8</ele>
        <time>2022-03-07T12:13:14Z</time>
      </trkpt>
      <trkpt lat="46.59213" lon="5.67866">
        <ele>471.8</ele>
        <time>2022-03-07T12:13:15Z</time>
      </trkpt>
      <trkpt lat="46.59208" lon="5.67873">
        <ele>471.8</ele>
        <time>2022-03-07T12:13:16Z</time>
      </trkpt>
      <trkpt lat="46.59204" lon="5.6788">
        <ele>471.8</ele>
        <time>2022-03-07T12:13:17Z</time>
      </trkpt>
      <trkpt lat="46.592" lon="5.67887">
        <ele>471.8</ele>
        <time>2022-03-07T12:13:18Z</time>
      </trkpt>
      <trkpt lat="46.59195" lon="5.67893">
        <ele>471.8</ele>
        <time>2022-03-07T12:13:19Z</time>
      </trkpt>
      <trkpt lat="46.59191" lon="5.679">
        <ele>472</ele>
        <time>2022-03-07T12:13:20Z</time>
      </trkpt>
      <trkpt lat="46.59187" lon="5.67906">
        <ele>472</ele>
        <time>2022-03-07T12:13:21Z</time>
      </trkpt>
      <trkpt lat="46.59182" lon="5.67912">
        <ele>472</ele>
        <time>2022-03-07T12:13:22Z</time>
      </trkpt>
      <trkpt lat="46.59178" lon="5.67918">
        <ele>472</ele>
        <time>2022-03-07T12:13:23Z</time>
      </trkpt>
      <trkpt lat="46.59174" lon="5.67925">
        <ele>472</ele>
        <time>2022-03-07T12:13:24Z</time>
      </trkpt>
      <trkpt lat="46.59169" lon="5.67931">
        <ele>472.2</ele>
        <time>2022-03-07T12:13:25Z</time>
      </trkpt>
      <trkpt lat="46.59165" lon="5.67937">
        <ele>472.2</ele>
        <time>2022-03-07T12:13:26Z</time>
      </trkpt>
      <trkpt lat="46.59161" lon="5.67944">
        <ele>472.2</ele>
        <time>2022-03-07T12:13:27Z</time>
      </trkpt>
      <trkpt lat="46.59157" lon="5.6795">
        <ele>472.6</ele>
        <time>2022-03-07T12:13:28Z</time>
      </trkpt>
      <trkpt lat="46.59153" lon="5.67956">
        <ele>472.6</ele>
        <time>2022-03-07T12:13:29Z</time>
      </trkpt>
      <trkpt lat="46.5915" lon="5.67962">
        <ele>472.8</ele>
        <time>2022-03-07T12:13:30Z</time>
      </trkpt>
      <trkpt lat="46.59146" lon="5.67968">
        <ele>472.8</ele>
        <time>2022-03-07T12:13:31Z</time>
      </trkpt>
      <trkpt lat="46.59143" lon="5.67974">
        <ele>473.2</ele>
        <time>2022-03-07T12:13:32Z</time>
      </trkpt>
      <trkpt lat="46.5914" lon="5.67979">
        <ele>473.2</ele>
        <time>2022-03-07T12:13:33Z</time>
      </trkpt>
      <trkpt lat="46.59136" lon="5.67984">
        <ele>473.6</ele>
        <time>2022-03-07T12:13:34Z</time>
      </trkpt>
      <trkpt lat="46.59133" lon="5.67989">
        <ele>473.6</ele>
        <time>2022-03-07T12:13:35Z</time>
      </trkpt>
      <trkpt lat="46.5913" lon="5.67994">
        <ele>473.6</ele>
        <time>2022-03-07T12:13:36Z</time>
      </trkpt>
      <trkpt lat="46.59126" lon="5.68">
        <ele>474</ele>
        <time>2022-03-07T12:13:37Z</time>
      </trkpt>
      <trkpt lat="46.59123" lon="5.68005">
        <ele>474</ele>
        <time>2022-03-07T12:13:38Z</time>
      </trkpt>
      <trkpt lat="46.5912" lon="5.68011">
        <ele>474</ele>
        <time>2022-03-07T12:13:39Z</time>
      </trkpt>
      <trkpt lat="46.59118" lon="5.68016">
        <ele>474.2</ele>
        <time>2022-03-07T12:13:40Z</time>
      </trkpt>
      <trkpt lat="46.59115" lon="5.68022">
        <ele>474.2</ele>
        <time>2022-03-07T12:13:41Z</time>
      </trkpt>
      <trkpt lat="46.59112" lon="5.68028">
        <ele>474.2</ele>
        <time>2022-03-07T12:13:42Z</time>
      </trkpt>
      <trkpt lat="46.59109" lon="5.68035">
        <ele>474.2</ele>
        <time>2022-03-07T12:13:43Z</time>
      </trkpt>
      <trkpt lat="46.59106" lon="5.68041">
        <ele>474.2</ele>
        <time>2022-03-07T12:13:44Z</time>
      </trkpt>
      <trkpt lat="46.59103" lon="5.68047">
        <ele>474.2</ele>
        <time>2022-03-07T12:13:45Z</time>
      </trkpt>
      <trkpt lat="46.591" lon="5.68054">
        <ele>474.2</ele>
        <time>2022-03-07T12:13:46Z</time>
      </trkpt>
      <trkpt lat="46.59098" lon="5.68061">
        <ele>474.2</ele>
        <time>2022-03-07T12:13:47Z</time>
      </trkpt>
      <trkpt lat="46.59095" lon="5.68069">
        <ele>474.2</ele>
        <time>2022-03-07T12:13:48Z</time>
      </trkpt>
      <trkpt lat="46.59093" lon="5.68076">
        <ele>474.2</ele>
        <time>2022-03-07T12:13:49Z</time>
      </trkpt>
      <trkpt lat="46.5909" lon="5.68084">
        <ele>474.2</ele>
        <time>2022-03-07T12:13:50Z</time>
      </trkpt>
      <trkpt lat="46.59088" lon="5.68092">
        <ele>474.2</ele>
        <time>2022-03-07T12:13:51Z</time>
      </trkpt>
      <trkpt lat="46.59085" lon="5.681">
        <ele>474</ele>
        <time>2022-03-07T12:13:52Z</time>
      </trkpt>
      <trkpt lat="46.59082" lon="5.68107">
        <ele>474</ele>
        <time>2022-03-07T12:13:53Z</time>
      </trkpt>
      <trkpt lat="46.59079" lon="5.68115">
        <ele>474</ele>
        <time>2022-03-07T12:13:54Z</time>
      </trkpt>
      <trkpt lat="46.59076" lon="5.68124">
        <ele>473.8</ele>
        <time>2022-03-07T12:13:55Z</time>
      </trkpt>
      <trkpt lat="46.59073" lon="5.68132">
        <ele>473.8</ele>
        <time>2022-03-07T12:13:56Z</time>
      </trkpt>
      <trkpt lat="46.5907" lon="5.6814">
        <ele>473.4</ele>
        <time>2022-03-07T12:13:57Z</time>
      </trkpt>
      <trkpt lat="46.59067" lon="5.68149">
        <ele>473.4</ele>
        <time>2022-03-07T12:13:58Z</time>
      </trkpt>
      <trkpt lat="46.59064" lon="5.68157">
        <ele>473.2</ele>
        <time>2022-03-07T12:13:59Z</time>
      </trkpt>
      <trkpt lat="46.59061" lon="5.68166">
        <ele>473.2</ele>
        <time>2022-03-07T12:14:00Z</time>
      </trkpt>
      <trkpt lat="46.59058" lon="5.68174">
        <ele>472.6</ele>
        <time>2022-03-07T12:14:01Z</time>
      </trkpt>
      <trkpt lat="46.59055" lon="5.68183">
        <ele>472.4</ele>
        <time>2022-03-07T12:14:02Z</time>
      </trkpt>
      <trkpt lat="46.59051" lon="5.68192">
        <ele>472.2</ele>
        <time>2022-03-07T12:14:03Z</time>
      </trkpt>
      <trkpt lat="46.59048" lon="5.68201">
        <ele>472</ele>
        <time>2022-03-07T12:14:04Z</time>
      </trkpt>
      <trkpt lat="46.59045" lon="5.68209">
        <ele>471.8</ele>
        <time>2022-03-07T12:14:05Z</time>
      </trkpt>
      <trkpt lat="46.59041" lon="5.68218">
        <ele>471.4</ele>
        <time>2022-03-07T12:14:06Z</time>
      </trkpt>
      <trkpt lat="46.59038" lon="5.68227">
        <ele>471.2</ele>
        <time>2022-03-07T12:14:07Z</time>
      </trkpt>
      <trkpt lat="46.59034" lon="5.68236">
        <ele>470.8</ele>
        <time>2022-03-07T12:14:08Z</time>
      </trkpt>
      <trkpt lat="46.59031" lon="5.68245">
        <ele>470.4</ele>
        <time>2022-03-07T12:14:09Z</time>
      </trkpt>
      <trkpt lat="46.59027" lon="5.68254">
        <ele>470.4</ele>
        <time>2022-03-07T12:14:10Z</time>
      </trkpt>
      <trkpt lat="46.59024" lon="5.68263">
        <ele>470.2</ele>
        <time>2022-03-07T12:14:11Z</time>
      </trkpt>
      <trkpt lat="46.5902" lon="5.68272">
        <ele>469.8</ele>
        <time>2022-03-07T12:14:12Z</time>
      </trkpt>
      <trkpt lat="46.59017" lon="5.68282">
        <ele>469.6</ele>
        <time>2022-03-07T12:14:13Z</time>
      </trkpt>
      <trkpt lat="46.59013" lon="5.68291">
        <ele>469.2</ele>
        <time>2022-03-07T12:14:14Z</time>
      </trkpt>
      <trkpt lat="46.5901" lon="5.683">
        <ele>469</ele>
        <time>2022-03-07T12:14:15Z</time>
      </trkpt>
      <trkpt lat="46.59006" lon="5.6831">
        <ele>469</ele>
        <time>2022-03-07T12:14:16Z</time>
      </trkpt>
      <trkpt lat="46.59003" lon="5.68319">
        <ele>468.6</ele>
        <time>2022-03-07T12:14:17Z</time>
      </trkpt>
      <trkpt lat="46.58999" lon="5.68329">
        <ele>468.2</ele>
        <time>2022-03-07T12:14:18Z</time>
      </trkpt>
      <trkpt lat="46.58995" lon="5.68338">
        <ele>468</ele>
        <time>2022-03-07T12:14:19Z</time>
      </trkpt>
      <trkpt lat="46.58992" lon="5.68348">
        <ele>467.6</ele>
        <time>2022-03-07T12:14:20Z</time>
      </trkpt>
      <trkpt lat="46.58988" lon="5.68358">
        <ele>467.2</ele>
        <time>2022-03-07T12:14:21Z</time>
      </trkpt>
      <trkpt lat="46.58984" lon="5.68368">
        <ele>466.8</ele>
        <time>2022-03-07T12:14:22Z</time>
      </trkpt>
      <trkpt lat="46.5898" lon="5.68379">
        <ele>466.4</ele>
        <time>2022-03-07T12:14:23Z</time>
      </trkpt>
      <trkpt lat="46.58976" lon="5.6839">
        <ele>466</ele>
        <time>2022-03-07T12:14:24Z</time>
      </trkpt>
      <trkpt lat="46.58972" lon="5.68401">
        <ele>465.4</ele>
        <time>2022-03-07T12:14:25Z</time>
      </trkpt>
      <trkpt lat="46.58968" lon="5.68412">
        <ele>465</ele>
        <time>2022-03-07T12:14:26Z</time>
      </trkpt>
      <trkpt lat="46.58963" lon="5.68424">
        <ele>464.4</ele>
        <time>2022-03-07T12:14:27Z</time>
      </trkpt>
      <trkpt lat="46.58959" lon="5.68437">
        <ele>464</ele>
        <time>2022-03-07T12:14:28Z</time>
      </trkpt>
      <trkpt lat="46.58955" lon="5.6845">
        <ele>463.4</ele>
        <time>2022-03-07T12:14:29Z</time>
      </trkpt>
      <trkpt lat="46.58951" lon="5.68463">
        <ele>462.8</ele>
        <time>2022-03-07T12:14:30Z</time>
      </trkpt>
      <trkpt lat="46.58948" lon="5.68473">
        <ele>462.6</ele>
        <time>2022-03-07T12:14:31Z</time>
      </trkpt>
      <trkpt lat="46.58944" lon="5.68484">
        <ele>462.2</ele>
        <time>2022-03-07T12:14:32Z</time>
      </trkpt>
      <trkpt lat="46.58939" lon="5.68496">
        <ele>461.6</ele>
        <time>2022-03-07T12:14:33Z</time>
      </trkpt>
      <trkpt lat="46.58936" lon="5.68508">
        <ele>461.4</ele>
        <time>2022-03-07T12:14:34Z</time>
      </trkpt>
      <trkpt lat="46.58932" lon="5.68519">
        <ele>461</ele>
        <time>2022-03-07T12:14:35Z</time>
      </trkpt>
      <trkpt lat="46.58928" lon="5.68531">
        <ele>460.6</ele>
        <time>2022-03-07T12:14:36Z</time>
      </trkpt>
      <trkpt lat="46.58924" lon="5.68542">
        <ele>460.4</ele>
        <time>2022-03-07T12:14:37Z</time>
      </trkpt>
      <trkpt lat="46.58921" lon="5.68554">
        <ele>460</ele>
        <time>2022-03-07T12:14:38Z</time>
      </trkpt>
      <trkpt lat="46.58917" lon="5.68564">
        <ele>459.8</ele>
        <time>2022-03-07T12:14:39Z</time>
      </trkpt>
      <trkpt lat="46.58913" lon="5.68575">
        <ele>459.6</ele>
        <time>2022-03-07T12:14:40Z</time>
      </trkpt>
      <trkpt lat="46.5891" lon="5.68586">
        <ele>459.6</ele>
        <time>2022-03-07T12:14:41Z</time>
      </trkpt>
      <trkpt lat="46.58907" lon="5.68597">
        <ele>459.2</ele>
        <time>2022-03-07T12:14:42Z</time>
      </trkpt>
      <trkpt lat="46.58903" lon="5.68608">
        <ele>459</ele>
        <time>2022-03-07T12:14:43Z</time>
      </trkpt>
      <trkpt lat="46.58899" lon="5.68619">
        <ele>458.6</ele>
        <time>2022-03-07T12:14:44Z</time>
      </trkpt>
      <trkpt lat="46.58896" lon="5.68629">
        <ele>458.6</ele>
        <time>2022-03-07T12:14:45Z</time>
      </trkpt>
      <trkpt lat="46.58892" lon="5.6864">
        <ele>458.2</ele>
        <time>2022-03-07T12:14:46Z</time>
      </trkpt>
      <trkpt lat="46.58889" lon="5.68651">
        <ele>458.2</ele>
        <time>2022-03-07T12:14:47Z</time>
      </trkpt>
      <trkpt lat="46.58886" lon="5.68662">
        <ele>458.2</ele>
        <time>2022-03-07T12:14:48Z</time>
      </trkpt>
      <trkpt lat="46.58882" lon="5.68672">
        <ele>458</ele>
        <time>2022-03-07T12:14:49Z</time>
      </trkpt>
      <trkpt lat="46.58879" lon="5.68682">
        <ele>457.6</ele>
        <time>2022-03-07T12:14:50Z</time>
      </trkpt>
      <trkpt lat="46.58876" lon="5.68692">
        <ele>457.4</ele>
        <time>2022-03-07T12:14:51Z</time>
      </trkpt>
      <trkpt lat="46.58873" lon="5.68703">
        <ele>457.4</ele>
        <time>2022-03-07T12:14:52Z</time>
      </trkpt>
      <trkpt lat="46.5887" lon="5.68713">
        <ele>457</ele>
        <time>2022-03-07T12:14:53Z</time>
      </trkpt>
      <trkpt lat="46.58867" lon="5.68723">
        <ele>457</ele>
        <time>2022-03-07T12:14:54Z</time>
      </trkpt>
      <trkpt lat="46.58864" lon="5.68732">
        <ele>456.8</ele>
        <time>2022-03-07T12:14:55Z</time>
      </trkpt>
      <trkpt lat="46.58861" lon="5.68742">
        <ele>456.8</ele>
        <time>2022-03-07T12:14:56Z</time>
      </trkpt>
      <trkpt lat="46.58858" lon="5.68751">
        <ele>456.8</ele>
        <time>2022-03-07T12:14:57Z</time>
      </trkpt>
      <trkpt lat="46.58855" lon="5.68761">
        <ele>456.8</ele>
        <time>2022-03-07T12:14:58Z</time>
      </trkpt>
      <trkpt lat="46.58852" lon="5.6877">
        <ele>456.8</ele>
        <time>2022-03-07T12:14:59Z</time>
      </trkpt>
      <trkpt lat="46.58849" lon="5.68779">
        <ele>456.6</ele>
        <time>2022-03-07T12:15:00Z</time>
      </trkpt>
      <trkpt lat="46.58847" lon="5.68788">
        <ele>456.6</ele>
        <time>2022-03-07T12:15:01Z</time>
      </trkpt>
      <trkpt lat="46.58844" lon="5.68797">
        <ele>456.6</ele>
        <time>2022-03-07T12:15:02Z</time>
      </trkpt>
      <trkpt lat="46.58842" lon="5.68806">
        <ele>456.6</ele>
        <time>2022-03-07T12:15:03Z</time>
      </trkpt>
      <trkpt lat="46.58839" lon="5.68815">
        <ele>456.4</ele>
        <time>2022-03-07T12:15:04Z</time>
      </trkpt>
      <trkpt lat="46.58836" lon="5.68824">
        <ele>456.4</ele>
        <time>2022-03-07T12:15:05Z</time>
      </trkpt>
      <trkpt lat="46.58834" lon="5.68832">
        <ele>456.4</ele>
        <time>2022-03-07T12:15:06Z</time>
      </trkpt>
      <trkpt lat="46.58831" lon="5.68841">
        <ele>456</ele>
        <time>2022-03-07T12:15:07Z</time>
      </trkpt>
      <trkpt lat="46.58829" lon="5.6885">
        <ele>456</ele>
        <time>2022-03-07T12:15:08Z</time>
      </trkpt>
      <trkpt lat="46.58826" lon="5.68858">
        <ele>455.8</ele>
        <time>2022-03-07T12:15:09Z</time>
      </trkpt>
      <trkpt lat="46.58824" lon="5.68867">
        <ele>455.8</ele>
        <time>2022-03-07T12:15:10Z</time>
      </trkpt>
      <trkpt lat="46.58821" lon="5.68875">
        <ele>455.8</ele>
        <time>2022-03-07T12:15:11Z</time>
      </trkpt>
      <trkpt lat="46.58819" lon="5.68883">
        <ele>455.8</ele>
        <time>2022-03-07T12:15:12Z</time>
      </trkpt>
      <trkpt lat="46.58816" lon="5.68891">
        <ele>455.8</ele>
        <time>2022-03-07T12:15:13Z</time>
      </trkpt>
      <trkpt lat="46.58814" lon="5.68899">
        <ele>455.8</ele>
        <time>2022-03-07T12:15:14Z</time>
      </trkpt>
      <trkpt lat="46.58811" lon="5.68907">
        <ele>455.6</ele>
        <time>2022-03-07T12:15:15Z</time>
      </trkpt>
      <trkpt lat="46.58808" lon="5.68915">
        <ele>455.6</ele>
        <time>2022-03-07T12:15:16Z</time>
      </trkpt>
      <trkpt lat="46.58806" lon="5.68922">
        <ele>455.6</ele>
        <time>2022-03-07T12:15:17Z</time>
      </trkpt>
      <trkpt lat="46.58803" lon="5.6893">
        <ele>455.4</ele>
        <time>2022-03-07T12:15:18Z</time>
      </trkpt>
      <trkpt lat="46.58801" lon="5.68938">
        <ele>455.4</ele>
        <time>2022-03-07T12:15:19Z</time>
      </trkpt>
      <trkpt lat="46.58798" lon="5.68946">
        <ele>455.4</ele>
        <time>2022-03-07T12:15:20Z</time>
      </trkpt>
      <trkpt lat="46.58796" lon="5.68953">
        <ele>455</ele>
        <time>2022-03-07T12:15:21Z</time>
      </trkpt>
      <trkpt lat="46.58793" lon="5.68961">
        <ele>455</ele>
        <time>2022-03-07T12:15:22Z</time>
      </trkpt>
      <trkpt lat="46.58791" lon="5.68969">
        <ele>455</ele>
        <time>2022-03-07T12:15:23Z</time>
      </trkpt>
      <trkpt lat="46.58788" lon="5.68977">
        <ele>454.8</ele>
        <time>2022-03-07T12:15:24Z</time>
      </trkpt>
      <trkpt lat="46.58786" lon="5.68985">
        <ele>454.8</ele>
        <time>2022-03-07T12:15:25Z</time>
      </trkpt>
      <trkpt lat="46.58784" lon="5.68993">
        <ele>454.8</ele>
        <time>2022-03-07T12:15:26Z</time>
      </trkpt>
      <trkpt lat="46.58781" lon="5.69001">
        <ele>454.8</ele>
        <time>2022-03-07T12:15:27Z</time>
      </trkpt>
      <trkpt lat="46.58779" lon="5.69008">
        <ele>454.6</ele>
        <time>2022-03-07T12:15:28Z</time>
      </trkpt>
      <trkpt lat="46.58776" lon="5.69016">
        <ele>454.6</ele>
        <time>2022-03-07T12:15:29Z</time>
      </trkpt>
      <trkpt lat="46.58774" lon="5.69024">
        <ele>454.6</ele>
        <time>2022-03-07T12:15:30Z</time>
      </trkpt>
      <trkpt lat="46.58771" lon="5.69032">
        <ele>454.6</ele>
        <time>2022-03-07T12:15:31Z</time>
      </trkpt>
      <trkpt lat="46.58769" lon="5.6904">
        <ele>454.6</ele>
        <time>2022-03-07T12:15:32Z</time>
      </trkpt>
      <trkpt lat="46.58766" lon="5.69048">
        <ele>454.6</ele>
        <time>2022-03-07T12:15:33Z</time>
      </trkpt>
      <trkpt lat="46.58764" lon="5.69056">
        <ele>454.4</ele>
        <time>2022-03-07T12:15:34Z</time>
      </trkpt>
      <trkpt lat="46.58762" lon="5.69063">
        <ele>454.4</ele>
        <time>2022-03-07T12:15:35Z</time>
      </trkpt>
      <trkpt lat="46.5876" lon="5.69071">
        <ele>454.4</ele>
        <time>2022-03-07T12:15:36Z</time>
      </trkpt>
      <trkpt lat="46.58757" lon="5.69079">
        <ele>454.4</ele>
        <time>2022-03-07T12:15:37Z</time>
      </trkpt>
      <trkpt lat="46.58755" lon="5.69087">
        <ele>454.4</ele>
        <time>2022-03-07T12:15:38Z</time>
      </trkpt>
      <trkpt lat="46.58753" lon="5.69095">
        <ele>454.4</ele>
        <time>2022-03-07T12:15:39Z</time>
      </trkpt>
      <trkpt lat="46.5875" lon="5.69103">
        <ele>454.4</ele>
        <time>2022-03-07T12:15:40Z</time>
      </trkpt>
      <trkpt lat="46.58748" lon="5.69111">
        <ele>454.2</ele>
        <time>2022-03-07T12:15:41Z</time>
      </trkpt>
      <trkpt lat="46.58745" lon="5.69119">
        <ele>454.2</ele>
        <time>2022-03-07T12:15:42Z</time>
      </trkpt>
      <trkpt lat="46.58743" lon="5.69127">
        <ele>454.2</ele>
        <time>2022-03-07T12:15:43Z</time>
      </trkpt>
      <trkpt lat="46.58741" lon="5.69135">
        <ele>454</ele>
        <time>2022-03-07T12:15:44Z</time>
      </trkpt>
      <trkpt lat="46.58738" lon="5.69143">
        <ele>454</ele>
        <time>2022-03-07T12:15:45Z</time>
      </trkpt>
      <trkpt lat="46.58736" lon="5.69151">
        <ele>454</ele>
        <time>2022-03-07T12:15:46Z</time>
      </trkpt>
      <trkpt lat="46.58733" lon="5.69159">
        <ele>454</ele>
        <time>2022-03-07T12:15:47Z</time>
      </trkpt>
      <trkpt lat="46.58731" lon="5.69167">
        <ele>454</ele>
        <time>2022-03-07T12:15:48Z</time>
      </trkpt>
      <trkpt lat="46.58728" lon="5.69174">
        <ele>454</ele>
        <time>2022-03-07T12:15:49Z</time>
      </trkpt>
      <trkpt lat="46.58726" lon="5.69182">
        <ele>453.8</ele>
        <time>2022-03-07T12:15:50Z</time>
      </trkpt>
      <trkpt lat="46.58723" lon="5.69189">
        <ele>453.8</ele>
        <time>2022-03-07T12:15:51Z</time>
      </trkpt>
      <trkpt lat="46.58721" lon="5.69197">
        <ele>453.8</ele>
        <time>2022-03-07T12:15:52Z</time>
      </trkpt>
      <trkpt lat="46.58717" lon="5.69211">
        <ele>454</ele>
        <time>2022-03-07T12:15:53Z</time>
      </trkpt>
      <trkpt lat="46.58715" lon="5.69218">
        <ele>454</ele>
        <time>2022-03-07T12:15:54Z</time>
      </trkpt>
      <trkpt lat="46.58713" lon="5.69225">
        <ele>454</ele>
        <time>2022-03-07T12:15:55Z</time>
      </trkpt>
      <trkpt lat="46.5871" lon="5.69232">
        <ele>454</ele>
        <time>2022-03-07T12:15:56Z</time>
      </trkpt>
      <trkpt lat="46.58708" lon="5.6924">
        <ele>454</ele>
        <time>2022-03-07T12:15:57Z</time>
      </trkpt>
      <trkpt lat="46.58705" lon="5.69247">
        <ele>454</ele>
        <time>2022-03-07T12:15:58Z</time>
      </trkpt>
      <trkpt lat="46.58703" lon="5.69255">
        <ele>454</ele>
        <time>2022-03-07T12:15:59Z</time>
      </trkpt>
      <trkpt lat="46.587" lon="5.69262">
        <ele>454</ele>
        <time>2022-03-07T12:16:00Z</time>
      </trkpt>
      <trkpt lat="46.58698" lon="5.6927">
        <ele>454</ele>
        <time>2022-03-07T12:16:01Z</time>
      </trkpt>
      <trkpt lat="46.58696" lon="5.69277">
        <ele>454</ele>
        <time>2022-03-07T12:16:02Z</time>
      </trkpt>
      <trkpt lat="46.58694" lon="5.69285">
        <ele>454</ele>
        <time>2022-03-07T12:16:03Z</time>
      </trkpt>
      <trkpt lat="46.58692" lon="5.69292">
        <ele>454</ele>
        <time>2022-03-07T12:16:04Z</time>
      </trkpt>
      <trkpt lat="46.58689" lon="5.693">
        <ele>454</ele>
        <time>2022-03-07T12:16:05Z</time>
      </trkpt>
      <trkpt lat="46.58687" lon="5.69307">
        <ele>454.2</ele>
        <time>2022-03-07T12:16:06Z</time>
      </trkpt>
      <trkpt lat="46.58685" lon="5.69314">
        <ele>454.2</ele>
        <time>2022-03-07T12:16:07Z</time>
      </trkpt>
      <trkpt lat="46.58682" lon="5.69322">
        <ele>454.2</ele>
        <time>2022-03-07T12:16:08Z</time>
      </trkpt>
      <trkpt lat="46.5868" lon="5.69329">
        <ele>454.2</ele>
        <time>2022-03-07T12:16:09Z</time>
      </trkpt>
      <trkpt lat="46.58678" lon="5.69337">
        <ele>454.2</ele>
        <time>2022-03-07T12:16:10Z</time>
      </trkpt>
      <trkpt lat="46.58676" lon="5.69345">
        <ele>454.2</ele>
        <time>2022-03-07T12:16:11Z</time>
      </trkpt>
      <trkpt lat="46.58673" lon="5.69352">
        <ele>454.2</ele>
        <time>2022-03-07T12:16:12Z</time>
      </trkpt>
      <trkpt lat="46.58671" lon="5.6936">
        <ele>454.2</ele>
        <time>2022-03-07T12:16:13Z</time>
      </trkpt>
      <trkpt lat="46.58669" lon="5.69367">
        <ele>454.2</ele>
        <time>2022-03-07T12:16:14Z</time>
      </trkpt>
      <trkpt lat="46.58667" lon="5.69375">
        <ele>454.2</ele>
        <time>2022-03-07T12:16:15Z</time>
      </trkpt>
      <trkpt lat="46.58664" lon="5.69382">
        <ele>454</ele>
        <time>2022-03-07T12:16:16Z</time>
      </trkpt>
      <trkpt lat="46.58662" lon="5.6939">
        <ele>454</ele>
        <time>2022-03-07T12:16:17Z</time>
      </trkpt>
      <trkpt lat="46.5866" lon="5.69398">
        <ele>454</ele>
        <time>2022-03-07T12:16:18Z</time>
      </trkpt>
      <trkpt lat="46.58657" lon="5.69406">
        <ele>454</ele>
        <time>2022-03-07T12:16:19Z</time>
      </trkpt>
      <trkpt lat="46.58655" lon="5.69414">
        <ele>454</ele>
        <time>2022-03-07T12:16:20Z</time>
      </trkpt>
      <trkpt lat="46.58653" lon="5.69422">
        <ele>454</ele>
        <time>2022-03-07T12:16:21Z</time>
      </trkpt>
      <trkpt lat="46.5865" lon="5.6943">
        <ele>453.6</ele>
        <time>2022-03-07T12:16:22Z</time>
      </trkpt>
      <trkpt lat="46.58647" lon="5.69439">
        <ele>453.6</ele>
        <time>2022-03-07T12:16:23Z</time>
      </trkpt>
      <trkpt lat="46.58644" lon="5.69447">
        <ele>453.4</ele>
        <time>2022-03-07T12:16:24Z</time>
      </trkpt>
      <trkpt lat="46.58642" lon="5.69456">
        <ele>453.4</ele>
        <time>2022-03-07T12:16:25Z</time>
      </trkpt>
      <trkpt lat="46.58639" lon="5.69465">
        <ele>453.2</ele>
        <time>2022-03-07T12:16:26Z</time>
      </trkpt>
      <trkpt lat="46.58636" lon="5.69475">
        <ele>453.2</ele>
        <time>2022-03-07T12:16:27Z</time>
      </trkpt>
      <trkpt lat="46.58633" lon="5.69484">
        <ele>452.8</ele>
        <time>2022-03-07T12:16:28Z</time>
      </trkpt>
      <trkpt lat="46.5863" lon="5.69493">
        <ele>452.8</ele>
        <time>2022-03-07T12:16:29Z</time>
      </trkpt>
      <trkpt lat="46.58628" lon="5.69502">
        <ele>452.6</ele>
        <time>2022-03-07T12:16:30Z</time>
      </trkpt>
      <trkpt lat="46.58625" lon="5.69512">
        <ele>452.6</ele>
        <time>2022-03-07T12:16:31Z</time>
      </trkpt>
      <trkpt lat="46.58623" lon="5.69521">
        <ele>452.4</ele>
        <time>2022-03-07T12:16:32Z</time>
      </trkpt>
      <trkpt lat="46.5862" lon="5.69529">
        <ele>452.4</ele>
        <time>2022-03-07T12:16:33Z</time>
      </trkpt>
      <trkpt lat="46.58617" lon="5.69538">
        <ele>452.4</ele>
        <time>2022-03-07T12:16:34Z</time>
      </trkpt>
      <trkpt lat="46.58615" lon="5.69546">
        <ele>452.4</ele>
        <time>2022-03-07T12:16:35Z</time>
      </trkpt>
      <trkpt lat="46.58612" lon="5.69555">
        <ele>452.4</ele>
        <time>2022-03-07T12:16:36Z</time>
      </trkpt>
      <trkpt lat="46.5861" lon="5.69563">
        <ele>452.4</ele>
        <time>2022-03-07T12:16:37Z</time>
      </trkpt>
      <trkpt lat="46.58608" lon="5.69572">
        <ele>452</ele>
        <time>2022-03-07T12:16:38Z</time>
      </trkpt>
      <trkpt lat="46.58605" lon="5.6958">
        <ele>452</ele>
        <time>2022-03-07T12:16:39Z</time>
      </trkpt>
      <trkpt lat="46.58603" lon="5.69588">
        <ele>451.8</ele>
        <time>2022-03-07T12:16:40Z</time>
      </trkpt>
      <trkpt lat="46.586" lon="5.69597">
        <ele>451.8</ele>
        <time>2022-03-07T12:16:41Z</time>
      </trkpt>
      <trkpt lat="46.58598" lon="5.69605">
        <ele>451.6</ele>
        <time>2022-03-07T12:16:42Z</time>
      </trkpt>
      <trkpt lat="46.58596" lon="5.69613">
        <ele>451.6</ele>
        <time>2022-03-07T12:16:43Z</time>
      </trkpt>
      <trkpt lat="46.58594" lon="5.69622">
        <ele>451.4</ele>
        <time>2022-03-07T12:16:44Z</time>
      </trkpt>
      <trkpt lat="46.58591" lon="5.6963">
        <ele>451.4</ele>
        <time>2022-03-07T12:16:45Z</time>
      </trkpt>
      <trkpt lat="46.58589" lon="5.69638">
        <ele>451.4</ele>
        <time>2022-03-07T12:16:46Z</time>
      </trkpt>
      <trkpt lat="46.58586" lon="5.69646">
        <ele>451.4</ele>
        <time>2022-03-07T12:16:47Z</time>
      </trkpt>
      <trkpt lat="46.58584" lon="5.69655">
        <ele>451.4</ele>
        <time>2022-03-07T12:16:48Z</time>
      </trkpt>
      <trkpt lat="46.58581" lon="5.69663">
        <ele>451</ele>
        <time>2022-03-07T12:16:49Z</time>
      </trkpt>
      <trkpt lat="46.58579" lon="5.69671">
        <ele>451</ele>
        <time>2022-03-07T12:16:50Z</time>
      </trkpt>
      <trkpt lat="46.58577" lon="5.69679">
        <ele>450.8</ele>
        <time>2022-03-07T12:16:51Z</time>
      </trkpt>
      <trkpt lat="46.58574" lon="5.69687">
        <ele>450.8</ele>
        <time>2022-03-07T12:16:52Z</time>
      </trkpt>
      <trkpt lat="46.58572" lon="5.69695">
        <ele>450.8</ele>
        <time>2022-03-07T12:16:53Z</time>
      </trkpt>
      <trkpt lat="46.5857" lon="5.69702">
        <ele>450.8</ele>
        <time>2022-03-07T12:16:54Z</time>
      </trkpt>
      <trkpt lat="46.58568" lon="5.6971">
        <ele>450.8</ele>
        <time>2022-03-07T12:16:55Z</time>
      </trkpt>
      <trkpt lat="46.58566" lon="5.69718">
        <ele>450.8</ele>
        <time>2022-03-07T12:16:56Z</time>
      </trkpt>
      <trkpt lat="46.58564" lon="5.69725">
        <ele>450.8</ele>
        <time>2022-03-07T12:16:57Z</time>
      </trkpt>
      <trkpt lat="46.58562" lon="5.69732">
        <ele>450.8</ele>
        <time>2022-03-07T12:16:58Z</time>
      </trkpt>
      <trkpt lat="46.58559" lon="5.69739">
        <ele>450.8</ele>
        <time>2022-03-07T12:16:59Z</time>
      </trkpt>
      <trkpt lat="46.58557" lon="5.69746">
        <ele>450.8</ele>
        <time>2022-03-07T12:17:00Z</time>
      </trkpt>
      <trkpt lat="46.58556" lon="5.69753">
        <ele>450.8</ele>
        <time>2022-03-07T12:17:01Z</time>
      </trkpt>
      <trkpt lat="46.58554" lon="5.69759">
        <ele>450.8</ele>
        <time>2022-03-07T12:17:02Z</time>
      </trkpt>
      <trkpt lat="46.58552" lon="5.69765">
        <ele>450.8</ele>
        <time>2022-03-07T12:17:03Z</time>
      </trkpt>
      <trkpt lat="46.5855" lon="5.69771">
        <ele>450.6</ele>
        <time>2022-03-07T12:17:04Z</time>
      </trkpt>
      <trkpt lat="46.58549" lon="5.69777">
        <ele>450.6</ele>
        <time>2022-03-07T12:17:05Z</time>
      </trkpt>
      <trkpt lat="46.58547" lon="5.69783">
        <ele>450.6</ele>
        <time>2022-03-07T12:17:06Z</time>
      </trkpt>
      <trkpt lat="46.58545" lon="5.69789">
        <ele>450.4</ele>
        <time>2022-03-07T12:17:07Z</time>
      </trkpt>
      <trkpt lat="46.58543" lon="5.69796">
        <ele>450.4</ele>
        <time>2022-03-07T12:17:08Z</time>
      </trkpt>
      <trkpt lat="46.5854" lon="5.69802">
        <ele>450.4</ele>
        <time>2022-03-07T12:17:09Z</time>
      </trkpt>
      <trkpt lat="46.58538" lon="5.69808">
        <ele>450.4</ele>
        <time>2022-03-07T12:17:10Z</time>
      </trkpt>
      <trkpt lat="46.58537" lon="5.69815">
        <ele>450.4</ele>
        <time>2022-03-07T12:17:11Z</time>
      </trkpt>
      <trkpt lat="46.58534" lon="5.69822">
        <ele>450.4</ele>
        <time>2022-03-07T12:17:12Z</time>
      </trkpt>
      <trkpt lat="46.58532" lon="5.69828">
        <ele>450.4</ele>
        <time>2022-03-07T12:17:13Z</time>
      </trkpt>
      <trkpt lat="46.5853" lon="5.69835">
        <ele>450.4</ele>
        <time>2022-03-07T12:17:14Z</time>
      </trkpt>
      <trkpt lat="46.58527" lon="5.69842">
        <ele>450.2</ele>
        <time>2022-03-07T12:17:15Z</time>
      </trkpt>
      <trkpt lat="46.58526" lon="5.69849">
        <ele>450.2</ele>
        <time>2022-03-07T12:17:16Z</time>
      </trkpt>
      <trkpt lat="46.58524" lon="5.69856">
        <ele>450.2</ele>
        <time>2022-03-07T12:17:17Z</time>
      </trkpt>
      <trkpt lat="46.58523" lon="5.69863">
        <ele>450.2</ele>
        <time>2022-03-07T12:17:18Z</time>
      </trkpt>
      <trkpt lat="46.5852" lon="5.6987">
        <ele>450.2</ele>
        <time>2022-03-07T12:17:19Z</time>
      </trkpt>
      <trkpt lat="46.58518" lon="5.69878">
        <ele>450.2</ele>
        <time>2022-03-07T12:17:20Z</time>
      </trkpt>
      <trkpt lat="46.58516" lon="5.69885">
        <ele>450.2</ele>
        <time>2022-03-07T12:17:21Z</time>
      </trkpt>
      <trkpt lat="46.58513" lon="5.69892">
        <ele>450</ele>
        <time>2022-03-07T12:17:22Z</time>
      </trkpt>
      <trkpt lat="46.58511" lon="5.699">
        <ele>450</ele>
        <time>2022-03-07T12:17:23Z</time>
      </trkpt>
      <trkpt lat="46.58509" lon="5.69907">
        <ele>450</ele>
        <time>2022-03-07T12:17:24Z</time>
      </trkpt>
      <trkpt lat="46.58507" lon="5.69914">
        <ele>450</ele>
        <time>2022-03-07T12:17:25Z</time>
      </trkpt>
      <trkpt lat="46.58504" lon="5.69921">
        <ele>450</ele>
        <time>2022-03-07T12:17:26Z</time>
      </trkpt>
      <trkpt lat="46.58502" lon="5.69928">
        <ele>450</ele>
        <time>2022-03-07T12:17:27Z</time>
      </trkpt>
      <trkpt lat="46.58501" lon="5.69935">
        <ele>450</ele>
        <time>2022-03-07T12:17:28Z</time>
      </trkpt>
      <trkpt lat="46.58499" lon="5.69943">
        <ele>450</ele>
        <time>2022-03-07T12:17:29Z</time>
      </trkpt>
      <trkpt lat="46.58498" lon="5.6995">
        <ele>450</ele>
        <time>2022-03-07T12:17:30Z</time>
      </trkpt>
      <trkpt lat="46.58498" lon="5.69957">
        <ele>450.2</ele>
        <time>2022-03-07T12:17:31Z</time>
      </trkpt>
      <trkpt lat="46.58497" lon="5.69964">
        <ele>450.2</ele>
        <time>2022-03-07T12:17:32Z</time>
      </trkpt>
      <trkpt lat="46.58498" lon="5.69972">
        <ele>450.2</ele>
        <time>2022-03-07T12:17:33Z</time>
      </trkpt>
      <trkpt lat="46.58498" lon="5.69979">
        <ele>450.2</ele>
        <time>2022-03-07T12:17:34Z</time>
      </trkpt>
      <trkpt lat="46.58498" lon="5.69986">
        <ele>450.6</ele>
        <time>2022-03-07T12:17:35Z</time>
      </trkpt>
      <trkpt lat="46.58499" lon="5.69993">
        <ele>450.6</ele>
        <time>2022-03-07T12:17:36Z</time>
      </trkpt>
      <trkpt lat="46.58499" lon="5.69999">
        <ele>450.8</ele>
        <time>2022-03-07T12:17:37Z</time>
      </trkpt>
      <trkpt lat="46.58499" lon="5.70006">
        <ele>451</ele>
        <time>2022-03-07T12:17:38Z</time>
      </trkpt>
      <trkpt lat="46.58499" lon="5.70012">
        <ele>451.2</ele>
        <time>2022-03-07T12:17:39Z</time>
      </trkpt>
      <trkpt lat="46.585" lon="5.70018">
        <ele>451.2</ele>
        <time>2022-03-07T12:17:40Z</time>
      </trkpt>
      <trkpt lat="46.585" lon="5.70024">
        <ele>451.6</ele>
        <time>2022-03-07T12:17:41Z</time>
      </trkpt>
      <trkpt lat="46.58501" lon="5.7003">
        <ele>451.6</ele>
        <time>2022-03-07T12:17:42Z</time>
      </trkpt>
      <trkpt lat="46.58502" lon="5.70036">
        <ele>451.8</ele>
        <time>2022-03-07T12:17:43Z</time>
      </trkpt>
      <trkpt lat="46.58503" lon="5.70042">
        <ele>451.8</ele>
        <time>2022-03-07T12:17:44Z</time>
      </trkpt>
      <trkpt lat="46.58504" lon="5.70049">
        <ele>452.2</ele>
        <time>2022-03-07T12:17:45Z</time>
      </trkpt>
      <trkpt lat="46.58505" lon="5.70055">
        <ele>452.2</ele>
        <time>2022-03-07T12:17:46Z</time>
      </trkpt>
      <trkpt lat="46.58505" lon="5.70062">
        <ele>452.2</ele>
        <time>2022-03-07T12:17:47Z</time>
      </trkpt>
      <trkpt lat="46.58506" lon="5.70069">
        <ele>452.6</ele>
        <time>2022-03-07T12:17:48Z</time>
      </trkpt>
      <trkpt lat="46.58507" lon="5.70076">
        <ele>452.6</ele>
        <time>2022-03-07T12:17:49Z</time>
      </trkpt>
      <trkpt lat="46.58507" lon="5.70084">
        <ele>452.6</ele>
        <time>2022-03-07T12:17:50Z</time>
      </trkpt>
      <trkpt lat="46.58508" lon="5.70091">
        <ele>452.8</ele>
        <time>2022-03-07T12:17:51Z</time>
      </trkpt>
      <trkpt lat="46.58509" lon="5.70099">
        <ele>452.8</ele>
        <time>2022-03-07T12:17:52Z</time>
      </trkpt>
      <trkpt lat="46.5851" lon="5.70106">
        <ele>452.8</ele>
        <time>2022-03-07T12:17:53Z</time>
      </trkpt>
      <trkpt lat="46.58511" lon="5.70114">
        <ele>452.8</ele>
        <time>2022-03-07T12:17:54Z</time>
      </trkpt>
      <trkpt lat="46.5851" lon="5.70121">
        <ele>452.8</ele>
        <time>2022-03-07T12:17:55Z</time>
      </trkpt>
      <trkpt lat="46.58511" lon="5.70128">
        <ele>452.8</ele>
        <time>2022-03-07T12:17:56Z</time>
      </trkpt>
      <trkpt lat="46.58512" lon="5.70135">
        <ele>452.8</ele>
        <time>2022-03-07T12:17:57Z</time>
      </trkpt>
      <trkpt lat="46.58514" lon="5.70142">
        <ele>452.8</ele>
        <time>2022-03-07T12:17:58Z</time>
      </trkpt>
      <trkpt lat="46.58515" lon="5.70149">
        <ele>452.8</ele>
        <time>2022-03-07T12:17:59Z</time>
      </trkpt>
      <trkpt lat="46.58516" lon="5.70156">
        <ele>452.8</ele>
        <time>2022-03-07T12:18:00Z</time>
      </trkpt>
      <trkpt lat="46.58518" lon="5.70162">
        <ele>453</ele>
        <time>2022-03-07T12:18:01Z</time>
      </trkpt>
      <trkpt lat="46.5852" lon="5.70167">
        <ele>453</ele>
        <time>2022-03-07T12:18:02Z</time>
      </trkpt>
      <trkpt lat="46.58521" lon="5.70171">
        <ele>453.2</ele>
        <time>2022-03-07T12:18:03Z</time>
      </trkpt>
      <trkpt lat="46.58523" lon="5.70175">
        <ele>453.2</ele>
        <time>2022-03-07T12:18:04Z</time>
      </trkpt>
      <trkpt lat="46.58525" lon="5.70178">
        <ele>453.4</ele>
        <time>2022-03-07T12:18:05Z</time>
      </trkpt>
      <trkpt lat="46.58528" lon="5.7018">
        <ele>453.4</ele>
        <time>2022-03-07T12:18:06Z</time>
      </trkpt>
      <trkpt lat="46.5853" lon="5.70182">
        <ele>453.8</ele>
        <time>2022-03-07T12:18:07Z</time>
      </trkpt>
      <trkpt lat="46.58532" lon="5.70184">
        <ele>453.8</ele>
        <time>2022-03-07T12:18:08Z</time>
      </trkpt>
      <trkpt lat="46.58534" lon="5.70186">
        <ele>454.2</ele>
        <time>2022-03-07T12:18:09Z</time>
      </trkpt>
      <trkpt lat="46.58537" lon="5.70187">
        <ele>454.2</ele>
        <time>2022-03-07T12:18:10Z</time>
      </trkpt>
      <trkpt lat="46.58539" lon="5.70189">
        <ele>454.6</ele>
        <time>2022-03-07T12:18:11Z</time>
      </trkpt>
      <trkpt lat="46.58542" lon="5.7019">
        <ele>454.8</ele>
        <time>2022-03-07T12:18:12Z</time>
      </trkpt>
      <trkpt lat="46.58544" lon="5.70191">
        <ele>454.8</ele>
        <time>2022-03-07T12:18:13Z</time>
      </trkpt>
      <trkpt lat="46.58547" lon="5.70193">
        <ele>455</ele>
        <time>2022-03-07T12:18:14Z</time>
      </trkpt>
      <trkpt lat="46.5855" lon="5.70194">
        <ele>455.2</ele>
        <time>2022-03-07T12:18:15Z</time>
      </trkpt>
      <trkpt lat="46.58552" lon="5.70195">
        <ele>455.2</ele>
        <time>2022-03-07T12:18:16Z</time>
      </trkpt>
      <trkpt lat="46.58555" lon="5.70196">
        <ele>455.6</ele>
        <time>2022-03-07T12:18:17Z</time>
      </trkpt>
      <trkpt lat="46.58558" lon="5.70197">
        <ele>455.6</ele>
        <time>2022-03-07T12:18:18Z</time>
      </trkpt>
      <trkpt lat="46.58561" lon="5.70197">
        <ele>455.6</ele>
        <time>2022-03-07T12:18:19Z</time>
      </trkpt>
      <trkpt lat="46.58563" lon="5.70198">
        <ele>455.8</ele>
        <time>2022-03-07T12:18:20Z</time>
      </trkpt>
      <trkpt lat="46.58566" lon="5.70199">
        <ele>455.8</ele>
        <time>2022-03-07T12:18:21Z</time>
      </trkpt>
      <trkpt lat="46.58569" lon="5.70199">
        <ele>456</ele>
        <time>2022-03-07T12:18:22Z</time>
      </trkpt>
      <trkpt lat="46.58571" lon="5.702">
        <ele>456</ele>
        <time>2022-03-07T12:18:23Z</time>
      </trkpt>
      <trkpt lat="46.58574" lon="5.70201">
        <ele>456.4</ele>
        <time>2022-03-07T12:18:24Z</time>
      </trkpt>
      <trkpt lat="46.58576" lon="5.70203">
        <ele>456.4</ele>
        <time>2022-03-07T12:18:25Z</time>
      </trkpt>
      <trkpt lat="46.58578" lon="5.70204">
        <ele>456.8</ele>
        <time>2022-03-07T12:18:26Z</time>
      </trkpt>
      <trkpt lat="46.58581" lon="5.70206">
        <ele>456.8</ele>
        <time>2022-03-07T12:18:27Z</time>
      </trkpt>
      <trkpt lat="46.58583" lon="5.70208">
        <ele>456.8</ele>
        <time>2022-03-07T12:18:28Z</time>
      </trkpt>
      <trkpt lat="46.58586" lon="5.7021">
        <ele>457.2</ele>
        <time>2022-03-07T12:18:29Z</time>
      </trkpt>
      <trkpt lat="46.58588" lon="5.70212">
        <ele>457.2</ele>
        <time>2022-03-07T12:18:30Z</time>
      </trkpt>
      <trkpt lat="46.5859" lon="5.70214">
        <ele>457.2</ele>
        <time>2022-03-07T12:18:31Z</time>
      </trkpt>
      <trkpt lat="46.58592" lon="5.70216">
        <ele>457.4</ele>
        <time>2022-03-07T12:18:32Z</time>
      </trkpt>
      <trkpt lat="46.58593" lon="5.70219">
        <ele>457.6</ele>
        <time>2022-03-07T12:18:33Z</time>
      </trkpt>
      <trkpt lat="46.58595" lon="5.70221">
        <ele>457.6</ele>
        <time>2022-03-07T12:18:34Z</time>
      </trkpt>
      <trkpt lat="46.58596" lon="5.70224">
        <ele>458</ele>
        <time>2022-03-07T12:18:35Z</time>
      </trkpt>
      <trkpt lat="46.58597" lon="5.70227">
        <ele>458.2</ele>
        <time>2022-03-07T12:18:36Z</time>
      </trkpt>
      <trkpt lat="46.58598" lon="5.7023">
        <ele>458.2</ele>
        <time>2022-03-07T12:18:37Z</time>
      </trkpt>
      <trkpt lat="46.586" lon="5.70233">
        <ele>458.6</ele>
        <time>2022-03-07T12:18:38Z</time>
      </trkpt>
      <trkpt lat="46.58601" lon="5.70236">
        <ele>458.8</ele>
        <time>2022-03-07T12:18:39Z</time>
      </trkpt>
      <trkpt lat="46.58602" lon="5.70239">
        <ele>458.8</ele>
        <time>2022-03-07T12:18:40Z</time>
      </trkpt>
      <trkpt lat="46.58603" lon="5.70242">
        <ele>459</ele>
        <time>2022-03-07T12:18:41Z</time>
      </trkpt>
      <trkpt lat="46.58604" lon="5.70245">
        <ele>459</ele>
        <time>2022-03-07T12:18:42Z</time>
      </trkpt>
      <trkpt lat="46.58604" lon="5.70249">
        <ele>459.2</ele>
        <time>2022-03-07T12:18:43Z</time>
      </trkpt>
      <trkpt lat="46.58605" lon="5.70252">
        <ele>459.2</ele>
        <time>2022-03-07T12:18:44Z</time>
      </trkpt>
      <trkpt lat="46.58605" lon="5.70256">
        <ele>459.6</ele>
        <time>2022-03-07T12:18:45Z</time>
      </trkpt>
      <trkpt lat="46.58606" lon="5.70259">
        <ele>459.6</ele>
        <time>2022-03-07T12:18:46Z</time>
      </trkpt>
      <trkpt lat="46.58606" lon="5.70263">
        <ele>460</ele>
        <time>2022-03-07T12:18:47Z</time>
      </trkpt>
      <trkpt lat="46.58606" lon="5.70267">
        <ele>460</ele>
        <time>2022-03-07T12:18:48Z</time>
      </trkpt>
      <trkpt lat="46.58605" lon="5.7027">
        <ele>460.2</ele>
        <time>2022-03-07T12:18:49Z</time>
      </trkpt>
      <trkpt lat="46.58605" lon="5.70274">
        <ele>460.2</ele>
        <time>2022-03-07T12:18:50Z</time>
      </trkpt>
      <trkpt lat="46.58605" lon="5.70278">
        <ele>460.6</ele>
        <time>2022-03-07T12:18:51Z</time>
      </trkpt>
      <trkpt lat="46.58605" lon="5.70282">
        <ele>460.6</ele>
        <time>2022-03-07T12:18:52Z</time>
      </trkpt>
      <trkpt lat="46.58605" lon="5.70286">
        <ele>460.8</ele>
        <time>2022-03-07T12:18:53Z</time>
      </trkpt>
      <trkpt lat="46.58605" lon="5.70289">
        <ele>460.8</ele>
        <time>2022-03-07T12:18:54Z</time>
      </trkpt>
      <trkpt lat="46.58605" lon="5.70293">
        <ele>461.2</ele>
        <time>2022-03-07T12:18:55Z</time>
      </trkpt>
      <trkpt lat="46.58605" lon="5.70296">
        <ele>461.2</ele>
        <time>2022-03-07T12:18:56Z</time>
      </trkpt>
      <trkpt lat="46.58604" lon="5.703">
        <ele>461.6</ele>
        <time>2022-03-07T12:18:57Z</time>
      </trkpt>
      <trkpt lat="46.58604" lon="5.70303">
        <ele>461.6</ele>
        <time>2022-03-07T12:18:58Z</time>
      </trkpt>
      <trkpt lat="46.58603" lon="5.70307">
        <ele>461.8</ele>
        <time>2022-03-07T12:18:59Z</time>
      </trkpt>
      <trkpt lat="46.58603" lon="5.70311">
        <ele>461.8</ele>
        <time>2022-03-07T12:19:00Z</time>
      </trkpt>
      <trkpt lat="46.58603" lon="5.70314">
        <ele>462.2</ele>
        <time>2022-03-07T12:19:01Z</time>
      </trkpt>
      <trkpt lat="46.58603" lon="5.70318">
        <ele>462.2</ele>
        <time>2022-03-07T12:19:02Z</time>
      </trkpt>
      <trkpt lat="46.58602" lon="5.70321">
        <ele>462.4</ele>
        <time>2022-03-07T12:19:03Z</time>
      </trkpt>
      <trkpt lat="46.58602" lon="5.70325">
        <ele>462.6</ele>
        <time>2022-03-07T12:19:04Z</time>
      </trkpt>
      <trkpt lat="46.58602" lon="5.70328">
        <ele>462.6</ele>
        <time>2022-03-07T12:19:05Z</time>
      </trkpt>
      <trkpt lat="46.58601" lon="5.70332">
        <ele>463</ele>
        <time>2022-03-07T12:19:06Z</time>
      </trkpt>
      <trkpt lat="46.58601" lon="5.70335">
        <ele>463.2</ele>
        <time>2022-03-07T12:19:07Z</time>
      </trkpt>
      <trkpt lat="46.58601" lon="5.70339">
        <ele>463.2</ele>
        <time>2022-03-07T12:19:08Z</time>
      </trkpt>
      <trkpt lat="46.58601" lon="5.70342">
        <ele>463.4</ele>
        <time>2022-03-07T12:19:09Z</time>
      </trkpt>
      <trkpt lat="46.58601" lon="5.70346">
        <ele>463.4</ele>
        <time>2022-03-07T12:19:10Z</time>
      </trkpt>
      <trkpt lat="46.58601" lon="5.7035">
        <ele>463.6</ele>
        <time>2022-03-07T12:19:11Z</time>
      </trkpt>
      <trkpt lat="46.586" lon="5.70354">
        <ele>463.6</ele>
        <time>2022-03-07T12:19:12Z</time>
      </trkpt>
      <trkpt lat="46.586" lon="5.70357">
        <ele>464</ele>
        <time>2022-03-07T12:19:13Z</time>
      </trkpt>
      <trkpt lat="46.586" lon="5.70361">
        <ele>464</ele>
        <time>2022-03-07T12:19:14Z</time>
      </trkpt>
      <trkpt lat="46.586" lon="5.70365">
        <ele>464.4</ele>
        <time>2022-03-07T12:19:15Z</time>
      </trkpt>
      <trkpt lat="46.586" lon="5.70368">
        <ele>464.4</ele>
        <time>2022-03-07T12:19:16Z</time>
      </trkpt>
      <trkpt lat="46.586" lon="5.70371">
        <ele>464.6</ele>
        <time>2022-03-07T12:19:17Z</time>
      </trkpt>
      <trkpt lat="46.586" lon="5.70375">
        <ele>464.6</ele>
        <time>2022-03-07T12:19:18Z</time>
      </trkpt>
      <trkpt lat="46.586" lon="5.70378">
        <ele>464.8</ele>
        <time>2022-03-07T12:19:19Z</time>
      </trkpt>
      <trkpt lat="46.586" lon="5.70382">
        <ele>464.8</ele>
        <time>2022-03-07T12:19:20Z</time>
      </trkpt>
      <trkpt lat="46.58601" lon="5.70386">
        <ele>465.2</ele>
        <time>2022-03-07T12:19:21Z</time>
      </trkpt>
      <trkpt lat="46.58601" lon="5.70389">
        <ele>465.2</ele>
        <time>2022-03-07T12:19:22Z</time>
      </trkpt>
      <trkpt lat="46.58601" lon="5.70392">
        <ele>465.4</ele>
        <time>2022-03-07T12:19:23Z</time>
      </trkpt>
      <trkpt lat="46.58601" lon="5.70395">
        <ele>465.8</ele>
        <time>2022-03-07T12:19:24Z</time>
      </trkpt>
      <trkpt lat="46.58601" lon="5.70398">
        <ele>465.8</ele>
        <time>2022-03-07T12:19:25Z</time>
      </trkpt>
      <trkpt lat="46.58602" lon="5.70402">
        <ele>466</ele>
        <time>2022-03-07T12:19:26Z</time>
      </trkpt>
      <trkpt lat="46.58603" lon="5.70405">
        <ele>466</ele>
        <time>2022-03-07T12:19:27Z</time>
      </trkpt>
      <trkpt lat="46.58604" lon="5.70408">
        <ele>466.4</ele>
        <time>2022-03-07T12:19:28Z</time>
      </trkpt>
      <trkpt lat="46.58604" lon="5.70411">
        <ele>466.4</ele>
        <time>2022-03-07T12:19:29Z</time>
      </trkpt>
      <trkpt lat="46.58605" lon="5.70414">
        <ele>466.6</ele>
        <time>2022-03-07T12:19:30Z</time>
      </trkpt>
      <trkpt lat="46.58606" lon="5.70417">
        <ele>466.6</ele>
        <time>2022-03-07T12:19:31Z</time>
      </trkpt>
      <trkpt lat="46.58608" lon="5.7042">
        <ele>467</ele>
        <time>2022-03-07T12:19:32Z</time>
      </trkpt>
      <trkpt lat="46.58609" lon="5.70422">
        <ele>467</ele>
        <time>2022-03-07T12:19:33Z</time>
      </trkpt>
      <trkpt lat="46.58611" lon="5.70425">
        <ele>467.2</ele>
        <time>2022-03-07T12:19:34Z</time>
      </trkpt>
      <trkpt lat="46.58612" lon="5.70429">
        <ele>467.2</ele>
        <time>2022-03-07T12:19:35Z</time>
      </trkpt>
      <trkpt lat="46.58613" lon="5.70432">
        <ele>467.6</ele>
        <time>2022-03-07T12:19:36Z</time>
      </trkpt>
      <trkpt lat="46.58614" lon="5.70434">
        <ele>467.6</ele>
        <time>2022-03-07T12:19:37Z</time>
      </trkpt>
      <trkpt lat="46.58616" lon="5.70437">
        <ele>467.8</ele>
        <time>2022-03-07T12:19:38Z</time>
      </trkpt>
      <trkpt lat="46.58618" lon="5.70439">
        <ele>468.2</ele>
        <time>2022-03-07T12:19:39Z</time>
      </trkpt>
      <trkpt lat="46.5862" lon="5.70441">
        <ele>468.2</ele>
        <time>2022-03-07T12:19:40Z</time>
      </trkpt>
      <trkpt lat="46.58622" lon="5.70443">
        <ele>468.4</ele>
        <time>2022-03-07T12:19:41Z</time>
      </trkpt>
      <trkpt lat="46.58624" lon="5.70445">
        <ele>468.4</ele>
        <time>2022-03-07T12:19:42Z</time>
      </trkpt>
      <trkpt lat="46.58627" lon="5.70447">
        <ele>468.8</ele>
        <time>2022-03-07T12:19:43Z</time>
      </trkpt>
      <trkpt lat="46.58629" lon="5.70449">
        <ele>468.8</ele>
        <time>2022-03-07T12:19:44Z</time>
      </trkpt>
      <trkpt lat="46.58631" lon="5.70452">
        <ele>469</ele>
        <time>2022-03-07T12:19:45Z</time>
      </trkpt>
      <trkpt lat="46.58633" lon="5.70453">
        <ele>469.2</ele>
        <time>2022-03-07T12:19:46Z</time>
      </trkpt>
      <trkpt lat="46.58636" lon="5.70454">
        <ele>469.2</ele>
        <time>2022-03-07T12:19:47Z</time>
      </trkpt>
      <trkpt lat="46.58639" lon="5.70455">
        <ele>469.4</ele>
        <time>2022-03-07T12:19:48Z</time>
      </trkpt>
      <trkpt lat="46.58641" lon="5.70456">
        <ele>469.4</ele>
        <time>2022-03-07T12:19:49Z</time>
      </trkpt>
      <trkpt lat="46.58644" lon="5.70457">
        <ele>469.8</ele>
        <time>2022-03-07T12:19:50Z</time>
      </trkpt>
      <trkpt lat="46.58646" lon="5.70457">
        <ele>469.8</ele>
        <time>2022-03-07T12:19:51Z</time>
      </trkpt>
      <trkpt lat="46.58649" lon="5.70458">
        <ele>470</ele>
        <time>2022-03-07T12:19:52Z</time>
      </trkpt>
      <trkpt lat="46.58652" lon="5.70458">
        <ele>470</ele>
        <time>2022-03-07T12:19:53Z</time>
      </trkpt>
      <trkpt lat="46.58654" lon="5.70459">
        <ele>470.4</ele>
        <time>2022-03-07T12:19:54Z</time>
      </trkpt>
      <trkpt lat="46.58657" lon="5.7046">
        <ele>470.6</ele>
        <time>2022-03-07T12:19:55Z</time>
      </trkpt>
      <trkpt lat="46.58659" lon="5.70461">
        <ele>470.6</ele>
        <time>2022-03-07T12:19:56Z</time>
      </trkpt>
      <trkpt lat="46.58662" lon="5.70462">
        <ele>471</ele>
        <time>2022-03-07T12:19:57Z</time>
      </trkpt>
      <trkpt lat="46.58665" lon="5.70462">
        <ele>471</ele>
        <time>2022-03-07T12:19:58Z</time>
      </trkpt>
      <trkpt lat="46.58667" lon="5.70463">
        <ele>471.2</ele>
        <time>2022-03-07T12:19:59Z</time>
      </trkpt>
      <trkpt lat="46.5867" lon="5.70464">
        <ele>471.2</ele>
        <time>2022-03-07T12:20:00Z</time>
      </trkpt>
      <trkpt lat="46.58673" lon="5.70465">
        <ele>471.6</ele>
        <time>2022-03-07T12:20:01Z</time>
      </trkpt>
      <trkpt lat="46.58675" lon="5.70466">
        <ele>471.6</ele>
        <time>2022-03-07T12:20:02Z</time>
      </trkpt>
      <trkpt lat="46.58678" lon="5.70467">
        <ele>471.8</ele>
        <time>2022-03-07T12:20:03Z</time>
      </trkpt>
      <trkpt lat="46.58681" lon="5.70469">
        <ele>471.8</ele>
        <time>2022-03-07T12:20:04Z</time>
      </trkpt>
      <trkpt lat="46.58683" lon="5.70471">
        <ele>472</ele>
        <time>2022-03-07T12:20:05Z</time>
      </trkpt>
      <trkpt lat="46.58685" lon="5.70472">
        <ele>472</ele>
        <time>2022-03-07T12:20:06Z</time>
      </trkpt>
      <trkpt lat="46.58688" lon="5.70474">
        <ele>472.2</ele>
        <time>2022-03-07T12:20:07Z</time>
      </trkpt>
      <trkpt lat="46.5869" lon="5.70476">
        <ele>472.2</ele>
        <time>2022-03-07T12:20:08Z</time>
      </trkpt>
      <trkpt lat="46.58692" lon="5.70478">
        <ele>472.4</ele>
        <time>2022-03-07T12:20:09Z</time>
      </trkpt>
      <trkpt lat="46.58694" lon="5.70481">
        <ele>472.4</ele>
        <time>2022-03-07T12:20:10Z</time>
      </trkpt>
      <trkpt lat="46.58697" lon="5.70483">
        <ele>472.8</ele>
        <time>2022-03-07T12:20:11Z</time>
      </trkpt>
      <trkpt lat="46.58699" lon="5.70486">
        <ele>473</ele>
        <time>2022-03-07T12:20:12Z</time>
      </trkpt>
      <trkpt lat="46.58701" lon="5.70488">
        <ele>473</ele>
        <time>2022-03-07T12:20:13Z</time>
      </trkpt>
      <trkpt lat="46.58702" lon="5.70491">
        <ele>473.4</ele>
        <time>2022-03-07T12:20:14Z</time>
      </trkpt>
      <trkpt lat="46.58702" lon="5.70491">
        <ele>473.4</ele>
        <time>2022-03-07T12:20:15Z</time>
      </trkpt>
      <trkpt lat="46.58704" lon="5.70494">
        <ele>473.6</ele>
        <time>2022-03-07T12:20:16Z</time>
      </trkpt>
      <trkpt lat="46.58706" lon="5.70497">
        <ele>473.6</ele>
        <time>2022-03-07T12:20:17Z</time>
      </trkpt>
      <trkpt lat="46.58707" lon="5.70499">
        <ele>474</ele>
        <time>2022-03-07T12:20:18Z</time>
      </trkpt>
      <trkpt lat="46.58709" lon="5.70502">
        <ele>474</ele>
        <time>2022-03-07T12:20:19Z</time>
      </trkpt>
      <trkpt lat="46.58711" lon="5.70505">
        <ele>474.4</ele>
        <time>2022-03-07T12:20:20Z</time>
      </trkpt>
      <trkpt lat="46.58713" lon="5.70508">
        <ele>474.4</ele>
        <time>2022-03-07T12:20:21Z</time>
      </trkpt>
      <trkpt lat="46.58714" lon="5.70511">
        <ele>474.6</ele>
        <time>2022-03-07T12:20:22Z</time>
      </trkpt>
      <trkpt lat="46.58716" lon="5.70513">
        <ele>474.8</ele>
        <time>2022-03-07T12:20:23Z</time>
      </trkpt>
      <trkpt lat="46.58718" lon="5.70516">
        <ele>474.8</ele>
        <time>2022-03-07T12:20:24Z</time>
      </trkpt>
      <trkpt lat="46.5872" lon="5.70519">
        <ele>475.2</ele>
        <time>2022-03-07T12:20:25Z</time>
      </trkpt>
      <trkpt lat="46.58722" lon="5.70522">
        <ele>475.6</ele>
        <time>2022-03-07T12:20:26Z</time>
      </trkpt>
      <trkpt lat="46.58723" lon="5.70525">
        <ele>475.6</ele>
        <time>2022-03-07T12:20:27Z</time>
      </trkpt>
      <trkpt lat="46.58725" lon="5.70529">
        <ele>475.8</ele>
        <time>2022-03-07T12:20:28Z</time>
      </trkpt>
      <trkpt lat="46.58726" lon="5.70532">
        <ele>475.8</ele>
        <time>2022-03-07T12:20:29Z</time>
      </trkpt>
      <trkpt lat="46.58728" lon="5.70535">
        <ele>476.2</ele>
        <time>2022-03-07T12:20:30Z</time>
      </trkpt>
      <trkpt lat="46.58729" lon="5.70538">
        <ele>476.2</ele>
        <time>2022-03-07T12:20:31Z</time>
      </trkpt>
      <trkpt lat="46.58731" lon="5.70541">
        <ele>476.4</ele>
        <time>2022-03-07T12:20:32Z</time>
      </trkpt>
      <trkpt lat="46.58733" lon="5.70544">
        <ele>476.4</ele>
        <time>2022-03-07T12:20:33Z</time>
      </trkpt>
      <trkpt lat="46.58735" lon="5.70547">
        <ele>476.6</ele>
        <time>2022-03-07T12:20:34Z</time>
      </trkpt>
      <trkpt lat="46.58736" lon="5.7055">
        <ele>476.6</ele>
        <time>2022-03-07T12:20:35Z</time>
      </trkpt>
      <trkpt lat="46.58738" lon="5.70553">
        <ele>477</ele>
        <time>2022-03-07T12:20:36Z</time>
      </trkpt>
      <trkpt lat="46.58739" lon="5.70556">
        <ele>477</ele>
        <time>2022-03-07T12:20:37Z</time>
      </trkpt>
      <trkpt lat="46.5874" lon="5.7056">
        <ele>477.2</ele>
        <time>2022-03-07T12:20:38Z</time>
      </trkpt>
      <trkpt lat="46.58742" lon="5.70562">
        <ele>477.2</ele>
        <time>2022-03-07T12:20:39Z</time>
      </trkpt>
      <trkpt lat="46.58743" lon="5.70566">
        <ele>477.4</ele>
        <time>2022-03-07T12:20:40Z</time>
      </trkpt>
      <trkpt lat="46.58745" lon="5.70569">
        <ele>477.4</ele>
        <time>2022-03-07T12:20:41Z</time>
      </trkpt>
      <trkpt lat="46.58747" lon="5.70571">
        <ele>477.8</ele>
        <time>2022-03-07T12:20:42Z</time>
      </trkpt>
      <trkpt lat="46.58748" lon="5.70574">
        <ele>477.8</ele>
        <time>2022-03-07T12:20:43Z</time>
      </trkpt>
      <trkpt lat="46.5875" lon="5.70577">
        <ele>478</ele>
        <time>2022-03-07T12:20:44Z</time>
      </trkpt>
      <trkpt lat="46.58752" lon="5.7058">
        <ele>478</ele>
        <time>2022-03-07T12:20:45Z</time>
      </trkpt>
      <trkpt lat="46.58754" lon="5.70583">
        <ele>478.2</ele>
        <time>2022-03-07T12:20:46Z</time>
      </trkpt>
      <trkpt lat="46.58755" lon="5.70586">
        <ele>478.2</ele>
        <time>2022-03-07T12:20:47Z</time>
      </trkpt>
      <trkpt lat="46.58757" lon="5.70589">
        <ele>478.6</ele>
        <time>2022-03-07T12:20:48Z</time>
      </trkpt>
      <trkpt lat="46.58759" lon="5.70592">
        <ele>478.6</ele>
        <time>2022-03-07T12:20:49Z</time>
      </trkpt>
      <trkpt lat="46.5876" lon="5.70595">
        <ele>478.8</ele>
        <time>2022-03-07T12:20:50Z</time>
      </trkpt>
      <trkpt lat="46.58762" lon="5.70598">
        <ele>478.8</ele>
        <time>2022-03-07T12:20:51Z</time>
      </trkpt>
      <trkpt lat="46.58764" lon="5.70601">
        <ele>478.8</ele>
        <time>2022-03-07T12:20:52Z</time>
      </trkpt>
      <trkpt lat="46.58766" lon="5.70605">
        <ele>479</ele>
        <time>2022-03-07T12:20:53Z</time>
      </trkpt>
      <trkpt lat="46.58768" lon="5.70608">
        <ele>479</ele>
        <time>2022-03-07T12:20:54Z</time>
      </trkpt>
      <trkpt lat="46.58769" lon="5.70611">
        <ele>479.2</ele>
        <time>2022-03-07T12:20:55Z</time>
      </trkpt>
      <trkpt lat="46.58771" lon="5.70614">
        <ele>479.2</ele>
        <time>2022-03-07T12:20:56Z</time>
      </trkpt>
      <trkpt lat="46.58772" lon="5.70618">
        <ele>479.2</ele>
        <time>2022-03-07T12:20:57Z</time>
      </trkpt>
      <trkpt lat="46.58774" lon="5.70621">
        <ele>479.6</ele>
        <time>2022-03-07T12:20:58Z</time>
      </trkpt>
      <trkpt lat="46.58775" lon="5.70624">
        <ele>479.6</ele>
        <time>2022-03-07T12:20:59Z</time>
      </trkpt>
      <trkpt lat="46.58777" lon="5.70627">
        <ele>479.8</ele>
        <time>2022-03-07T12:21:00Z</time>
      </trkpt>
      <trkpt lat="46.58779" lon="5.7063">
        <ele>479.8</ele>
        <time>2022-03-07T12:21:01Z</time>
      </trkpt>
      <trkpt lat="46.58782" lon="5.70633">
        <ele>479.8</ele>
        <time>2022-03-07T12:21:02Z</time>
      </trkpt>
      <trkpt lat="46.58784" lon="5.70636">
        <ele>479.8</ele>
        <time>2022-03-07T12:21:03Z</time>
      </trkpt>
      <trkpt lat="46.58786" lon="5.70639">
        <ele>479.8</ele>
        <time>2022-03-07T12:21:04Z</time>
      </trkpt>
      <trkpt lat="46.58789" lon="5.70642">
        <ele>480</ele>
        <time>2022-03-07T12:21:05Z</time>
      </trkpt>
      <trkpt lat="46.58791" lon="5.70646">
        <ele>480</ele>
        <time>2022-03-07T12:21:06Z</time>
      </trkpt>
      <trkpt lat="46.58794" lon="5.70649">
        <ele>480</ele>
        <time>2022-03-07T12:21:07Z</time>
      </trkpt>
      <trkpt lat="46.58797" lon="5.70653">
        <ele>480</ele>
        <time>2022-03-07T12:21:08Z</time>
      </trkpt>
      <trkpt lat="46.588" lon="5.70656">
        <ele>480</ele>
        <time>2022-03-07T12:21:09Z</time>
      </trkpt>
      <trkpt lat="46.58803" lon="5.7066">
        <ele>480</ele>
        <time>2022-03-07T12:21:10Z</time>
      </trkpt>
      <trkpt lat="46.58807" lon="5.70663">
        <ele>480</ele>
        <time>2022-03-07T12:21:11Z</time>
      </trkpt>
      <trkpt lat="46.5881" lon="5.70667">
        <ele>480</ele>
        <time>2022-03-07T12:21:12Z</time>
      </trkpt>
      <trkpt lat="46.58814" lon="5.7067">
        <ele>480</ele>
        <time>2022-03-07T12:21:13Z</time>
      </trkpt>
      <trkpt lat="46.58817" lon="5.70674">
        <ele>480.4</ele>
        <time>2022-03-07T12:21:14Z</time>
      </trkpt>
      <trkpt lat="46.58821" lon="5.70677">
        <ele>480.8</ele>
        <time>2022-03-07T12:21:15Z</time>
      </trkpt>
      <trkpt lat="46.58825" lon="5.7068">
        <ele>480.8</ele>
        <time>2022-03-07T12:21:16Z</time>
      </trkpt>
      <trkpt lat="46.58829" lon="5.70682">
        <ele>481</ele>
        <time>2022-03-07T12:21:17Z</time>
      </trkpt>
      <trkpt lat="46.58832" lon="5.70685">
        <ele>481</ele>
        <time>2022-03-07T12:21:18Z</time>
      </trkpt>
      <trkpt lat="46.58836" lon="5.70688">
        <ele>481</ele>
        <time>2022-03-07T12:21:19Z</time>
      </trkpt>
      <trkpt lat="46.5884" lon="5.70691">
        <ele>481</ele>
        <time>2022-03-07T12:21:20Z</time>
      </trkpt>
      <trkpt lat="46.58844" lon="5.70694">
        <ele>481</ele>
        <time>2022-03-07T12:21:21Z</time>
      </trkpt>
      <trkpt lat="46.58848" lon="5.70697">
        <ele>481</ele>
        <time>2022-03-07T12:21:22Z</time>
      </trkpt>
      <trkpt lat="46.58852" lon="5.707">
        <ele>481</ele>
        <time>2022-03-07T12:21:23Z</time>
      </trkpt>
      <trkpt lat="46.58856" lon="5.70703">
        <ele>481</ele>
        <time>2022-03-07T12:21:24Z</time>
      </trkpt>
      <trkpt lat="46.5886" lon="5.70706">
        <ele>481</ele>
        <time>2022-03-07T12:21:25Z</time>
      </trkpt>
      <trkpt lat="46.58864" lon="5.70709">
        <ele>481.4</ele>
        <time>2022-03-07T12:21:26Z</time>
      </trkpt>
      <trkpt lat="46.58867" lon="5.70712">
        <ele>481.4</ele>
        <time>2022-03-07T12:21:27Z</time>
      </trkpt>
      <trkpt lat="46.58871" lon="5.70715">
        <ele>481.4</ele>
        <time>2022-03-07T12:21:28Z</time>
      </trkpt>
      <trkpt lat="46.58874" lon="5.70718">
        <ele>481.4</ele>
        <time>2022-03-07T12:21:29Z</time>
      </trkpt>
      <trkpt lat="46.58878" lon="5.70722">
        <ele>481.4</ele>
        <time>2022-03-07T12:21:30Z</time>
      </trkpt>
      <trkpt lat="46.58881" lon="5.70726">
        <ele>481.4</ele>
        <time>2022-03-07T12:21:31Z</time>
      </trkpt>
      <trkpt lat="46.58885" lon="5.70729">
        <ele>481.6</ele>
        <time>2022-03-07T12:21:32Z</time>
      </trkpt>
      <trkpt lat="46.58888" lon="5.70733">
        <ele>481.6</ele>
        <time>2022-03-07T12:21:33Z</time>
      </trkpt>
      <trkpt lat="46.58891" lon="5.70737">
        <ele>481.6</ele>
        <time>2022-03-07T12:21:34Z</time>
      </trkpt>
      <trkpt lat="46.58894" lon="5.70741">
        <ele>481.6</ele>
        <time>2022-03-07T12:21:35Z</time>
      </trkpt>
      <trkpt lat="46.58897" lon="5.70745">
        <ele>481.6</ele>
        <time>2022-03-07T12:21:36Z</time>
      </trkpt>
      <trkpt lat="46.589" lon="5.7075">
        <ele>481.6</ele>
        <time>2022-03-07T12:21:37Z</time>
      </trkpt>
      <trkpt lat="46.58902" lon="5.70754">
        <ele>481.6</ele>
        <time>2022-03-07T12:21:38Z</time>
      </trkpt>
      <trkpt lat="46.58905" lon="5.70758">
        <ele>481.8</ele>
        <time>2022-03-07T12:21:39Z</time>
      </trkpt>
      <trkpt lat="46.58908" lon="5.70763">
        <ele>481.8</ele>
        <time>2022-03-07T12:21:40Z</time>
      </trkpt>
      <trkpt lat="46.5891" lon="5.70767">
        <ele>482</ele>
        <time>2022-03-07T12:21:41Z</time>
      </trkpt>
      <trkpt lat="46.58912" lon="5.70772">
        <ele>482</ele>
        <time>2022-03-07T12:21:42Z</time>
      </trkpt>
      <trkpt lat="46.58915" lon="5.70776">
        <ele>482.4</ele>
        <time>2022-03-07T12:21:43Z</time>
      </trkpt>
      <trkpt lat="46.58917" lon="5.7078">
        <ele>482.4</ele>
        <time>2022-03-07T12:21:44Z</time>
      </trkpt>
      <trkpt lat="46.58919" lon="5.70784">
        <ele>482.4</ele>
        <time>2022-03-07T12:21:45Z</time>
      </trkpt>
      <trkpt lat="46.58921" lon="5.70789">
        <ele>482.6</ele>
        <time>2022-03-07T12:21:46Z</time>
      </trkpt>
      <trkpt lat="46.58923" lon="5.70794">
        <ele>482.6</ele>
        <time>2022-03-07T12:21:47Z</time>
      </trkpt>
      <trkpt lat="46.58924" lon="5.70798">
        <ele>482.6</ele>
        <time>2022-03-07T12:21:48Z</time>
      </trkpt>
      <trkpt lat="46.58926" lon="5.70803">
        <ele>482.8</ele>
        <time>2022-03-07T12:21:49Z</time>
      </trkpt>
      <trkpt lat="46.58928" lon="5.70808">
        <ele>482.8</ele>
        <time>2022-03-07T12:21:50Z</time>
      </trkpt>
      <trkpt lat="46.58929" lon="5.70813">
        <ele>482.8</ele>
        <time>2022-03-07T12:21:51Z</time>
      </trkpt>
      <trkpt lat="46.58931" lon="5.70818">
        <ele>482.8</ele>
        <time>2022-03-07T12:21:52Z</time>
      </trkpt>
      <trkpt lat="46.58932" lon="5.70823">
        <ele>483</ele>
        <time>2022-03-07T12:21:53Z</time>
      </trkpt>
      <trkpt lat="46.58933" lon="5.70828">
        <ele>483</ele>
        <time>2022-03-07T12:21:54Z</time>
      </trkpt>
      <trkpt lat="46.58934" lon="5.70834">
        <ele>483</ele>
        <time>2022-03-07T12:21:55Z</time>
      </trkpt>
      <trkpt lat="46.58936" lon="5.70839">
        <ele>483.2</ele>
        <time>2022-03-07T12:21:56Z</time>
      </trkpt>
      <trkpt lat="46.58937" lon="5.70845">
        <ele>483.2</ele>
        <time>2022-03-07T12:21:57Z</time>
      </trkpt>
      <trkpt lat="46.58938" lon="5.70851">
        <ele>483.2</ele>
        <time>2022-03-07T12:21:58Z</time>
      </trkpt>
      <trkpt lat="46.58939" lon="5.70856">
        <ele>483.2</ele>
        <time>2022-03-07T12:21:59Z</time>
      </trkpt>
      <trkpt lat="46.5894" lon="5.70862">
        <ele>483.4</ele>
        <time>2022-03-07T12:22:00Z</time>
      </trkpt>
      <trkpt lat="46.58941" lon="5.70868">
        <ele>483.4</ele>
        <time>2022-03-07T12:22:01Z</time>
      </trkpt>
      <trkpt lat="46.58942" lon="5.70873">
        <ele>483.4</ele>
        <time>2022-03-07T12:22:02Z</time>
      </trkpt>
      <trkpt lat="46.58942" lon="5.70879">
        <ele>483.6</ele>
        <time>2022-03-07T12:22:03Z</time>
      </trkpt>
      <trkpt lat="46.58943" lon="5.70884">
        <ele>483.6</ele>
        <time>2022-03-07T12:22:04Z</time>
      </trkpt>
      <trkpt lat="46.58944" lon="5.7089">
        <ele>483.6</ele>
        <time>2022-03-07T12:22:05Z</time>
      </trkpt>
      <trkpt lat="46.58944" lon="5.70896">
        <ele>483.8</ele>
        <time>2022-03-07T12:22:06Z</time>
      </trkpt>
      <trkpt lat="46.58944" lon="5.70901">
        <ele>483.8</ele>
        <time>2022-03-07T12:22:07Z</time>
      </trkpt>
      <trkpt lat="46.58944" lon="5.70907">
        <ele>484.2</ele>
        <time>2022-03-07T12:22:08Z</time>
      </trkpt>
      <trkpt lat="46.58945" lon="5.70913">
        <ele>484.2</ele>
        <time>2022-03-07T12:22:09Z</time>
      </trkpt>
      <trkpt lat="46.58945" lon="5.70918">
        <ele>484.2</ele>
        <time>2022-03-07T12:22:10Z</time>
      </trkpt>
      <trkpt lat="46.58945" lon="5.70924">
        <ele>484.6</ele>
        <time>2022-03-07T12:22:11Z</time>
      </trkpt>
      <trkpt lat="46.58945" lon="5.70929">
        <ele>484.6</ele>
        <time>2022-03-07T12:22:12Z</time>
      </trkpt>
      <trkpt lat="46.58946" lon="5.70935">
        <ele>484.6</ele>
        <time>2022-03-07T12:22:13Z</time>
      </trkpt>
      <trkpt lat="46.58946" lon="5.7094">
        <ele>484.6</ele>
        <time>2022-03-07T12:22:14Z</time>
      </trkpt>
      <trkpt lat="46.58946" lon="5.70946">
        <ele>484.6</ele>
        <time>2022-03-07T12:22:15Z</time>
      </trkpt>
      <trkpt lat="46.58946" lon="5.70952">
        <ele>484.8</ele>
        <time>2022-03-07T12:22:16Z</time>
      </trkpt>
      <trkpt lat="46.58946" lon="5.70957">
        <ele>484.8</ele>
        <time>2022-03-07T12:22:17Z</time>
      </trkpt>
      <trkpt lat="46.58946" lon="5.70963">
        <ele>484.8</ele>
        <time>2022-03-07T12:22:18Z</time>
      </trkpt>
      <trkpt lat="46.58946" lon="5.70969">
        <ele>485</ele>
        <time>2022-03-07T12:22:19Z</time>
      </trkpt>
      <trkpt lat="46.58946" lon="5.70975">
        <ele>485</ele>
        <time>2022-03-07T12:22:20Z</time>
      </trkpt>
      <trkpt lat="46.58945" lon="5.70981">
        <ele>485</ele>
        <time>2022-03-07T12:22:21Z</time>
      </trkpt>
      <trkpt lat="46.58945" lon="5.70987">
        <ele>485</ele>
        <time>2022-03-07T12:22:22Z</time>
      </trkpt>
      <trkpt lat="46.58945" lon="5.70993">
        <ele>485.2</ele>
        <time>2022-03-07T12:22:23Z</time>
      </trkpt>
      <trkpt lat="46.58945" lon="5.70999">
        <ele>485.2</ele>
        <time>2022-03-07T12:22:24Z</time>
      </trkpt>
      <trkpt lat="46.58944" lon="5.71005">
        <ele>485.2</ele>
        <time>2022-03-07T12:22:25Z</time>
      </trkpt>
      <trkpt lat="46.58944" lon="5.71011">
        <ele>485.2</ele>
        <time>2022-03-07T12:22:26Z</time>
      </trkpt>
      <trkpt lat="46.58944" lon="5.71017">
        <ele>485.2</ele>
        <time>2022-03-07T12:22:27Z</time>
      </trkpt>
      <trkpt lat="46.58944" lon="5.71023">
        <ele>485.4</ele>
        <time>2022-03-07T12:22:28Z</time>
      </trkpt>
      <trkpt lat="46.58944" lon="5.71029">
        <ele>485.4</ele>
        <time>2022-03-07T12:22:29Z</time>
      </trkpt>
      <trkpt lat="46.58944" lon="5.71035">
        <ele>485.4</ele>
        <time>2022-03-07T12:22:30Z</time>
      </trkpt>
      <trkpt lat="46.58944" lon="5.71041">
        <ele>485.4</ele>
        <time>2022-03-07T12:22:31Z</time>
      </trkpt>
      <trkpt lat="46.58944" lon="5.71048">
        <ele>485.4</ele>
        <time>2022-03-07T12:22:32Z</time>
      </trkpt>
      <trkpt lat="46.58944" lon="5.71054">
        <ele>485.8</ele>
        <time>2022-03-07T12:22:33Z</time>
      </trkpt>
      <trkpt lat="46.58944" lon="5.71061">
        <ele>485.8</ele>
        <time>2022-03-07T12:22:34Z</time>
      </trkpt>
      <trkpt lat="46.58944" lon="5.71067">
        <ele>485.8</ele>
        <time>2022-03-07T12:22:35Z</time>
      </trkpt>
      <trkpt lat="46.58944" lon="5.71074">
        <ele>485.8</ele>
        <time>2022-03-07T12:22:36Z</time>
      </trkpt>
      <trkpt lat="46.58944" lon="5.71081">
        <ele>485.8</ele>
        <time>2022-03-07T12:22:37Z</time>
      </trkpt>
      <trkpt lat="46.58944" lon="5.71088">
        <ele>485.8</ele>
        <time>2022-03-07T12:22:38Z</time>
      </trkpt>
      <trkpt lat="46.58944" lon="5.71095">
        <ele>486</ele>
        <time>2022-03-07T12:22:39Z</time>
      </trkpt>
      <trkpt lat="46.58944" lon="5.71102">
        <ele>486</ele>
        <time>2022-03-07T12:22:40Z</time>
      </trkpt>
      <trkpt lat="46.58944" lon="5.71109">
        <ele>486</ele>
        <time>2022-03-07T12:22:41Z</time>
      </trkpt>
      <trkpt lat="46.58944" lon="5.71116">
        <ele>486</ele>
        <time>2022-03-07T12:22:42Z</time>
      </trkpt>
      <trkpt lat="46.58944" lon="5.71123">
        <ele>486.2</ele>
        <time>2022-03-07T12:22:43Z</time>
      </trkpt>
      <trkpt lat="46.58944" lon="5.7113">
        <ele>486.2</ele>
        <time>2022-03-07T12:22:44Z</time>
      </trkpt>
      <trkpt lat="46.58944" lon="5.71137">
        <ele>486.2</ele>
        <time>2022-03-07T12:22:45Z</time>
      </trkpt>
      <trkpt lat="46.58944" lon="5.71145">
        <ele>486.4</ele>
        <time>2022-03-07T12:22:46Z</time>
      </trkpt>
      <trkpt lat="46.58944" lon="5.71152">
        <ele>486.4</ele>
        <time>2022-03-07T12:22:47Z</time>
      </trkpt>
      <trkpt lat="46.58944" lon="5.71159">
        <ele>486.4</ele>
        <time>2022-03-07T12:22:48Z</time>
      </trkpt>
      <trkpt lat="46.58944" lon="5.71166">
        <ele>486.4</ele>
        <time>2022-03-07T12:22:49Z</time>
      </trkpt>
      <trkpt lat="46.58944" lon="5.71173">
        <ele>486.4</ele>
        <time>2022-03-07T12:22:50Z</time>
      </trkpt>
      <trkpt lat="46.58944" lon="5.7118">
        <ele>486.4</ele>
        <time>2022-03-07T12:22:51Z</time>
      </trkpt>
      <trkpt lat="46.58943" lon="5.71187">
        <ele>486.4</ele>
        <time>2022-03-07T12:22:52Z</time>
      </trkpt>
      <trkpt lat="46.58944" lon="5.71194">
        <ele>486.4</ele>
        <time>2022-03-07T12:22:53Z</time>
      </trkpt>
      <trkpt lat="46.58944" lon="5.712">
        <ele>486.6</ele>
        <time>2022-03-07T12:22:54Z</time>
      </trkpt>
      <trkpt lat="46.58944" lon="5.71207">
        <ele>486.6</ele>
        <time>2022-03-07T12:22:55Z</time>
      </trkpt>
      <trkpt lat="46.58944" lon="5.71214">
        <ele>486.6</ele>
        <time>2022-03-07T12:22:56Z</time>
      </trkpt>
      <trkpt lat="46.58944" lon="5.71221">
        <ele>486.6</ele>
        <time>2022-03-07T12:22:57Z</time>
      </trkpt>
      <trkpt lat="46.58944" lon="5.71228">
        <ele>486.6</ele>
        <time>2022-03-07T12:22:58Z</time>
      </trkpt>
      <trkpt lat="46.58944" lon="5.71235">
        <ele>486.6</ele>
        <time>2022-03-07T12:22:59Z</time>
      </trkpt>
      <trkpt lat="46.58944" lon="5.71242">
        <ele>487</ele>
        <time>2022-03-07T12:23:00Z</time>
      </trkpt>
      <trkpt lat="46.58944" lon="5.7125">
        <ele>487</ele>
        <time>2022-03-07T12:23:01Z</time>
      </trkpt>
      <trkpt lat="46.58944" lon="5.71257">
        <ele>487</ele>
        <time>2022-03-07T12:23:02Z</time>
      </trkpt>
      <trkpt lat="46.58944" lon="5.71264">
        <ele>487.2</ele>
        <time>2022-03-07T12:23:03Z</time>
      </trkpt>
      <trkpt lat="46.58944" lon="5.7127">
        <ele>487.2</ele>
        <time>2022-03-07T12:23:04Z</time>
      </trkpt>
      <trkpt lat="46.58944" lon="5.71277">
        <ele>487.2</ele>
        <time>2022-03-07T12:23:05Z</time>
      </trkpt>
      <trkpt lat="46.58944" lon="5.71284">
        <ele>487.2</ele>
        <time>2022-03-07T12:23:06Z</time>
      </trkpt>
      <trkpt lat="46.58944" lon="5.71291">
        <ele>487.2</ele>
        <time>2022-03-07T12:23:07Z</time>
      </trkpt>
      <trkpt lat="46.58944" lon="5.71298">
        <ele>487.2</ele>
        <time>2022-03-07T12:23:08Z</time>
      </trkpt>
      <trkpt lat="46.58944" lon="5.71305">
        <ele>487.4</ele>
        <time>2022-03-07T12:23:09Z</time>
      </trkpt>
      <trkpt lat="46.58944" lon="5.71312">
        <ele>487.4</ele>
        <time>2022-03-07T12:23:10Z</time>
      </trkpt>
      <trkpt lat="46.58944" lon="5.7132">
        <ele>487.4</ele>
        <time>2022-03-07T12:23:11Z</time>
      </trkpt>
      <trkpt lat="46.58944" lon="5.71327">
        <ele>487.4</ele>
        <time>2022-03-07T12:23:12Z</time>
      </trkpt>
      <trkpt lat="46.58944" lon="5.71334">
        <ele>487.6</ele>
        <time>2022-03-07T12:23:13Z</time>
      </trkpt>
      <trkpt lat="46.58944" lon="5.71341">
        <ele>487.6</ele>
        <time>2022-03-07T12:23:14Z</time>
      </trkpt>
      <trkpt lat="46.58944" lon="5.71348">
        <ele>487.6</ele>
        <time>2022-03-07T12:23:15Z</time>
      </trkpt>
      <trkpt lat="46.58944" lon="5.71355">
        <ele>487.6</ele>
        <time>2022-03-07T12:23:16Z</time>
      </trkpt>
      <trkpt lat="46.58944" lon="5.71362">
        <ele>487.6</ele>
        <time>2022-03-07T12:23:17Z</time>
      </trkpt>
      <trkpt lat="46.58944" lon="5.71369">
        <ele>487.6</ele>
        <time>2022-03-07T12:23:18Z</time>
      </trkpt>
      <trkpt lat="46.58944" lon="5.71376">
        <ele>487.8</ele>
        <time>2022-03-07T12:23:19Z</time>
      </trkpt>
      <trkpt lat="46.58944" lon="5.71384">
        <ele>487.8</ele>
        <time>2022-03-07T12:23:20Z</time>
      </trkpt>
      <trkpt lat="46.58943" lon="5.71391">
        <ele>487.8</ele>
        <time>2022-03-07T12:23:21Z</time>
      </trkpt>
      <trkpt lat="46.58943" lon="5.71398">
        <ele>487.8</ele>
        <time>2022-03-07T12:23:22Z</time>
      </trkpt>
      <trkpt lat="46.58943" lon="5.71405">
        <ele>487.8</ele>
        <time>2022-03-07T12:23:23Z</time>
      </trkpt>
      <trkpt lat="46.58943" lon="5.71412">
        <ele>488</ele>
        <time>2022-03-07T12:23:24Z</time>
      </trkpt>
      <trkpt lat="46.58943" lon="5.71419">
        <ele>488</ele>
        <time>2022-03-07T12:23:25Z</time>
      </trkpt>
      <trkpt lat="46.58943" lon="5.71425">
        <ele>488</ele>
        <time>2022-03-07T12:23:26Z</time>
      </trkpt>
      <trkpt lat="46.58943" lon="5.71432">
        <ele>488</ele>
        <time>2022-03-07T12:23:27Z</time>
      </trkpt>
      <trkpt lat="46.58943" lon="5.71439">
        <ele>488</ele>
        <time>2022-03-07T12:23:28Z</time>
      </trkpt>
      <trkpt lat="46.58943" lon="5.71446">
        <ele>488</ele>
        <time>2022-03-07T12:23:29Z</time>
      </trkpt>
      <trkpt lat="46.58943" lon="5.71453">
        <ele>488</ele>
        <time>2022-03-07T12:23:30Z</time>
      </trkpt>
      <trkpt lat="46.58943" lon="5.7146">
        <ele>488</ele>
        <time>2022-03-07T12:23:31Z</time>
      </trkpt>
      <trkpt lat="46.58943" lon="5.71467">
        <ele>488</ele>
        <time>2022-03-07T12:23:32Z</time>
      </trkpt>
      <trkpt lat="46.58943" lon="5.71474">
        <ele>488</ele>
        <time>2022-03-07T12:23:33Z</time>
      </trkpt>
      <trkpt lat="46.58943" lon="5.71481">
        <ele>488</ele>
        <time>2022-03-07T12:23:34Z</time>
      </trkpt>
      <trkpt lat="46.58943" lon="5.71488">
        <ele>488.4</ele>
        <time>2022-03-07T12:23:35Z</time>
      </trkpt>
      <trkpt lat="46.58943" lon="5.71495">
        <ele>488.4</ele>
        <time>2022-03-07T12:23:36Z</time>
      </trkpt>
      <trkpt lat="46.58943" lon="5.71502">
        <ele>488.4</ele>
        <time>2022-03-07T12:23:37Z</time>
      </trkpt>
      <trkpt lat="46.58943" lon="5.71509">
        <ele>488.6</ele>
        <time>2022-03-07T12:23:38Z</time>
      </trkpt>
      <trkpt lat="46.58944" lon="5.71516">
        <ele>488.6</ele>
        <time>2022-03-07T12:23:39Z</time>
      </trkpt>
      <trkpt lat="46.58943" lon="5.71523">
        <ele>488.6</ele>
        <time>2022-03-07T12:23:40Z</time>
      </trkpt>
      <trkpt lat="46.58943" lon="5.7153">
        <ele>488.6</ele>
        <time>2022-03-07T12:23:41Z</time>
      </trkpt>
      <trkpt lat="46.58943" lon="5.71536">
        <ele>489</ele>
        <time>2022-03-07T12:23:42Z</time>
      </trkpt>
      <trkpt lat="46.58943" lon="5.71543">
        <ele>489</ele>
        <time>2022-03-07T12:23:43Z</time>
      </trkpt>
      <trkpt lat="46.58943" lon="5.7155">
        <ele>489</ele>
        <time>2022-03-07T12:23:44Z</time>
      </trkpt>
      <trkpt lat="46.58944" lon="5.71557">
        <ele>489</ele>
        <time>2022-03-07T12:23:45Z</time>
      </trkpt>
      <trkpt lat="46.58944" lon="5.71564">
        <ele>489</ele>
        <time>2022-03-07T12:23:46Z</time>
      </trkpt>
      <trkpt lat="46.58944" lon="5.71571">
        <ele>489.2</ele>
        <time>2022-03-07T12:23:47Z</time>
      </trkpt>
      <trkpt lat="46.58944" lon="5.71577">
        <ele>489.2</ele>
        <time>2022-03-07T12:23:48Z</time>
      </trkpt>
      <trkpt lat="46.58944" lon="5.71584">
        <ele>489.2</ele>
        <time>2022-03-07T12:23:49Z</time>
      </trkpt>
      <trkpt lat="46.58944" lon="5.71591">
        <ele>489.2</ele>
        <time>2022-03-07T12:23:50Z</time>
      </trkpt>
      <trkpt lat="46.58944" lon="5.71598">
        <ele>489.2</ele>
        <time>2022-03-07T12:23:51Z</time>
      </trkpt>
      <trkpt lat="46.58944" lon="5.71605">
        <ele>489.2</ele>
        <time>2022-03-07T12:23:52Z</time>
      </trkpt>
      <trkpt lat="46.58944" lon="5.71612">
        <ele>489.2</ele>
        <time>2022-03-07T12:23:53Z</time>
      </trkpt>
      <trkpt lat="46.58944" lon="5.71619">
        <ele>489.2</ele>
        <time>2022-03-07T12:23:54Z</time>
      </trkpt>
      <trkpt lat="46.58944" lon="5.71626">
        <ele>489.2</ele>
        <time>2022-03-07T12:23:55Z</time>
      </trkpt>
      <trkpt lat="46.58944" lon="5.71633">
        <ele>489.2</ele>
        <time>2022-03-07T12:23:56Z</time>
      </trkpt>
      <trkpt lat="46.58944" lon="5.71641">
        <ele>490</ele>
        <time>2022-03-07T12:23:57Z</time>
      </trkpt>
      <trkpt lat="46.58944" lon="5.71648">
        <ele>490</ele>
        <time>2022-03-07T12:23:58Z</time>
      </trkpt>
      <trkpt lat="46.58944" lon="5.71655">
        <ele>490</ele>
        <time>2022-03-07T12:23:59Z</time>
      </trkpt>
      <trkpt lat="46.58944" lon="5.71661">
        <ele>490</ele>
        <time>2022-03-07T12:24:00Z</time>
      </trkpt>
      <trkpt lat="46.58944" lon="5.71668">
        <ele>489.6</ele>
        <time>2022-03-07T12:24:01Z</time>
      </trkpt>
      <trkpt lat="46.58944" lon="5.71675">
        <ele>489.6</ele>
        <time>2022-03-07T12:24:02Z</time>
      </trkpt>
      <trkpt lat="46.58944" lon="5.71682">
        <ele>489.6</ele>
        <time>2022-03-07T12:24:03Z</time>
      </trkpt>
      <trkpt lat="46.58944" lon="5.71689">
        <ele>489.6</ele>
        <time>2022-03-07T12:24:04Z</time>
      </trkpt>
      <trkpt lat="46.58943" lon="5.71696">
        <ele>489.6</ele>
        <time>2022-03-07T12:24:05Z</time>
      </trkpt>
      <trkpt lat="46.58943" lon="5.71703">
        <ele>489.6</ele>
        <time>2022-03-07T12:24:06Z</time>
      </trkpt>
      <trkpt lat="46.58943" lon="5.7171">
        <ele>489.6</ele>
        <time>2022-03-07T12:24:07Z</time>
      </trkpt>
      <trkpt lat="46.58943" lon="5.71717">
        <ele>489.6</ele>
        <time>2022-03-07T12:24:08Z</time>
      </trkpt>
      <trkpt lat="46.58943" lon="5.71724">
        <ele>489.6</ele>
        <time>2022-03-07T12:24:09Z</time>
      </trkpt>
      <trkpt lat="46.58943" lon="5.7173">
        <ele>489.6</ele>
        <time>2022-03-07T12:24:10Z</time>
      </trkpt>
      <trkpt lat="46.58943" lon="5.71737">
        <ele>489.6</ele>
        <time>2022-03-07T12:24:11Z</time>
      </trkpt>
      <trkpt lat="46.58943" lon="5.71744">
        <ele>489.6</ele>
        <time>2022-03-07T12:24:12Z</time>
      </trkpt>
      <trkpt lat="46.58942" lon="5.7175">
        <ele>489.6</ele>
        <time>2022-03-07T12:24:13Z</time>
      </trkpt>
      <trkpt lat="46.58942" lon="5.71757">
        <ele>489.8</ele>
        <time>2022-03-07T12:24:14Z</time>
      </trkpt>
      <trkpt lat="46.58942" lon="5.71763">
        <ele>489.8</ele>
        <time>2022-03-07T12:24:15Z</time>
      </trkpt>
      <trkpt lat="46.58942" lon="5.7177">
        <ele>489.8</ele>
        <time>2022-03-07T12:24:16Z</time>
      </trkpt>
      <trkpt lat="46.58942" lon="5.71777">
        <ele>489.8</ele>
        <time>2022-03-07T12:24:17Z</time>
      </trkpt>
      <trkpt lat="46.58942" lon="5.71783">
        <ele>489.8</ele>
        <time>2022-03-07T12:24:18Z</time>
      </trkpt>
      <trkpt lat="46.58942" lon="5.7179">
        <ele>489.8</ele>
        <time>2022-03-07T12:24:19Z</time>
      </trkpt>
      <trkpt lat="46.58942" lon="5.71797">
        <ele>489.8</ele>
        <time>2022-03-07T12:24:20Z</time>
      </trkpt>
      <trkpt lat="46.58942" lon="5.71803">
        <ele>490.2</ele>
        <time>2022-03-07T12:24:21Z</time>
      </trkpt>
      <trkpt lat="46.58942" lon="5.7181">
        <ele>490.2</ele>
        <time>2022-03-07T12:24:22Z</time>
      </trkpt>
      <trkpt lat="46.58941" lon="5.71817">
        <ele>490.2</ele>
        <time>2022-03-07T12:24:23Z</time>
      </trkpt>
      <trkpt lat="46.58941" lon="5.71824">
        <ele>490.2</ele>
        <time>2022-03-07T12:24:24Z</time>
      </trkpt>
      <trkpt lat="46.58941" lon="5.71831">
        <ele>490.4</ele>
        <time>2022-03-07T12:24:25Z</time>
      </trkpt>
      <trkpt lat="46.58941" lon="5.71837">
        <ele>490.4</ele>
        <time>2022-03-07T12:24:26Z</time>
      </trkpt>
      <trkpt lat="46.58941" lon="5.71844">
        <ele>490.4</ele>
        <time>2022-03-07T12:24:27Z</time>
      </trkpt>
      <trkpt lat="46.58941" lon="5.71851">
        <ele>490.4</ele>
        <time>2022-03-07T12:24:28Z</time>
      </trkpt>
      <trkpt lat="46.58941" lon="5.71857">
        <ele>490.4</ele>
        <time>2022-03-07T12:24:29Z</time>
      </trkpt>
      <trkpt lat="46.58941" lon="5.71864">
        <ele>490.6</ele>
        <time>2022-03-07T12:24:30Z</time>
      </trkpt>
      <trkpt lat="46.58941" lon="5.7187">
        <ele>490.6</ele>
        <time>2022-03-07T12:24:31Z</time>
      </trkpt>
      <trkpt lat="46.58941" lon="5.71877">
        <ele>490.6</ele>
        <time>2022-03-07T12:24:32Z</time>
      </trkpt>
      <trkpt lat="46.58941" lon="5.71883">
        <ele>490.6</ele>
        <time>2022-03-07T12:24:33Z</time>
      </trkpt>
      <trkpt lat="46.5894" lon="5.7189">
        <ele>490.6</ele>
        <time>2022-03-07T12:24:34Z</time>
      </trkpt>
      <trkpt lat="46.5894" lon="5.71897">
        <ele>490.6</ele>
        <time>2022-03-07T12:24:35Z</time>
      </trkpt>
      <trkpt lat="46.5894" lon="5.71903">
        <ele>490.6</ele>
        <time>2022-03-07T12:24:36Z</time>
      </trkpt>
      <trkpt lat="46.5894" lon="5.7191">
        <ele>490.6</ele>
        <time>2022-03-07T12:24:37Z</time>
      </trkpt>
      <trkpt lat="46.5894" lon="5.71917">
        <ele>490.6</ele>
        <time>2022-03-07T12:24:38Z</time>
      </trkpt>
      <trkpt lat="46.5894" lon="5.71923">
        <ele>490.6</ele>
        <time>2022-03-07T12:24:39Z</time>
      </trkpt>
      <trkpt lat="46.5894" lon="5.7193">
        <ele>490.6</ele>
        <time>2022-03-07T12:24:40Z</time>
      </trkpt>
      <trkpt lat="46.58939" lon="5.71937">
        <ele>490.4</ele>
        <time>2022-03-07T12:24:41Z</time>
      </trkpt>
      <trkpt lat="46.58939" lon="5.71943">
        <ele>490.8</ele>
        <time>2022-03-07T12:24:42Z</time>
      </trkpt>
      <trkpt lat="46.58938" lon="5.7195">
        <ele>490.8</ele>
        <time>2022-03-07T12:24:43Z</time>
      </trkpt>
      <trkpt lat="46.58939" lon="5.71957">
        <ele>490.8</ele>
        <time>2022-03-07T12:24:44Z</time>
      </trkpt>
      <trkpt lat="46.58939" lon="5.71963">
        <ele>490.8</ele>
        <time>2022-03-07T12:24:45Z</time>
      </trkpt>
      <trkpt lat="46.58939" lon="5.7197">
        <ele>490.8</ele>
        <time>2022-03-07T12:24:46Z</time>
      </trkpt>
      <trkpt lat="46.58939" lon="5.71976">
        <ele>490.8</ele>
        <time>2022-03-07T12:24:47Z</time>
      </trkpt>
      <trkpt lat="46.58939" lon="5.71983">
        <ele>490.8</ele>
        <time>2022-03-07T12:24:48Z</time>
      </trkpt>
      <trkpt lat="46.5894" lon="5.7199">
        <ele>490.8</ele>
        <time>2022-03-07T12:24:49Z</time>
      </trkpt>
      <trkpt lat="46.5894" lon="5.71996">
        <ele>490.8</ele>
        <time>2022-03-07T12:24:50Z</time>
      </trkpt>
      <trkpt lat="46.58939" lon="5.72003">
        <ele>491</ele>
        <time>2022-03-07T12:24:51Z</time>
      </trkpt>
      <trkpt lat="46.58939" lon="5.7201">
        <ele>491</ele>
        <time>2022-03-07T12:24:52Z</time>
      </trkpt>
      <trkpt lat="46.58939" lon="5.72017">
        <ele>491</ele>
        <time>2022-03-07T12:24:53Z</time>
      </trkpt>
      <trkpt lat="46.58939" lon="5.72023">
        <ele>491</ele>
        <time>2022-03-07T12:24:54Z</time>
      </trkpt>
      <trkpt lat="46.58939" lon="5.7203">
        <ele>491</ele>
        <time>2022-03-07T12:24:55Z</time>
      </trkpt>
      <trkpt lat="46.58939" lon="5.72037">
        <ele>491</ele>
        <time>2022-03-07T12:24:56Z</time>
      </trkpt>
      <trkpt lat="46.58939" lon="5.72044">
        <ele>491</ele>
        <time>2022-03-07T12:24:57Z</time>
      </trkpt>
      <trkpt lat="46.58939" lon="5.72051">
        <ele>491</ele>
        <time>2022-03-07T12:24:58Z</time>
      </trkpt>
      <trkpt lat="46.58939" lon="5.72058">
        <ele>491</ele>
        <time>2022-03-07T12:24:59Z</time>
      </trkpt>
      <trkpt lat="46.58939" lon="5.72064">
        <ele>491.4</ele>
        <time>2022-03-07T12:25:00Z</time>
      </trkpt>
      <trkpt lat="46.58939" lon="5.72071">
        <ele>491.4</ele>
        <time>2022-03-07T12:25:01Z</time>
      </trkpt>
      <trkpt lat="46.58939" lon="5.72078">
        <ele>491.4</ele>
        <time>2022-03-07T12:25:02Z</time>
      </trkpt>
      <trkpt lat="46.58939" lon="5.72085">
        <ele>491.4</ele>
        <time>2022-03-07T12:25:03Z</time>
      </trkpt>
      <trkpt lat="46.58939" lon="5.72092">
        <ele>491.4</ele>
        <time>2022-03-07T12:25:04Z</time>
      </trkpt>
      <trkpt lat="46.58939" lon="5.72098">
        <ele>491.6</ele>
        <time>2022-03-07T12:25:05Z</time>
      </trkpt>
      <trkpt lat="46.5894" lon="5.72105">
        <ele>491.6</ele>
        <time>2022-03-07T12:25:06Z</time>
      </trkpt>
      <trkpt lat="46.5894" lon="5.72112">
        <ele>491.6</ele>
        <time>2022-03-07T12:25:07Z</time>
      </trkpt>
      <trkpt lat="46.5894" lon="5.72119">
        <ele>491.6</ele>
        <time>2022-03-07T12:25:08Z</time>
      </trkpt>
      <trkpt lat="46.5894" lon="5.72125">
        <ele>491.6</ele>
        <time>2022-03-07T12:25:09Z</time>
      </trkpt>
      <trkpt lat="46.58941" lon="5.72132">
        <ele>491.8</ele>
        <time>2022-03-07T12:25:10Z</time>
      </trkpt>
      <trkpt lat="46.58941" lon="5.72139">
        <ele>491.8</ele>
        <time>2022-03-07T12:25:11Z</time>
      </trkpt>
      <trkpt lat="46.58941" lon="5.72145">
        <ele>491.8</ele>
        <time>2022-03-07T12:25:12Z</time>
      </trkpt>
      <trkpt lat="46.58941" lon="5.72152">
        <ele>491.8</ele>
        <time>2022-03-07T12:25:13Z</time>
      </trkpt>
      <trkpt lat="46.58941" lon="5.72158">
        <ele>491.8</ele>
        <time>2022-03-07T12:25:14Z</time>
      </trkpt>
      <trkpt lat="46.58941" lon="5.72165">
        <ele>491.8</ele>
        <time>2022-03-07T12:25:15Z</time>
      </trkpt>
      <trkpt lat="46.58941" lon="5.72172">
        <ele>491.8</ele>
        <time>2022-03-07T12:25:16Z</time>
      </trkpt>
      <trkpt lat="46.58942" lon="5.72178">
        <ele>491.8</ele>
        <time>2022-03-07T12:25:17Z</time>
      </trkpt>
      <trkpt lat="46.58942" lon="5.72185">
        <ele>491.8</ele>
        <time>2022-03-07T12:25:18Z</time>
      </trkpt>
      <trkpt lat="46.58942" lon="5.72191">
        <ele>491.8</ele>
        <time>2022-03-07T12:25:19Z</time>
      </trkpt>
      <trkpt lat="46.58942" lon="5.72198">
        <ele>491.8</ele>
        <time>2022-03-07T12:25:20Z</time>
      </trkpt>
      <trkpt lat="46.58942" lon="5.72205">
        <ele>491.8</ele>
        <time>2022-03-07T12:25:21Z</time>
      </trkpt>
      <trkpt lat="46.58942" lon="5.72212">
        <ele>491.8</ele>
        <time>2022-03-07T12:25:22Z</time>
      </trkpt>
      <trkpt lat="46.58943" lon="5.72219">
        <ele>491.8</ele>
        <time>2022-03-07T12:25:23Z</time>
      </trkpt>
      <trkpt lat="46.58943" lon="5.72226">
        <ele>492</ele>
        <time>2022-03-07T12:25:24Z</time>
      </trkpt>
      <trkpt lat="46.58942" lon="5.72233">
        <ele>492</ele>
        <time>2022-03-07T12:25:25Z</time>
      </trkpt>
      <trkpt lat="46.58942" lon="5.7224">
        <ele>492</ele>
        <time>2022-03-07T12:25:26Z</time>
      </trkpt>
      <trkpt lat="46.58942" lon="5.72247">
        <ele>492</ele>
        <time>2022-03-07T12:25:27Z</time>
      </trkpt>
      <trkpt lat="46.58942" lon="5.72254">
        <ele>492</ele>
        <time>2022-03-07T12:25:28Z</time>
      </trkpt>
      <trkpt lat="46.58942" lon="5.72261">
        <ele>492</ele>
        <time>2022-03-07T12:25:29Z</time>
      </trkpt>
      <trkpt lat="46.58942" lon="5.72269">
        <ele>492</ele>
        <time>2022-03-07T12:25:30Z</time>
      </trkpt>
      <trkpt lat="46.58942" lon="5.72276">
        <ele>492</ele>
        <time>2022-03-07T12:25:31Z</time>
      </trkpt>
      <trkpt lat="46.58942" lon="5.72283">
        <ele>492</ele>
        <time>2022-03-07T12:25:32Z</time>
      </trkpt>
      <trkpt lat="46.58942" lon="5.72291">
        <ele>492.2</ele>
        <time>2022-03-07T12:25:33Z</time>
      </trkpt>
      <trkpt lat="46.58942" lon="5.72298">
        <ele>492.2</ele>
        <time>2022-03-07T12:25:34Z</time>
      </trkpt>
      <trkpt lat="46.58942" lon="5.72306">
        <ele>492.2</ele>
        <time>2022-03-07T12:25:35Z</time>
      </trkpt>
      <trkpt lat="46.58942" lon="5.72313">
        <ele>492.2</ele>
        <time>2022-03-07T12:25:36Z</time>
      </trkpt>
      <trkpt lat="46.58942" lon="5.7232">
        <ele>492.6</ele>
        <time>2022-03-07T12:25:37Z</time>
      </trkpt>
      <trkpt lat="46.58943" lon="5.72328">
        <ele>492.6</ele>
        <time>2022-03-07T12:25:38Z</time>
      </trkpt>
      <trkpt lat="46.58943" lon="5.72335">
        <ele>492.6</ele>
        <time>2022-03-07T12:25:39Z</time>
      </trkpt>
      <trkpt lat="46.58943" lon="5.72342">
        <ele>492.6</ele>
        <time>2022-03-07T12:25:40Z</time>
      </trkpt>
      <trkpt lat="46.58943" lon="5.72349">
        <ele>492.6</ele>
        <time>2022-03-07T12:25:41Z</time>
      </trkpt>
      <trkpt lat="46.58943" lon="5.72357">
        <ele>492.6</ele>
        <time>2022-03-07T12:25:42Z</time>
      </trkpt>
      <trkpt lat="46.58943" lon="5.72364">
        <ele>492.6</ele>
        <time>2022-03-07T12:25:43Z</time>
      </trkpt>
      <trkpt lat="46.58943" lon="5.72371">
        <ele>492.6</ele>
        <time>2022-03-07T12:25:44Z</time>
      </trkpt>
      <trkpt lat="46.58943" lon="5.72378">
        <ele>492.6</ele>
        <time>2022-03-07T12:25:45Z</time>
      </trkpt>
      <trkpt lat="46.58943" lon="5.72386">
        <ele>492.6</ele>
        <time>2022-03-07T12:25:46Z</time>
      </trkpt>
      <trkpt lat="46.58943" lon="5.72393">
        <ele>492.6</ele>
        <time>2022-03-07T12:25:47Z</time>
      </trkpt>
      <trkpt lat="46.58943" lon="5.724">
        <ele>492.8</ele>
        <time>2022-03-07T12:25:48Z</time>
      </trkpt>
      <trkpt lat="46.58942" lon="5.72407">
        <ele>492.8</ele>
        <time>2022-03-07T12:25:49Z</time>
      </trkpt>
      <trkpt lat="46.58943" lon="5.72414">
        <ele>492.8</ele>
        <time>2022-03-07T12:25:50Z</time>
      </trkpt>
      <trkpt lat="46.58943" lon="5.72421">
        <ele>493</ele>
        <time>2022-03-07T12:25:51Z</time>
      </trkpt>
      <trkpt lat="46.58943" lon="5.72429">
        <ele>493</ele>
        <time>2022-03-07T12:25:52Z</time>
      </trkpt>
      <trkpt lat="46.58942" lon="5.72436">
        <ele>493</ele>
        <time>2022-03-07T12:25:53Z</time>
      </trkpt>
      <trkpt lat="46.58942" lon="5.72443">
        <ele>493</ele>
        <time>2022-03-07T12:25:54Z</time>
      </trkpt>
      <trkpt lat="46.58942" lon="5.7245">
        <ele>493</ele>
        <time>2022-03-07T12:25:55Z</time>
      </trkpt>
      <trkpt lat="46.58942" lon="5.72457">
        <ele>493</ele>
        <time>2022-03-07T12:25:56Z</time>
      </trkpt>
      <trkpt lat="46.58942" lon="5.72465">
        <ele>493</ele>
        <time>2022-03-07T12:25:57Z</time>
      </trkpt>
      <trkpt lat="46.58942" lon="5.72472">
        <ele>493.2</ele>
        <time>2022-03-07T12:25:58Z</time>
      </trkpt>
      <trkpt lat="46.58942" lon="5.7248">
        <ele>493.2</ele>
        <time>2022-03-07T12:25:59Z</time>
      </trkpt>
      <trkpt lat="46.58942" lon="5.72487">
        <ele>493.2</ele>
        <time>2022-03-07T12:26:00Z</time>
      </trkpt>
      <trkpt lat="46.58942" lon="5.72494">
        <ele>493.2</ele>
        <time>2022-03-07T12:26:01Z</time>
      </trkpt>
      <trkpt lat="46.58942" lon="5.72501">
        <ele>493.4</ele>
        <time>2022-03-07T12:26:02Z</time>
      </trkpt>
      <trkpt lat="46.58942" lon="5.72509">
        <ele>493.6</ele>
        <time>2022-03-07T12:26:03Z</time>
      </trkpt>
      <trkpt lat="46.58942" lon="5.72516">
        <ele>493.6</ele>
        <time>2022-03-07T12:26:04Z</time>
      </trkpt>
      <trkpt lat="46.58942" lon="5.72523">
        <ele>493.6</ele>
        <time>2022-03-07T12:26:05Z</time>
      </trkpt>
      <trkpt lat="46.58942" lon="5.7253">
        <ele>493.6</ele>
        <time>2022-03-07T12:26:06Z</time>
      </trkpt>
      <trkpt lat="46.58942" lon="5.72537">
        <ele>493.6</ele>
        <time>2022-03-07T12:26:07Z</time>
      </trkpt>
      <trkpt lat="46.58942" lon="5.72544">
        <ele>493.6</ele>
        <time>2022-03-07T12:26:08Z</time>
      </trkpt>
      <trkpt lat="46.58942" lon="5.72551">
        <ele>493.6</ele>
        <time>2022-03-07T12:26:09Z</time>
      </trkpt>
      <trkpt lat="46.58942" lon="5.72558">
        <ele>493.6</ele>
        <time>2022-03-07T12:26:10Z</time>
      </trkpt>
      <trkpt lat="46.58941" lon="5.72565">
        <ele>493.6</ele>
        <time>2022-03-07T12:26:11Z</time>
      </trkpt>
      <trkpt lat="46.58941" lon="5.72572">
        <ele>493.6</ele>
        <time>2022-03-07T12:26:12Z</time>
      </trkpt>
      <trkpt lat="46.58941" lon="5.72579">
        <ele>493.6</ele>
        <time>2022-03-07T12:26:13Z</time>
      </trkpt>
      <trkpt lat="46.58941" lon="5.72586">
        <ele>493.6</ele>
        <time>2022-03-07T12:26:14Z</time>
      </trkpt>
      <trkpt lat="46.58941" lon="5.72592">
        <ele>493.6</ele>
        <time>2022-03-07T12:26:15Z</time>
      </trkpt>
      <trkpt lat="46.58941" lon="5.72599">
        <ele>493.6</ele>
        <time>2022-03-07T12:26:16Z</time>
      </trkpt>
      <trkpt lat="46.58941" lon="5.72606">
        <ele>493.6</ele>
        <time>2022-03-07T12:26:17Z</time>
      </trkpt>
      <trkpt lat="46.58941" lon="5.72613">
        <ele>494</ele>
        <time>2022-03-07T12:26:18Z</time>
      </trkpt>
      <trkpt lat="46.58941" lon="5.7262">
        <ele>494</ele>
        <time>2022-03-07T12:26:19Z</time>
      </trkpt>
      <trkpt lat="46.58941" lon="5.72626">
        <ele>494</ele>
        <time>2022-03-07T12:26:20Z</time>
      </trkpt>
      <trkpt lat="46.58941" lon="5.72633">
        <ele>494.2</ele>
        <time>2022-03-07T12:26:21Z</time>
      </trkpt>
      <trkpt lat="46.58941" lon="5.7264">
        <ele>494.2</ele>
        <time>2022-03-07T12:26:22Z</time>
      </trkpt>
      <trkpt lat="46.58941" lon="5.72646">
        <ele>494.2</ele>
        <time>2022-03-07T12:26:23Z</time>
      </trkpt>
      <trkpt lat="46.58941" lon="5.72653">
        <ele>494.2</ele>
        <time>2022-03-07T12:26:24Z</time>
      </trkpt>
      <trkpt lat="46.58941" lon="5.7266">
        <ele>494.2</ele>
        <time>2022-03-07T12:26:25Z</time>
      </trkpt>
      <trkpt lat="46.58941" lon="5.72667">
        <ele>494.2</ele>
        <time>2022-03-07T12:26:26Z</time>
      </trkpt>
      <trkpt lat="46.58941" lon="5.72673">
        <ele>494.2</ele>
        <time>2022-03-07T12:26:27Z</time>
      </trkpt>
      <trkpt lat="46.58941" lon="5.7268">
        <ele>494.2</ele>
        <time>2022-03-07T12:26:28Z</time>
      </trkpt>
      <trkpt lat="46.58941" lon="5.72687">
        <ele>494.4</ele>
        <time>2022-03-07T12:26:29Z</time>
      </trkpt>
      <trkpt lat="46.58941" lon="5.72693">
        <ele>494.4</ele>
        <time>2022-03-07T12:26:30Z</time>
      </trkpt>
      <trkpt lat="46.58941" lon="5.727">
        <ele>495</ele>
        <time>2022-03-07T12:26:31Z</time>
      </trkpt>
      <trkpt lat="46.58941" lon="5.72707">
        <ele>495</ele>
        <time>2022-03-07T12:26:32Z</time>
      </trkpt>
      <trkpt lat="46.58941" lon="5.72714">
        <ele>495</ele>
        <time>2022-03-07T12:26:33Z</time>
      </trkpt>
      <trkpt lat="46.58941" lon="5.72721">
        <ele>495</ele>
        <time>2022-03-07T12:26:34Z</time>
      </trkpt>
      <trkpt lat="46.58942" lon="5.72728">
        <ele>495</ele>
        <time>2022-03-07T12:26:35Z</time>
      </trkpt>
      <trkpt lat="46.58942" lon="5.72735">
        <ele>495</ele>
        <time>2022-03-07T12:26:36Z</time>
      </trkpt>
      <trkpt lat="46.58942" lon="5.72742">
        <ele>495</ele>
        <time>2022-03-07T12:26:37Z</time>
      </trkpt>
      <trkpt lat="46.58942" lon="5.72749">
        <ele>495</ele>
        <time>2022-03-07T12:26:38Z</time>
      </trkpt>
      <trkpt lat="46.58942" lon="5.72756">
        <ele>495</ele>
        <time>2022-03-07T12:26:39Z</time>
      </trkpt>
      <trkpt lat="46.58942" lon="5.72762">
        <ele>495</ele>
        <time>2022-03-07T12:26:40Z</time>
      </trkpt>
      <trkpt lat="46.58942" lon="5.72769">
        <ele>495.4</ele>
        <time>2022-03-07T12:26:41Z</time>
      </trkpt>
      <trkpt lat="46.58942" lon="5.72776">
        <ele>495.4</ele>
        <time>2022-03-07T12:26:42Z</time>
      </trkpt>
      <trkpt lat="46.58942" lon="5.72783">
        <ele>495.4</ele>
        <time>2022-03-07T12:26:43Z</time>
      </trkpt>
      <trkpt lat="46.58942" lon="5.7279">
        <ele>495.6</ele>
        <time>2022-03-07T12:26:44Z</time>
      </trkpt>
      <trkpt lat="46.58942" lon="5.72796">
        <ele>495.6</ele>
        <time>2022-03-07T12:26:45Z</time>
      </trkpt>
      <trkpt lat="46.58942" lon="5.72803">
        <ele>495.6</ele>
        <time>2022-03-07T12:26:46Z</time>
      </trkpt>
      <trkpt lat="46.58942" lon="5.7281">
        <ele>496</ele>
        <time>2022-03-07T12:26:47Z</time>
      </trkpt>
      <trkpt lat="46.58942" lon="5.72817">
        <ele>496</ele>
        <time>2022-03-07T12:26:48Z</time>
      </trkpt>
      <trkpt lat="46.58942" lon="5.72824">
        <ele>496</ele>
        <time>2022-03-07T12:26:49Z</time>
      </trkpt>
      <trkpt lat="46.58942" lon="5.72831">
        <ele>496</ele>
        <time>2022-03-07T12:26:50Z</time>
      </trkpt>
      <trkpt lat="46.58942" lon="5.72838">
        <ele>496</ele>
        <time>2022-03-07T12:26:51Z</time>
      </trkpt>
      <trkpt lat="46.58942" lon="5.72844">
        <ele>496</ele>
        <time>2022-03-07T12:26:52Z</time>
      </trkpt>
      <trkpt lat="46.58942" lon="5.72851">
        <ele>496.2</ele>
        <time>2022-03-07T12:26:53Z</time>
      </trkpt>
      <trkpt lat="46.58942" lon="5.72858">
        <ele>496.2</ele>
        <time>2022-03-07T12:26:54Z</time>
      </trkpt>
      <trkpt lat="46.58942" lon="5.72865">
        <ele>496.2</ele>
        <time>2022-03-07T12:26:55Z</time>
      </trkpt>
      <trkpt lat="46.58941" lon="5.72872">
        <ele>496.2</ele>
        <time>2022-03-07T12:26:56Z</time>
      </trkpt>
      <trkpt lat="46.58941" lon="5.72879">
        <ele>496.2</ele>
        <time>2022-03-07T12:26:57Z</time>
      </trkpt>
      <trkpt lat="46.58942" lon="5.72886">
        <ele>496.2</ele>
        <time>2022-03-07T12:26:58Z</time>
      </trkpt>
      <trkpt lat="46.58942" lon="5.72893">
        <ele>496.4</ele>
        <time>2022-03-07T12:26:59Z</time>
      </trkpt>
      <trkpt lat="46.58942" lon="5.72899">
        <ele>496.4</ele>
        <time>2022-03-07T12:27:00Z</time>
      </trkpt>
      <trkpt lat="46.58942" lon="5.72906">
        <ele>496.6</ele>
        <time>2022-03-07T12:27:01Z</time>
      </trkpt>
      <trkpt lat="46.58942" lon="5.72913">
        <ele>496.6</ele>
        <time>2022-03-07T12:27:02Z</time>
      </trkpt>
      <trkpt lat="46.58941" lon="5.7292">
        <ele>496.6</ele>
        <time>2022-03-07T12:27:03Z</time>
      </trkpt>
      <trkpt lat="46.58941" lon="5.72927">
        <ele>496.6</ele>
        <time>2022-03-07T12:27:04Z</time>
      </trkpt>
      <trkpt lat="46.58941" lon="5.72933">
        <ele>496.6</ele>
        <time>2022-03-07T12:27:05Z</time>
      </trkpt>
      <trkpt lat="46.58941" lon="5.7294">
        <ele>497</ele>
        <time>2022-03-07T12:27:06Z</time>
      </trkpt>
      <trkpt lat="46.58941" lon="5.72946">
        <ele>497</ele>
        <time>2022-03-07T12:27:07Z</time>
      </trkpt>
      <trkpt lat="46.5894" lon="5.72953">
        <ele>497</ele>
        <time>2022-03-07T12:27:08Z</time>
      </trkpt>
      <trkpt lat="46.5894" lon="5.7296">
        <ele>497.2</ele>
        <time>2022-03-07T12:27:09Z</time>
      </trkpt>
      <trkpt lat="46.5894" lon="5.72967">
        <ele>497.2</ele>
        <time>2022-03-07T12:27:10Z</time>
      </trkpt>
      <trkpt lat="46.5894" lon="5.72973">
        <ele>497.2</ele>
        <time>2022-03-07T12:27:11Z</time>
      </trkpt>
      <trkpt lat="46.5894" lon="5.7298">
        <ele>497.2</ele>
        <time>2022-03-07T12:27:12Z</time>
      </trkpt>
      <trkpt lat="46.5894" lon="5.72987">
        <ele>497.2</ele>
        <time>2022-03-07T12:27:13Z</time>
      </trkpt>
      <trkpt lat="46.5894" lon="5.72993">
        <ele>497.2</ele>
        <time>2022-03-07T12:27:14Z</time>
      </trkpt>
      <trkpt lat="46.5894" lon="5.73">
        <ele>497.4</ele>
        <time>2022-03-07T12:27:15Z</time>
      </trkpt>
      <trkpt lat="46.5894" lon="5.73006">
        <ele>497.4</ele>
        <time>2022-03-07T12:27:16Z</time>
      </trkpt>
      <trkpt lat="46.5894" lon="5.73018">
        <ele>497.8</ele>
        <time>2022-03-07T12:27:17Z</time>
      </trkpt>
      <trkpt lat="46.5894" lon="5.73023">
        <ele>498</ele>
        <time>2022-03-07T12:27:18Z</time>
      </trkpt>
      <trkpt lat="46.5894" lon="5.73029">
        <ele>498</ele>
        <time>2022-03-07T12:27:19Z</time>
      </trkpt>
      <trkpt lat="46.5894" lon="5.73034">
        <ele>498.2</ele>
        <time>2022-03-07T12:27:20Z</time>
      </trkpt>
      <trkpt lat="46.5894" lon="5.7304">
        <ele>498.2</ele>
        <time>2022-03-07T12:27:21Z</time>
      </trkpt>
      <trkpt lat="46.5894" lon="5.73045">
        <ele>498.6</ele>
        <time>2022-03-07T12:27:22Z</time>
      </trkpt>
      <trkpt lat="46.5894" lon="5.7305">
        <ele>498.6</ele>
        <time>2022-03-07T12:27:23Z</time>
      </trkpt>
      <trkpt lat="46.5894" lon="5.73055">
        <ele>498.8</ele>
        <time>2022-03-07T12:27:24Z</time>
      </trkpt>
      <trkpt lat="46.5894" lon="5.73061">
        <ele>498.8</ele>
        <time>2022-03-07T12:27:25Z</time>
      </trkpt>
      <trkpt lat="46.5894" lon="5.73066">
        <ele>499</ele>
        <time>2022-03-07T12:27:26Z</time>
      </trkpt>
      <trkpt lat="46.5894" lon="5.73071">
        <ele>499</ele>
        <time>2022-03-07T12:27:27Z</time>
      </trkpt>
      <trkpt lat="46.5894" lon="5.73076">
        <ele>499.2</ele>
        <time>2022-03-07T12:27:28Z</time>
      </trkpt>
      <trkpt lat="46.5894" lon="5.73081">
        <ele>499.6</ele>
        <time>2022-03-07T12:27:29Z</time>
      </trkpt>
      <trkpt lat="46.5894" lon="5.73086">
        <ele>499.6</ele>
        <time>2022-03-07T12:27:30Z</time>
      </trkpt>
      <trkpt lat="46.5894" lon="5.73091">
        <ele>499.8</ele>
        <time>2022-03-07T12:27:31Z</time>
      </trkpt>
      <trkpt lat="46.5894" lon="5.73096">
        <ele>499.8</ele>
        <time>2022-03-07T12:27:32Z</time>
      </trkpt>
      <trkpt lat="46.5894" lon="5.73101">
        <ele>499.8</ele>
        <time>2022-03-07T12:27:33Z</time>
      </trkpt>
      <trkpt lat="46.5894" lon="5.73105">
        <ele>500</ele>
        <time>2022-03-07T12:27:34Z</time>
      </trkpt>
      <trkpt lat="46.5894" lon="5.7311">
        <ele>500</ele>
        <time>2022-03-07T12:27:35Z</time>
      </trkpt>
      <trkpt lat="46.58939" lon="5.73114">
        <ele>500.2</ele>
        <time>2022-03-07T12:27:36Z</time>
      </trkpt>
      <trkpt lat="46.58939" lon="5.73118">
        <ele>500.2</ele>
        <time>2022-03-07T12:27:37Z</time>
      </trkpt>
      <trkpt lat="46.58938" lon="5.73121">
        <ele>500.2</ele>
        <time>2022-03-07T12:27:38Z</time>
      </trkpt>
      <trkpt lat="46.58938" lon="5.73125">
        <ele>500.6</ele>
        <time>2022-03-07T12:27:39Z</time>
      </trkpt>
      <trkpt lat="46.58938" lon="5.73129">
        <ele>500.6</ele>
        <time>2022-03-07T12:27:40Z</time>
      </trkpt>
      <trkpt lat="46.58937" lon="5.73133">
        <ele>500.8</ele>
        <time>2022-03-07T12:27:41Z</time>
      </trkpt>
      <trkpt lat="46.58937" lon="5.73136">
        <ele>500.8</ele>
        <time>2022-03-07T12:27:42Z</time>
      </trkpt>
      <trkpt lat="46.58937" lon="5.7314">
        <ele>500.8</ele>
        <time>2022-03-07T12:27:43Z</time>
      </trkpt>
      <trkpt lat="46.58937" lon="5.73144">
        <ele>501.2</ele>
        <time>2022-03-07T12:27:44Z</time>
      </trkpt>
      <trkpt lat="46.58937" lon="5.73147">
        <ele>501.2</ele>
        <time>2022-03-07T12:27:45Z</time>
      </trkpt>
      <trkpt lat="46.58936" lon="5.7315">
        <ele>501.4</ele>
        <time>2022-03-07T12:27:46Z</time>
      </trkpt>
      <trkpt lat="46.58936" lon="5.73154">
        <ele>501.4</ele>
        <time>2022-03-07T12:27:47Z</time>
      </trkpt>
      <trkpt lat="46.58936" lon="5.73157">
        <ele>501.6</ele>
        <time>2022-03-07T12:27:48Z</time>
      </trkpt>
      <trkpt lat="46.58935" lon="5.73161">
        <ele>501.6</ele>
        <time>2022-03-07T12:27:49Z</time>
      </trkpt>
      <trkpt lat="46.58935" lon="5.73164">
        <ele>502</ele>
        <time>2022-03-07T12:27:50Z</time>
      </trkpt>
      <trkpt lat="46.58934" lon="5.73168">
        <ele>502</ele>
        <time>2022-03-07T12:27:51Z</time>
      </trkpt>
      <trkpt lat="46.58933" lon="5.73172">
        <ele>502.2</ele>
        <time>2022-03-07T12:27:52Z</time>
      </trkpt>
      <trkpt lat="46.58932" lon="5.73175">
        <ele>502.4</ele>
        <time>2022-03-07T12:27:53Z</time>
      </trkpt>
      <trkpt lat="46.58931" lon="5.73179">
        <ele>502.4</ele>
        <time>2022-03-07T12:27:54Z</time>
      </trkpt>
      <trkpt lat="46.5893" lon="5.73182">
        <ele>502.8</ele>
        <time>2022-03-07T12:27:55Z</time>
      </trkpt>
      <trkpt lat="46.5893" lon="5.73185">
        <ele>502.8</ele>
        <time>2022-03-07T12:27:56Z</time>
      </trkpt>
      <trkpt lat="46.58929" lon="5.73189">
        <ele>503</ele>
        <time>2022-03-07T12:27:57Z</time>
      </trkpt>
      <trkpt lat="46.58928" lon="5.73192">
        <ele>503</ele>
        <time>2022-03-07T12:27:58Z</time>
      </trkpt>
      <trkpt lat="46.58927" lon="5.73195">
        <ele>503.2</ele>
        <time>2022-03-07T12:27:59Z</time>
      </trkpt>
      <trkpt lat="46.58926" lon="5.73198">
        <ele>503.2</ele>
        <time>2022-03-07T12:28:00Z</time>
      </trkpt>
      <trkpt lat="46.58925" lon="5.73201">
        <ele>503.4</ele>
        <time>2022-03-07T12:28:01Z</time>
      </trkpt>
      <trkpt lat="46.58925" lon="5.73204">
        <ele>503.4</ele>
        <time>2022-03-07T12:28:02Z</time>
      </trkpt>
      <trkpt lat="46.58923" lon="5.73207">
        <ele>503.8</ele>
        <time>2022-03-07T12:28:03Z</time>
      </trkpt>
      <trkpt lat="46.58922" lon="5.7321">
        <ele>503.8</ele>
        <time>2022-03-07T12:28:04Z</time>
      </trkpt>
      <trkpt lat="46.58921" lon="5.73213">
        <ele>504.2</ele>
        <time>2022-03-07T12:28:05Z</time>
      </trkpt>
      <trkpt lat="46.5892" lon="5.73217">
        <ele>504.2</ele>
        <time>2022-03-07T12:28:06Z</time>
      </trkpt>
      <trkpt lat="46.58919" lon="5.7322">
        <ele>504.2</ele>
        <time>2022-03-07T12:28:07Z</time>
      </trkpt>
      <trkpt lat="46.58918" lon="5.73224">
        <ele>504.6</ele>
        <time>2022-03-07T12:28:08Z</time>
      </trkpt>
      <trkpt lat="46.58917" lon="5.73227">
        <ele>504.6</ele>
        <time>2022-03-07T12:28:09Z</time>
      </trkpt>
      <trkpt lat="46.58915" lon="5.73231">
        <ele>504.8</ele>
        <time>2022-03-07T12:28:10Z</time>
      </trkpt>
      <trkpt lat="46.58914" lon="5.73234">
        <ele>504.8</ele>
        <time>2022-03-07T12:28:11Z</time>
      </trkpt>
      <trkpt lat="46.58913" lon="5.73237">
        <ele>505.2</ele>
        <time>2022-03-07T12:28:12Z</time>
      </trkpt>
      <trkpt lat="46.58912" lon="5.73241">
        <ele>505.2</ele>
        <time>2022-03-07T12:28:13Z</time>
      </trkpt>
      <trkpt lat="46.58911" lon="5.73244">
        <ele>505.4</ele>
        <time>2022-03-07T12:28:14Z</time>
      </trkpt>
      <trkpt lat="46.58909" lon="5.73247">
        <ele>505.4</ele>
        <time>2022-03-07T12:28:15Z</time>
      </trkpt>
      <trkpt lat="46.58908" lon="5.7325">
        <ele>505.8</ele>
        <time>2022-03-07T12:28:16Z</time>
      </trkpt>
      <trkpt lat="46.58907" lon="5.73254">
        <ele>505.8</ele>
        <time>2022-03-07T12:28:17Z</time>
      </trkpt>
      <trkpt lat="46.58905" lon="5.73257">
        <ele>506</ele>
        <time>2022-03-07T12:28:18Z</time>
      </trkpt>
      <trkpt lat="46.58904" lon="5.7326">
        <ele>506</ele>
        <time>2022-03-07T12:28:19Z</time>
      </trkpt>
      <trkpt lat="46.58903" lon="5.73264">
        <ele>506.4</ele>
        <time>2022-03-07T12:28:20Z</time>
      </trkpt>
      <trkpt lat="46.58902" lon="5.73267">
        <ele>506.4</ele>
        <time>2022-03-07T12:28:21Z</time>
      </trkpt>
      <trkpt lat="46.58901" lon="5.7327">
        <ele>506.4</ele>
        <time>2022-03-07T12:28:22Z</time>
      </trkpt>
      <trkpt lat="46.58899" lon="5.73273">
        <ele>506.6</ele>
        <time>2022-03-07T12:28:23Z</time>
      </trkpt>
      <trkpt lat="46.58898" lon="5.73276">
        <ele>506.6</ele>
        <time>2022-03-07T12:28:24Z</time>
      </trkpt>
      <trkpt lat="46.58897" lon="5.73279">
        <ele>507</ele>
        <time>2022-03-07T12:28:25Z</time>
      </trkpt>
      <trkpt lat="46.58895" lon="5.73283">
        <ele>507</ele>
        <time>2022-03-07T12:28:26Z</time>
      </trkpt>
      <trkpt lat="46.58894" lon="5.73286">
        <ele>507.2</ele>
        <time>2022-03-07T12:28:27Z</time>
      </trkpt>
      <trkpt lat="46.58893" lon="5.73289">
        <ele>507.2</ele>
        <time>2022-03-07T12:28:28Z</time>
      </trkpt>
      <trkpt lat="46.58892" lon="5.73292">
        <ele>507.4</ele>
        <time>2022-03-07T12:28:29Z</time>
      </trkpt>
      <trkpt lat="46.5889" lon="5.73295">
        <ele>507.4</ele>
        <time>2022-03-07T12:28:30Z</time>
      </trkpt>
      <trkpt lat="46.58889" lon="5.73298">
        <ele>507.6</ele>
        <time>2022-03-07T12:28:31Z</time>
      </trkpt>
      <trkpt lat="46.58888" lon="5.73301">
        <ele>507.6</ele>
        <time>2022-03-07T12:28:32Z</time>
      </trkpt>
      <trkpt lat="46.58887" lon="5.73304">
        <ele>507.8</ele>
        <time>2022-03-07T12:28:33Z</time>
      </trkpt>
      <trkpt lat="46.58886" lon="5.73307">
        <ele>507.8</ele>
        <time>2022-03-07T12:28:34Z</time>
      </trkpt>
      <trkpt lat="46.58884" lon="5.7331">
        <ele>508.2</ele>
        <time>2022-03-07T12:28:35Z</time>
      </trkpt>
      <trkpt lat="46.58883" lon="5.73313">
        <ele>508.4</ele>
        <time>2022-03-07T12:28:36Z</time>
      </trkpt>
      <trkpt lat="46.58882" lon="5.73316">
        <ele>508.4</ele>
        <time>2022-03-07T12:28:37Z</time>
      </trkpt>
      <trkpt lat="46.58881" lon="5.73319">
        <ele>508.4</ele>
        <time>2022-03-07T12:28:38Z</time>
      </trkpt>
      <trkpt lat="46.5888" lon="5.73322">
        <ele>508.8</ele>
        <time>2022-03-07T12:28:39Z</time>
      </trkpt>
      <trkpt lat="46.58878" lon="5.73325">
        <ele>508.8</ele>
        <time>2022-03-07T12:28:40Z</time>
      </trkpt>
      <trkpt lat="46.58877" lon="5.73328">
        <ele>509</ele>
        <time>2022-03-07T12:28:41Z</time>
      </trkpt>
      <trkpt lat="46.58876" lon="5.73331">
        <ele>509</ele>
        <time>2022-03-07T12:28:42Z</time>
      </trkpt>
      <trkpt lat="46.58875" lon="5.73334">
        <ele>509.4</ele>
        <time>2022-03-07T12:28:43Z</time>
      </trkpt>
      <trkpt lat="46.58874" lon="5.73337">
        <ele>509.6</ele>
        <time>2022-03-07T12:28:44Z</time>
      </trkpt>
      <trkpt lat="46.58873" lon="5.7334">
        <ele>509.6</ele>
        <time>2022-03-07T12:28:45Z</time>
      </trkpt>
      <trkpt lat="46.58872" lon="5.73343">
        <ele>510</ele>
        <time>2022-03-07T12:28:46Z</time>
      </trkpt>
      <trkpt lat="46.5887" lon="5.73346">
        <ele>510.2</ele>
        <time>2022-03-07T12:28:47Z</time>
      </trkpt>
      <trkpt lat="46.5887" lon="5.73349">
        <ele>510.4</ele>
        <time>2022-03-07T12:28:48Z</time>
      </trkpt>
      <trkpt lat="46.58868" lon="5.73353">
        <ele>510.4</ele>
        <time>2022-03-07T12:28:49Z</time>
      </trkpt>
      <trkpt lat="46.58867" lon="5.73355">
        <ele>510.8</ele>
        <time>2022-03-07T12:28:50Z</time>
      </trkpt>
      <trkpt lat="46.58866" lon="5.73358">
        <ele>511.2</ele>
        <time>2022-03-07T12:28:51Z</time>
      </trkpt>
      <trkpt lat="46.58865" lon="5.73361">
        <ele>511.2</ele>
        <time>2022-03-07T12:28:52Z</time>
      </trkpt>
      <trkpt lat="46.58864" lon="5.73364">
        <ele>511.6</ele>
        <time>2022-03-07T12:28:53Z</time>
      </trkpt>
      <trkpt lat="46.58863" lon="5.73367">
        <ele>512</ele>
        <time>2022-03-07T12:28:54Z</time>
      </trkpt>
      <trkpt lat="46.58862" lon="5.7337">
        <ele>512.2</ele>
        <time>2022-03-07T12:28:55Z</time>
      </trkpt>
      <trkpt lat="46.58861" lon="5.73373">
        <ele>512.6</ele>
        <time>2022-03-07T12:28:56Z</time>
      </trkpt>
      <trkpt lat="46.5886" lon="5.73376">
        <ele>512.6</ele>
        <time>2022-03-07T12:28:57Z</time>
      </trkpt>
      <trkpt lat="46.58859" lon="5.73378">
        <ele>512.8</ele>
        <time>2022-03-07T12:28:58Z</time>
      </trkpt>
      <trkpt lat="46.58858" lon="5.73381">
        <ele>512.8</ele>
        <time>2022-03-07T12:28:59Z</time>
      </trkpt>
      <trkpt lat="46.58857" lon="5.73384">
        <ele>512.8</ele>
        <time>2022-03-07T12:29:00Z</time>
      </trkpt>
      <trkpt lat="46.58856" lon="5.73387">
        <ele>512.8</ele>
        <time>2022-03-07T12:29:01Z</time>
      </trkpt>
      <trkpt lat="46.58855" lon="5.73389">
        <ele>512.8</ele>
        <time>2022-03-07T12:29:02Z</time>
      </trkpt>
      <trkpt lat="46.58854" lon="5.73392">
        <ele>512.8</ele>
        <time>2022-03-07T12:29:03Z</time>
      </trkpt>
      <trkpt lat="46.58853" lon="5.73394">
        <ele>512.8</ele>
        <time>2022-03-07T12:29:04Z</time>
      </trkpt>
      <trkpt lat="46.58852" lon="5.73397">
        <ele>512.8</ele>
        <time>2022-03-07T12:29:05Z</time>
      </trkpt>
      <trkpt lat="46.58851" lon="5.734">
        <ele>512.8</ele>
        <time>2022-03-07T12:29:06Z</time>
      </trkpt>
      <trkpt lat="46.5885" lon="5.73403">
        <ele>512.8</ele>
        <time>2022-03-07T12:29:07Z</time>
      </trkpt>
      <trkpt lat="46.58849" lon="5.73406">
        <ele>512.8</ele>
        <time>2022-03-07T12:29:08Z</time>
      </trkpt>
      <trkpt lat="46.58848" lon="5.73409">
        <ele>513</ele>
        <time>2022-03-07T12:29:09Z</time>
      </trkpt>
      <trkpt lat="46.58847" lon="5.73413">
        <ele>513</ele>
        <time>2022-03-07T12:29:10Z</time>
      </trkpt>
      <trkpt lat="46.58846" lon="5.73416">
        <ele>513.4</ele>
        <time>2022-03-07T12:29:11Z</time>
      </trkpt>
      <trkpt lat="46.58845" lon="5.73419">
        <ele>513.4</ele>
        <time>2022-03-07T12:29:12Z</time>
      </trkpt>
      <trkpt lat="46.58844" lon="5.73422">
        <ele>513.6</ele>
        <time>2022-03-07T12:29:13Z</time>
      </trkpt>
      <trkpt lat="46.58843" lon="5.73425">
        <ele>513.6</ele>
        <time>2022-03-07T12:29:14Z</time>
      </trkpt>
      <trkpt lat="46.58841" lon="5.73429">
        <ele>514</ele>
        <time>2022-03-07T12:29:15Z</time>
      </trkpt>
      <trkpt lat="46.5884" lon="5.73432">
        <ele>514</ele>
        <time>2022-03-07T12:29:16Z</time>
      </trkpt>
      <trkpt lat="46.5884" lon="5.73435">
        <ele>514.2</ele>
        <time>2022-03-07T12:29:17Z</time>
      </trkpt>
      <trkpt lat="46.58838" lon="5.73439">
        <ele>514.2</ele>
        <time>2022-03-07T12:29:18Z</time>
      </trkpt>
      <trkpt lat="46.58837" lon="5.73442">
        <ele>514.4</ele>
        <time>2022-03-07T12:29:19Z</time>
      </trkpt>
      <trkpt lat="46.58836" lon="5.73445">
        <ele>514.4</ele>
        <time>2022-03-07T12:29:20Z</time>
      </trkpt>
      <trkpt lat="46.58835" lon="5.73448">
        <ele>514.4</ele>
        <time>2022-03-07T12:29:21Z</time>
      </trkpt>
      <trkpt lat="46.58834" lon="5.73451">
        <ele>514.6</ele>
        <time>2022-03-07T12:29:22Z</time>
      </trkpt>
      <trkpt lat="46.58833" lon="5.73454">
        <ele>514.6</ele>
        <time>2022-03-07T12:29:23Z</time>
      </trkpt>
      <trkpt lat="46.58832" lon="5.73457">
        <ele>515</ele>
        <time>2022-03-07T12:29:24Z</time>
      </trkpt>
      <trkpt lat="46.58831" lon="5.73461">
        <ele>515</ele>
        <time>2022-03-07T12:29:25Z</time>
      </trkpt>
      <trkpt lat="46.5883" lon="5.73464">
        <ele>515.4</ele>
        <time>2022-03-07T12:29:26Z</time>
      </trkpt>
      <trkpt lat="46.58829" lon="5.73467">
        <ele>515.4</ele>
        <time>2022-03-07T12:29:27Z</time>
      </trkpt>
      <trkpt lat="46.58828" lon="5.73471">
        <ele>515.6</ele>
        <time>2022-03-07T12:29:28Z</time>
      </trkpt>
      <trkpt lat="46.58827" lon="5.73474">
        <ele>515.6</ele>
        <time>2022-03-07T12:29:29Z</time>
      </trkpt>
      <trkpt lat="46.58826" lon="5.73477">
        <ele>515.8</ele>
        <time>2022-03-07T12:29:30Z</time>
      </trkpt>
      <trkpt lat="46.58825" lon="5.73481">
        <ele>515.8</ele>
        <time>2022-03-07T12:29:31Z</time>
      </trkpt>
      <trkpt lat="46.58825" lon="5.73484">
        <ele>516.2</ele>
        <time>2022-03-07T12:29:32Z</time>
      </trkpt>
      <trkpt lat="46.58824" lon="5.73488">
        <ele>516.2</ele>
        <time>2022-03-07T12:29:33Z</time>
      </trkpt>
      <trkpt lat="46.58822" lon="5.73491">
        <ele>516.4</ele>
        <time>2022-03-07T12:29:34Z</time>
      </trkpt>
      <trkpt lat="46.58821" lon="5.73494">
        <ele>516.4</ele>
        <time>2022-03-07T12:29:35Z</time>
      </trkpt>
      <trkpt lat="46.58821" lon="5.73498">
        <ele>516.8</ele>
        <time>2022-03-07T12:29:36Z</time>
      </trkpt>
      <trkpt lat="46.5882" lon="5.73501">
        <ele>516.8</ele>
        <time>2022-03-07T12:29:37Z</time>
      </trkpt>
      <trkpt lat="46.58819" lon="5.73504">
        <ele>517.2</ele>
        <time>2022-03-07T12:29:38Z</time>
      </trkpt>
      <trkpt lat="46.58818" lon="5.73508">
        <ele>517.4</ele>
        <time>2022-03-07T12:29:39Z</time>
      </trkpt>
      <trkpt lat="46.58816" lon="5.73511">
        <ele>517.4</ele>
        <time>2022-03-07T12:29:40Z</time>
      </trkpt>
      <trkpt lat="46.58815" lon="5.73514">
        <ele>517.6</ele>
        <time>2022-03-07T12:29:41Z</time>
      </trkpt>
      <trkpt lat="46.58814" lon="5.73517">
        <ele>517.6</ele>
        <time>2022-03-07T12:29:42Z</time>
      </trkpt>
      <trkpt lat="46.58814" lon="5.73521">
        <ele>517.8</ele>
        <time>2022-03-07T12:29:43Z</time>
      </trkpt>
      <trkpt lat="46.58813" lon="5.73524">
        <ele>517.8</ele>
        <time>2022-03-07T12:29:44Z</time>
      </trkpt>
      <trkpt lat="46.58812" lon="5.73527">
        <ele>518.2</ele>
        <time>2022-03-07T12:29:45Z</time>
      </trkpt>
      <trkpt lat="46.58812" lon="5.7353">
        <ele>518.4</ele>
        <time>2022-03-07T12:29:46Z</time>
      </trkpt>
      <trkpt lat="46.58811" lon="5.73534">
        <ele>518.4</ele>
        <time>2022-03-07T12:29:47Z</time>
      </trkpt>
      <trkpt lat="46.5881" lon="5.73537">
        <ele>518.8</ele>
        <time>2022-03-07T12:29:48Z</time>
      </trkpt>
      <trkpt lat="46.5881" lon="5.7354">
        <ele>518.8</ele>
        <time>2022-03-07T12:29:49Z</time>
      </trkpt>
      <trkpt lat="46.58809" lon="5.73543">
        <ele>519</ele>
        <time>2022-03-07T12:29:50Z</time>
      </trkpt>
      <trkpt lat="46.58808" lon="5.73546">
        <ele>519</ele>
        <time>2022-03-07T12:29:51Z</time>
      </trkpt>
      <trkpt lat="46.58807" lon="5.73549">
        <ele>519.4</ele>
        <time>2022-03-07T12:29:52Z</time>
      </trkpt>
      <trkpt lat="46.58806" lon="5.73552">
        <ele>519.6</ele>
        <time>2022-03-07T12:29:53Z</time>
      </trkpt>
      <trkpt lat="46.58805" lon="5.73555">
        <ele>519.6</ele>
        <time>2022-03-07T12:29:54Z</time>
      </trkpt>
      <trkpt lat="46.58804" lon="5.73558">
        <ele>520</ele>
        <time>2022-03-07T12:29:55Z</time>
      </trkpt>
      <trkpt lat="46.58803" lon="5.73561">
        <ele>520</ele>
        <time>2022-03-07T12:29:56Z</time>
      </trkpt>
      <trkpt lat="46.58802" lon="5.73564">
        <ele>520.2</ele>
        <time>2022-03-07T12:29:57Z</time>
      </trkpt>
      <trkpt lat="46.58802" lon="5.73568">
        <ele>520.2</ele>
        <time>2022-03-07T12:29:58Z</time>
      </trkpt>
      <trkpt lat="46.58801" lon="5.73571">
        <ele>520.4</ele>
        <time>2022-03-07T12:29:59Z</time>
      </trkpt>
      <trkpt lat="46.588" lon="5.73574">
        <ele>520.4</ele>
        <time>2022-03-07T12:30:00Z</time>
      </trkpt>
      <trkpt lat="46.58799" lon="5.73577">
        <ele>520.6</ele>
        <time>2022-03-07T12:30:01Z</time>
      </trkpt>
      <trkpt lat="46.58798" lon="5.7358">
        <ele>520.6</ele>
        <time>2022-03-07T12:30:02Z</time>
      </trkpt>
      <trkpt lat="46.58797" lon="5.73583">
        <ele>521</ele>
        <time>2022-03-07T12:30:03Z</time>
      </trkpt>
      <trkpt lat="46.58796" lon="5.73587">
        <ele>521.2</ele>
        <time>2022-03-07T12:30:04Z</time>
      </trkpt>
      <trkpt lat="46.58795" lon="5.7359">
        <ele>521.4</ele>
        <time>2022-03-07T12:30:05Z</time>
      </trkpt>
      <trkpt lat="46.58795" lon="5.73593">
        <ele>521.4</ele>
        <time>2022-03-07T12:30:06Z</time>
      </trkpt>
      <trkpt lat="46.58794" lon="5.73596">
        <ele>521.6</ele>
        <time>2022-03-07T12:30:07Z</time>
      </trkpt>
      <trkpt lat="46.58793" lon="5.73599">
        <ele>521.6</ele>
        <time>2022-03-07T12:30:08Z</time>
      </trkpt>
      <trkpt lat="46.58792" lon="5.73603">
        <ele>522</ele>
        <time>2022-03-07T12:30:09Z</time>
      </trkpt>
      <trkpt lat="46.58791" lon="5.73606">
        <ele>522</ele>
        <time>2022-03-07T12:30:10Z</time>
      </trkpt>
      <trkpt lat="46.5879" lon="5.73609">
        <ele>522.2</ele>
        <time>2022-03-07T12:30:11Z</time>
      </trkpt>
      <trkpt lat="46.58789" lon="5.73612">
        <ele>522.2</ele>
        <time>2022-03-07T12:30:12Z</time>
      </trkpt>
      <trkpt lat="46.58788" lon="5.73615">
        <ele>522.6</ele>
        <time>2022-03-07T12:30:13Z</time>
      </trkpt>
      <trkpt lat="46.58788" lon="5.73618">
        <ele>522.6</ele>
        <time>2022-03-07T12:30:14Z</time>
      </trkpt>
      <trkpt lat="46.58787" lon="5.73621">
        <ele>523</ele>
        <time>2022-03-07T12:30:15Z</time>
      </trkpt>
      <trkpt lat="46.58786" lon="5.73624">
        <ele>523</ele>
        <time>2022-03-07T12:30:16Z</time>
      </trkpt>
      <trkpt lat="46.58785" lon="5.73627">
        <ele>523.2</ele>
        <time>2022-03-07T12:30:17Z</time>
      </trkpt>
      <trkpt lat="46.58784" lon="5.7363">
        <ele>523.2</ele>
        <time>2022-03-07T12:30:18Z</time>
      </trkpt>
      <trkpt lat="46.58783" lon="5.73633">
        <ele>523.6</ele>
        <time>2022-03-07T12:30:19Z</time>
      </trkpt>
      <trkpt lat="46.58782" lon="5.73635">
        <ele>523.6</ele>
        <time>2022-03-07T12:30:20Z</time>
      </trkpt>
      <trkpt lat="46.58781" lon="5.73638">
        <ele>523.8</ele>
        <time>2022-03-07T12:30:21Z</time>
      </trkpt>
      <trkpt lat="46.5878" lon="5.73641">
        <ele>523.8</ele>
        <time>2022-03-07T12:30:22Z</time>
      </trkpt>
      <trkpt lat="46.58779" lon="5.73644">
        <ele>524</ele>
        <time>2022-03-07T12:30:23Z</time>
      </trkpt>
      <trkpt lat="46.58779" lon="5.73647">
        <ele>524</ele>
        <time>2022-03-07T12:30:24Z</time>
      </trkpt>
      <trkpt lat="46.58778" lon="5.7365">
        <ele>524.4</ele>
        <time>2022-03-07T12:30:25Z</time>
      </trkpt>
      <trkpt lat="46.58777" lon="5.73653">
        <ele>524.4</ele>
        <time>2022-03-07T12:30:26Z</time>
      </trkpt>
      <trkpt lat="46.58775" lon="5.73655">
        <ele>524.6</ele>
        <time>2022-03-07T12:30:27Z</time>
      </trkpt>
      <trkpt lat="46.58774" lon="5.73658">
        <ele>524.6</ele>
        <time>2022-03-07T12:30:28Z</time>
      </trkpt>
      <trkpt lat="46.58773" lon="5.73661">
        <ele>524.6</ele>
        <time>2022-03-07T12:30:29Z</time>
      </trkpt>
      <trkpt lat="46.58773" lon="5.73664">
        <ele>525</ele>
        <time>2022-03-07T12:30:30Z</time>
      </trkpt>
      <trkpt lat="46.58772" lon="5.73667">
        <ele>525</ele>
        <time>2022-03-07T12:30:31Z</time>
      </trkpt>
      <trkpt lat="46.58771" lon="5.7367">
        <ele>525.2</ele>
        <time>2022-03-07T12:30:32Z</time>
      </trkpt>
      <trkpt lat="46.5877" lon="5.73673">
        <ele>525.2</ele>
        <time>2022-03-07T12:30:33Z</time>
      </trkpt>
      <trkpt lat="46.58769" lon="5.73676">
        <ele>525.6</ele>
        <time>2022-03-07T12:30:34Z</time>
      </trkpt>
      <trkpt lat="46.58769" lon="5.73679">
        <ele>525.6</ele>
        <time>2022-03-07T12:30:35Z</time>
      </trkpt>
      <trkpt lat="46.58768" lon="5.73681">
        <ele>525.8</ele>
        <time>2022-03-07T12:30:36Z</time>
      </trkpt>
      <trkpt lat="46.58767" lon="5.73684">
        <ele>525.8</ele>
        <time>2022-03-07T12:30:37Z</time>
      </trkpt>
      <trkpt lat="46.58766" lon="5.73687">
        <ele>526.2</ele>
        <time>2022-03-07T12:30:38Z</time>
      </trkpt>
      <trkpt lat="46.58765" lon="5.7369">
        <ele>526.2</ele>
        <time>2022-03-07T12:30:39Z</time>
      </trkpt>
      <trkpt lat="46.58764" lon="5.73694">
        <ele>526.4</ele>
        <time>2022-03-07T12:30:40Z</time>
      </trkpt>
      <trkpt lat="46.58763" lon="5.73697">
        <ele>526.8</ele>
        <time>2022-03-07T12:30:41Z</time>
      </trkpt>
      <trkpt lat="46.58762" lon="5.737">
        <ele>526.8</ele>
        <time>2022-03-07T12:30:42Z</time>
      </trkpt>
      <trkpt lat="46.58761" lon="5.73703">
        <ele>527.2</ele>
        <time>2022-03-07T12:30:43Z</time>
      </trkpt>
      <trkpt lat="46.5876" lon="5.73707">
        <ele>527.2</ele>
        <time>2022-03-07T12:30:44Z</time>
      </trkpt>
      <trkpt lat="46.58759" lon="5.7371">
        <ele>527.4</ele>
        <time>2022-03-07T12:30:45Z</time>
      </trkpt>
      <trkpt lat="46.58758" lon="5.73713">
        <ele>527.6</ele>
        <time>2022-03-07T12:30:46Z</time>
      </trkpt>
      <trkpt lat="46.58757" lon="5.73716">
        <ele>527.6</ele>
        <time>2022-03-07T12:30:47Z</time>
      </trkpt>
      <trkpt lat="46.58756" lon="5.7372">
        <ele>528</ele>
        <time>2022-03-07T12:30:48Z</time>
      </trkpt>
      <trkpt lat="46.58755" lon="5.73723">
        <ele>528</ele>
        <time>2022-03-07T12:30:49Z</time>
      </trkpt>
      <trkpt lat="46.58754" lon="5.73726">
        <ele>528.4</ele>
        <time>2022-03-07T12:30:50Z</time>
      </trkpt>
      <trkpt lat="46.58753" lon="5.73729">
        <ele>528.4</ele>
        <time>2022-03-07T12:30:51Z</time>
      </trkpt>
      <trkpt lat="46.58752" lon="5.73732">
        <ele>528.6</ele>
        <time>2022-03-07T12:30:52Z</time>
      </trkpt>
      <trkpt lat="46.58751" lon="5.73735">
        <ele>528.8</ele>
        <time>2022-03-07T12:30:53Z</time>
      </trkpt>
      <trkpt lat="46.5875" lon="5.73738">
        <ele>528.8</ele>
        <time>2022-03-07T12:30:54Z</time>
      </trkpt>
      <trkpt lat="46.58749" lon="5.73742">
        <ele>529.4</ele>
        <time>2022-03-07T12:30:55Z</time>
      </trkpt>
      <trkpt lat="46.58748" lon="5.73745">
        <ele>529.4</ele>
        <time>2022-03-07T12:30:56Z</time>
      </trkpt>
      <trkpt lat="46.58747" lon="5.73748">
        <ele>529.4</ele>
        <time>2022-03-07T12:30:57Z</time>
      </trkpt>
      <trkpt lat="46.58746" lon="5.73751">
        <ele>529.6</ele>
        <time>2022-03-07T12:30:58Z</time>
      </trkpt>
      <trkpt lat="46.58745" lon="5.73754">
        <ele>529.6</ele>
        <time>2022-03-07T12:30:59Z</time>
      </trkpt>
      <trkpt lat="46.58744" lon="5.73757">
        <ele>529.8</ele>
        <time>2022-03-07T12:31:00Z</time>
      </trkpt>
      <trkpt lat="46.58743" lon="5.7376">
        <ele>529.8</ele>
        <time>2022-03-07T12:31:01Z</time>
      </trkpt>
      <trkpt lat="46.58742" lon="5.73763">
        <ele>530</ele>
        <time>2022-03-07T12:31:02Z</time>
      </trkpt>
      <trkpt lat="46.58741" lon="5.73765">
        <ele>530</ele>
        <time>2022-03-07T12:31:03Z</time>
      </trkpt>
      <trkpt lat="46.5874" lon="5.73769">
        <ele>530.4</ele>
        <time>2022-03-07T12:31:04Z</time>
      </trkpt>
      <trkpt lat="46.58738" lon="5.73772">
        <ele>530.4</ele>
        <time>2022-03-07T12:31:05Z</time>
      </trkpt>
      <trkpt lat="46.58737" lon="5.73775">
        <ele>530.6</ele>
        <time>2022-03-07T12:31:06Z</time>
      </trkpt>
      <trkpt lat="46.58736" lon="5.73778">
        <ele>530.6</ele>
        <time>2022-03-07T12:31:07Z</time>
      </trkpt>
      <trkpt lat="46.58735" lon="5.73782">
        <ele>531</ele>
        <time>2022-03-07T12:31:08Z</time>
      </trkpt>
      <trkpt lat="46.58733" lon="5.73785">
        <ele>531</ele>
        <time>2022-03-07T12:31:09Z</time>
      </trkpt>
      <trkpt lat="46.58732" lon="5.73788">
        <ele>531.2</ele>
        <time>2022-03-07T12:31:10Z</time>
      </trkpt>
      <trkpt lat="46.5873" lon="5.73791">
        <ele>531.2</ele>
        <time>2022-03-07T12:31:11Z</time>
      </trkpt>
      <trkpt lat="46.58729" lon="5.73795">
        <ele>531.6</ele>
        <time>2022-03-07T12:31:12Z</time>
      </trkpt>
      <trkpt lat="46.58728" lon="5.73798">
        <ele>532</ele>
        <time>2022-03-07T12:31:13Z</time>
      </trkpt>
      <trkpt lat="46.58726" lon="5.73801">
        <ele>532</ele>
        <time>2022-03-07T12:31:14Z</time>
      </trkpt>
      <trkpt lat="46.58725" lon="5.73804">
        <ele>532.2</ele>
        <time>2022-03-07T12:31:15Z</time>
      </trkpt>
      <trkpt lat="46.58724" lon="5.73807">
        <ele>532.2</ele>
        <time>2022-03-07T12:31:16Z</time>
      </trkpt>
      <trkpt lat="46.58722" lon="5.73811">
        <ele>532.4</ele>
        <time>2022-03-07T12:31:17Z</time>
      </trkpt>
      <trkpt lat="46.58721" lon="5.73814">
        <ele>532.6</ele>
        <time>2022-03-07T12:31:18Z</time>
      </trkpt>
      <trkpt lat="46.5872" lon="5.73817">
        <ele>532.6</ele>
        <time>2022-03-07T12:31:19Z</time>
      </trkpt>
      <trkpt lat="46.58719" lon="5.7382">
        <ele>532.8</ele>
        <time>2022-03-07T12:31:20Z</time>
      </trkpt>
      <trkpt lat="46.58717" lon="5.73823">
        <ele>532.8</ele>
        <time>2022-03-07T12:31:21Z</time>
      </trkpt>
      <trkpt lat="46.58715" lon="5.73826">
        <ele>533.2</ele>
        <time>2022-03-07T12:31:22Z</time>
      </trkpt>
      <trkpt lat="46.58714" lon="5.73829">
        <ele>533.2</ele>
        <time>2022-03-07T12:31:23Z</time>
      </trkpt>
      <trkpt lat="46.58712" lon="5.73833">
        <ele>533.2</ele>
        <time>2022-03-07T12:31:24Z</time>
      </trkpt>
      <trkpt lat="46.58711" lon="5.73837">
        <ele>533.4</ele>
        <time>2022-03-07T12:31:25Z</time>
      </trkpt>
      <trkpt lat="46.58709" lon="5.73841">
        <ele>533.4</ele>
        <time>2022-03-07T12:31:26Z</time>
      </trkpt>
      <trkpt lat="46.58709" lon="5.73844">
        <ele>533.8</ele>
        <time>2022-03-07T12:31:27Z</time>
      </trkpt>
      <trkpt lat="46.58707" lon="5.73848">
        <ele>533.8</ele>
        <time>2022-03-07T12:31:28Z</time>
      </trkpt>
      <trkpt lat="46.58706" lon="5.73851">
        <ele>533.8</ele>
        <time>2022-03-07T12:31:29Z</time>
      </trkpt>
      <trkpt lat="46.58704" lon="5.73855">
        <ele>534</ele>
        <time>2022-03-07T12:31:30Z</time>
      </trkpt>
      <trkpt lat="46.58703" lon="5.73858">
        <ele>534</ele>
        <time>2022-03-07T12:31:31Z</time>
      </trkpt>
      <trkpt lat="46.58701" lon="5.73862">
        <ele>534.2</ele>
        <time>2022-03-07T12:31:32Z</time>
      </trkpt>
      <trkpt lat="46.587" lon="5.73865">
        <ele>534.2</ele>
        <time>2022-03-07T12:31:33Z</time>
      </trkpt>
      <trkpt lat="46.58699" lon="5.73869">
        <ele>534.4</ele>
        <time>2022-03-07T12:31:34Z</time>
      </trkpt>
      <trkpt lat="46.58697" lon="5.73872">
        <ele>534.4</ele>
        <time>2022-03-07T12:31:35Z</time>
      </trkpt>
      <trkpt lat="46.58697" lon="5.73872">
        <ele>534.8</ele>
        <time>2022-03-07T12:31:36Z</time>
      </trkpt>
      <trkpt lat="46.58696" lon="5.73876">
        <ele>534.8</ele>
        <time>2022-03-07T12:31:37Z</time>
      </trkpt>
      <trkpt lat="46.58694" lon="5.73879">
        <ele>535.2</ele>
        <time>2022-03-07T12:31:38Z</time>
      </trkpt>
      <trkpt lat="46.58692" lon="5.73883">
        <ele>535.2</ele>
        <time>2022-03-07T12:31:39Z</time>
      </trkpt>
      <trkpt lat="46.58691" lon="5.73887">
        <ele>535.4</ele>
        <time>2022-03-07T12:31:40Z</time>
      </trkpt>
      <trkpt lat="46.58689" lon="5.7389">
        <ele>535.6</ele>
        <time>2022-03-07T12:31:41Z</time>
      </trkpt>
      <trkpt lat="46.58687" lon="5.73894">
        <ele>535.6</ele>
        <time>2022-03-07T12:31:42Z</time>
      </trkpt>
      <trkpt lat="46.58685" lon="5.73897">
        <ele>535.6</ele>
        <time>2022-03-07T12:31:43Z</time>
      </trkpt>
      <trkpt lat="46.58684" lon="5.73901">
        <ele>536</ele>
        <time>2022-03-07T12:31:44Z</time>
      </trkpt>
      <trkpt lat="46.58682" lon="5.73905">
        <ele>536</ele>
        <time>2022-03-07T12:31:45Z</time>
      </trkpt>
      <trkpt lat="46.58681" lon="5.73908">
        <ele>536</ele>
        <time>2022-03-07T12:31:46Z</time>
      </trkpt>
      <trkpt lat="46.58679" lon="5.73911">
        <ele>536.2</ele>
        <time>2022-03-07T12:31:47Z</time>
      </trkpt>
      <trkpt lat="46.58677" lon="5.73915">
        <ele>536.2</ele>
        <time>2022-03-07T12:31:48Z</time>
      </trkpt>
      <trkpt lat="46.58676" lon="5.73918">
        <ele>536.2</ele>
        <time>2022-03-07T12:31:49Z</time>
      </trkpt>
      <trkpt lat="46.58674" lon="5.73922">
        <ele>536.2</ele>
        <time>2022-03-07T12:31:50Z</time>
      </trkpt>
      <trkpt lat="46.58672" lon="5.73925">
        <ele>536.6</ele>
        <time>2022-03-07T12:31:51Z</time>
      </trkpt>
      <trkpt lat="46.5867" lon="5.73928">
        <ele>536.6</ele>
        <time>2022-03-07T12:31:52Z</time>
      </trkpt>
      <trkpt lat="46.58669" lon="5.73931">
        <ele>536.6</ele>
        <time>2022-03-07T12:31:53Z</time>
      </trkpt>
      <trkpt lat="46.58667" lon="5.73935">
        <ele>536.6</ele>
        <time>2022-03-07T12:31:54Z</time>
      </trkpt>
      <trkpt lat="46.58665" lon="5.73938">
        <ele>536.6</ele>
        <time>2022-03-07T12:31:55Z</time>
      </trkpt>
      <trkpt lat="46.58663" lon="5.73942">
        <ele>536.8</ele>
        <time>2022-03-07T12:31:56Z</time>
      </trkpt>
      <trkpt lat="46.58661" lon="5.73946">
        <ele>536.8</ele>
        <time>2022-03-07T12:31:57Z</time>
      </trkpt>
      <trkpt lat="46.58658" lon="5.7395">
        <ele>536.8</ele>
        <time>2022-03-07T12:31:58Z</time>
      </trkpt>
      <trkpt lat="46.58656" lon="5.73954">
        <ele>536.8</ele>
        <time>2022-03-07T12:31:59Z</time>
      </trkpt>
      <trkpt lat="46.58653" lon="5.73959">
        <ele>536.8</ele>
        <time>2022-03-07T12:32:00Z</time>
      </trkpt>
      <trkpt lat="46.58651" lon="5.73964">
        <ele>537</ele>
        <time>2022-03-07T12:32:01Z</time>
      </trkpt>
      <trkpt lat="46.58649" lon="5.73968">
        <ele>537</ele>
        <time>2022-03-07T12:32:02Z</time>
      </trkpt>
      <trkpt lat="46.58646" lon="5.73972">
        <ele>537.2</ele>
        <time>2022-03-07T12:32:03Z</time>
      </trkpt>
      <trkpt lat="46.58644" lon="5.73977">
        <ele>537.4</ele>
        <time>2022-03-07T12:32:04Z</time>
      </trkpt>
      <trkpt lat="46.58641" lon="5.73981">
        <ele>537.4</ele>
        <time>2022-03-07T12:32:05Z</time>
      </trkpt>
      <trkpt lat="46.58639" lon="5.73985">
        <ele>537.6</ele>
        <time>2022-03-07T12:32:06Z</time>
      </trkpt>
      <trkpt lat="46.58636" lon="5.7399">
        <ele>537.6</ele>
        <time>2022-03-07T12:32:07Z</time>
      </trkpt>
      <trkpt lat="46.58634" lon="5.73994">
        <ele>537.6</ele>
        <time>2022-03-07T12:32:08Z</time>
      </trkpt>
      <trkpt lat="46.58632" lon="5.73999">
        <ele>538</ele>
        <time>2022-03-07T12:32:09Z</time>
      </trkpt>
      <trkpt lat="46.58629" lon="5.74003">
        <ele>538</ele>
        <time>2022-03-07T12:32:10Z</time>
      </trkpt>
      <trkpt lat="46.58627" lon="5.74008">
        <ele>538</ele>
        <time>2022-03-07T12:32:11Z</time>
      </trkpt>
      <trkpt lat="46.58624" lon="5.74012">
        <ele>538.2</ele>
        <time>2022-03-07T12:32:12Z</time>
      </trkpt>
      <trkpt lat="46.58622" lon="5.74016">
        <ele>538.2</ele>
        <time>2022-03-07T12:32:13Z</time>
      </trkpt>
      <trkpt lat="46.58619" lon="5.7402">
        <ele>538.2</ele>
        <time>2022-03-07T12:32:14Z</time>
      </trkpt>
      <trkpt lat="46.58617" lon="5.74025">
        <ele>538.2</ele>
        <time>2022-03-07T12:32:15Z</time>
      </trkpt>
      <trkpt lat="46.58615" lon="5.74029">
        <ele>538.4</ele>
        <time>2022-03-07T12:32:16Z</time>
      </trkpt>
      <trkpt lat="46.58612" lon="5.74033">
        <ele>538.4</ele>
        <time>2022-03-07T12:32:17Z</time>
      </trkpt>
      <trkpt lat="46.5861" lon="5.74038">
        <ele>538.4</ele>
        <time>2022-03-07T12:32:18Z</time>
      </trkpt>
      <trkpt lat="46.58608" lon="5.74042">
        <ele>538.6</ele>
        <time>2022-03-07T12:32:19Z</time>
      </trkpt>
      <trkpt lat="46.58605" lon="5.74046">
        <ele>538.6</ele>
        <time>2022-03-07T12:32:20Z</time>
      </trkpt>
      <trkpt lat="46.58603" lon="5.74051">
        <ele>539</ele>
        <time>2022-03-07T12:32:21Z</time>
      </trkpt>
      <trkpt lat="46.58601" lon="5.74055">
        <ele>539</ele>
        <time>2022-03-07T12:32:22Z</time>
      </trkpt>
      <trkpt lat="46.58598" lon="5.74059">
        <ele>539</ele>
        <time>2022-03-07T12:32:23Z</time>
      </trkpt>
      <trkpt lat="46.58596" lon="5.74063">
        <ele>539.2</ele>
        <time>2022-03-07T12:32:24Z</time>
      </trkpt>
      <trkpt lat="46.58594" lon="5.74067">
        <ele>539.2</ele>
        <time>2022-03-07T12:32:25Z</time>
      </trkpt>
      <trkpt lat="46.58591" lon="5.74071">
        <ele>539.2</ele>
        <time>2022-03-07T12:32:26Z</time>
      </trkpt>
      <trkpt lat="46.58589" lon="5.74075">
        <ele>539.2</ele>
        <time>2022-03-07T12:32:27Z</time>
      </trkpt>
      <trkpt lat="46.58587" lon="5.7408">
        <ele>539.2</ele>
        <time>2022-03-07T12:32:28Z</time>
      </trkpt>
      <trkpt lat="46.58584" lon="5.74084">
        <ele>539.6</ele>
        <time>2022-03-07T12:32:29Z</time>
      </trkpt>
      <trkpt lat="46.58582" lon="5.74088">
        <ele>539.6</ele>
        <time>2022-03-07T12:32:30Z</time>
      </trkpt>
      <trkpt lat="46.5858" lon="5.74093">
        <ele>539.8</ele>
        <time>2022-03-07T12:32:31Z</time>
      </trkpt>
      <trkpt lat="46.58577" lon="5.74097">
        <ele>539.8</ele>
        <time>2022-03-07T12:32:32Z</time>
      </trkpt>
      <trkpt lat="46.58575" lon="5.74101">
        <ele>540</ele>
        <time>2022-03-07T12:32:33Z</time>
      </trkpt>
      <trkpt lat="46.58572" lon="5.74105">
        <ele>540</ele>
        <time>2022-03-07T12:32:34Z</time>
      </trkpt>
      <trkpt lat="46.58569" lon="5.7411">
        <ele>540</ele>
        <time>2022-03-07T12:32:35Z</time>
      </trkpt>
      <trkpt lat="46.58567" lon="5.74114">
        <ele>540</ele>
        <time>2022-03-07T12:32:36Z</time>
      </trkpt>
      <trkpt lat="46.58564" lon="5.74119">
        <ele>540.4</ele>
        <time>2022-03-07T12:32:37Z</time>
      </trkpt>
      <trkpt lat="46.58562" lon="5.74123">
        <ele>540.4</ele>
        <time>2022-03-07T12:32:38Z</time>
      </trkpt>
      <trkpt lat="46.58559" lon="5.74128">
        <ele>540.4</ele>
        <time>2022-03-07T12:32:39Z</time>
      </trkpt>
      <trkpt lat="46.58557" lon="5.74132">
        <ele>540.6</ele>
        <time>2022-03-07T12:32:40Z</time>
      </trkpt>
      <trkpt lat="46.58554" lon="5.74137">
        <ele>540.6</ele>
        <time>2022-03-07T12:32:41Z</time>
      </trkpt>
      <trkpt lat="46.58552" lon="5.74141">
        <ele>540.8</ele>
        <time>2022-03-07T12:32:42Z</time>
      </trkpt>
      <trkpt lat="46.58549" lon="5.74146">
        <ele>540.8</ele>
        <time>2022-03-07T12:32:43Z</time>
      </trkpt>
      <trkpt lat="46.58547" lon="5.7415">
        <ele>540.8</ele>
        <time>2022-03-07T12:32:44Z</time>
      </trkpt>
      <trkpt lat="46.58544" lon="5.74155">
        <ele>541</ele>
        <time>2022-03-07T12:32:45Z</time>
      </trkpt>
      <trkpt lat="46.58542" lon="5.74159">
        <ele>541</ele>
        <time>2022-03-07T12:32:46Z</time>
      </trkpt>
      <trkpt lat="46.58539" lon="5.74164">
        <ele>541</ele>
        <time>2022-03-07T12:32:47Z</time>
      </trkpt>
      <trkpt lat="46.58537" lon="5.74168">
        <ele>541.4</ele>
        <time>2022-03-07T12:32:48Z</time>
      </trkpt>
    </trkseg>
  </trk>
</gpx>